<?xml version='1.0' encoding='UTF-8'?><gpx version="1.1" creator="JPX - https://github.com/jenetics/jpx" xmlns="http://www.topografix.com/GPX/1/1"><trk><trkseg><trkpt lat="45.896190388385925" lon="13.381297155166532"><ele>25.999999999999996</ele><time>2026-04-25T06:00:35Z</time></trkpt><trkpt lat="45.89610561621805" lon="13.381257776867418"><ele>26.0</ele><time>2026-04-25T06:00:46Z</time></trkpt><trkpt lat="45.896032276826524" lon="13.381284790429971"><ele>26.0</ele><time>2026-04-25T06:00:49Z</time></trkpt><trkpt lat="45.89593051876397" lon="13.381309062281796"><ele>26.0</ele><time>2026-04-25T06:00:52Z</time></trkpt><trkpt lat="45.89586961772948" lon="13.38138302100701"><ele>25.999999999999996</ele><time>2026-04-25T06:00:55Z</time></trkpt><trkpt lat="45.89584793299372" lon="13.381488893293016"><ele>26.0</ele><time>2026-04-25T06:00:56.999Z</time></trkpt><trkpt lat="45.895826587624455" lon="13.38158977176224"><ele>25.999999999999996</ele><time>2026-04-25T06:00:58.999Z</time></trkpt><trkpt lat="45.89580988361548" lon="13.381695532536082"><ele>26.0</ele><time>2026-04-25T06:01:00.999Z</time></trkpt><trkpt lat="45.89578603719491" lon="13.381813443319249"><ele>26.0</ele><time>2026-04-25T06:01:02.999Z</time></trkpt><trkpt lat="45.89576133227499" lon="13.381942546833358"><ele>26.0</ele><time>2026-04-25T06:01:04.999Z</time></trkpt><trkpt lat="45.89579300853578" lon="13.3820527949916"><ele>25.999999999999996</ele><time>2026-04-25T06:01:09.999Z</time></trkpt><trkpt lat="45.89588717807477" lon="13.38203858167635"><ele>26.0</ele><time>2026-04-25T06:01:11.999Z</time></trkpt><trkpt lat="45.895987854803145" lon="13.38200010306342"><ele>26.0</ele><time>2026-04-25T06:01:13.999Z</time></trkpt><trkpt lat="45.89610854443332" lon="13.381945399991572"><ele>26.0</ele><time>2026-04-25T06:01:15.999Z</time></trkpt><trkpt lat="45.89618281096613" lon="13.38191282911257"><ele>26.0</ele><time>2026-04-25T06:01:16.999Z</time></trkpt><trkpt lat="45.89625962592242" lon="13.38187859141665"><ele>26.0</ele><time>2026-04-25T06:01:17.999Z</time></trkpt><trkpt lat="45.89634509595317" lon="13.381842946999997"><ele>26.0</ele><time>2026-04-25T06:01:18.999Z</time></trkpt><trkpt lat="45.896440923695714" lon="13.3817997607495"><ele>26.0</ele><time>2026-04-25T06:01:19.999Z</time></trkpt><trkpt lat="45.89655322633031" lon="13.381743660489573"><ele>26.0</ele><time>2026-04-25T06:01:20.999Z</time></trkpt><trkpt lat="45.89668476835076" lon="13.381683680698485"><ele>26.0</ele><time>2026-04-25T06:01:21.999Z</time></trkpt><trkpt lat="45.89683422664487" lon="13.381617579700993"><ele>26.0</ele><time>2026-04-25T06:01:22.999Z</time></trkpt><trkpt lat="45.89699696476602" lon="13.381544000113946"><ele>26.0</ele><time>2026-04-25T06:01:23.999Z</time></trkpt><trkpt lat="45.89717228547693" lon="13.381464324857514"><ele>26.0</ele><time>2026-04-25T06:01:24.999Z</time></trkpt><trkpt lat="45.8973606794255" lon="13.381383350846146"><ele>26.0</ele><time>2026-04-25T06:01:25.999Z</time></trkpt><trkpt lat="45.897556986322904" lon="13.381301060391614"><ele>26.0</ele><time>2026-04-25T06:01:26.999Z</time></trkpt><trkpt lat="45.89776434898979" lon="13.38121566695813"><ele>26.0</ele><time>2026-04-25T06:01:27.999Z</time></trkpt><trkpt lat="45.89797766386959" lon="13.381128899712248"><ele>26.0</ele><time>2026-04-25T06:01:28.999Z</time></trkpt><trkpt lat="45.898196129488234" lon="13.38104116927885"><ele>25.0</ele><time>2026-04-25T06:01:29.999Z</time></trkpt><trkpt lat="45.898421019068756" lon="13.380952852111772"><ele>24.0</ele><time>2026-04-25T06:01:30.999Z</time></trkpt><trkpt lat="45.89864962892512" lon="13.380861162771824"><ele>24.0</ele><time>2026-04-25T06:01:31.999Z</time></trkpt><trkpt lat="45.89887941912564" lon="13.380770289279598"><ele>24.0</ele><time>2026-04-25T06:01:32.999Z</time></trkpt><trkpt lat="45.89911205025899" lon="13.380684043671838"><ele>25.0</ele><time>2026-04-25T06:01:33.999Z</time></trkpt><trkpt lat="45.8993455954549" lon="13.380609707565682"><ele>26.0</ele><time>2026-04-25T06:01:34.999Z</time></trkpt><trkpt lat="45.89958020424813" lon="13.380552072902493"><ele>26.0</ele><time>2026-04-25T06:01:35.999Z</time></trkpt><trkpt lat="45.899816773041756" lon="13.38051032901394"><ele>26.0</ele><time>2026-04-25T06:01:36.999Z</time></trkpt><trkpt lat="45.90005434048353" lon="13.380476243360137"><ele>26.0</ele><time>2026-04-25T06:01:37.999Z</time></trkpt><trkpt lat="45.90028828085764" lon="13.380442745100897"><ele>26.0</ele><time>2026-04-25T06:01:38.999Z</time></trkpt><trkpt lat="45.900523556462076" lon="13.380407868055855"><ele>26.0</ele><time>2026-04-25T06:01:39.999Z</time></trkpt><trkpt lat="45.900752591540176" lon="13.380383215739332"><ele>26.0</ele><time>2026-04-25T06:01:40.999Z</time></trkpt><trkpt lat="45.90096477507991" lon="13.380359458865458"><ele>26.0</ele><time>2026-04-25T06:01:41.999Z</time></trkpt><trkpt lat="45.90117464123356" lon="13.380333328610352"><ele>26.0</ele><time>2026-04-25T06:01:42.999Z</time></trkpt><trkpt lat="45.9013892294822" lon="13.380297766113618"><ele>26.0</ele><time>2026-04-25T06:01:43.999Z</time></trkpt><trkpt lat="45.901608888298696" lon="13.380250764150034"><ele>26.0</ele><time>2026-04-25T06:01:44.999Z</time></trkpt><trkpt lat="45.90183645266389" lon="13.380234854550551"><ele>26.0</ele><time>2026-04-25T06:01:45.999Z</time></trkpt><trkpt lat="45.90207173135535" lon="13.380189020747203"><ele>26.0</ele><time>2026-04-25T06:01:46.999Z</time></trkpt><trkpt lat="45.90231162835611" lon="13.38011459556996"><ele>26.0</ele><time>2026-04-25T06:01:47.999Z</time></trkpt><trkpt lat="45.902562988052814" lon="13.380071086239845"><ele>26.0</ele><time>2026-04-25T06:01:48.999Z</time></trkpt><trkpt lat="45.90281624379771" lon="13.38001060074286"><ele>26.5</ele><time>2026-04-25T06:01:49.999Z</time></trkpt><trkpt lat="45.9030744069128" lon="13.379950958973824"><ele>27.0</ele><time>2026-04-25T06:01:50.999Z</time></trkpt><trkpt lat="45.903330014436435" lon="13.379893337863646"><ele>27.0</ele><time>2026-04-25T06:01:51.999Z</time></trkpt><trkpt lat="45.90358917490891" lon="13.379841314662158"><ele>27.0</ele><time>2026-04-25T06:01:52.999Z</time></trkpt><trkpt lat="45.90384957654173" lon="13.379788464711384"><ele>27.0</ele><time>2026-04-25T06:01:53.999Z</time></trkpt><trkpt lat="45.90411050347966" lon="13.379728643030392"><ele>27.0</ele><time>2026-04-25T06:01:54.999Z</time></trkpt><trkpt lat="45.90437315481578" lon="13.379671183806662"><ele>26.5</ele><time>2026-04-25T06:01:55.999Z</time></trkpt><trkpt lat="45.90463707880018" lon="13.379620174677198"><ele>26.0</ele><time>2026-04-25T06:01:56.999Z</time></trkpt><trkpt lat="45.90490248517504" lon="13.37958229466591"><ele>27.0</ele><time>2026-04-25T06:01:57.999Z</time></trkpt><trkpt lat="45.90516682327398" lon="13.37955122902334"><ele>28.0</ele><time>2026-04-25T06:01:58.999Z</time></trkpt><trkpt lat="45.905430021968755" lon="13.379521312517598"><ele>28.0</ele><time>2026-04-25T06:01:59.999Z</time></trkpt><trkpt lat="45.90569049954828" lon="13.379493844808101"><ele>28.0</ele><time>2026-04-25T06:02:00.999Z</time></trkpt><trkpt lat="45.90594949806623" lon="13.37946548302634"><ele>28.5</ele><time>2026-04-25T06:02:01.999Z</time></trkpt><trkpt lat="45.90620242424511" lon="13.379435036387738"><ele>29.0</ele><time>2026-04-25T06:02:02.999Z</time></trkpt><trkpt lat="45.906450077030236" lon="13.37940255795137"><ele>29.0</ele><time>2026-04-25T06:02:03.999Z</time></trkpt><trkpt lat="45.90669564015429" lon="13.37936474994043"><ele>29.0</ele><time>2026-04-25T06:02:04.999Z</time></trkpt><trkpt lat="45.90693563021655" lon="13.379311466290428"><ele>29.0</ele><time>2026-04-25T06:02:06Z</time></trkpt><trkpt lat="45.90716902527349" lon="13.379234806523403"><ele>29.0</ele><time>2026-04-25T06:02:07Z</time></trkpt><trkpt lat="45.90739756333529" lon="13.37913585865093"><ele>29.0</ele><time>2026-04-25T06:02:08Z</time></trkpt><trkpt lat="45.90762882114285" lon="13.379042965607978"><ele>29.0</ele><time>2026-04-25T06:02:09Z</time></trkpt><trkpt lat="45.907859609312574" lon="13.378959758410739"><ele>29.0</ele><time>2026-04-25T06:02:10Z</time></trkpt><trkpt lat="45.90808936207505" lon="13.3788868359681"><ele>29.0</ele><time>2026-04-25T06:02:11Z</time></trkpt><trkpt lat="45.90832314287493" lon="13.378821026766895"><ele>29.0</ele><time>2026-04-25T06:02:12Z</time></trkpt><trkpt lat="45.908560402782356" lon="13.37876460804103"><ele>29.0</ele><time>2026-04-25T06:02:13Z</time></trkpt><trkpt lat="45.908801323857375" lon="13.378724070784106"><ele>29.0</ele><time>2026-04-25T06:02:14Z</time></trkpt><trkpt lat="45.90904239112301" lon="13.378695564949115"><ele>29.0</ele><time>2026-04-25T06:02:15Z</time></trkpt><trkpt lat="45.909282998401274" lon="13.378669807324497"><ele>28.5</ele><time>2026-04-25T06:02:16Z</time></trkpt><trkpt lat="45.909524906336564" lon="13.378658210444508"><ele>28.0</ele><time>2026-04-25T06:02:17Z</time></trkpt><trkpt lat="45.90976554489373" lon="13.378657027320232"><ele>28.0</ele><time>2026-04-25T06:02:18Z</time></trkpt><trkpt lat="45.910007813058385" lon="13.378664411443253"><ele>28.0</ele><time>2026-04-25T06:02:19Z</time></trkpt><trkpt lat="45.91024827804425" lon="13.378681957684881"><ele>29.0</ele><time>2026-04-25T06:02:20Z</time></trkpt><trkpt lat="45.91048895911837" lon="13.378704506375392"><ele>30.0</ele><time>2026-04-25T06:02:21Z</time></trkpt><trkpt lat="45.91072679936059" lon="13.37871689773077"><ele>30.5</ele><time>2026-04-25T06:02:22Z</time></trkpt><trkpt lat="45.91095957793129" lon="13.378694160618913"><ele>31.0</ele><time>2026-04-25T06:02:23Z</time></trkpt><trkpt lat="45.911185203160706" lon="13.378625044968492"><ele>31.0</ele><time>2026-04-25T06:02:24Z</time></trkpt><trkpt lat="45.91140148044222" lon="13.37852323921397"><ele>31.0</ele><time>2026-04-25T06:02:25Z</time></trkpt><trkpt lat="45.91160507273877" lon="13.378390369712747"><ele>31.0</ele><time>2026-04-25T06:02:26Z</time></trkpt><trkpt lat="45.911795090632225" lon="13.378228244977283"><ele>31.0</ele><time>2026-04-25T06:02:27Z</time></trkpt><trkpt lat="45.91197046314774" lon="13.378044323995324"><ele>31.0</ele><time>2026-04-25T06:02:28Z</time></trkpt><trkpt lat="45.912141457573654" lon="13.377852351535545"><ele>31.333333333333336</ele><time>2026-04-25T06:02:29Z</time></trkpt><trkpt lat="45.91231505843115" lon="13.377665729095751"><ele>31.666666666666664</ele><time>2026-04-25T06:02:30Z</time></trkpt><trkpt lat="45.9124890380402" lon="13.377483834007059"><ele>32.0</ele><time>2026-04-25T06:02:31Z</time></trkpt><trkpt lat="45.912654730471466" lon="13.377311720709557"><ele>32.666666666666664</ele><time>2026-04-25T06:02:32Z</time></trkpt><trkpt lat="45.91280616877049" lon="13.377158776505699"><ele>33.333333333333336</ele><time>2026-04-25T06:02:33Z</time></trkpt><trkpt lat="45.912941020344356" lon="13.377030413329354"><ele>34.0</ele><time>2026-04-25T06:02:34Z</time></trkpt><trkpt lat="45.91307003931363" lon="13.376920945603723"><ele>34.0</ele><time>2026-04-25T06:02:35Z</time></trkpt><trkpt lat="45.9132102694591" lon="13.37683918077966"><ele>34.0</ele><time>2026-04-25T06:02:36Z</time></trkpt><trkpt lat="45.913378849769735" lon="13.376790970470939"><ele>34.0</ele><time>2026-04-25T06:02:37Z</time></trkpt><trkpt lat="45.91355573690423" lon="13.376736648764998"><ele>33.66666666666667</ele><time>2026-04-25T06:02:38Z</time></trkpt><trkpt lat="45.91373088345973" lon="13.37666177171089"><ele>33.333333333333336</ele><time>2026-04-25T06:02:39Z</time></trkpt><trkpt lat="45.9139125529164" lon="13.376584255769657"><ele>33.0</ele><time>2026-04-25T06:02:40Z</time></trkpt><trkpt lat="45.91409620503322" lon="13.376505313352613"><ele>33.0</ele><time>2026-04-25T06:02:41Z</time></trkpt><trkpt lat="45.91429219493611" lon="13.376464266053627"><ele>33.0</ele><time>2026-04-25T06:02:42Z</time></trkpt><trkpt lat="45.91449063924991" lon="13.376419401740907"><ele>33.0</ele><time>2026-04-25T06:02:43Z</time></trkpt><trkpt lat="45.91469188135018" lon="13.376360645643295"><ele>32.666666666666664</ele><time>2026-04-25T06:02:44Z</time></trkpt><trkpt lat="45.914900964438104" lon="13.376327328344507"><ele>32.33333333333333</ele><time>2026-04-25T06:02:45Z</time></trkpt><trkpt lat="45.915109555787254" lon="13.376289831615166"><ele>32.0</ele><time>2026-04-25T06:02:46Z</time></trkpt><trkpt lat="45.91532341152084" lon="13.376252032070669"><ele>32.33333333333333</ele><time>2026-04-25T06:02:47Z</time></trkpt><trkpt lat="45.91553987933836" lon="13.376219807431342"><ele>32.666666666666664</ele><time>2026-04-25T06:02:48Z</time></trkpt><trkpt lat="45.915758833968056" lon="13.376193461831647"><ele>33.0</ele><time>2026-04-25T06:02:49Z</time></trkpt><trkpt lat="45.91598081798006" lon="13.376177596562464"><ele>33.0</ele><time>2026-04-25T06:02:50Z</time></trkpt><trkpt lat="45.91621012809514" lon="13.376188644636759"><ele>33.0</ele><time>2026-04-25T06:02:51Z</time></trkpt><trkpt lat="45.91644098079271" lon="13.376183963409058"><ele>33.0</ele><time>2026-04-25T06:02:52Z</time></trkpt><trkpt lat="45.916672383645114" lon="13.376164315704496"><ele>33.0</ele><time>2026-04-25T06:02:53Z</time></trkpt><trkpt lat="45.916903299103886" lon="13.376130318528315"><ele>31.5</ele><time>2026-04-25T06:02:54Z</time></trkpt><trkpt lat="45.917140323841615" lon="13.376089048620903"><ele>30.0</ele><time>2026-04-25T06:02:55Z</time></trkpt><trkpt lat="45.9173775768918" lon="13.376044538090204"><ele>31.0</ele><time>2026-04-25T06:02:56Z</time></trkpt><trkpt lat="45.91761793848676" lon="13.375999564760006"><ele>32.0</ele><time>2026-04-25T06:02:57Z</time></trkpt><trkpt lat="45.91786044185807" lon="13.375978439213386"><ele>32.0</ele><time>2026-04-25T06:02:58Z</time></trkpt><trkpt lat="45.91809911255682" lon="13.375911926062853"><ele>32.0</ele><time>2026-04-25T06:02:59Z</time></trkpt><trkpt lat="45.91833978847213" lon="13.375868455635521"><ele>32.0</ele><time>2026-04-25T06:03:00Z</time></trkpt><trkpt lat="45.91857492303985" lon="13.375800964909825"><ele>32.0</ele><time>2026-04-25T06:03:01Z</time></trkpt><trkpt lat="45.91880150062677" lon="13.375693443636752"><ele>32.0</ele><time>2026-04-25T06:03:02Z</time></trkpt><trkpt lat="45.91902238382885" lon="13.375551092756309"><ele>32.0</ele><time>2026-04-25T06:03:03Z</time></trkpt><trkpt lat="45.91922946593366" lon="13.375374587802822"><ele>31.5</ele><time>2026-04-25T06:03:04Z</time></trkpt><trkpt lat="45.9194288991137" lon="13.375171184408694"><ele>31.0</ele><time>2026-04-25T06:03:05Z</time></trkpt><trkpt lat="45.919625840723796" lon="13.374963845549642"><ele>31.0</ele><time>2026-04-25T06:03:06Z</time></trkpt><trkpt lat="45.91982330705545" lon="13.374751971916941"><ele>31.0</ele><time>2026-04-25T06:03:06.999Z</time></trkpt><trkpt lat="45.920024316291546" lon="13.374543892801979"><ele>31.5</ele><time>2026-04-25T06:03:07.999Z</time></trkpt><trkpt lat="45.920235934110615" lon="13.374361089926905"><ele>32.0</ele><time>2026-04-25T06:03:08.999Z</time></trkpt><trkpt lat="45.92044071822215" lon="13.374168355937513"><ele>32.0</ele><time>2026-04-25T06:03:09.999Z</time></trkpt><trkpt lat="45.92063383272883" lon="13.374001105140499"><ele>32.0</ele><time>2026-04-25T06:03:10.999Z</time></trkpt><trkpt lat="45.92079765850464" lon="13.373832301332842"><ele>32.0</ele><time>2026-04-25T06:03:11.999Z</time></trkpt><trkpt lat="45.92094343538523" lon="13.373710217746627"><ele>32.0</ele><time>2026-04-25T06:03:12.999Z</time></trkpt><trkpt lat="45.92106134105732" lon="13.37360948416159"><ele>32.0</ele><time>2026-04-25T06:03:13.999Z</time></trkpt><trkpt lat="45.92116467917202" lon="13.373525163532547"><ele>32.0</ele><time>2026-04-25T06:03:14.999Z</time></trkpt><trkpt lat="45.92126367555744" lon="13.373475103273272"><ele>32.0</ele><time>2026-04-25T06:03:15.999Z</time></trkpt><trkpt lat="45.92136600861641" lon="13.373461041422036"><ele>32.0</ele><time>2026-04-25T06:03:16.999Z</time></trkpt><trkpt lat="45.921462238120434" lon="13.373483464743218"><ele>32.0</ele><time>2026-04-25T06:03:17.999Z</time></trkpt><trkpt lat="45.92155697616754" lon="13.37348341785739"><ele>32.0</ele><time>2026-04-25T06:03:18.999Z</time></trkpt><trkpt lat="45.921647064779414" lon="13.373463491862454"><ele>32.0</ele><time>2026-04-25T06:03:19.999Z</time></trkpt><trkpt lat="45.92170077518373" lon="13.373321124067745"><ele>32.0</ele><time>2026-04-25T06:03:20.999Z</time></trkpt><trkpt lat="45.92174011561974" lon="13.373174491161146"><ele>32.25</ele><time>2026-04-25T06:03:21.999Z</time></trkpt><trkpt lat="45.92180378000689" lon="13.373029040094238"><ele>32.5</ele><time>2026-04-25T06:03:22.999Z</time></trkpt><trkpt lat="45.92189616828037" lon="13.372892402845528"><ele>32.75</ele><time>2026-04-25T06:03:23.999Z</time></trkpt><trkpt lat="45.92203070564594" lon="13.372767911885235"><ele>33.0</ele><time>2026-04-25T06:03:24.999Z</time></trkpt><trkpt lat="45.92218532498886" lon="13.372634153071273"><ele>33.0</ele><time>2026-04-25T06:03:25.999Z</time></trkpt><trkpt lat="45.92235547763125" lon="13.372478425313734"><ele>33.0</ele><time>2026-04-25T06:03:26.999Z</time></trkpt><trkpt lat="45.92255723636417" lon="13.372299590837429"><ele>33.0</ele><time>2026-04-25T06:03:27.999Z</time></trkpt><trkpt lat="45.92278959564646" lon="13.37209277884252"><ele>33.0</ele><time>2026-04-25T06:03:28.999Z</time></trkpt><trkpt lat="45.923074301648455" lon="13.371841930654897"><ele>33.0</ele><time>2026-04-25T06:03:29.999Z</time></trkpt><trkpt lat="45.92339637155606" lon="13.37156019976899"><ele>33.0</ele><time>2026-04-25T06:03:30.999Z</time></trkpt><trkpt lat="45.923752732208115" lon="13.371254483399694"><ele>33.0</ele><time>2026-04-25T06:03:31.999Z</time></trkpt><trkpt lat="45.92411942200758" lon="13.370936333878177"><ele>33.0</ele><time>2026-04-25T06:03:32.999Z</time></trkpt><trkpt lat="45.92448073496875" lon="13.370618727696222"><ele>33.0</ele><time>2026-04-25T06:03:33.999Z</time></trkpt><trkpt lat="45.9248300641403" lon="13.370312292910759"><ele>33.5</ele><time>2026-04-25T06:03:34.999Z</time></trkpt><trkpt lat="45.925166668012196" lon="13.370017598283033"><ele>34.0</ele><time>2026-04-25T06:03:35.999Z</time></trkpt><trkpt lat="45.925490537198726" lon="13.369730546360056"><ele>34.0</ele><time>2026-04-25T06:03:36.999Z</time></trkpt><trkpt lat="45.9258036626699" lon="13.369452406630238"><ele>34.0</ele><time>2026-04-25T06:03:37.999Z</time></trkpt><trkpt lat="45.92611637818469" lon="13.369199419871212"><ele>34.0</ele><time>2026-04-25T06:03:38.999Z</time></trkpt><trkpt lat="45.926411766922314" lon="13.36893036749755"><ele>34.0</ele><time>2026-04-25T06:03:39.999Z</time></trkpt><trkpt lat="45.926688620185004" lon="13.368646961066192"><ele>34.0</ele><time>2026-04-25T06:03:40.999Z</time></trkpt><trkpt lat="45.926966473473584" lon="13.368383020803746"><ele>34.0</ele><time>2026-04-25T06:03:41.999Z</time></trkpt><trkpt lat="45.92724283870837" lon="13.368124099778344"><ele>34.0</ele><time>2026-04-25T06:03:42.999Z</time></trkpt><trkpt lat="45.92751552330729" lon="13.367870211694811"><ele>34.0</ele><time>2026-04-25T06:03:43.999Z</time></trkpt><trkpt lat="45.92778533804792" lon="13.367636547055271"><ele>34.0</ele><time>2026-04-25T06:03:44.999Z</time></trkpt><trkpt lat="45.92806199143841" lon="13.367440643009202"><ele>34.0</ele><time>2026-04-25T06:03:45.999Z</time></trkpt><trkpt lat="45.928349154092146" lon="13.36728357359015"><ele>34.0</ele><time>2026-04-25T06:03:46.999Z</time></trkpt><trkpt lat="45.92865040215952" lon="13.367146367486981"><ele>34.0</ele><time>2026-04-25T06:03:47.999Z</time></trkpt><trkpt lat="45.92896004004602" lon="13.367007643041148"><ele>34.5</ele><time>2026-04-25T06:03:48.999Z</time></trkpt><trkpt lat="45.92927432692809" lon="13.366865078374738"><ele>35.0</ele><time>2026-04-25T06:03:49.999Z</time></trkpt><trkpt lat="45.92959169727916" lon="13.36672515405583"><ele>35.0</ele><time>2026-04-25T06:03:50.999Z</time></trkpt><trkpt lat="45.92990242984755" lon="13.366586373163699"><ele>35.0</ele><time>2026-04-25T06:03:51.999Z</time></trkpt><trkpt lat="45.93021221177419" lon="13.36645058862364"><ele>35.0</ele><time>2026-04-25T06:03:52.999Z</time></trkpt><trkpt lat="45.93052085813184" lon="13.366314565495218"><ele>35.0</ele><time>2026-04-25T06:03:53.999Z</time></trkpt><trkpt lat="45.93082741419322" lon="13.366176048471518"><ele>35.0</ele><time>2026-04-25T06:03:54.999Z</time></trkpt><trkpt lat="45.931131615064075" lon="13.366036028916925"><ele>35.0</ele><time>2026-04-25T06:03:55.999Z</time></trkpt><trkpt lat="45.93143300461314" lon="13.365902233677497"><ele>36.0</ele><time>2026-04-25T06:03:56.999Z</time></trkpt><trkpt lat="45.931734058490804" lon="13.365772309868886"><ele>37.0</ele><time>2026-04-25T06:03:57.999Z</time></trkpt><trkpt lat="45.9320346612585" lon="13.365651705869432"><ele>37.0</ele><time>2026-04-25T06:03:58.999Z</time></trkpt><trkpt lat="45.93233947194852" lon="13.365561470541012"><ele>37.0</ele><time>2026-04-25T06:03:59.999Z</time></trkpt><trkpt lat="45.932650615615344" lon="13.36550507095844"><ele>36.0</ele><time>2026-04-25T06:04:00.999Z</time></trkpt><trkpt lat="45.93296752235234" lon="13.365447138951419"><ele>35.0</ele><time>2026-04-25T06:04:01.999Z</time></trkpt><trkpt lat="45.933284564775555" lon="13.365387445969859"><ele>36.0</ele><time>2026-04-25T06:04:02.999Z</time></trkpt><trkpt lat="45.93359960746515" lon="13.365331919400168"><ele>37.0</ele><time>2026-04-25T06:04:03.999Z</time></trkpt><trkpt lat="45.93391172754586" lon="13.3652788304326"><ele>37.0</ele><time>2026-04-25T06:04:04.999Z</time></trkpt><trkpt lat="45.93422031846051" lon="13.365223620417776"><ele>37.0</ele><time>2026-04-25T06:04:05.999Z</time></trkpt><trkpt lat="45.93452603373118" lon="13.365169092031882"><ele>37.0</ele><time>2026-04-25T06:04:06.999Z</time></trkpt><trkpt lat="45.93482871683514" lon="13.365117175340856"><ele>37.0</ele><time>2026-04-25T06:04:07.999Z</time></trkpt><trkpt lat="45.935127898148416" lon="13.365063361959436"><ele>36.5</ele><time>2026-04-25T06:04:08.999Z</time></trkpt><trkpt lat="45.93541862706873" lon="13.365011290690008"><ele>36.0</ele><time>2026-04-25T06:04:09.999Z</time></trkpt><trkpt lat="45.935683313566216" lon="13.364962955078893"><ele>37.0</ele><time>2026-04-25T06:04:10.999Z</time></trkpt><trkpt lat="45.93592397019324" lon="13.364918271711163"><ele>38.0</ele><time>2026-04-25T06:04:12Z</time></trkpt><trkpt lat="45.936142872364734" lon="13.364879409507727"><ele>38.0</ele><time>2026-04-25T06:04:13Z</time></trkpt><trkpt lat="45.93634432391406" lon="13.364843544691048"><ele>38.0</ele><time>2026-04-25T06:04:14Z</time></trkpt><trkpt lat="45.936536367901475" lon="13.36481618155949"><ele>38.0</ele><time>2026-04-25T06:04:15Z</time></trkpt><trkpt lat="45.93670628058297" lon="13.364708951064285"><ele>39.0</ele><time>2026-04-25T06:04:16Z</time></trkpt><trkpt lat="45.936872741764915" lon="13.364575271440666"><ele>40.0</ele><time>2026-04-25T06:04:17Z</time></trkpt><trkpt lat="45.93701954288467" lon="13.364391073340872"><ele>41.0</ele><time>2026-04-25T06:04:18Z</time></trkpt><trkpt lat="45.937143187308465" lon="13.364165951004116"><ele>41.0</ele><time>2026-04-25T06:04:19Z</time></trkpt><trkpt lat="45.93724445465876" lon="13.363909629200757"><ele>41.0</ele><time>2026-04-25T06:04:20Z</time></trkpt><trkpt lat="45.937315649223" lon="13.363622031567296"><ele>41.0</ele><time>2026-04-25T06:04:21Z</time></trkpt><trkpt lat="45.93736974101728" lon="13.363303097975203"><ele>39.5</ele><time>2026-04-25T06:04:22Z</time></trkpt><trkpt lat="45.93743519435036" lon="13.362955498052923"><ele>38.0</ele><time>2026-04-25T06:04:23Z</time></trkpt><trkpt lat="45.9375041781634" lon="13.362594683173652"><ele>38.0</ele><time>2026-04-25T06:04:24Z</time></trkpt><trkpt lat="45.9375736876345" lon="13.362218263784387"><ele>38.0</ele><time>2026-04-25T06:04:25Z</time></trkpt><trkpt lat="45.937648097638906" lon="13.36183811628008"><ele>38.0</ele><time>2026-04-25T06:04:26Z</time></trkpt><trkpt lat="45.937724414171605" lon="13.361450629353346"><ele>38.0</ele><time>2026-04-25T06:04:27Z</time></trkpt><trkpt lat="45.93780278296375" lon="13.361061619363749"><ele>38.0</ele><time>2026-04-25T06:04:28Z</time></trkpt><trkpt lat="45.93789064385157" lon="13.360674812985112"><ele>38.0</ele><time>2026-04-25T06:04:29Z</time></trkpt><trkpt lat="45.937995785917764" lon="13.360294368752461"><ele>38.0</ele><time>2026-04-25T06:04:30Z</time></trkpt><trkpt lat="45.93811718786527" lon="13.359919952733442"><ele>38.0</ele><time>2026-04-25T06:04:31Z</time></trkpt><trkpt lat="45.93824072748132" lon="13.359543706322267"><ele>38.0</ele><time>2026-04-25T06:04:32Z</time></trkpt><trkpt lat="45.938361162816705" lon="13.359161431541931"><ele>38.0</ele><time>2026-04-25T06:04:33Z</time></trkpt><trkpt lat="45.93848274446631" lon="13.358777381430196"><ele>38.5</ele><time>2026-04-25T06:04:34Z</time></trkpt><trkpt lat="45.938605522226005" lon="13.358398221568724"><ele>39.0</ele><time>2026-04-25T06:04:35Z</time></trkpt><trkpt lat="45.93872183607072" lon="13.358042381975107"><ele>38.5</ele><time>2026-04-25T06:04:36Z</time></trkpt><trkpt lat="45.93883450002139" lon="13.35772075616561"><ele>38.0</ele><time>2026-04-25T06:04:37Z</time></trkpt><trkpt lat="45.93896644726768" lon="13.35742617390863"><ele>38.5</ele><time>2026-04-25T06:04:38Z</time></trkpt><trkpt lat="45.93912387511341" lon="13.357150154367325"><ele>39.0</ele><time>2026-04-25T06:04:39Z</time></trkpt><trkpt lat="45.939305940432725" lon="13.356897420849368"><ele>39.0</ele><time>2026-04-25T06:04:40Z</time></trkpt><trkpt lat="45.93951019217731" lon="13.356668660620425"><ele>39.0</ele><time>2026-04-25T06:04:41Z</time></trkpt><trkpt lat="45.93973110731193" lon="13.356454032890145"><ele>39.0</ele><time>2026-04-25T06:04:42Z</time></trkpt><trkpt lat="45.93994708693132" lon="13.356230867531979"><ele>39.0</ele><time>2026-04-25T06:04:43Z</time></trkpt><trkpt lat="45.94014156100839" lon="13.355973661092646"><ele>39.0</ele><time>2026-04-25T06:04:44Z</time></trkpt><trkpt lat="45.94030391491694" lon="13.35566323563743"><ele>39.0</ele><time>2026-04-25T06:04:45Z</time></trkpt><trkpt lat="45.94044921078298" lon="13.355324677216652"><ele>38.5</ele><time>2026-04-25T06:04:46Z</time></trkpt><trkpt lat="45.94058884598818" lon="13.354973636325859"><ele>38.0</ele><time>2026-04-25T06:04:47Z</time></trkpt><trkpt lat="45.94073234201338" lon="13.354628836609525"><ele>38.0</ele><time>2026-04-25T06:04:48Z</time></trkpt><trkpt lat="45.94087259208204" lon="13.354286379425037"><ele>38.0</ele><time>2026-04-25T06:04:49Z</time></trkpt><trkpt lat="45.94100650535711" lon="13.353939570996939"><ele>38.5</ele><time>2026-04-25T06:04:50Z</time></trkpt><trkpt lat="45.94107822205348" lon="13.353554271546209"><ele>39.0</ele><time>2026-04-25T06:04:51Z</time></trkpt><trkpt lat="45.94114763076892" lon="13.353170436709574"><ele>39.5</ele><time>2026-04-25T06:04:52Z</time></trkpt><trkpt lat="45.94122528963594" lon="13.352788791062991"><ele>40.0</ele><time>2026-04-25T06:04:53Z</time></trkpt><trkpt lat="45.94128867826761" lon="13.35240836019666"><ele>40.5</ele><time>2026-04-25T06:04:54Z</time></trkpt><trkpt lat="45.94135258860289" lon="13.352029643164492"><ele>41.0</ele><time>2026-04-25T06:04:55Z</time></trkpt><trkpt lat="45.9414151381327" lon="13.351662114935928"><ele>40.5</ele><time>2026-04-25T06:04:56Z</time></trkpt><trkpt lat="45.94147620453399" lon="13.351310050482246"><ele>40.0</ele><time>2026-04-25T06:04:57Z</time></trkpt><trkpt lat="45.94153334842697" lon="13.350971481074879"><ele>40.0</ele><time>2026-04-25T06:04:58Z</time></trkpt><trkpt lat="45.94158764097354" lon="13.350647313690068"><ele>40.0</ele><time>2026-04-25T06:04:59Z</time></trkpt><trkpt lat="45.94162467367435" lon="13.350330838772646"><ele>39.66666666666667</ele><time>2026-04-25T06:05:00Z</time></trkpt><trkpt lat="45.9416776208022" lon="13.350040744042857"><ele>39.333333333333336</ele><time>2026-04-25T06:05:01Z</time></trkpt><trkpt lat="45.94173868120856" lon="13.349763014800688"><ele>39.0</ele><time>2026-04-25T06:05:02Z</time></trkpt><trkpt lat="45.94182054101145" lon="13.34950563006854"><ele>39.0</ele><time>2026-04-25T06:05:03Z</time></trkpt><trkpt lat="45.94193381029612" lon="13.349251498343518"><ele>39.0</ele><time>2026-04-25T06:05:04Z</time></trkpt><trkpt lat="45.9420798844689" lon="13.349019655699605"><ele>39.0</ele><time>2026-04-25T06:05:05Z</time></trkpt><trkpt lat="45.94225305893555" lon="13.348812907492846"><ele>40.0</ele><time>2026-04-25T06:05:06Z</time></trkpt><trkpt lat="45.94245555408515" lon="13.348644902822498"><ele>41.0</ele><time>2026-04-25T06:05:07Z</time></trkpt><trkpt lat="45.94268828359048" lon="13.348536204498389"><ele>41.0</ele><time>2026-04-25T06:05:08Z</time></trkpt><trkpt lat="45.94292832992259" lon="13.348398460321713"><ele>41.0</ele><time>2026-04-25T06:05:08.999Z</time></trkpt><trkpt lat="45.94318598700945" lon="13.348275251610293"><ele>41.5</ele><time>2026-04-25T06:05:09.999Z</time></trkpt><trkpt lat="45.94346953570582" lon="13.3481339436912"><ele>42.0</ele><time>2026-04-25T06:05:10.999Z</time></trkpt><trkpt lat="45.94382242177366" lon="13.347984757626932"><ele>42.0</ele><time>2026-04-25T06:05:11.999Z</time></trkpt><trkpt lat="45.94417826911186" lon="13.34781267165987"><ele>42.0</ele><time>2026-04-25T06:05:12.999Z</time></trkpt><trkpt lat="45.9444919371663" lon="13.347634556258866"><ele>42.0</ele><time>2026-04-25T06:05:13.999Z</time></trkpt><trkpt lat="45.94479744362815" lon="13.347486450381822"><ele>42.0</ele><time>2026-04-25T06:05:14.999Z</time></trkpt><trkpt lat="45.94509006645792" lon="13.347343880054359"><ele>41.5</ele><time>2026-04-25T06:05:15.999Z</time></trkpt><trkpt lat="45.94537335534271" lon="13.347202952094415"><ele>41.0</ele><time>2026-04-25T06:05:16.999Z</time></trkpt><trkpt lat="45.945650932736726" lon="13.347065717823028"><ele>41.5</ele><time>2026-04-25T06:05:17.999Z</time></trkpt><trkpt lat="45.945922659898045" lon="13.346935095866584"><ele>42.0</ele><time>2026-04-25T06:05:18.999Z</time></trkpt><trkpt lat="45.94618197819932" lon="13.346813182939956"><ele>42.0</ele><time>2026-04-25T06:05:19.999Z</time></trkpt><trkpt lat="45.94643062350347" lon="13.346694950988633"><ele>42.0</ele><time>2026-04-25T06:05:20.999Z</time></trkpt><trkpt lat="45.94666345499321" lon="13.34658347894512"><ele>42.0</ele><time>2026-04-25T06:05:21.999Z</time></trkpt><trkpt lat="45.94688387569541" lon="13.346472630091226"><ele>42.0</ele><time>2026-04-25T06:05:22.999Z</time></trkpt><trkpt lat="45.947090702713545" lon="13.346351277248404"><ele>41.5</ele><time>2026-04-25T06:05:23.999Z</time></trkpt><trkpt lat="45.9472839603826" lon="13.346184517843673"><ele>41.0</ele><time>2026-04-25T06:05:24.999Z</time></trkpt><trkpt lat="45.94746100670745" lon="13.345974907806818"><ele>41.0</ele><time>2026-04-25T06:05:25.999Z</time></trkpt><trkpt lat="45.9476239939853" lon="13.34573515098931"><ele>41.0</ele><time>2026-04-25T06:05:26.999Z</time></trkpt><trkpt lat="45.94776977495054" lon="13.345466580578057"><ele>41.5</ele><time>2026-04-25T06:05:27.999Z</time></trkpt><trkpt lat="45.94792385316945" lon="13.345192645791613"><ele>42.0</ele><time>2026-04-25T06:05:28.999Z</time></trkpt><trkpt lat="45.94807291993252" lon="13.34490536284704"><ele>43.0</ele><time>2026-04-25T06:05:29.999Z</time></trkpt><trkpt lat="45.948213808977" lon="13.344600659661907"><ele>44.0</ele><time>2026-04-25T06:05:30.999Z</time></trkpt><trkpt lat="45.9483698034375" lon="13.344306505529621"><ele>44.0</ele><time>2026-04-25T06:05:31.999Z</time></trkpt><trkpt lat="45.94852650767629" lon="13.344010214364449"><ele>44.0</ele><time>2026-04-25T06:05:32.999Z</time></trkpt><trkpt lat="45.94867828094497" lon="13.34372076578874"><ele>43.5</ele><time>2026-04-25T06:05:33.999Z</time></trkpt><trkpt lat="45.94882506460305" lon="13.343436570975244"><ele>43.0</ele><time>2026-04-25T06:05:34.999Z</time></trkpt><trkpt lat="45.94896659052721" lon="13.343159172001743"><ele>43.0</ele><time>2026-04-25T06:05:35.999Z</time></trkpt><trkpt lat="45.94910434512723" lon="13.342895056482764"><ele>43.0</ele><time>2026-04-25T06:05:36.999Z</time></trkpt><trkpt lat="45.949247889613495" lon="13.342648801207929"><ele>43.66666666666667</ele><time>2026-04-25T06:05:37.999Z</time></trkpt><trkpt lat="45.949399552725104" lon="13.34242201608974"><ele>44.333333333333336</ele><time>2026-04-25T06:05:38.999Z</time></trkpt><trkpt lat="45.94955787021381" lon="13.34221612595326"><ele>45.0</ele><time>2026-04-25T06:05:39.999Z</time></trkpt><trkpt lat="45.949722093409804" lon="13.342021939730767"><ele>45.0</ele><time>2026-04-25T06:05:40.999Z</time></trkpt><trkpt lat="45.949891751370835" lon="13.341836859847769"><ele>45.0</ele><time>2026-04-25T06:05:41.999Z</time></trkpt><trkpt lat="45.95006385059996" lon="13.341658792763265"><ele>45.0</ele><time>2026-04-25T06:05:42.999Z</time></trkpt><trkpt lat="45.95023668712351" lon="13.341476712239364"><ele>45.333333333333336</ele><time>2026-04-25T06:05:43.999Z</time></trkpt><trkpt lat="45.95041140602229" lon="13.341295441371871"><ele>45.66666666666667</ele><time>2026-04-25T06:05:44.999Z</time></trkpt><trkpt lat="45.950586284576865" lon="13.34111553085363"><ele>46.0</ele><time>2026-04-25T06:05:45.999Z</time></trkpt><trkpt lat="45.95076484243398" lon="13.340940312487817"><ele>46.0</ele><time>2026-04-25T06:05:46.999Z</time></trkpt><trkpt lat="45.950946014655244" lon="13.34077562070947"><ele>46.0</ele><time>2026-04-25T06:05:47.999Z</time></trkpt><trkpt lat="45.951129991035174" lon="13.340620174131377"><ele>46.0</ele><time>2026-04-25T06:05:48.999Z</time></trkpt><trkpt lat="45.951318614730646" lon="13.340469989588424"><ele>46.0</ele><time>2026-04-25T06:05:49.999Z</time></trkpt><trkpt lat="45.95150884469141" lon="13.340325635877173"><ele>46.0</ele><time>2026-04-25T06:05:50.999Z</time></trkpt><trkpt lat="45.95170084143391" lon="13.34018643633764"><ele>46.0</ele><time>2026-04-25T06:05:51.999Z</time></trkpt><trkpt lat="45.95188012679564" lon="13.34005934860404"><ele>46.0</ele><time>2026-04-25T06:05:52.999Z</time></trkpt><trkpt lat="45.95204501854514" lon="13.339944330265903"><ele>46.0</ele><time>2026-04-25T06:05:53.999Z</time></trkpt><trkpt lat="45.95219761890947" lon="13.339835445369516"><ele>46.0</ele><time>2026-04-25T06:05:54.999Z</time></trkpt><trkpt lat="45.95234253889976" lon="13.339735666647483"><ele>46.333333333333336</ele><time>2026-04-25T06:05:55.999Z</time></trkpt><trkpt lat="45.952482831959536" lon="13.339643031466593"><ele>46.666666666666664</ele><time>2026-04-25T06:05:56.999Z</time></trkpt><trkpt lat="45.95263453488387" lon="13.339537183692173"><ele>47.0</ele><time>2026-04-25T06:05:57.999Z</time></trkpt><trkpt lat="45.95279555991879" lon="13.339427978477142"><ele>47.0</ele><time>2026-04-25T06:05:58.999Z</time></trkpt><trkpt lat="45.95297538331155" lon="13.339303953704857"><ele>47.0</ele><time>2026-04-25T06:05:59.999Z</time></trkpt><trkpt lat="45.953172867018964" lon="13.339168145242262"><ele>47.0</ele><time>2026-04-25T06:06:00.999Z</time></trkpt><trkpt lat="45.953400680182945" lon="13.339004129232073"><ele>47.0</ele><time>2026-04-25T06:06:01.999Z</time></trkpt><trkpt lat="45.953661185158886" lon="13.338820474875018"><ele>47.0</ele><time>2026-04-25T06:06:02.999Z</time></trkpt><trkpt lat="45.95397807856544" lon="13.338600849198547"><ele>46.0</ele><time>2026-04-25T06:06:03.999Z</time></trkpt><trkpt lat="45.95432991350122" lon="13.338358769111307"><ele>45.0</ele><time>2026-04-25T06:06:04.999Z</time></trkpt><trkpt lat="45.954703465934166" lon="13.33810396510113"><ele>46.0</ele><time>2026-04-25T06:06:05.999Z</time></trkpt><trkpt lat="45.955079420221104" lon="13.33784319204837"><ele>47.0</ele><time>2026-04-25T06:06:06.999Z</time></trkpt><trkpt lat="45.95540817320918" lon="13.337612530988725"><ele>47.0</ele><time>2026-04-25T06:06:07.999Z</time></trkpt><trkpt lat="45.955718415033765" lon="13.337400072417891"><ele>47.0</ele><time>2026-04-25T06:06:08.999Z</time></trkpt><trkpt lat="45.95601232514123" lon="13.3371950745513"><ele>47.0</ele><time>2026-04-25T06:06:09.999Z</time></trkpt><trkpt lat="45.95628970401036" lon="13.337003053164961"><ele>47.0</ele><time>2026-04-25T06:06:10.999Z</time></trkpt><trkpt lat="45.95655646099193" lon="13.33681658687121"><ele>47.5</ele><time>2026-04-25T06:06:11.999Z</time></trkpt><trkpt lat="45.95681259198297" lon="13.336638444608768"><ele>48.0</ele><time>2026-04-25T06:06:12.999Z</time></trkpt><trkpt lat="45.95705920027566" lon="13.336466312701234"><ele>48.0</ele><time>2026-04-25T06:06:13.999Z</time></trkpt><trkpt lat="45.95730022317834" lon="13.336307233545721"><ele>48.0</ele><time>2026-04-25T06:06:14.999Z</time></trkpt><trkpt lat="45.957538451133374" lon="13.336150930836865"><ele>47.5</ele><time>2026-04-25T06:06:15.999Z</time></trkpt><trkpt lat="45.957778494581746" lon="13.33599806686118"><ele>47.0</ele><time>2026-04-25T06:06:16.999Z</time></trkpt><trkpt lat="45.958012385869445" lon="13.335849433782363"><ele>47.0</ele><time>2026-04-25T06:06:18Z</time></trkpt><trkpt lat="45.95824176101667" lon="13.335711831231096"><ele>47.0</ele><time>2026-04-25T06:06:19Z</time></trkpt><trkpt lat="45.95847644617473" lon="13.335599706558757"><ele>46.0</ele><time>2026-04-25T06:06:20Z</time></trkpt><trkpt lat="45.958715044766336" lon="13.335520457760204"><ele>45.0</ele><time>2026-04-25T06:06:21Z</time></trkpt><trkpt lat="45.95895605372171" lon="13.335453561940936"><ele>45.0</ele><time>2026-04-25T06:06:22Z</time></trkpt><trkpt lat="45.959197130343185" lon="13.33538484554641"><ele>45.0</ele><time>2026-04-25T06:06:23Z</time></trkpt><trkpt lat="45.959437886106464" lon="13.335316395672937"><ele>45.5</ele><time>2026-04-25T06:06:24Z</time></trkpt><trkpt lat="45.95967812071095" lon="13.335246160650584"><ele>46.0</ele><time>2026-04-25T06:06:25Z</time></trkpt><trkpt lat="45.9599186621549" lon="13.335176444042734"><ele>47.5</ele><time>2026-04-25T06:06:26Z</time></trkpt><trkpt lat="45.96015784872984" lon="13.33510582178263"><ele>49.0</ele><time>2026-04-25T06:06:27Z</time></trkpt><trkpt lat="45.96039456632023" lon="13.33503470442203"><ele>49.0</ele><time>2026-04-25T06:06:28Z</time></trkpt><trkpt lat="45.96063162618007" lon="13.334964420499453"><ele>49.0</ele><time>2026-04-25T06:06:29Z</time></trkpt><trkpt lat="45.960861252301925" lon="13.334896554232373"><ele>48.0</ele><time>2026-04-25T06:06:30Z</time></trkpt><trkpt lat="45.96109327233361" lon="13.33482609008808"><ele>47.0</ele><time>2026-04-25T06:06:31Z</time></trkpt><trkpt lat="45.96132448033877" lon="13.334727652180439"><ele>47.0</ele><time>2026-04-25T06:06:32Z</time></trkpt><trkpt lat="45.9615569793705" lon="13.334603881313988"><ele>47.0</ele><time>2026-04-25T06:06:33Z</time></trkpt><trkpt lat="45.96179150758451" lon="13.33446688992008"><ele>47.0</ele><time>2026-04-25T06:06:34Z</time></trkpt><trkpt lat="45.96203313616504" lon="13.334313820789996"><ele>47.0</ele><time>2026-04-25T06:06:35Z</time></trkpt><trkpt lat="45.96228350059041" lon="13.334155630624354"><ele>48.0</ele><time>2026-04-25T06:06:36Z</time></trkpt><trkpt lat="45.96254140880515" lon="13.333996401427726"><ele>49.0</ele><time>2026-04-25T06:06:37Z</time></trkpt><trkpt lat="45.962802299407606" lon="13.333832666123252"><ele>49.0</ele><time>2026-04-25T06:06:38Z</time></trkpt><trkpt lat="45.9630669520263" lon="13.33366554713301"><ele>49.0</ele><time>2026-04-25T06:06:39Z</time></trkpt><trkpt lat="45.96333192967015" lon="13.333494947502109"><ele>49.0</ele><time>2026-04-25T06:06:40Z</time></trkpt><trkpt lat="45.963598259199664" lon="13.33332410660749"><ele>49.0</ele><time>2026-04-25T06:06:41Z</time></trkpt><trkpt lat="45.9638620899182" lon="13.333156302526701"><ele>49.0</ele><time>2026-04-25T06:06:42Z</time></trkpt><trkpt lat="45.96412319685391" lon="13.332990595091715"><ele>49.0</ele><time>2026-04-25T06:06:43Z</time></trkpt><trkpt lat="45.964384507031774" lon="13.33282668591195"><ele>50.5</ele><time>2026-04-25T06:06:44Z</time></trkpt><trkpt lat="45.96464481933693" lon="13.332665351401815"><ele>52.0</ele><time>2026-04-25T06:06:45Z</time></trkpt><trkpt lat="45.96490640391867" lon="13.332499732144138"><ele>51.5</ele><time>2026-04-25T06:06:46Z</time></trkpt><trkpt lat="45.96516518343671" lon="13.332336960973961"><ele>51.0</ele><time>2026-04-25T06:06:47Z</time></trkpt><trkpt lat="45.96542488568255" lon="13.332179819138975"><ele>51.0</ele><time>2026-04-25T06:06:48Z</time></trkpt><trkpt lat="45.96568707699459" lon="13.33202846421091"><ele>51.0</ele><time>2026-04-25T06:06:49Z</time></trkpt><trkpt lat="45.965954901721986" lon="13.331894517559446"><ele>51.0</ele><time>2026-04-25T06:06:50Z</time></trkpt><trkpt lat="45.966229816800556" lon="13.331785620256516"><ele>51.0</ele><time>2026-04-25T06:06:51Z</time></trkpt><trkpt lat="45.966509719829325" lon="13.331704497803816"><ele>51.5</ele><time>2026-04-25T06:06:52Z</time></trkpt><trkpt lat="45.96679013355012" lon="13.331634446206055"><ele>52.0</ele><time>2026-04-25T06:06:53Z</time></trkpt><trkpt lat="45.96707047439258" lon="13.331560815807325"><ele>52.0</ele><time>2026-04-25T06:06:54Z</time></trkpt><trkpt lat="45.96734918757489" lon="13.331490551531598"><ele>52.0</ele><time>2026-04-25T06:06:55Z</time></trkpt><trkpt lat="45.967630070760386" lon="13.33142875759667"><ele>53.5</ele><time>2026-04-25T06:06:56Z</time></trkpt><trkpt lat="45.967912554454365" lon="13.331352254820235"><ele>55.0</ele><time>2026-04-25T06:06:57Z</time></trkpt><trkpt lat="45.96819253999875" lon="13.331281118426269"><ele>54.0</ele><time>2026-04-25T06:06:58Z</time></trkpt><trkpt lat="45.96846695795826" lon="13.331213940723302"><ele>53.0</ele><time>2026-04-25T06:06:59Z</time></trkpt><trkpt lat="45.968735305424396" lon="13.331142033319482"><ele>53.0</ele><time>2026-04-25T06:07:00Z</time></trkpt><trkpt lat="45.96899336995609" lon="13.331068864058933"><ele>53.0</ele><time>2026-04-25T06:07:01Z</time></trkpt><trkpt lat="45.96924495379493" lon="13.331001237845088"><ele>53.0</ele><time>2026-04-25T06:07:02Z</time></trkpt><trkpt lat="45.969492293132156" lon="13.330938457080396"><ele>53.0</ele><time>2026-04-25T06:07:03Z</time></trkpt><trkpt lat="45.96973435526014" lon="13.330875237234928"><ele>53.0</ele><time>2026-04-25T06:07:04Z</time></trkpt><trkpt lat="45.969972326180844" lon="13.330811938995064"><ele>53.0</ele><time>2026-04-25T06:07:05Z</time></trkpt><trkpt lat="45.97020603631269" lon="13.330747335636854"><ele>53.5</ele><time>2026-04-25T06:07:06Z</time></trkpt><trkpt lat="45.970435687447576" lon="13.330690912147254"><ele>54.0</ele><time>2026-04-25T06:07:07Z</time></trkpt><trkpt lat="45.97066025025842" lon="13.330635721504065"><ele>53.66666666666667</ele><time>2026-04-25T06:07:08Z</time></trkpt><trkpt lat="45.97088014316712" lon="13.330576686859597"><ele>53.333333333333336</ele><time>2026-04-25T06:07:09Z</time></trkpt><trkpt lat="45.97109599912636" lon="13.330517818043589"><ele>53.0</ele><time>2026-04-25T06:07:10Z</time></trkpt><trkpt lat="45.97130776196834" lon="13.330453090760194"><ele>53.66666666666667</ele><time>2026-04-25T06:07:11Z</time></trkpt><trkpt lat="45.97151355032349" lon="13.330367521832061"><ele>54.33333333333333</ele><time>2026-04-25T06:07:11.999Z</time></trkpt><trkpt lat="45.97171205795523" lon="13.330260906652072"><ele>55.0</ele><time>2026-04-25T06:07:12.999Z</time></trkpt><trkpt lat="45.97190259458901" lon="13.330134904045284"><ele>55.33333333333333</ele><time>2026-04-25T06:07:13.999Z</time></trkpt><trkpt lat="45.97208849686971" lon="13.330004915876792"><ele>55.66666666666667</ele><time>2026-04-25T06:07:14.999Z</time></trkpt><trkpt lat="45.97227176039102" lon="13.32988275648006"><ele>56.0</ele><time>2026-04-25T06:07:15.999Z</time></trkpt><trkpt lat="45.9724554742998" lon="13.329778164698222"><ele>55.333333333333336</ele><time>2026-04-25T06:07:16.999Z</time></trkpt><trkpt lat="45.9726239569426" lon="13.329641529602432"><ele>54.66666666666667</ele><time>2026-04-25T06:07:17.999Z</time></trkpt><trkpt lat="45.972800473130675" lon="13.329531222070331"><ele>54.0</ele><time>2026-04-25T06:07:18.999Z</time></trkpt><trkpt lat="45.972969075211275" lon="13.329412988911187"><ele>54.0</ele><time>2026-04-25T06:07:19.999Z</time></trkpt><trkpt lat="45.97312399909723" lon="13.32931531312735"><ele>54.0</ele><time>2026-04-25T06:07:20.999Z</time></trkpt><trkpt lat="45.97326794007124" lon="13.329218839383659"><ele>54.0</ele><time>2026-04-25T06:07:21.999Z</time></trkpt><trkpt lat="45.973396850879716" lon="13.329127436230573"><ele>54.5</ele><time>2026-04-25T06:07:22.999Z</time></trkpt><trkpt lat="45.97352071665594" lon="13.32903734029248"><ele>55.0</ele><time>2026-04-25T06:07:23.999Z</time></trkpt><trkpt lat="45.97364642159111" lon="13.328951168772333"><ele>55.5</ele><time>2026-04-25T06:07:24.999Z</time></trkpt><trkpt lat="45.973773050443974" lon="13.32887171411955"><ele>56.0</ele><time>2026-04-25T06:07:25.999Z</time></trkpt><trkpt lat="45.973897057216355" lon="13.328785499405315"><ele>56.0</ele><time>2026-04-25T06:07:26.999Z</time></trkpt><trkpt lat="45.97401772822829" lon="13.328702815541803"><ele>56.0</ele><time>2026-04-25T06:07:27.999Z</time></trkpt><trkpt lat="45.97413979282987" lon="13.328623397172269"><ele>56.0</ele><time>2026-04-25T06:07:28.999Z</time></trkpt><trkpt lat="45.97426074145891" lon="13.328544231374769"><ele>56.0</ele><time>2026-04-25T06:07:29.999Z</time></trkpt><trkpt lat="45.974380401139875" lon="13.328458784478535"><ele>56.25</ele><time>2026-04-25T06:07:30.999Z</time></trkpt><trkpt lat="45.97449956839187" lon="13.328377347981297"><ele>56.5</ele><time>2026-04-25T06:07:31.999Z</time></trkpt><trkpt lat="45.9746164752969" lon="13.328300930264128"><ele>56.75</ele><time>2026-04-25T06:07:32.999Z</time></trkpt><trkpt lat="45.974733922795764" lon="13.328222098482565"><ele>57.0</ele><time>2026-04-25T06:07:33.999Z</time></trkpt><trkpt lat="45.97484996514423" lon="13.328141693370911"><ele>57.0</ele><time>2026-04-25T06:07:34.999Z</time></trkpt><trkpt lat="45.974964939883236" lon="13.328064695040853"><ele>57.0</ele><time>2026-04-25T06:07:35.999Z</time></trkpt><trkpt lat="45.975078511981806" lon="13.327991688098159"><ele>57.0</ele><time>2026-04-25T06:07:36.999Z</time></trkpt><trkpt lat="45.97519622685219" lon="13.327926017808789"><ele>57.0</ele><time>2026-04-25T06:07:37.999Z</time></trkpt><trkpt lat="45.975319897833124" lon="13.327878479039606"><ele>57.6</ele><time>2026-04-25T06:07:38.999Z</time></trkpt><trkpt lat="45.97543872125945" lon="13.327849128563846"><ele>58.2</ele><time>2026-04-25T06:07:39.999Z</time></trkpt><trkpt lat="45.9755455983864" lon="13.327835855449264"><ele>58.8</ele><time>2026-04-25T06:07:40.999Z</time></trkpt><trkpt lat="45.97561691562935" lon="13.327837133957063"><ele>59.4</ele><time>2026-04-25T06:07:41.999Z</time></trkpt><trkpt lat="45.9756775607679" lon="13.327867327725473"><ele>60.0</ele><time>2026-04-25T06:07:47.999Z</time></trkpt><trkpt lat="45.97576649477233" lon="13.327864489781128"><ele>59.75</ele><time>2026-04-25T06:07:49.999Z</time></trkpt><trkpt lat="45.97588496839935" lon="13.327922061689598"><ele>59.5</ele><time>2026-04-25T06:07:51.999Z</time></trkpt><trkpt lat="45.97598132816149" lon="13.327734731824126"><ele>59.25</ele><time>2026-04-25T06:07:53.999Z</time></trkpt><trkpt lat="45.97593030237573" lon="13.327604957593644"><ele>59.0</ele><time>2026-04-25T06:07:54.999Z</time></trkpt><trkpt lat="45.975890253119886" lon="13.327475263701643"><ele>59.0</ele><time>2026-04-25T06:07:55.999Z</time></trkpt><trkpt lat="45.97585621729344" lon="13.327306787821952"><ele>59.0</ele><time>2026-04-25T06:07:56.999Z</time></trkpt><trkpt lat="45.97583335798086" lon="13.327108836916839"><ele>59.0</ele><time>2026-04-25T06:07:57.999Z</time></trkpt><trkpt lat="45.97577605355056" lon="13.326908640693668"><ele>59.0</ele><time>2026-04-25T06:07:58.999Z</time></trkpt><trkpt lat="45.97570151276389" lon="13.326651482952059"><ele>58.0</ele><time>2026-04-25T06:07:59.999Z</time></trkpt><trkpt lat="45.975613807838904" lon="13.326348838528597"><ele>57.0</ele><time>2026-04-25T06:08:00.999Z</time></trkpt><trkpt lat="45.975524319907485" lon="13.326040558652554"><ele>57.0</ele><time>2026-04-25T06:08:01.999Z</time></trkpt><trkpt lat="45.975431199830005" lon="13.325755421982835"><ele>57.0</ele><time>2026-04-25T06:08:02.999Z</time></trkpt><trkpt lat="45.97536027745457" lon="13.325475579616652"><ele>57.0</ele><time>2026-04-25T06:08:03.999Z</time></trkpt><trkpt lat="45.97529322977531" lon="13.325211412471937"><ele>57.0</ele><time>2026-04-25T06:08:04.999Z</time></trkpt><trkpt lat="45.97522288416273" lon="13.324958432964824"><ele>57.0</ele><time>2026-04-25T06:08:05.999Z</time></trkpt><trkpt lat="45.97515143500865" lon="13.324713675210033"><ele>57.0</ele><time>2026-04-25T06:08:06.999Z</time></trkpt><trkpt lat="45.9750766207288" lon="13.32447583566737"><ele>57.33333333333333</ele><time>2026-04-25T06:08:07.999Z</time></trkpt><trkpt lat="45.97500129989398" lon="13.324245972829017"><ele>57.666666666666664</ele><time>2026-04-25T06:08:08.999Z</time></trkpt><trkpt lat="45.97492867387942" lon="13.324014559739702"><ele>58.0</ele><time>2026-04-25T06:08:09.999Z</time></trkpt><trkpt lat="45.97485603159584" lon="13.323781445704547"><ele>58.0</ele><time>2026-04-25T06:08:10.999Z</time></trkpt><trkpt lat="45.97478261534617" lon="13.323552183251467"><ele>58.0</ele><time>2026-04-25T06:08:11.999Z</time></trkpt><trkpt lat="45.974712217572076" lon="13.32332600117252"><ele>58.0</ele><time>2026-04-25T06:08:12.999Z</time></trkpt><trkpt lat="45.974650580570106" lon="13.323097748900175"><ele>58.0</ele><time>2026-04-25T06:08:13.999Z</time></trkpt><trkpt lat="45.974594904131365" lon="13.322872340013747"><ele>58.0</ele><time>2026-04-25T06:08:14.999Z</time></trkpt><trkpt lat="45.97453576175834" lon="13.322656502993784"><ele>58.0</ele><time>2026-04-25T06:08:15.999Z</time></trkpt><trkpt lat="45.97448944567256" lon="13.322437986574"><ele>58.0</ele><time>2026-04-25T06:08:16.999Z</time></trkpt><trkpt lat="45.97447159689485" lon="13.322209651916546"><ele>58.0</ele><time>2026-04-25T06:08:17.999Z</time></trkpt><trkpt lat="45.974478532848885" lon="13.32198158044373"><ele>58.0</ele><time>2026-04-25T06:08:18.999Z</time></trkpt><trkpt lat="45.97452195817604" lon="13.321772381528826"><ele>58.0</ele><time>2026-04-25T06:08:19.999Z</time></trkpt><trkpt lat="45.97453599140477" lon="13.321582324439524"><ele>58.0</ele><time>2026-04-25T06:08:20.999Z</time></trkpt><trkpt lat="45.97456664473302" lon="13.32141654613163"><ele>58.0</ele><time>2026-04-25T06:08:21.999Z</time></trkpt><trkpt lat="45.97460016635668" lon="13.32128273165436"><ele>58.0</ele><time>2026-04-25T06:08:22.999Z</time></trkpt><trkpt lat="45.97464852945725" lon="13.32117454669696"><ele>58.0</ele><time>2026-04-25T06:08:24Z</time></trkpt><trkpt lat="45.97470804678747" lon="13.321091143649227"><ele>58.25</ele><time>2026-04-25T06:08:25Z</time></trkpt><trkpt lat="45.97478713804518" lon="13.32101645305491"><ele>58.5</ele><time>2026-04-25T06:08:26Z</time></trkpt><trkpt lat="45.974886301482826" lon="13.320942208615438"><ele>58.75</ele><time>2026-04-25T06:08:27Z</time></trkpt><trkpt lat="45.97500728241145" lon="13.320858375003574"><ele>59.0</ele><time>2026-04-25T06:08:28Z</time></trkpt><trkpt lat="45.97515579517183" lon="13.320808072198332"><ele>59.0</ele><time>2026-04-25T06:08:29Z</time></trkpt><trkpt lat="45.975326870710184" lon="13.320719754192668"><ele>59.0</ele><time>2026-04-25T06:08:30Z</time></trkpt><trkpt lat="45.97551925963616" lon="13.320570696435674"><ele>59.0</ele><time>2026-04-25T06:08:31Z</time></trkpt><trkpt lat="45.97576184642037" lon="13.320469398049074"><ele>58.0</ele><time>2026-04-25T06:08:32Z</time></trkpt><trkpt lat="45.97601260110414" lon="13.320341026207204"><ele>57.0</ele><time>2026-04-25T06:08:33Z</time></trkpt><trkpt lat="45.97625422259558" lon="13.320209645035746"><ele>57.0</ele><time>2026-04-25T06:08:34Z</time></trkpt><trkpt lat="45.97648071965145" lon="13.320072871462477"><ele>57.0</ele><time>2026-04-25T06:08:35Z</time></trkpt><trkpt lat="45.97668916705058" lon="13.319931957279339"><ele>57.33333333333333</ele><time>2026-04-25T06:08:36Z</time></trkpt><trkpt lat="45.976888468924265" lon="13.31978915876005"><ele>57.666666666666664</ele><time>2026-04-25T06:08:37Z</time></trkpt><trkpt lat="45.977086469681375" lon="13.319648758048722"><ele>58.0</ele><time>2026-04-25T06:08:38Z</time></trkpt><trkpt lat="45.97727858933916" lon="13.319501523423249"><ele>58.0</ele><time>2026-04-25T06:08:39Z</time></trkpt><trkpt lat="45.977461876637655" lon="13.319348784569556"><ele>58.0</ele><time>2026-04-25T06:08:40Z</time></trkpt><trkpt lat="45.97763638961311" lon="13.319194849177617"><ele>58.0</ele><time>2026-04-25T06:08:41Z</time></trkpt><trkpt lat="45.97781296185688" lon="13.319062735493091"><ele>58.33333333333333</ele><time>2026-04-25T06:08:42Z</time></trkpt><trkpt lat="45.977973828733965" lon="13.318885539843272"><ele>58.66666666666667</ele><time>2026-04-25T06:08:43Z</time></trkpt><trkpt lat="45.97814691848933" lon="13.318716392217945"><ele>59.0</ele><time>2026-04-25T06:08:44Z</time></trkpt><trkpt lat="45.97832121995481" lon="13.3185311378754"><ele>58.5</ele><time>2026-04-25T06:08:45Z</time></trkpt><trkpt lat="45.97850193407032" lon="13.318342257090379"><ele>58.0</ele><time>2026-04-25T06:08:46Z</time></trkpt><trkpt lat="45.978696591541336" lon="13.31815892939909"><ele>57.5</ele><time>2026-04-25T06:08:47Z</time></trkpt><trkpt lat="45.97890580653258" lon="13.318003880279102"><ele>57.0</ele><time>2026-04-25T06:08:48Z</time></trkpt><trkpt lat="45.97913051756861" lon="13.31787638481395"><ele>58.0</ele><time>2026-04-25T06:08:49Z</time></trkpt><trkpt lat="45.9793615195306" lon="13.3177632256888"><ele>59.0</ele><time>2026-04-25T06:08:50Z</time></trkpt><trkpt lat="45.97959152922294" lon="13.317629710630936"><ele>59.0</ele><time>2026-04-25T06:08:51Z</time></trkpt><trkpt lat="45.97981331359752" lon="13.317458359143359"><ele>59.0</ele><time>2026-04-25T06:08:52Z</time></trkpt><trkpt lat="45.980037534995" lon="13.317278516745207"><ele>59.0</ele><time>2026-04-25T06:08:53Z</time></trkpt><trkpt lat="45.98026093138268" lon="13.317102540991256"><ele>59.0</ele><time>2026-04-25T06:08:54Z</time></trkpt><trkpt lat="45.98047644250437" lon="13.316927454552813"><ele>59.0</ele><time>2026-04-25T06:08:55Z</time></trkpt><trkpt lat="45.980688094723924" lon="13.316744347231381"><ele>59.0</ele><time>2026-04-25T06:08:56Z</time></trkpt><trkpt lat="45.980898013306756" lon="13.316550804509646"><ele>59.0</ele><time>2026-04-25T06:08:57Z</time></trkpt><trkpt lat="45.98111463975448" lon="13.316367436982343"><ele>59.0</ele><time>2026-04-25T06:08:58Z</time></trkpt><trkpt lat="45.98134229960718" lon="13.316202726801675"><ele>59.0</ele><time>2026-04-25T06:08:59Z</time></trkpt><trkpt lat="45.98157550588837" lon="13.31605142153831"><ele>59.0</ele><time>2026-04-25T06:09:00Z</time></trkpt><trkpt lat="45.98181191462127" lon="13.315892892965476"><ele>59.0</ele><time>2026-04-25T06:09:01Z</time></trkpt><trkpt lat="45.98204526397882" lon="13.315734769376691"><ele>59.0</ele><time>2026-04-25T06:09:02Z</time></trkpt><trkpt lat="45.982272581049536" lon="13.315575474110679"><ele>59.0</ele><time>2026-04-25T06:09:03Z</time></trkpt><trkpt lat="45.98249171128235" lon="13.315417505505692"><ele>59.0</ele><time>2026-04-25T06:09:04Z</time></trkpt><trkpt lat="45.98270263607524" lon="13.315258283234714"><ele>59.0</ele><time>2026-04-25T06:09:05Z</time></trkpt><trkpt lat="45.98291048642289" lon="13.315099871860635"><ele>59.0</ele><time>2026-04-25T06:09:06Z</time></trkpt><trkpt lat="45.98312247971481" lon="13.314938337552686"><ele>59.0</ele><time>2026-04-25T06:09:07Z</time></trkpt><trkpt lat="45.98333443693609" lon="13.314766747696973"><ele>59.0</ele><time>2026-04-25T06:09:08Z</time></trkpt><trkpt lat="45.98354107658439" lon="13.314585733675328"><ele>60.0</ele><time>2026-04-25T06:09:09Z</time></trkpt><trkpt lat="45.98373743741786" lon="13.314387362015044"><ele>61.0</ele><time>2026-04-25T06:09:10Z</time></trkpt><trkpt lat="45.983917522081455" lon="13.314164558215294"><ele>61.0</ele><time>2026-04-25T06:09:11Z</time></trkpt><trkpt lat="45.984081202782384" lon="13.31391031987694"><ele>61.0</ele><time>2026-04-25T06:09:12Z</time></trkpt><trkpt lat="45.98424804093874" lon="13.313659929173792"><ele>60.5</ele><time>2026-04-25T06:09:13Z</time></trkpt><trkpt lat="45.98443258129904" lon="13.313431687702264"><ele>60.0</ele><time>2026-04-25T06:09:14Z</time></trkpt><trkpt lat="45.98463636827761" lon="13.313234184037613"><ele>61.0</ele><time>2026-04-25T06:09:14.999Z</time></trkpt><trkpt lat="45.98484811690284" lon="13.313066401727157"><ele>62.0</ele><time>2026-04-25T06:09:15.999Z</time></trkpt><trkpt lat="45.98506703032126" lon="13.312929951958669"><ele>62.0</ele><time>2026-04-25T06:09:16.999Z</time></trkpt><trkpt lat="45.98528958922656" lon="13.312814317438479"><ele>62.0</ele><time>2026-04-25T06:09:17.999Z</time></trkpt><trkpt lat="45.9855118065881" lon="13.31269519585632"><ele>62.0</ele><time>2026-04-25T06:09:18.999Z</time></trkpt><trkpt lat="45.98572821650632" lon="13.312572206926903"><ele>62.0</ele><time>2026-04-25T06:09:19.999Z</time></trkpt><trkpt lat="45.985930803773854" lon="13.312430838543161"><ele>62.5</ele><time>2026-04-25T06:09:20.999Z</time></trkpt><trkpt lat="45.98613973854974" lon="13.312270331350136"><ele>63.0</ele><time>2026-04-25T06:09:21.999Z</time></trkpt><trkpt lat="45.9863774135504" lon="13.312056081991395"><ele>63.0</ele><time>2026-04-25T06:09:22.999Z</time></trkpt><trkpt lat="45.98664980189754" lon="13.311803787659883"><ele>63.0</ele><time>2026-04-25T06:09:23.999Z</time></trkpt><trkpt lat="45.98693865558151" lon="13.311529787292807"><ele>63.5</ele><time>2026-04-25T06:09:24.999Z</time></trkpt><trkpt lat="45.98722659165918" lon="13.311235470330253"><ele>64.0</ele><time>2026-04-25T06:09:25.999Z</time></trkpt><trkpt lat="45.98750556553024" lon="13.310966037796403"><ele>64.0</ele><time>2026-04-25T06:09:26.999Z</time></trkpt><trkpt lat="45.98777643449896" lon="13.310710006091941"><ele>64.0</ele><time>2026-04-25T06:09:27.999Z</time></trkpt><trkpt lat="45.988034035489406" lon="13.310462778545896"><ele>64.5</ele><time>2026-04-25T06:09:28.999Z</time></trkpt><trkpt lat="45.98828182937346" lon="13.31023515053292"><ele>65.0</ele><time>2026-04-25T06:09:29.999Z</time></trkpt><trkpt lat="45.98852517290922" lon="13.31002469105451"><ele>65.0</ele><time>2026-04-25T06:09:30.999Z</time></trkpt><trkpt lat="45.98876677571434" lon="13.309824499074074"><ele>65.0</ele><time>2026-04-25T06:09:31.999Z</time></trkpt><trkpt lat="45.98900485185006" lon="13.309619569115936"><ele>63.5</ele><time>2026-04-25T06:09:32.999Z</time></trkpt><trkpt lat="45.98923948910831" lon="13.30941298362121"><ele>62.0</ele><time>2026-04-25T06:09:33.999Z</time></trkpt><trkpt lat="45.98947563986796" lon="13.309212817801507"><ele>62.0</ele><time>2026-04-25T06:09:34.999Z</time></trkpt><trkpt lat="45.98971074070786" lon="13.309015948955636"><ele>62.0</ele><time>2026-04-25T06:09:35.999Z</time></trkpt><trkpt lat="45.98994388135122" lon="13.308820967375057"><ele>62.0</ele><time>2026-04-25T06:09:36.999Z</time></trkpt><trkpt lat="45.99017706691616" lon="13.308629935909387"><ele>62.0</ele><time>2026-04-25T06:09:37.999Z</time></trkpt><trkpt lat="45.99040970562638" lon="13.308447597977828"><ele>62.0</ele><time>2026-04-25T06:09:38.999Z</time></trkpt><trkpt lat="45.99063220935174" lon="13.308268324401865"><ele>62.0</ele><time>2026-04-25T06:09:39.999Z</time></trkpt><trkpt lat="45.99084629453706" lon="13.308101130112338"><ele>63.0</ele><time>2026-04-25T06:09:40.999Z</time></trkpt><trkpt lat="45.99104044169238" lon="13.307914349993407"><ele>64.0</ele><time>2026-04-25T06:09:41.999Z</time></trkpt><trkpt lat="45.99122638739997" lon="13.307730504236165"><ele>64.0</ele><time>2026-04-25T06:09:42.999Z</time></trkpt><trkpt lat="45.99140079158024" lon="13.307540902119618"><ele>64.0</ele><time>2026-04-25T06:09:43.999Z</time></trkpt><trkpt lat="45.991583011162895" lon="13.30739402722577"><ele>64.0</ele><time>2026-04-25T06:09:44.999Z</time></trkpt><trkpt lat="45.991774921938095" lon="13.307289385227666"><ele>64.66666666666666</ele><time>2026-04-25T06:09:45.999Z</time></trkpt><trkpt lat="45.99198096964736" lon="13.307276340276735"><ele>65.33333333333333</ele><time>2026-04-25T06:09:46.999Z</time></trkpt><trkpt lat="45.99219886994522" lon="13.307266962908876"><ele>66.0</ele><time>2026-04-25T06:09:47.999Z</time></trkpt><trkpt lat="45.99242206565388" lon="13.30728887695816"><ele>66.0</ele><time>2026-04-25T06:09:48.999Z</time></trkpt><trkpt lat="45.99261590069552" lon="13.307291999576204"><ele>66.0</ele><time>2026-04-25T06:09:49.999Z</time></trkpt><trkpt lat="45.992789755146404" lon="13.307275424254248"><ele>66.0</ele><time>2026-04-25T06:09:50.999Z</time></trkpt><trkpt lat="45.99295645328166" lon="13.307257919222934"><ele>66.33333333333333</ele><time>2026-04-25T06:09:51.999Z</time></trkpt><trkpt lat="45.99310508126265" lon="13.307100455052518"><ele>66.66666666666666</ele><time>2026-04-25T06:09:52.999Z</time></trkpt><trkpt lat="45.99324865436569" lon="13.30693376566362"><ele>67.0</ele><time>2026-04-25T06:09:53.999Z</time></trkpt><trkpt lat="45.99339885637416" lon="13.306763779390858"><ele>67.0</ele><time>2026-04-25T06:09:54.999Z</time></trkpt><trkpt lat="45.993554644014125" lon="13.306596564226076"><ele>67.0</ele><time>2026-04-25T06:09:55.999Z</time></trkpt><trkpt lat="45.99372281512013" lon="13.306445565664292"><ele>67.0</ele><time>2026-04-25T06:09:56.999Z</time></trkpt><trkpt lat="45.993909487826954" lon="13.30633851434094"><ele>67.0</ele><time>2026-04-25T06:09:57.999Z</time></trkpt><trkpt lat="45.994102041329086" lon="13.306242704284088"><ele>67.0</ele><time>2026-04-25T06:09:58.999Z</time></trkpt><trkpt lat="45.99428902687889" lon="13.306119863390846"><ele>67.0</ele><time>2026-04-25T06:09:59.999Z</time></trkpt><trkpt lat="45.99447075648879" lon="13.305983359209096"><ele>67.0</ele><time>2026-04-25T06:10:00.999Z</time></trkpt><trkpt lat="45.99464294969317" lon="13.305833456689136"><ele>67.0</ele><time>2026-04-25T06:10:01.999Z</time></trkpt><trkpt lat="45.99481232784682" lon="13.305667684933072"><ele>67.0</ele><time>2026-04-25T06:10:02.999Z</time></trkpt><trkpt lat="45.99498434711702" lon="13.305533661599469"><ele>67.0</ele><time>2026-04-25T06:10:03.999Z</time></trkpt><trkpt lat="45.99515401992858" lon="13.305437111261117"><ele>67.0</ele><time>2026-04-25T06:10:04.999Z</time></trkpt><trkpt lat="45.995317059907194" lon="13.305376347674924"><ele>67.0</ele><time>2026-04-25T06:10:05.999Z</time></trkpt><trkpt lat="45.995462925366816" lon="13.30534356699531"><ele>67.0</ele><time>2026-04-25T06:10:06.999Z</time></trkpt><trkpt lat="45.99558734613399" lon="13.305313759000661"><ele>67.0</ele><time>2026-04-25T06:10:07.999Z</time></trkpt><trkpt lat="45.99568519227615" lon="13.305280621153262"><ele>67.0</ele><time>2026-04-25T06:10:08.999Z</time></trkpt><trkpt lat="45.995767798982705" lon="13.305230451764839"><ele>67.0</ele><time>2026-04-25T06:10:09.999Z</time></trkpt><trkpt lat="45.995837041261574" lon="13.305161249724438"><ele>67.0</ele><time>2026-04-25T06:10:10.999Z</time></trkpt><trkpt lat="45.99583836614883" lon="13.305004667740398"><ele>67.0</ele><time>2026-04-25T06:10:11.999Z</time></trkpt><trkpt lat="45.995829799691705" lon="13.304904933643856"><ele>67.0</ele><time>2026-04-25T06:10:12.999Z</time></trkpt><trkpt lat="45.99582580051495" lon="13.304805927928482"><ele>67.0</ele><time>2026-04-25T06:10:15.999Z</time></trkpt><trkpt lat="45.99582259147085" lon="13.304635324779758"><ele>67.0</ele><time>2026-04-25T06:10:18.999Z</time></trkpt><trkpt lat="45.995820902963764" lon="13.304521797232955"><ele>67.0</ele><time>2026-04-25T06:10:19.999Z</time></trkpt><trkpt lat="45.995834177801434" lon="13.304374061836498"><ele>67.0</ele><time>2026-04-25T06:10:20.999Z</time></trkpt><trkpt lat="45.995815869163486" lon="13.304190650026955"><ele>66.66666666666666</ele><time>2026-04-25T06:10:21.999Z</time></trkpt><trkpt lat="45.99581355324824" lon="13.303972166194525"><ele>66.33333333333333</ele><time>2026-04-25T06:10:22.999Z</time></trkpt><trkpt lat="45.9958125558908" lon="13.303728369735378"><ele>66.0</ele><time>2026-04-25T06:10:23.999Z</time></trkpt><trkpt lat="45.995809059129066" lon="13.30350813958501"><ele>66.0</ele><time>2026-04-25T06:10:24.999Z</time></trkpt><trkpt lat="45.99581146042198" lon="13.303327379266394"><ele>66.0</ele><time>2026-04-25T06:10:25.999Z</time></trkpt><trkpt lat="45.99583315430826" lon="13.303176295217083"><ele>66.0</ele><time>2026-04-25T06:10:26.999Z</time></trkpt><trkpt lat="45.99588261524358" lon="13.303038758585448"><ele>66.0</ele><time>2026-04-25T06:10:27.999Z</time></trkpt><trkpt lat="45.99595083956954" lon="13.302917583240928"><ele>66.0</ele><time>2026-04-25T06:10:28.999Z</time></trkpt><trkpt lat="45.99603782884705" lon="13.302823426498586"><ele>66.75</ele><time>2026-04-25T06:10:30Z</time></trkpt><trkpt lat="45.99614827240518" lon="13.3027561686757"><ele>67.5</ele><time>2026-04-25T06:10:31Z</time></trkpt><trkpt lat="45.99628656783591" lon="13.302727003814924"><ele>68.25</ele><time>2026-04-25T06:10:32Z</time></trkpt><trkpt lat="45.996437007331025" lon="13.302728352768415"><ele>69.0</ele><time>2026-04-25T06:10:33Z</time></trkpt><trkpt lat="45.99659461177994" lon="13.30277767313457"><ele>68.0</ele><time>2026-04-25T06:10:34Z</time></trkpt><trkpt lat="45.996757421833784" lon="13.302867398210296"><ele>67.0</ele><time>2026-04-25T06:10:35Z</time></trkpt><trkpt lat="45.99690721614044" lon="13.303009882852125"><ele>66.0</ele><time>2026-04-25T06:10:36Z</time></trkpt><trkpt lat="45.997048656731415" lon="13.303159006461449"><ele>66.0</ele><time>2026-04-25T06:10:37Z</time></trkpt><trkpt lat="45.99719432134558" lon="13.30326689076331"><ele>66.0</ele><time>2026-04-25T06:10:38Z</time></trkpt><trkpt lat="45.99734363598604" lon="13.303317405599481"><ele>66.0</ele><time>2026-04-25T06:10:39Z</time></trkpt><trkpt lat="45.99749952091639" lon="13.303338529974909"><ele>66.39999999999999</ele><time>2026-04-25T06:10:40Z</time></trkpt><trkpt lat="45.99763275536528" lon="13.303356142931282"><ele>66.8</ele><time>2026-04-25T06:10:41Z</time></trkpt><trkpt lat="45.99774859735264" lon="13.30337105637245"><ele>67.19999999999999</ele><time>2026-04-25T06:10:42Z</time></trkpt><trkpt lat="45.9978485463538" lon="13.303362578431997"><ele>67.6</ele><time>2026-04-25T06:10:43Z</time></trkpt><trkpt lat="45.99794201728919" lon="13.303336027860448"><ele>68.0</ele><time>2026-04-25T06:10:44Z</time></trkpt><trkpt lat="45.99802934655016" lon="13.303233750504988"><ele>67.75</ele><time>2026-04-25T06:10:45Z</time></trkpt><trkpt lat="45.99805837375165" lon="13.303056584387928"><ele>67.5</ele><time>2026-04-25T06:10:46Z</time></trkpt><trkpt lat="45.99809365917415" lon="13.302874860212698"><ele>67.25</ele><time>2026-04-25T06:10:47Z</time></trkpt><trkpt lat="45.99814292813915" lon="13.302667966135047"><ele>67.0</ele><time>2026-04-25T06:10:48Z</time></trkpt><trkpt lat="45.99819499983107" lon="13.302434382932823"><ele>67.5</ele><time>2026-04-25T06:10:49Z</time></trkpt><trkpt lat="45.99827566186293" lon="13.302140063663176"><ele>68.0</ele><time>2026-04-25T06:10:50Z</time></trkpt><trkpt lat="45.99831373948097" lon="13.301779405900007"><ele>68.5</ele><time>2026-04-25T06:10:51Z</time></trkpt><trkpt lat="45.99838291303868" lon="13.301445484289367"><ele>69.0</ele><time>2026-04-25T06:10:52Z</time></trkpt><trkpt lat="45.998431408467766" lon="13.301148043015548"><ele>69.0</ele><time>2026-04-25T06:10:53Z</time></trkpt><trkpt lat="45.99848025994294" lon="13.300887208748408"><ele>69.0</ele><time>2026-04-25T06:10:54Z</time></trkpt><trkpt lat="45.998543588476586" lon="13.300661229779106"><ele>69.0</ele><time>2026-04-25T06:10:55Z</time></trkpt><trkpt lat="45.99861371303637" lon="13.300463131935947"><ele>68.75</ele><time>2026-04-25T06:10:56Z</time></trkpt><trkpt lat="45.99871154556784" lon="13.300326459606898"><ele>68.5</ele><time>2026-04-25T06:10:57Z</time></trkpt><trkpt lat="45.998805945160576" lon="13.300158929352598"><ele>68.25</ele><time>2026-04-25T06:10:58Z</time></trkpt><trkpt lat="45.99888814466274" lon="13.299957857136373"><ele>68.0</ele><time>2026-04-25T06:10:59Z</time></trkpt><trkpt lat="45.9989590673128" lon="13.299743163628419"><ele>68.0</ele><time>2026-04-25T06:11:00Z</time></trkpt><trkpt lat="45.99901657525066" lon="13.299501445068604"><ele>68.0</ele><time>2026-04-25T06:11:01Z</time></trkpt><trkpt lat="45.99908816861812" lon="13.29926260746033"><ele>68.0</ele><time>2026-04-25T06:11:02Z</time></trkpt><trkpt lat="45.99914395947245" lon="13.299020159595884"><ele>67.66666666666667</ele><time>2026-04-25T06:11:03Z</time></trkpt><trkpt lat="45.99920041691176" lon="13.298773146711264"><ele>67.33333333333333</ele><time>2026-04-25T06:11:04Z</time></trkpt><trkpt lat="45.999256794706106" lon="13.298522542908438"><ele>67.0</ele><time>2026-04-25T06:11:05Z</time></trkpt><trkpt lat="45.99931394087296" lon="13.298268523700076"><ele>66.33333333333333</ele><time>2026-04-25T06:11:06Z</time></trkpt><trkpt lat="45.99937309164875" lon="13.298009686449483"><ele>65.66666666666667</ele><time>2026-04-25T06:11:07Z</time></trkpt><trkpt lat="45.99943510365526" lon="13.297742258007176"><ele>65.0</ele><time>2026-04-25T06:11:08Z</time></trkpt><trkpt lat="45.99949955127712" lon="13.29746432591713"><ele>66.0</ele><time>2026-04-25T06:11:09Z</time></trkpt><trkpt lat="45.999569027128636" lon="13.29716470940467"><ele>67.0</ele><time>2026-04-25T06:11:10Z</time></trkpt><trkpt lat="45.999652373473275" lon="13.296783182783994"><ele>67.0</ele><time>2026-04-25T06:11:11Z</time></trkpt><trkpt lat="45.99974044027776" lon="13.296364855833636"><ele>67.0</ele><time>2026-04-25T06:11:12Z</time></trkpt><trkpt lat="45.99983565651042" lon="13.29591256816066"><ele>66.0</ele><time>2026-04-25T06:11:13Z</time></trkpt><trkpt lat="45.999930155047196" lon="13.295453620618483"><ele>65.0</ele><time>2026-04-25T06:11:14Z</time></trkpt><trkpt lat="46.000021075789974" lon="13.295011699509182"><ele>65.5</ele><time>2026-04-25T06:11:15Z</time></trkpt><trkpt lat="46.00010787705227" lon="13.294590059419342"><ele>66.0</ele><time>2026-04-25T06:11:16Z</time></trkpt><trkpt lat="46.000193170448156" lon="13.294189815608998"><ele>67.0</ele><time>2026-04-25T06:11:17Z</time></trkpt><trkpt lat="46.00027073783085" lon="13.293833397843713"><ele>68.0</ele><time>2026-04-25T06:11:17.999Z</time></trkpt><trkpt lat="46.000348584213405" lon="13.293489622959163"><ele>68.0</ele><time>2026-04-25T06:11:18.999Z</time></trkpt><trkpt lat="46.00047044104768" lon="13.293177813595483"><ele>68.0</ele><time>2026-04-25T06:11:19.999Z</time></trkpt><trkpt lat="46.000642746504" lon="13.292908322097992"><ele>67.5</ele><time>2026-04-25T06:11:20.999Z</time></trkpt><trkpt lat="46.000830394759525" lon="13.292651487322317"><ele>67.0</ele><time>2026-04-25T06:11:21.999Z</time></trkpt><trkpt lat="46.00103290043733" lon="13.292386857069333"><ele>67.5</ele><time>2026-04-25T06:11:22.999Z</time></trkpt><trkpt lat="46.00125718318695" lon="13.292139502420637"><ele>68.0</ele><time>2026-04-25T06:11:23.999Z</time></trkpt><trkpt lat="46.001480323772924" lon="13.291884254584845"><ele>68.0</ele><time>2026-04-25T06:11:24.999Z</time></trkpt><trkpt lat="46.00170825119028" lon="13.291626819326016"><ele>68.0</ele><time>2026-04-25T06:11:25.999Z</time></trkpt><trkpt lat="46.00193745249361" lon="13.29136541247182"><ele>68.5</ele><time>2026-04-25T06:11:26.999Z</time></trkpt><trkpt lat="46.00216339365806" lon="13.291106328716323"><ele>69.0</ele><time>2026-04-25T06:11:27.999Z</time></trkpt><trkpt lat="46.00238166769458" lon="13.290846079074596"><ele>68.0</ele><time>2026-04-25T06:11:28.999Z</time></trkpt><trkpt lat="46.002589343567124" lon="13.29057184858332"><ele>67.0</ele><time>2026-04-25T06:11:29.999Z</time></trkpt><trkpt lat="46.00278256712608" lon="13.290279478515814"><ele>67.0</ele><time>2026-04-25T06:11:30.999Z</time></trkpt><trkpt lat="46.00296591989907" lon="13.289972536616514"><ele>67.0</ele><time>2026-04-25T06:11:31.999Z</time></trkpt><trkpt lat="46.0031591505655" lon="13.289678425194149"><ele>66.5</ele><time>2026-04-25T06:11:32.999Z</time></trkpt><trkpt lat="46.00334413529192" lon="13.289366755305315"><ele>66.0</ele><time>2026-04-25T06:11:33.999Z</time></trkpt><trkpt lat="46.003533554110035" lon="13.289047614798866"><ele>67.5</ele><time>2026-04-25T06:11:34.999Z</time></trkpt><trkpt lat="46.00371947251183" lon="13.288703904053062"><ele>69.0</ele><time>2026-04-25T06:11:35.999Z</time></trkpt><trkpt lat="46.003922482289994" lon="13.288365191028404"><ele>69.0</ele><time>2026-04-25T06:11:36.999Z</time></trkpt><trkpt lat="46.004130062924915" lon="13.28801715849763"><ele>69.0</ele><time>2026-04-25T06:11:37.999Z</time></trkpt><trkpt lat="46.004339478547934" lon="13.287666046118566"><ele>68.5</ele><time>2026-04-25T06:11:38.999Z</time></trkpt><trkpt lat="46.004551194779474" lon="13.287318003647364"><ele>68.0</ele><time>2026-04-25T06:11:39.999Z</time></trkpt><trkpt lat="46.00476640460711" lon="13.286969476183955"><ele>67.5</ele><time>2026-04-25T06:11:40.999Z</time></trkpt><trkpt lat="46.00498775616099" lon="13.286627626896042"><ele>67.0</ele><time>2026-04-25T06:11:41.999Z</time></trkpt><trkpt lat="46.005221475870634" lon="13.28630181839499"><ele>68.5</ele><time>2026-04-25T06:11:42.999Z</time></trkpt><trkpt lat="46.005462608810426" lon="13.285986655506164"><ele>70.0</ele><time>2026-04-25T06:11:43.999Z</time></trkpt><trkpt lat="46.005701700933656" lon="13.285664057012324"><ele>69.5</ele><time>2026-04-25T06:11:44.999Z</time></trkpt><trkpt lat="46.005937067747276" lon="13.285345061544573"><ele>69.0</ele><time>2026-04-25T06:11:45.999Z</time></trkpt><trkpt lat="46.00615799004716" lon="13.285044144336037"><ele>69.0</ele><time>2026-04-25T06:11:46.999Z</time></trkpt><trkpt lat="46.00635804735041" lon="13.284764343399285"><ele>69.0</ele><time>2026-04-25T06:11:47.999Z</time></trkpt><trkpt lat="46.00656061790306" lon="13.284501215589486"><ele>69.5</ele><time>2026-04-25T06:11:48.999Z</time></trkpt><trkpt lat="46.00670511053841" lon="13.284168797625208"><ele>70.0</ele><time>2026-04-25T06:11:49.999Z</time></trkpt><trkpt lat="46.00685375166907" lon="13.283821584406695"><ele>70.5</ele><time>2026-04-25T06:11:50.999Z</time></trkpt><trkpt lat="46.007002804013574" lon="13.283457578617577"><ele>71.0</ele><time>2026-04-25T06:11:51.999Z</time></trkpt><trkpt lat="46.007156990451854" lon="13.283092651317439"><ele>71.0</ele><time>2026-04-25T06:11:52.999Z</time></trkpt><trkpt lat="46.00731269649403" lon="13.282725195684334"><ele>71.0</ele><time>2026-04-25T06:11:53.999Z</time></trkpt><trkpt lat="46.0074711467091" lon="13.282351641738913"><ele>72.5</ele><time>2026-04-25T06:11:54.999Z</time></trkpt><trkpt lat="46.00762798915696" lon="13.281980101584988"><ele>74.0</ele><time>2026-04-25T06:11:55.999Z</time></trkpt><trkpt lat="46.0077847506751" lon="13.28161213917919"><ele>73.5</ele><time>2026-04-25T06:11:56.999Z</time></trkpt><trkpt lat="46.00792917975009" lon="13.281263378564484"><ele>73.0</ele><time>2026-04-25T06:11:57.999Z</time></trkpt><trkpt lat="46.00805719560402" lon="13.28094091549663"><ele>73.0</ele><time>2026-04-25T06:11:58.999Z</time></trkpt><trkpt lat="46.00816586320475" lon="13.280630561819564"><ele>73.0</ele><time>2026-04-25T06:11:59.999Z</time></trkpt><trkpt lat="46.00825324335182" lon="13.280322829872684"><ele>73.0</ele><time>2026-04-25T06:12:00.999Z</time></trkpt><trkpt lat="46.008313684216105" lon="13.280018028325891"><ele>73.0</ele><time>2026-04-25T06:12:01.999Z</time></trkpt><trkpt lat="46.008368169409565" lon="13.27971085560278"><ele>73.0</ele><time>2026-04-25T06:12:02.999Z</time></trkpt><trkpt lat="46.008385365436794" lon="13.279398239788424"><ele>73.0</ele><time>2026-04-25T06:12:03.999Z</time></trkpt><trkpt lat="46.00840161857078" lon="13.27910939871654"><ele>73.0</ele><time>2026-04-25T06:12:04.999Z</time></trkpt><trkpt lat="46.008426456443246" lon="13.278853983450668"><ele>73.0</ele><time>2026-04-25T06:12:05.999Z</time></trkpt><trkpt lat="46.00846347210722" lon="13.278596536030923"><ele>74.0</ele><time>2026-04-25T06:12:06.999Z</time></trkpt><trkpt lat="46.0085651154157" lon="13.27837806728306"><ele>75.0</ele><time>2026-04-25T06:12:07.999Z</time></trkpt><trkpt lat="46.00867462233328" lon="13.278170492219092"><ele>76.0</ele><time>2026-04-25T06:12:08.999Z</time></trkpt><trkpt lat="46.00882660324148" lon="13.278018519113266"><ele>76.0</ele><time>2026-04-25T06:12:09.999Z</time></trkpt><trkpt lat="46.00900910225616" lon="13.277902362298406"><ele>76.0</ele><time>2026-04-25T06:12:10.999Z</time></trkpt><trkpt lat="46.00920226672723" lon="13.277787723262943"><ele>76.0</ele><time>2026-04-25T06:12:11.999Z</time></trkpt><trkpt lat="46.00939595236383" lon="13.277670725822613"><ele>76.0</ele><time>2026-04-25T06:12:12.999Z</time></trkpt><trkpt lat="46.00958803430378" lon="13.277550853790451"><ele>76.0</ele><time>2026-04-25T06:12:13.999Z</time></trkpt><trkpt lat="46.009778603790956" lon="13.27742059903173"><ele>76.0</ele><time>2026-04-25T06:12:14.999Z</time></trkpt><trkpt lat="46.00997399719813" lon="13.277292472763945"><ele>75.0</ele><time>2026-04-25T06:12:15.999Z</time></trkpt><trkpt lat="46.010189790989415" lon="13.277104974781878"><ele>74.0</ele><time>2026-04-25T06:12:16.999Z</time></trkpt><trkpt lat="46.01040938573737" lon="13.276831382144486"><ele>74.0</ele><time>2026-04-25T06:12:17.999Z</time></trkpt><trkpt lat="46.010636053307515" lon="13.276537794702708"><ele>74.0</ele><time>2026-04-25T06:12:18.999Z</time></trkpt><trkpt lat="46.01088258612204" lon="13.276246753790785"><ele>75.0</ele><time>2026-04-25T06:12:19.999Z</time></trkpt><trkpt lat="46.01114802764746" lon="13.275991170976544"><ele>76.0</ele><time>2026-04-25T06:12:20.999Z</time></trkpt><trkpt lat="46.01141077990015" lon="13.275741953321582"><ele>76.0</ele><time>2026-04-25T06:12:21.999Z</time></trkpt><trkpt lat="46.01165871905982" lon="13.275508111221301"><ele>76.0</ele><time>2026-04-25T06:12:22.999Z</time></trkpt><trkpt lat="46.011885276334525" lon="13.275294206060273"><ele>76.0</ele><time>2026-04-25T06:12:23.999Z</time></trkpt><trkpt lat="46.01209214248124" lon="13.275100570174319"><ele>76.0</ele><time>2026-04-25T06:12:24.999Z</time></trkpt><trkpt lat="46.012272688244515" lon="13.274935394624277"><ele>76.0</ele><time>2026-04-25T06:12:25.999Z</time></trkpt><trkpt lat="46.012428858072624" lon="13.274783902572256"><ele>76.0</ele><time>2026-04-25T06:12:26.999Z</time></trkpt><trkpt lat="46.012565373957834" lon="13.274615586879516"><ele>76.0</ele><time>2026-04-25T06:12:27.999Z</time></trkpt><trkpt lat="46.012681107391" lon="13.274408129574907"><ele>76.33333333333333</ele><time>2026-04-25T06:12:28.999Z</time></trkpt><trkpt lat="46.0127704093866" lon="13.274165763245316"><ele>76.66666666666667</ele><time>2026-04-25T06:12:29.999Z</time></trkpt><trkpt lat="46.012833677876316" lon="13.273891804257026"><ele>77.0</ele><time>2026-04-25T06:12:30.999Z</time></trkpt><trkpt lat="46.01286155294475" lon="13.27357843606917"><ele>77.0</ele><time>2026-04-25T06:12:31.999Z</time></trkpt><trkpt lat="46.012867517805574" lon="13.273234341234808"><ele>77.0</ele><time>2026-04-25T06:12:32.999Z</time></trkpt><trkpt lat="46.01288475690714" lon="13.272859041912282"><ele>77.5</ele><time>2026-04-25T06:12:33.999Z</time></trkpt><trkpt lat="46.0128936471536" lon="13.272475684340666"><ele>78.0</ele><time>2026-04-25T06:12:34.999Z</time></trkpt><trkpt lat="46.01290048955257" lon="13.272151030515598"><ele>77.33333333333333</ele><time>2026-04-25T06:12:36Z</time></trkpt><trkpt lat="46.01289552102336" lon="13.271878157237886"><ele>76.66666666666666</ele><time>2026-04-25T06:12:37Z</time></trkpt><trkpt lat="46.012913417020336" lon="13.27166633413011"><ele>76.0</ele><time>2026-04-25T06:12:38Z</time></trkpt><trkpt lat="46.01295004183907" lon="13.271488311713567"><ele>75.66666666666666</ele><time>2026-04-25T06:12:39Z</time></trkpt><trkpt lat="46.01301990088732" lon="13.271316345422978"><ele>75.33333333333333</ele><time>2026-04-25T06:12:40Z</time></trkpt><trkpt lat="46.01312129059937" lon="13.271125468657099"><ele>75.0</ele><time>2026-04-25T06:12:41Z</time></trkpt><trkpt lat="46.01323589333875" lon="13.270925135083008"><ele>75.33333333333333</ele><time>2026-04-25T06:12:42Z</time></trkpt><trkpt lat="46.0133448240665" lon="13.270730659266718"><ele>75.66666666666666</ele><time>2026-04-25T06:12:43Z</time></trkpt><trkpt lat="46.01346564071655" lon="13.270571448884557"><ele>76.0</ele><time>2026-04-25T06:12:44Z</time></trkpt><trkpt lat="46.01359757332934" lon="13.270435601409178"><ele>76.33333333333333</ele><time>2026-04-25T06:12:45Z</time></trkpt><trkpt lat="46.013802994243896" lon="13.270391188680545"><ele>76.66666666666667</ele><time>2026-04-25T06:12:46Z</time></trkpt><trkpt lat="46.01402583625322" lon="13.270332045222574"><ele>77.0</ele><time>2026-04-25T06:12:47Z</time></trkpt><trkpt lat="46.014268644900596" lon="13.270264004570754"><ele>77.5</ele><time>2026-04-25T06:12:48Z</time></trkpt><trkpt lat="46.01453088350508" lon="13.270191548563176"><ele>78.0</ele><time>2026-04-25T06:12:49Z</time></trkpt><trkpt lat="46.014794272794646" lon="13.27011923726057"><ele>78.5</ele><time>2026-04-25T06:12:50Z</time></trkpt><trkpt lat="46.01506206587489" lon="13.270045415271166"><ele>79.0</ele><time>2026-04-25T06:12:51Z</time></trkpt><trkpt lat="46.01533176419007" lon="13.269970816761585"><ele>79.0</ele><time>2026-04-25T06:12:52Z</time></trkpt><trkpt lat="46.01560128951979" lon="13.269896784586278"><ele>79.0</ele><time>2026-04-25T06:12:53Z</time></trkpt><trkpt lat="46.015867010501005" lon="13.269819056922723"><ele>79.0</ele><time>2026-04-25T06:12:54Z</time></trkpt><trkpt lat="46.01612905138746" lon="13.269747513371547"><ele>79.0</ele><time>2026-04-25T06:12:55Z</time></trkpt><trkpt lat="46.01638908304423" lon="13.269679913567568"><ele>79.0</ele><time>2026-04-25T06:12:56Z</time></trkpt><trkpt lat="46.01664403937165" lon="13.269612390041456"><ele>79.0</ele><time>2026-04-25T06:12:57Z</time></trkpt><trkpt lat="46.01689045516305" lon="13.26954492626618"><ele>79.5</ele><time>2026-04-25T06:12:58Z</time></trkpt><trkpt lat="46.01713106780426" lon="13.269476099421055"><ele>80.0</ele><time>2026-04-25T06:12:59Z</time></trkpt><trkpt lat="46.017365860673195" lon="13.269411605438172"><ele>79.5</ele><time>2026-04-25T06:13:00Z</time></trkpt><trkpt lat="46.01759645418965" lon="13.269349623041624"><ele>79.0</ele><time>2026-04-25T06:13:01Z</time></trkpt><trkpt lat="46.01781987319727" lon="13.269287935343941"><ele>79.0</ele><time>2026-04-25T06:13:02Z</time></trkpt><trkpt lat="46.018035003660025" lon="13.269230680798788"><ele>79.0</ele><time>2026-04-25T06:13:03Z</time></trkpt><trkpt lat="46.01823955355529" lon="13.269176541102857"><ele>79.0</ele><time>2026-04-25T06:13:04Z</time></trkpt><trkpt lat="46.01842311482382" lon="13.269125360045141"><ele>79.66666666666666</ele><time>2026-04-25T06:13:05Z</time></trkpt><trkpt lat="46.01859009475524" lon="13.269078561808906"><ele>80.33333333333333</ele><time>2026-04-25T06:13:06Z</time></trkpt><trkpt lat="46.01873883494981" lon="13.269039079851696"><ele>81.0</ele><time>2026-04-25T06:13:07Z</time></trkpt><trkpt lat="46.01886996826658" lon="13.26901689595469"><ele>81.0</ele><time>2026-04-25T06:13:08Z</time></trkpt><trkpt lat="46.018990939888845" lon="13.26902162845168"><ele>81.0</ele><time>2026-04-25T06:13:09Z</time></trkpt><trkpt lat="46.019120917955775" lon="13.2690654297189"><ele>81.0</ele><time>2026-04-25T06:13:10Z</time></trkpt><trkpt lat="46.019260589839966" lon="13.269147277310449"><ele>81.0</ele><time>2026-04-25T06:13:11Z</time></trkpt><trkpt lat="46.0194155487577" lon="13.269243939849089"><ele>81.0</ele><time>2026-04-25T06:13:12Z</time></trkpt><trkpt lat="46.01959067554524" lon="13.269324643321799"><ele>81.0</ele><time>2026-04-25T06:13:13Z</time></trkpt><trkpt lat="46.019783568742" lon="13.269373709491358"><ele>81.0</ele><time>2026-04-25T06:13:14Z</time></trkpt><trkpt lat="46.019989750086204" lon="13.269382051312435"><ele>81.0</ele><time>2026-04-25T06:13:15Z</time></trkpt><trkpt lat="46.02020353863564" lon="13.26935795036128"><ele>81.0</ele><time>2026-04-25T06:13:16Z</time></trkpt><trkpt lat="46.02042331210837" lon="13.26929856425822"><ele>81.0</ele><time>2026-04-25T06:13:17Z</time></trkpt><trkpt lat="46.02064105088313" lon="13.269212303068855"><ele>81.0</ele><time>2026-04-25T06:13:18Z</time></trkpt><trkpt lat="46.02085103455522" lon="13.269100005541002"><ele>81.0</ele><time>2026-04-25T06:13:18.999Z</time></trkpt><trkpt lat="46.02104277791541" lon="13.268951685837504"><ele>81.0</ele><time>2026-04-25T06:13:19.999Z</time></trkpt><trkpt lat="46.0212143914022" lon="13.26879214801235"><ele>81.0</ele><time>2026-04-25T06:13:20.999Z</time></trkpt><trkpt lat="46.02136762520217" lon="13.268625779624388"><ele>81.0</ele><time>2026-04-25T06:13:21.999Z</time></trkpt><trkpt lat="46.021495002402965" lon="13.268442639843581"><ele>81.0</ele><time>2026-04-25T06:13:22.999Z</time></trkpt><trkpt lat="46.021587284322074" lon="13.268237777790178"><ele>80.33333333333333</ele><time>2026-04-25T06:13:23.999Z</time></trkpt><trkpt lat="46.02164465194302" lon="13.268007167630577"><ele>79.66666666666666</ele><time>2026-04-25T06:13:24.999Z</time></trkpt><trkpt lat="46.02166576801256" lon="13.267763273751076"><ele>79.0</ele><time>2026-04-25T06:13:25.999Z</time></trkpt><trkpt lat="46.021642238605295" lon="13.267514184809773"><ele>79.0</ele><time>2026-04-25T06:13:26.999Z</time></trkpt><trkpt lat="46.02157185898974" lon="13.267279002298128"><ele>79.0</ele><time>2026-04-25T06:13:27.999Z</time></trkpt><trkpt lat="46.021519393188484" lon="13.267034386620747"><ele>79.0</ele><time>2026-04-25T06:13:28.999Z</time></trkpt><trkpt lat="46.0213171787454" lon="13.26690215069186"><ele>80.0</ele><time>2026-04-25T06:13:29.999Z</time></trkpt><trkpt lat="46.02114087871262" lon="13.266796874366765"><ele>81.0</ele><time>2026-04-25T06:13:30.999Z</time></trkpt><trkpt lat="46.020951275325636" lon="13.266738733717382"><ele>82.0</ele><time>2026-04-25T06:13:31.999Z</time></trkpt><trkpt lat="46.02074960668212" lon="13.266729376725923"><ele>82.0</ele><time>2026-04-25T06:13:32.999Z</time></trkpt><trkpt lat="46.02054568183426" lon="13.266740750704217"><ele>82.0</ele><time>2026-04-25T06:13:33.999Z</time></trkpt><trkpt lat="46.020370650864635" lon="13.266752763408695"><ele>82.0</ele><time>2026-04-25T06:13:34.999Z</time></trkpt><trkpt lat="46.020219743102885" lon="13.266717640386515"><ele>82.0</ele><time>2026-04-25T06:13:35.999Z</time></trkpt><trkpt lat="46.02007260687628" lon="13.26663497395634"><ele>82.0</ele><time>2026-04-25T06:13:36.999Z</time></trkpt><trkpt lat="46.01993782857554" lon="13.266488189247438"><ele>82.0</ele><time>2026-04-25T06:13:37.999Z</time></trkpt><trkpt lat="46.019816312463334" lon="13.2662827285016"><ele>81.33333333333333</ele><time>2026-04-25T06:13:38.999Z</time></trkpt><trkpt lat="46.01971173880226" lon="13.26602617887563"><ele>80.66666666666667</ele><time>2026-04-25T06:13:39.999Z</time></trkpt><trkpt lat="46.019594161748735" lon="13.265727582725717"><ele>80.0</ele><time>2026-04-25T06:13:40.999Z</time></trkpt><trkpt lat="46.019460990956766" lon="13.265426219175064"><ele>80.0</ele><time>2026-04-25T06:13:41.999Z</time></trkpt><trkpt lat="46.01932180899044" lon="13.265115379628673"><ele>80.0</ele><time>2026-04-25T06:13:42.999Z</time></trkpt><trkpt lat="46.01918381269831" lon="13.264799617556235"><ele>80.5</ele><time>2026-04-25T06:13:43.999Z</time></trkpt><trkpt lat="46.01904593809902" lon="13.264479107233239"><ele>81.0</ele><time>2026-04-25T06:13:44.999Z</time></trkpt><trkpt lat="46.01891119667089" lon="13.264150200994006"><ele>80.5</ele><time>2026-04-25T06:13:45.999Z</time></trkpt><trkpt lat="46.01878525833939" lon="13.263820778306014"><ele>80.0</ele><time>2026-04-25T06:13:46.999Z</time></trkpt><trkpt lat="46.01866536900618" lon="13.263495838310263"><ele>80.0</ele><time>2026-04-25T06:13:47.999Z</time></trkpt><trkpt lat="46.01854687249841" lon="13.263184877332177"><ele>80.0</ele><time>2026-04-25T06:13:48.999Z</time></trkpt><trkpt lat="46.018424319708075" lon="13.262882213065918"><ele>80.0</ele><time>2026-04-25T06:13:49.999Z</time></trkpt><trkpt lat="46.01829433435044" lon="13.262584019915927"><ele>80.0</ele><time>2026-04-25T06:13:50.999Z</time></trkpt><trkpt lat="46.01816404965017" lon="13.26227674311047"><ele>79.0</ele><time>2026-04-25T06:13:51.999Z</time></trkpt><trkpt lat="46.0180393594748" lon="13.261957550810905"><ele>78.0</ele><time>2026-04-25T06:13:52.999Z</time></trkpt><trkpt lat="46.0179193384711" lon="13.261634942665326"><ele>78.0</ele><time>2026-04-25T06:13:53.999Z</time></trkpt><trkpt lat="46.01779742855577" lon="13.261305298471761"><ele>78.0</ele><time>2026-04-25T06:13:54.999Z</time></trkpt><trkpt lat="46.01767261023071" lon="13.26097330131148"><ele>78.0</ele><time>2026-04-25T06:13:55.999Z</time></trkpt><trkpt lat="46.01754494951374" lon="13.260635439621126"><ele>78.0</ele><time>2026-04-25T06:13:56.999Z</time></trkpt><trkpt lat="46.017417738533084" lon="13.26029363469091"><ele>78.5</ele><time>2026-04-25T06:13:57.999Z</time></trkpt><trkpt lat="46.017290550927314" lon="13.259951797841447"><ele>79.0</ele><time>2026-04-25T06:13:58.999Z</time></trkpt><trkpt lat="46.017164116907516" lon="13.259607212181814"><ele>79.0</ele><time>2026-04-25T06:13:59.999Z</time></trkpt><trkpt lat="46.01703963678681" lon="13.259260636696188"><ele>79.0</ele><time>2026-04-25T06:14:00.999Z</time></trkpt><trkpt lat="46.01691147337402" lon="13.258907103067079"><ele>79.0</ele><time>2026-04-25T06:14:01.999Z</time></trkpt><trkpt lat="46.01678741229277" lon="13.25853952319747"><ele>79.0</ele><time>2026-04-25T06:14:02.999Z</time></trkpt><trkpt lat="46.016661163190385" lon="13.258151144642762"><ele>78.5</ele><time>2026-04-25T06:14:03.999Z</time></trkpt><trkpt lat="46.01653041798457" lon="13.257742833963983"><ele>78.0</ele><time>2026-04-25T06:14:04.999Z</time></trkpt><trkpt lat="46.01639992252364" lon="13.257317105822743"><ele>77.5</ele><time>2026-04-25T06:14:05.999Z</time></trkpt><trkpt lat="46.01627167440889" lon="13.256868102402091"><ele>77.0</ele><time>2026-04-25T06:14:06.999Z</time></trkpt><trkpt lat="46.01614811603101" lon="13.256406105331859"><ele>75.5</ele><time>2026-04-25T06:14:07.999Z</time></trkpt><trkpt lat="46.016034693443196" lon="13.255947112125995"><ele>74.0</ele><time>2026-04-25T06:14:08.999Z</time></trkpt><trkpt lat="46.015931552416795" lon="13.255497734871117"><ele>73.5</ele><time>2026-04-25T06:14:09.999Z</time></trkpt><trkpt lat="46.01584241914649" lon="13.255065918860202"><ele>73.0</ele><time>2026-04-25T06:14:10.999Z</time></trkpt><trkpt lat="46.0157686684902" lon="13.254663121680743"><ele>74.0</ele><time>2026-04-25T06:14:11.999Z</time></trkpt><trkpt lat="46.01570221029171" lon="13.254255683457426"><ele>75.0</ele><time>2026-04-25T06:14:12.999Z</time></trkpt><trkpt lat="46.01563938944235" lon="13.253820117318067"><ele>75.5</ele><time>2026-04-25T06:14:13.999Z</time></trkpt><trkpt lat="46.015579379337055" lon="13.253343653612331"><ele>76.0</ele><time>2026-04-25T06:14:14.999Z</time></trkpt><trkpt lat="46.01552643943201" lon="13.2528446163016"><ele>76.0</ele><time>2026-04-25T06:14:15.999Z</time></trkpt><trkpt lat="46.01548782165096" lon="13.252307657652803"><ele>76.0</ele><time>2026-04-25T06:14:16.999Z</time></trkpt><trkpt lat="46.01546058002977" lon="13.251742586010879"><ele>75.5</ele><time>2026-04-25T06:14:17.999Z</time></trkpt><trkpt lat="46.0154457674612" lon="13.251158593970496"><ele>75.0</ele><time>2026-04-25T06:14:18.999Z</time></trkpt><trkpt lat="46.01544329936256" lon="13.250556525756288"><ele>75.5</ele><time>2026-04-25T06:14:19.999Z</time></trkpt><trkpt lat="46.015451631261044" lon="13.249963891791174"><ele>76.0</ele><time>2026-04-25T06:14:20.999Z</time></trkpt><trkpt lat="46.01546609621767" lon="13.24939751062687"><ele>75.5</ele><time>2026-04-25T06:14:21.999Z</time></trkpt><trkpt lat="46.015488422464074" lon="13.248853486465933"><ele>75.0</ele><time>2026-04-25T06:14:22.999Z</time></trkpt><trkpt lat="46.01552903044623" lon="13.248325370994227"><ele>74.0</ele><time>2026-04-25T06:14:23.999Z</time></trkpt><trkpt lat="46.01559274141873" lon="13.247829153960001"><ele>73.0</ele><time>2026-04-25T06:14:24.999Z</time></trkpt><trkpt lat="46.015658809897275" lon="13.247346330781747"><ele>75.0</ele><time>2026-04-25T06:14:25.999Z</time></trkpt><trkpt lat="46.01572080886925" lon="13.246865610276705"><ele>77.0</ele><time>2026-04-25T06:14:26.999Z</time></trkpt><trkpt lat="46.01578419996311" lon="13.24639758292682"><ele>76.0</ele><time>2026-04-25T06:14:27.999Z</time></trkpt><trkpt lat="46.01585287438936" lon="13.245941553833458"><ele>75.0</ele><time>2026-04-25T06:14:28.999Z</time></trkpt><trkpt lat="46.01592612897754" lon="13.24549081406073"><ele>75.0</ele><time>2026-04-25T06:14:29.999Z</time></trkpt><trkpt lat="46.01600247920283" lon="13.245046995108334"><ele>75.0</ele><time>2026-04-25T06:14:30.999Z</time></trkpt><trkpt lat="46.016081892099365" lon="13.244604490742876"><ele>76.0</ele><time>2026-04-25T06:14:31.999Z</time></trkpt><trkpt lat="46.01616026836077" lon="13.244162406470286"><ele>77.0</ele><time>2026-04-25T06:14:32.999Z</time></trkpt><trkpt lat="46.0162403189365" lon="13.243716202081997"><ele>77.0</ele><time>2026-04-25T06:14:33.999Z</time></trkpt><trkpt lat="46.01632313383381" lon="13.243266634718104"><ele>77.0</ele><time>2026-04-25T06:14:34.999Z</time></trkpt><trkpt lat="46.01641262085733" lon="13.24280917984309"><ele>77.5</ele><time>2026-04-25T06:14:35.999Z</time></trkpt><trkpt lat="46.016498039862064" lon="13.242354710104232"><ele>78.0</ele><time>2026-04-25T06:14:36.999Z</time></trkpt><trkpt lat="46.01658274644129" lon="13.24189479635439"><ele>77.0</ele><time>2026-04-25T06:14:37.999Z</time></trkpt><trkpt lat="46.01666675960042" lon="13.241440804871713"><ele>76.0</ele><time>2026-04-25T06:14:38.999Z</time></trkpt><trkpt lat="46.016750275834035" lon="13.24098288785284"><ele>77.0</ele><time>2026-04-25T06:14:39.999Z</time></trkpt><trkpt lat="46.01683683778666" lon="13.240524239191037"><ele>78.0</ele><time>2026-04-25T06:14:41Z</time></trkpt><trkpt lat="46.016925932373795" lon="13.240068992755859"><ele>77.0</ele><time>2026-04-25T06:14:42Z</time></trkpt><trkpt lat="46.017010995992386" lon="13.2396137893035"><ele>76.0</ele><time>2026-04-25T06:14:43Z</time></trkpt><trkpt lat="46.01709483895066" lon="13.239158389838321"><ele>76.5</ele><time>2026-04-25T06:14:44Z</time></trkpt><trkpt lat="46.017179562610096" lon="13.238705223371857"><ele>77.0</ele><time>2026-04-25T06:14:45Z</time></trkpt><trkpt lat="46.017262728201096" lon="13.238254844809985"><ele>77.0</ele><time>2026-04-25T06:14:46Z</time></trkpt><trkpt lat="46.017347453458264" lon="13.237803355802301"><ele>77.0</ele><time>2026-04-25T06:14:47Z</time></trkpt><trkpt lat="46.01743169137188" lon="13.23735446519827"><ele>78.0</ele><time>2026-04-25T06:14:48Z</time></trkpt><trkpt lat="46.01751434800465" lon="13.23690915696696"><ele>79.0</ele><time>2026-04-25T06:14:49Z</time></trkpt><trkpt lat="46.01759422990455" lon="13.2364682953861"><ele>79.0</ele><time>2026-04-25T06:14:50Z</time></trkpt><trkpt lat="46.01766528248338" lon="13.23604323810482"><ele>79.0</ele><time>2026-04-25T06:14:51Z</time></trkpt><trkpt lat="46.01772722333378" lon="13.235632444122404"><ele>78.5</ele><time>2026-04-25T06:14:52Z</time></trkpt><trkpt lat="46.01776830829107" lon="13.235228841777076"><ele>78.0</ele><time>2026-04-25T06:14:53Z</time></trkpt><trkpt lat="46.01778827241904" lon="13.234808411519506"><ele>78.0</ele><time>2026-04-25T06:14:54Z</time></trkpt><trkpt lat="46.01780769247396" lon="13.234363545462699"><ele>78.0</ele><time>2026-04-25T06:14:55Z</time></trkpt><trkpt lat="46.01782920906933" lon="13.23391326549432"><ele>78.0</ele><time>2026-04-25T06:14:56Z</time></trkpt><trkpt lat="46.01784956930952" lon="13.233456667249136"><ele>78.0</ele><time>2026-04-25T06:14:57Z</time></trkpt><trkpt lat="46.017858122767755" lon="13.23299388186922"><ele>78.0</ele><time>2026-04-25T06:14:58Z</time></trkpt><trkpt lat="46.01784096401648" lon="13.232534978967417"><ele>78.0</ele><time>2026-04-25T06:14:59Z</time></trkpt><trkpt lat="46.017802100309034" lon="13.232079255436668"><ele>78.0</ele><time>2026-04-25T06:15:00Z</time></trkpt><trkpt lat="46.01775164482663" lon="13.231626937462927"><ele>78.0</ele><time>2026-04-25T06:15:01Z</time></trkpt><trkpt lat="46.01768970679441" lon="13.231180264214448"><ele>78.0</ele><time>2026-04-25T06:15:02Z</time></trkpt><trkpt lat="46.01762120349469" lon="13.230740196159422"><ele>78.0</ele><time>2026-04-25T06:15:03Z</time></trkpt><trkpt lat="46.017545332361664" lon="13.230308252041949"><ele>78.0</ele><time>2026-04-25T06:15:04Z</time></trkpt><trkpt lat="46.017458901479486" lon="13.229888155933375"><ele>78.0</ele><time>2026-04-25T06:15:05Z</time></trkpt><trkpt lat="46.017360575740945" lon="13.229491485024827"><ele>78.0</ele><time>2026-04-25T06:15:06Z</time></trkpt><trkpt lat="46.017254266222295" lon="13.229119877803223"><ele>78.0</ele><time>2026-04-25T06:15:07Z</time></trkpt><trkpt lat="46.01714965640555" lon="13.228764649452403"><ele>78.5</ele><time>2026-04-25T06:15:08Z</time></trkpt><trkpt lat="46.0170647932697" lon="13.228422870908224"><ele>79.0</ele><time>2026-04-25T06:15:09Z</time></trkpt><trkpt lat="46.017006115567334" lon="13.22808240301509"><ele>80.0</ele><time>2026-04-25T06:15:10Z</time></trkpt><trkpt lat="46.016968136249304" lon="13.227750590885638"><ele>81.0</ele><time>2026-04-25T06:15:11Z</time></trkpt><trkpt lat="46.016953836080624" lon="13.227420999431324"><ele>80.5</ele><time>2026-04-25T06:15:12Z</time></trkpt><trkpt lat="46.0169650511788" lon="13.227093289860985"><ele>80.0</ele><time>2026-04-25T06:15:13Z</time></trkpt><trkpt lat="46.01699907049391" lon="13.226768680452944"><ele>80.0</ele><time>2026-04-25T06:15:14Z</time></trkpt><trkpt lat="46.0170508269458" lon="13.226443964624249"><ele>80.0</ele><time>2026-04-25T06:15:15Z</time></trkpt><trkpt lat="46.01709522079956" lon="13.226114937683128"><ele>80.0</ele><time>2026-04-25T06:15:16Z</time></trkpt><trkpt lat="46.01711908154648" lon="13.225783655793627"><ele>80.0</ele><time>2026-04-25T06:15:17Z</time></trkpt><trkpt lat="46.017123327524935" lon="13.225449523918448"><ele>79.0</ele><time>2026-04-25T06:15:18Z</time></trkpt><trkpt lat="46.017105657163754" lon="13.22511500184559"><ele>78.0</ele><time>2026-04-25T06:15:19Z</time></trkpt><trkpt lat="46.017061512124194" lon="13.22479190946219"><ele>78.0</ele><time>2026-04-25T06:15:20Z</time></trkpt><trkpt lat="46.016998765779555" lon="13.224480498571499"><ele>78.0</ele><time>2026-04-25T06:15:21Z</time></trkpt><trkpt lat="46.01692511891051" lon="13.22417126674903"><ele>78.0</ele><time>2026-04-25T06:15:21.999Z</time></trkpt><trkpt lat="46.016857374629645" lon="13.223857718957333"><ele>78.0</ele><time>2026-04-25T06:15:22.999Z</time></trkpt><trkpt lat="46.0168157872099" lon="13.223532855698247"><ele>78.0</ele><time>2026-04-25T06:15:23.999Z</time></trkpt><trkpt lat="46.016788006177514" lon="13.22320632824105"><ele>78.0</ele><time>2026-04-25T06:15:24.999Z</time></trkpt><trkpt lat="46.01677678929902" lon="13.222887140869704"><ele>78.0</ele><time>2026-04-25T06:15:25.999Z</time></trkpt><trkpt lat="46.016794804997936" lon="13.222580306186991"><ele>78.0</ele><time>2026-04-25T06:15:26.999Z</time></trkpt><trkpt lat="46.016838215086956" lon="13.22227212625086"><ele>78.0</ele><time>2026-04-25T06:15:27.999Z</time></trkpt><trkpt lat="46.01689929790964" lon="13.221966075247579"><ele>78.0</ele><time>2026-04-25T06:15:28.999Z</time></trkpt><trkpt lat="46.016962700145186" lon="13.221668008612195"><ele>78.0</ele><time>2026-04-25T06:15:29.999Z</time></trkpt><trkpt lat="46.01701932643186" lon="13.221358351718886"><ele>78.0</ele><time>2026-04-25T06:15:30.999Z</time></trkpt><trkpt lat="46.01707589733233" lon="13.221030824558031"><ele>78.0</ele><time>2026-04-25T06:15:31.999Z</time></trkpt><trkpt lat="46.01714145007749" lon="13.220691294651083"><ele>78.0</ele><time>2026-04-25T06:15:32.999Z</time></trkpt><trkpt lat="46.01721533169653" lon="13.220351498067343"><ele>78.0</ele><time>2026-04-25T06:15:33.999Z</time></trkpt><trkpt lat="46.017296684178994" lon="13.22000798883527"><ele>78.0</ele><time>2026-04-25T06:15:34.999Z</time></trkpt><trkpt lat="46.017383651949466" lon="13.21966112703073"><ele>79.5</ele><time>2026-04-25T06:15:35.999Z</time></trkpt><trkpt lat="46.01748667757792" lon="13.219317499819029"><ele>81.0</ele><time>2026-04-25T06:15:36.999Z</time></trkpt><trkpt lat="46.01760325990907" lon="13.218969322964004"><ele>81.5</ele><time>2026-04-25T06:15:37.999Z</time></trkpt><trkpt lat="46.01774192218557" lon="13.218624079565473"><ele>82.0</ele><time>2026-04-25T06:15:38.999Z</time></trkpt><trkpt lat="46.01789552207727" lon="13.218283069113562"><ele>82.0</ele><time>2026-04-25T06:15:39.999Z</time></trkpt><trkpt lat="46.01805856977708" lon="13.217946112611276"><ele>82.0</ele><time>2026-04-25T06:15:40.999Z</time></trkpt><trkpt lat="46.01823427464562" lon="13.21762649541885"><ele>82.0</ele><time>2026-04-25T06:15:41.999Z</time></trkpt><trkpt lat="46.0184318982969" lon="13.217330405674073"><ele>82.0</ele><time>2026-04-25T06:15:42.999Z</time></trkpt><trkpt lat="46.0186506312266" lon="13.21706137033141"><ele>81.5</ele><time>2026-04-25T06:15:43.999Z</time></trkpt><trkpt lat="46.01887391583054" lon="13.216798481123018"><ele>81.0</ele><time>2026-04-25T06:15:44.999Z</time></trkpt><trkpt lat="46.01910400186623" lon="13.216551554291653"><ele>80.0</ele><time>2026-04-25T06:15:45.999Z</time></trkpt><trkpt lat="46.01934328811321" lon="13.216327059106291"><ele>79.0</ele><time>2026-04-25T06:15:46.999Z</time></trkpt><trkpt lat="46.01958485360011" lon="13.21610805612166"><ele>79.0</ele><time>2026-04-25T06:15:47.999Z</time></trkpt><trkpt lat="46.01982603570478" lon="13.21589418913206"><ele>79.0</ele><time>2026-04-25T06:15:48.999Z</time></trkpt><trkpt lat="46.02006957672046" lon="13.21568375666221"><ele>79.0</ele><time>2026-04-25T06:15:49.999Z</time></trkpt><trkpt lat="46.020313029802544" lon="13.215474244517173"><ele>79.0</ele><time>2026-04-25T06:15:50.999Z</time></trkpt><trkpt lat="46.020555651544576" lon="13.215268911542495"><ele>79.0</ele><time>2026-04-25T06:15:51.999Z</time></trkpt><trkpt lat="46.02079552164719" lon="13.215067522419561"><ele>79.0</ele><time>2026-04-25T06:15:52.999Z</time></trkpt><trkpt lat="46.02103061001127" lon="13.214867475882947"><ele>79.5</ele><time>2026-04-25T06:15:53.999Z</time></trkpt><trkpt lat="46.02126034212796" lon="13.214668074088976"><ele>80.0</ele><time>2026-04-25T06:15:54.999Z</time></trkpt><trkpt lat="46.02149036684462" lon="13.21447157760637"><ele>81.0</ele><time>2026-04-25T06:15:55.999Z</time></trkpt><trkpt lat="46.021718652848506" lon="13.21427665723131"><ele>82.0</ele><time>2026-04-25T06:15:56.999Z</time></trkpt><trkpt lat="46.0219464879902" lon="13.2140822757409"><ele>81.5</ele><time>2026-04-25T06:15:57.999Z</time></trkpt><trkpt lat="46.02217455769888" lon="13.213891002888374"><ele>81.0</ele><time>2026-04-25T06:15:58.999Z</time></trkpt><trkpt lat="46.02240422744503" lon="13.213702347908615"><ele>80.5</ele><time>2026-04-25T06:15:59.999Z</time></trkpt><trkpt lat="46.02263289219804" lon="13.213518253937398"><ele>80.0</ele><time>2026-04-25T06:16:00.999Z</time></trkpt><trkpt lat="46.02286377982213" lon="13.213348251827826"><ele>80.0</ele><time>2026-04-25T06:16:01.999Z</time></trkpt><trkpt lat="46.02310068148482" lon="13.213197775310345"><ele>80.0</ele><time>2026-04-25T06:16:02.999Z</time></trkpt><trkpt lat="46.02334262557476" lon="13.213066398194256"><ele>79.5</ele><time>2026-04-25T06:16:03.999Z</time></trkpt><trkpt lat="46.023592679979636" lon="13.21295791167558"><ele>79.0</ele><time>2026-04-25T06:16:04.999Z</time></trkpt><trkpt lat="46.023845928339725" lon="13.212871364451201"><ele>79.0</ele><time>2026-04-25T06:16:05.999Z</time></trkpt><trkpt lat="46.02409990657405" lon="13.212801238551519"><ele>79.0</ele><time>2026-04-25T06:16:06.999Z</time></trkpt><trkpt lat="46.02435445519018" lon="13.212750115743058"><ele>79.0</ele><time>2026-04-25T06:16:07.999Z</time></trkpt><trkpt lat="46.02460814750717" lon="13.21271038539179"><ele>79.0</ele><time>2026-04-25T06:16:08.999Z</time></trkpt><trkpt lat="46.02486067958083" lon="13.212686444551933"><ele>78.5</ele><time>2026-04-25T06:16:09.999Z</time></trkpt><trkpt lat="46.025111854298" lon="13.212685315204038"><ele>78.0</ele><time>2026-04-25T06:16:10.999Z</time></trkpt><trkpt lat="46.02536121440957" lon="13.212706821891864"><ele>78.0</ele><time>2026-04-25T06:16:11.999Z</time></trkpt><trkpt lat="46.02560822353785" lon="13.212731759415606"><ele>78.0</ele><time>2026-04-25T06:16:12.999Z</time></trkpt><trkpt lat="46.02584915523615" lon="13.212756750525195"><ele>78.0</ele><time>2026-04-25T06:16:13.999Z</time></trkpt><trkpt lat="46.02608681915571" lon="13.212788499071735"><ele>78.0</ele><time>2026-04-25T06:16:14.999Z</time></trkpt><trkpt lat="46.026322452729666" lon="13.212826326095053"><ele>78.0</ele><time>2026-04-25T06:16:15.999Z</time></trkpt><trkpt lat="46.02655532275564" lon="13.212865590823778"><ele>78.0</ele><time>2026-04-25T06:16:16.999Z</time></trkpt><trkpt lat="46.0267856541095" lon="13.212903693866858"><ele>77.5</ele><time>2026-04-25T06:16:17.999Z</time></trkpt><trkpt lat="46.027014318197395" lon="13.212945523837442"><ele>77.0</ele><time>2026-04-25T06:16:18.999Z</time></trkpt><trkpt lat="46.02723809162051" lon="13.212986020859844"><ele>77.0</ele><time>2026-04-25T06:16:19.999Z</time></trkpt><trkpt lat="46.02746267240603" lon="13.213023798852175"><ele>77.0</ele><time>2026-04-25T06:16:20.999Z</time></trkpt><trkpt lat="46.027689521120685" lon="13.21305834830278"><ele>78.5</ele><time>2026-04-25T06:16:21.999Z</time></trkpt><trkpt lat="46.02791641672759" lon="13.213088358436025"><ele>80.0</ele><time>2026-04-25T06:16:22.999Z</time></trkpt><trkpt lat="46.028140992460195" lon="13.213114338993794"><ele>81.0</ele><time>2026-04-25T06:16:23.999Z</time></trkpt><trkpt lat="46.02836452731967" lon="13.213136082198586"><ele>82.0</ele><time>2026-04-25T06:16:24.999Z</time></trkpt><trkpt lat="46.028586848335685" lon="13.21315002931523"><ele>83.0</ele><time>2026-04-25T06:16:25.999Z</time></trkpt><trkpt lat="46.028812936923686" lon="13.213154254541028"><ele>83.0</ele><time>2026-04-25T06:16:26.999Z</time></trkpt><trkpt lat="46.02904724624068" lon="13.213153196213064"><ele>83.0</ele><time>2026-04-25T06:16:27.999Z</time></trkpt><trkpt lat="46.02928560205706" lon="13.213153371862143"><ele>82.0</ele><time>2026-04-25T06:16:28.999Z</time></trkpt><trkpt lat="46.02951975995028" lon="13.213149434904766"><ele>81.0</ele><time>2026-04-25T06:16:29.999Z</time></trkpt><trkpt lat="46.02975889162447" lon="13.213143570332274"><ele>82.5</ele><time>2026-04-25T06:16:30.999Z</time></trkpt><trkpt lat="46.030000156574665" lon="13.213133013070985"><ele>84.0</ele><time>2026-04-25T06:16:31.999Z</time></trkpt><trkpt lat="46.03024563777822" lon="13.213123149475182"><ele>84.0</ele><time>2026-04-25T06:16:32.999Z</time></trkpt><trkpt lat="46.03049340270759" lon="13.213113269084948"><ele>84.0</ele><time>2026-04-25T06:16:33.999Z</time></trkpt><trkpt lat="46.03074119574249" lon="13.213098999453964"><ele>84.5</ele><time>2026-04-25T06:16:34.999Z</time></trkpt><trkpt lat="46.030991030118166" lon="13.213081252114154"><ele>85.0</ele><time>2026-04-25T06:16:35.999Z</time></trkpt><trkpt lat="46.03124253937886" lon="13.213063121167373"><ele>85.0</ele><time>2026-04-25T06:16:36.999Z</time></trkpt><trkpt lat="46.03149397578497" lon="13.213047280248299"><ele>85.0</ele><time>2026-04-25T06:16:37.999Z</time></trkpt><trkpt lat="46.031744615764076" lon="13.213034715064996"><ele>85.5</ele><time>2026-04-25T06:16:38.999Z</time></trkpt><trkpt lat="46.03199497497777" lon="13.213021274268812"><ele>86.0</ele><time>2026-04-25T06:16:39.999Z</time></trkpt><trkpt lat="46.03224489624835" lon="13.213003740624428"><ele>86.0</ele><time>2026-04-25T06:16:40.999Z</time></trkpt><trkpt lat="46.032494438931664" lon="13.212984784680488"><ele>86.0</ele><time>2026-04-25T06:16:41.999Z</time></trkpt><trkpt lat="46.032741009273295" lon="13.212969576232092"><ele>86.0</ele><time>2026-04-25T06:16:42.999Z</time></trkpt><trkpt lat="46.032987044062175" lon="13.212956446210654"><ele>86.0</ele><time>2026-04-25T06:16:43.999Z</time></trkpt><trkpt lat="46.03323160224663" lon="13.21294212016069"><ele>86.5</ele><time>2026-04-25T06:16:44.999Z</time></trkpt><trkpt lat="46.0334735095652" lon="13.212926082047822"><ele>87.0</ele><time>2026-04-25T06:16:45.999Z</time></trkpt><trkpt lat="46.03371151450016" lon="13.212909471414873"><ele>87.0</ele><time>2026-04-25T06:16:47Z</time></trkpt><trkpt lat="46.0339468614134" lon="13.212893944400228"><ele>87.0</ele><time>2026-04-25T06:16:48Z</time></trkpt><trkpt lat="46.034179566546385" lon="13.21287828992999"><ele>86.5</ele><time>2026-04-25T06:16:49Z</time></trkpt><trkpt lat="46.03441161678526" lon="13.212866600795037"><ele>86.0</ele><time>2026-04-25T06:16:50Z</time></trkpt><trkpt lat="46.034641532619155" lon="13.212868874194182"><ele>86.0</ele><time>2026-04-25T06:16:51Z</time></trkpt><trkpt lat="46.03487229586913" lon="13.212893275685662"><ele>86.0</ele><time>2026-04-25T06:16:52Z</time></trkpt><trkpt lat="46.03510035156713" lon="13.212942565973778"><ele>86.0</ele><time>2026-04-25T06:16:53Z</time></trkpt><trkpt lat="46.035325664367164" lon="13.21301201207467"><ele>86.0</ele><time>2026-04-25T06:16:54Z</time></trkpt><trkpt lat="46.035547860128766" lon="13.21310105246232"><ele>87.5</ele><time>2026-04-25T06:16:55Z</time></trkpt><trkpt lat="46.03576434142873" lon="13.213202849598956"><ele>89.0</ele><time>2026-04-25T06:16:56Z</time></trkpt><trkpt lat="46.03597860848007" lon="13.213300276813156"><ele>89.0</ele><time>2026-04-25T06:16:57Z</time></trkpt><trkpt lat="46.036193156515495" lon="13.213393509064135"><ele>89.0</ele><time>2026-04-25T06:16:58Z</time></trkpt><trkpt lat="46.036405171880844" lon="13.21348371954189"><ele>89.0</ele><time>2026-04-25T06:16:59Z</time></trkpt><trkpt lat="46.036618635556366" lon="13.213570041714505"><ele>88.33333333333334</ele><time>2026-04-25T06:17:00Z</time></trkpt><trkpt lat="46.036835093538905" lon="13.213646430433585"><ele>87.66666666666667</ele><time>2026-04-25T06:17:01Z</time></trkpt><trkpt lat="46.0370533945891" lon="13.213703262213494"><ele>87.0</ele><time>2026-04-25T06:17:02Z</time></trkpt><trkpt lat="46.037275386270466" lon="13.213736082598922"><ele>87.5</ele><time>2026-04-25T06:17:03Z</time></trkpt><trkpt lat="46.037500448034116" lon="13.213747587283256"><ele>88.0</ele><time>2026-04-25T06:17:04Z</time></trkpt><trkpt lat="46.037727876102835" lon="13.213740274429538"><ele>88.0</ele><time>2026-04-25T06:17:05Z</time></trkpt><trkpt lat="46.037956234661" lon="13.21371113145305"><ele>88.0</ele><time>2026-04-25T06:17:06Z</time></trkpt><trkpt lat="46.03818407264934" lon="13.213654364707748"><ele>89.0</ele><time>2026-04-25T06:17:07Z</time></trkpt><trkpt lat="46.03840744467511" lon="13.213567355583123"><ele>90.0</ele><time>2026-04-25T06:17:08Z</time></trkpt><trkpt lat="46.03862687102345" lon="13.213458152863742"><ele>90.0</ele><time>2026-04-25T06:17:09Z</time></trkpt><trkpt lat="46.03884483944237" lon="13.213336115117784"><ele>90.0</ele><time>2026-04-25T06:17:10Z</time></trkpt><trkpt lat="46.03906502163398" lon="13.213205512317547"><ele>91.0</ele><time>2026-04-25T06:17:11Z</time></trkpt><trkpt lat="46.039287870150865" lon="13.213071871313405"><ele>92.0</ele><time>2026-04-25T06:17:12Z</time></trkpt><trkpt lat="46.039513157029795" lon="13.21293433904013"><ele>92.0</ele><time>2026-04-25T06:17:13Z</time></trkpt><trkpt lat="46.03974034181931" lon="13.212794031844352"><ele>92.0</ele><time>2026-04-25T06:17:14Z</time></trkpt><trkpt lat="46.03997044155868" lon="13.212655665591937"><ele>90.0</ele><time>2026-04-25T06:17:15Z</time></trkpt><trkpt lat="46.04020904892034" lon="13.212532679620363"><ele>88.0</ele><time>2026-04-25T06:17:16Z</time></trkpt><trkpt lat="46.04045355104894" lon="13.212425243395002"><ele>88.0</ele><time>2026-04-25T06:17:17Z</time></trkpt><trkpt lat="46.04070382693539" lon="13.212330845893195"><ele>88.0</ele><time>2026-04-25T06:17:18Z</time></trkpt><trkpt lat="46.04095790010457" lon="13.212250720105793"><ele>88.5</ele><time>2026-04-25T06:17:19Z</time></trkpt><trkpt lat="46.04121348802227" lon="13.21218021187815"><ele>89.0</ele><time>2026-04-25T06:17:20Z</time></trkpt><trkpt lat="46.04146809952791" lon="13.212109933248499"><ele>89.5</ele><time>2026-04-25T06:17:21Z</time></trkpt><trkpt lat="46.04172244452428" lon="13.212033259434547"><ele>90.0</ele><time>2026-04-25T06:17:22Z</time></trkpt><trkpt lat="46.041974468960746" lon="13.211954222095763"><ele>90.0</ele><time>2026-04-25T06:17:23Z</time></trkpt><trkpt lat="46.042223618720406" lon="13.211870283662313"><ele>90.0</ele><time>2026-04-25T06:17:24Z</time></trkpt><trkpt lat="46.042469127914224" lon="13.211782117731227"><ele>89.5</ele><time>2026-04-25T06:17:25Z</time></trkpt><trkpt lat="46.04271158047884" lon="13.211686653606018"><ele>89.0</ele><time>2026-04-25T06:17:26Z</time></trkpt><trkpt lat="46.042950540773695" lon="13.21158209028295"><ele>89.5</ele><time>2026-04-25T06:17:27Z</time></trkpt><trkpt lat="46.043188773111275" lon="13.211472626310696"><ele>90.0</ele><time>2026-04-25T06:17:27.999Z</time></trkpt><trkpt lat="46.04342647025672" lon="13.211359873254963"><ele>89.0</ele><time>2026-04-25T06:17:28.999Z</time></trkpt><trkpt lat="46.04366359482529" lon="13.211242337068848"><ele>88.0</ele><time>2026-04-25T06:17:29.999Z</time></trkpt><trkpt lat="46.04389915840751" lon="13.211115379357073"><ele>89.5</ele><time>2026-04-25T06:17:30.999Z</time></trkpt><trkpt lat="46.04413189155082" lon="13.210978290722018"><ele>91.0</ele><time>2026-04-25T06:17:31.999Z</time></trkpt><trkpt lat="46.04436212443973" lon="13.210831696460993"><ele>91.0</ele><time>2026-04-25T06:17:32.999Z</time></trkpt><trkpt lat="46.04458891556066" lon="13.210678951099078"><ele>91.0</ele><time>2026-04-25T06:17:33.999Z</time></trkpt><trkpt lat="46.044808599672415" lon="13.210518125660435"><ele>93.5</ele><time>2026-04-25T06:17:34.999Z</time></trkpt><trkpt lat="46.04502065550334" lon="13.210349099712069"><ele>96.0</ele><time>2026-04-25T06:17:35.999Z</time></trkpt><trkpt lat="46.045232853979925" lon="13.21017092667426"><ele>96.0</ele><time>2026-04-25T06:17:36.999Z</time></trkpt><trkpt lat="46.0454480443619" lon="13.209989612735885"><ele>96.0</ele><time>2026-04-25T06:17:37.999Z</time></trkpt><trkpt lat="46.04566574662096" lon="13.209807167977159"><ele>94.5</ele><time>2026-04-25T06:17:38.999Z</time></trkpt><trkpt lat="46.04588013593444" lon="13.20962477214124"><ele>93.0</ele><time>2026-04-25T06:17:39.999Z</time></trkpt><trkpt lat="46.04609176873405" lon="13.209436671779013"><ele>93.0</ele><time>2026-04-25T06:17:40.999Z</time></trkpt><trkpt lat="46.046304069478325" lon="13.209247884922572"><ele>93.0</ele><time>2026-04-25T06:17:41.999Z</time></trkpt><trkpt lat="46.046518891264974" lon="13.209058987107552"><ele>93.5</ele><time>2026-04-25T06:17:42.999Z</time></trkpt><trkpt lat="46.04673533172394" lon="13.20887411177343"><ele>94.0</ele><time>2026-04-25T06:17:43.999Z</time></trkpt><trkpt lat="46.04695394429861" lon="13.208689323913012"><ele>94.0</ele><time>2026-04-25T06:17:44.999Z</time></trkpt><trkpt lat="46.04717133899528" lon="13.208502576080786"><ele>94.0</ele><time>2026-04-25T06:17:45.999Z</time></trkpt><trkpt lat="46.047386445254425" lon="13.208310411272967"><ele>92.0</ele><time>2026-04-25T06:17:46.999Z</time></trkpt><trkpt lat="46.04759380383978" lon="13.208100447466267"><ele>90.0</ele><time>2026-04-25T06:17:47.999Z</time></trkpt><trkpt lat="46.047789729244016" lon="13.20786843298267"><ele>90.0</ele><time>2026-04-25T06:17:48.999Z</time></trkpt><trkpt lat="46.04798122666522" lon="13.207626682053302"><ele>90.0</ele><time>2026-04-25T06:17:49.999Z</time></trkpt><trkpt lat="46.0481641189112" lon="13.207378033748473"><ele>90.5</ele><time>2026-04-25T06:17:50.999Z</time></trkpt><trkpt lat="46.04833754577088" lon="13.2071196516834"><ele>91.0</ele><time>2026-04-25T06:17:51.999Z</time></trkpt><trkpt lat="46.0485112262421" lon="13.206859383156994"><ele>91.0</ele><time>2026-04-25T06:17:52.999Z</time></trkpt><trkpt lat="46.04868921012097" lon="13.206602761478756"><ele>91.0</ele><time>2026-04-25T06:17:53.999Z</time></trkpt><trkpt lat="46.04886894490413" lon="13.206351244752968"><ele>90.5</ele><time>2026-04-25T06:17:54.999Z</time></trkpt><trkpt lat="46.04905255028564" lon="13.206110490715838"><ele>90.0</ele><time>2026-04-25T06:17:55.999Z</time></trkpt><trkpt lat="46.04924323170978" lon="13.20588932281727"><ele>91.0</ele><time>2026-04-25T06:17:56.999Z</time></trkpt><trkpt lat="46.04944101246889" lon="13.205687456132306"><ele>92.0</ele><time>2026-04-25T06:17:57.999Z</time></trkpt><trkpt lat="46.04964635772779" lon="13.205499177446843"><ele>92.0</ele><time>2026-04-25T06:17:58.999Z</time></trkpt><trkpt lat="46.049856427102355" lon="13.205320664410024"><ele>92.0</ele><time>2026-04-25T06:17:59.999Z</time></trkpt><trkpt lat="46.050069643971234" lon="13.205158794850112"><ele>93.0</ele><time>2026-04-25T06:18:00.999Z</time></trkpt><trkpt lat="46.05028476728576" lon="13.205005640797209"><ele>94.0</ele><time>2026-04-25T06:18:01.999Z</time></trkpt><trkpt lat="46.0504990671345" lon="13.204848878871077"><ele>94.0</ele><time>2026-04-25T06:18:02.999Z</time></trkpt><trkpt lat="46.05071238758989" lon="13.204693233179697"><ele>94.0</ele><time>2026-04-25T06:18:03.999Z</time></trkpt><trkpt lat="46.050919235876194" lon="13.204538258610498"><ele>94.0</ele><time>2026-04-25T06:18:04.999Z</time></trkpt><trkpt lat="46.05112743238206" lon="13.204384642958402"><ele>94.0</ele><time>2026-04-25T06:18:05.999Z</time></trkpt><trkpt lat="46.05133247239573" lon="13.20422964505875"><ele>94.0</ele><time>2026-04-25T06:18:06.999Z</time></trkpt><trkpt lat="46.05153919310533" lon="13.204069415285792"><ele>94.0</ele><time>2026-04-25T06:18:07.999Z</time></trkpt><trkpt lat="46.051750010426495" lon="13.203903960408296"><ele>95.0</ele><time>2026-04-25T06:18:08.999Z</time></trkpt><trkpt lat="46.05196500618579" lon="13.20374158421231"><ele>96.0</ele><time>2026-04-25T06:18:09.999Z</time></trkpt><trkpt lat="46.05218391374948" lon="13.203580945244688"><ele>96.0</ele><time>2026-04-25T06:18:10.999Z</time></trkpt><trkpt lat="46.05240365318025" lon="13.20341838621468"><ele>96.0</ele><time>2026-04-25T06:18:11.999Z</time></trkpt><trkpt lat="46.05262443876215" lon="13.203254064389055"><ele>98.0</ele><time>2026-04-25T06:18:12.999Z</time></trkpt><trkpt lat="46.05284778868916" lon="13.20308990495414"><ele>100.0</ele><time>2026-04-25T06:18:13.999Z</time></trkpt><trkpt lat="46.05307223946497" lon="13.202924457577355"><ele>99.5</ele><time>2026-04-25T06:18:14.999Z</time></trkpt><trkpt lat="46.05329777480906" lon="13.20275721761581"><ele>99.0</ele><time>2026-04-25T06:18:15.999Z</time></trkpt><trkpt lat="46.05352504498685" lon="13.202591624948514"><ele>99.0</ele><time>2026-04-25T06:18:16.999Z</time></trkpt><trkpt lat="46.05375373217307" lon="13.202422940930903"><ele>99.0</ele><time>2026-04-25T06:18:17.999Z</time></trkpt><trkpt lat="46.05398371554778" lon="13.202254557069343"><ele>99.5</ele><time>2026-04-25T06:18:18.999Z</time></trkpt><trkpt lat="46.05421530243639" lon="13.202088093864434"><ele>100.0</ele><time>2026-04-25T06:18:19.999Z</time></trkpt><trkpt lat="46.05444779862228" lon="13.201921749301736"><ele>100.0</ele><time>2026-04-25T06:18:20.999Z</time></trkpt><trkpt lat="46.05468178855721" lon="13.201752980076431"><ele>100.0</ele><time>2026-04-25T06:18:21.999Z</time></trkpt><trkpt lat="46.054917640004156" lon="13.201583802488612"><ele>100.0</ele><time>2026-04-25T06:18:22.999Z</time></trkpt><trkpt lat="46.055154635428316" lon="13.201419159700684"><ele>100.0</ele><time>2026-04-25T06:18:23.999Z</time></trkpt><trkpt lat="46.055392279458395" lon="13.20126050023796"><ele>100.0</ele><time>2026-04-25T06:18:24.999Z</time></trkpt><trkpt lat="46.055627453181906" lon="13.201100590927204"><ele>100.0</ele><time>2026-04-25T06:18:25.999Z</time></trkpt><trkpt lat="46.05585804149914" lon="13.200932824567584"><ele>101.0</ele><time>2026-04-25T06:18:26.999Z</time></trkpt><trkpt lat="46.05608662022343" lon="13.20076193028985"><ele>102.0</ele><time>2026-04-25T06:18:27.999Z</time></trkpt><trkpt lat="46.05631475474619" lon="13.200593685606448"><ele>103.0</ele><time>2026-04-25T06:18:28.999Z</time></trkpt><trkpt lat="46.056543251493856" lon="13.200434189473839"><ele>104.0</ele><time>2026-04-25T06:18:29.999Z</time></trkpt><trkpt lat="46.05676766922382" lon="13.200280399044878"><ele>104.0</ele><time>2026-04-25T06:18:30.999Z</time></trkpt><trkpt lat="46.056988819503566" lon="13.200131486241315"><ele>104.0</ele><time>2026-04-25T06:18:31.999Z</time></trkpt><trkpt lat="46.05720717830802" lon="13.199992150168619"><ele>104.0</ele><time>2026-04-25T06:18:32.999Z</time></trkpt><trkpt lat="46.05742206990122" lon="13.19986044116436"><ele>104.0</ele><time>2026-04-25T06:18:33.999Z</time></trkpt><trkpt lat="46.057633650245386" lon="13.19973979504793"><ele>104.0</ele><time>2026-04-25T06:18:34.999Z</time></trkpt><trkpt lat="46.05784376596271" lon="13.19962539083684"><ele>104.0</ele><time>2026-04-25T06:18:35.999Z</time></trkpt><trkpt lat="46.05805584105081" lon="13.199521305769299"><ele>104.0</ele><time>2026-04-25T06:18:36.999Z</time></trkpt><trkpt lat="46.058272001127555" lon="13.199429137711167"><ele>103.66666666666666</ele><time>2026-04-25T06:18:37.999Z</time></trkpt><trkpt lat="46.05849049435691" lon="13.199352161739696"><ele>103.33333333333334</ele><time>2026-04-25T06:18:38.999Z</time></trkpt><trkpt lat="46.05869930232152" lon="13.199283782238542"><ele>103.0</ele><time>2026-04-25T06:18:39.999Z</time></trkpt><trkpt lat="46.05889320160839" lon="13.199223389059787"><ele>103.0</ele><time>2026-04-25T06:18:40.999Z</time></trkpt><trkpt lat="46.05907416532044" lon="13.199182156476796"><ele>103.0</ele><time>2026-04-25T06:18:41.999Z</time></trkpt><trkpt lat="46.05926000496332" lon="13.19915615455004"><ele>103.0</ele><time>2026-04-25T06:18:42.999Z</time></trkpt><trkpt lat="46.05944408548883" lon="13.19914687686488"><ele>103.0</ele><time>2026-04-25T06:18:43.999Z</time></trkpt><trkpt lat="46.059627067701626" lon="13.199137429993826"><ele>103.0</ele><time>2026-04-25T06:18:44.999Z</time></trkpt><trkpt lat="46.059809262806674" lon="13.199122198182728"><ele>103.0</ele><time>2026-04-25T06:18:45.999Z</time></trkpt><trkpt lat="46.05999032955448" lon="13.1991103966902"><ele>103.0</ele><time>2026-04-25T06:18:46.999Z</time></trkpt><trkpt lat="46.06016597895111" lon="13.199106135749908"><ele>103.0</ele><time>2026-04-25T06:18:47.999Z</time></trkpt><trkpt lat="46.060322044695695" lon="13.199108034649981"><ele>103.0</ele><time>2026-04-25T06:18:48.999Z</time></trkpt><trkpt lat="46.06046085101764" lon="13.199121051654132"><ele>103.0</ele><time>2026-04-25T06:18:49.999Z</time></trkpt><trkpt lat="46.060575398204165" lon="13.199147451508418"><ele>103.0</ele><time>2026-04-25T06:18:50.999Z</time></trkpt><trkpt lat="46.060676161640984" lon="13.199190091643516"><ele>103.0</ele><time>2026-04-25T06:18:51.999Z</time></trkpt><trkpt lat="46.06076861236535" lon="13.199244668785987"><ele>103.0</ele><time>2026-04-25T06:18:53Z</time></trkpt><trkpt lat="46.06087899201022" lon="13.199302434414747"><ele>103.0</ele><time>2026-04-25T06:18:54Z</time></trkpt><trkpt lat="46.06100144419671" lon="13.19936423939428"><ele>102.66666666666667</ele><time>2026-04-25T06:18:55Z</time></trkpt><trkpt lat="46.06114110716438" lon="13.199425777815026"><ele>102.33333333333334</ele><time>2026-04-25T06:18:56Z</time></trkpt><trkpt lat="46.06129751812988" lon="13.199478449455425"><ele>102.0</ele><time>2026-04-25T06:18:57Z</time></trkpt><trkpt lat="46.06146529982277" lon="13.199511811681123"><ele>102.0</ele><time>2026-04-25T06:18:58Z</time></trkpt><trkpt lat="46.061631937861954" lon="13.199520818708876"><ele>102.0</ele><time>2026-04-25T06:18:59Z</time></trkpt><trkpt lat="46.06177973749164" lon="13.199507575696687"><ele>102.0</ele><time>2026-04-25T06:19:00Z</time></trkpt><trkpt lat="46.06191878541823" lon="13.199484574942746"><ele>102.0</ele><time>2026-04-25T06:19:01Z</time></trkpt><trkpt lat="46.06206638565043" lon="13.199442641877678"><ele>102.0</ele><time>2026-04-25T06:19:02Z</time></trkpt><trkpt lat="46.06222121661057" lon="13.199366496944986"><ele>102.0</ele><time>2026-04-25T06:19:03Z</time></trkpt><trkpt lat="46.06237217882115" lon="13.199260262938024"><ele>103.0</ele><time>2026-04-25T06:19:04Z</time></trkpt><trkpt lat="46.06251834960316" lon="13.199131381586644"><ele>104.0</ele><time>2026-04-25T06:19:05Z</time></trkpt><trkpt lat="46.062644434624914" lon="13.198983930973407"><ele>105.0</ele><time>2026-04-25T06:19:06Z</time></trkpt><trkpt lat="46.062722334726764" lon="13.198825545910582"><ele>105.0</ele><time>2026-04-25T06:19:07Z</time></trkpt><trkpt lat="46.062764084204346" lon="13.198641219718445"><ele>105.0</ele><time>2026-04-25T06:19:08Z</time></trkpt><trkpt lat="46.06278027097551" lon="13.198425791605214"><ele>105.0</ele><time>2026-04-25T06:19:09Z</time></trkpt><trkpt lat="46.06277245561724" lon="13.198189890588418"><ele>105.0</ele><time>2026-04-25T06:19:10Z</time></trkpt><trkpt lat="46.062745140962555" lon="13.197959278969202"><ele>104.33333333333334</ele><time>2026-04-25T06:19:11Z</time></trkpt><trkpt lat="46.06269827708134" lon="13.19773769943409"><ele>103.66666666666667</ele><time>2026-04-25T06:19:12Z</time></trkpt><trkpt lat="46.062616446390614" lon="13.197533267776892"><ele>103.0</ele><time>2026-04-25T06:19:13Z</time></trkpt><trkpt lat="46.062495280601965" lon="13.197385433963152"><ele>102.33333333333334</ele><time>2026-04-25T06:19:14Z</time></trkpt><trkpt lat="46.062352686186365" lon="13.197271330148688"><ele>101.66666666666666</ele><time>2026-04-25T06:19:15Z</time></trkpt><trkpt lat="46.062205406549374" lon="13.197178903341145"><ele>101.0</ele><time>2026-04-25T06:19:16Z</time></trkpt><trkpt lat="46.06205781838739" lon="13.197075940726801"><ele>101.0</ele><time>2026-04-25T06:19:17Z</time></trkpt><trkpt lat="46.061928280226674" lon="13.196947375784791"><ele>101.0</ele><time>2026-04-25T06:19:18Z</time></trkpt><trkpt lat="46.06181126111247" lon="13.196785451744487"><ele>101.0</ele><time>2026-04-25T06:19:19Z</time></trkpt><trkpt lat="46.061709656723245" lon="13.196593915243133"><ele>103.0</ele><time>2026-04-25T06:19:20Z</time></trkpt><trkpt lat="46.06164514775645" lon="13.19636681172628"><ele>105.0</ele><time>2026-04-25T06:19:21Z</time></trkpt><trkpt lat="46.06161065836425" lon="13.196114335609042"><ele>107.0</ele><time>2026-04-25T06:19:22Z</time></trkpt><trkpt lat="46.06158893101502" lon="13.195840097889638"><ele>107.0</ele><time>2026-04-25T06:19:23Z</time></trkpt><trkpt lat="46.0615622116346" lon="13.195553251143629"><ele>107.0</ele><time>2026-04-25T06:19:24Z</time></trkpt><trkpt lat="46.061538464161366" lon="13.195247448840986"><ele>107.0</ele><time>2026-04-25T06:19:25Z</time></trkpt><trkpt lat="46.061516020652256" lon="13.194926381191038"><ele>106.5</ele><time>2026-04-25T06:19:26Z</time></trkpt><trkpt lat="46.061494214658566" lon="13.194591312992953"><ele>106.0</ele><time>2026-04-25T06:19:27Z</time></trkpt><trkpt lat="46.06147142235566" lon="13.194245583839942"><ele>106.0</ele><time>2026-04-25T06:19:28Z</time></trkpt><trkpt lat="46.06144794833509" lon="13.193892220942306"><ele>106.0</ele><time>2026-04-25T06:19:29Z</time></trkpt><trkpt lat="46.06142301580858" lon="13.193535833167477"><ele>106.0</ele><time>2026-04-25T06:19:30Z</time></trkpt><trkpt lat="46.06139690196318" lon="13.193179711050059"><ele>106.0</ele><time>2026-04-25T06:19:31Z</time></trkpt><trkpt lat="46.06137155045547" lon="13.19282760759839"><ele>106.5</ele><time>2026-04-25T06:19:32Z</time></trkpt><trkpt lat="46.061349782650055" lon="13.1924844435647"><ele>107.0</ele><time>2026-04-25T06:19:33Z</time></trkpt><trkpt lat="46.06132808679813" lon="13.192150333883719"><ele>107.0</ele><time>2026-04-25T06:19:33.999Z</time></trkpt><trkpt lat="46.061307533366644" lon="13.191826231667829"><ele>107.0</ele><time>2026-04-25T06:19:34.999Z</time></trkpt><trkpt lat="46.06128902385863" lon="13.191512966692711"><ele>107.0</ele><time>2026-04-25T06:19:35.999Z</time></trkpt><trkpt lat="46.06126904933181" lon="13.191209330797127"><ele>107.0</ele><time>2026-04-25T06:19:36.999Z</time></trkpt><trkpt lat="46.061248350872695" lon="13.190912779664567"><ele>107.0</ele><time>2026-04-25T06:19:37.999Z</time></trkpt><trkpt lat="46.06122943179733" lon="13.190625780023606"><ele>107.0</ele><time>2026-04-25T06:19:38.999Z</time></trkpt><trkpt lat="46.061211629293204" lon="13.190345502993644"><ele>107.0</ele><time>2026-04-25T06:19:39.999Z</time></trkpt><trkpt lat="46.061193570322295" lon="13.190069991842762"><ele>107.0</ele><time>2026-04-25T06:19:40.999Z</time></trkpt><trkpt lat="46.06117599849443" lon="13.189799745784665"><ele>107.0</ele><time>2026-04-25T06:19:41.999Z</time></trkpt><trkpt lat="46.061157677123255" lon="13.189524774779438"><ele>106.33333333333333</ele><time>2026-04-25T06:19:42.999Z</time></trkpt><trkpt lat="46.06113964277883" lon="13.189243036227664"><ele>105.66666666666666</ele><time>2026-04-25T06:19:43.999Z</time></trkpt><trkpt lat="46.06112396944318" lon="13.188959938689996"><ele>105.0</ele><time>2026-04-25T06:19:44.999Z</time></trkpt><trkpt lat="46.061107446491654" lon="13.188678002742398"><ele>104.66666666666666</ele><time>2026-04-25T06:19:45.999Z</time></trkpt><trkpt lat="46.06108868540197" lon="13.188393156651705"><ele>104.33333333333333</ele><time>2026-04-25T06:19:46.999Z</time></trkpt><trkpt lat="46.06107022206902" lon="13.188098568594102"><ele>104.0</ele><time>2026-04-25T06:19:47.999Z</time></trkpt><trkpt lat="46.06105297256471" lon="13.187798245833676"><ele>104.66666666666666</ele><time>2026-04-25T06:19:48.999Z</time></trkpt><trkpt lat="46.061034142973796" lon="13.18749353892759"><ele>105.33333333333334</ele><time>2026-04-25T06:19:49.999Z</time></trkpt><trkpt lat="46.06101424185321" lon="13.18718447351998"><ele>106.0</ele><time>2026-04-25T06:19:50.999Z</time></trkpt><trkpt lat="46.06099388047367" lon="13.186877670623158"><ele>106.33333333333334</ele><time>2026-04-25T06:19:51.999Z</time></trkpt><trkpt lat="46.060991401711675" lon="13.186570513281474"><ele>106.66666666666666</ele><time>2026-04-25T06:19:52.999Z</time></trkpt><trkpt lat="46.06097320314529" lon="13.186267602588305"><ele>107.0</ele><time>2026-04-25T06:19:53.999Z</time></trkpt><trkpt lat="46.06095521029531" lon="13.185968270753806"><ele>107.66666666666666</ele><time>2026-04-25T06:19:54.999Z</time></trkpt><trkpt lat="46.0609358763403" lon="13.185670235304372"><ele>108.33333333333334</ele><time>2026-04-25T06:19:55.999Z</time></trkpt><trkpt lat="46.060914328589334" lon="13.185378106651374"><ele>109.0</ele><time>2026-04-25T06:19:56.999Z</time></trkpt><trkpt lat="46.06088494046168" lon="13.185085222373049"><ele>108.66666666666667</ele><time>2026-04-25T06:19:57.999Z</time></trkpt><trkpt lat="46.06085306547254" lon="13.184788354897027"><ele>108.33333333333334</ele><time>2026-04-25T06:19:58.999Z</time></trkpt><trkpt lat="46.06082084422717" lon="13.184488262568523"><ele>108.0</ele><time>2026-04-25T06:19:59.999Z</time></trkpt><trkpt lat="46.06078520209118" lon="13.184179452529236"><ele>108.0</ele><time>2026-04-25T06:20:00.999Z</time></trkpt><trkpt lat="46.06067831699236" lon="13.183867767847257"><ele>108.0</ele><time>2026-04-25T06:20:01.999Z</time></trkpt><trkpt lat="46.06062220992528" lon="13.183543136550986"><ele>108.0</ele><time>2026-04-25T06:20:02.999Z</time></trkpt><trkpt lat="46.06055570388009" lon="13.183207757204455"><ele>108.0</ele><time>2026-04-25T06:20:03.999Z</time></trkpt><trkpt lat="46.06048981012746" lon="13.182868164429484"><ele>108.0</ele><time>2026-04-25T06:20:04.999Z</time></trkpt><trkpt lat="46.0604220691937" lon="13.182526261864057"><ele>108.0</ele><time>2026-04-25T06:20:05.999Z</time></trkpt><trkpt lat="46.06035529422838" lon="13.1821814749208"><ele>108.0</ele><time>2026-04-25T06:20:06.999Z</time></trkpt><trkpt lat="46.0602920845128" lon="13.181836467376936"><ele>108.0</ele><time>2026-04-25T06:20:07.999Z</time></trkpt><trkpt lat="46.06023921938317" lon="13.181485154569968"><ele>108.0</ele><time>2026-04-25T06:20:08.999Z</time></trkpt><trkpt lat="46.060196744563086" lon="13.18113101195207"><ele>108.0</ele><time>2026-04-25T06:20:09.999Z</time></trkpt><trkpt lat="46.06015680865176" lon="13.180775660754902"><ele>108.5</ele><time>2026-04-25T06:20:10.999Z</time></trkpt><trkpt lat="46.06012237020666" lon="13.180417197036556"><ele>109.0</ele><time>2026-04-25T06:20:11.999Z</time></trkpt><trkpt lat="46.06009447267361" lon="13.18005756874896"><ele>108.0</ele><time>2026-04-25T06:20:12.999Z</time></trkpt><trkpt lat="46.060066826073545" lon="13.179697513834185"><ele>107.0</ele><time>2026-04-25T06:20:13.999Z</time></trkpt><trkpt lat="46.06004147067782" lon="13.17933636468524"><ele>107.5</ele><time>2026-04-25T06:20:14.999Z</time></trkpt><trkpt lat="46.06001632001039" lon="13.178974505960761"><ele>108.0</ele><time>2026-04-25T06:20:15.999Z</time></trkpt><trkpt lat="46.05999175600449" lon="13.178611740107621"><ele>108.0</ele><time>2026-04-25T06:20:16.999Z</time></trkpt><trkpt lat="46.059965236419735" lon="13.178250076122396"><ele>108.0</ele><time>2026-04-25T06:20:17.999Z</time></trkpt><trkpt lat="46.059939349968346" lon="13.177891553413552"><ele>108.0</ele><time>2026-04-25T06:20:18.999Z</time></trkpt><trkpt lat="46.059914413954004" lon="13.17753414107901"><ele>108.0</ele><time>2026-04-25T06:20:19.999Z</time></trkpt><trkpt lat="46.05988818318138" lon="13.177178327975774"><ele>108.0</ele><time>2026-04-25T06:20:20.999Z</time></trkpt><trkpt lat="46.05986214478813" lon="13.176822233591409"><ele>108.0</ele><time>2026-04-25T06:20:21.999Z</time></trkpt><trkpt lat="46.05983780430216" lon="13.176467800968426"><ele>108.0</ele><time>2026-04-25T06:20:22.999Z</time></trkpt><trkpt lat="46.05981436208345" lon="13.176120136801753"><ele>108.0</ele><time>2026-04-25T06:20:23.999Z</time></trkpt><trkpt lat="46.05978895414786" lon="13.175774563637795"><ele>108.5</ele><time>2026-04-25T06:20:24.999Z</time></trkpt><trkpt lat="46.05975561615888" lon="13.175436391132504"><ele>109.0</ele><time>2026-04-25T06:20:25.999Z</time></trkpt><trkpt lat="46.05971945836269" lon="13.175094547131028"><ele>108.5</ele><time>2026-04-25T06:20:26.999Z</time></trkpt><trkpt lat="46.05966528842023" lon="13.174762375937298"><ele>108.0</ele><time>2026-04-25T06:20:27.999Z</time></trkpt><trkpt lat="46.05959784719296" lon="13.17443751285808"><ele>108.0</ele><time>2026-04-25T06:20:28.999Z</time></trkpt><trkpt lat="46.05952635104303" lon="13.174115187919798"><ele>108.0</ele><time>2026-04-25T06:20:29.999Z</time></trkpt><trkpt lat="46.05944736799999" lon="13.17379725650087"><ele>108.5</ele><time>2026-04-25T06:20:30.999Z</time></trkpt><trkpt lat="46.05935898559053" lon="13.173489247572391"><ele>109.0</ele><time>2026-04-25T06:20:31.999Z</time></trkpt><trkpt lat="46.059262680071114" lon="13.17318232515286"><ele>109.0</ele><time>2026-04-25T06:20:32.999Z</time></trkpt><trkpt lat="46.05916630118056" lon="13.172872826219523"><ele>109.0</ele><time>2026-04-25T06:20:33.999Z</time></trkpt><trkpt lat="46.05906941777447" lon="13.17256330340171"><ele>108.5</ele><time>2026-04-25T06:20:34.999Z</time></trkpt><trkpt lat="46.058972799117356" lon="13.172252249546014"><ele>108.0</ele><time>2026-04-25T06:20:35.999Z</time></trkpt><trkpt lat="46.058878658938504" lon="13.171940953119588"><ele>108.0</ele><time>2026-04-25T06:20:36.999Z</time></trkpt><trkpt lat="46.05878863983882" lon="13.171632310561534"><ele>108.0</ele><time>2026-04-25T06:20:37.999Z</time></trkpt><trkpt lat="46.0587044657734" lon="13.171323798871025"><ele>108.0</ele><time>2026-04-25T06:20:38.999Z</time></trkpt><trkpt lat="46.05862965900798" lon="13.171017756039442"><ele>108.0</ele><time>2026-04-25T06:20:39.999Z</time></trkpt><trkpt lat="46.058565544191744" lon="13.170711666087822"><ele>108.0</ele><time>2026-04-25T06:20:40.999Z</time></trkpt><trkpt lat="46.058517532192354" lon="13.170411810308543"><ele>108.0</ele><time>2026-04-25T06:20:41.999Z</time></trkpt><trkpt lat="46.058476906426385" lon="13.170130482700522"><ele>108.0</ele><time>2026-04-25T06:20:42.999Z</time></trkpt><trkpt lat="46.05844736854027" lon="13.169860981436663"><ele>108.0</ele><time>2026-04-25T06:20:43.999Z</time></trkpt><trkpt lat="46.058429706139435" lon="13.169594141285804"><ele>108.0</ele><time>2026-04-25T06:20:44.999Z</time></trkpt><trkpt lat="46.058422555474706" lon="13.16932707355395"><ele>108.0</ele><time>2026-04-25T06:20:45.999Z</time></trkpt><trkpt lat="46.05841700151391" lon="13.16906234337391"><ele>108.0</ele><time>2026-04-25T06:20:46.999Z</time></trkpt><trkpt lat="46.058413250649885" lon="13.16878267828302"><ele>108.0</ele><time>2026-04-25T06:20:47.999Z</time></trkpt><trkpt lat="46.05841933458663" lon="13.16846158049526"><ele>108.0</ele><time>2026-04-25T06:20:48.999Z</time></trkpt><trkpt lat="46.058449197176465" lon="13.168107343045778"><ele>108.0</ele><time>2026-04-25T06:20:49.999Z</time></trkpt><trkpt lat="46.058508011919606" lon="13.167726045889493"><ele>108.0</ele><time>2026-04-25T06:20:50.999Z</time></trkpt><trkpt lat="46.05856947703822" lon="13.16732482127535"><ele>107.0</ele><time>2026-04-25T06:20:51.999Z</time></trkpt><trkpt lat="46.058620629444455" lon="13.166924067832117"><ele>106.0</ele><time>2026-04-25T06:20:52.999Z</time></trkpt><trkpt lat="46.05866729942315" lon="13.166524648906561"><ele>105.5</ele><time>2026-04-25T06:20:53.999Z</time></trkpt><trkpt lat="46.05871233916789" lon="13.166127097355718"><ele>105.0</ele><time>2026-04-25T06:20:54.999Z</time></trkpt><trkpt lat="46.05875582513" lon="13.16573827071241"><ele>105.0</ele><time>2026-04-25T06:20:55.999Z</time></trkpt><trkpt lat="46.05879767914067" lon="13.16535380181848"><ele>105.0</ele><time>2026-04-25T06:20:56.999Z</time></trkpt><trkpt lat="46.05883217389536" lon="13.164974378402679"><ele>103.5</ele><time>2026-04-25T06:20:57.999Z</time></trkpt><trkpt lat="46.05885185608941" lon="13.164599470453634"><ele>102.0</ele><time>2026-04-25T06:20:59Z</time></trkpt><trkpt lat="46.05885711456981" lon="13.164232582124509"><ele>101.5</ele><time>2026-04-25T06:21:00Z</time></trkpt><trkpt lat="46.05885117214632" lon="13.163869427645762"><ele>101.0</ele><time>2026-04-25T06:21:01Z</time></trkpt><trkpt lat="46.058830535006216" lon="13.16350711156221"><ele>101.0</ele><time>2026-04-25T06:21:02Z</time></trkpt><trkpt lat="46.05879446913762" lon="13.163147716225527"><ele>101.0</ele><time>2026-04-25T06:21:03Z</time></trkpt><trkpt lat="46.058745018732026" lon="13.162786989146158"><ele>101.0</ele><time>2026-04-25T06:21:04Z</time></trkpt><trkpt lat="46.05868486084514" lon="13.162429069259938"><ele>101.0</ele><time>2026-04-25T06:21:05Z</time></trkpt><trkpt lat="46.058608895081406" lon="13.162077086494724"><ele>102.0</ele><time>2026-04-25T06:21:06Z</time></trkpt><trkpt lat="46.05851528774697" lon="13.161735955546456"><ele>103.0</ele><time>2026-04-25T06:21:07Z</time></trkpt><trkpt lat="46.05840180533963" lon="13.161407348376258"><ele>101.5</ele><time>2026-04-25T06:21:08Z</time></trkpt><trkpt lat="46.058271020540495" lon="13.161086188490094"><ele>100.0</ele><time>2026-04-25T06:21:09Z</time></trkpt><trkpt lat="46.05815459938854" lon="13.160750513745356"><ele>100.0</ele><time>2026-04-25T06:21:10Z</time></trkpt><trkpt lat="46.05801404703104" lon="13.160430030573725"><ele>100.0</ele><time>2026-04-25T06:21:11Z</time></trkpt><trkpt lat="46.057899652644686" lon="13.160086027836922"><ele>99.5</ele><time>2026-04-25T06:21:12Z</time></trkpt><trkpt lat="46.05779353529432" lon="13.159734167621442"><ele>99.0</ele><time>2026-04-25T06:21:13Z</time></trkpt><trkpt lat="46.057696379944616" lon="13.159374653500352"><ele>99.0</ele><time>2026-04-25T06:21:14Z</time></trkpt><trkpt lat="46.057610559100816" lon="13.159006924112914"><ele>99.0</ele><time>2026-04-25T06:21:15Z</time></trkpt><trkpt lat="46.05752904884375" lon="13.158636969141083"><ele>99.5</ele><time>2026-04-25T06:21:16Z</time></trkpt><trkpt lat="46.057445358945294" lon="13.158270644559229"><ele>100.0</ele><time>2026-04-25T06:21:17Z</time></trkpt><trkpt lat="46.05736228176385" lon="13.157905942895107"><ele>100.0</ele><time>2026-04-25T06:21:18Z</time></trkpt><trkpt lat="46.057282027050285" lon="13.157541741366773"><ele>100.0</ele><time>2026-04-25T06:21:19Z</time></trkpt><trkpt lat="46.05720098316313" lon="13.157182214474332"><ele>100.0</ele><time>2026-04-25T06:21:20Z</time></trkpt><trkpt lat="46.05712165341191" lon="13.15682469437959"><ele>100.0</ele><time>2026-04-25T06:21:21Z</time></trkpt><trkpt lat="46.05704429056375" lon="13.15647050696742"><ele>100.5</ele><time>2026-04-25T06:21:22Z</time></trkpt><trkpt lat="46.05696587127426" lon="13.156118909029367"><ele>101.0</ele><time>2026-04-25T06:21:23Z</time></trkpt><trkpt lat="46.056886643597586" lon="13.155770922750868"><ele>101.0</ele><time>2026-04-25T06:21:24Z</time></trkpt><trkpt lat="46.0568084265061" lon="13.15542367883193"><ele>101.0</ele><time>2026-04-25T06:21:25Z</time></trkpt><trkpt lat="46.05673042634532" lon="13.155078469589425"><ele>100.0</ele><time>2026-04-25T06:21:26Z</time></trkpt><trkpt lat="46.05665325513925" lon="13.154734242776014"><ele>99.0</ele><time>2026-04-25T06:21:27Z</time></trkpt><trkpt lat="46.0565745034263" lon="13.154389205576056"><ele>98.5</ele><time>2026-04-25T06:21:28Z</time></trkpt><trkpt lat="46.05649579623543" lon="13.154042338176819"><ele>98.0</ele><time>2026-04-25T06:21:29Z</time></trkpt><trkpt lat="46.05641980887484" lon="13.153691033518713"><ele>97.5</ele><time>2026-04-25T06:21:30Z</time></trkpt><trkpt lat="46.056346705304684" lon="13.153335968746616"><ele>97.0</ele><time>2026-04-25T06:21:31Z</time></trkpt><trkpt lat="46.05628607961174" lon="13.152973842567768"><ele>97.0</ele><time>2026-04-25T06:21:32Z</time></trkpt><trkpt lat="46.056242972812946" lon="13.152603178239351"><ele>97.0</ele><time>2026-04-25T06:21:33Z</time></trkpt><trkpt lat="46.05621616542637" lon="13.152227396701536"><ele>98.0</ele><time>2026-04-25T06:21:34Z</time></trkpt><trkpt lat="46.056202958750525" lon="13.15184715871436"><ele>99.0</ele><time>2026-04-25T06:21:35Z</time></trkpt><trkpt lat="46.05620488894893" lon="13.15146516476491"><ele>99.0</ele><time>2026-04-25T06:21:36Z</time></trkpt><trkpt lat="46.05622477276675" lon="13.151082167104184"><ele>99.0</ele><time>2026-04-25T06:21:37Z</time></trkpt><trkpt lat="46.05626270682929" lon="13.150702375048928"><ele>98.5</ele><time>2026-04-25T06:21:38Z</time></trkpt><trkpt lat="46.056316492442996" lon="13.150326599326217"><ele>98.0</ele><time>2026-04-25T06:21:38.999Z</time></trkpt><trkpt lat="46.05638481291516" lon="13.14995706428737"><ele>97.5</ele><time>2026-04-25T06:21:39.999Z</time></trkpt><trkpt lat="46.056464516190175" lon="13.149594162192601"><ele>97.0</ele><time>2026-04-25T06:21:40.999Z</time></trkpt><trkpt lat="46.05655599963587" lon="13.14923909206542"><ele>97.5</ele><time>2026-04-25T06:21:41.999Z</time></trkpt><trkpt lat="46.05665627668901" lon="13.148893784977416"><ele>98.0</ele><time>2026-04-25T06:21:42.999Z</time></trkpt><trkpt lat="46.05675607112663" lon="13.148553064044224"><ele>98.0</ele><time>2026-04-25T06:21:43.999Z</time></trkpt><trkpt lat="46.05684716180315" lon="13.148214380279065"><ele>98.0</ele><time>2026-04-25T06:21:44.999Z</time></trkpt><trkpt lat="46.056939549905394" lon="13.147882080606514"><ele>98.5</ele><time>2026-04-25T06:21:45.999Z</time></trkpt><trkpt lat="46.05703352230921" lon="13.147556149889397"><ele>99.0</ele><time>2026-04-25T06:21:46.999Z</time></trkpt><trkpt lat="46.05712387518698" lon="13.147233256897874"><ele>99.0</ele><time>2026-04-25T06:21:47.999Z</time></trkpt><trkpt lat="46.05720710069638" lon="13.146909454462733"><ele>99.0</ele><time>2026-04-25T06:21:48.999Z</time></trkpt><trkpt lat="46.05727622457875" lon="13.14657955201499"><ele>98.5</ele><time>2026-04-25T06:21:49.999Z</time></trkpt><trkpt lat="46.05733322035472" lon="13.14624487988284"><ele>98.0</ele><time>2026-04-25T06:21:50.999Z</time></trkpt><trkpt lat="46.05737562978606" lon="13.145905218309784"><ele>98.5</ele><time>2026-04-25T06:21:51.999Z</time></trkpt><trkpt lat="46.05740346699415" lon="13.145561380235856"><ele>99.0</ele><time>2026-04-25T06:21:52.999Z</time></trkpt><trkpt lat="46.057415873333554" lon="13.145212376938506"><ele>98.5</ele><time>2026-04-25T06:21:53.999Z</time></trkpt><trkpt lat="46.05741953805646" lon="13.144860078024097"><ele>98.0</ele><time>2026-04-25T06:21:54.999Z</time></trkpt><trkpt lat="46.05741175003094" lon="13.144505074554901"><ele>98.0</ele><time>2026-04-25T06:21:55.999Z</time></trkpt><trkpt lat="46.05739537541944" lon="13.144146485676988"><ele>98.0</ele><time>2026-04-25T06:21:56.999Z</time></trkpt><trkpt lat="46.0573733745697" lon="13.143787652491472"><ele>98.5</ele><time>2026-04-25T06:21:57.999Z</time></trkpt><trkpt lat="46.05735560689643" lon="13.143425272353925"><ele>99.0</ele><time>2026-04-25T06:21:58.999Z</time></trkpt><trkpt lat="46.05733979571491" lon="13.143061815363541"><ele>99.0</ele><time>2026-04-25T06:21:59.999Z</time></trkpt><trkpt lat="46.05732469600541" lon="13.142701356496048"><ele>99.0</ele><time>2026-04-25T06:22:00.999Z</time></trkpt><trkpt lat="46.05730675905009" lon="13.142353819359876"><ele>99.66666666666666</ele><time>2026-04-25T06:22:01.999Z</time></trkpt><trkpt lat="46.057290558560666" lon="13.142022366912904"><ele>100.33333333333333</ele><time>2026-04-25T06:22:02.999Z</time></trkpt><trkpt lat="46.057279722497" lon="13.14172119831969"><ele>101.0</ele><time>2026-04-25T06:22:03.999Z</time></trkpt><trkpt lat="46.05726603659646" lon="13.141434370554004"><ele>101.33333333333333</ele><time>2026-04-25T06:22:04.999Z</time></trkpt><trkpt lat="46.057253681042646" lon="13.14117167311241"><ele>101.66666666666666</ele><time>2026-04-25T06:22:05.999Z</time></trkpt><trkpt lat="46.057242967179015" lon="13.140922301535493"><ele>102.0</ele><time>2026-04-25T06:22:06.999Z</time></trkpt><trkpt lat="46.057235863033874" lon="13.140696140642536"><ele>101.33333333333334</ele><time>2026-04-25T06:22:07.999Z</time></trkpt><trkpt lat="46.05724343195026" lon="13.140468175576109"><ele>100.66666666666667</ele><time>2026-04-25T06:22:08.999Z</time></trkpt><trkpt lat="46.0572807127356" lon="13.140250237795962"><ele>100.0</ele><time>2026-04-25T06:22:09.999Z</time></trkpt><trkpt lat="46.05733162777793" lon="13.14004506084262"><ele>100.0</ele><time>2026-04-25T06:22:10.999Z</time></trkpt><trkpt lat="46.05737406552767" lon="13.139824887570944"><ele>100.0</ele><time>2026-04-25T06:22:11.999Z</time></trkpt><trkpt lat="46.05741819045716" lon="13.13959502117626"><ele>100.0</ele><time>2026-04-25T06:22:12.999Z</time></trkpt><trkpt lat="46.057469872770824" lon="13.139356369098106"><ele>99.0</ele><time>2026-04-25T06:22:13.999Z</time></trkpt><trkpt lat="46.05735920925034" lon="13.139034244951256"><ele>98.0</ele><time>2026-04-25T06:22:14.999Z</time></trkpt><trkpt lat="46.057376610424164" lon="13.138743954938956"><ele>98.0</ele><time>2026-04-25T06:22:15.999Z</time></trkpt><trkpt lat="46.057419608016254" lon="13.138444023666938"><ele>98.0</ele><time>2026-04-25T06:22:16.999Z</time></trkpt><trkpt lat="46.05748330352495" lon="13.138136732435616"><ele>98.0</ele><time>2026-04-25T06:22:17.999Z</time></trkpt><trkpt lat="46.05755367194853" lon="13.137817874617586"><ele>98.0</ele><time>2026-04-25T06:22:18.999Z</time></trkpt><trkpt lat="46.05762356661566" lon="13.137488001182161"><ele>98.0</ele><time>2026-04-25T06:22:19.999Z</time></trkpt><trkpt lat="46.057696592194496" lon="13.137152213463752"><ele>98.0</ele><time>2026-04-25T06:22:20.999Z</time></trkpt><trkpt lat="46.05777428965719" lon="13.136813451461023"><ele>98.0</ele><time>2026-04-25T06:22:21.999Z</time></trkpt><trkpt lat="46.057847330519934" lon="13.13647435888923"><ele>99.0</ele><time>2026-04-25T06:22:22.999Z</time></trkpt><trkpt lat="46.05791177601865" lon="13.136138252150602"><ele>100.0</ele><time>2026-04-25T06:22:23.999Z</time></trkpt><trkpt lat="46.05796436233076" lon="13.135805572078564"><ele>100.0</ele><time>2026-04-25T06:22:24.999Z</time></trkpt><trkpt lat="46.05800075562085" lon="13.135468867716991"><ele>100.0</ele><time>2026-04-25T06:22:25.999Z</time></trkpt><trkpt lat="46.058017275578976" lon="13.135133735949688"><ele>100.5</ele><time>2026-04-25T06:22:26.999Z</time></trkpt><trkpt lat="46.05802058241293" lon="13.134804193865893"><ele>101.0</ele><time>2026-04-25T06:22:27.999Z</time></trkpt><trkpt lat="46.058010838941016" lon="13.134479814413965"><ele>101.0</ele><time>2026-04-25T06:22:28.999Z</time></trkpt><trkpt lat="46.05798886586906" lon="13.134160339919577"><ele>101.0</ele><time>2026-04-25T06:22:29.999Z</time></trkpt><trkpt lat="46.05795327765429" lon="13.133846623705896"><ele>101.0</ele><time>2026-04-25T06:22:30.999Z</time></trkpt><trkpt lat="46.057901014233366" lon="13.133532754858214"><ele>101.0</ele><time>2026-04-25T06:22:31.999Z</time></trkpt><trkpt lat="46.05783230151073" lon="13.133223643295302"><ele>101.0</ele><time>2026-04-25T06:22:32.999Z</time></trkpt><trkpt lat="46.057753205576866" lon="13.132913972650597"><ele>101.0</ele><time>2026-04-25T06:22:33.999Z</time></trkpt><trkpt lat="46.0576762533719" lon="13.132598535172203"><ele>101.0</ele><time>2026-04-25T06:22:34.999Z</time></trkpt><trkpt lat="46.05759941031362" lon="13.132279674854434"><ele>101.0</ele><time>2026-04-25T06:22:35.999Z</time></trkpt><trkpt lat="46.057525190399865" lon="13.131957767924158"><ele>101.0</ele><time>2026-04-25T06:22:36.999Z</time></trkpt><trkpt lat="46.05745509030356" lon="13.131630777591454"><ele>100.5</ele><time>2026-04-25T06:22:37.999Z</time></trkpt><trkpt lat="46.05738913201211" lon="13.13129982556147"><ele>100.0</ele><time>2026-04-25T06:22:38.999Z</time></trkpt><trkpt lat="46.05733483242541" lon="13.130962224750062"><ele>99.5</ele><time>2026-04-25T06:22:39.999Z</time></trkpt><trkpt lat="46.05729401200223" lon="13.130618917570104"><ele>99.0</ele><time>2026-04-25T06:22:40.999Z</time></trkpt><trkpt lat="46.057265276654825" lon="13.130277270292025"><ele>99.0</ele><time>2026-04-25T06:22:41.999Z</time></trkpt><trkpt lat="46.057248805200665" lon="13.129934010397823"><ele>99.0</ele><time>2026-04-25T06:22:42.999Z</time></trkpt><trkpt lat="46.05724583149169" lon="13.129591577640072"><ele>99.0</ele><time>2026-04-25T06:22:43.999Z</time></trkpt><trkpt lat="46.057258315062064" lon="13.129250965500656"><ele>99.0</ele><time>2026-04-25T06:22:44.999Z</time></trkpt><trkpt lat="46.05728091750708" lon="13.128912112838472"><ele>99.5</ele><time>2026-04-25T06:22:45.999Z</time></trkpt><trkpt lat="46.05731531596739" lon="13.128575342487071"><ele>100.0</ele><time>2026-04-25T06:22:46.999Z</time></trkpt><trkpt lat="46.057354956943854" lon="13.128239305992874"><ele>100.0</ele><time>2026-04-25T06:22:47.999Z</time></trkpt><trkpt lat="46.05739217178268" lon="13.127905996909364"><ele>100.0</ele><time>2026-04-25T06:22:48.999Z</time></trkpt><trkpt lat="46.05742997081578" lon="13.1275742677511"><ele>101.0</ele><time>2026-04-25T06:22:49.999Z</time></trkpt><trkpt lat="46.05746877188997" lon="13.127244489894572"><ele>102.0</ele><time>2026-04-25T06:22:50.999Z</time></trkpt><trkpt lat="46.05750622238463" lon="13.126919639021315"><ele>102.0</ele><time>2026-04-25T06:22:51.999Z</time></trkpt><trkpt lat="46.05754343717085" lon="13.126602346771735"><ele>102.0</ele><time>2026-04-25T06:22:52.999Z</time></trkpt><trkpt lat="46.057583170853384" lon="13.12628253219423"><ele>102.0</ele><time>2026-04-25T06:22:53.999Z</time></trkpt><trkpt lat="46.05762238117061" lon="13.125961112019251"><ele>101.5</ele><time>2026-04-25T06:22:54.999Z</time></trkpt><trkpt lat="46.057658997897676" lon="13.125638319342318"><ele>101.0</ele><time>2026-04-25T06:22:55.999Z</time></trkpt><trkpt lat="46.057695523958884" lon="13.125313505932828"><ele>101.0</ele><time>2026-04-25T06:22:56.999Z</time></trkpt><trkpt lat="46.05773262534116" lon="13.12498793020278"><ele>101.0</ele><time>2026-04-25T06:22:57.999Z</time></trkpt><trkpt lat="46.0577704977924" lon="13.124661556810256"><ele>101.0</ele><time>2026-04-25T06:22:58.999Z</time></trkpt><trkpt lat="46.05780909761755" lon="13.124334558356576"><ele>101.0</ele><time>2026-04-25T06:22:59.999Z</time></trkpt><trkpt lat="46.057844310868795" lon="13.1240060988007"><ele>100.5</ele><time>2026-04-25T06:23:00.999Z</time></trkpt><trkpt lat="46.0578756481931" lon="13.123677815537802"><ele>100.0</ele><time>2026-04-25T06:23:01.999Z</time></trkpt><trkpt lat="46.057900950953915" lon="13.1233484599691"><ele>99.5</ele><time>2026-04-25T06:23:02.999Z</time></trkpt><trkpt lat="46.05792364694894" lon="13.123023402706465"><ele>99.0</ele><time>2026-04-25T06:23:03.999Z</time></trkpt><trkpt lat="46.05794204306781" lon="13.122694947725773"><ele>99.5</ele><time>2026-04-25T06:23:05Z</time></trkpt><trkpt lat="46.05795332261614" lon="13.122369035324098"><ele>100.0</ele><time>2026-04-25T06:23:06Z</time></trkpt><trkpt lat="46.05795756175571" lon="13.122042758115754"><ele>100.0</ele><time>2026-04-25T06:23:07Z</time></trkpt><trkpt lat="46.05795714478833" lon="13.121717571265721"><ele>100.0</ele><time>2026-04-25T06:23:08Z</time></trkpt><trkpt lat="46.05795444221875" lon="13.121392088191831"><ele>100.33333333333334</ele><time>2026-04-25T06:23:09Z</time></trkpt><trkpt lat="46.05794775181946" lon="13.121073038538162"><ele>100.66666666666666</ele><time>2026-04-25T06:23:10Z</time></trkpt><trkpt lat="46.057939598398924" lon="13.120760390672881"><ele>101.0</ele><time>2026-04-25T06:23:11Z</time></trkpt><trkpt lat="46.057930614027065" lon="13.120453455155607"><ele>101.0</ele><time>2026-04-25T06:23:12Z</time></trkpt><trkpt lat="46.05792419320729" lon="13.120154087490668"><ele>101.0</ele><time>2026-04-25T06:23:13Z</time></trkpt><trkpt lat="46.057917185299765" lon="13.11986103449791"><ele>101.0</ele><time>2026-04-25T06:23:14Z</time></trkpt><trkpt lat="46.05790826336257" lon="13.119573239612347"><ele>101.33333333333333</ele><time>2026-04-25T06:23:15Z</time></trkpt><trkpt lat="46.0579006720455" lon="13.119291799286062"><ele>101.66666666666666</ele><time>2026-04-25T06:23:16Z</time></trkpt><trkpt lat="46.05789311615513" lon="13.119012456083482"><ele>102.0</ele><time>2026-04-25T06:23:17Z</time></trkpt><trkpt lat="46.057883029079036" lon="13.118733415918687"><ele>102.0</ele><time>2026-04-25T06:23:18Z</time></trkpt><trkpt lat="46.057872376843825" lon="13.118446421421478"><ele>102.0</ele><time>2026-04-25T06:23:19Z</time></trkpt><trkpt lat="46.05786344020712" lon="13.118161800940618"><ele>102.0</ele><time>2026-04-25T06:23:20Z</time></trkpt><trkpt lat="46.057852125727806" lon="13.117878368972756"><ele>101.66666666666666</ele><time>2026-04-25T06:23:21Z</time></trkpt><trkpt lat="46.05784279303725" lon="13.11760740838382"><ele>101.33333333333333</ele><time>2026-04-25T06:23:22Z</time></trkpt><trkpt lat="46.057843485486266" lon="13.117358500643038"><ele>101.0</ele><time>2026-04-25T06:23:23Z</time></trkpt><trkpt lat="46.05785264848859" lon="13.117134538915659"><ele>100.75</ele><time>2026-04-25T06:23:24Z</time></trkpt><trkpt lat="46.057870912352165" lon="13.116930204083948"><ele>100.5</ele><time>2026-04-25T06:23:25Z</time></trkpt><trkpt lat="46.05789889733062" lon="13.116746458022345"><ele>100.25</ele><time>2026-04-25T06:23:26Z</time></trkpt><trkpt lat="46.057954397505405" lon="13.116583879558386"><ele>100.0</ele><time>2026-04-25T06:23:27Z</time></trkpt><trkpt lat="46.0580372176452" lon="13.116421464885677"><ele>100.0</ele><time>2026-04-25T06:23:28Z</time></trkpt><trkpt lat="46.0581151372083" lon="13.11624325476962"><ele>100.0</ele><time>2026-04-25T06:23:29Z</time></trkpt><trkpt lat="46.05818387977476" lon="13.116052502547674"><ele>100.0</ele><time>2026-04-25T06:23:30Z</time></trkpt><trkpt lat="46.05824741272387" lon="13.115849660432511"><ele>99.66666666666667</ele><time>2026-04-25T06:23:31Z</time></trkpt><trkpt lat="46.058278740123455" lon="13.115625821981924"><ele>99.33333333333334</ele><time>2026-04-25T06:23:32Z</time></trkpt><trkpt lat="46.05824676785066" lon="13.115392859493303"><ele>99.0</ele><time>2026-04-25T06:23:33Z</time></trkpt><trkpt lat="46.05823452508987" lon="13.115165410963606"><ele>99.0</ele><time>2026-04-25T06:23:34Z</time></trkpt><trkpt lat="46.05825633415051" lon="13.11492244905948"><ele>99.0</ele><time>2026-04-25T06:23:35Z</time></trkpt><trkpt lat="46.05830946387373" lon="13.114665873394518"><ele>99.0</ele><time>2026-04-25T06:23:36Z</time></trkpt><trkpt lat="46.05839791210392" lon="13.114414411118949"><ele>99.66666666666666</ele><time>2026-04-25T06:23:37Z</time></trkpt><trkpt lat="46.05848331568951" lon="13.114157150143852"><ele>100.33333333333333</ele><time>2026-04-25T06:23:38Z</time></trkpt><trkpt lat="46.05857549047907" lon="13.113894594656873"><ele>101.0</ele><time>2026-04-25T06:23:39Z</time></trkpt><trkpt lat="46.05866944447258" lon="13.113632854451504"><ele>101.0</ele><time>2026-04-25T06:23:40Z</time></trkpt><trkpt lat="46.05876365173328" lon="13.113370408688398"><ele>101.0</ele><time>2026-04-25T06:23:41Z</time></trkpt><trkpt lat="46.05885661508098" lon="13.11311142823434"><ele>101.0</ele><time>2026-04-25T06:23:41.999Z</time></trkpt><trkpt lat="46.05894946700113" lon="13.1128527581916"><ele>101.33333333333333</ele><time>2026-04-25T06:23:42.999Z</time></trkpt><trkpt lat="46.05902650785067" lon="13.112582687083579"><ele>101.66666666666666</ele><time>2026-04-25T06:23:43.999Z</time></trkpt><trkpt lat="46.05912065635742" lon="13.112325969265893"><ele>102.0</ele><time>2026-04-25T06:23:44.999Z</time></trkpt><trkpt lat="46.05921178539833" lon="13.112069102645725"><ele>102.33333333333334</ele><time>2026-04-25T06:23:45.999Z</time></trkpt><trkpt lat="46.05930464231112" lon="13.111812428261448"><ele>102.66666666666667</ele><time>2026-04-25T06:23:46.999Z</time></trkpt><trkpt lat="46.05941294249881" lon="13.11156381623774"><ele>103.0</ele><time>2026-04-25T06:23:47.999Z</time></trkpt><trkpt lat="46.059504188442666" lon="13.111300831801747"><ele>102.33333333333334</ele><time>2026-04-25T06:23:48.999Z</time></trkpt><trkpt lat="46.05959728226097" lon="13.111035325182979"><ele>101.66666666666666</ele><time>2026-04-25T06:23:49.999Z</time></trkpt><trkpt lat="46.05969425967174" lon="13.110767125556542"><ele>101.0</ele><time>2026-04-25T06:23:50.999Z</time></trkpt><trkpt lat="46.059793958169514" lon="13.110498148966656"><ele>101.0</ele><time>2026-04-25T06:23:51.999Z</time></trkpt><trkpt lat="46.05989408904171" lon="13.110228005885409"><ele>101.0</ele><time>2026-04-25T06:23:52.999Z</time></trkpt><trkpt lat="46.059994655467335" lon="13.109956687764532"><ele>101.0</ele><time>2026-04-25T06:23:53.999Z</time></trkpt><trkpt lat="46.06009481577324" lon="13.109682111010601"><ele>101.0</ele><time>2026-04-25T06:23:54.999Z</time></trkpt><trkpt lat="46.060194827826585" lon="13.109404453081314"><ele>101.0</ele><time>2026-04-25T06:23:55.999Z</time></trkpt><trkpt lat="46.060295207320905" lon="13.10912577510666"><ele>101.0</ele><time>2026-04-25T06:23:56.999Z</time></trkpt><trkpt lat="46.060395484072174" lon="13.108847382317279"><ele>101.33333333333333</ele><time>2026-04-25T06:23:57.999Z</time></trkpt><trkpt lat="46.06049674583934" lon="13.108569496087043"><ele>101.66666666666666</ele><time>2026-04-25T06:23:58.999Z</time></trkpt><trkpt lat="46.06059893433449" lon="13.108292202302486"><ele>102.0</ele><time>2026-04-25T06:23:59.999Z</time></trkpt><trkpt lat="46.0607011841475" lon="13.10801466760401"><ele>102.0</ele><time>2026-04-25T06:24:00.999Z</time></trkpt><trkpt lat="46.0608031384557" lon="13.107735528145941"><ele>102.0</ele><time>2026-04-25T06:24:01.999Z</time></trkpt><trkpt lat="46.06090724345043" lon="13.107450500278913"><ele>102.0</ele><time>2026-04-25T06:24:02.999Z</time></trkpt><trkpt lat="46.06101357589922" lon="13.10715937392322"><ele>101.5</ele><time>2026-04-25T06:24:03.999Z</time></trkpt><trkpt lat="46.06112191873047" lon="13.10686274331486"><ele>101.0</ele><time>2026-04-25T06:24:04.999Z</time></trkpt><trkpt lat="46.061231798561835" lon="13.106561312425367"><ele>100.5</ele><time>2026-04-25T06:24:05.999Z</time></trkpt><trkpt lat="46.06134374535077" lon="13.106253505866736"><ele>100.0</ele><time>2026-04-25T06:24:06.999Z</time></trkpt><trkpt lat="46.0614564342205" lon="13.105943658906476"><ele>100.0</ele><time>2026-04-25T06:24:07.999Z</time></trkpt><trkpt lat="46.061570101250105" lon="13.105631122433172"><ele>100.0</ele><time>2026-04-25T06:24:08.999Z</time></trkpt><trkpt lat="46.06168447556364" lon="13.10531824411316"><ele>100.0</ele><time>2026-04-25T06:24:09.999Z</time></trkpt><trkpt lat="46.06179909792473" lon="13.105005187104386"><ele>100.0</ele><time>2026-04-25T06:24:10.999Z</time></trkpt><trkpt lat="46.06191380614147" lon="13.104691680739583"><ele>100.0</ele><time>2026-04-25T06:24:11.999Z</time></trkpt><trkpt lat="46.06202694652506" lon="13.104379019462206"><ele>100.0</ele><time>2026-04-25T06:24:12.999Z</time></trkpt><trkpt lat="46.0621405497903" lon="13.104065078992592"><ele>100.5</ele><time>2026-04-25T06:24:13.999Z</time></trkpt><trkpt lat="46.06223865809959" lon="13.103742231378265"><ele>101.0</ele><time>2026-04-25T06:24:14.999Z</time></trkpt><trkpt lat="46.0623640433362" lon="13.103440787190614"><ele>101.0</ele><time>2026-04-25T06:24:15.999Z</time></trkpt><trkpt lat="46.0624782425374" lon="13.103132428789966"><ele>101.0</ele><time>2026-04-25T06:24:16.999Z</time></trkpt><trkpt lat="46.062593160671334" lon="13.10282292647494"><ele>101.0</ele><time>2026-04-25T06:24:17.999Z</time></trkpt><trkpt lat="46.06270795225465" lon="13.102513765083177"><ele>101.0</ele><time>2026-04-25T06:24:18.999Z</time></trkpt><trkpt lat="46.06282155203986" lon="13.102205542257941"><ele>101.0</ele><time>2026-04-25T06:24:19.999Z</time></trkpt><trkpt lat="46.06293486571341" lon="13.101894783076643"><ele>101.0</ele><time>2026-04-25T06:24:20.999Z</time></trkpt><trkpt lat="46.06304776981108" lon="13.101585147016932"><ele>101.0</ele><time>2026-04-25T06:24:21.999Z</time></trkpt><trkpt lat="46.063161749103976" lon="13.101272831589593"><ele>101.0</ele><time>2026-04-25T06:24:22.999Z</time></trkpt><trkpt lat="46.063276410543224" lon="13.100961126450061"><ele>101.5</ele><time>2026-04-25T06:24:23.999Z</time></trkpt><trkpt lat="46.06339055392887" lon="13.1006508296282"><ele>102.0</ele><time>2026-04-25T06:24:24.999Z</time></trkpt><trkpt lat="46.06350503933286" lon="13.100339604378021"><ele>102.0</ele><time>2026-04-25T06:24:25.999Z</time></trkpt><trkpt lat="46.06361972909922" lon="13.100027824031917"><ele>102.0</ele><time>2026-04-25T06:24:26.999Z</time></trkpt><trkpt lat="46.063730019460166" lon="13.09972421168037"><ele>102.0</ele><time>2026-04-25T06:24:27.999Z</time></trkpt><trkpt lat="46.06382166944306" lon="13.099412314983118"><ele>102.0</ele><time>2026-04-25T06:24:28.999Z</time></trkpt><trkpt lat="46.06392881877848" lon="13.09911663267377"><ele>102.5</ele><time>2026-04-25T06:24:29.999Z</time></trkpt><trkpt lat="46.064035753008504" lon="13.098827755166695"><ele>103.0</ele><time>2026-04-25T06:24:30.999Z</time></trkpt><trkpt lat="46.06414565837491" lon="13.098545329956963"><ele>103.0</ele><time>2026-04-25T06:24:31.999Z</time></trkpt><trkpt lat="46.06425079955163" lon="13.098262496829014"><ele>103.0</ele><time>2026-04-25T06:24:32.999Z</time></trkpt><trkpt lat="46.06435680901373" lon="13.097983570711204"><ele>103.0</ele><time>2026-04-25T06:24:33.999Z</time></trkpt><trkpt lat="46.064465731200706" lon="13.097706092099354"><ele>103.33333333333334</ele><time>2026-04-25T06:24:34.999Z</time></trkpt><trkpt lat="46.06457536407642" lon="13.097427556006659"><ele>103.66666666666666</ele><time>2026-04-25T06:24:35.999Z</time></trkpt><trkpt lat="46.06468723151716" lon="13.097148489507305"><ele>104.0</ele><time>2026-04-25T06:24:36.999Z</time></trkpt><trkpt lat="46.06479717077331" lon="13.096865280188377"><ele>104.0</ele><time>2026-04-25T06:24:37.999Z</time></trkpt><trkpt lat="46.06490947849451" lon="13.096581953232779"><ele>104.0</ele><time>2026-04-25T06:24:38.999Z</time></trkpt><trkpt lat="46.06502387628417" lon="13.096300627768674"><ele>104.0</ele><time>2026-04-25T06:24:39.999Z</time></trkpt><trkpt lat="46.06513577771216" lon="13.096023829981107"><ele>104.0</ele><time>2026-04-25T06:24:40.999Z</time></trkpt><trkpt lat="46.065246802802335" lon="13.095747089996141"><ele>104.0</ele><time>2026-04-25T06:24:41.999Z</time></trkpt><trkpt lat="46.06535327707851" lon="13.095470649363898"><ele>104.0</ele><time>2026-04-25T06:24:42.999Z</time></trkpt><trkpt lat="46.06545850810698" lon="13.095197578346246"><ele>104.0</ele><time>2026-04-25T06:24:43.999Z</time></trkpt><trkpt lat="46.06555786295026" lon="13.094926368340353"><ele>104.0</ele><time>2026-04-25T06:24:44.999Z</time></trkpt><trkpt lat="46.06564987485794" lon="13.094657820139219"><ele>103.66666666666666</ele><time>2026-04-25T06:24:45.999Z</time></trkpt><trkpt lat="46.06572431029567" lon="13.094389451183405"><ele>103.33333333333334</ele><time>2026-04-25T06:24:46.999Z</time></trkpt><trkpt lat="46.065764766614365" lon="13.094192457484928"><ele>103.0</ele><time>2026-04-25T06:24:47.999Z</time></trkpt><trkpt lat="46.065817152720655" lon="13.09396760374257"><ele>103.0</ele><time>2026-04-25T06:24:48.999Z</time></trkpt><trkpt lat="46.065872880917944" lon="13.093715938500416"><ele>103.0</ele><time>2026-04-25T06:24:49.999Z</time></trkpt><trkpt lat="46.065932208872766" lon="13.093450555500358"><ele>103.0</ele><time>2026-04-25T06:24:50.999Z</time></trkpt><trkpt lat="46.06599574515632" lon="13.093169550770956"><ele>103.0</ele><time>2026-04-25T06:24:51.999Z</time></trkpt><trkpt lat="46.0660627562355" lon="13.092880985778976"><ele>103.0</ele><time>2026-04-25T06:24:52.999Z</time></trkpt><trkpt lat="46.066132219234554" lon="13.092578362245332"><ele>103.0</ele><time>2026-04-25T06:24:53.999Z</time></trkpt><trkpt lat="46.06620077625182" lon="13.092268097603899"><ele>103.66666666666667</ele><time>2026-04-25T06:24:54.999Z</time></trkpt><trkpt lat="46.066269756350785" lon="13.091958494784244"><ele>104.33333333333334</ele><time>2026-04-25T06:24:55.999Z</time></trkpt><trkpt lat="46.06633898498059" lon="13.091654956483207"><ele>105.0</ele><time>2026-04-25T06:24:56.999Z</time></trkpt><trkpt lat="46.06640717718645" lon="13.091355230176376"><ele>105.0</ele><time>2026-04-25T06:24:57.999Z</time></trkpt><trkpt lat="46.06647662918437" lon="13.091060995870167"><ele>105.0</ele><time>2026-04-25T06:24:58.999Z</time></trkpt><trkpt lat="46.06654669671044" lon="13.090773838708657"><ele>105.0</ele><time>2026-04-25T06:24:59.999Z</time></trkpt><trkpt lat="46.06661267980094" lon="13.090488251694385"><ele>105.33333333333334</ele><time>2026-04-25T06:25:00.999Z</time></trkpt><trkpt lat="46.066674221867245" lon="13.090204925319068"><ele>105.66666666666667</ele><time>2026-04-25T06:25:01.999Z</time></trkpt><trkpt lat="46.06673585439461" lon="13.089930769483027"><ele>106.0</ele><time>2026-04-25T06:25:02.999Z</time></trkpt><trkpt lat="46.06679356278778" lon="13.089675343082614"><ele>105.33333333333334</ele><time>2026-04-25T06:25:03.999Z</time></trkpt><trkpt lat="46.06684261278273" lon="13.08944485960813"><ele>104.66666666666666</ele><time>2026-04-25T06:25:04.999Z</time></trkpt><trkpt lat="46.06688876994514" lon="13.08921846642414"><ele>104.0</ele><time>2026-04-25T06:25:05.999Z</time></trkpt><trkpt lat="46.06693767851633" lon="13.089002143801775"><ele>103.66666666666666</ele><time>2026-04-25T06:25:06.999Z</time></trkpt><trkpt lat="46.06699850924852" lon="13.088793396630626"><ele>103.33333333333334</ele><time>2026-04-25T06:25:07.999Z</time></trkpt><trkpt lat="46.06708703940332" lon="13.088603677851717"><ele>103.0</ele><time>2026-04-25T06:25:08.999Z</time></trkpt><trkpt lat="46.067202305778466" lon="13.088435891635465"><ele>103.0</ele><time>2026-04-25T06:25:09.999Z</time></trkpt><trkpt lat="46.067345788133274" lon="13.088292738767452"><ele>103.0</ele><time>2026-04-25T06:25:11Z</time></trkpt><trkpt lat="46.06750761465908" lon="13.08815768208438"><ele>103.0</ele><time>2026-04-25T06:25:12Z</time></trkpt><trkpt lat="46.067679027413995" lon="13.088016173838664"><ele>103.33333333333334</ele><time>2026-04-25T06:25:13Z</time></trkpt><trkpt lat="46.067855411234206" lon="13.087868165992568"><ele>103.66666666666666</ele><time>2026-04-25T06:25:14Z</time></trkpt><trkpt lat="46.068030609370616" lon="13.087719509092778"><ele>104.0</ele><time>2026-04-25T06:25:15Z</time></trkpt><trkpt lat="46.06819499822814" lon="13.087578195932155"><ele>104.33333333333333</ele><time>2026-04-25T06:25:16Z</time></trkpt><trkpt lat="46.06834243974562" lon="13.087452215046246"><ele>104.66666666666666</ele><time>2026-04-25T06:25:17Z</time></trkpt><trkpt lat="46.06847849429047" lon="13.087342989947343"><ele>105.0</ele><time>2026-04-25T06:25:18Z</time></trkpt><trkpt lat="46.06860522632634" lon="13.087239158393345"><ele>105.0</ele><time>2026-04-25T06:25:19Z</time></trkpt><trkpt lat="46.06870855302109" lon="13.08713886470072"><ele>105.0</ele><time>2026-04-25T06:25:20Z</time></trkpt><trkpt lat="46.06879082321954" lon="13.087023605773021"><ele>105.0</ele><time>2026-04-25T06:25:21Z</time></trkpt><trkpt lat="46.06884229839578" lon="13.086877990711448"><ele>105.0</ele><time>2026-04-25T06:25:22Z</time></trkpt><trkpt lat="46.068853365685165" lon="13.086711913894119"><ele>105.0</ele><time>2026-04-25T06:25:23Z</time></trkpt><trkpt lat="46.06882382440504" lon="13.08653487529347"><ele>105.0</ele><time>2026-04-25T06:25:24Z</time></trkpt><trkpt lat="46.06876249678842" lon="13.086344422798643"><ele>105.0</ele><time>2026-04-25T06:25:25Z</time></trkpt><trkpt lat="46.06869080085975" lon="13.086137488324892"><ele>105.0</ele><time>2026-04-25T06:25:26Z</time></trkpt><trkpt lat="46.06861261294695" lon="13.085910419646872"><ele>105.66666666666666</ele><time>2026-04-25T06:25:27Z</time></trkpt><trkpt lat="46.0685270422038" lon="13.085681076198627"><ele>106.33333333333333</ele><time>2026-04-25T06:25:28Z</time></trkpt><trkpt lat="46.068443955288" lon="13.08545275037911"><ele>107.0</ele><time>2026-04-25T06:25:29Z</time></trkpt><trkpt lat="46.06836739820229" lon="13.085225537468705"><ele>107.0</ele><time>2026-04-25T06:25:30Z</time></trkpt><trkpt lat="46.06829025918131" lon="13.085008099938864"><ele>107.0</ele><time>2026-04-25T06:25:31Z</time></trkpt><trkpt lat="46.06821562557083" lon="13.084795242106747"><ele>107.0</ele><time>2026-04-25T06:25:32Z</time></trkpt><trkpt lat="46.06814909951375" lon="13.084588304895545"><ele>107.0</ele><time>2026-04-25T06:25:33Z</time></trkpt><trkpt lat="46.068076277184964" lon="13.084392626485176"><ele>107.0</ele><time>2026-04-25T06:25:34Z</time></trkpt><trkpt lat="46.068020011497815" lon="13.084188054597897"><ele>107.0</ele><time>2026-04-25T06:25:35Z</time></trkpt><trkpt lat="46.06795141507569" lon="13.08399383972914"><ele>107.0</ele><time>2026-04-25T06:25:36Z</time></trkpt><trkpt lat="46.067883549229144" lon="13.08380169332286"><ele>107.0</ele><time>2026-04-25T06:25:37Z</time></trkpt><trkpt lat="46.067818201727064" lon="13.083616677001537"><ele>107.0</ele><time>2026-04-25T06:25:38Z</time></trkpt><trkpt lat="46.06776127262754" lon="13.083455495434322"><ele>107.0</ele><time>2026-04-25T06:25:39Z</time></trkpt><trkpt lat="46.0677078507539" lon="13.083297142329124"><ele>107.0</ele><time>2026-04-25T06:25:40Z</time></trkpt><trkpt lat="46.06764874730251" lon="13.083143164689453"><ele>106.99999999999999</ele><time>2026-04-25T06:25:41Z</time></trkpt><trkpt lat="46.067636250250764" lon="13.082977607731774"><ele>106.99999999999999</ele><time>2026-04-25T06:25:42Z</time></trkpt><trkpt lat="46.06762229734986" lon="13.082833747612867"><ele>107.0</ele><time>2026-04-25T06:25:43Z</time></trkpt><trkpt lat="46.067668800176484" lon="13.082715433235663"><ele>107.0</ele><time>2026-04-25T06:25:44Z</time></trkpt><trkpt lat="46.067690880009614" lon="13.082617645088092"><ele>107.0</ele><time>2026-04-25T06:25:45Z</time></trkpt><trkpt lat="46.06780484332624" lon="13.082540401520514"><ele>107.0</ele><time>2026-04-25T06:25:46.999Z</time></trkpt><trkpt lat="46.067888103510526" lon="13.082520088279411"><ele>107.0</ele><time>2026-04-25T06:25:47.999Z</time></trkpt><trkpt lat="46.067990932651234" lon="13.082477553272106"><ele>107.0</ele><time>2026-04-25T06:25:48.999Z</time></trkpt><trkpt lat="46.06812217330596" lon="13.08243443998682"><ele>107.0</ele><time>2026-04-25T06:25:49.999Z</time></trkpt><trkpt lat="46.068272357130375" lon="13.082369858580616"><ele>107.0</ele><time>2026-04-25T06:25:50.999Z</time></trkpt><trkpt lat="46.06843465324201" lon="13.082320031361107"><ele>107.0</ele><time>2026-04-25T06:25:51.999Z</time></trkpt><trkpt lat="46.06857553560486" lon="13.082257749821103"><ele>107.19999999999999</ele><time>2026-04-25T06:25:52.999Z</time></trkpt><trkpt lat="46.06869759174158" lon="13.082207267111567"><ele>107.39999999999999</ele><time>2026-04-25T06:25:53.999Z</time></trkpt><trkpt lat="46.06880608740717" lon="13.082175248735732"><ele>107.60000000000001</ele><time>2026-04-25T06:25:54.999Z</time></trkpt><trkpt lat="46.06890577035691" lon="13.082162049729495"><ele>107.80000000000001</ele><time>2026-04-25T06:25:55.999Z</time></trkpt><trkpt lat="46.06898946738144" lon="13.082168297916983"><ele>108.0</ele><time>2026-04-25T06:25:56.999Z</time></trkpt><trkpt lat="46.06905529290202" lon="13.082182075193773"><ele>108.0</ele><time>2026-04-25T06:25:57.999Z</time></trkpt><trkpt lat="46.06914322536128" lon="13.082199273190323"><ele>108.0</ele><time>2026-04-25T06:25:59.999Z</time></trkpt><trkpt lat="46.069198510807446" lon="13.08192729607041"><ele>108.0</ele><time>2026-04-25T06:26:00.999Z</time></trkpt><trkpt lat="46.06923082153104" lon="13.08178221642605"><ele>108.0</ele><time>2026-04-25T06:26:01.999Z</time></trkpt><trkpt lat="46.069303576785586" lon="13.081628228651285"><ele>108.0</ele><time>2026-04-25T06:26:02.999Z</time></trkpt><trkpt lat="46.06937964063836" lon="13.081439065274306"><ele>108.0</ele><time>2026-04-25T06:26:03.999Z</time></trkpt><trkpt lat="46.069482356116545" lon="13.0812515714597"><ele>108.0</ele><time>2026-04-25T06:26:04.999Z</time></trkpt><trkpt lat="46.06961429218329" lon="13.081078774089123"><ele>108.0</ele><time>2026-04-25T06:26:05.999Z</time></trkpt><trkpt lat="46.06977296773716" lon="13.080924485659054"><ele>108.0</ele><time>2026-04-25T06:26:06.999Z</time></trkpt><trkpt lat="46.069951827227015" lon="13.080791254858896"><ele>108.0</ele><time>2026-04-25T06:26:07.999Z</time></trkpt><trkpt lat="46.070136078293594" lon="13.080645308250947"><ele>108.33333333333334</ele><time>2026-04-25T06:26:08.999Z</time></trkpt><trkpt lat="46.070337694874645" lon="13.080519859722596"><ele>108.66666666666667</ele><time>2026-04-25T06:26:09.999Z</time></trkpt><trkpt lat="46.07054431459545" lon="13.080387302075485"><ele>109.0</ele><time>2026-04-25T06:26:10.999Z</time></trkpt><trkpt lat="46.07075218749919" lon="13.080250048690237"><ele>109.0</ele><time>2026-04-25T06:26:11.999Z</time></trkpt><trkpt lat="46.070959330470586" lon="13.080112309261942"><ele>109.0</ele><time>2026-04-25T06:26:12.999Z</time></trkpt><trkpt lat="46.071165062481626" lon="13.07997607523247"><ele>108.66666666666667</ele><time>2026-04-25T06:26:13.999Z</time></trkpt><trkpt lat="46.07136914696645" lon="13.079840069295553"><ele>108.33333333333334</ele><time>2026-04-25T06:26:14.999Z</time></trkpt><trkpt lat="46.071573428264564" lon="13.079731905738212"><ele>108.0</ele><time>2026-04-25T06:26:15.999Z</time></trkpt><trkpt lat="46.07176840114024" lon="13.0796049442543"><ele>109.33333333333334</ele><time>2026-04-25T06:26:16.999Z</time></trkpt><trkpt lat="46.071956854328164" lon="13.079475501968203"><ele>110.66666666666667</ele><time>2026-04-25T06:26:17.999Z</time></trkpt><trkpt lat="46.07214143834082" lon="13.079341459665871"><ele>112.0</ele><time>2026-04-25T06:26:18.999Z</time></trkpt><trkpt lat="46.07231046365574" lon="13.079178936167526"><ele>112.0</ele><time>2026-04-25T06:26:19.999Z</time></trkpt><trkpt lat="46.072479901805465" lon="13.079032538476875"><ele>112.0</ele><time>2026-04-25T06:26:20.999Z</time></trkpt><trkpt lat="46.07264988600932" lon="13.078902383956718"><ele>112.0</ele><time>2026-04-25T06:26:21.999Z</time></trkpt><trkpt lat="46.072808338034335" lon="13.078754546705817"><ele>112.0</ele><time>2026-04-25T06:26:22.999Z</time></trkpt><trkpt lat="46.07296582268424" lon="13.07860331686894"><ele>112.0</ele><time>2026-04-25T06:26:23.999Z</time></trkpt><trkpt lat="46.073121304587076" lon="13.07845757072738"><ele>112.0</ele><time>2026-04-25T06:26:24.999Z</time></trkpt><trkpt lat="46.073269546528316" lon="13.078329826611974"><ele>112.0</ele><time>2026-04-25T06:26:25.999Z</time></trkpt><trkpt lat="46.073413948822235" lon="13.078211111407086"><ele>112.0</ele><time>2026-04-25T06:26:26.999Z</time></trkpt><trkpt lat="46.073560732899544" lon="13.078097986997802"><ele>112.0</ele><time>2026-04-25T06:26:27.999Z</time></trkpt><trkpt lat="46.073712213507584" lon="13.07798976238914"><ele>112.0</ele><time>2026-04-25T06:26:28.999Z</time></trkpt><trkpt lat="46.07387135263136" lon="13.077878440906884"><ele>112.0</ele><time>2026-04-25T06:26:29.999Z</time></trkpt><trkpt lat="46.07403791706985" lon="13.077761694463966"><ele>112.0</ele><time>2026-04-25T06:26:30.999Z</time></trkpt><trkpt lat="46.074211391350005" lon="13.077639204709284"><ele>112.0</ele><time>2026-04-25T06:26:31.999Z</time></trkpt><trkpt lat="46.07439437211673" lon="13.077510002468001"><ele>112.0</ele><time>2026-04-25T06:26:32.999Z</time></trkpt><trkpt lat="46.07458466410561" lon="13.077375637796028"><ele>112.0</ele><time>2026-04-25T06:26:33.999Z</time></trkpt><trkpt lat="46.074781632620365" lon="13.077238519108413"><ele>112.0</ele><time>2026-04-25T06:26:34.999Z</time></trkpt><trkpt lat="46.074985583206455" lon="13.077100654604157"><ele>112.0</ele><time>2026-04-25T06:26:35.999Z</time></trkpt><trkpt lat="46.07519015823489" lon="13.076943112544337"><ele>112.0</ele><time>2026-04-25T06:26:36.999Z</time></trkpt><trkpt lat="46.07541067308547" lon="13.07681303051504"><ele>112.0</ele><time>2026-04-25T06:26:37.999Z</time></trkpt><trkpt lat="46.07564542036302" lon="13.076715643709752"><ele>112.0</ele><time>2026-04-25T06:26:38.999Z</time></trkpt><trkpt lat="46.075875818611884" lon="13.076575217112346"><ele>112.0</ele><time>2026-04-25T06:26:39.999Z</time></trkpt><trkpt lat="46.07611530461564" lon="13.07644633017305"><ele>112.0</ele><time>2026-04-25T06:26:40.999Z</time></trkpt><trkpt lat="46.07636504038616" lon="13.076340473036138"><ele>112.0</ele><time>2026-04-25T06:26:41.999Z</time></trkpt><trkpt lat="46.07661407469856" lon="13.076210926713827"><ele>112.5</ele><time>2026-04-25T06:26:42.999Z</time></trkpt><trkpt lat="46.07686758095562" lon="13.076081180734949"><ele>113.0</ele><time>2026-04-25T06:26:43.999Z</time></trkpt><trkpt lat="46.07712140299748" lon="13.075951273138378"><ele>113.0</ele><time>2026-04-25T06:26:44.999Z</time></trkpt><trkpt lat="46.07737229580954" lon="13.075822864739488"><ele>113.0</ele><time>2026-04-25T06:26:45.999Z</time></trkpt><trkpt lat="46.077616729359754" lon="13.075697762147353"><ele>113.5</ele><time>2026-04-25T06:26:46.999Z</time></trkpt><trkpt lat="46.07785615039429" lon="13.075573950455317"><ele>114.0</ele><time>2026-04-25T06:26:47.999Z</time></trkpt><trkpt lat="46.07808995934789" lon="13.075452945735274"><ele>115.0</ele><time>2026-04-25T06:26:48.999Z</time></trkpt><trkpt lat="46.07831134941012" lon="13.07533836933527"><ele>116.0</ele><time>2026-04-25T06:26:49.999Z</time></trkpt><trkpt lat="46.07851498632661" lon="13.075234399206808"><ele>116.0</ele><time>2026-04-25T06:26:50.999Z</time></trkpt><trkpt lat="46.07869469234696" lon="13.075146761276095"><ele>116.0</ele><time>2026-04-25T06:26:51.999Z</time></trkpt><trkpt lat="46.07886556790533" lon="13.075068266800265"><ele>116.0</ele><time>2026-04-25T06:26:52.999Z</time></trkpt><trkpt lat="46.07905845457401" lon="13.075046602340315"><ele>116.0</ele><time>2026-04-25T06:26:53.999Z</time></trkpt><trkpt lat="46.079255227690446" lon="13.07509527666445"><ele>116.0</ele><time>2026-04-25T06:26:54.999Z</time></trkpt><trkpt lat="46.07946019161839" lon="13.075124862932983"><ele>116.0</ele><time>2026-04-25T06:26:55.999Z</time></trkpt><trkpt lat="46.07967514860289" lon="13.075172307454466"><ele>116.0</ele><time>2026-04-25T06:26:56.999Z</time></trkpt><trkpt lat="46.079896681652905" lon="13.075220726613917"><ele>116.0</ele><time>2026-04-25T06:26:57.999Z</time></trkpt><trkpt lat="46.080114332574155" lon="13.075267374276889"><ele>116.0</ele><time>2026-04-25T06:26:58.999Z</time></trkpt><trkpt lat="46.08031010235074" lon="13.075311312497119"><ele>116.33333333333333</ele><time>2026-04-25T06:26:59.999Z</time></trkpt><trkpt lat="46.080497903296816" lon="13.075356085434882"><ele>116.66666666666666</ele><time>2026-04-25T06:27:00.999Z</time></trkpt><trkpt lat="46.08067941754081" lon="13.075397877100494"><ele>117.0</ele><time>2026-04-25T06:27:01.999Z</time></trkpt><trkpt lat="46.080850208652535" lon="13.075437805810049"><ele>117.33333333333334</ele><time>2026-04-25T06:27:02.999Z</time></trkpt><trkpt lat="46.081012385643426" lon="13.07547694050194"><ele>117.66666666666667</ele><time>2026-04-25T06:27:03.999Z</time></trkpt><trkpt lat="46.081162946926" lon="13.075511202009425"><ele>118.0</ele><time>2026-04-25T06:27:04.999Z</time></trkpt><trkpt lat="46.08129846364206" lon="13.075540362690528"><ele>118.0</ele><time>2026-04-25T06:27:05.999Z</time></trkpt><trkpt lat="46.08142056358586" lon="13.075555381705813"><ele>118.0</ele><time>2026-04-25T06:27:06.999Z</time></trkpt><trkpt lat="46.081547455910545" lon="13.07554430010121"><ele>118.0</ele><time>2026-04-25T06:27:07.999Z</time></trkpt><trkpt lat="46.081673128881356" lon="13.075488937184101"><ele>118.0</ele><time>2026-04-25T06:27:08.999Z</time></trkpt><trkpt lat="46.08178610754255" lon="13.075385852912259"><ele>118.25</ele><time>2026-04-25T06:27:09.999Z</time></trkpt><trkpt lat="46.08188717307353" lon="13.075247873314233"><ele>118.5</ele><time>2026-04-25T06:27:10.999Z</time></trkpt><trkpt lat="46.081968297030954" lon="13.075073652847426"><ele>118.75</ele><time>2026-04-25T06:27:11.999Z</time></trkpt><trkpt lat="46.08201544419343" lon="13.074857090946162"><ele>119.0</ele><time>2026-04-25T06:27:12.999Z</time></trkpt><trkpt lat="46.082039535542705" lon="13.074611326979513"><ele>119.0</ele><time>2026-04-25T06:27:13.999Z</time></trkpt><trkpt lat="46.08206735436771" lon="13.074355440004117"><ele>119.0</ele><time>2026-04-25T06:27:14.999Z</time></trkpt><trkpt lat="46.082104899857484" lon="13.074091729043962"><ele>119.0</ele><time>2026-04-25T06:27:15.999Z</time></trkpt><trkpt lat="46.08214243196866" lon="13.073815049519682"><ele>119.0</ele><time>2026-04-25T06:27:17Z</time></trkpt><trkpt lat="46.08218304613355" lon="13.073551245662461"><ele>119.0</ele><time>2026-04-25T06:27:18Z</time></trkpt><trkpt lat="46.08223595745918" lon="13.073297291925828"><ele>119.0</ele><time>2026-04-25T06:27:19Z</time></trkpt><trkpt lat="46.08230434788237" lon="13.073054439770065"><ele>119.0</ele><time>2026-04-25T06:27:20Z</time></trkpt><trkpt lat="46.08236922299827" lon="13.072839068820974"><ele>119.0</ele><time>2026-04-25T06:27:21Z</time></trkpt><trkpt lat="46.082432279904324" lon="13.072646343748268"><ele>119.0</ele><time>2026-04-25T06:27:22Z</time></trkpt><trkpt lat="46.08251428429183" lon="13.072471254603155"><ele>119.0</ele><time>2026-04-25T06:27:23Z</time></trkpt><trkpt lat="46.08261962889391" lon="13.072309987699697"><ele>119.0</ele><time>2026-04-25T06:27:24Z</time></trkpt><trkpt lat="46.08274346335495" lon="13.072161046211571"><ele>119.0</ele><time>2026-04-25T06:27:25Z</time></trkpt><trkpt lat="46.08288027090931" lon="13.072022045479398"><ele>119.0</ele><time>2026-04-25T06:27:26Z</time></trkpt><trkpt lat="46.08302491598885" lon="13.071883108041977"><ele>119.0</ele><time>2026-04-25T06:27:27Z</time></trkpt><trkpt lat="46.08317173758475" lon="13.071742078817676"><ele>119.0</ele><time>2026-04-25T06:27:28Z</time></trkpt><trkpt lat="46.08332605125421" lon="13.071598539263377"><ele>120.33333333333333</ele><time>2026-04-25T06:27:29Z</time></trkpt><trkpt lat="46.08348581431896" lon="13.071449006442666"><ele>121.66666666666666</ele><time>2026-04-25T06:27:30Z</time></trkpt><trkpt lat="46.08364986067594" lon="13.071294107555625"><ele>123.0</ele><time>2026-04-25T06:27:31Z</time></trkpt><trkpt lat="46.08381599817437" lon="13.071135325708426"><ele>123.0</ele><time>2026-04-25T06:27:32Z</time></trkpt><trkpt lat="46.08398234705542" lon="13.070978482579267"><ele>123.0</ele><time>2026-04-25T06:27:33Z</time></trkpt><trkpt lat="46.08414778785946" lon="13.070822317495328"><ele>123.0</ele><time>2026-04-25T06:27:34Z</time></trkpt><trkpt lat="46.084306973112874" lon="13.070667790868171"><ele>123.0</ele><time>2026-04-25T06:27:35Z</time></trkpt><trkpt lat="46.08445218586474" lon="13.070529499247717"><ele>123.0</ele><time>2026-04-25T06:27:36Z</time></trkpt><trkpt lat="46.08458225749581" lon="13.07040611769538"><ele>123.0</ele><time>2026-04-25T06:27:37Z</time></trkpt><trkpt lat="46.084704068742354" lon="13.070295002542197"><ele>123.0</ele><time>2026-04-25T06:27:38Z</time></trkpt><trkpt lat="46.0848300214104" lon="13.07020024938531"><ele>123.0</ele><time>2026-04-25T06:27:39Z</time></trkpt><trkpt lat="46.08496123457467" lon="13.070126925183388"><ele>123.0</ele><time>2026-04-25T06:27:40Z</time></trkpt><trkpt lat="46.085098715578525" lon="13.070080817944534"><ele>123.0</ele><time>2026-04-25T06:27:41Z</time></trkpt><trkpt lat="46.08524656774611" lon="13.070060973934371"><ele>123.5</ele><time>2026-04-25T06:27:42Z</time></trkpt><trkpt lat="46.0853959332415" lon="13.070060176137131"><ele>124.0</ele><time>2026-04-25T06:27:43Z</time></trkpt><trkpt lat="46.0855411349546" lon="13.07005599099528"><ele>124.5</ele><time>2026-04-25T06:27:44Z</time></trkpt><trkpt lat="46.08567334833429" lon="13.070050447987832"><ele>125.0</ele><time>2026-04-25T06:27:45Z</time></trkpt><trkpt lat="46.085790235759525" lon="13.070047634246544"><ele>125.16666666666666</ele><time>2026-04-25T06:27:46Z</time></trkpt><trkpt lat="46.08588861051369" lon="13.0700437957356"><ele>125.33333333333333</ele><time>2026-04-25T06:27:47Z</time></trkpt><trkpt lat="46.085963854849304" lon="13.070041409265933"><ele>125.5</ele><time>2026-04-25T06:27:48Z</time></trkpt><trkpt lat="46.08603334289879" lon="13.070044975342874"><ele>125.66666666666666</ele><time>2026-04-25T06:27:50Z</time></trkpt><trkpt lat="46.08611665901746" lon="13.070023431613759"><ele>125.83333333333333</ele><time>2026-04-25T06:28:54.999Z</time></trkpt><trkpt lat="46.08622979637837" lon="13.0700052758203"><ele>126.0</ele><time>2026-04-25T06:28:56.999Z</time></trkpt><trkpt lat="46.08631907846932" lon="13.069988280379889"><ele>126.0</ele><time>2026-04-25T06:28:57.999Z</time></trkpt><trkpt lat="46.08642797670243" lon="13.069967703978103"><ele>126.0</ele><time>2026-04-25T06:28:58.999Z</time></trkpt><trkpt lat="46.08654409045644" lon="13.06993495752417"><ele>126.0</ele><time>2026-04-25T06:28:59.999Z</time></trkpt><trkpt lat="46.08666867582497" lon="13.069892708578355"><ele>126.0</ele><time>2026-04-25T06:29:00.999Z</time></trkpt><trkpt lat="46.08679955457266" lon="13.069847469557908"><ele>126.25</ele><time>2026-04-25T06:29:01.999Z</time></trkpt><trkpt lat="46.086931960009665" lon="13.069796870983936"><ele>126.5</ele><time>2026-04-25T06:29:02.999Z</time></trkpt><trkpt lat="46.087061729529545" lon="13.069739525874786"><ele>126.75</ele><time>2026-04-25T06:29:03.999Z</time></trkpt><trkpt lat="46.08718180264999" lon="13.069686776568561"><ele>127.0</ele><time>2026-04-25T06:29:04.999Z</time></trkpt><trkpt lat="46.08728780789065" lon="13.069641378280073"><ele>127.00000000000001</ele><time>2026-04-25T06:29:05.999Z</time></trkpt><trkpt lat="46.0873856713671" lon="13.06960133894719"><ele>127.0</ele><time>2026-04-25T06:29:06.999Z</time></trkpt><trkpt lat="46.08747426891026" lon="13.069563533937474"><ele>127.0</ele><time>2026-04-25T06:29:07.999Z</time></trkpt><trkpt lat="46.087557292517346" lon="13.069527530765438"><ele>127.0</ele><time>2026-04-25T06:29:08.999Z</time></trkpt><trkpt lat="46.08763420874476" lon="13.069496580691048"><ele>127.00000000000001</ele><time>2026-04-25T06:29:09.999Z</time></trkpt><trkpt lat="46.087704946651606" lon="13.06946589254511"><ele>127.0</ele><time>2026-04-25T06:29:10.999Z</time></trkpt><trkpt lat="46.087777908578374" lon="13.069440023407195"><ele>127.19999999999999</ele><time>2026-04-25T06:29:11.999Z</time></trkpt><trkpt lat="46.08785593110916" lon="13.06941592697435"><ele>127.39999999999999</ele><time>2026-04-25T06:29:12.999Z</time></trkpt><trkpt lat="46.08794836571735" lon="13.069375735821138"><ele>127.60000000000001</ele><time>2026-04-25T06:29:13.999Z</time></trkpt><trkpt lat="46.08804738000022" lon="13.069337591411584"><ele>127.80000000000001</ele><time>2026-04-25T06:29:14.999Z</time></trkpt><trkpt lat="46.088147791653746" lon="13.069295470014103"><ele>128.0</ele><time>2026-04-25T06:29:15.999Z</time></trkpt><trkpt lat="46.08824769262129" lon="13.06925208398333"><ele>128.25</ele><time>2026-04-25T06:29:16.999Z</time></trkpt><trkpt lat="46.088350182351036" lon="13.069205142618825"><ele>128.5</ele><time>2026-04-25T06:29:17.999Z</time></trkpt><trkpt lat="46.088459767486626" lon="13.069161688120332"><ele>128.75</ele><time>2026-04-25T06:29:18.999Z</time></trkpt><trkpt lat="46.08857647978334" lon="13.069140997155298"><ele>129.0</ele><time>2026-04-25T06:29:19.999Z</time></trkpt><trkpt lat="46.088690306840626" lon="13.069071137975532"><ele>129.0</ele><time>2026-04-25T06:29:20.999Z</time></trkpt><trkpt lat="46.088810069682815" lon="13.06902459030798"><ele>129.0</ele><time>2026-04-25T06:29:21.999Z</time></trkpt><trkpt lat="46.08893281933374" lon="13.068978597154677"><ele>129.0</ele><time>2026-04-25T06:29:23Z</time></trkpt><trkpt lat="46.08905418992052" lon="13.068929972451782"><ele>129.0</ele><time>2026-04-25T06:29:24Z</time></trkpt><trkpt lat="46.089176874421895" lon="13.068879476719253"><ele>129.25</ele><time>2026-04-25T06:29:25Z</time></trkpt><trkpt lat="46.08929886957229" lon="13.06882803040615"><ele>129.5</ele><time>2026-04-25T06:29:26Z</time></trkpt><trkpt lat="46.08942126314052" lon="13.068776516104826"><ele>129.75</ele><time>2026-04-25T06:29:27Z</time></trkpt><trkpt lat="46.089537675225806" lon="13.068722060591925"><ele>130.0</ele><time>2026-04-25T06:29:28Z</time></trkpt><trkpt lat="46.08965312684755" lon="13.068663561407039"><ele>130.0</ele><time>2026-04-25T06:29:29Z</time></trkpt><trkpt lat="46.089767444163954" lon="13.068599519922428"><ele>130.0</ele><time>2026-04-25T06:29:30Z</time></trkpt><trkpt lat="46.08987546893952" lon="13.068529580841059"><ele>130.0</ele><time>2026-04-25T06:29:31Z</time></trkpt><trkpt lat="46.089973785143314" lon="13.068471275915424"><ele>130.0</ele><time>2026-04-25T06:29:32Z</time></trkpt><trkpt lat="46.09005268786146" lon="13.068422399627224"><ele>130.0</ele><time>2026-04-25T06:29:33Z</time></trkpt><trkpt lat="46.0901311363392" lon="13.068375696447806"><ele>130.4</ele><time>2026-04-25T06:29:34Z</time></trkpt><trkpt lat="46.090217051023956" lon="13.06832897395649"><ele>130.8</ele><time>2026-04-25T06:29:35Z</time></trkpt><trkpt lat="46.09031067324035" lon="13.06827403576465"><ele>131.2</ele><time>2026-04-25T06:29:36Z</time></trkpt><trkpt lat="46.09041493768109" lon="13.068214365326527"><ele>131.6</ele><time>2026-04-25T06:29:37Z</time></trkpt><trkpt lat="46.090530680253146" lon="13.068166008209822"><ele>132.0</ele><time>2026-04-25T06:29:38Z</time></trkpt><trkpt lat="46.09064439684249" lon="13.068091982785573"><ele>132.0</ele><time>2026-04-25T06:29:39Z</time></trkpt><trkpt lat="46.09074644032552" lon="13.06799335060555"><ele>132.0</ele><time>2026-04-25T06:29:40Z</time></trkpt><trkpt lat="46.090858886410984" lon="13.06792118794675"><ele>132.0</ele><time>2026-04-25T06:29:41Z</time></trkpt><trkpt lat="46.0909511516827" lon="13.067816946998205"><ele>132.0</ele><time>2026-04-25T06:29:42Z</time></trkpt><trkpt lat="46.09102299766158" lon="13.06770265160676"><ele>132.0</ele><time>2026-04-25T06:29:43Z</time></trkpt><trkpt lat="46.091073144925254" lon="13.067596991949406"><ele>132.0</ele><time>2026-04-25T06:29:44Z</time></trkpt><trkpt lat="46.09110715907618" lon="13.067511706838552"><ele>132.0</ele><time>2026-04-25T06:29:45Z</time></trkpt><trkpt lat="46.091137942058516" lon="13.067432412564594"><ele>132.0</ele><time>2026-04-25T06:29:47Z</time></trkpt><trkpt lat="46.091168739216" lon="13.067346203123632"><ele>132.0</ele><time>2026-04-25T06:29:54Z</time></trkpt><trkpt lat="46.091064624848634" lon="13.067230729472659"><ele>132.0</ele><time>2026-04-25T06:29:54.999Z</time></trkpt><trkpt lat="46.09099470972479" lon="13.067161848075637"><ele>131.75</ele><time>2026-04-25T06:29:55.999Z</time></trkpt><trkpt lat="46.09091547971166" lon="13.067075198916962"><ele>131.5</ele><time>2026-04-25T06:29:56.999Z</time></trkpt><trkpt lat="46.09082144415669" lon="13.066976534775124"><ele>131.25</ele><time>2026-04-25T06:29:57.999Z</time></trkpt><trkpt lat="46.090716581547014" lon="13.066869289270784"><ele>131.0</ele><time>2026-04-25T06:29:58.999Z</time></trkpt><trkpt lat="46.090615708483185" lon="13.066763012475212"><ele>130.75</ele><time>2026-04-25T06:29:59.999Z</time></trkpt><trkpt lat="46.090518688198166" lon="13.066646233358297"><ele>130.5</ele><time>2026-04-25T06:30:00.999Z</time></trkpt><trkpt lat="46.09042926605924" lon="13.066515282763111"><ele>130.25</ele><time>2026-04-25T06:30:01.999Z</time></trkpt><trkpt lat="46.09034590537743" lon="13.066374695148268"><ele>130.0</ele><time>2026-04-25T06:30:02.999Z</time></trkpt><trkpt lat="46.09028014048943" lon="13.066215432139144"><ele>130.0</ele><time>2026-04-25T06:30:03.999Z</time></trkpt><trkpt lat="46.0902279006136" lon="13.066046597105228"><ele>130.0</ele><time>2026-04-25T06:30:04.999Z</time></trkpt><trkpt lat="46.090189708745896" lon="13.065863649267158"><ele>130.0</ele><time>2026-04-25T06:30:05.999Z</time></trkpt><trkpt lat="46.0901484620687" lon="13.065664275416713"><ele>130.0</ele><time>2026-04-25T06:30:06.999Z</time></trkpt><trkpt lat="46.09010372994532" lon="13.065462527583803"><ele>130.0</ele><time>2026-04-25T06:30:07.999Z</time></trkpt><trkpt lat="46.09005664956674" lon="13.065245643946115"><ele>130.0</ele><time>2026-04-25T06:30:08.999Z</time></trkpt><trkpt lat="46.090006031153614" lon="13.065022111634143"><ele>130.0</ele><time>2026-04-25T06:30:09.999Z</time></trkpt><trkpt lat="46.08996955953154" lon="13.064782270937885"><ele>130.0</ele><time>2026-04-25T06:30:10.999Z</time></trkpt><trkpt lat="46.08990343572564" lon="13.064551407965348"><ele>130.0</ele><time>2026-04-25T06:30:11.999Z</time></trkpt><trkpt lat="46.089854259373716" lon="13.064307542351607"><ele>130.0</ele><time>2026-04-25T06:30:12.999Z</time></trkpt><trkpt lat="46.089802171945344" lon="13.064061055254056"><ele>130.0</ele><time>2026-04-25T06:30:13.999Z</time></trkpt><trkpt lat="46.089749604256056" lon="13.063813954918382"><ele>130.0</ele><time>2026-04-25T06:30:14.999Z</time></trkpt><trkpt lat="46.08969539425037" lon="13.063567692309945"><ele>130.0</ele><time>2026-04-25T06:30:15.999Z</time></trkpt><trkpt lat="46.08964002110922" lon="13.06332594809804"><ele>130.0</ele><time>2026-04-25T06:30:16.999Z</time></trkpt><trkpt lat="46.08958893136774" lon="13.063088915341922"><ele>130.0</ele><time>2026-04-25T06:30:17.999Z</time></trkpt><trkpt lat="46.08954225371783" lon="13.062856060540154"><ele>130.0</ele><time>2026-04-25T06:30:18.999Z</time></trkpt><trkpt lat="46.08949067857041" lon="13.062623413474794"><ele>129.66666666666669</ele><time>2026-04-25T06:30:19.999Z</time></trkpt><trkpt lat="46.08943639169586" lon="13.062390606647948"><ele>129.33333333333334</ele><time>2026-04-25T06:30:20.999Z</time></trkpt><trkpt lat="46.08938616557209" lon="13.062154785251503"><ele>129.0</ele><time>2026-04-25T06:30:21.999Z</time></trkpt><trkpt lat="46.08933512338575" lon="13.061920103963088"><ele>129.0</ele><time>2026-04-25T06:30:22.999Z</time></trkpt><trkpt lat="46.089282435167846" lon="13.06168791939756"><ele>129.0</ele><time>2026-04-25T06:30:23.999Z</time></trkpt><trkpt lat="46.08922999575655" lon="13.061454505946381"><ele>129.0</ele><time>2026-04-25T06:30:24.999Z</time></trkpt><trkpt lat="46.08917634761127" lon="13.061219210512265"><ele>129.0</ele><time>2026-04-25T06:30:25.999Z</time></trkpt><trkpt lat="46.0891227693397" lon="13.060980306828494"><ele>129.0</ele><time>2026-04-25T06:30:26.999Z</time></trkpt><trkpt lat="46.089067518613646" lon="13.060737033270485"><ele>129.0</ele><time>2026-04-25T06:30:27.999Z</time></trkpt><trkpt lat="46.08901442094758" lon="13.060491120800403"><ele>128.0</ele><time>2026-04-25T06:30:28.999Z</time></trkpt><trkpt lat="46.08895946473256" lon="13.06024324885617"><ele>127.0</ele><time>2026-04-25T06:30:29.999Z</time></trkpt><trkpt lat="46.08890244584413" lon="13.059993816623603"><ele>126.0</ele><time>2026-04-25T06:30:30.999Z</time></trkpt><trkpt lat="46.08884444620273" lon="13.059743983413052"><ele>126.0</ele><time>2026-04-25T06:30:31.999Z</time></trkpt><trkpt lat="46.08878770640452" lon="13.059493007422939"><ele>126.0</ele><time>2026-04-25T06:30:32.999Z</time></trkpt><trkpt lat="46.08873002059925" lon="13.059243961601423"><ele>126.0</ele><time>2026-04-25T06:30:33.999Z</time></trkpt><trkpt lat="46.08868996544666" lon="13.05898952864412"><ele>125.66666666666666</ele><time>2026-04-25T06:30:34.999Z</time></trkpt><trkpt lat="46.088635289405474" lon="13.05874252397925"><ele>125.33333333333333</ele><time>2026-04-25T06:30:35.999Z</time></trkpt><trkpt lat="46.08857911404998" lon="13.058496082326503"><ele>125.0</ele><time>2026-04-25T06:30:36.999Z</time></trkpt><trkpt lat="46.08852225325232" lon="13.058247415805837"><ele>125.66666666666666</ele><time>2026-04-25T06:30:37.999Z</time></trkpt><trkpt lat="46.088451215766426" lon="13.05800551538097"><ele>126.33333333333334</ele><time>2026-04-25T06:30:38.999Z</time></trkpt><trkpt lat="46.08839465580021" lon="13.057757032153344"><ele>127.0</ele><time>2026-04-25T06:30:39.999Z</time></trkpt><trkpt lat="46.08835584739314" lon="13.057499153075597"><ele>127.0</ele><time>2026-04-25T06:30:40.999Z</time></trkpt><trkpt lat="46.08830222899083" lon="13.057250342436461"><ele>127.0</ele><time>2026-04-25T06:30:41.999Z</time></trkpt><trkpt lat="46.08824731785955" lon="13.05699783391145"><ele>127.0</ele><time>2026-04-25T06:30:42.999Z</time></trkpt><trkpt lat="46.08817805479442" lon="13.05675024186696"><ele>127.0</ele><time>2026-04-25T06:30:43.999Z</time></trkpt><trkpt lat="46.08812774676423" lon="13.056491189071894"><ele>127.0</ele><time>2026-04-25T06:30:44.999Z</time></trkpt><trkpt lat="46.0880865337126" lon="13.056228839974937"><ele>127.0</ele><time>2026-04-25T06:30:45.999Z</time></trkpt><trkpt lat="46.088053726175005" lon="13.055961588970543"><ele>126.66666666666667</ele><time>2026-04-25T06:30:46.999Z</time></trkpt><trkpt lat="46.08802754939393" lon="13.055690923016122"><ele>126.33333333333334</ele><time>2026-04-25T06:30:47.999Z</time></trkpt><trkpt lat="46.08801164154344" lon="13.055412033104114"><ele>126.0</ele><time>2026-04-25T06:30:48.999Z</time></trkpt><trkpt lat="46.088001860479274" lon="13.055127810068948"><ele>125.66666666666666</ele><time>2026-04-25T06:30:49.999Z</time></trkpt><trkpt lat="46.08800087925288" lon="13.054840566505474"><ele>125.33333333333333</ele><time>2026-04-25T06:30:50.999Z</time></trkpt><trkpt lat="46.08802965464167" lon="13.054551196002523"><ele>125.0</ele><time>2026-04-25T06:30:51.999Z</time></trkpt><trkpt lat="46.08804850325495" lon="13.054260682814427"><ele>125.33333333333333</ele><time>2026-04-25T06:30:52.999Z</time></trkpt><trkpt lat="46.08807403263125" lon="13.053968909534579"><ele>125.66666666666666</ele><time>2026-04-25T06:30:53.999Z</time></trkpt><trkpt lat="46.08810402241298" lon="13.053676448908577"><ele>126.0</ele><time>2026-04-25T06:30:54.999Z</time></trkpt><trkpt lat="46.088118983453064" lon="13.053376446417264"><ele>126.33333333333334</ele><time>2026-04-25T06:30:55.999Z</time></trkpt><trkpt lat="46.08815176266604" lon="13.053074949849867"><ele>126.66666666666667</ele><time>2026-04-25T06:30:56.999Z</time></trkpt><trkpt lat="46.08818182931057" lon="13.05276875386097"><ele>127.0</ele><time>2026-04-25T06:30:57.999Z</time></trkpt><trkpt lat="46.08821347093801" lon="13.052459273130024"><ele>127.0</ele><time>2026-04-25T06:30:58.999Z</time></trkpt><trkpt lat="46.0882461770687" lon="13.052146635888445"><ele>127.0</ele><time>2026-04-25T06:30:59.999Z</time></trkpt><trkpt lat="46.08827830862906" lon="13.051833869098333"><ele>127.0</ele><time>2026-04-25T06:31:00.999Z</time></trkpt><trkpt lat="46.088308343812734" lon="13.051526590763878"><ele>127.0</ele><time>2026-04-25T06:31:01.999Z</time></trkpt><trkpt lat="46.088337946036475" lon="13.051225084203276"><ele>127.0</ele><time>2026-04-25T06:31:02.999Z</time></trkpt><trkpt lat="46.08836804204009" lon="13.050926416761842"><ele>127.0</ele><time>2026-04-25T06:31:03.999Z</time></trkpt><trkpt lat="46.08839910484229" lon="13.050630668224573"><ele>127.33333333333334</ele><time>2026-04-25T06:31:04.999Z</time></trkpt><trkpt lat="46.088430034329875" lon="13.0503396765045"><ele>127.66666666666666</ele><time>2026-04-25T06:31:05.999Z</time></trkpt><trkpt lat="46.08845735863534" lon="13.050053111610016"><ele>128.0</ele><time>2026-04-25T06:31:06.999Z</time></trkpt><trkpt lat="46.088477022848664" lon="13.04977397503232"><ele>128.33333333333331</ele><time>2026-04-25T06:31:07.999Z</time></trkpt><trkpt lat="46.088486845974074" lon="13.049498163261585"><ele>128.66666666666666</ele><time>2026-04-25T06:31:08.999Z</time></trkpt><trkpt lat="46.088487293852445" lon="13.049229019495586"><ele>129.0</ele><time>2026-04-25T06:31:09.999Z</time></trkpt><trkpt lat="46.088497761377525" lon="13.048964592575569"><ele>128.66666666666666</ele><time>2026-04-25T06:31:10.999Z</time></trkpt><trkpt lat="46.088488035547705" lon="13.048701229607847"><ele>128.33333333333331</ele><time>2026-04-25T06:31:11.999Z</time></trkpt><trkpt lat="46.08846802256318" lon="13.048446784959802"><ele>128.0</ele><time>2026-04-25T06:31:12.999Z</time></trkpt><trkpt lat="46.08844570637891" lon="13.048206183414136"><ele>128.0</ele><time>2026-04-25T06:31:13.999Z</time></trkpt><trkpt lat="46.08841877690747" lon="13.047970495711358"><ele>128.0</ele><time>2026-04-25T06:31:14.999Z</time></trkpt><trkpt lat="46.08836791385626" lon="13.04774406629446"><ele>128.0</ele><time>2026-04-25T06:31:15.999Z</time></trkpt><trkpt lat="46.0883286495676" lon="13.047515200173837"><ele>128.0</ele><time>2026-04-25T06:31:16.999Z</time></trkpt><trkpt lat="46.088282882075376" lon="13.047289706137523"><ele>128.0</ele><time>2026-04-25T06:31:17.999Z</time></trkpt><trkpt lat="46.08823234562211" lon="13.04706361062065"><ele>128.0</ele><time>2026-04-25T06:31:18.999Z</time></trkpt><trkpt lat="46.088175154618014" lon="13.046840377948437"><ele>127.0</ele><time>2026-04-25T06:31:19.999Z</time></trkpt><trkpt lat="46.088110063481864" lon="13.046618306521644"><ele>126.0</ele><time>2026-04-25T06:31:20.999Z</time></trkpt><trkpt lat="46.088038837536295" lon="13.04639518589493"><ele>125.0</ele><time>2026-04-25T06:31:21.999Z</time></trkpt><trkpt lat="46.087965561267595" lon="13.04616989419289"><ele>125.0</ele><time>2026-04-25T06:31:22.999Z</time></trkpt><trkpt lat="46.08789026783848" lon="13.045945496134353"><ele>125.0</ele><time>2026-04-25T06:31:23.999Z</time></trkpt><trkpt lat="46.0878157872835" lon="13.04572109337637"><ele>125.0</ele><time>2026-04-25T06:31:24.999Z</time></trkpt><trkpt lat="46.08774239534435" lon="13.045492973918256"><ele>124.66666666666666</ele><time>2026-04-25T06:31:25.999Z</time></trkpt><trkpt lat="46.087666536440416" lon="13.045263094516393"><ele>124.33333333333334</ele><time>2026-04-25T06:31:26.999Z</time></trkpt><trkpt lat="46.0875897755177" lon="13.045030606990379"><ele>124.0</ele><time>2026-04-25T06:31:27.999Z</time></trkpt><trkpt lat="46.08751278465694" lon="13.044796235603197"><ele>124.0</ele><time>2026-04-25T06:31:29Z</time></trkpt><trkpt lat="46.08743358408596" lon="13.044560572931562"><ele>124.0</ele><time>2026-04-25T06:31:30Z</time></trkpt><trkpt lat="46.0873551114526" lon="13.044326154226713"><ele>124.0</ele><time>2026-04-25T06:31:31Z</time></trkpt><trkpt lat="46.08727912733453" lon="13.044092298938834"><ele>124.66666666666667</ele><time>2026-04-25T06:31:32Z</time></trkpt><trkpt lat="46.087203566036564" lon="13.043856103888395"><ele>125.33333333333334</ele><time>2026-04-25T06:31:33Z</time></trkpt><trkpt lat="46.08712918251845" lon="13.043620340569658"><ele>126.0</ele><time>2026-04-25T06:31:34Z</time></trkpt><trkpt lat="46.08705881504119" lon="13.043380889795282"><ele>125.66666666666666</ele><time>2026-04-25T06:31:35Z</time></trkpt><trkpt lat="46.08699613195394" lon="13.043132807369366"><ele>125.33333333333333</ele><time>2026-04-25T06:31:36Z</time></trkpt><trkpt lat="46.08693875214992" lon="13.042874203838394"><ele>125.0</ele><time>2026-04-25T06:31:37Z</time></trkpt><trkpt lat="46.08688464358024" lon="13.042607169031768"><ele>125.0</ele><time>2026-04-25T06:31:38Z</time></trkpt><trkpt lat="46.08683687390749" lon="13.042332589264905"><ele>125.0</ele><time>2026-04-25T06:31:39Z</time></trkpt><trkpt lat="46.08679238374362" lon="13.042049465359453"><ele>125.0</ele><time>2026-04-25T06:31:40Z</time></trkpt><trkpt lat="46.086749394339236" lon="13.041753992900723"><ele>124.66666666666666</ele><time>2026-04-25T06:31:41Z</time></trkpt><trkpt lat="46.086711166006374" lon="13.04144804021754"><ele>124.33333333333334</ele><time>2026-04-25T06:31:42Z</time></trkpt><trkpt lat="46.086676172324324" lon="13.041126481311515"><ele>124.0</ele><time>2026-04-25T06:31:43Z</time></trkpt><trkpt lat="46.08664073169015" lon="13.040789499293457"><ele>124.0</ele><time>2026-04-25T06:31:44Z</time></trkpt><trkpt lat="46.08660419071569" lon="13.040445652043894"><ele>124.0</ele><time>2026-04-25T06:31:45Z</time></trkpt><trkpt lat="46.086565134728716" lon="13.040095512071465"><ele>123.5</ele><time>2026-04-25T06:31:46Z</time></trkpt><trkpt lat="46.0865249470837" lon="13.039740234536088"><ele>123.0</ele><time>2026-04-25T06:31:47Z</time></trkpt><trkpt lat="46.08648680492953" lon="13.039376735535054"><ele>123.5</ele><time>2026-04-25T06:31:48Z</time></trkpt><trkpt lat="46.08644681270413" lon="13.03900861623697"><ele>124.0</ele><time>2026-04-25T06:31:49Z</time></trkpt><trkpt lat="46.08640670710911" lon="13.038636879111131"><ele>124.0</ele><time>2026-04-25T06:31:50Z</time></trkpt><trkpt lat="46.08636647998813" lon="13.03825978614431"><ele>124.0</ele><time>2026-04-25T06:31:51Z</time></trkpt><trkpt lat="46.08632624824538" lon="13.037883173276255"><ele>124.0</ele><time>2026-04-25T06:31:52Z</time></trkpt><trkpt lat="46.08628540305004" lon="13.037502782054364"><ele>124.0</ele><time>2026-04-25T06:31:53Z</time></trkpt><trkpt lat="46.08624532301878" lon="13.037120876203252"><ele>124.0</ele><time>2026-04-25T06:31:54Z</time></trkpt><trkpt lat="46.08620233733464" lon="13.036737899866472"><ele>124.0</ele><time>2026-04-25T06:31:55Z</time></trkpt><trkpt lat="46.086177049100854" lon="13.036352666312162"><ele>123.0</ele><time>2026-04-25T06:31:56Z</time></trkpt><trkpt lat="46.08612052554188" lon="13.03597989391945"><ele>122.0</ele><time>2026-04-25T06:31:56.999Z</time></trkpt><trkpt lat="46.086081467831626" lon="13.03560238586535"><ele>120.0</ele><time>2026-04-25T06:31:57.999Z</time></trkpt><trkpt lat="46.086040821098315" lon="13.035228521307534"><ele>118.0</ele><time>2026-04-25T06:31:58.999Z</time></trkpt><trkpt lat="46.08601785992691" lon="13.034857447639299"><ele>116.0</ele><time>2026-04-25T06:31:59.999Z</time></trkpt><trkpt lat="46.08597940269885" lon="13.034497067826901"><ele>114.0</ele><time>2026-04-25T06:32:00.999Z</time></trkpt><trkpt lat="46.085941564790176" lon="13.03414182691382"><ele>113.0</ele><time>2026-04-25T06:32:01.999Z</time></trkpt><trkpt lat="46.085903677587694" lon="13.033786326791478"><ele>112.0</ele><time>2026-04-25T06:32:02.999Z</time></trkpt><trkpt lat="46.0858654887984" lon="13.033434930530515"><ele>112.0</ele><time>2026-04-25T06:32:03.999Z</time></trkpt><trkpt lat="46.08582750008026" lon="13.033085375645761"><ele>112.0</ele><time>2026-04-25T06:32:04.999Z</time></trkpt><trkpt lat="46.08578969723952" lon="13.032737530737476"><ele>111.5</ele><time>2026-04-25T06:32:05.999Z</time></trkpt><trkpt lat="46.08575223568046" lon="13.032392826336459"><ele>111.0</ele><time>2026-04-25T06:32:06.999Z</time></trkpt><trkpt lat="46.08571499243688" lon="13.032050130665027"><ele>111.0</ele><time>2026-04-25T06:32:07.999Z</time></trkpt><trkpt lat="46.085677980997524" lon="13.031709567804596"><ele>111.0</ele><time>2026-04-25T06:32:08.999Z</time></trkpt><trkpt lat="46.08564136365061" lon="13.031372631646287"><ele>111.0</ele><time>2026-04-25T06:32:09.999Z</time></trkpt><trkpt lat="46.08559034409901" lon="13.031044626165276"><ele>111.0</ele><time>2026-04-25T06:32:10.999Z</time></trkpt><trkpt lat="46.08555521713282" lon="13.030715639971184"><ele>111.0</ele><time>2026-04-25T06:32:11.999Z</time></trkpt><trkpt lat="46.08552128754233" lon="13.030390888524055"><ele>111.0</ele><time>2026-04-25T06:32:12.999Z</time></trkpt><trkpt lat="46.085488228688014" lon="13.030068166543384"><ele>110.66666666666666</ele><time>2026-04-25T06:32:13.999Z</time></trkpt><trkpt lat="46.085453214733626" lon="13.029749911149294"><ele>110.33333333333333</ele><time>2026-04-25T06:32:14.999Z</time></trkpt><trkpt lat="46.08541733416196" lon="13.029434751232179"><ele>110.0</ele><time>2026-04-25T06:32:15.999Z</time></trkpt><trkpt lat="46.08538217662401" lon="13.02912036553751"><ele>110.0</ele><time>2026-04-25T06:32:16.999Z</time></trkpt><trkpt lat="46.08534848494615" lon="13.028807783905744"><ele>110.0</ele><time>2026-04-25T06:32:17.999Z</time></trkpt><trkpt lat="46.08531480124588" lon="13.02849605825995"><ele>110.0</ele><time>2026-04-25T06:32:18.999Z</time></trkpt><trkpt lat="46.08528101285369" lon="13.028187918769182"><ele>110.0</ele><time>2026-04-25T06:32:19.999Z</time></trkpt><trkpt lat="46.08524689519493" lon="13.027881961722976"><ele>110.0</ele><time>2026-04-25T06:32:20.999Z</time></trkpt><trkpt lat="46.08521208076268" lon="13.02757831239418"><ele>110.0</ele><time>2026-04-25T06:32:21.999Z</time></trkpt><trkpt lat="46.085179249155445" lon="13.027274480479976"><ele>110.0</ele><time>2026-04-25T06:32:22.999Z</time></trkpt><trkpt lat="46.08514744174039" lon="13.026974588311708"><ele>110.0</ele><time>2026-04-25T06:32:23.999Z</time></trkpt><trkpt lat="46.085117546101856" lon="13.026684067362776"><ele>110.0</ele><time>2026-04-25T06:32:24.999Z</time></trkpt><trkpt lat="46.085089478884406" lon="13.026404491463705"><ele>110.33333333333333</ele><time>2026-04-25T06:32:25.999Z</time></trkpt><trkpt lat="46.08506146833909" lon="13.026143324986462"><ele>110.66666666666666</ele><time>2026-04-25T06:32:26.999Z</time></trkpt><trkpt lat="46.08503525389984" lon="13.025901570277535"><ele>111.0</ele><time>2026-04-25T06:32:27.999Z</time></trkpt><trkpt lat="46.0850119548238" lon="13.02568820959039"><ele>110.6</ele><time>2026-04-25T06:32:28.999Z</time></trkpt><trkpt lat="46.08499489242017" lon="13.025501970157093"><ele>110.19999999999999</ele><time>2026-04-25T06:32:29.999Z</time></trkpt><trkpt lat="46.08498685988021" lon="13.025347099974466"><ele>109.80000000000001</ele><time>2026-04-25T06:32:30.999Z</time></trkpt><trkpt lat="46.08498866580529" lon="13.02522668820726"><ele>109.4</ele><time>2026-04-25T06:32:31.999Z</time></trkpt><trkpt lat="46.08500563443384" lon="13.025112466342321"><ele>109.0</ele><time>2026-04-25T06:32:32.999Z</time></trkpt><trkpt lat="46.08504932141198" lon="13.024991803177581"><ele>109.2</ele><time>2026-04-25T06:32:33.999Z</time></trkpt><trkpt lat="46.08509330415622" lon="13.024868941714628"><ele>109.4</ele><time>2026-04-25T06:32:34.999Z</time></trkpt><trkpt lat="46.08510093176521" lon="13.02473050615297"><ele>109.6</ele><time>2026-04-25T06:32:35.999Z</time></trkpt><trkpt lat="46.08506623484968" lon="13.024594252405207"><ele>109.8</ele><time>2026-04-25T06:32:36.999Z</time></trkpt><trkpt lat="46.08498824180056" lon="13.024470344740728"><ele>110.0</ele><time>2026-04-25T06:32:37.999Z</time></trkpt><trkpt lat="46.084910763907395" lon="13.024329063442325"><ele>110.0</ele><time>2026-04-25T06:32:38.999Z</time></trkpt><trkpt lat="46.084860236758104" lon="13.024153788444654"><ele>110.0</ele><time>2026-04-25T06:32:39.999Z</time></trkpt><trkpt lat="46.084826517279936" lon="13.023946870282897"><ele>110.0</ele><time>2026-04-25T06:32:40.999Z</time></trkpt><trkpt lat="46.084800594256876" lon="13.023717652227353"><ele>110.0</ele><time>2026-04-25T06:32:41.999Z</time></trkpt><trkpt lat="46.08476983882548" lon="13.023475807428166"><ele>109.66666666666666</ele><time>2026-04-25T06:32:42.999Z</time></trkpt><trkpt lat="46.084739992888146" lon="13.023220875100089"><ele>109.33333333333334</ele><time>2026-04-25T06:32:43.999Z</time></trkpt><trkpt lat="46.08471076777865" lon="13.0229548805854"><ele>109.0</ele><time>2026-04-25T06:32:44.999Z</time></trkpt><trkpt lat="46.08468355844345" lon="13.022681554749958"><ele>108.66666666666667</ele><time>2026-04-25T06:32:45.999Z</time></trkpt><trkpt lat="46.08465347110685" lon="13.022403188415593"><ele>108.33333333333334</ele><time>2026-04-25T06:32:46.999Z</time></trkpt><trkpt lat="46.08462232240816" lon="13.022121405419291"><ele>108.0</ele><time>2026-04-25T06:32:47.999Z</time></trkpt><trkpt lat="46.08459084849108" lon="13.021836561711774"><ele>107.66666666666666</ele><time>2026-04-25T06:32:48.999Z</time></trkpt><trkpt lat="46.0845604783836" lon="13.021550485896618"><ele>107.33333333333333</ele><time>2026-04-25T06:32:49.999Z</time></trkpt><trkpt lat="46.08452960201192" lon="13.021264386851515"><ele>107.0</ele><time>2026-04-25T06:32:50.999Z</time></trkpt><trkpt lat="46.08449674269734" lon="13.02097557523083"><ele>108.0</ele><time>2026-04-25T06:32:51.999Z</time></trkpt><trkpt lat="46.084464865336614" lon="13.020680884113258"><ele>109.0</ele><time>2026-04-25T06:32:52.999Z</time></trkpt><trkpt lat="46.08443462331569" lon="13.02038325394303"><ele>110.0</ele><time>2026-04-25T06:32:53.999Z</time></trkpt><trkpt lat="46.084404447327366" lon="13.020082261258233"><ele>110.33333333333333</ele><time>2026-04-25T06:32:54.999Z</time></trkpt><trkpt lat="46.08437319605297" lon="13.019781946922782"><ele>110.66666666666666</ele><time>2026-04-25T06:32:55.999Z</time></trkpt><trkpt lat="46.08434053336289" lon="13.019480988084792"><ele>111.0</ele><time>2026-04-25T06:32:56.999Z</time></trkpt><trkpt lat="46.084306565272634" lon="13.019177744285544"><ele>112.0</ele><time>2026-04-25T06:32:57.999Z</time></trkpt><trkpt lat="46.08427314395722" lon="13.018874350335583"><ele>113.0</ele><time>2026-04-25T06:32:58.999Z</time></trkpt><trkpt lat="46.084241584090805" lon="13.018574182954824"><ele>114.0</ele><time>2026-04-25T06:32:59.999Z</time></trkpt><trkpt lat="46.08420862983708" lon="13.01827989897826"><ele>115.33333333333334</ele><time>2026-04-25T06:33:00.999Z</time></trkpt><trkpt lat="46.08417664663085" lon="13.017989209484377"><ele>116.66666666666667</ele><time>2026-04-25T06:33:01.999Z</time></trkpt><trkpt lat="46.084144184889034" lon="13.0177029046534"><ele>118.0</ele><time>2026-04-25T06:33:02.999Z</time></trkpt><trkpt lat="46.084113595336355" lon="13.017417856666787"><ele>118.66666666666667</ele><time>2026-04-25T06:33:03.999Z</time></trkpt><trkpt lat="46.08408337523396" lon="13.017132389740288"><ele>119.33333333333334</ele><time>2026-04-25T06:33:04.999Z</time></trkpt><trkpt lat="46.08405537915425" lon="13.016855543892964"><ele>120.0</ele><time>2026-04-25T06:33:05.999Z</time></trkpt><trkpt lat="46.0840273188681" lon="13.016573996811259"><ele>120.0</ele><time>2026-04-25T06:33:06.999Z</time></trkpt><trkpt lat="46.08399895908422" lon="13.016296271643196"><ele>120.0</ele><time>2026-04-25T06:33:07.999Z</time></trkpt><trkpt lat="46.08396935026767" lon="13.016016152091847"><ele>120.0</ele><time>2026-04-25T06:33:08.999Z</time></trkpt><trkpt lat="46.08393730181723" lon="13.015734233169336"><ele>120.66666666666666</ele><time>2026-04-25T06:33:09.999Z</time></trkpt><trkpt lat="46.083902703879765" lon="13.015442472728193"><ele>121.33333333333333</ele><time>2026-04-25T06:33:10.999Z</time></trkpt><trkpt lat="46.083867126671585" lon="13.015145041321226"><ele>122.0</ele><time>2026-04-25T06:33:11.999Z</time></trkpt><trkpt lat="46.08383263299166" lon="13.014841953491095"><ele>122.0</ele><time>2026-04-25T06:33:12.999Z</time></trkpt><trkpt lat="46.08380000683261" lon="13.014530895307233"><ele>122.0</ele><time>2026-04-25T06:33:13.999Z</time></trkpt><trkpt lat="46.083768684811666" lon="13.014212065680843"><ele>122.0</ele><time>2026-04-25T06:33:14.999Z</time></trkpt><trkpt lat="46.08373921257267" lon="13.013887513963526"><ele>122.5</ele><time>2026-04-25T06:33:15.999Z</time></trkpt><trkpt lat="46.08371020367827" lon="13.013561895649154"><ele>123.0</ele><time>2026-04-25T06:33:16.999Z</time></trkpt><trkpt lat="46.083679670263365" lon="13.013235011664829"><ele>123.0</ele><time>2026-04-25T06:33:17.999Z</time></trkpt><trkpt lat="46.083647156307016" lon="13.01290547920885"><ele>123.0</ele><time>2026-04-25T06:33:18.999Z</time></trkpt><trkpt lat="46.08361281733604" lon="13.012574968287863"><ele>123.0</ele><time>2026-04-25T06:33:19.999Z</time></trkpt><trkpt lat="46.08357835864569" lon="13.012243889843543"><ele>123.0</ele><time>2026-04-25T06:33:20.999Z</time></trkpt><trkpt lat="46.08354446764895" lon="13.011913450026933"><ele>123.0</ele><time>2026-04-25T06:33:21.999Z</time></trkpt><trkpt lat="46.08350946086524" lon="13.011583086788026"><ele>123.0</ele><time>2026-04-25T06:33:22.999Z</time></trkpt><trkpt lat="46.083476422687916" lon="13.011253839333529"><ele>123.0</ele><time>2026-04-25T06:33:23.999Z</time></trkpt><trkpt lat="46.08344229432846" lon="13.01092665912111"><ele>123.0</ele><time>2026-04-25T06:33:24.999Z</time></trkpt><trkpt lat="46.08340633740347" lon="13.010601025781838"><ele>123.0</ele><time>2026-04-25T06:33:25.999Z</time></trkpt><trkpt lat="46.083370293569494" lon="13.010277979402375"><ele>123.0</ele><time>2026-04-25T06:33:26.999Z</time></trkpt><trkpt lat="46.08333489824838" lon="13.009956312566388"><ele>123.0</ele><time>2026-04-25T06:33:27.999Z</time></trkpt><trkpt lat="46.083298745225726" lon="13.009636319297398"><ele>123.0</ele><time>2026-04-25T06:33:28.999Z</time></trkpt><trkpt lat="46.083260513963985" lon="13.009317383100077"><ele>123.0</ele><time>2026-04-25T06:33:29.999Z</time></trkpt><trkpt lat="46.08322449909655" lon="13.008999357839857"><ele>122.0</ele><time>2026-04-25T06:33:30.999Z</time></trkpt><trkpt lat="46.08319318388949" lon="13.008679567993282"><ele>121.0</ele><time>2026-04-25T06:33:31.999Z</time></trkpt><trkpt lat="46.083157622449725" lon="13.008356787514185"><ele>121.0</ele><time>2026-04-25T06:33:32.999Z</time></trkpt><trkpt lat="46.08312089644386" lon="13.00804373611777"><ele>121.0</ele><time>2026-04-25T06:33:33.999Z</time></trkpt><trkpt lat="46.083082611867674" lon="13.007734030050687"><ele>121.0</ele><time>2026-04-25T06:33:35Z</time></trkpt><trkpt lat="46.083042527848455" lon="13.007423308876264"><ele>121.0</ele><time>2026-04-25T06:33:36Z</time></trkpt><trkpt lat="46.08302109825958" lon="13.007107584630644"><ele>121.0</ele><time>2026-04-25T06:33:37Z</time></trkpt><trkpt lat="46.0829691572846" lon="13.006799909121991"><ele>121.0</ele><time>2026-04-25T06:33:38Z</time></trkpt><trkpt lat="46.082950003406985" lon="13.006477576105883"><ele>120.5</ele><time>2026-04-25T06:33:39Z</time></trkpt><trkpt lat="46.08291426113997" lon="13.006155199392225"><ele>120.0</ele><time>2026-04-25T06:33:40Z</time></trkpt><trkpt lat="46.08287820062748" lon="13.005829952306103"><ele>120.0</ele><time>2026-04-25T06:33:41Z</time></trkpt><trkpt lat="46.08282663403833" lon="13.005506441334624"><ele>120.0</ele><time>2026-04-25T06:33:42Z</time></trkpt><trkpt lat="46.08279116650484" lon="13.005178439752111"><ele>120.0</ele><time>2026-04-25T06:33:43Z</time></trkpt><trkpt lat="46.0827712536132" lon="13.004846439797442"><ele>120.0</ele><time>2026-04-25T06:33:44Z</time></trkpt><trkpt lat="46.08273563424908" lon="13.004516699664755"><ele>120.0</ele><time>2026-04-25T06:33:45Z</time></trkpt><trkpt lat="46.08269981516279" lon="13.004185110548928"><ele>120.0</ele><time>2026-04-25T06:33:46Z</time></trkpt><trkpt lat="46.08266400006774" lon="13.003853558350821"><ele>121.0</ele><time>2026-04-25T06:33:47Z</time></trkpt><trkpt lat="46.08262808646068" lon="13.003521094437493"><ele>122.0</ele><time>2026-04-25T06:33:48Z</time></trkpt><trkpt lat="46.082591844331674" lon="13.003185588986916"><ele>122.0</ele><time>2026-04-25T06:33:49Z</time></trkpt><trkpt lat="46.082555014390245" lon="13.002846464305218"><ele>122.0</ele><time>2026-04-25T06:33:50Z</time></trkpt><trkpt lat="46.08251755324608" lon="13.002503187619647"><ele>122.0</ele><time>2026-04-25T06:33:51Z</time></trkpt><trkpt lat="46.08246508278319" lon="13.002161805831859"><ele>122.0</ele><time>2026-04-25T06:33:52Z</time></trkpt><trkpt lat="46.082427227345754" lon="13.001814321658443"><ele>121.5</ele><time>2026-04-25T06:33:53Z</time></trkpt><trkpt lat="46.08238892380509" lon="13.001465126138028"><ele>121.0</ele><time>2026-04-25T06:33:54Z</time></trkpt><trkpt lat="46.08235035945025" lon="13.001115349886003"><ele>121.0</ele><time>2026-04-25T06:33:55Z</time></trkpt><trkpt lat="46.08231194327533" lon="13.000766378653896"><ele>121.0</ele><time>2026-04-25T06:33:56Z</time></trkpt><trkpt lat="46.08227394662441" lon="13.000416692697513"><ele>121.0</ele><time>2026-04-25T06:33:57Z</time></trkpt><trkpt lat="46.082236313248316" lon="13.000068181277339"><ele>121.0</ele><time>2026-04-25T06:33:58Z</time></trkpt><trkpt lat="46.082199499435525" lon="12.999721049451209"><ele>121.0</ele><time>2026-04-25T06:33:58.999Z</time></trkpt><trkpt lat="46.08216218000376" lon="12.999373010447025"><ele>121.0</ele><time>2026-04-25T06:33:59.999Z</time></trkpt><trkpt lat="46.082124663499066" lon="12.999023856717963"><ele>120.5</ele><time>2026-04-25T06:34:00.999Z</time></trkpt><trkpt lat="46.08208784255588" lon="12.998676159359778"><ele>120.0</ele><time>2026-04-25T06:34:01.999Z</time></trkpt><trkpt lat="46.0820506687616" lon="12.998327758968545"><ele>119.5</ele><time>2026-04-25T06:34:02.999Z</time></trkpt><trkpt lat="46.08201182821607" lon="12.99798015375781"><ele>119.0</ele><time>2026-04-25T06:34:03.999Z</time></trkpt><trkpt lat="46.08197205506944" lon="12.997633472335375"><ele>119.5</ele><time>2026-04-25T06:34:04.999Z</time></trkpt><trkpt lat="46.08193289396113" lon="12.997288725025562"><ele>120.0</ele><time>2026-04-25T06:34:05.999Z</time></trkpt><trkpt lat="46.08191103746946" lon="12.996941072866695"><ele>120.5</ele><time>2026-04-25T06:34:06.999Z</time></trkpt><trkpt lat="46.08187355384201" lon="12.996599052347678"><ele>121.0</ele><time>2026-04-25T06:34:07.999Z</time></trkpt><trkpt lat="46.081836273512764" lon="12.99625889436977"><ele>121.0</ele><time>2026-04-25T06:34:08.999Z</time></trkpt><trkpt lat="46.081789481630814" lon="12.99592835260657"><ele>121.0</ele><time>2026-04-25T06:34:09.999Z</time></trkpt><trkpt lat="46.08176218529157" lon="12.995598623298475"><ele>121.0</ele><time>2026-04-25T06:34:10.999Z</time></trkpt><trkpt lat="46.08171452953268" lon="12.995286483254931"><ele>121.0</ele><time>2026-04-25T06:34:11.999Z</time></trkpt><trkpt lat="46.08168231122421" lon="12.994974043819134"><ele>121.0</ele><time>2026-04-25T06:34:12.999Z</time></trkpt><trkpt lat="46.08165003326506" lon="12.99466651079375"><ele>121.0</ele><time>2026-04-25T06:34:13.999Z</time></trkpt><trkpt lat="46.08161850905455" lon="12.994364858627085"><ele>121.0</ele><time>2026-04-25T06:34:14.999Z</time></trkpt><trkpt lat="46.08158706975896" lon="12.99406941338006"><ele>121.0</ele><time>2026-04-25T06:34:15.999Z</time></trkpt><trkpt lat="46.081555773089725" lon="12.99377797347485"><ele>121.0</ele><time>2026-04-25T06:34:16.999Z</time></trkpt><trkpt lat="46.0815259743958" lon="12.99348761091731"><ele>121.0</ele><time>2026-04-25T06:34:17.999Z</time></trkpt><trkpt lat="46.08150327811966" lon="12.993198343714361"><ele>121.0</ele><time>2026-04-25T06:34:18.999Z</time></trkpt><trkpt lat="46.08148833445486" lon="12.992909091586668"><ele>120.33333333333334</ele><time>2026-04-25T06:34:19.999Z</time></trkpt><trkpt lat="46.081477542404606" lon="12.99262269002742"><ele>119.66666666666666</ele><time>2026-04-25T06:34:20.999Z</time></trkpt><trkpt lat="46.08147051574479" lon="12.992336705000602"><ele>119.0</ele><time>2026-04-25T06:34:21.999Z</time></trkpt><trkpt lat="46.08147093960035" lon="12.992055780278179"><ele>118.66666666666666</ele><time>2026-04-25T06:34:22.999Z</time></trkpt><trkpt lat="46.08147876656561" lon="12.991789635362732"><ele>118.33333333333334</ele><time>2026-04-25T06:34:23.999Z</time></trkpt><trkpt lat="46.08149160993284" lon="12.991545497381566"><ele>118.0</ele><time>2026-04-25T06:34:24.999Z</time></trkpt><trkpt lat="46.08150676054893" lon="12.991312338111076"><ele>118.33333333333334</ele><time>2026-04-25T06:34:25.999Z</time></trkpt><trkpt lat="46.08152372592075" lon="12.991075243926103"><ele>118.66666666666666</ele><time>2026-04-25T06:34:26.999Z</time></trkpt><trkpt lat="46.081547332432834" lon="12.990842192510314"><ele>119.0</ele><time>2026-04-25T06:34:27.999Z</time></trkpt><trkpt lat="46.08157178858486" lon="12.990632524226438"><ele>119.0</ele><time>2026-04-25T06:34:28.999Z</time></trkpt><trkpt lat="46.08159802746294" lon="12.99042757766181"><ele>119.0</ele><time>2026-04-25T06:34:29.999Z</time></trkpt><trkpt lat="46.08162422344207" lon="12.990223279025344"><ele>119.0</ele><time>2026-04-25T06:34:30.999Z</time></trkpt><trkpt lat="46.08164646627521" lon="12.990039799587773"><ele>119.0</ele><time>2026-04-25T06:34:31.999Z</time></trkpt><trkpt lat="46.081666048763516" lon="12.989867486760172"><ele>119.0</ele><time>2026-04-25T06:34:32.999Z</time></trkpt><trkpt lat="46.08168457657778" lon="12.989705602227733"><ele>119.0</ele><time>2026-04-25T06:34:33.999Z</time></trkpt><trkpt lat="46.081709899972175" lon="12.989555566241815"><ele>119.0</ele><time>2026-04-25T06:34:34.999Z</time></trkpt><trkpt lat="46.081751063683434" lon="12.989426160184834"><ele>119.0</ele><time>2026-04-25T06:34:35.999Z</time></trkpt><trkpt lat="46.08181323350895" lon="12.989316928633574"><ele>119.0</ele><time>2026-04-25T06:34:36.999Z</time></trkpt><trkpt lat="46.081867381969396" lon="12.98921989021423"><ele>119.16666666666666</ele><time>2026-04-25T06:34:37.999Z</time></trkpt><trkpt lat="46.081893784508516" lon="12.989113796589862"><ele>119.33333333333333</ele><time>2026-04-25T06:34:38.999Z</time></trkpt><trkpt lat="46.08188840376429" lon="12.988999407691727"><ele>119.5</ele><time>2026-04-25T06:34:39.999Z</time></trkpt><trkpt lat="46.081853409379995" lon="12.988879586292272"><ele>119.66666666666666</ele><time>2026-04-25T06:34:40.999Z</time></trkpt><trkpt lat="46.08182290694057" lon="12.988748697855751"><ele>119.83333333333333</ele><time>2026-04-25T06:34:41.999Z</time></trkpt><trkpt lat="46.08182540255669" lon="12.988596382401338"><ele>120.0</ele><time>2026-04-25T06:34:42.999Z</time></trkpt><trkpt lat="46.081843610667555" lon="12.988427130090207"><ele>119.75</ele><time>2026-04-25T06:34:43.999Z</time></trkpt><trkpt lat="46.08186366456754" lon="12.988245154669633"><ele>119.5</ele><time>2026-04-25T06:34:44.999Z</time></trkpt><trkpt lat="46.08188516674782" lon="12.988043628290033"><ele>119.25</ele><time>2026-04-25T06:34:45.999Z</time></trkpt><trkpt lat="46.08190963640097" lon="12.987826796760437"><ele>119.0</ele><time>2026-04-25T06:34:46.999Z</time></trkpt><trkpt lat="46.08193880177729" lon="12.987595515538898"><ele>119.0</ele><time>2026-04-25T06:34:47.999Z</time></trkpt><trkpt lat="46.08197001783696" lon="12.987354129373468"><ele>119.0</ele><time>2026-04-25T06:34:48.999Z</time></trkpt><trkpt lat="46.08200033153433" lon="12.987103747990663"><ele>119.0</ele><time>2026-04-25T06:34:49.999Z</time></trkpt><trkpt lat="46.082029870342" lon="12.986843707924589"><ele>118.66666666666666</ele><time>2026-04-25T06:34:50.999Z</time></trkpt><trkpt lat="46.08206055348311" lon="12.986577095878614"><ele>118.33333333333334</ele><time>2026-04-25T06:34:51.999Z</time></trkpt><trkpt lat="46.08209642136018" lon="12.986305231632523"><ele>118.0</ele><time>2026-04-25T06:34:52.999Z</time></trkpt><trkpt lat="46.082136302270754" lon="12.986030376438594"><ele>118.33333333333334</ele><time>2026-04-25T06:34:53.999Z</time></trkpt><trkpt lat="46.08217699623407" lon="12.985752490682373"><ele>118.66666666666666</ele><time>2026-04-25T06:34:54.999Z</time></trkpt><trkpt lat="46.082219241333796" lon="12.985471314531527"><ele>119.0</ele><time>2026-04-25T06:34:55.999Z</time></trkpt><trkpt lat="46.08226302734723" lon="12.98518960991815"><ele>119.33333333333333</ele><time>2026-04-25T06:34:56.999Z</time></trkpt><trkpt lat="46.082307175266365" lon="12.984905964814175"><ele>119.66666666666666</ele><time>2026-04-25T06:34:57.999Z</time></trkpt><trkpt lat="46.08235197047527" lon="12.98462198851345"><ele>120.0</ele><time>2026-04-25T06:34:58.999Z</time></trkpt><trkpt lat="46.08239399145392" lon="12.984338046821719"><ele>120.0</ele><time>2026-04-25T06:34:59.999Z</time></trkpt><trkpt lat="46.082439076473165" lon="12.984053598383872"><ele>120.0</ele><time>2026-04-25T06:35:00.999Z</time></trkpt><trkpt lat="46.082485469870406" lon="12.983763318995377"><ele>120.0</ele><time>2026-04-25T06:35:01.999Z</time></trkpt><trkpt lat="46.08253210858515" lon="12.98346673086903"><ele>119.33333333333334</ele><time>2026-04-25T06:35:02.999Z</time></trkpt><trkpt lat="46.08258048890659" lon="12.983165100982278"><ele>118.66666666666667</ele><time>2026-04-25T06:35:03.999Z</time></trkpt><trkpt lat="46.08262992231445" lon="12.98285949165467"><ele>118.0</ele><time>2026-04-25T06:35:04.999Z</time></trkpt><trkpt lat="46.082678102157956" lon="12.982552360322162"><ele>117.66666666666667</ele><time>2026-04-25T06:35:05.999Z</time></trkpt><trkpt lat="46.08272459607717" lon="12.982241764804616"><ele>117.33333333333334</ele><time>2026-04-25T06:35:06.999Z</time></trkpt><trkpt lat="46.08277037535272" lon="12.98192866643776"><ele>117.0</ele><time>2026-04-25T06:35:07.999Z</time></trkpt><trkpt lat="46.08281731321912" lon="12.98161487454464"><ele>118.0</ele><time>2026-04-25T06:35:08.999Z</time></trkpt><trkpt lat="46.082866068084655" lon="12.98129934759903"><ele>119.0</ele><time>2026-04-25T06:35:09.999Z</time></trkpt><trkpt lat="46.082915274958744" lon="12.980982273647605"><ele>119.0</ele><time>2026-04-25T06:35:10.999Z</time></trkpt><trkpt lat="46.08296406792717" lon="12.980664323434306"><ele>119.0</ele><time>2026-04-25T06:35:11.999Z</time></trkpt><trkpt lat="46.08301218435172" lon="12.980344543592917"><ele>119.0</ele><time>2026-04-25T06:35:12.999Z</time></trkpt><trkpt lat="46.08306151463637" lon="12.980024185419401"><ele>119.0</ele><time>2026-04-25T06:35:13.999Z</time></trkpt><trkpt lat="46.083110972526235" lon="12.979704048714133"><ele>118.5</ele><time>2026-04-25T06:35:14.999Z</time></trkpt><trkpt lat="46.08315905936362" lon="12.979385447981773"><ele>118.0</ele><time>2026-04-25T06:35:15.999Z</time></trkpt><trkpt lat="46.08320542931544" lon="12.979067384904551"><ele>118.0</ele><time>2026-04-25T06:35:16.999Z</time></trkpt><trkpt lat="46.08327538803774" lon="12.978755425701051"><ele>118.0</ele><time>2026-04-25T06:35:17.999Z</time></trkpt><trkpt lat="46.08332493962683" lon="12.978436917103103"><ele>118.5</ele><time>2026-04-25T06:35:18.999Z</time></trkpt><trkpt lat="46.083358866471585" lon="12.978112794112034"><ele>119.0</ele><time>2026-04-25T06:35:19.999Z</time></trkpt><trkpt lat="46.08340827425921" lon="12.977793826811602"><ele>119.0</ele><time>2026-04-25T06:35:20.999Z</time></trkpt><trkpt lat="46.08347302333622" lon="12.977480457061775"><ele>119.0</ele><time>2026-04-25T06:35:21.999Z</time></trkpt><trkpt lat="46.0835225054765" lon="12.977162536605798"><ele>119.0</ele><time>2026-04-25T06:35:22.999Z</time></trkpt><trkpt lat="46.08355462091576" lon="12.976844111433117"><ele>119.0</ele><time>2026-04-25T06:35:23.999Z</time></trkpt><trkpt lat="46.08360359047928" lon="12.97653632812408"><ele>119.0</ele><time>2026-04-25T06:35:24.999Z</time></trkpt><trkpt lat="46.08365228934324" lon="12.97622717248374"><ele>118.66666666666666</ele><time>2026-04-25T06:35:25.999Z</time></trkpt><trkpt lat="46.08369957204917" lon="12.975920974962323"><ele>118.33333333333334</ele><time>2026-04-25T06:35:26.999Z</time></trkpt><trkpt lat="46.083746427147595" lon="12.975615347150049"><ele>118.0</ele><time>2026-04-25T06:35:27.999Z</time></trkpt><trkpt lat="46.08380866676937" lon="12.975316228652188"><ele>117.66666666666667</ele><time>2026-04-25T06:35:28.999Z</time></trkpt><trkpt lat="46.083855195938995" lon="12.975013528421812"><ele>117.33333333333334</ele><time>2026-04-25T06:35:29.999Z</time></trkpt><trkpt lat="46.08389966889389" lon="12.974711448041242"><ele>117.0</ele><time>2026-04-25T06:35:30.999Z</time></trkpt><trkpt lat="46.08394098314646" lon="12.974415754315054"><ele>117.0</ele><time>2026-04-25T06:35:31.999Z</time></trkpt><trkpt lat="46.083977894151545" lon="12.974127376767893"><ele>117.0</ele><time>2026-04-25T06:35:32.999Z</time></trkpt><trkpt lat="46.084012510235915" lon="12.973844511114638"><ele>117.0</ele><time>2026-04-25T06:35:33.999Z</time></trkpt><trkpt lat="46.08404668386719" lon="12.973565261495086"><ele>117.0</ele><time>2026-04-25T06:35:34.999Z</time></trkpt><trkpt lat="46.08408039755134" lon="12.973289773148904"><ele>117.0</ele><time>2026-04-25T06:35:35.999Z</time></trkpt><trkpt lat="46.084114023317746" lon="12.973017285449039"><ele>117.0</ele><time>2026-04-25T06:35:36.999Z</time></trkpt><trkpt lat="46.08414722825745" lon="12.972746816505934"><ele>116.66666666666666</ele><time>2026-04-25T06:35:37.999Z</time></trkpt><trkpt lat="46.084181116709644" lon="12.972469525458587"><ele>116.33333333333333</ele><time>2026-04-25T06:35:38.999Z</time></trkpt><trkpt lat="46.08421526536691" lon="12.972189218215775"><ele>116.0</ele><time>2026-04-25T06:35:39.999Z</time></trkpt><trkpt lat="46.08425017667337" lon="12.971902438669659"><ele>115.66666666666666</ele><time>2026-04-25T06:35:41Z</time></trkpt><trkpt lat="46.08428556947215" lon="12.971611703758416"><ele>115.33333333333334</ele><time>2026-04-25T06:35:42Z</time></trkpt><trkpt lat="46.0843214518064" lon="12.97131694766301"><ele>115.0</ele><time>2026-04-25T06:35:43Z</time></trkpt><trkpt lat="46.084357720016385" lon="12.971019021628898"><ele>115.0</ele><time>2026-04-25T06:35:44Z</time></trkpt><trkpt lat="46.08439463962213" lon="12.970718384211585"><ele>115.0</ele><time>2026-04-25T06:35:45Z</time></trkpt><trkpt lat="46.084432093155094" lon="12.970414866372478"><ele>115.0</ele><time>2026-04-25T06:35:46Z</time></trkpt><trkpt lat="46.08446943324869" lon="12.970112267893844"><ele>115.33333333333334</ele><time>2026-04-25T06:35:47Z</time></trkpt><trkpt lat="46.08450665483863" lon="12.969810629796443"><ele>115.66666666666666</ele><time>2026-04-25T06:35:48Z</time></trkpt><trkpt lat="46.08454296367598" lon="12.96951153334425"><ele>116.0</ele><time>2026-04-25T06:35:49Z</time></trkpt><trkpt lat="46.0845787792549" lon="12.969216244957515"><ele>116.0</ele><time>2026-04-25T06:35:50Z</time></trkpt><trkpt lat="46.084614447303835" lon="12.968922173045408"><ele>116.0</ele><time>2026-04-25T06:35:51Z</time></trkpt><trkpt lat="46.08464957672604" lon="12.968632541753102"><ele>116.0</ele><time>2026-04-25T06:35:52Z</time></trkpt><trkpt lat="46.084684436265476" lon="12.968345135694383"><ele>115.33333333333333</ele><time>2026-04-25T06:35:53Z</time></trkpt><trkpt lat="46.08471936091287" lon="12.968057192876115"><ele>114.66666666666666</ele><time>2026-04-25T06:35:54Z</time></trkpt><trkpt lat="46.08475438482821" lon="12.967770740181594"><ele>114.0</ele><time>2026-04-25T06:35:55Z</time></trkpt><trkpt lat="46.08479003909693" lon="12.967484624585829"><ele>114.0</ele><time>2026-04-25T06:35:56Z</time></trkpt><trkpt lat="46.08482592062061" lon="12.967195664113149"><ele>114.0</ele><time>2026-04-25T06:35:57Z</time></trkpt><trkpt lat="46.084858823099694" lon="12.966901399125728"><ele>114.0</ele><time>2026-04-25T06:35:58Z</time></trkpt><trkpt lat="46.08489022729209" lon="12.966599769008496"><ele>114.33333333333334</ele><time>2026-04-25T06:35:59Z</time></trkpt><trkpt lat="46.084920384143544" lon="12.966293552275038"><ele>114.66666666666667</ele><time>2026-04-25T06:36:00Z</time></trkpt><trkpt lat="46.08494454054438" lon="12.965981565667624"><ele>115.0</ele><time>2026-04-25T06:36:00.999Z</time></trkpt><trkpt lat="46.08496640498823" lon="12.965665470858545"><ele>115.0</ele><time>2026-04-25T06:36:01.999Z</time></trkpt><trkpt lat="46.08498837296963" lon="12.965344792051749"><ele>115.0</ele><time>2026-04-25T06:36:02.999Z</time></trkpt><trkpt lat="46.08501023762399" lon="12.965021879546851"><ele>115.0</ele><time>2026-04-25T06:36:03.999Z</time></trkpt><trkpt lat="46.085031947040186" lon="12.964701260737135"><ele>114.66666666666667</ele><time>2026-04-25T06:36:04.999Z</time></trkpt><trkpt lat="46.08505348579412" lon="12.964383161739004"><ele>114.33333333333334</ele><time>2026-04-25T06:36:05.999Z</time></trkpt><trkpt lat="46.08507516890391" lon="12.964062930803218"><ele>114.0</ele><time>2026-04-25T06:36:06.999Z</time></trkpt><trkpt lat="46.08509681606974" lon="12.963743239268261"><ele>114.0</ele><time>2026-04-25T06:36:07.999Z</time></trkpt><trkpt lat="46.08511850409557" lon="12.963422956451959"><ele>114.0</ele><time>2026-04-25T06:36:08.999Z</time></trkpt><trkpt lat="46.0851402386717" lon="12.963101986187146"><ele>114.0</ele><time>2026-04-25T06:36:09.999Z</time></trkpt><trkpt lat="46.08514111691759" lon="12.962779112895994"><ele>114.33333333333334</ele><time>2026-04-25T06:36:10.999Z</time></trkpt><trkpt lat="46.08516142236655" lon="12.962459973568757"><ele>114.66666666666667</ele><time>2026-04-25T06:36:11.999Z</time></trkpt><trkpt lat="46.08518109763048" lon="12.962144152900285"><ele>115.0</ele><time>2026-04-25T06:36:12.999Z</time></trkpt><trkpt lat="46.085202196366254" lon="12.961831175458002"><ele>114.66666666666667</ele><time>2026-04-25T06:36:13.999Z</time></trkpt><trkpt lat="46.08522327627785" lon="12.96152155799403"><ele>114.33333333333334</ele><time>2026-04-25T06:36:14.999Z</time></trkpt><trkpt lat="46.085244729569865" lon="12.961212031513664"><ele>114.0</ele><time>2026-04-25T06:36:15.999Z</time></trkpt><trkpt lat="46.08526497986259" lon="12.96090400456341"><ele>114.0</ele><time>2026-04-25T06:36:16.999Z</time></trkpt><trkpt lat="46.08528470201102" lon="12.960603639015195"><ele>114.0</ele><time>2026-04-25T06:36:17.999Z</time></trkpt><trkpt lat="46.08530293976778" lon="12.960308915635427"><ele>114.0</ele><time>2026-04-25T06:36:18.999Z</time></trkpt><trkpt lat="46.085324566424845" lon="12.960022528632598"><ele>114.0</ele><time>2026-04-25T06:36:19.999Z</time></trkpt><trkpt lat="46.085343136848415" lon="12.959746138509162"><ele>114.0</ele><time>2026-04-25T06:36:20.999Z</time></trkpt><trkpt lat="46.085362158504914" lon="12.959472741348337"><ele>114.0</ele><time>2026-04-25T06:36:21.999Z</time></trkpt><trkpt lat="46.085379093656925" lon="12.95920033309021"><ele>114.0</ele><time>2026-04-25T06:36:22.999Z</time></trkpt><trkpt lat="46.085391010268175" lon="12.958928358007913"><ele>114.0</ele><time>2026-04-25T06:36:23.999Z</time></trkpt><trkpt lat="46.08539935416204" lon="12.958657290917523"><ele>114.0</ele><time>2026-04-25T06:36:24.999Z</time></trkpt><trkpt lat="46.08540485980421" lon="12.958384031219149"><ele>114.0</ele><time>2026-04-25T06:36:25.999Z</time></trkpt><trkpt lat="46.085404462066265" lon="12.958113636404454"><ele>114.0</ele><time>2026-04-25T06:36:26.999Z</time></trkpt><trkpt lat="46.085398851864284" lon="12.957851173846912"><ele>114.0</ele><time>2026-04-25T06:36:27.999Z</time></trkpt><trkpt lat="46.08539605931271" lon="12.957592268485568"><ele>113.66666666666666</ele><time>2026-04-25T06:36:28.999Z</time></trkpt><trkpt lat="46.08539327274008" lon="12.95733281828102"><ele>113.33333333333333</ele><time>2026-04-25T06:36:29.999Z</time></trkpt><trkpt lat="46.08538917783668" lon="12.95707338393073"><ele>113.0</ele><time>2026-04-25T06:36:30.999Z</time></trkpt><trkpt lat="46.085387079881365" lon="12.956813543928588"><ele>113.0</ele><time>2026-04-25T06:36:31.999Z</time></trkpt><trkpt lat="46.085386092534655" lon="12.956553566522242"><ele>113.0</ele><time>2026-04-25T06:36:32.999Z</time></trkpt><trkpt lat="46.08538421104357" lon="12.956295198201142"><ele>113.0</ele><time>2026-04-25T06:36:33.999Z</time></trkpt><trkpt lat="46.085379629498085" lon="12.95603555404585"><ele>113.0</ele><time>2026-04-25T06:36:34.999Z</time></trkpt><trkpt lat="46.085374106500204" lon="12.95577391349217"><ele>113.0</ele><time>2026-04-25T06:36:35.999Z</time></trkpt><trkpt lat="46.0853709476582" lon="12.955508526878804"><ele>113.0</ele><time>2026-04-25T06:36:36.999Z</time></trkpt><trkpt lat="46.08537005101518" lon="12.955236340195476"><ele>113.33333333333333</ele><time>2026-04-25T06:36:37.999Z</time></trkpt><trkpt lat="46.08536795471897" lon="12.954962095959228"><ele>113.66666666666666</ele><time>2026-04-25T06:36:38.999Z</time></trkpt><trkpt lat="46.085366423020524" lon="12.95469027660009"><ele>114.0</ele><time>2026-04-25T06:36:39.999Z</time></trkpt><trkpt lat="46.085370940254826" lon="12.954417083626726"><ele>113.33333333333334</ele><time>2026-04-25T06:36:40.999Z</time></trkpt><trkpt lat="46.08538074739765" lon="12.954143044973314"><ele>112.66666666666667</ele><time>2026-04-25T06:36:41.999Z</time></trkpt><trkpt lat="46.08539310390222" lon="12.95386844319422"><ele>112.0</ele><time>2026-04-25T06:36:42.999Z</time></trkpt><trkpt lat="46.085406984382665" lon="12.953594638479125"><ele>111.66666666666667</ele><time>2026-04-25T06:36:43.999Z</time></trkpt><trkpt lat="46.085422617160795" lon="12.953318702496423"><ele>111.33333333333334</ele><time>2026-04-25T06:36:44.999Z</time></trkpt><trkpt lat="46.085442732337604" lon="12.95304262393618"><ele>111.0</ele><time>2026-04-25T06:36:45.999Z</time></trkpt><trkpt lat="46.085464151471975" lon="12.95276472891066"><ele>110.33333333333334</ele><time>2026-04-25T06:36:46.999Z</time></trkpt><trkpt lat="46.08548772188654" lon="12.952484070169946"><ele>109.66666666666667</ele><time>2026-04-25T06:36:47.999Z</time></trkpt><trkpt lat="46.08551254453632" lon="12.952205352398128"><ele>109.0</ele><time>2026-04-25T06:36:48.999Z</time></trkpt><trkpt lat="46.08553834829732" lon="12.951929069296408"><ele>109.0</ele><time>2026-04-25T06:36:49.999Z</time></trkpt><trkpt lat="46.08556152607177" lon="12.951663436139404"><ele>109.0</ele><time>2026-04-25T06:36:50.999Z</time></trkpt><trkpt lat="46.08558339919169" lon="12.951405834001125"><ele>109.0</ele><time>2026-04-25T06:36:51.999Z</time></trkpt><trkpt lat="46.08560354355272" lon="12.95116296686976"><ele>109.0</ele><time>2026-04-25T06:36:52.999Z</time></trkpt><trkpt lat="46.08562220891043" lon="12.950935382654604"><ele>109.0</ele><time>2026-04-25T06:36:53.999Z</time></trkpt><trkpt lat="46.08563970793708" lon="12.950719272809478"><ele>109.0</ele><time>2026-04-25T06:36:54.999Z</time></trkpt><trkpt lat="46.08565499629857" lon="12.950518381200627"><ele>109.0</ele><time>2026-04-25T06:36:55.999Z</time></trkpt><trkpt lat="46.08566984688629" lon="12.950345023038528"><ele>109.0</ele><time>2026-04-25T06:36:56.999Z</time></trkpt><trkpt lat="46.08568975711798" lon="12.95019195706307"><ele>109.0</ele><time>2026-04-25T06:36:57.999Z</time></trkpt><trkpt lat="46.08572125209737" lon="12.950051510974145"><ele>109.0</ele><time>2026-04-25T06:36:58.999Z</time></trkpt><trkpt lat="46.08577128316664" lon="12.949910891456128"><ele>109.0</ele><time>2026-04-25T06:36:59.999Z</time></trkpt><trkpt lat="46.08583788841524" lon="12.949784253638278"><ele>109.75</ele><time>2026-04-25T06:37:00.999Z</time></trkpt><trkpt lat="46.08591758106119" lon="12.949659763297573"><ele>110.5</ele><time>2026-04-25T06:37:01.999Z</time></trkpt><trkpt lat="46.0860007701586" lon="12.949530830997082"><ele>111.25</ele><time>2026-04-25T06:37:02.999Z</time></trkpt><trkpt lat="46.08606250610811" lon="12.949388014139275"><ele>112.0</ele><time>2026-04-25T06:37:03.999Z</time></trkpt><trkpt lat="46.08610236313387" lon="12.94923706935153"><ele>112.0</ele><time>2026-04-25T06:37:04.999Z</time></trkpt><trkpt lat="46.086115431587196" lon="12.949077068254372"><ele>112.0</ele><time>2026-04-25T06:37:05.999Z</time></trkpt><trkpt lat="46.08609959026844" lon="12.948912584459014"><ele>112.0</ele><time>2026-04-25T06:37:06.999Z</time></trkpt><trkpt lat="46.08605219727577" lon="12.948761132650139"><ele>112.0</ele><time>2026-04-25T06:37:07.999Z</time></trkpt><trkpt lat="46.08598151679112" lon="12.948631058270735"><ele>112.0</ele><time>2026-04-25T06:37:08.999Z</time></trkpt><trkpt lat="46.0858910637963" lon="12.94851153352546"><ele>112.0</ele><time>2026-04-25T06:37:09.999Z</time></trkpt><trkpt lat="46.08580388343201" lon="12.94835918507654"><ele>112.0</ele><time>2026-04-25T06:37:10.999Z</time></trkpt><trkpt lat="46.08574552507252" lon="12.948168462550145"><ele>112.0</ele><time>2026-04-25T06:37:11.999Z</time></trkpt><trkpt lat="46.0857286641134" lon="12.947966468605753"><ele>111.33333333333334</ele><time>2026-04-25T06:37:12.999Z</time></trkpt><trkpt lat="46.08573854901376" lon="12.947748994524929"><ele>110.66666666666666</ele><time>2026-04-25T06:37:13.999Z</time></trkpt><trkpt lat="46.08577127225895" lon="12.947510240338483"><ele>110.0</ele><time>2026-04-25T06:37:14.999Z</time></trkpt><trkpt lat="46.085780186465776" lon="12.947264879367708"><ele>110.0</ele><time>2026-04-25T06:37:15.999Z</time></trkpt><trkpt lat="46.08578875515062" lon="12.947029029900657"><ele>110.0</ele><time>2026-04-25T06:37:16.999Z</time></trkpt><trkpt lat="46.08579671327349" lon="12.946809985701474"><ele>110.0</ele><time>2026-04-25T06:37:17.999Z</time></trkpt><trkpt lat="46.08580325040423" lon="12.946616182645636"><ele>110.0</ele><time>2026-04-25T06:37:18.999Z</time></trkpt><trkpt lat="46.08580874225625" lon="12.94644141263154"><ele>110.0</ele><time>2026-04-25T06:37:19.999Z</time></trkpt><trkpt lat="46.08581227906813" lon="12.946268764396594"><ele>110.0</ele><time>2026-04-25T06:37:20.999Z</time></trkpt><trkpt lat="46.08581464063773" lon="12.94609237313759"><ele>110.0</ele><time>2026-04-25T06:37:21.999Z</time></trkpt><trkpt lat="46.08581275377513" lon="12.945916126125022"><ele>110.25</ele><time>2026-04-25T06:37:22.999Z</time></trkpt><trkpt lat="46.085810785328285" lon="12.945732267547337"><ele>110.5</ele><time>2026-04-25T06:37:23.999Z</time></trkpt><trkpt lat="46.085801534670544" lon="12.945536498465378"><ele>110.75</ele><time>2026-04-25T06:37:24.999Z</time></trkpt><trkpt lat="46.08579189924535" lon="12.945328193080833"><ele>111.0</ele><time>2026-04-25T06:37:25.999Z</time></trkpt><trkpt lat="46.08578117388674" lon="12.945115295794892"><ele>111.0</ele><time>2026-04-25T06:37:26.999Z</time></trkpt><trkpt lat="46.085770662638595" lon="12.944908982570851"><ele>111.0</ele><time>2026-04-25T06:37:27.999Z</time></trkpt><trkpt lat="46.08576129073605" lon="12.944725031863403"><ele>111.0</ele><time>2026-04-25T06:37:28.999Z</time></trkpt><trkpt lat="46.08575241135398" lon="12.944550749088233"><ele>111.0</ele><time>2026-04-25T06:37:29.999Z</time></trkpt><trkpt lat="46.085743901314885" lon="12.944380895114879"><ele>111.19999999999999</ele><time>2026-04-25T06:37:30.999Z</time></trkpt><trkpt lat="46.08573595058098" lon="12.94421736513376"><ele>111.39999999999999</ele><time>2026-04-25T06:37:31.999Z</time></trkpt><trkpt lat="46.085728163835384" lon="12.944057207469584"><ele>111.6</ele><time>2026-04-25T06:37:32.999Z</time></trkpt><trkpt lat="46.08572062565112" lon="12.94390216253074"><ele>111.8</ele><time>2026-04-25T06:37:33.999Z</time></trkpt><trkpt lat="46.08571385724355" lon="12.943762950170997"><ele>112.0</ele><time>2026-04-25T06:37:34.999Z</time></trkpt><trkpt lat="46.08570841673786" lon="12.94365105031432"><ele>112.0</ele><time>2026-04-25T06:37:35.999Z</time></trkpt><trkpt lat="46.08570061194325" lon="12.943490521605995"><ele>111.99999999999999</ele><time>2026-04-25T06:37:37.999Z</time></trkpt><trkpt lat="46.08569920676293" lon="12.943320652855007"><ele>111.99999999999999</ele><time>2026-04-25T06:37:39.999Z</time></trkpt><trkpt lat="46.08567672360794" lon="12.943157999429731"><ele>112.0</ele><time>2026-04-25T06:37:41.999Z</time></trkpt><trkpt lat="46.08565546057368" lon="12.94305817779149"><ele>112.0</ele><time>2026-04-25T06:37:42.999Z</time></trkpt><trkpt lat="46.08565775802114" lon="12.942937755613151"><ele>112.0</ele><time>2026-04-25T06:37:43.999Z</time></trkpt><trkpt lat="46.085642912992306" lon="12.942812183766174"><ele>111.99999999999999</ele><time>2026-04-25T06:37:44.999Z</time></trkpt><trkpt lat="46.08562633468816" lon="12.942679852053589"><ele>111.99999999999999</ele><time>2026-04-25T06:37:45.998Z</time></trkpt><trkpt lat="46.08560825252499" lon="12.942546495973895"><ele>112.0</ele><time>2026-04-25T06:37:47Z</time></trkpt><trkpt lat="46.08558984245401" lon="12.942410721742506"><ele>112.0</ele><time>2026-04-25T06:37:48Z</time></trkpt><trkpt lat="46.085570184412596" lon="12.942272358190207"><ele>112.0</ele><time>2026-04-25T06:37:49Z</time></trkpt><trkpt lat="46.085549300691774" lon="12.94212770025757"><ele>111.99999999999999</ele><time>2026-04-25T06:37:50Z</time></trkpt><trkpt lat="46.085526398569336" lon="12.941977104916068"><ele>111.99999999999999</ele><time>2026-04-25T06:37:51Z</time></trkpt><trkpt lat="46.08550126422342" lon="12.941818180120986"><ele>112.0</ele><time>2026-04-25T06:37:52Z</time></trkpt><trkpt lat="46.08547309305286" lon="12.941654378486689"><ele>112.0</ele><time>2026-04-25T06:37:53Z</time></trkpt><trkpt lat="46.08543980184181" lon="12.9414888748247"><ele>112.0</ele><time>2026-04-25T06:37:54Z</time></trkpt><trkpt lat="46.08539917209319" lon="12.941325194132068"><ele>112.0</ele><time>2026-04-25T06:37:55Z</time></trkpt><trkpt lat="46.08532954534531" lon="12.94118347398856"><ele>112.0</ele><time>2026-04-25T06:37:56Z</time></trkpt><trkpt lat="46.08527184479342" lon="12.94104318356453"><ele>112.0</ele><time>2026-04-25T06:37:57Z</time></trkpt><trkpt lat="46.08520570716795" lon="12.940915162106773"><ele>112.0</ele><time>2026-04-25T06:37:58Z</time></trkpt><trkpt lat="46.08513364004853" lon="12.94079960746553"><ele>111.99999999999999</ele><time>2026-04-25T06:37:59Z</time></trkpt><trkpt lat="46.08507875181692" lon="12.940668732071524"><ele>111.99999999999999</ele><time>2026-04-25T06:38:00Z</time></trkpt><trkpt lat="46.0850155388155" lon="12.940551254793949"><ele>112.0</ele><time>2026-04-25T06:38:01Z</time></trkpt><trkpt lat="46.084957888278204" lon="12.940440725696252"><ele>112.0</ele><time>2026-04-25T06:38:01.999Z</time></trkpt><trkpt lat="46.084907217638886" lon="12.940326452934816"><ele>111.6</ele><time>2026-04-25T06:38:02.999Z</time></trkpt><trkpt lat="46.08487309007499" lon="12.94019877737259"><ele>111.19999999999999</ele><time>2026-04-25T06:38:03.999Z</time></trkpt><trkpt lat="46.084854135903505" lon="12.940060848069436"><ele>110.8</ele><time>2026-04-25T06:38:04.999Z</time></trkpt><trkpt lat="46.084836943940935" lon="12.93991821864956"><ele>110.4</ele><time>2026-04-25T06:38:05.999Z</time></trkpt><trkpt lat="46.08482285863313" lon="12.939772223941764"><ele>110.0</ele><time>2026-04-25T06:38:06.999Z</time></trkpt><trkpt lat="46.08481157608725" lon="12.939626130399795"><ele>109.83333333333333</ele><time>2026-04-25T06:38:07.999Z</time></trkpt><trkpt lat="46.084805363258205" lon="12.939480618579628"><ele>109.66666666666666</ele><time>2026-04-25T06:38:08.999Z</time></trkpt><trkpt lat="46.08480203838021" lon="12.939333753039573"><ele>109.5</ele><time>2026-04-25T06:38:09.999Z</time></trkpt><trkpt lat="46.08479996297254" lon="12.939191587543883"><ele>109.33333333333334</ele><time>2026-04-25T06:38:10.999Z</time></trkpt><trkpt lat="46.08479994343475" lon="12.93907070126908"><ele>109.16666666666667</ele><time>2026-04-25T06:38:11.999Z</time></trkpt><trkpt lat="46.08480502515866" lon="12.938980221686093"><ele>109.0</ele><time>2026-04-25T06:38:12.999Z</time></trkpt><trkpt lat="46.084820380171344" lon="12.938860161965518"><ele>109.33333333333334</ele><time>2026-04-25T06:38:14.999Z</time></trkpt><trkpt lat="46.08483848432205" lon="12.938767313217722"><ele>109.66666666666667</ele><time>2026-04-25T06:38:16.999Z</time></trkpt><trkpt lat="46.084856469069805" lon="12.938678904349846"><ele>110.0</ele><time>2026-04-25T06:38:19.999Z</time></trkpt><trkpt lat="46.084861088584674" lon="12.938580951139924"><ele>110.33333333333334</ele><time>2026-04-25T06:38:37.999Z</time></trkpt><trkpt lat="46.084893759577035" lon="12.938458145280423"><ele>110.66666666666667</ele><time>2026-04-25T06:38:39.999Z</time></trkpt><trkpt lat="46.08494013281608" lon="12.93829046133696"><ele>111.0</ele><time>2026-04-25T06:38:41.999Z</time></trkpt><trkpt lat="46.08500201948195" lon="12.938139782519439"><ele>111.33333333333333</ele><time>2026-04-25T06:38:43.999Z</time></trkpt><trkpt lat="46.085020451325455" lon="12.938043460250515"><ele>111.66666666666666</ele><time>2026-04-25T06:38:44.999Z</time></trkpt><trkpt lat="46.08502420540104" lon="12.937932538258599"><ele>112.0</ele><time>2026-04-25T06:38:45.999Z</time></trkpt><trkpt lat="46.08502417413436" lon="12.937822533594238"><ele>112.33333333333333</ele><time>2026-04-25T06:38:46.999Z</time></trkpt><trkpt lat="46.08502150211828" lon="12.937714252011705"><ele>112.66666666666666</ele><time>2026-04-25T06:38:47.999Z</time></trkpt><trkpt lat="46.085019092365506" lon="12.93760327616385"><ele>113.0</ele><time>2026-04-25T06:38:48.999Z</time></trkpt><trkpt lat="46.08501845782796" lon="12.937489873220391"><ele>112.99999999999999</ele><time>2026-04-25T06:38:49.999Z</time></trkpt><trkpt lat="46.085016843688244" lon="12.937378270895572"><ele>113.0</ele><time>2026-04-25T06:38:50.999Z</time></trkpt><trkpt lat="46.085017572945866" lon="12.937262882244255"><ele>113.0</ele><time>2026-04-25T06:38:51.999Z</time></trkpt><trkpt lat="46.08502244964308" lon="12.937145879734109"><ele>113.0</ele><time>2026-04-25T06:38:52.999Z</time></trkpt><trkpt lat="46.08501828474184" lon="12.937026088173566"><ele>112.99999999999999</ele><time>2026-04-25T06:38:53.999Z</time></trkpt><trkpt lat="46.08499909195238" lon="12.936908239824092"><ele>113.0</ele><time>2026-04-25T06:38:54.999Z</time></trkpt><trkpt lat="46.084960824482174" lon="12.936802700735232"><ele>112.4</ele><time>2026-04-25T06:38:55.999Z</time></trkpt><trkpt lat="46.084907623650444" lon="12.936705866274105"><ele>111.80000000000001</ele><time>2026-04-25T06:38:56.999Z</time></trkpt><trkpt lat="46.08484824146492" lon="12.936601880157102"><ele>111.2</ele><time>2026-04-25T06:38:57.999Z</time></trkpt><trkpt lat="46.08479200926915" lon="12.936486886222452"><ele>110.6</ele><time>2026-04-25T06:38:58.999Z</time></trkpt><trkpt lat="46.08473508643592" lon="12.936369918818796"><ele>110.0</ele><time>2026-04-25T06:38:59.999Z</time></trkpt><trkpt lat="46.08467218732854" lon="12.936244863631558"><ele>110.0</ele><time>2026-04-25T06:39:00.999Z</time></trkpt><trkpt lat="46.08460409874397" lon="12.93611674449852"><ele>110.0</ele><time>2026-04-25T06:39:01.999Z</time></trkpt><trkpt lat="46.084532049399904" lon="12.93597363608038"><ele>110.0</ele><time>2026-04-25T06:39:02.999Z</time></trkpt><trkpt lat="46.084453380316226" lon="12.935818052979647"><ele>110.0</ele><time>2026-04-25T06:39:03.999Z</time></trkpt><trkpt lat="46.08437047689945" lon="12.935657611935843"><ele>108.5</ele><time>2026-04-25T06:39:04.999Z</time></trkpt><trkpt lat="46.08428364789508" lon="12.935491067157143"><ele>107.0</ele><time>2026-04-25T06:39:05.999Z</time></trkpt><trkpt lat="46.08419663697818" lon="12.935315556625154"><ele>105.5</ele><time>2026-04-25T06:39:06.999Z</time></trkpt><trkpt lat="46.084114579571896" lon="12.935133596966102"><ele>104.0</ele><time>2026-04-25T06:39:07.999Z</time></trkpt><trkpt lat="46.084038360654986" lon="12.934943819228138"><ele>102.33333333333333</ele><time>2026-04-25T06:39:08.999Z</time></trkpt><trkpt lat="46.08397473362111" lon="12.934744319282984"><ele>100.66666666666666</ele><time>2026-04-25T06:39:09.999Z</time></trkpt><trkpt lat="46.08392443740582" lon="12.93453755621324"><ele>99.0</ele><time>2026-04-25T06:39:10.999Z</time></trkpt><trkpt lat="46.083885906715444" lon="12.934328981730365"><ele>98.0</ele><time>2026-04-25T06:39:11.999Z</time></trkpt><trkpt lat="46.0838609241418" lon="12.934120134024571"><ele>97.0</ele><time>2026-04-25T06:39:12.999Z</time></trkpt><trkpt lat="46.083850131992854" lon="12.933919422954986"><ele>96.0</ele><time>2026-04-25T06:39:13.999Z</time></trkpt><trkpt lat="46.083849741027095" lon="12.933717785998006"><ele>95.0</ele><time>2026-04-25T06:39:14.999Z</time></trkpt><trkpt lat="46.0838564529342" lon="12.933539018000312"><ele>94.75</ele><time>2026-04-25T06:39:15.999Z</time></trkpt><trkpt lat="46.08386591190157" lon="12.933363182613617"><ele>94.5</ele><time>2026-04-25T06:39:16.999Z</time></trkpt><trkpt lat="46.08387899247506" lon="12.933188900391727"><ele>94.25</ele><time>2026-04-25T06:39:17.999Z</time></trkpt><trkpt lat="46.0838929971684" lon="12.933022361316562"><ele>94.0</ele><time>2026-04-25T06:39:18.999Z</time></trkpt><trkpt lat="46.083908179789304" lon="12.932870339306628"><ele>94.0</ele><time>2026-04-25T06:39:19.999Z</time></trkpt><trkpt lat="46.083929967077005" lon="12.932730803517902"><ele>94.0</ele><time>2026-04-25T06:39:20.999Z</time></trkpt><trkpt lat="46.08396233890857" lon="12.932594891954954"><ele>94.0</ele><time>2026-04-25T06:39:21.999Z</time></trkpt><trkpt lat="46.08400912535105" lon="12.93246359596568"><ele>94.0</ele><time>2026-04-25T06:39:22.999Z</time></trkpt><trkpt lat="46.084076985138104" lon="12.932337295380421"><ele>94.0</ele><time>2026-04-25T06:39:23.999Z</time></trkpt><trkpt lat="46.0840919746209" lon="12.932161409627163"><ele>94.25</ele><time>2026-04-25T06:39:24.999Z</time></trkpt><trkpt lat="46.0841343922893" lon="12.931995893925198"><ele>94.5</ele><time>2026-04-25T06:39:25.999Z</time></trkpt><trkpt lat="46.08418387488849" lon="12.931832941401625"><ele>94.75</ele><time>2026-04-25T06:39:26.999Z</time></trkpt><trkpt lat="46.08423782097568" lon="12.931676159945207"><ele>95.0</ele><time>2026-04-25T06:39:27.999Z</time></trkpt><trkpt lat="46.084293765227784" lon="12.931522684779578"><ele>95.0</ele><time>2026-04-25T06:39:28.999Z</time></trkpt><trkpt lat="46.084367169234035" lon="12.931377314129465"><ele>95.0</ele><time>2026-04-25T06:39:29.999Z</time></trkpt><trkpt lat="46.08442839525193" lon="12.931216669992486"><ele>95.0</ele><time>2026-04-25T06:39:30.999Z</time></trkpt><trkpt lat="46.08449035967503" lon="12.931047720553975"><ele>95.0</ele><time>2026-04-25T06:39:31.999Z</time></trkpt><trkpt lat="46.084548897458646" lon="12.930878886996496"><ele>95.0</ele><time>2026-04-25T06:39:32.999Z</time></trkpt><trkpt lat="46.08460308141476" lon="12.930705684571132"><ele>95.0</ele><time>2026-04-25T06:39:33.999Z</time></trkpt><trkpt lat="46.08463862684302" lon="12.930521362220594"><ele>95.0</ele><time>2026-04-25T06:39:34.999Z</time></trkpt><trkpt lat="46.084691932518304" lon="12.930343829268379"><ele>95.0</ele><time>2026-04-25T06:39:35.999Z</time></trkpt><trkpt lat="46.08474538931399" lon="12.930159874533691"><ele>94.75</ele><time>2026-04-25T06:39:36.999Z</time></trkpt><trkpt lat="46.08479984386045" lon="12.92997195089184"><ele>94.5</ele><time>2026-04-25T06:39:37.999Z</time></trkpt><trkpt lat="46.08485492262694" lon="12.92978191455854"><ele>94.25</ele><time>2026-04-25T06:39:38.999Z</time></trkpt><trkpt lat="46.08490803757354" lon="12.929589647155279"><ele>94.0</ele><time>2026-04-25T06:39:39.999Z</time></trkpt><trkpt lat="46.08496321864096" lon="12.929393663527165"><ele>93.0</ele><time>2026-04-25T06:39:40.999Z</time></trkpt><trkpt lat="46.08502157847192" lon="12.929193543230854"><ele>92.0</ele><time>2026-04-25T06:39:41.999Z</time></trkpt><trkpt lat="46.08508206959538" lon="12.92899101362036"><ele>91.0</ele><time>2026-04-25T06:39:42.999Z</time></trkpt><trkpt lat="46.08514390732147" lon="12.92878418615515"><ele>91.0</ele><time>2026-04-25T06:39:43.999Z</time></trkpt><trkpt lat="46.08520481789149" lon="12.928571745972128"><ele>91.0</ele><time>2026-04-25T06:39:44.999Z</time></trkpt><trkpt lat="46.08526652504819" lon="12.928358154240968"><ele>91.0</ele><time>2026-04-25T06:39:45.999Z</time></trkpt><trkpt lat="46.08532755639745" lon="12.928142387337651"><ele>91.0</ele><time>2026-04-25T06:39:46.998Z</time></trkpt><trkpt lat="46.08538821121966" lon="12.927924410233976"><ele>91.0</ele><time>2026-04-25T06:39:47.998Z</time></trkpt><trkpt lat="46.085448262899504" lon="12.927708188762113"><ele>91.0</ele><time>2026-04-25T06:39:48.998Z</time></trkpt><trkpt lat="46.08550885364997" lon="12.927492918517045"><ele>91.0</ele><time>2026-04-25T06:39:49.998Z</time></trkpt><trkpt lat="46.08556891287124" lon="12.92727893976212"><ele>91.0</ele><time>2026-04-25T06:39:50.998Z</time></trkpt><trkpt lat="46.085629530092355" lon="12.927066208980916"><ele>91.0</ele><time>2026-04-25T06:39:52Z</time></trkpt><trkpt lat="46.085691008469084" lon="12.926852876779025"><ele>91.0</ele><time>2026-04-25T06:39:53Z</time></trkpt><trkpt lat="46.08575148757691" lon="12.926640631839481"><ele>91.0</ele><time>2026-04-25T06:39:54Z</time></trkpt><trkpt lat="46.08581331286727" lon="12.926426718216424"><ele>91.0</ele><time>2026-04-25T06:39:55Z</time></trkpt><trkpt lat="46.08587614618369" lon="12.926211361839053"><ele>90.66666666666666</ele><time>2026-04-25T06:39:56Z</time></trkpt><trkpt lat="46.085938648666385" lon="12.925996140867403"><ele>90.33333333333333</ele><time>2026-04-25T06:39:57Z</time></trkpt><trkpt lat="46.08599934483673" lon="12.925778363594292"><ele>90.0</ele><time>2026-04-25T06:39:58Z</time></trkpt><trkpt lat="46.08606195694316" lon="12.925561691870632"><ele>90.0</ele><time>2026-04-25T06:39:59Z</time></trkpt><trkpt lat="46.08612469560147" lon="12.925344888227993"><ele>90.0</ele><time>2026-04-25T06:40:00Z</time></trkpt><trkpt lat="46.08618872228785" lon="12.925128220900586"><ele>90.0</ele><time>2026-04-25T06:40:01Z</time></trkpt><trkpt lat="46.08625105455569" lon="12.924910305557084"><ele>91.0</ele><time>2026-04-25T06:40:02Z</time></trkpt><trkpt lat="46.08631721460713" lon="12.924692795530978"><ele>92.0</ele><time>2026-04-25T06:40:02.999Z</time></trkpt><trkpt lat="46.086382377225746" lon="12.924472246198436"><ele>93.0</ele><time>2026-04-25T06:40:03.999Z</time></trkpt><trkpt lat="46.08644422437766" lon="12.92425028260176"><ele>93.0</ele><time>2026-04-25T06:40:04.999Z</time></trkpt><trkpt lat="46.08650508592114" lon="12.924028674441688"><ele>93.0</ele><time>2026-04-25T06:40:05.999Z</time></trkpt><trkpt lat="46.08656688269228" lon="12.92380741320541"><ele>93.0</ele><time>2026-04-25T06:40:06.999Z</time></trkpt><trkpt lat="46.086628805280434" lon="12.923590114094575"><ele>92.66666666666667</ele><time>2026-04-25T06:40:07.999Z</time></trkpt><trkpt lat="46.08669098729042" lon="12.923378898300966"><ele>92.33333333333334</ele><time>2026-04-25T06:40:08.999Z</time></trkpt><trkpt lat="46.08674885516811" lon="12.923171087061764"><ele>92.0</ele><time>2026-04-25T06:40:09.999Z</time></trkpt><trkpt lat="46.08680916292392" lon="12.922964790518842"><ele>92.0</ele><time>2026-04-25T06:40:10.999Z</time></trkpt><trkpt lat="46.08686654138058" lon="12.922759955216922"><ele>92.0</ele><time>2026-04-25T06:40:11.999Z</time></trkpt><trkpt lat="46.08692452819818" lon="12.922555120891841"><ele>92.0</ele><time>2026-04-25T06:40:12.999Z</time></trkpt><trkpt lat="46.08698701203226" lon="12.922343511369196"><ele>92.33333333333334</ele><time>2026-04-25T06:40:13.999Z</time></trkpt><trkpt lat="46.08705071850959" lon="12.922125265802887"><ele>92.66666666666667</ele><time>2026-04-25T06:40:14.999Z</time></trkpt><trkpt lat="46.087115575876616" lon="12.921899772443165"><ele>93.0</ele><time>2026-04-25T06:40:15.999Z</time></trkpt><trkpt lat="46.087185895908306" lon="12.921671057133432"><ele>93.0</ele><time>2026-04-25T06:40:16.999Z</time></trkpt><trkpt lat="46.087253371429384" lon="12.921435277021192"><ele>93.0</ele><time>2026-04-25T06:40:17.999Z</time></trkpt><trkpt lat="46.08732378796992" lon="12.921193805652896"><ele>93.0</ele><time>2026-04-25T06:40:18.999Z</time></trkpt><trkpt lat="46.08739264005148" lon="12.92094476278503"><ele>92.66666666666667</ele><time>2026-04-25T06:40:19.999Z</time></trkpt><trkpt lat="46.087463406201294" lon="12.920695895911868"><ele>92.33333333333334</ele><time>2026-04-25T06:40:20.999Z</time></trkpt><trkpt lat="46.087534305314904" lon="12.920443423788932"><ele>92.0</ele><time>2026-04-25T06:40:21.999Z</time></trkpt><trkpt lat="46.08760503418437" lon="12.920181213182081"><ele>92.0</ele><time>2026-04-25T06:40:22.999Z</time></trkpt><trkpt lat="46.08768475929405" lon="12.919910096466639"><ele>92.0</ele><time>2026-04-25T06:40:23.999Z</time></trkpt><trkpt lat="46.08776796737717" lon="12.919624433613162"><ele>92.0</ele><time>2026-04-25T06:40:24.999Z</time></trkpt><trkpt lat="46.08784971677799" lon="12.919330255057899"><ele>93.0</ele><time>2026-04-25T06:40:25.999Z</time></trkpt><trkpt lat="46.087935559848816" lon="12.919029047168191"><ele>94.0</ele><time>2026-04-25T06:40:26.999Z</time></trkpt><trkpt lat="46.088021896555205" lon="12.91872389302174"><ele>94.0</ele><time>2026-04-25T06:40:27.999Z</time></trkpt><trkpt lat="46.08810789930202" lon="12.918419719044763"><ele>94.0</ele><time>2026-04-25T06:40:28.999Z</time></trkpt><trkpt lat="46.08819393560702" lon="12.91812437154199"><ele>94.33333333333333</ele><time>2026-04-25T06:40:29.999Z</time></trkpt><trkpt lat="46.08827383254695" lon="12.917830044004477"><ele>94.66666666666667</ele><time>2026-04-25T06:40:30.999Z</time></trkpt><trkpt lat="46.08835855507192" lon="12.917537388814676"><ele>95.0</ele><time>2026-04-25T06:40:31.999Z</time></trkpt><trkpt lat="46.088443510756555" lon="12.917242488862478"><ele>95.0</ele><time>2026-04-25T06:40:32.999Z</time></trkpt><trkpt lat="46.088528633104886" lon="12.916946311134312"><ele>95.0</ele><time>2026-04-25T06:40:33.999Z</time></trkpt><trkpt lat="46.0886152700904" lon="12.9166492295831"><ele>95.0</ele><time>2026-04-25T06:40:34.999Z</time></trkpt><trkpt lat="46.088700215639285" lon="12.916347709534962"><ele>94.0</ele><time>2026-04-25T06:40:35.999Z</time></trkpt><trkpt lat="46.08878648391926" lon="12.916044229749671"><ele>93.0</ele><time>2026-04-25T06:40:36.999Z</time></trkpt><trkpt lat="46.088872586704376" lon="12.915741014895222"><ele>93.0</ele><time>2026-04-25T06:40:37.999Z</time></trkpt><trkpt lat="46.08895827281705" lon="12.915439469922896"><ele>93.0</ele><time>2026-04-25T06:40:38.999Z</time></trkpt><trkpt lat="46.08904421420394" lon="12.915142399851163"><ele>93.0</ele><time>2026-04-25T06:40:39.999Z</time></trkpt><trkpt lat="46.08913009188976" lon="12.914845783677066"><ele>93.66666666666667</ele><time>2026-04-25T06:40:40.999Z</time></trkpt><trkpt lat="46.08921396594704" lon="12.914547657150795"><ele>94.33333333333334</ele><time>2026-04-25T06:40:41.999Z</time></trkpt><trkpt lat="46.08929920378393" lon="12.914250420183706"><ele>95.0</ele><time>2026-04-25T06:40:42.999Z</time></trkpt><trkpt lat="46.08938357589067" lon="12.913955270654201"><ele>95.0</ele><time>2026-04-25T06:40:43.999Z</time></trkpt><trkpt lat="46.08946828292006" lon="12.91366150485196"><ele>95.0</ele><time>2026-04-25T06:40:44.999Z</time></trkpt><trkpt lat="46.0895520298934" lon="12.913366984916143"><ele>95.0</ele><time>2026-04-25T06:40:45.999Z</time></trkpt><trkpt lat="46.089635333945935" lon="12.913074360114589"><ele>95.0</ele><time>2026-04-25T06:40:46.999Z</time></trkpt><trkpt lat="46.089717170237584" lon="12.91277961562155"><ele>95.0</ele><time>2026-04-25T06:40:47.999Z</time></trkpt><trkpt lat="46.089795701151274" lon="12.912487105725678"><ele>95.0</ele><time>2026-04-25T06:40:48.999Z</time></trkpt><trkpt lat="46.08987373747814" lon="12.912198922982052"><ele>94.66666666666667</ele><time>2026-04-25T06:40:49.999Z</time></trkpt><trkpt lat="46.089950564125836" lon="12.911918702611006"><ele>94.33333333333333</ele><time>2026-04-25T06:40:50.999Z</time></trkpt><trkpt lat="46.090024086903696" lon="12.911650401256697"><ele>94.0</ele><time>2026-04-25T06:40:51.999Z</time></trkpt><trkpt lat="46.09009711566736" lon="12.91139338373412"><ele>93.66666666666666</ele><time>2026-04-25T06:40:52.999Z</time></trkpt><trkpt lat="46.090171410165624" lon="12.91114780130428"><ele>93.33333333333333</ele><time>2026-04-25T06:40:54Z</time></trkpt><trkpt lat="46.09024780285486" lon="12.910912396085621"><ele>93.0</ele><time>2026-04-25T06:40:55Z</time></trkpt><trkpt lat="46.090330290617345" lon="12.910688325697924"><ele>92.66666666666667</ele><time>2026-04-25T06:40:56Z</time></trkpt><trkpt lat="46.0904246122545" lon="12.910477113356048"><ele>92.33333333333334</ele><time>2026-04-25T06:40:57Z</time></trkpt><trkpt lat="46.090529330273796" lon="12.910276402098756"><ele>92.0</ele><time>2026-04-25T06:40:58Z</time></trkpt><trkpt lat="46.090637908198715" lon="12.910081048584704"><ele>93.0</ele><time>2026-04-25T06:40:59Z</time></trkpt><trkpt lat="46.090756017766076" lon="12.909893635703446"><ele>94.0</ele><time>2026-04-25T06:41:00Z</time></trkpt><trkpt lat="46.09088485014758" lon="12.909716387162412"><ele>95.0</ele><time>2026-04-25T06:41:01Z</time></trkpt><trkpt lat="46.09102212931839" lon="12.909547566781315"><ele>95.66666666666667</ele><time>2026-04-25T06:41:02Z</time></trkpt><trkpt lat="46.09116866315513" lon="12.909393575492302"><ele>96.33333333333334</ele><time>2026-04-25T06:41:03Z</time></trkpt><trkpt lat="46.09132259009988" lon="12.90925497842727"><ele>97.0</ele><time>2026-04-25T06:41:04Z</time></trkpt><trkpt lat="46.091483293339394" lon="12.909132233489204"><ele>98.33333333333334</ele><time>2026-04-25T06:41:05Z</time></trkpt><trkpt lat="46.09164773714032" lon="12.909024466937066"><ele>99.66666666666666</ele><time>2026-04-25T06:41:06Z</time></trkpt><trkpt lat="46.09181684244831" lon="12.908933504384299"><ele>101.0</ele><time>2026-04-25T06:41:07Z</time></trkpt><trkpt lat="46.09198928762362" lon="12.908862226554037"><ele>101.0</ele><time>2026-04-25T06:41:08Z</time></trkpt><trkpt lat="46.09216388533954" lon="12.908809000009423"><ele>101.0</ele><time>2026-04-25T06:41:09Z</time></trkpt><trkpt lat="46.09233869492742" lon="12.908776516090592"><ele>101.0</ele><time>2026-04-25T06:41:10Z</time></trkpt><trkpt lat="46.09251436444763" lon="12.908764779253083"><ele>101.66666666666666</ele><time>2026-04-25T06:41:11Z</time></trkpt><trkpt lat="46.09268891944015" lon="12.908766530151725"><ele>102.33333333333334</ele><time>2026-04-25T06:41:12Z</time></trkpt><trkpt lat="46.09286102928826" lon="12.908771608868992"><ele>103.0</ele><time>2026-04-25T06:41:13Z</time></trkpt><trkpt lat="46.09302872016432" lon="12.908768819491716"><ele>103.0</ele><time>2026-04-25T06:41:14Z</time></trkpt><trkpt lat="46.09319592306766" lon="12.908751316964207"><ele>103.0</ele><time>2026-04-25T06:41:15Z</time></trkpt><trkpt lat="46.0933624103405" lon="12.908713548969226"><ele>103.0</ele><time>2026-04-25T06:41:16Z</time></trkpt><trkpt lat="46.093529158193434" lon="12.908649447907486"><ele>102.0</ele><time>2026-04-25T06:41:17Z</time></trkpt><trkpt lat="46.09369576133174" lon="12.908557987722698"><ele>101.0</ele><time>2026-04-25T06:41:18Z</time></trkpt><trkpt lat="46.09385974903475" lon="12.908448583251047"><ele>100.0</ele><time>2026-04-25T06:41:19Z</time></trkpt><trkpt lat="46.094024407129616" lon="12.908330183008452"><ele>103.33333333333334</ele><time>2026-04-25T06:41:20Z</time></trkpt><trkpt lat="46.09419488908346" lon="12.90822561927024"><ele>106.66666666666666</ele><time>2026-04-25T06:41:21Z</time></trkpt><trkpt lat="46.094371701863665" lon="12.908140100701974"><ele>110.0</ele><time>2026-04-25T06:41:22Z</time></trkpt><trkpt lat="46.09455205561001" lon="12.908081061519816"><ele>110.0</ele><time>2026-04-25T06:41:23Z</time></trkpt><trkpt lat="46.094729160357396" lon="12.908029858997445"><ele>110.0</ele><time>2026-04-25T06:41:24Z</time></trkpt><trkpt lat="46.09490372462668" lon="12.907981206525173"><ele>110.0</ele><time>2026-04-25T06:41:25Z</time></trkpt><trkpt lat="46.095071912129065" lon="12.907925274158988"><ele>107.66666666666666</ele><time>2026-04-25T06:41:26Z</time></trkpt><trkpt lat="46.095236335692476" lon="12.907853652058748"><ele>105.33333333333334</ele><time>2026-04-25T06:41:27Z</time></trkpt><trkpt lat="46.09539786437129" lon="12.90777040338848"><ele>103.0</ele><time>2026-04-25T06:41:28Z</time></trkpt><trkpt lat="46.09555792252911" lon="12.907671343796139"><ele>106.33333333333334</ele><time>2026-04-25T06:41:29Z</time></trkpt><trkpt lat="46.09571243239064" lon="12.907551610907976"><ele>109.66666666666666</ele><time>2026-04-25T06:41:30Z</time></trkpt><trkpt lat="46.095861177714475" lon="12.90741573410742"><ele>113.0</ele><time>2026-04-25T06:41:31Z</time></trkpt><trkpt lat="46.0960084699258" lon="12.907275789627532"><ele>113.0</ele><time>2026-04-25T06:41:32Z</time></trkpt><trkpt lat="46.09615871028213" lon="12.907142773660851"><ele>113.0</ele><time>2026-04-25T06:41:33Z</time></trkpt><trkpt lat="46.096313514875526" lon="12.907020489180868"><ele>113.0</ele><time>2026-04-25T06:41:34Z</time></trkpt><trkpt lat="46.09647241358761" lon="12.906916964420876"><ele>114.0</ele><time>2026-04-25T06:41:35Z</time></trkpt><trkpt lat="46.0966383156508" lon="12.906822424072178"><ele>115.0</ele><time>2026-04-25T06:41:36Z</time></trkpt><trkpt lat="46.096808243850106" lon="12.906737298426979"><ele>116.0</ele><time>2026-04-25T06:41:37Z</time></trkpt><trkpt lat="46.0969820730409" lon="12.906672163996824"><ele>116.0</ele><time>2026-04-25T06:41:38Z</time></trkpt><trkpt lat="46.09715883577513" lon="12.906623647962899"><ele>116.0</ele><time>2026-04-25T06:41:39Z</time></trkpt><trkpt lat="46.09733637845884" lon="12.906587534344416"><ele>116.0</ele><time>2026-04-25T06:41:40Z</time></trkpt><trkpt lat="46.09751533339842" lon="12.906556625014467"><ele>115.33333333333333</ele><time>2026-04-25T06:41:41Z</time></trkpt><trkpt lat="46.09769568182126" lon="12.90653345366181"><ele>114.66666666666666</ele><time>2026-04-25T06:41:42Z</time></trkpt><trkpt lat="46.09787681601402" lon="12.906514874924246"><ele>114.0</ele><time>2026-04-25T06:41:43Z</time></trkpt><trkpt lat="46.098057020486834" lon="12.906501756180813"><ele>114.0</ele><time>2026-04-25T06:41:44Z</time></trkpt><trkpt lat="46.09823568139877" lon="12.906505476328823"><ele>114.0</ele><time>2026-04-25T06:41:45Z</time></trkpt><trkpt lat="46.09841215496477" lon="12.90652701048528"><ele>114.0</ele><time>2026-04-25T06:41:46Z</time></trkpt><trkpt lat="46.098585710647484" lon="12.906552339559012"><ele>114.66666666666666</ele><time>2026-04-25T06:41:47Z</time></trkpt><trkpt lat="46.098758747333456" lon="12.90657076936945"><ele>115.33333333333333</ele><time>2026-04-25T06:41:48Z</time></trkpt><trkpt lat="46.09893141272847" lon="12.906583164804623"><ele>116.0</ele><time>2026-04-25T06:41:49Z</time></trkpt><trkpt lat="46.09910686512509" lon="12.906588878732528"><ele>116.66666666666666</ele><time>2026-04-25T06:41:50Z</time></trkpt><trkpt lat="46.09928510162068" lon="12.90658906816243"><ele>117.33333333333334</ele><time>2026-04-25T06:41:51Z</time></trkpt><trkpt lat="46.09946454114691" lon="12.906590793660186"><ele>118.0</ele><time>2026-04-25T06:41:51.999Z</time></trkpt><trkpt lat="46.09964418707728" lon="12.906592032230032"><ele>118.0</ele><time>2026-04-25T06:41:52.999Z</time></trkpt><trkpt lat="46.09982252102161" lon="12.906594357337905"><ele>118.0</ele><time>2026-04-25T06:41:53.999Z</time></trkpt><trkpt lat="46.099998866678725" lon="12.9065951356746"><ele>118.0</ele><time>2026-04-25T06:41:54.999Z</time></trkpt><trkpt lat="46.10016905356079" lon="12.906601705808075"><ele>119.0</ele><time>2026-04-25T06:41:55.999Z</time></trkpt><trkpt lat="46.1003365485716" lon="12.906617791179192"><ele>120.0</ele><time>2026-04-25T06:41:56.999Z</time></trkpt><trkpt lat="46.100500431156966" lon="12.90663167989762"><ele>121.0</ele><time>2026-04-25T06:41:58.001Z</time></trkpt><trkpt lat="46.100664592120324" lon="12.906643549874595"><ele>121.33333333333334</ele><time>2026-04-25T06:41:59.001Z</time></trkpt><trkpt lat="46.100828301624276" lon="12.90665564757203"><ele>121.66666666666666</ele><time>2026-04-25T06:42:00Z</time></trkpt><trkpt lat="46.10098805464452" lon="12.906666836322843"><ele>122.0</ele><time>2026-04-25T06:42:01.001Z</time></trkpt><trkpt lat="46.10113791371963" lon="12.906672445853207"><ele>122.0</ele><time>2026-04-25T06:42:02.001Z</time></trkpt><trkpt lat="46.10128087615956" lon="12.906670554011189"><ele>122.0</ele><time>2026-04-25T06:42:03Z</time></trkpt><trkpt lat="46.1014115116702" lon="12.906660495996137"><ele>122.0</ele><time>2026-04-25T06:42:04Z</time></trkpt><trkpt lat="46.101534892453934" lon="12.906644972345699"><ele>122.0</ele><time>2026-04-25T06:42:05.001Z</time></trkpt><trkpt lat="46.10165134606913" lon="12.906618732109196"><ele>122.5</ele><time>2026-04-25T06:42:06Z</time></trkpt><trkpt lat="46.101767018400295" lon="12.906583483104777"><ele>123.0</ele><time>2026-04-25T06:42:07Z</time></trkpt><trkpt lat="46.10188625583598" lon="12.906538756175944"><ele>123.5</ele><time>2026-04-25T06:42:08.001Z</time></trkpt><trkpt lat="46.101998201442534" lon="12.906492240553623"><ele>124.0</ele><time>2026-04-25T06:42:09Z</time></trkpt><trkpt lat="46.102096995870255" lon="12.906447252673418"><ele>124.0</ele><time>2026-04-25T06:42:10Z</time></trkpt><trkpt lat="46.10219302378654" lon="12.90641756749081"><ele>124.0</ele><time>2026-04-25T06:42:11.001Z</time></trkpt><trkpt lat="46.10228521932592" lon="12.906424469008995"><ele>124.0</ele><time>2026-04-25T06:42:12Z</time></trkpt><trkpt lat="46.10237304072669" lon="12.906458812790339"><ele>124.0</ele><time>2026-04-25T06:42:13Z</time></trkpt><trkpt lat="46.10245390364125" lon="12.906487374677809"><ele>124.0</ele><time>2026-04-25T06:42:14Z</time></trkpt><trkpt lat="46.10254201472853" lon="12.906475638046942"><ele>124.2</ele><time>2026-04-25T06:42:15Z</time></trkpt><trkpt lat="46.1026116935333" lon="12.906402086827033"><ele>124.4</ele><time>2026-04-25T06:42:16Z</time></trkpt><trkpt lat="46.10265463952607" lon="12.906286494361911"><ele>124.6</ele><time>2026-04-25T06:42:17Z</time></trkpt><trkpt lat="46.10266729283504" lon="12.906153058713894"><ele>124.8</ele><time>2026-04-25T06:42:18Z</time></trkpt><trkpt lat="46.10264568395635" lon="12.906024015128573"><ele>125.0</ele><time>2026-04-25T06:42:19Z</time></trkpt><trkpt lat="46.10258309809236" lon="12.905923439812947"><ele>124.8</ele><time>2026-04-25T06:42:20Z</time></trkpt><trkpt lat="46.10249542504925" lon="12.905853003118729"><ele>124.6</ele><time>2026-04-25T06:42:21Z</time></trkpt><trkpt lat="46.10240389589353" lon="12.905782225160777"><ele>124.4</ele><time>2026-04-25T06:42:22Z</time></trkpt><trkpt lat="46.10233109878173" lon="12.905685846908135"><ele>124.2</ele><time>2026-04-25T06:42:23Z</time></trkpt><trkpt lat="46.10228312362845" lon="12.905586295782086"><ele>124.0</ele><time>2026-04-25T06:42:24Z</time></trkpt><trkpt lat="46.102236380064866" lon="12.905514396539623"><ele>123.80000000000001</ele><time>2026-04-25T06:42:25Z</time></trkpt><trkpt lat="46.10221264469742" lon="12.90542837902894"><ele>123.60000000000001</ele><time>2026-04-25T06:42:26Z</time></trkpt><trkpt lat="46.102169297222545" lon="12.90533784425187"><ele>123.4</ele><time>2026-04-25T06:42:28Z</time></trkpt><trkpt lat="46.102034498619915" lon="12.905415309759466"><ele>123.2</ele><time>2026-04-25T06:42:30Z</time></trkpt><trkpt lat="46.101944401335615" lon="12.905481942232415"><ele>123.0</ele><time>2026-04-25T06:42:32Z</time></trkpt><trkpt lat="46.101870516559494" lon="12.905530483714017"><ele>123.0</ele><time>2026-04-25T06:42:34Z</time></trkpt><trkpt lat="46.101811695333936" lon="12.905567401835308"><ele>123.0</ele><time>2026-04-25T06:42:36Z</time></trkpt><trkpt lat="46.101722748249884" lon="12.905629614367388"><ele>123.0</ele><time>2026-04-25T06:42:39Z</time></trkpt><trkpt lat="46.10164901645226" lon="12.90569063892661"><ele>123.0</ele><time>2026-04-25T06:42:41Z</time></trkpt><trkpt lat="46.101587444033434" lon="12.905716786708739"><ele>123.0</ele><time>2026-04-25T06:42:58Z</time></trkpt></trkseg><trkseg><trkpt lat="46.10153103038873" lon="12.90577876237538"><ele>124.00000000000001</ele><time>2026-04-25T07:41:32Z</time></trkpt><trkpt lat="46.101465499218456" lon="12.905841730629447"><ele>124.0</ele><time>2026-04-25T07:41:34Z</time></trkpt><trkpt lat="46.10143432402655" lon="12.905922166026215"><ele>124.0</ele><time>2026-04-25T07:41:36Z</time></trkpt><trkpt lat="46.101465973348546" lon="12.90601290759707"><ele>124.0</ele><time>2026-04-25T07:41:39Z</time></trkpt><trkpt lat="46.10153220715739" lon="12.906097190056984"><ele>124.00000000000001</ele><time>2026-04-25T07:42:51Z</time></trkpt><trkpt lat="46.10161435398474" lon="12.90601572326915"><ele>124.0</ele><time>2026-04-25T07:42:53Z</time></trkpt><trkpt lat="46.10169068292127" lon="12.9059512564255"><ele>123.83333333333334</ele><time>2026-04-25T07:42:55Z</time></trkpt><trkpt lat="46.101745326910084" lon="12.905891558887928"><ele>123.66666666666667</ele><time>2026-04-25T07:42:57Z</time></trkpt><trkpt lat="46.10181748794017" lon="12.90583307286971"><ele>123.5</ele><time>2026-04-25T07:43:00Z</time></trkpt><trkpt lat="46.10188252251085" lon="12.905796534256634"><ele>123.33333333333334</ele><time>2026-04-25T07:43:03Z</time></trkpt><trkpt lat="46.1019673145919" lon="12.905727324377967"><ele>123.16666666666667</ele><time>2026-04-25T07:43:06Z</time></trkpt><trkpt lat="46.102032249204065" lon="12.905664377879098"><ele>123.0</ele><time>2026-04-25T07:43:09Z</time></trkpt><trkpt lat="46.102093694594295" lon="12.90558827574834"><ele>123.0</ele><time>2026-04-25T07:43:13Z</time></trkpt><trkpt lat="46.10215942818996" lon="12.905558055271719"><ele>123.00000000000001</ele><time>2026-04-25T07:43:16Z</time></trkpt><trkpt lat="46.10223188869254" lon="12.90564831175033"><ele>123.00000000000001</ele><time>2026-04-25T07:43:19Z</time></trkpt><trkpt lat="46.102244286707986" lon="12.905760874170232"><ele>123.0</ele><time>2026-04-25T07:43:22Z</time></trkpt><trkpt lat="46.102262114402464" lon="12.905887558279709"><ele>123.0</ele><time>2026-04-25T07:43:25Z</time></trkpt><trkpt lat="46.102236849870806" lon="12.906053720590236"><ele>123.16666666666667</ele><time>2026-04-25T07:43:27Z</time></trkpt><trkpt lat="46.102224502150804" lon="12.906172458617249"><ele>123.33333333333334</ele><time>2026-04-25T07:43:28Z</time></trkpt><trkpt lat="46.10223349657652" lon="12.906295149046677"><ele>123.5</ele><time>2026-04-25T07:43:29Z</time></trkpt><trkpt lat="46.10227018043467" lon="12.906405251177917"><ele>123.66666666666667</ele><time>2026-04-25T07:43:30Z</time></trkpt><trkpt lat="46.10233302909924" lon="12.906490599246286"><ele>123.83333333333334</ele><time>2026-04-25T07:43:31Z</time></trkpt><trkpt lat="46.10241357717594" lon="12.906537382899135"><ele>124.0</ele><time>2026-04-25T07:43:32Z</time></trkpt><trkpt lat="46.10249545788603" lon="12.906539253640249"><ele>124.16666666666667</ele><time>2026-04-25T07:43:33Z</time></trkpt><trkpt lat="46.102568156404864" lon="12.906503021979638"><ele>124.33333333333334</ele><time>2026-04-25T07:43:34Z</time></trkpt><trkpt lat="46.10262969872563" lon="12.906434897497114"><ele>124.5</ele><time>2026-04-25T07:43:35Z</time></trkpt><trkpt lat="46.10267695351199" lon="12.90634033313272"><ele>124.66666666666666</ele><time>2026-04-25T07:43:36Z</time></trkpt><trkpt lat="46.10271287255287" lon="12.906219489193454"><ele>124.83333333333333</ele><time>2026-04-25T07:43:37Z</time></trkpt><trkpt lat="46.102745652783916" lon="12.906080419736814"><ele>125.0</ele><time>2026-04-25T07:43:38Z</time></trkpt><trkpt lat="46.102800522832915" lon="12.905956384454475"><ele>124.8</ele><time>2026-04-25T07:43:39Z</time></trkpt><trkpt lat="46.10287276773566" lon="12.905849409936703"><ele>124.6</ele><time>2026-04-25T07:43:40Z</time></trkpt><trkpt lat="46.102956963001624" lon="12.905753090175757"><ele>124.4</ele><time>2026-04-25T07:43:41Z</time></trkpt><trkpt lat="46.10304154449486" lon="12.905654222186467"><ele>124.2</ele><time>2026-04-25T07:43:42Z</time></trkpt><trkpt lat="46.103109984640945" lon="12.905569437408975"><ele>124.0</ele><time>2026-04-25T07:43:43Z</time></trkpt><trkpt lat="46.10316987290184" lon="12.90549360052602"><ele>124.00000000000001</ele><time>2026-04-25T07:43:44Z</time></trkpt><trkpt lat="46.10321924471458" lon="12.90541720598631"><ele>124.0</ele><time>2026-04-25T07:43:45Z</time></trkpt><trkpt lat="46.10327279684845" lon="12.905335455782303"><ele>124.0</ele><time>2026-04-25T07:43:46Z</time></trkpt><trkpt lat="46.10332987436051" lon="12.905248750340293"><ele>124.0</ele><time>2026-04-25T07:43:47Z</time></trkpt><trkpt lat="46.10338722910744" lon="12.905151113113256"><ele>124.00000000000001</ele><time>2026-04-25T07:43:48Z</time></trkpt><trkpt lat="46.10344936206224" lon="12.905041838374245"><ele>124.0</ele><time>2026-04-25T07:43:49Z</time></trkpt><trkpt lat="46.103511471198985" lon="12.904924186953613"><ele>124.00000000000001</ele><time>2026-04-25T07:43:50Z</time></trkpt><trkpt lat="46.10356780074182" lon="12.904802314505853"><ele>124.0</ele><time>2026-04-25T07:43:51Z</time></trkpt><trkpt lat="46.10361488753745" lon="12.90468427577101"><ele>124.0</ele><time>2026-04-25T07:43:52Z</time></trkpt><trkpt lat="46.10365431310234" lon="12.904570809231721"><ele>124.0</ele><time>2026-04-25T07:43:53Z</time></trkpt><trkpt lat="46.10368921681775" lon="12.904463903661473"><ele>124.00000000000001</ele><time>2026-04-25T07:43:54Z</time></trkpt><trkpt lat="46.10372110011483" lon="12.904359350401883"><ele>124.0</ele><time>2026-04-25T07:43:55Z</time></trkpt><trkpt lat="46.10374953882731" lon="12.904245310896385"><ele>124.00000000000001</ele><time>2026-04-25T07:43:56Z</time></trkpt><trkpt lat="46.103771874582584" lon="12.90412690940964"><ele>124.0</ele><time>2026-04-25T07:43:57Z</time></trkpt><trkpt lat="46.10379088215895" lon="12.904007582302377"><ele>124.0</ele><time>2026-04-25T07:43:58Z</time></trkpt><trkpt lat="46.103805910097265" lon="12.90388915128703"><ele>124.0</ele><time>2026-04-25T07:43:59Z</time></trkpt><trkpt lat="46.103814164912485" lon="12.90377002536818"><ele>124.00000000000001</ele><time>2026-04-25T07:44:00Z</time></trkpt><trkpt lat="46.103819750698825" lon="12.903648490677474"><ele>124.0</ele><time>2026-04-25T07:44:01Z</time></trkpt><trkpt lat="46.103826339536845" lon="12.90352368417563"><ele>124.00000000000001</ele><time>2026-04-25T07:44:02Z</time></trkpt><trkpt lat="46.10383168032643" lon="12.903400433598499"><ele>124.0</ele><time>2026-04-25T07:44:03Z</time></trkpt><trkpt lat="46.10383562804509" lon="12.90327965367865"><ele>124.0</ele><time>2026-04-25T07:44:04Z</time></trkpt><trkpt lat="46.1038399388702" lon="12.903158397006973"><ele>124.0</ele><time>2026-04-25T07:44:05Z</time></trkpt><trkpt lat="46.10384560561659" lon="12.903038912670796"><ele>124.00000000000001</ele><time>2026-04-25T07:44:06Z</time></trkpt><trkpt lat="46.10385129885438" lon="12.902923669448901"><ele>124.0</ele><time>2026-04-25T07:44:07Z</time></trkpt><trkpt lat="46.10385607247782" lon="12.90281162394924"><ele>124.00000000000001</ele><time>2026-04-25T07:44:08Z</time></trkpt><trkpt lat="46.10385984963296" lon="12.902708228333795"><ele>124.0</ele><time>2026-04-25T07:44:09Z</time></trkpt><trkpt lat="46.103866514322696" lon="12.902540535781192"><ele>124.0</ele><time>2026-04-25T07:44:11Z</time></trkpt><trkpt lat="46.103868806054955" lon="12.902374388509982"><ele>124.0</ele><time>2026-04-25T07:44:13Z</time></trkpt><trkpt lat="46.103873832152544" lon="12.902275143571078"><ele>124.00000000000001</ele><time>2026-04-25T07:44:14Z</time></trkpt><trkpt lat="46.10387903656995" lon="12.902176044376354"><ele>124.0</ele><time>2026-04-25T07:44:15Z</time></trkpt><trkpt lat="46.10388156230815" lon="12.902081203511251"><ele>124.00000000000001</ele><time>2026-04-25T07:44:16Z</time></trkpt><trkpt lat="46.103883502732025" lon="12.901985420451966"><ele>124.0</ele><time>2026-04-25T07:44:17Z</time></trkpt><trkpt lat="46.10388651212102" lon="12.901889982166928"><ele>124.0</ele><time>2026-04-25T07:44:18Z</time></trkpt><trkpt lat="46.103890751131466" lon="12.901797248944359"><ele>124.0</ele><time>2026-04-25T07:44:19Z</time></trkpt><trkpt lat="46.10389771605734" lon="12.90163656112621"><ele>124.00000000000001</ele><time>2026-04-25T07:44:21Z</time></trkpt><trkpt lat="46.1038999096204" lon="12.901526246929926"><ele>124.0</ele><time>2026-04-25T07:44:23Z</time></trkpt><trkpt lat="46.103921275044286" lon="12.901417274322652"><ele>124.00000000000001</ele><time>2026-04-25T07:44:26Z</time></trkpt><trkpt lat="46.10391030192385" lon="12.90131806421499"><ele>124.0</ele><time>2026-04-25T07:44:30Z</time></trkpt><trkpt lat="46.1039076847528" lon="12.901202367121972"><ele>124.0</ele><time>2026-04-25T07:44:34Z</time></trkpt><trkpt lat="46.10391844494594" lon="12.901048847814865"><ele>124.0</ele><time>2026-04-25T07:44:36Z</time></trkpt><trkpt lat="46.10392441399949" lon="12.90095546875639"><ele>124.00000000000001</ele><time>2026-04-25T07:44:37Z</time></trkpt><trkpt lat="46.10392942195646" lon="12.900859187364787"><ele>124.0</ele><time>2026-04-25T07:44:38Z</time></trkpt><trkpt lat="46.1039357286847" lon="12.900673673744627"><ele>124.00000000000001</ele><time>2026-04-25T07:44:40Z</time></trkpt><trkpt lat="46.103957638657434" lon="12.900576143092367"><ele>124.0</ele><time>2026-04-25T07:44:41Z</time></trkpt><trkpt lat="46.103960606303936" lon="12.9004751404619"><ele>124.0</ele><time>2026-04-25T07:44:42Z</time></trkpt><trkpt lat="46.10394879662351" lon="12.90036952408792"><ele>124.0</ele><time>2026-04-25T07:44:43Z</time></trkpt><trkpt lat="46.103952309386244" lon="12.900261581796778"><ele>124.00000000000001</ele><time>2026-04-25T07:44:44Z</time></trkpt><trkpt lat="46.10395686337993" lon="12.900149532833039"><ele>124.0</ele><time>2026-04-25T07:44:45Z</time></trkpt><trkpt lat="46.103963513228805" lon="12.900028539146408"><ele>124.0</ele><time>2026-04-25T07:44:46Z</time></trkpt><trkpt lat="46.10396933143352" lon="12.899900690106437"><ele>124.0</ele><time>2026-04-25T07:44:47Z</time></trkpt><trkpt lat="46.103974679173824" lon="12.899767808148544"><ele>124.0</ele><time>2026-04-25T07:44:48Z</time></trkpt><trkpt lat="46.103981643293636" lon="12.899628455749063"><ele>124.0</ele><time>2026-04-25T07:44:49Z</time></trkpt><trkpt lat="46.10398644858135" lon="12.899480038842587"><ele>124.0</ele><time>2026-04-25T07:44:50Z</time></trkpt><trkpt lat="46.1039908371766" lon="12.8993269960774"><ele>124.0</ele><time>2026-04-25T07:44:51Z</time></trkpt><trkpt lat="46.10399703249295" lon="12.899166179635678"><ele>124.0</ele><time>2026-04-25T07:44:52Z</time></trkpt><trkpt lat="46.10400671745425" lon="12.899002707890338"><ele>124.0</ele><time>2026-04-25T07:44:53Z</time></trkpt><trkpt lat="46.10401557572189" lon="12.89884377700234"><ele>124.0</ele><time>2026-04-25T07:44:54Z</time></trkpt><trkpt lat="46.104023478468285" lon="12.898684853316762"><ele>124.0</ele><time>2026-04-25T07:44:55Z</time></trkpt><trkpt lat="46.10403389873482" lon="12.89853825595601"><ele>124.0</ele><time>2026-04-25T07:44:56Z</time></trkpt><trkpt lat="46.10406148938465" lon="12.898399987844657"><ele>124.0</ele><time>2026-04-25T07:44:57Z</time></trkpt><trkpt lat="46.104075660448046" lon="12.898259381565166"><ele>124.0</ele><time>2026-04-25T07:44:58Z</time></trkpt><trkpt lat="46.1040949913573" lon="12.89810790063785"><ele>124.0</ele><time>2026-04-25T07:44:59Z</time></trkpt><trkpt lat="46.104103246038036" lon="12.897938088962679"><ele>124.0</ele><time>2026-04-25T07:45:00Z</time></trkpt><trkpt lat="46.104132910656475" lon="12.897773917037037"><ele>124.0</ele><time>2026-04-25T07:45:01Z</time></trkpt><trkpt lat="46.10416467067753" lon="12.897608609901043"><ele>124.0</ele><time>2026-04-25T07:45:02Z</time></trkpt><trkpt lat="46.10420013179901" lon="12.897444608989096"><ele>124.0</ele><time>2026-04-25T07:45:03Z</time></trkpt><trkpt lat="46.10423983852422" lon="12.897283722349817"><ele>124.0</ele><time>2026-04-25T07:45:04Z</time></trkpt><trkpt lat="46.104280740079574" lon="12.897125581303584"><ele>124.0</ele><time>2026-04-25T07:45:05Z</time></trkpt><trkpt lat="46.10432137700565" lon="12.896970415139451"><ele>124.0</ele><time>2026-04-25T07:45:06Z</time></trkpt><trkpt lat="46.10436853089852" lon="12.896820068744976"><ele>124.0</ele><time>2026-04-25T07:45:07Z</time></trkpt><trkpt lat="46.10441675139014" lon="12.896668818492648"><ele>124.0</ele><time>2026-04-25T07:45:08Z</time></trkpt><trkpt lat="46.104481869704536" lon="12.896528563003125"><ele>124.0</ele><time>2026-04-25T07:45:09Z</time></trkpt><trkpt lat="46.10453192764548" lon="12.896378184680293"><ele>124.0</ele><time>2026-04-25T07:45:10Z</time></trkpt><trkpt lat="46.10458225656618" lon="12.896228882719084"><ele>124.0</ele><time>2026-04-25T07:45:11Z</time></trkpt><trkpt lat="46.10461884863993" lon="12.896069282504278"><ele>124.0</ele><time>2026-04-25T07:45:12Z</time></trkpt><trkpt lat="46.104669335698205" lon="12.895920316562263"><ele>124.25</ele><time>2026-04-25T07:45:13Z</time></trkpt><trkpt lat="46.10471999130674" lon="12.895771130534797"><ele>124.5</ele><time>2026-04-25T07:45:14Z</time></trkpt><trkpt lat="46.104770926796874" lon="12.895621284208879"><ele>124.75</ele><time>2026-04-25T07:45:15Z</time></trkpt><trkpt lat="46.10482009906199" lon="12.895471523415601"><ele>125.0</ele><time>2026-04-25T07:45:16Z</time></trkpt><trkpt lat="46.10487071702723" lon="12.89532259827835"><ele>125.0</ele><time>2026-04-25T07:45:17Z</time></trkpt><trkpt lat="46.10492018958592" lon="12.895177011166478"><ele>125.0</ele><time>2026-04-25T07:45:18Z</time></trkpt><trkpt lat="46.10496773501567" lon="12.895035716502216"><ele>125.0</ele><time>2026-04-25T07:45:19Z</time></trkpt><trkpt lat="46.10501475705279" lon="12.894896835325573"><ele>125.0</ele><time>2026-04-25T07:45:20Z</time></trkpt><trkpt lat="46.105073358467685" lon="12.894770498132253"><ele>125.0</ele><time>2026-04-25T07:45:21Z</time></trkpt><trkpt lat="46.10511891185316" lon="12.894635765321139"><ele>124.8</ele><time>2026-04-25T07:45:22Z</time></trkpt><trkpt lat="46.10516389296255" lon="12.894503806970187"><ele>124.6</ele><time>2026-04-25T07:45:23Z</time></trkpt><trkpt lat="46.10520493887623" lon="12.894381666805371"><ele>124.4</ele><time>2026-04-25T07:45:24Z</time></trkpt><trkpt lat="46.105241206333545" lon="12.894261328475789"><ele>124.2</ele><time>2026-04-25T07:45:25Z</time></trkpt><trkpt lat="46.105262803230076" lon="12.894130369089078"><ele>124.0</ele><time>2026-04-25T07:45:26Z</time></trkpt><trkpt lat="46.10529459497363" lon="12.894019191176818"><ele>123.83333333333334</ele><time>2026-04-25T07:45:27Z</time></trkpt><trkpt lat="46.105322539852516" lon="12.89392343129675"><ele>123.66666666666667</ele><time>2026-04-25T07:45:28Z</time></trkpt><trkpt lat="46.10535302390025" lon="12.893824538292693"><ele>123.5</ele><time>2026-04-25T07:45:29Z</time></trkpt><trkpt lat="46.1053837988811" lon="12.893729158671812"><ele>123.33333333333334</ele><time>2026-04-25T07:45:30Z</time></trkpt><trkpt lat="46.10542709110081" lon="12.89364408965643"><ele>123.16666666666667</ele><time>2026-04-25T07:45:31Z</time></trkpt><trkpt lat="46.1054946591169" lon="12.893582338615396"><ele>123.0</ele><time>2026-04-25T07:45:32Z</time></trkpt><trkpt lat="46.105569883706735" lon="12.893530089188081"><ele>123.0</ele><time>2026-04-25T07:45:33Z</time></trkpt><trkpt lat="46.105638754405454" lon="12.893479583722847"><ele>123.0</ele><time>2026-04-25T07:45:34Z</time></trkpt><trkpt lat="46.10566709147011" lon="12.893354990392002"><ele>123.0</ele><time>2026-04-25T07:45:35Z</time></trkpt><trkpt lat="46.105660873596" lon="12.893235796933348"><ele>123.0</ele><time>2026-04-25T07:45:36Z</time></trkpt><trkpt lat="46.1056227745343" lon="12.893125151672681"><ele>123.0</ele><time>2026-04-25T07:45:37Z</time></trkpt><trkpt lat="46.10555509600788" lon="12.893052196171931"><ele>123.0</ele><time>2026-04-25T07:45:38Z</time></trkpt><trkpt lat="46.105465091484206" lon="12.89303386084556"><ele>123.0</ele><time>2026-04-25T07:45:39Z</time></trkpt><trkpt lat="46.10536637008098" lon="12.89303770909256"><ele>123.00000000000001</ele><time>2026-04-25T07:45:40Z</time></trkpt><trkpt lat="46.10526749670895" lon="12.893000634029935"><ele>123.00000000000001</ele><time>2026-04-25T07:45:41Z</time></trkpt><trkpt lat="46.10517100389179" lon="12.892913962626519"><ele>123.0</ele><time>2026-04-25T07:45:42Z</time></trkpt><trkpt lat="46.105068876323756" lon="12.892836295089847"><ele>123.0</ele><time>2026-04-25T07:45:43Z</time></trkpt><trkpt lat="46.10499186201142" lon="12.892699182959939"><ele>123.2</ele><time>2026-04-25T07:45:44Z</time></trkpt><trkpt lat="46.1049046187838" lon="12.892598475090727"><ele>123.4</ele><time>2026-04-25T07:45:45Z</time></trkpt><trkpt lat="46.104816856925936" lon="12.892502804355072"><ele>123.60000000000001</ele><time>2026-04-25T07:45:46Z</time></trkpt><trkpt lat="46.104727194984115" lon="12.892411337826108"><ele>123.80000000000001</ele><time>2026-04-25T07:45:47Z</time></trkpt><trkpt lat="46.104636374459105" lon="12.892321763536406"><ele>124.0</ele><time>2026-04-25T07:45:48Z</time></trkpt><trkpt lat="46.10454125811217" lon="12.89224139842341"><ele>124.2</ele><time>2026-04-25T07:45:49Z</time></trkpt><trkpt lat="46.10444111541233" lon="12.892173622653706"><ele>124.4</ele><time>2026-04-25T07:45:50Z</time></trkpt><trkpt lat="46.10434833532453" lon="12.892115126247692"><ele>124.6</ele><time>2026-04-25T07:45:51Z</time></trkpt><trkpt lat="46.104251591511" lon="12.892060357308758"><ele>124.8</ele><time>2026-04-25T07:45:52Z</time></trkpt><trkpt lat="46.104150858452314" lon="12.892005698469408"><ele>125.0</ele><time>2026-04-25T07:45:53Z</time></trkpt><trkpt lat="46.10405058972317" lon="12.891955510541091"><ele>124.5</ele><time>2026-04-25T07:45:54Z</time></trkpt><trkpt lat="46.1039484298142" lon="12.891904985606828"><ele>124.0</ele><time>2026-04-25T07:45:55Z</time></trkpt><trkpt lat="46.10384165886988" lon="12.891850709277112"><ele>123.5</ele><time>2026-04-25T07:45:56Z</time></trkpt><trkpt lat="46.103731654823775" lon="12.891790837826905"><ele>123.0</ele><time>2026-04-25T07:45:57Z</time></trkpt><trkpt lat="46.10361776752011" lon="12.891731981182359"><ele>123.0</ele><time>2026-04-25T07:45:58Z</time></trkpt><trkpt lat="46.10350124709738" lon="12.891669700658996"><ele>123.0</ele><time>2026-04-25T07:45:59Z</time></trkpt><trkpt lat="46.103378552321885" lon="12.891605601803528"><ele>123.0</ele><time>2026-04-25T07:46:00Z</time></trkpt><trkpt lat="46.103254469027334" lon="12.891541025105214"><ele>123.0</ele><time>2026-04-25T07:46:01Z</time></trkpt><trkpt lat="46.103125408030174" lon="12.89147869174427"><ele>122.75</ele><time>2026-04-25T07:46:02Z</time></trkpt><trkpt lat="46.102991735266265" lon="12.891433658286395"><ele>122.5</ele><time>2026-04-25T07:46:03Z</time></trkpt><trkpt lat="46.10284464117487" lon="12.891427151890506"><ele>122.25</ele><time>2026-04-25T07:46:04Z</time></trkpt><trkpt lat="46.102688002932595" lon="12.891433669859392"><ele>122.0</ele><time>2026-04-25T07:46:05Z</time></trkpt><trkpt lat="46.102518600838074" lon="12.891436364242312"><ele>122.0</ele><time>2026-04-25T07:46:06Z</time></trkpt><trkpt lat="46.10234578736164" lon="12.891438395891855"><ele>122.0</ele><time>2026-04-25T07:46:07Z</time></trkpt><trkpt lat="46.1021767969591" lon="12.891436616347791"><ele>122.0</ele><time>2026-04-25T07:46:08Z</time></trkpt><trkpt lat="46.10201073820744" lon="12.891425827618171"><ele>122.0</ele><time>2026-04-25T07:46:09Z</time></trkpt><trkpt lat="46.101845571878876" lon="12.891405569629896"><ele>122.0</ele><time>2026-04-25T07:46:10Z</time></trkpt><trkpt lat="46.10168371830741" lon="12.891380153591834"><ele>122.0</ele><time>2026-04-25T07:46:11Z</time></trkpt><trkpt lat="46.10152549545416" lon="12.891354399938649"><ele>122.0</ele><time>2026-04-25T07:46:12Z</time></trkpt><trkpt lat="46.10136907520569" lon="12.891328631175337"><ele>122.0</ele><time>2026-04-25T07:46:13Z</time></trkpt><trkpt lat="46.101217278457334" lon="12.891300952486619"><ele>122.0</ele><time>2026-04-25T07:46:14Z</time></trkpt><trkpt lat="46.101078256168364" lon="12.891276069688955"><ele>122.0</ele><time>2026-04-25T07:46:15Z</time></trkpt><trkpt lat="46.1009514263957" lon="12.891249817078442"><ele>122.0</ele><time>2026-04-25T07:46:16Z</time></trkpt><trkpt lat="46.100822527407274" lon="12.891209213530813"><ele>122.0</ele><time>2026-04-25T07:46:17Z</time></trkpt><trkpt lat="46.10069554499025" lon="12.891139067871467"><ele>122.0</ele><time>2026-04-25T07:46:18Z</time></trkpt><trkpt lat="46.10057286501856" lon="12.891035991871844"><ele>121.33333333333333</ele><time>2026-04-25T07:46:19Z</time></trkpt><trkpt lat="46.1004718866388" lon="12.890886014166114"><ele>120.66666666666666</ele><time>2026-04-25T07:46:20Z</time></trkpt><trkpt lat="46.10036972775886" lon="12.890722982271022"><ele>120.0</ele><time>2026-04-25T07:46:21Z</time></trkpt><trkpt lat="46.10026557574445" lon="12.890541960860547"><ele>120.0</ele><time>2026-04-25T07:46:22Z</time></trkpt><trkpt lat="46.10014573997273" lon="12.890366018952738"><ele>120.0</ele><time>2026-04-25T07:46:23Z</time></trkpt><trkpt lat="46.10003158765647" lon="12.890167745517113"><ele>120.0</ele><time>2026-04-25T07:46:24Z</time></trkpt><trkpt lat="46.099916150043214" lon="12.889966989201454"><ele>119.33333333333334</ele><time>2026-04-25T07:46:25Z</time></trkpt><trkpt lat="46.09980207660291" lon="12.889772720521794"><ele>118.66666666666667</ele><time>2026-04-25T07:46:26Z</time></trkpt><trkpt lat="46.099685524505574" lon="12.889585275455389"><ele>118.0</ele><time>2026-04-25T07:46:27Z</time></trkpt><trkpt lat="46.099556500737684" lon="12.889417746906265"><ele>118.0</ele><time>2026-04-25T07:46:28Z</time></trkpt><trkpt lat="46.09941661862645" lon="12.889270066493031"><ele>118.0</ele><time>2026-04-25T07:46:29Z</time></trkpt><trkpt lat="46.099266731236725" lon="12.889128369608814"><ele>118.0</ele><time>2026-04-25T07:46:30Z</time></trkpt><trkpt lat="46.09911000000022" lon="12.888992588106964"><ele>117.33333333333334</ele><time>2026-04-25T07:46:31Z</time></trkpt><trkpt lat="46.09896308076086" lon="12.88883512920188"><ele>116.66666666666666</ele><time>2026-04-25T07:46:32Z</time></trkpt><trkpt lat="46.09880373646629" lon="12.888717173580787"><ele>116.0</ele><time>2026-04-25T07:46:33Z</time></trkpt><trkpt lat="46.09865894683482" lon="12.888581273363343"><ele>116.0</ele><time>2026-04-25T07:46:34Z</time></trkpt><trkpt lat="46.098525395809794" lon="12.88845786031445"><ele>116.0</ele><time>2026-04-25T07:46:35Z</time></trkpt><trkpt lat="46.09840175021522" lon="12.888338918851634"><ele>116.0</ele><time>2026-04-25T07:46:36Z</time></trkpt><trkpt lat="46.098275009683704" lon="12.888222013041194"><ele>116.0</ele><time>2026-04-25T07:46:37Z</time></trkpt><trkpt lat="46.0981421413012" lon="12.888110128912544"><ele>116.0</ele><time>2026-04-25T07:46:38Z</time></trkpt><trkpt lat="46.09800525444872" lon="12.887987751413355"><ele>116.0</ele><time>2026-04-25T07:46:39Z</time></trkpt><trkpt lat="46.09787156411431" lon="12.887862738763372"><ele>116.0</ele><time>2026-04-25T07:46:40Z</time></trkpt><trkpt lat="46.097738542235525" lon="12.887733781627654"><ele>116.0</ele><time>2026-04-25T07:46:41Z</time></trkpt><trkpt lat="46.09761041412246" lon="12.8875894259184"><ele>116.0</ele><time>2026-04-25T07:46:42Z</time></trkpt><trkpt lat="46.09748979561707" lon="12.887424629872287"><ele>116.33333333333333</ele><time>2026-04-25T07:46:43Z</time></trkpt><trkpt lat="46.09737182240841" lon="12.887250141983671"><ele>116.66666666666666</ele><time>2026-04-25T07:46:44Z</time></trkpt><trkpt lat="46.09725339918286" lon="12.887068835851428"><ele>117.0</ele><time>2026-04-25T07:46:45Z</time></trkpt><trkpt lat="46.097134463536804" lon="12.88688586331974"><ele>117.0</ele><time>2026-04-25T07:46:46.001Z</time></trkpt><trkpt lat="46.09701503480954" lon="12.8866998268107"><ele>117.0</ele><time>2026-04-25T07:46:47.001Z</time></trkpt><trkpt lat="46.096892927951686" lon="12.886511401017554"><ele>117.0</ele><time>2026-04-25T07:46:48.001Z</time></trkpt><trkpt lat="46.0967719774441" lon="12.886324316878321"><ele>117.0</ele><time>2026-04-25T07:46:49.001Z</time></trkpt><trkpt lat="46.09665194531109" lon="12.886144160261185"><ele>117.0</ele><time>2026-04-25T07:46:50.001Z</time></trkpt><trkpt lat="46.096535581575466" lon="12.885966249568392"><ele>117.0</ele><time>2026-04-25T07:46:51.001Z</time></trkpt><trkpt lat="46.09642553036175" lon="12.885796768050863"><ele>117.0</ele><time>2026-04-25T07:46:52.001Z</time></trkpt><trkpt lat="46.09631940449992" lon="12.88563444848114"><ele>117.0</ele><time>2026-04-25T07:46:53.001Z</time></trkpt><trkpt lat="46.09621264660429" lon="12.885476378312259"><ele>117.0</ele><time>2026-04-25T07:46:54.001Z</time></trkpt><trkpt lat="46.09610486170833" lon="12.885312562037019"><ele>117.0</ele><time>2026-04-25T07:46:55.001Z</time></trkpt><trkpt lat="46.09599531690888" lon="12.885145957194533"><ele>117.0</ele><time>2026-04-25T07:46:56.001Z</time></trkpt><trkpt lat="46.09588286907621" lon="12.884976238961361"><ele>117.0</ele><time>2026-04-25T07:46:57.001Z</time></trkpt><trkpt lat="46.09576529692447" lon="12.884801959356361"><ele>116.33333333333334</ele><time>2026-04-25T07:46:58.001Z</time></trkpt><trkpt lat="46.095649827182896" lon="12.884625641778904"><ele>115.66666666666667</ele><time>2026-04-25T07:46:59.001Z</time></trkpt><trkpt lat="46.095541257797414" lon="12.884456312612675"><ele>115.0</ele><time>2026-04-25T07:47:00.001Z</time></trkpt><trkpt lat="46.095436590329605" lon="12.884296847919767"><ele>115.0</ele><time>2026-04-25T07:47:01.001Z</time></trkpt><trkpt lat="46.09533839778098" lon="12.884147689191655"><ele>115.0</ele><time>2026-04-25T07:47:02.001Z</time></trkpt><trkpt lat="46.095255876742776" lon="12.883987008914646"><ele>115.0</ele><time>2026-04-25T07:47:03.001Z</time></trkpt><trkpt lat="46.095166137353985" lon="12.88384227563703"><ele>115.0</ele><time>2026-04-25T07:47:04.001Z</time></trkpt><trkpt lat="46.095081438445284" lon="12.883705671727151"><ele>115.0</ele><time>2026-04-25T07:47:05.001Z</time></trkpt><trkpt lat="46.09500681214886" lon="12.883585313117072"><ele>115.0</ele><time>2026-04-25T07:47:06Z</time></trkpt><trkpt lat="46.09493473677161" lon="12.88349005538337"><ele>115.0</ele><time>2026-04-25T07:47:07Z</time></trkpt><trkpt lat="46.094898598681276" lon="12.883364565200553"><ele>115.0</ele><time>2026-04-25T07:47:08Z</time></trkpt><trkpt lat="46.09487969882928" lon="12.883222765350988"><ele>115.0</ele><time>2026-04-25T07:47:09Z</time></trkpt><trkpt lat="46.09488187433898" lon="12.883068997991083"><ele>114.75</ele><time>2026-04-25T07:47:10Z</time></trkpt><trkpt lat="46.094899949284176" lon="12.88290100685205"><ele>114.5</ele><time>2026-04-25T07:47:11Z</time></trkpt><trkpt lat="46.09492652156999" lon="12.88272567710395"><ele>114.25</ele><time>2026-04-25T07:47:12Z</time></trkpt><trkpt lat="46.09497548185824" lon="12.882550824009611"><ele>114.0</ele><time>2026-04-25T07:47:13Z</time></trkpt><trkpt lat="46.09502692819015" lon="12.882361284081677"><ele>114.33333333333334</ele><time>2026-04-25T07:47:14Z</time></trkpt><trkpt lat="46.09506785080339" lon="12.8821372562321"><ele>114.66666666666667</ele><time>2026-04-25T07:47:15Z</time></trkpt><trkpt lat="46.09511644485107" lon="12.881871284804054"><ele>115.0</ele><time>2026-04-25T07:47:16Z</time></trkpt><trkpt lat="46.095193959463415" lon="12.881519424491648"><ele>115.0</ele><time>2026-04-25T07:47:17Z</time></trkpt><trkpt lat="46.0952544080318" lon="12.881123943188319"><ele>115.0</ele><time>2026-04-25T07:47:18Z</time></trkpt><trkpt lat="46.095323070549604" lon="12.880767758453864"><ele>114.66666666666667</ele><time>2026-04-25T07:47:19Z</time></trkpt><trkpt lat="46.09538659224826" lon="12.88043976717865"><ele>114.33333333333334</ele><time>2026-04-25T07:47:20Z</time></trkpt><trkpt lat="46.09545477726006" lon="12.880171286236475"><ele>114.0</ele><time>2026-04-25T07:47:21Z</time></trkpt><trkpt lat="46.09549872416272" lon="12.879936751745593"><ele>114.0</ele><time>2026-04-25T07:47:22Z</time></trkpt><trkpt lat="46.095536327368364" lon="12.879736673226285"><ele>114.0</ele><time>2026-04-25T07:47:23Z</time></trkpt><trkpt lat="46.09557454275898" lon="12.87953333744252"><ele>114.0</ele><time>2026-04-25T07:47:24Z</time></trkpt><trkpt lat="46.09559767838183" lon="12.87932331169872"><ele>114.0</ele><time>2026-04-25T07:47:25Z</time></trkpt><trkpt lat="46.095636246176575" lon="12.879127033062135"><ele>113.75</ele><time>2026-04-25T07:47:26Z</time></trkpt><trkpt lat="46.095673187003946" lon="12.878929987077726"><ele>113.5</ele><time>2026-04-25T07:47:27Z</time></trkpt><trkpt lat="46.095710061976725" lon="12.878731661172257"><ele>113.25</ele><time>2026-04-25T07:47:28Z</time></trkpt><trkpt lat="46.09574617278907" lon="12.87853185604446"><ele>113.0</ele><time>2026-04-25T07:47:29Z</time></trkpt><trkpt lat="46.09578458290957" lon="12.878327979158593"><ele>113.66666666666666</ele><time>2026-04-25T07:47:30Z</time></trkpt><trkpt lat="46.09582506226919" lon="12.878114869754933"><ele>114.33333333333334</ele><time>2026-04-25T07:47:31Z</time></trkpt><trkpt lat="46.09586701153164" lon="12.87789804601806"><ele>115.0</ele><time>2026-04-25T07:47:32Z</time></trkpt><trkpt lat="46.095909262115626" lon="12.87767456689616"><ele>114.66666666666667</ele><time>2026-04-25T07:47:33Z</time></trkpt><trkpt lat="46.09595185990713" lon="12.87743955823357"><ele>114.33333333333334</ele><time>2026-04-25T07:47:34Z</time></trkpt><trkpt lat="46.09599441276544" lon="12.87720764250853"><ele>114.0</ele><time>2026-04-25T07:47:35Z</time></trkpt><trkpt lat="46.09603899524444" lon="12.876978199824217"><ele>113.66666666666666</ele><time>2026-04-25T07:47:36Z</time></trkpt><trkpt lat="46.096082488491035" lon="12.876749378181145"><ele>113.33333333333333</ele><time>2026-04-25T07:47:37Z</time></trkpt><trkpt lat="46.09612440881967" lon="12.876523227030583"><ele>113.0</ele><time>2026-04-25T07:47:38Z</time></trkpt><trkpt lat="46.09616755685928" lon="12.876301371326846"><ele>113.0</ele><time>2026-04-25T07:47:39Z</time></trkpt><trkpt lat="46.09620900738143" lon="12.876080409995682"><ele>113.0</ele><time>2026-04-25T07:47:40Z</time></trkpt><trkpt lat="46.09624968776324" lon="12.875859241037265"><ele>113.0</ele><time>2026-04-25T07:47:41Z</time></trkpt><trkpt lat="46.096290964869674" lon="12.875640597047596"><ele>112.66666666666666</ele><time>2026-04-25T07:47:42Z</time></trkpt><trkpt lat="46.09633307058576" lon="12.875414181573877"><ele>112.33333333333334</ele><time>2026-04-25T07:47:43Z</time></trkpt><trkpt lat="46.09637515783389" lon="12.875183409175415"><ele>112.0</ele><time>2026-04-25T07:47:44Z</time></trkpt><trkpt lat="46.09641833392131" lon="12.874952582223978"><ele>111.66666666666667</ele><time>2026-04-25T07:47:45Z</time></trkpt><trkpt lat="46.09646165095687" lon="12.87472151762952"><ele>111.33333333333334</ele><time>2026-04-25T07:47:46Z</time></trkpt><trkpt lat="46.09650542268256" lon="12.874491412671231"><ele>111.0</ele><time>2026-04-25T07:47:47Z</time></trkpt><trkpt lat="46.09654876657478" lon="12.874262520972696"><ele>111.0</ele><time>2026-04-25T07:47:48Z</time></trkpt><trkpt lat="46.09659193023101" lon="12.874029999256754"><ele>111.0</ele><time>2026-04-25T07:47:49Z</time></trkpt><trkpt lat="46.09663646021546" lon="12.873795251728508"><ele>111.0</ele><time>2026-04-25T07:47:50Z</time></trkpt><trkpt lat="46.09668172942974" lon="12.873551681536552"><ele>112.0</ele><time>2026-04-25T07:47:51Z</time></trkpt><trkpt lat="46.09672767785544" lon="12.87330569393449"><ele>113.0</ele><time>2026-04-25T07:47:52Z</time></trkpt><trkpt lat="46.0967736370165" lon="12.87306192299324"><ele>114.0</ele><time>2026-04-25T07:47:53Z</time></trkpt><trkpt lat="46.09682011974152" lon="12.872812776786857"><ele>114.33333333333334</ele><time>2026-04-25T07:47:54Z</time></trkpt><trkpt lat="46.0968673466436" lon="12.872560247707948"><ele>114.66666666666667</ele><time>2026-04-25T07:47:55Z</time></trkpt><trkpt lat="46.09691499839858" lon="12.87230881861452"><ele>115.0</ele><time>2026-04-25T07:47:56Z</time></trkpt><trkpt lat="46.09696303648523" lon="12.872055301806874"><ele>115.0</ele><time>2026-04-25T07:47:57Z</time></trkpt><trkpt lat="46.09701137891753" lon="12.871801137293229"><ele>115.0</ele><time>2026-04-25T07:47:58Z</time></trkpt><trkpt lat="46.097060737644824" lon="12.871541055195255"><ele>115.0</ele><time>2026-04-25T07:47:59Z</time></trkpt><trkpt lat="46.097112027980735" lon="12.871277034579037"><ele>116.0</ele><time>2026-04-25T07:48:00Z</time></trkpt><trkpt lat="46.097166801262986" lon="12.871008422518667"><ele>117.0</ele><time>2026-04-25T07:48:01Z</time></trkpt><trkpt lat="46.097219584660735" lon="12.87074524936787"><ele>118.0</ele><time>2026-04-25T07:48:02Z</time></trkpt><trkpt lat="46.097271257063966" lon="12.870482930224378"><ele>118.33333333333334</ele><time>2026-04-25T07:48:03Z</time></trkpt><trkpt lat="46.09732001792014" lon="12.870222227591642"><ele>118.66666666666666</ele><time>2026-04-25T07:48:04Z</time></trkpt><trkpt lat="46.097369652311556" lon="12.869961553984954"><ele>119.0</ele><time>2026-04-25T07:48:05Z</time></trkpt><trkpt lat="46.09741625617589" lon="12.869706826226174"><ele>119.33333333333333</ele><time>2026-04-25T07:48:06Z</time></trkpt><trkpt lat="46.09746366310882" lon="12.869457794068682"><ele>119.66666666666666</ele><time>2026-04-25T07:48:07Z</time></trkpt><trkpt lat="46.097509694074624" lon="12.86921049225926"><ele>120.0</ele><time>2026-04-25T07:48:08Z</time></trkpt><trkpt lat="46.09755543684999" lon="12.86896175112546"><ele>120.0</ele><time>2026-04-25T07:48:09Z</time></trkpt><trkpt lat="46.097601929244455" lon="12.868708366187047"><ele>120.0</ele><time>2026-04-25T07:48:10Z</time></trkpt><trkpt lat="46.09764763022965" lon="12.868442484665596"><ele>120.0</ele><time>2026-04-25T07:48:11Z</time></trkpt><trkpt lat="46.097695079555145" lon="12.86816585456905"><ele>120.0</ele><time>2026-04-25T07:48:12Z</time></trkpt><trkpt lat="46.097746401330205" lon="12.86788055149615"><ele>120.0</ele><time>2026-04-25T07:48:13Z</time></trkpt><trkpt lat="46.09779856509019" lon="12.867602119791995"><ele>120.0</ele><time>2026-04-25T07:48:14Z</time></trkpt><trkpt lat="46.09786472711132" lon="12.86733208585823"><ele>120.0</ele><time>2026-04-25T07:48:15Z</time></trkpt><trkpt lat="46.09791660906065" lon="12.86705635651114"><ele>120.0</ele><time>2026-04-25T07:48:16Z</time></trkpt><trkpt lat="46.09796812647789" lon="12.866782432203056"><ele>120.0</ele><time>2026-04-25T07:48:17Z</time></trkpt><trkpt lat="46.09802009765454" lon="12.866506075644828"><ele>120.33333333333334</ele><time>2026-04-25T07:48:18Z</time></trkpt><trkpt lat="46.09807303346023" lon="12.866224589156285"><ele>120.66666666666667</ele><time>2026-04-25T07:48:19Z</time></trkpt><trkpt lat="46.09812632234727" lon="12.865944107974453"><ele>121.0</ele><time>2026-04-25T07:48:20Z</time></trkpt><trkpt lat="46.09818035398914" lon="12.86565892313816"><ele>121.0</ele><time>2026-04-25T07:48:21Z</time></trkpt><trkpt lat="46.098233475686435" lon="12.865377510294286"><ele>121.0</ele><time>2026-04-25T07:48:22Z</time></trkpt><trkpt lat="46.09828509926808" lon="12.865099481978405"><ele>121.0</ele><time>2026-04-25T07:48:23Z</time></trkpt><trkpt lat="46.09833695637645" lon="12.864824154317091"><ele>122.0</ele><time>2026-04-25T07:48:24Z</time></trkpt><trkpt lat="46.09838899596083" lon="12.864546421378078"><ele>123.0</ele><time>2026-04-25T07:48:25Z</time></trkpt><trkpt lat="46.0984397657568" lon="12.864270237384932"><ele>124.0</ele><time>2026-04-25T07:48:26Z</time></trkpt><trkpt lat="46.0984730694866" lon="12.863997824008297"><ele>124.33333333333334</ele><time>2026-04-25T07:48:27Z</time></trkpt><trkpt lat="46.09852125070552" lon="12.863734510121752"><ele>124.66666666666666</ele><time>2026-04-25T07:48:28Z</time></trkpt><trkpt lat="46.09856703200987" lon="12.863475912804986"><ele>125.0</ele><time>2026-04-25T07:48:29Z</time></trkpt><trkpt lat="46.09860880525929" lon="12.863213593440033"><ele>125.33333333333333</ele><time>2026-04-25T07:48:30Z</time></trkpt><trkpt lat="46.09864682544492" lon="12.862946491453387"><ele>125.66666666666666</ele><time>2026-04-25T07:48:31Z</time></trkpt><trkpt lat="46.09869786440039" lon="12.862680991374168"><ele>126.0</ele><time>2026-04-25T07:48:32Z</time></trkpt><trkpt lat="46.098729058006334" lon="12.862406399071519"><ele>126.33333333333334</ele><time>2026-04-25T07:48:33Z</time></trkpt><trkpt lat="46.09875592619879" lon="12.862125731490572"><ele>126.66666666666667</ele><time>2026-04-25T07:48:34Z</time></trkpt><trkpt lat="46.09877761156861" lon="12.861838629890597"><ele>127.0</ele><time>2026-04-25T07:48:35Z</time></trkpt><trkpt lat="46.09879568509025" lon="12.861546944883944"><ele>127.0</ele><time>2026-04-25T07:48:36Z</time></trkpt><trkpt lat="46.098810926603996" lon="12.861250649877592"><ele>127.0</ele><time>2026-04-25T07:48:37Z</time></trkpt><trkpt lat="46.09881907966283" lon="12.860953642945669"><ele>127.0</ele><time>2026-04-25T07:48:38Z</time></trkpt><trkpt lat="46.09880574083348" lon="12.86066047451754"><ele>127.0</ele><time>2026-04-25T07:48:39Z</time></trkpt><trkpt lat="46.09880701147978" lon="12.86037166993485"><ele>127.0</ele><time>2026-04-25T07:48:40Z</time></trkpt><trkpt lat="46.09880525237993" lon="12.86008422979066"><ele>127.0</ele><time>2026-04-25T07:48:41Z</time></trkpt><trkpt lat="46.09880222541406" lon="12.859799801215347"><ele>127.0</ele><time>2026-04-25T07:48:42Z</time></trkpt><trkpt lat="46.09879965641798" lon="12.859518054220402"><ele>127.0</ele><time>2026-04-25T07:48:43Z</time></trkpt><trkpt lat="46.09879440800286" lon="12.859237620185736"><ele>127.0</ele><time>2026-04-25T07:48:44Z</time></trkpt><trkpt lat="46.09878718981587" lon="12.85896285333874"><ele>127.0</ele><time>2026-04-25T07:48:45Z</time></trkpt><trkpt lat="46.098785222851326" lon="12.858689089614536"><ele>127.0</ele><time>2026-04-25T07:48:46Z</time></trkpt><trkpt lat="46.09878554092093" lon="12.858410304846492"><ele>127.0</ele><time>2026-04-25T07:48:47Z</time></trkpt><trkpt lat="46.098780884042874" lon="12.858131542997828"><ele>127.66666666666667</ele><time>2026-04-25T07:48:48Z</time></trkpt><trkpt lat="46.098775554821586" lon="12.857847456159151"><ele>128.33333333333334</ele><time>2026-04-25T07:48:49Z</time></trkpt><trkpt lat="46.098769428780464" lon="12.857557205082921"><ele>129.0</ele><time>2026-04-25T07:48:50Z</time></trkpt><trkpt lat="46.09876287831421" lon="12.857263030067339"><ele>129.33333333333334</ele><time>2026-04-25T07:48:51Z</time></trkpt><trkpt lat="46.09875688930309" lon="12.856965997376104"><ele>129.66666666666669</ele><time>2026-04-25T07:48:52.001Z</time></trkpt><trkpt lat="46.098752526003096" lon="12.856661065062063"><ele>130.0</ele><time>2026-04-25T07:48:53.001Z</time></trkpt><trkpt lat="46.098748809428834" lon="12.856354590049532"><ele>129.33333333333334</ele><time>2026-04-25T07:48:54.001Z</time></trkpt><trkpt lat="46.09874104278913" lon="12.856052029100724"><ele>128.66666666666666</ele><time>2026-04-25T07:48:55.001Z</time></trkpt><trkpt lat="46.098735107572544" lon="12.855759939152126"><ele>128.0</ele><time>2026-04-25T07:48:56.001Z</time></trkpt><trkpt lat="46.09873056754194" lon="12.85549212132002"><ele>128.0</ele><time>2026-04-25T07:48:57.001Z</time></trkpt><trkpt lat="46.098725324761624" lon="12.855235866073711"><ele>128.0</ele><time>2026-04-25T07:48:58.001Z</time></trkpt><trkpt lat="46.098720546042955" lon="12.854983488849763"><ele>128.0</ele><time>2026-04-25T07:48:59.001Z</time></trkpt><trkpt lat="46.098714591433165" lon="12.854723848039411"><ele>128.0</ele><time>2026-04-25T07:49:00.001Z</time></trkpt><trkpt lat="46.09871209629171" lon="12.854458602106254"><ele>128.0</ele><time>2026-04-25T07:49:01.001Z</time></trkpt><trkpt lat="46.09870858891289" lon="12.85419303882173"><ele>128.0</ele><time>2026-04-25T07:49:02.001Z</time></trkpt><trkpt lat="46.09870338160445" lon="12.853926230857969"><ele>128.33333333333331</ele><time>2026-04-25T07:49:03.001Z</time></trkpt><trkpt lat="46.09869939128099" lon="12.853659458467984"><ele>128.66666666666666</ele><time>2026-04-25T07:49:04.001Z</time></trkpt><trkpt lat="46.09869360470416" lon="12.853398362983203"><ele>129.0</ele><time>2026-04-25T07:49:05.001Z</time></trkpt><trkpt lat="46.098688993675836" lon="12.853132149532893"><ele>129.0</ele><time>2026-04-25T07:49:06.001Z</time></trkpt><trkpt lat="46.09867991349944" lon="12.85285838590183"><ele>129.0</ele><time>2026-04-25T07:49:07.001Z</time></trkpt><trkpt lat="46.0986676386343" lon="12.852584569795312"><ele>129.0</ele><time>2026-04-25T07:49:08.001Z</time></trkpt><trkpt lat="46.098648538888696" lon="12.852302152130115"><ele>129.0</ele><time>2026-04-25T07:49:09.001Z</time></trkpt><trkpt lat="46.098621838277325" lon="12.852014647773123"><ele>129.0</ele><time>2026-04-25T07:49:10.001Z</time></trkpt><trkpt lat="46.09859251289311" lon="12.85172783547537"><ele>129.0</ele><time>2026-04-25T07:49:11.001Z</time></trkpt><trkpt lat="46.09855888003074" lon="12.851444520808279"><ele>129.66666666666666</ele><time>2026-04-25T07:49:12.001Z</time></trkpt><trkpt lat="46.09852279322779" lon="12.851160417238766"><ele>130.33333333333331</ele><time>2026-04-25T07:49:13.001Z</time></trkpt><trkpt lat="46.09848119031786" lon="12.850874596346154"><ele>131.0</ele><time>2026-04-25T07:49:14.001Z</time></trkpt><trkpt lat="46.0984405274595" lon="12.850590585156144"><ele>131.0</ele><time>2026-04-25T07:49:15.001Z</time></trkpt><trkpt lat="46.09839692849606" lon="12.850300066110895"><ele>131.0</ele><time>2026-04-25T07:49:16.001Z</time></trkpt><trkpt lat="46.09835208332553" lon="12.850005885563233"><ele>131.0</ele><time>2026-04-25T07:49:17.001Z</time></trkpt><trkpt lat="46.09830759946194" lon="12.849709292227487"><ele>131.33333333333331</ele><time>2026-04-25T07:49:18.001Z</time></trkpt><trkpt lat="46.098265629337405" lon="12.84940731193888"><ele>131.66666666666666</ele><time>2026-04-25T07:49:19.001Z</time></trkpt><trkpt lat="46.09822280295416" lon="12.849102146730452"><ele>132.0</ele><time>2026-04-25T07:49:20.001Z</time></trkpt><trkpt lat="46.09817665552807" lon="12.84879518687989"><ele>132.0</ele><time>2026-04-25T07:49:21.001Z</time></trkpt><trkpt lat="46.0981307243696" lon="12.84848336530196"><ele>132.0</ele><time>2026-04-25T07:49:22.001Z</time></trkpt><trkpt lat="46.09808484485556" lon="12.84817721149426"><ele>132.0</ele><time>2026-04-25T07:49:23.001Z</time></trkpt><trkpt lat="46.09804198955507" lon="12.847875058271617"><ele>132.66666666666666</ele><time>2026-04-25T07:49:24.001Z</time></trkpt><trkpt lat="46.09799965552092" lon="12.847578981494497"><ele>133.33333333333331</ele><time>2026-04-25T07:49:25.001Z</time></trkpt><trkpt lat="46.097955733384254" lon="12.847285081810126"><ele>134.0</ele><time>2026-04-25T07:49:26.001Z</time></trkpt><trkpt lat="46.09791223944391" lon="12.846998873169184"><ele>133.33333333333331</ele><time>2026-04-25T07:49:27.001Z</time></trkpt><trkpt lat="46.097869946269796" lon="12.846713874850668"><ele>132.66666666666666</ele><time>2026-04-25T07:49:28.001Z</time></trkpt><trkpt lat="46.0978283483677" lon="12.846435413439302"><ele>132.0</ele><time>2026-04-25T07:49:29Z</time></trkpt><trkpt lat="46.09778943751702" lon="12.846160640687799"><ele>132.33333333333334</ele><time>2026-04-25T07:49:30Z</time></trkpt><trkpt lat="46.09775161900996" lon="12.845887880805225"><ele>132.66666666666669</ele><time>2026-04-25T07:49:31Z</time></trkpt><trkpt lat="46.09771175518109" lon="12.845614783973636"><ele>133.0</ele><time>2026-04-25T07:49:32Z</time></trkpt><trkpt lat="46.09767294810078" lon="12.84533859362717"><ele>133.0</ele><time>2026-04-25T07:49:33Z</time></trkpt><trkpt lat="46.097634715338216" lon="12.845060876020517"><ele>133.0</ele><time>2026-04-25T07:49:34Z</time></trkpt><trkpt lat="46.09759817910311" lon="12.844779699945702"><ele>133.0</ele><time>2026-04-25T07:49:35Z</time></trkpt><trkpt lat="46.09755729175806" lon="12.844489872596261"><ele>133.66666666666669</ele><time>2026-04-25T07:49:36Z</time></trkpt><trkpt lat="46.097515770783" lon="12.84419739370727"><ele>134.33333333333334</ele><time>2026-04-25T07:49:37Z</time></trkpt><trkpt lat="46.09747498914314" lon="12.84390121231331"><ele>135.0</ele><time>2026-04-25T07:49:38Z</time></trkpt><trkpt lat="46.09743230813402" lon="12.843607432388437"><ele>135.0</ele><time>2026-04-25T07:49:39Z</time></trkpt><trkpt lat="46.09739009644332" lon="12.843318665549697"><ele>135.0</ele><time>2026-04-25T07:49:40Z</time></trkpt><trkpt lat="46.09734726958634" lon="12.843031446733773"><ele>135.0</ele><time>2026-04-25T07:49:41Z</time></trkpt><trkpt lat="46.097305649594965" lon="12.8427474664277"><ele>134.66666666666666</ele><time>2026-04-25T07:49:42Z</time></trkpt><trkpt lat="46.097264357342745" lon="12.842465937391799"><ele>134.33333333333331</ele><time>2026-04-25T07:49:43Z</time></trkpt><trkpt lat="46.09721957566023" lon="12.842181511774267"><ele>134.0</ele><time>2026-04-25T07:49:44Z</time></trkpt><trkpt lat="46.097170735336846" lon="12.84189149208502"><ele>133.66666666666666</ele><time>2026-04-25T07:49:45Z</time></trkpt><trkpt lat="46.09712425190336" lon="12.841606736748915"><ele>133.33333333333334</ele><time>2026-04-25T07:49:46Z</time></trkpt><trkpt lat="46.09708083740268" lon="12.841330939152932"><ele>133.0</ele><time>2026-04-25T07:49:47Z</time></trkpt><trkpt lat="46.09703968549263" lon="12.841055650851446"><ele>133.66666666666669</ele><time>2026-04-25T07:49:48Z</time></trkpt><trkpt lat="46.097000425336155" lon="12.840776143032736"><ele>134.33333333333334</ele><time>2026-04-25T07:49:49Z</time></trkpt><trkpt lat="46.09696294001606" lon="12.840504284820254"><ele>135.0</ele><time>2026-04-25T07:49:50Z</time></trkpt><trkpt lat="46.096922633965605" lon="12.840234221239616"><ele>135.33333333333334</ele><time>2026-04-25T07:49:51Z</time></trkpt><trkpt lat="46.096883527162696" lon="12.839970274745466"><ele>135.66666666666669</ele><time>2026-04-25T07:49:52Z</time></trkpt><trkpt lat="46.096846111786014" lon="12.839707325188984"><ele>136.0</ele><time>2026-04-25T07:49:53Z</time></trkpt><trkpt lat="46.096808086813546" lon="12.839444461631395"><ele>135.66666666666669</ele><time>2026-04-25T07:49:54Z</time></trkpt><trkpt lat="46.096769143696775" lon="12.839181000606821"><ele>135.33333333333334</ele><time>2026-04-25T07:49:55Z</time></trkpt><trkpt lat="46.09673151658232" lon="12.838917616926796"><ele>135.0</ele><time>2026-04-25T07:49:56Z</time></trkpt><trkpt lat="46.09669381130792" lon="12.838652279121797"><ele>135.0</ele><time>2026-04-25T07:49:57Z</time></trkpt><trkpt lat="46.09665598237873" lon="12.838384831714238"><ele>135.0</ele><time>2026-04-25T07:49:58Z</time></trkpt><trkpt lat="46.09661769085214" lon="12.838117927027726"><ele>135.0</ele><time>2026-04-25T07:49:59Z</time></trkpt><trkpt lat="46.09658215576879" lon="12.83784374426752"><ele>134.66666666666666</ele><time>2026-04-25T07:50:00Z</time></trkpt><trkpt lat="46.09655245278775" lon="12.83756527997758"><ele>134.33333333333331</ele><time>2026-04-25T07:50:01Z</time></trkpt><trkpt lat="46.09653227724163" lon="12.837282037869015"><ele>134.0</ele><time>2026-04-25T07:50:02Z</time></trkpt><trkpt lat="46.096515176249" lon="12.836989574488989"><ele>134.33333333333331</ele><time>2026-04-25T07:50:03Z</time></trkpt><trkpt lat="46.09650479482873" lon="12.836693994470185"><ele>134.66666666666666</ele><time>2026-04-25T07:50:04Z</time></trkpt><trkpt lat="46.09650255894734" lon="12.83639301563972"><ele>135.0</ele><time>2026-04-25T07:50:05Z</time></trkpt><trkpt lat="46.09650188137357" lon="12.836086851223536"><ele>135.33333333333334</ele><time>2026-04-25T07:50:06Z</time></trkpt><trkpt lat="46.09650206735716" lon="12.835776118761263"><ele>135.66666666666669</ele><time>2026-04-25T07:50:07Z</time></trkpt><trkpt lat="46.09650233131025" lon="12.835462330129625"><ele>136.0</ele><time>2026-04-25T07:50:08Z</time></trkpt><trkpt lat="46.09650324622751" lon="12.83515057911857"><ele>136.33333333333334</ele><time>2026-04-25T07:50:09Z</time></trkpt><trkpt lat="46.096504545493616" lon="12.834843576774725"><ele>136.66666666666666</ele><time>2026-04-25T07:50:10Z</time></trkpt><trkpt lat="46.09650533692359" lon="12.834544367283877"><ele>137.0</ele><time>2026-04-25T07:50:11Z</time></trkpt><trkpt lat="46.09650640993061" lon="12.834251416547842"><ele>137.0</ele><time>2026-04-25T07:50:12Z</time></trkpt><trkpt lat="46.09650558123409" lon="12.833954218478846"><ele>137.0</ele><time>2026-04-25T07:50:13Z</time></trkpt><trkpt lat="46.09650693609676" lon="12.833659682910868"><ele>137.0</ele><time>2026-04-25T07:50:14Z</time></trkpt><trkpt lat="46.096508068044756" lon="12.833360280655809"><ele>137.0</ele><time>2026-04-25T07:50:15Z</time></trkpt><trkpt lat="46.096507736457255" lon="12.833061074989807"><ele>137.0</ele><time>2026-04-25T07:50:16Z</time></trkpt><trkpt lat="46.09650697463055" lon="12.83276738487091"><ele>137.0</ele><time>2026-04-25T07:50:17Z</time></trkpt><trkpt lat="46.096500238132506" lon="12.832473102305398"><ele>137.0</ele><time>2026-04-25T07:50:18Z</time></trkpt><trkpt lat="46.0964868964604" lon="12.832175067984792"><ele>137.0</ele><time>2026-04-25T07:50:19Z</time></trkpt><trkpt lat="46.09646883084625" lon="12.831875432961246"><ele>137.0</ele><time>2026-04-25T07:50:20Z</time></trkpt><trkpt lat="46.096446455950506" lon="12.831569055256908"><ele>137.0</ele><time>2026-04-25T07:50:21Z</time></trkpt><trkpt lat="46.09641915315336" lon="12.831257296378542"><ele>137.0</ele><time>2026-04-25T07:50:22Z</time></trkpt><trkpt lat="46.09638903178423" lon="12.830946372724869"><ele>137.0</ele><time>2026-04-25T07:50:23Z</time></trkpt><trkpt lat="46.096357065930114" lon="12.83064070009611"><ele>137.0</ele><time>2026-04-25T07:50:24Z</time></trkpt><trkpt lat="46.096323556842" lon="12.830334936048642"><ele>137.0</ele><time>2026-04-25T07:50:25Z</time></trkpt><trkpt lat="46.09628965842564" lon="12.83003010971341"><ele>137.0</ele><time>2026-04-25T07:50:26Z</time></trkpt><trkpt lat="46.096258147055615" lon="12.82973062501019"><ele>137.0</ele><time>2026-04-25T07:50:27Z</time></trkpt><trkpt lat="46.09622720413299" lon="12.829445229131771"><ele>137.0</ele><time>2026-04-25T07:50:28Z</time></trkpt><trkpt lat="46.096197247933915" lon="12.82916927204994"><ele>137.0</ele><time>2026-04-25T07:50:29Z</time></trkpt><trkpt lat="46.096169548746325" lon="12.828918927305072"><ele>137.0</ele><time>2026-04-25T07:50:30Z</time></trkpt><trkpt lat="46.0961425771257" lon="12.828690076774054"><ele>137.0</ele><time>2026-04-25T07:50:31Z</time></trkpt><trkpt lat="46.09611596248644" lon="12.828472156689676"><ele>137.0</ele><time>2026-04-25T07:50:32Z</time></trkpt><trkpt lat="46.09608919018222" lon="12.828269609839957"><ele>137.0</ele><time>2026-04-25T07:50:33Z</time></trkpt><trkpt lat="46.09605854938341" lon="12.828090290279407"><ele>137.0</ele><time>2026-04-25T07:50:34Z</time></trkpt><trkpt lat="46.09602585681905" lon="12.82793739893197"><ele>137.0</ele><time>2026-04-25T07:50:35Z</time></trkpt><trkpt lat="46.09599349795466" lon="12.827795315144995"><ele>137.0</ele><time>2026-04-25T07:50:36Z</time></trkpt><trkpt lat="46.09596800415196" lon="12.827657817932872"><ele>137.0</ele><time>2026-04-25T07:50:37Z</time></trkpt><trkpt lat="46.095960060679914" lon="12.827519304883293"><ele>137.0</ele><time>2026-04-25T07:50:38Z</time></trkpt><trkpt lat="46.095969687357304" lon="12.827395148266582"><ele>137.0</ele><time>2026-04-25T07:50:39Z</time></trkpt><trkpt lat="46.095978507234285" lon="12.827287633704142"><ele>137.0</ele><time>2026-04-25T07:50:40Z</time></trkpt><trkpt lat="46.09596199397603" lon="12.827171328351396"><ele>137.0</ele><time>2026-04-25T07:50:41Z</time></trkpt><trkpt lat="46.095906686426275" lon="12.827076524386948"><ele>137.0</ele><time>2026-04-25T07:50:42Z</time></trkpt><trkpt lat="46.09582457849581" lon="12.827019740680555"><ele>137.0</ele><time>2026-04-25T07:50:43Z</time></trkpt><trkpt lat="46.095732340050326" lon="12.82700748155955"><ele>137.4</ele><time>2026-04-25T07:50:44Z</time></trkpt><trkpt lat="46.09563633488091" lon="12.827047739105216"><ele>137.79999999999998</ele><time>2026-04-25T07:50:45Z</time></trkpt><trkpt lat="46.095544719719065" lon="12.827100633141969"><ele>138.2</ele><time>2026-04-25T07:50:46Z</time></trkpt><trkpt lat="46.09544958633934" lon="12.827087350793752"><ele>138.6</ele><time>2026-04-25T07:50:47Z</time></trkpt><trkpt lat="46.095362602466295" lon="12.82702515790509"><ele>139.0</ele><time>2026-04-25T07:50:48Z</time></trkpt><trkpt lat="46.09528671332955" lon="12.826955185372444"><ele>139.2</ele><time>2026-04-25T07:50:49Z</time></trkpt><trkpt lat="46.095274939936196" lon="12.826776818402946"><ele>139.4</ele><time>2026-04-25T07:50:50Z</time></trkpt><trkpt lat="46.09528034928127" lon="12.826632722553178"><ele>139.6</ele><time>2026-04-25T07:50:51Z</time></trkpt><trkpt lat="46.09531621486695" lon="12.82648825696441"><ele>139.8</ele><time>2026-04-25T07:50:52Z</time></trkpt><trkpt lat="46.09535041676538" lon="12.826337060735847"><ele>140.0</ele><time>2026-04-25T07:50:53Z</time></trkpt><trkpt lat="46.09537994166871" lon="12.82615617982883"><ele>140.0</ele><time>2026-04-25T07:50:54Z</time></trkpt><trkpt lat="46.09540812918827" lon="12.82594712801821"><ele>140.0</ele><time>2026-04-25T07:50:55Z</time></trkpt><trkpt lat="46.09542819990268" lon="12.82571697297159"><ele>140.0</ele><time>2026-04-25T07:50:56Z</time></trkpt><trkpt lat="46.095429691994404" lon="12.825472665302687"><ele>140.0</ele><time>2026-04-25T07:50:57.001Z</time></trkpt><trkpt lat="46.09541675991921" lon="12.825238962815886"><ele>140.0</ele><time>2026-04-25T07:50:58.001Z</time></trkpt><trkpt lat="46.095391590620174" lon="12.82503493476125"><ele>140.0</ele><time>2026-04-25T07:50:59.001Z</time></trkpt><trkpt lat="46.09535946651415" lon="12.824840262385607"><ele>140.0</ele><time>2026-04-25T07:51:00.001Z</time></trkpt><trkpt lat="46.09531875654022" lon="12.824648343567466"><ele>140.0</ele><time>2026-04-25T07:51:01.001Z</time></trkpt><trkpt lat="46.095262635922396" lon="12.824459470951714"><ele>140.0</ele><time>2026-04-25T07:51:02.001Z</time></trkpt><trkpt lat="46.09520172086926" lon="12.824281570467136"><ele>140.0</ele><time>2026-04-25T07:51:03.001Z</time></trkpt><trkpt lat="46.095140906901335" lon="12.82410464752397"><ele>140.0</ele><time>2026-04-25T07:51:04.001Z</time></trkpt><trkpt lat="46.09507830277058" lon="12.82392641278075"><ele>140.0</ele><time>2026-04-25T07:51:05.001Z</time></trkpt><trkpt lat="46.095015216628845" lon="12.823747051622883"><ele>140.0</ele><time>2026-04-25T07:51:06.001Z</time></trkpt><trkpt lat="46.09495268972556" lon="12.823567098841261"><ele>140.0</ele><time>2026-04-25T07:51:07.001Z</time></trkpt><trkpt lat="46.09489148772019" lon="12.823382536871003"><ele>140.0</ele><time>2026-04-25T07:51:08.001Z</time></trkpt><trkpt lat="46.09482605602124" lon="12.823191222104732"><ele>139.66666666666666</ele><time>2026-04-25T07:51:09.001Z</time></trkpt><trkpt lat="46.094755973341975" lon="12.82299065290691"><ele>139.33333333333334</ele><time>2026-04-25T07:51:10.001Z</time></trkpt><trkpt lat="46.09468340853359" lon="12.82278122061959"><ele>139.0</ele><time>2026-04-25T07:51:11.001Z</time></trkpt><trkpt lat="46.09460576968555" lon="12.822554134451572"><ele>138.33333333333334</ele><time>2026-04-25T07:51:12.001Z</time></trkpt><trkpt lat="46.094521991174986" lon="12.822317544760656"><ele>137.66666666666666</ele><time>2026-04-25T07:51:13.001Z</time></trkpt><trkpt lat="46.094434222348454" lon="12.822065130277858"><ele>137.0</ele><time>2026-04-25T07:51:14.001Z</time></trkpt><trkpt lat="46.09434290021531" lon="12.821796439760014"><ele>137.0</ele><time>2026-04-25T07:51:15.001Z</time></trkpt><trkpt lat="46.09424821598241" lon="12.821516595932321"><ele>137.0</ele><time>2026-04-25T07:51:16.001Z</time></trkpt><trkpt lat="46.09415105846803" lon="12.821233453594274"><ele>137.0</ele><time>2026-04-25T07:51:17.001Z</time></trkpt><trkpt lat="46.094065483949876" lon="12.820983366461954"><ele>137.66666666666666</ele><time>2026-04-25T07:51:18.001Z</time></trkpt><trkpt lat="46.09398579708588" lon="12.820750767021112"><ele>138.33333333333334</ele><time>2026-04-25T07:51:19.001Z</time></trkpt><trkpt lat="46.093911227488334" lon="12.820534381720135"><ele>139.0</ele><time>2026-04-25T07:51:20.001Z</time></trkpt><trkpt lat="46.093837287258054" lon="12.820311403038493"><ele>139.0</ele><time>2026-04-25T07:51:21.001Z</time></trkpt><trkpt lat="46.09376402694212" lon="12.820088361343183"><ele>139.0</ele><time>2026-04-25T07:51:22.001Z</time></trkpt><trkpt lat="46.09368980476192" lon="12.819885023554042"><ele>139.0</ele><time>2026-04-25T07:51:23.001Z</time></trkpt><trkpt lat="46.09362539987185" lon="12.819695270956592"><ele>139.0</ele><time>2026-04-25T07:51:24.001Z</time></trkpt><trkpt lat="46.09356061869996" lon="12.819496231620922"><ele>139.0</ele><time>2026-04-25T07:51:25.001Z</time></trkpt><trkpt lat="46.0934968797449" lon="12.819300680845371"><ele>139.0</ele><time>2026-04-25T07:51:26.001Z</time></trkpt><trkpt lat="46.09343335663887" lon="12.819108773031033"><ele>138.66666666666669</ele><time>2026-04-25T07:51:27.001Z</time></trkpt><trkpt lat="46.093367000087454" lon="12.818903162335493"><ele>138.33333333333334</ele><time>2026-04-25T07:51:28.001Z</time></trkpt><trkpt lat="46.093296299444376" lon="12.81868663594085"><ele>138.0</ele><time>2026-04-25T07:51:29.001Z</time></trkpt><trkpt lat="46.09322005947632" lon="12.818466495923916"><ele>138.0</ele><time>2026-04-25T07:51:30.001Z</time></trkpt><trkpt lat="46.093146833484184" lon="12.818256270287698"><ele>138.0</ele><time>2026-04-25T07:51:31.001Z</time></trkpt><trkpt lat="46.09307325851485" lon="12.818047025347553"><ele>138.0</ele><time>2026-04-25T07:51:32.001Z</time></trkpt><trkpt lat="46.09300090158578" lon="12.817837616003"><ele>138.33333333333334</ele><time>2026-04-25T07:51:33.001Z</time></trkpt><trkpt lat="46.092929638251654" lon="12.817621972311796"><ele>138.66666666666669</ele><time>2026-04-25T07:51:34.001Z</time></trkpt><trkpt lat="46.09284786489847" lon="12.817398561972414"><ele>139.0</ele><time>2026-04-25T07:51:35.001Z</time></trkpt><trkpt lat="46.09276247078783" lon="12.817160035341846"><ele>139.0</ele><time>2026-04-25T07:51:36.001Z</time></trkpt><trkpt lat="46.092678042850316" lon="12.816903967158922"><ele>139.0</ele><time>2026-04-25T07:51:37.001Z</time></trkpt><trkpt lat="46.09258290339713" lon="12.816638725060983"><ele>139.0</ele><time>2026-04-25T07:51:38.001Z</time></trkpt><trkpt lat="46.09250274391923" lon="12.816361233472236"><ele>138.0</ele><time>2026-04-25T07:51:39Z</time></trkpt><trkpt lat="46.092419091048946" lon="12.816077150470525"><ele>137.0</ele><time>2026-04-25T07:51:40Z</time></trkpt><trkpt lat="46.092338967692235" lon="12.815793092905748"><ele>136.0</ele><time>2026-04-25T07:51:41Z</time></trkpt><trkpt lat="46.09226204784686" lon="12.81550530923836"><ele>135.66666666666669</ele><time>2026-04-25T07:51:42Z</time></trkpt><trkpt lat="46.092190393147355" lon="12.815228584663931"><ele>135.33333333333334</ele><time>2026-04-25T07:51:43Z</time></trkpt><trkpt lat="46.092124529679424" lon="12.814955162323027"><ele>135.0</ele><time>2026-04-25T07:51:44Z</time></trkpt><trkpt lat="46.092064728172595" lon="12.814691277848853"><ele>135.0</ele><time>2026-04-25T07:51:45Z</time></trkpt><trkpt lat="46.09200896680099" lon="12.814430892725584"><ele>135.0</ele><time>2026-04-25T07:51:46Z</time></trkpt><trkpt lat="46.091955915190546" lon="12.814171026862951"><ele>135.0</ele><time>2026-04-25T07:51:47Z</time></trkpt><trkpt lat="46.09190274102622" lon="12.813904392923842"><ele>135.0</ele><time>2026-04-25T07:51:48Z</time></trkpt><trkpt lat="46.09185646403761" lon="12.813631600817715"><ele>135.0</ele><time>2026-04-25T07:51:49Z</time></trkpt><trkpt lat="46.09181265635886" lon="12.813352450305452"><ele>135.0</ele><time>2026-04-25T07:51:50Z</time></trkpt><trkpt lat="46.09176906489124" lon="12.813073895702983"><ele>135.33333333333334</ele><time>2026-04-25T07:51:51Z</time></trkpt><trkpt lat="46.091728173278156" lon="12.812793399946266"><ele>135.66666666666669</ele><time>2026-04-25T07:51:52Z</time></trkpt><trkpt lat="46.091690569790444" lon="12.812508572601796"><ele>136.0</ele><time>2026-04-25T07:51:53Z</time></trkpt><trkpt lat="46.09165748576528" lon="12.812221225191362"><ele>135.33333333333334</ele><time>2026-04-25T07:51:54Z</time></trkpt><trkpt lat="46.091627103810495" lon="12.811931704084193"><ele>134.66666666666666</ele><time>2026-04-25T07:51:55Z</time></trkpt><trkpt lat="46.09160132667936" lon="12.81164397312651"><ele>134.0</ele><time>2026-04-25T07:51:56Z</time></trkpt><trkpt lat="46.091579196506856" lon="12.811356610453416"><ele>134.0</ele><time>2026-04-25T07:51:57Z</time></trkpt><trkpt lat="46.091559536230235" lon="12.811073729311069"><ele>134.0</ele><time>2026-04-25T07:51:58Z</time></trkpt><trkpt lat="46.09154500437338" lon="12.810791756460764"><ele>134.0</ele><time>2026-04-25T07:51:59Z</time></trkpt><trkpt lat="46.09153254717366" lon="12.810506094465977"><ele>134.0</ele><time>2026-04-25T07:52:00Z</time></trkpt><trkpt lat="46.09152155403867" lon="12.810213706187888"><ele>134.0</ele><time>2026-04-25T07:52:01Z</time></trkpt><trkpt lat="46.09151471480845" lon="12.809914643715043"><ele>134.0</ele><time>2026-04-25T07:52:02Z</time></trkpt><trkpt lat="46.09151158206004" lon="12.809607151774944"><ele>133.33333333333331</ele><time>2026-04-25T07:52:03Z</time></trkpt><trkpt lat="46.09151330255374" lon="12.80930327946213"><ele>132.66666666666666</ele><time>2026-04-25T07:52:04Z</time></trkpt><trkpt lat="46.091518127656514" lon="12.808999172767013"><ele>132.0</ele><time>2026-04-25T07:52:05Z</time></trkpt><trkpt lat="46.091526544209344" lon="12.808697969790508"><ele>132.33333333333334</ele><time>2026-04-25T07:52:06Z</time></trkpt><trkpt lat="46.09153924920722" lon="12.808404600589348"><ele>132.66666666666669</ele><time>2026-04-25T07:52:07Z</time></trkpt><trkpt lat="46.0915558021516" lon="12.808123036949064"><ele>133.0</ele><time>2026-04-25T07:52:08Z</time></trkpt><trkpt lat="46.091575160518964" lon="12.807847875990396"><ele>133.0</ele><time>2026-04-25T07:52:09Z</time></trkpt><trkpt lat="46.09159632065213" lon="12.80757362228028"><ele>133.0</ele><time>2026-04-25T07:52:10Z</time></trkpt><trkpt lat="46.091619303991166" lon="12.807296601004698"><ele>133.0</ele><time>2026-04-25T07:52:11Z</time></trkpt><trkpt lat="46.09164791568589" lon="12.807017841215965"><ele>133.33333333333334</ele><time>2026-04-25T07:52:12Z</time></trkpt><trkpt lat="46.09167979309349" lon="12.806733568879727"><ele>133.66666666666666</ele><time>2026-04-25T07:52:13Z</time></trkpt><trkpt lat="46.091715408647104" lon="12.806445943853767"><ele>134.0</ele><time>2026-04-25T07:52:14Z</time></trkpt><trkpt lat="46.09175546382042" lon="12.806154388484673"><ele>134.0</ele><time>2026-04-25T07:52:15Z</time></trkpt><trkpt lat="46.09179927364485" lon="12.80585932977101"><ele>134.0</ele><time>2026-04-25T07:52:16Z</time></trkpt><trkpt lat="46.0918652050155" lon="12.805566815866014"><ele>134.0</ele><time>2026-04-25T07:52:17Z</time></trkpt><trkpt lat="46.09192058133785" lon="12.805264531508376"><ele>133.66666666666666</ele><time>2026-04-25T07:52:18Z</time></trkpt><trkpt lat="46.09197908411038" lon="12.804961880828317"><ele>133.33333333333334</ele><time>2026-04-25T07:52:19Z</time></trkpt><trkpt lat="46.09204039916971" lon="12.804664117072614"><ele>133.0</ele><time>2026-04-25T07:52:20Z</time></trkpt><trkpt lat="46.09209338260386" lon="12.804359427414065"><ele>133.33333333333334</ele><time>2026-04-25T07:52:21Z</time></trkpt><trkpt lat="46.09216368006425" lon="12.804066398350397"><ele>133.66666666666666</ele><time>2026-04-25T07:52:22Z</time></trkpt><trkpt lat="46.09223606783422" lon="12.803778739632651"><ele>134.0</ele><time>2026-04-25T07:52:23Z</time></trkpt><trkpt lat="46.092311551424885" lon="12.803496121927193"><ele>134.0</ele><time>2026-04-25T07:52:24Z</time></trkpt><trkpt lat="46.092387203894255" lon="12.803221423671845"><ele>134.0</ele><time>2026-04-25T07:52:25Z</time></trkpt><trkpt lat="46.09246717470197" lon="12.802949597973589"><ele>134.0</ele><time>2026-04-25T07:52:26Z</time></trkpt><trkpt lat="46.092553926226884" lon="12.802674377705568"><ele>134.0</ele><time>2026-04-25T07:52:27Z</time></trkpt><trkpt lat="46.092643910763314" lon="12.802395119636058"><ele>134.0</ele><time>2026-04-25T07:52:28Z</time></trkpt><trkpt lat="46.09274066009546" lon="12.802109618773894"><ele>134.0</ele><time>2026-04-25T07:52:29Z</time></trkpt><trkpt lat="46.09284090414191" lon="12.80181856302245"><ele>134.0</ele><time>2026-04-25T07:52:30Z</time></trkpt><trkpt lat="46.09294469224144" lon="12.801523021340865"><ele>134.0</ele><time>2026-04-25T07:52:31Z</time></trkpt><trkpt lat="46.09305148288895" lon="12.801221907793863"><ele>134.5</ele><time>2026-04-25T07:52:32Z</time></trkpt><trkpt lat="46.09315907422539" lon="12.800918325716266"><ele>135.0</ele><time>2026-04-25T07:52:33Z</time></trkpt><trkpt lat="46.093267677999016" lon="12.800611483884976"><ele>135.5</ele><time>2026-04-25T07:52:34Z</time></trkpt><trkpt lat="46.09337142524233" lon="12.800313770370096"><ele>136.0</ele><time>2026-04-25T07:52:35Z</time></trkpt><trkpt lat="46.09347515040428" lon="12.800021736193061"><ele>136.0</ele><time>2026-04-25T07:52:36Z</time></trkpt><trkpt lat="46.093578006642005" lon="12.799733893744792"><ele>136.0</ele><time>2026-04-25T07:52:37Z</time></trkpt><trkpt lat="46.09367950406823" lon="12.799451280309691"><ele>136.0</ele><time>2026-04-25T07:52:38Z</time></trkpt><trkpt lat="46.09377794709157" lon="12.799172402020767"><ele>136.0</ele><time>2026-04-25T07:52:39Z</time></trkpt><trkpt lat="46.093874606794394" lon="12.798897864370932"><ele>136.0</ele><time>2026-04-25T07:52:40Z</time></trkpt><trkpt lat="46.09396925555174" lon="12.798630581543113"><ele>136.0</ele><time>2026-04-25T07:52:41Z</time></trkpt><trkpt lat="46.09406205504741" lon="12.79837311492912"><ele>136.33333333333334</ele><time>2026-04-25T07:52:42Z</time></trkpt><trkpt lat="46.09414925541162" lon="12.798124740514274"><ele>136.66666666666666</ele><time>2026-04-25T07:52:43Z</time></trkpt><trkpt lat="46.09423410975195" lon="12.797885757086295"><ele>137.0</ele><time>2026-04-25T07:52:44Z</time></trkpt><trkpt lat="46.09431411682997" lon="12.79766161455662"><ele>137.33333333333331</ele><time>2026-04-25T07:52:45Z</time></trkpt><trkpt lat="46.09439114965934" lon="12.7974361999741"><ele>137.66666666666666</ele><time>2026-04-25T07:52:46Z</time></trkpt><trkpt lat="46.09447086264409" lon="12.797208586010928"><ele>138.0</ele><time>2026-04-25T07:52:47Z</time></trkpt><trkpt lat="46.0945514748877" lon="12.79697454647143"><ele>138.0</ele><time>2026-04-25T07:52:48Z</time></trkpt><trkpt lat="46.09463156369242" lon="12.796734260380113"><ele>138.0</ele><time>2026-04-25T07:52:49Z</time></trkpt><trkpt lat="46.094709198266614" lon="12.796481526684474"><ele>138.0</ele><time>2026-04-25T07:52:50Z</time></trkpt><trkpt lat="46.09477718241439" lon="12.796222297414069"><ele>138.66666666666666</ele><time>2026-04-25T07:52:51Z</time></trkpt><trkpt lat="46.09483873962631" lon="12.79595802726265"><ele>139.33333333333331</ele><time>2026-04-25T07:52:52Z</time></trkpt><trkpt lat="46.09489205235277" lon="12.795694075113422"><ele>140.0</ele><time>2026-04-25T07:52:53Z</time></trkpt><trkpt lat="46.094936197680866" lon="12.795429529380867"><ele>140.0</ele><time>2026-04-25T07:52:54Z</time></trkpt><trkpt lat="46.09497131139044" lon="12.79516347517857"><ele>140.0</ele><time>2026-04-25T07:52:55Z</time></trkpt><trkpt lat="46.09500075595178" lon="12.79489885076191"><ele>140.0</ele><time>2026-04-25T07:52:56Z</time></trkpt><trkpt lat="46.09502298829962" lon="12.794637822310076"><ele>140.0</ele><time>2026-04-25T07:52:57Z</time></trkpt><trkpt lat="46.09503771924267" lon="12.794377002740054"><ele>140.0</ele><time>2026-04-25T07:52:58Z</time></trkpt><trkpt lat="46.095041883759926" lon="12.794116998804498"><ele>140.0</ele><time>2026-04-25T07:52:59Z</time></trkpt><trkpt lat="46.0950380253761" lon="12.79385859935381"><ele>140.0</ele><time>2026-04-25T07:53:00Z</time></trkpt><trkpt lat="46.09503077583567" lon="12.793602746987712"><ele>140.0</ele><time>2026-04-25T07:53:01Z</time></trkpt><trkpt lat="46.09501371964082" lon="12.79334908798305"><ele>140.0</ele><time>2026-04-25T07:53:02Z</time></trkpt><trkpt lat="46.09499060796109" lon="12.793103792144835"><ele>140.0</ele><time>2026-04-25T07:53:03.001Z</time></trkpt><trkpt lat="46.09496067403908" lon="12.792858599488133"><ele>140.0</ele><time>2026-04-25T07:53:04.001Z</time></trkpt><trkpt lat="46.09492374350413" lon="12.792613736852404"><ele>140.0</ele><time>2026-04-25T07:53:05.001Z</time></trkpt><trkpt lat="46.09488176598853" lon="12.792368788160754"><ele>140.0</ele><time>2026-04-25T07:53:06.001Z</time></trkpt><trkpt lat="46.09483986786652" lon="12.792125429660423"><ele>140.0</ele><time>2026-04-25T07:53:07.001Z</time></trkpt><trkpt lat="46.09479399183264" lon="12.79188418524927"><ele>140.0</ele><time>2026-04-25T07:53:08.001Z</time></trkpt><trkpt lat="46.09474695566868" lon="12.791650913569041"><ele>140.0</ele><time>2026-04-25T07:53:09.001Z</time></trkpt><trkpt lat="46.09470814203503" lon="12.791434343112181"><ele>140.0</ele><time>2026-04-25T07:53:10.001Z</time></trkpt><trkpt lat="46.094671282704354" lon="12.791238564434183"><ele>140.0</ele><time>2026-04-25T07:53:11.001Z</time></trkpt><trkpt lat="46.09463944193071" lon="12.791061192623426"><ele>140.0</ele><time>2026-04-25T07:53:12.001Z</time></trkpt><trkpt lat="46.094616818444756" lon="12.79089225562549"><ele>140.0</ele><time>2026-04-25T07:53:13.001Z</time></trkpt><trkpt lat="46.09459777408256" lon="12.790739664952127"><ele>140.0</ele><time>2026-04-25T07:53:14.001Z</time></trkpt><trkpt lat="46.094583526030334" lon="12.79060072540831"><ele>140.0</ele><time>2026-04-25T07:53:15.001Z</time></trkpt><trkpt lat="46.09457680303014" lon="12.79046410330018"><ele>140.0</ele><time>2026-04-25T07:53:16.001Z</time></trkpt><trkpt lat="46.09458497067625" lon="12.790327085604325"><ele>140.0</ele><time>2026-04-25T07:53:17.001Z</time></trkpt><trkpt lat="46.09461391623314" lon="12.790196326313247"><ele>140.4</ele><time>2026-04-25T07:53:18.001Z</time></trkpt><trkpt lat="46.09463141257722" lon="12.790063503513506"><ele>140.8</ele><time>2026-04-25T07:53:19.001Z</time></trkpt><trkpt lat="46.09461048734185" lon="12.789927909701035"><ele>141.2</ele><time>2026-04-25T07:53:20.001Z</time></trkpt><trkpt lat="46.09455318826232" lon="12.789800672921066"><ele>141.6</ele><time>2026-04-25T07:53:21.001Z</time></trkpt><trkpt lat="46.09445532485673" lon="12.789679889673327"><ele>142.0</ele><time>2026-04-25T07:53:22.001Z</time></trkpt><trkpt lat="46.09436865059759" lon="12.789521698893026"><ele>142.33333333333334</ele><time>2026-04-25T07:53:23.001Z</time></trkpt><trkpt lat="46.0943051508792" lon="12.789323194394841"><ele>142.66666666666666</ele><time>2026-04-25T07:53:24.001Z</time></trkpt><trkpt lat="46.09425847560142" lon="12.789112632268157"><ele>143.0</ele><time>2026-04-25T07:53:25.001Z</time></trkpt><trkpt lat="46.09421671459462" lon="12.788901417700387"><ele>143.0</ele><time>2026-04-25T07:53:26.001Z</time></trkpt><trkpt lat="46.09417319533578" lon="12.788677664628073"><ele>143.0</ele><time>2026-04-25T07:53:27.001Z</time></trkpt><trkpt lat="46.09412941145916" lon="12.788441461412255"><ele>143.0</ele><time>2026-04-25T07:53:28.001Z</time></trkpt><trkpt lat="46.09408310726947" lon="12.788198495085679"><ele>142.66666666666666</ele><time>2026-04-25T07:53:29.001Z</time></trkpt><trkpt lat="46.09403619946897" lon="12.787954739043414"><ele>142.33333333333334</ele><time>2026-04-25T07:53:30.001Z</time></trkpt><trkpt lat="46.093993000783364" lon="12.787717806632767"><ele>142.0</ele><time>2026-04-25T07:53:31.001Z</time></trkpt><trkpt lat="46.09394837640317" lon="12.787480246985307"><ele>143.0</ele><time>2026-04-25T07:53:32.001Z</time></trkpt><trkpt lat="46.09390190352123" lon="12.787247931561105"><ele>144.0</ele><time>2026-04-25T07:53:33.001Z</time></trkpt><trkpt lat="46.09385669017851" lon="12.787024431188124"><ele>145.0</ele><time>2026-04-25T07:53:34.001Z</time></trkpt><trkpt lat="46.09381459976046" lon="12.786808970847021"><ele>145.0</ele><time>2026-04-25T07:53:35.001Z</time></trkpt><trkpt lat="46.09377504096172" lon="12.786601930787137"><ele>145.0</ele><time>2026-04-25T07:53:36.001Z</time></trkpt><trkpt lat="46.09373671365385" lon="12.786400424150525"><ele>145.0</ele><time>2026-04-25T07:53:37.001Z</time></trkpt><trkpt lat="46.09370171286336" lon="12.786196163219376"><ele>145.0</ele><time>2026-04-25T07:53:38.001Z</time></trkpt><trkpt lat="46.09366096284457" lon="12.785984703610229"><ele>145.33333333333334</ele><time>2026-04-25T07:53:39.001Z</time></trkpt><trkpt lat="46.09361702745769" lon="12.785757645891806"><ele>145.66666666666666</ele><time>2026-04-25T07:53:40.001Z</time></trkpt><trkpt lat="46.093572972410385" lon="12.785526381728426"><ele>146.0</ele><time>2026-04-25T07:53:41.001Z</time></trkpt><trkpt lat="46.09352703035575" lon="12.78529185278472"><ele>146.33333333333331</ele><time>2026-04-25T07:53:42Z</time></trkpt><trkpt lat="46.09347666167973" lon="12.785051817100548"><ele>146.66666666666666</ele><time>2026-04-25T07:53:43Z</time></trkpt><trkpt lat="46.093421913997325" lon="12.784810564439608"><ele>147.0</ele><time>2026-04-25T07:53:44Z</time></trkpt><trkpt lat="46.0933592084976" lon="12.784566420220887"><ele>147.0</ele><time>2026-04-25T07:53:45Z</time></trkpt><trkpt lat="46.093287574990164" lon="12.78431680644699"><ele>147.0</ele><time>2026-04-25T07:53:46Z</time></trkpt><trkpt lat="46.09320987694191" lon="12.78407028009097"><ele>147.0</ele><time>2026-04-25T07:53:47Z</time></trkpt><trkpt lat="46.09312325725342" lon="12.783819037634874"><ele>146.66666666666666</ele><time>2026-04-25T07:53:48Z</time></trkpt><trkpt lat="46.09302439164298" lon="12.78356825275832"><ele>146.33333333333331</ele><time>2026-04-25T07:53:49Z</time></trkpt><trkpt lat="46.09291739475396" lon="12.783328642566207"><ele>146.0</ele><time>2026-04-25T07:53:50Z</time></trkpt><trkpt lat="46.09280689223923" lon="12.783098750305706"><ele>146.0</ele><time>2026-04-25T07:53:51Z</time></trkpt><trkpt lat="46.09269008370053" lon="12.782876537016245"><ele>146.0</ele><time>2026-04-25T07:53:52Z</time></trkpt><trkpt lat="46.092570612457116" lon="12.782668011339343"><ele>146.0</ele><time>2026-04-25T07:53:53Z</time></trkpt><trkpt lat="46.09244471206091" lon="12.782462698717447"><ele>145.33333333333331</ele><time>2026-04-25T07:53:54Z</time></trkpt><trkpt lat="46.09230623552398" lon="12.782260071298174"><ele>144.66666666666666</ele><time>2026-04-25T07:53:55Z</time></trkpt><trkpt lat="46.09215802276545" lon="12.782065049193946"><ele>144.0</ele><time>2026-04-25T07:53:56Z</time></trkpt><trkpt lat="46.09201074151057" lon="12.781887079873604"><ele>143.66666666666666</ele><time>2026-04-25T07:53:57Z</time></trkpt><trkpt lat="46.09186118641179" lon="12.781721965688705"><ele>143.33333333333331</ele><time>2026-04-25T07:53:58Z</time></trkpt><trkpt lat="46.0917095111824" lon="12.781565987739011"><ele>143.0</ele><time>2026-04-25T07:53:59Z</time></trkpt><trkpt lat="46.0915509286682" lon="12.781417374132772"><ele>142.66666666666666</ele><time>2026-04-25T07:54:00Z</time></trkpt><trkpt lat="46.091398859848596" lon="12.781244007487627"><ele>142.33333333333334</ele><time>2026-04-25T07:54:01Z</time></trkpt><trkpt lat="46.0912364835713" lon="12.781092258681435"><ele>142.0</ele><time>2026-04-25T07:54:02Z</time></trkpt><trkpt lat="46.091073596132354" lon="12.78094224408908"><ele>142.0</ele><time>2026-04-25T07:54:03Z</time></trkpt><trkpt lat="46.09091045516734" lon="12.780796425216021"><ele>142.0</ele><time>2026-04-25T07:54:04Z</time></trkpt><trkpt lat="46.09074578554468" lon="12.780649102276625"><ele>142.0</ele><time>2026-04-25T07:54:05Z</time></trkpt><trkpt lat="46.090569904773105" lon="12.78052006220166"><ele>142.0</ele><time>2026-04-25T07:54:06Z</time></trkpt><trkpt lat="46.0904035752453" lon="12.78036757171041"><ele>142.0</ele><time>2026-04-25T07:54:07Z</time></trkpt><trkpt lat="46.090237357168334" lon="12.780216360016361"><ele>142.0</ele><time>2026-04-25T07:54:08Z</time></trkpt><trkpt lat="46.09008120592488" lon="12.78004558555528"><ele>143.0</ele><time>2026-04-25T07:54:09Z</time></trkpt><trkpt lat="46.089915431503705" lon="12.77988941097075"><ele>144.0</ele><time>2026-04-25T07:54:10Z</time></trkpt><trkpt lat="46.08974606857376" lon="12.779732482380837"><ele>145.0</ele><time>2026-04-25T07:54:11Z</time></trkpt><trkpt lat="46.089577011433725" lon="12.779578192957928"><ele>145.0</ele><time>2026-04-25T07:54:12Z</time></trkpt><trkpt lat="46.08940614108614" lon="12.779422535750928"><ele>145.0</ele><time>2026-04-25T07:54:13Z</time></trkpt><trkpt lat="46.0892343247894" lon="12.779265606218125"><ele>145.0</ele><time>2026-04-25T07:54:14Z</time></trkpt><trkpt lat="46.08905813295373" lon="12.779103864897845"><ele>144.66666666666669</ele><time>2026-04-25T07:54:15Z</time></trkpt><trkpt lat="46.08888108258629" lon="12.778941335569543"><ele>144.33333333333334</ele><time>2026-04-25T07:54:16Z</time></trkpt><trkpt lat="46.088703263204856" lon="12.778779064001531"><ele>144.0</ele><time>2026-04-25T07:54:17Z</time></trkpt><trkpt lat="46.08852609184985" lon="12.778619713429453"><ele>144.33333333333334</ele><time>2026-04-25T07:54:18Z</time></trkpt><trkpt lat="46.08834634951951" lon="12.778484320694227"><ele>144.66666666666669</ele><time>2026-04-25T07:54:19Z</time></trkpt><trkpt lat="46.08817237579151" lon="12.778325893507914"><ele>145.0</ele><time>2026-04-25T07:54:20Z</time></trkpt><trkpt lat="46.08799351328187" lon="12.778162193139798"><ele>145.0</ele><time>2026-04-25T07:54:21Z</time></trkpt><trkpt lat="46.08781631624359" lon="12.778000242993773"><ele>145.0</ele><time>2026-04-25T07:54:22Z</time></trkpt><trkpt lat="46.087640867190835" lon="12.777840056750579"><ele>145.0</ele><time>2026-04-25T07:54:23Z</time></trkpt><trkpt lat="46.08747851275975" lon="12.777663646934192"><ele>144.66666666666669</ele><time>2026-04-25T07:54:24Z</time></trkpt><trkpt lat="46.08730202646802" lon="12.777526197472861"><ele>144.33333333333334</ele><time>2026-04-25T07:54:25Z</time></trkpt><trkpt lat="46.08713588697749" lon="12.777369463390503"><ele>144.0</ele><time>2026-04-25T07:54:26Z</time></trkpt><trkpt lat="46.08696984119905" lon="12.777213086704473"><ele>144.0</ele><time>2026-04-25T07:54:27Z</time></trkpt><trkpt lat="46.086805456572854" lon="12.777053028478848"><ele>144.0</ele><time>2026-04-25T07:54:28Z</time></trkpt><trkpt lat="46.086640839012325" lon="12.776890055299415"><ele>144.0</ele><time>2026-04-25T07:54:29Z</time></trkpt><trkpt lat="46.08647495440063" lon="12.776724549515414"><ele>143.33333333333334</ele><time>2026-04-25T07:54:30Z</time></trkpt><trkpt lat="46.08630845920927" lon="12.776551529221553"><ele>142.66666666666669</ele><time>2026-04-25T07:54:31Z</time></trkpt><trkpt lat="46.08613998738356" lon="12.7763734001671"><ele>142.0</ele><time>2026-04-25T07:54:32Z</time></trkpt><trkpt lat="46.085972853113034" lon="12.776192561813389"><ele>142.33333333333334</ele><time>2026-04-25T07:54:33Z</time></trkpt><trkpt lat="46.085807231303214" lon="12.776005893015258"><ele>142.66666666666666</ele><time>2026-04-25T07:54:34Z</time></trkpt><trkpt lat="46.08564336405986" lon="12.775818320155114"><ele>143.0</ele><time>2026-04-25T07:54:35Z</time></trkpt><trkpt lat="46.08548096890073" lon="12.775627188783163"><ele>143.0</ele><time>2026-04-25T07:54:36Z</time></trkpt><trkpt lat="46.08532998083933" lon="12.775416877318605"><ele>143.0</ele><time>2026-04-25T07:54:37Z</time></trkpt><trkpt lat="46.0851732964472" lon="12.775223858122725"><ele>143.0</ele><time>2026-04-25T07:54:38Z</time></trkpt><trkpt lat="46.0850185733385" lon="12.775029171982682"><ele>142.66666666666666</ele><time>2026-04-25T07:54:39Z</time></trkpt><trkpt lat="46.08485320229205" lon="12.774852368308846"><ele>142.33333333333334</ele><time>2026-04-25T07:54:40Z</time></trkpt><trkpt lat="46.08470074248533" lon="12.774654181994183"><ele>142.0</ele><time>2026-04-25T07:54:41Z</time></trkpt><trkpt lat="46.084551698575254" lon="12.774455512998646"><ele>142.66666666666669</ele><time>2026-04-25T07:54:42Z</time></trkpt><trkpt lat="46.084403537750596" lon="12.77426293418349"><ele>143.33333333333334</ele><time>2026-04-25T07:54:43Z</time></trkpt><trkpt lat="46.08425925047037" lon="12.774070909372446"><ele>144.0</ele><time>2026-04-25T07:54:44Z</time></trkpt><trkpt lat="46.084119559470075" lon="12.773884806130827"><ele>143.33333333333334</ele><time>2026-04-25T07:54:45Z</time></trkpt><trkpt lat="46.08399651544482" lon="12.773693294975878"><ele>142.66666666666669</ele><time>2026-04-25T07:54:46Z</time></trkpt><trkpt lat="46.08387278761266" lon="12.773529954188108"><ele>142.0</ele><time>2026-04-25T07:54:47Z</time></trkpt><trkpt lat="46.0837568433134" lon="12.773376162825402"><ele>142.0</ele><time>2026-04-25T07:54:48Z</time></trkpt><trkpt lat="46.083650132801125" lon="12.773233306676728"><ele>142.0</ele><time>2026-04-25T07:54:49Z</time></trkpt><trkpt lat="46.08355217737223" lon="12.773100452460527"><ele>142.0</ele><time>2026-04-25T07:54:50Z</time></trkpt><trkpt lat="46.08346299513518" lon="12.77297656369698"><ele>142.0</ele><time>2026-04-25T07:54:51Z</time></trkpt><trkpt lat="46.08338017148586" lon="12.772855453999771"><ele>142.0</ele><time>2026-04-25T07:54:52Z</time></trkpt><trkpt lat="46.08328811267901" lon="12.772735909566489"><ele>142.0</ele><time>2026-04-25T07:54:53Z</time></trkpt><trkpt lat="46.083229600429775" lon="12.772598560448643"><ele>142.0</ele><time>2026-04-25T07:54:54Z</time></trkpt><trkpt lat="46.08317039692618" lon="12.772475749736415"><ele>142.0</ele><time>2026-04-25T07:54:55Z</time></trkpt><trkpt lat="46.0831003872281" lon="12.772369531005388"><ele>142.0</ele><time>2026-04-25T07:54:56Z</time></trkpt><trkpt lat="46.08305123764241" lon="12.772255003531535"><ele>142.0</ele><time>2026-04-25T07:54:57Z</time></trkpt><trkpt lat="46.0830172753611" lon="12.772133391876881"><ele>142.0</ele><time>2026-04-25T07:54:58Z</time></trkpt><trkpt lat="46.08300147148695" lon="12.772001316421589"><ele>142.0</ele><time>2026-04-25T07:54:59Z</time></trkpt><trkpt lat="46.08301586354681" lon="12.771878371674042"><ele>142.0</ele><time>2026-04-25T07:55:00Z</time></trkpt><trkpt lat="46.08297437281454" lon="12.771743912598204"><ele>142.0</ele><time>2026-04-25T07:55:01Z</time></trkpt><trkpt lat="46.082892671003925" lon="12.771633831002474"><ele>142.0</ele><time>2026-04-25T07:55:02Z</time></trkpt><trkpt lat="46.082766901987945" lon="12.771572228460307"><ele>142.0</ele><time>2026-04-25T07:55:03Z</time></trkpt><trkpt lat="46.082644744105096" lon="12.771458331398708"><ele>142.0</ele><time>2026-04-25T07:55:04Z</time></trkpt><trkpt lat="46.082546491766344" lon="12.77132657905844"><ele>142.0</ele><time>2026-04-25T07:55:05Z</time></trkpt><trkpt lat="46.082457430381154" lon="12.771196666269143"><ele>142.0</ele><time>2026-04-25T07:55:06Z</time></trkpt><trkpt lat="46.08237374244869" lon="12.771073180718167"><ele>142.0</ele><time>2026-04-25T07:55:07Z</time></trkpt><trkpt lat="46.08229321619856" lon="12.770956257749033"><ele>142.0</ele><time>2026-04-25T07:55:08Z</time></trkpt><trkpt lat="46.08221366880166" lon="12.770838105388737"><ele>142.0</ele><time>2026-04-25T07:55:09.001Z</time></trkpt><trkpt lat="46.08213455319028" lon="12.770722560144858"><ele>142.0</ele><time>2026-04-25T07:55:10.001Z</time></trkpt><trkpt lat="46.082053900663645" lon="12.770605281027551"><ele>142.0</ele><time>2026-04-25T07:55:11.001Z</time></trkpt><trkpt lat="46.081970760472466" lon="12.77048755803336"><ele>142.0</ele><time>2026-04-25T07:55:12.001Z</time></trkpt><trkpt lat="46.08188476599589" lon="12.770365434212714"><ele>142.0</ele><time>2026-04-25T07:55:13.001Z</time></trkpt><trkpt lat="46.08179861100148" lon="12.770238206604246"><ele>142.5</ele><time>2026-04-25T07:55:14.001Z</time></trkpt><trkpt lat="46.08170607132157" lon="12.7701043514764"><ele>143.0</ele><time>2026-04-25T07:55:15.001Z</time></trkpt><trkpt lat="46.081613699271074" lon="12.769970273663116"><ele>143.5</ele><time>2026-04-25T07:55:16.001Z</time></trkpt><trkpt lat="46.08152059296854" lon="12.769834142070508"><ele>144.0</ele><time>2026-04-25T07:55:17.001Z</time></trkpt><trkpt lat="46.08142611876928" lon="12.769699174118658"><ele>144.0</ele><time>2026-04-25T07:55:18.001Z</time></trkpt><trkpt lat="46.08132940447522" lon="12.769562525485602"><ele>144.0</ele><time>2026-04-25T07:55:19.001Z</time></trkpt><trkpt lat="46.081232089996185" lon="12.769423138774375"><ele>144.0</ele><time>2026-04-25T07:55:20.001Z</time></trkpt><trkpt lat="46.081133237474155" lon="12.769283391505914"><ele>144.0</ele><time>2026-04-25T07:55:21.001Z</time></trkpt><trkpt lat="46.081025336127716" lon="12.769131536578673"><ele>144.0</ele><time>2026-04-25T07:55:22.001Z</time></trkpt><trkpt lat="46.080897974930664" lon="12.768949792338862"><ele>144.0</ele><time>2026-04-25T07:55:23.001Z</time></trkpt><trkpt lat="46.08071869649079" lon="12.768690423778219"><ele>144.0</ele><time>2026-04-25T07:55:24.001Z</time></trkpt><trkpt lat="46.08050515250387" lon="12.768378192828486"><ele>144.0</ele><time>2026-04-25T07:55:25.001Z</time></trkpt><trkpt lat="46.08027640377042" lon="12.768051289118743"><ele>144.0</ele><time>2026-04-25T07:55:26.001Z</time></trkpt><trkpt lat="46.080073293938774" lon="12.76775623126999"><ele>143.0</ele><time>2026-04-25T07:55:27.001Z</time></trkpt><trkpt lat="46.07991107757756" lon="12.767494982796363"><ele>142.0</ele><time>2026-04-25T07:55:28.001Z</time></trkpt><trkpt lat="46.07973868482383" lon="12.767249133661558"><ele>142.0</ele><time>2026-04-25T07:55:29.001Z</time></trkpt><trkpt lat="46.079564460706486" lon="12.767000672151923"><ele>142.0</ele><time>2026-04-25T07:55:30.001Z</time></trkpt><trkpt lat="46.07938442704778" lon="12.76676739749863"><ele>142.5</ele><time>2026-04-25T07:55:31.001Z</time></trkpt><trkpt lat="46.079211767047525" lon="12.766517381923753"><ele>143.0</ele><time>2026-04-25T07:55:32.001Z</time></trkpt><trkpt lat="46.07904074840797" lon="12.766268598394536"><ele>143.5</ele><time>2026-04-25T07:55:33.001Z</time></trkpt><trkpt lat="46.078875381840305" lon="12.766029876646702"><ele>144.0</ele><time>2026-04-25T07:55:34.001Z</time></trkpt><trkpt lat="46.078713420641755" lon="12.765797310962377"><ele>144.0</ele><time>2026-04-25T07:55:35.001Z</time></trkpt><trkpt lat="46.07854886117424" lon="12.765559502945449"><ele>144.0</ele><time>2026-04-25T07:55:36.001Z</time></trkpt><trkpt lat="46.07838551085479" lon="12.765324846288884"><ele>143.5</ele><time>2026-04-25T07:55:37.001Z</time></trkpt><trkpt lat="46.07822437005004" lon="12.765093712026964"><ele>143.0</ele><time>2026-04-25T07:55:38.001Z</time></trkpt><trkpt lat="46.0780649529576" lon="12.764865075188222"><ele>143.0</ele><time>2026-04-25T07:55:39Z</time></trkpt><trkpt lat="46.077908014695694" lon="12.764636467094785"><ele>143.0</ele><time>2026-04-25T07:55:40Z</time></trkpt><trkpt lat="46.077749180529636" lon="12.764414435868444"><ele>143.0</ele><time>2026-04-25T07:55:41Z</time></trkpt><trkpt lat="46.07758328051032" lon="12.76420348781517"><ele>143.0</ele><time>2026-04-25T07:55:42Z</time></trkpt><trkpt lat="46.07741163323621" lon="12.764003716954454"><ele>143.0</ele><time>2026-04-25T07:55:43Z</time></trkpt><trkpt lat="46.07723661320533" lon="12.763823227537609"><ele>143.0</ele><time>2026-04-25T07:55:44Z</time></trkpt><trkpt lat="46.07705591673013" lon="12.76365618544687"><ele>143.0</ele><time>2026-04-25T07:55:45Z</time></trkpt><trkpt lat="46.07686864543921" lon="12.763499976696536"><ele>143.0</ele><time>2026-04-25T07:55:46Z</time></trkpt><trkpt lat="46.076679352776" lon="12.763350002043879"><ele>143.0</ele><time>2026-04-25T07:55:47Z</time></trkpt><trkpt lat="46.076482297448166" lon="12.763214896647732"><ele>143.0</ele><time>2026-04-25T07:55:48Z</time></trkpt><trkpt lat="46.076280670880564" lon="12.763096930806471"><ele>143.0</ele><time>2026-04-25T07:55:49Z</time></trkpt><trkpt lat="46.076081654091354" lon="12.762998537764599"><ele>143.0</ele><time>2026-04-25T07:55:50Z</time></trkpt><trkpt lat="46.07588567796918" lon="12.762910293795711"><ele>142.33333333333331</ele><time>2026-04-25T07:55:51Z</time></trkpt><trkpt lat="46.07569115128966" lon="12.762839242128637"><ele>141.66666666666666</ele><time>2026-04-25T07:55:52Z</time></trkpt><trkpt lat="46.07549610444887" lon="12.762783082973787"><ele>141.0</ele><time>2026-04-25T07:55:53Z</time></trkpt><trkpt lat="46.07529856091432" lon="12.762739182293576"><ele>141.0</ele><time>2026-04-25T07:55:54Z</time></trkpt><trkpt lat="46.075105128279105" lon="12.762706298033127"><ele>141.0</ele><time>2026-04-25T07:55:55Z</time></trkpt><trkpt lat="46.074913894711045" lon="12.762687620412516"><ele>141.0</ele><time>2026-04-25T07:55:56Z</time></trkpt><trkpt lat="46.07472341690979" lon="12.762681185465661"><ele>141.0</ele><time>2026-04-25T07:55:57Z</time></trkpt><trkpt lat="46.07453016891399" lon="12.762681289837536"><ele>141.0</ele><time>2026-04-25T07:55:58Z</time></trkpt><trkpt lat="46.07433696074557" lon="12.762700465559162"><ele>141.0</ele><time>2026-04-25T07:55:59Z</time></trkpt><trkpt lat="46.074145084982405" lon="12.76268452385963"><ele>140.66666666666666</ele><time>2026-04-25T07:56:00Z</time></trkpt><trkpt lat="46.0739737468189" lon="12.762762134005554"><ele>140.33333333333331</ele><time>2026-04-25T07:56:01Z</time></trkpt><trkpt lat="46.0738136819491" lon="12.762803618961938"><ele>140.0</ele><time>2026-04-25T07:56:02Z</time></trkpt><trkpt lat="46.07366387818404" lon="12.762849880377859"><ele>140.0</ele><time>2026-04-25T07:56:03Z</time></trkpt><trkpt lat="46.0735274708142" lon="12.762899587641582"><ele>140.0</ele><time>2026-04-25T07:56:04Z</time></trkpt><trkpt lat="46.07339540098614" lon="12.76294986957387"><ele>140.0</ele><time>2026-04-25T07:56:05Z</time></trkpt><trkpt lat="46.07327574020317" lon="12.763002865804442"><ele>140.0</ele><time>2026-04-25T07:56:06Z</time></trkpt><trkpt lat="46.07315965412184" lon="12.763062608132978"><ele>140.0</ele><time>2026-04-25T07:56:07Z</time></trkpt><trkpt lat="46.07304623300097" lon="12.763123170029267"><ele>140.0</ele><time>2026-04-25T07:56:08Z</time></trkpt><trkpt lat="46.07294622088638" lon="12.763181032768747"><ele>140.0</ele><time>2026-04-25T07:56:09Z</time></trkpt><trkpt lat="46.07285481577018" lon="12.763237287221491"><ele>140.0</ele><time>2026-04-25T07:56:10Z</time></trkpt><trkpt lat="46.072768774006185" lon="12.76328739855692"><ele>140.0</ele><time>2026-04-25T07:56:11Z</time></trkpt><trkpt lat="46.07269317107436" lon="12.763331667669704"><ele>140.0</ele><time>2026-04-25T07:56:12Z</time></trkpt><trkpt lat="46.07261691556079" lon="12.763373852904882"><ele>140.0</ele><time>2026-04-25T07:56:13Z</time></trkpt><trkpt lat="46.072542144376534" lon="12.763411284583002"><ele>140.0</ele><time>2026-04-25T07:56:14Z</time></trkpt><trkpt lat="46.0724602092737" lon="12.763440085474619"><ele>140.0</ele><time>2026-04-25T07:56:15Z</time></trkpt><trkpt lat="46.072369274385366" lon="12.76344727635671"><ele>140.0</ele><time>2026-04-25T07:56:16Z</time></trkpt><trkpt lat="46.07227568693589" lon="12.763417743380938"><ele>140.0</ele><time>2026-04-25T07:56:17Z</time></trkpt><trkpt lat="46.072184275753585" lon="12.76335930377945"><ele>139.75</ele><time>2026-04-25T07:56:18Z</time></trkpt><trkpt lat="46.07209747517235" lon="12.763269615351058"><ele>139.5</ele><time>2026-04-25T07:56:19Z</time></trkpt><trkpt lat="46.072019370684686" lon="12.763137563652322"><ele>139.25</ele><time>2026-04-25T07:56:20Z</time></trkpt><trkpt lat="46.07195192890815" lon="12.762987690002973"><ele>139.0</ele><time>2026-04-25T07:56:21Z</time></trkpt><trkpt lat="46.07189515470092" lon="12.762833015630903"><ele>139.75</ele><time>2026-04-25T07:56:22Z</time></trkpt><trkpt lat="46.0718413123232" lon="12.762674965851364"><ele>140.5</ele><time>2026-04-25T07:56:23Z</time></trkpt><trkpt lat="46.07178800222614" lon="12.76251792135761"><ele>141.25</ele><time>2026-04-25T07:56:24Z</time></trkpt><trkpt lat="46.07173640040691" lon="12.762363077926862"><ele>142.0</ele><time>2026-04-25T07:56:25Z</time></trkpt><trkpt lat="46.07168611752419" lon="12.762207078680836"><ele>142.0</ele><time>2026-04-25T07:56:26Z</time></trkpt><trkpt lat="46.071632248251134" lon="12.762045748446925"><ele>142.0</ele><time>2026-04-25T07:56:27Z</time></trkpt><trkpt lat="46.071574922076195" lon="12.761871771601795"><ele>142.0</ele><time>2026-04-25T07:56:28Z</time></trkpt><trkpt lat="46.071512182621845" lon="12.761681474718412"><ele>142.0</ele><time>2026-04-25T07:56:29Z</time></trkpt><trkpt lat="46.07144511950647" lon="12.761475939134204"><ele>142.0</ele><time>2026-04-25T07:56:30Z</time></trkpt><trkpt lat="46.07137504703671" lon="12.761266367883884"><ele>142.0</ele><time>2026-04-25T07:56:31Z</time></trkpt><trkpt lat="46.07130785947073" lon="12.761065024412657"><ele>142.0</ele><time>2026-04-25T07:56:32Z</time></trkpt><trkpt lat="46.071242732263386" lon="12.760869155594504"><ele>142.0</ele><time>2026-04-25T07:56:33Z</time></trkpt><trkpt lat="46.07117479439631" lon="12.760669805889572"><ele>142.0</ele><time>2026-04-25T07:56:34Z</time></trkpt><trkpt lat="46.0711019717115" lon="12.760453372223981"><ele>142.0</ele><time>2026-04-25T07:56:35Z</time></trkpt><trkpt lat="46.07102914666103" lon="12.76023311619417"><ele>142.66666666666669</ele><time>2026-04-25T07:56:36Z</time></trkpt><trkpt lat="46.07095576126755" lon="12.760010272717619"><ele>143.33333333333334</ele><time>2026-04-25T07:56:37Z</time></trkpt><trkpt lat="46.07088298359306" lon="12.759789603205492"><ele>144.0</ele><time>2026-04-25T07:56:38Z</time></trkpt><trkpt lat="46.070810966530864" lon="12.759573624283272"><ele>143.66666666666666</ele><time>2026-04-25T07:56:39Z</time></trkpt><trkpt lat="46.070738813555394" lon="12.759356620820025"><ele>143.33333333333331</ele><time>2026-04-25T07:56:40Z</time></trkpt><trkpt lat="46.07066630507014" lon="12.759138872219005"><ele>143.0</ele><time>2026-04-25T07:56:41Z</time></trkpt><trkpt lat="46.070593842631666" lon="12.758921191626234"><ele>143.0</ele><time>2026-04-25T07:56:42Z</time></trkpt><trkpt lat="46.0705211181596" lon="12.75870672950249"><ele>143.0</ele><time>2026-04-25T07:56:43Z</time></trkpt><trkpt lat="46.07045128185323" lon="12.758494287758296"><ele>143.0</ele><time>2026-04-25T07:56:44Z</time></trkpt><trkpt lat="46.07038110166075" lon="12.758282515280182"><ele>143.66666666666666</ele><time>2026-04-25T07:56:45Z</time></trkpt><trkpt lat="46.07030968035866" lon="12.758068695537617"><ele>144.33333333333334</ele><time>2026-04-25T07:56:46Z</time></trkpt><trkpt lat="46.07023913460881" lon="12.757856675517436"><ele>145.0</ele><time>2026-04-25T07:56:47Z</time></trkpt><trkpt lat="46.070168753706064" lon="12.757648170752306"><ele>145.33333333333334</ele><time>2026-04-25T07:56:48Z</time></trkpt><trkpt lat="46.0700987851426" lon="12.757437598219548"><ele>145.66666666666666</ele><time>2026-04-25T07:56:49Z</time></trkpt><trkpt lat="46.07002870644511" lon="12.757225335499424"><ele>146.0</ele><time>2026-04-25T07:56:50Z</time></trkpt><trkpt lat="46.06995783348693" lon="12.757014993884601"><ele>145.33333333333331</ele><time>2026-04-25T07:56:51Z</time></trkpt><trkpt lat="46.06988753261805" lon="12.756804253239808"><ele>144.66666666666666</ele><time>2026-04-25T07:56:52Z</time></trkpt><trkpt lat="46.06981604316767" lon="12.756592312514053"><ele>144.0</ele><time>2026-04-25T07:56:53Z</time></trkpt><trkpt lat="46.06974649841902" lon="12.756382070565483"><ele>144.0</ele><time>2026-04-25T07:56:54Z</time></trkpt><trkpt lat="46.06967733211522" lon="12.75617361903847"><ele>144.0</ele><time>2026-04-25T07:56:55Z</time></trkpt><trkpt lat="46.06960774402725" lon="12.755965600437184"><ele>144.0</ele><time>2026-04-25T07:56:56Z</time></trkpt><trkpt lat="46.069537598507246" lon="12.755753678932331"><ele>144.66666666666666</ele><time>2026-04-25T07:56:57Z</time></trkpt><trkpt lat="46.06946614442732" lon="12.755539361584482"><ele>145.33333333333331</ele><time>2026-04-25T07:56:58Z</time></trkpt><trkpt lat="46.06939440085606" lon="12.755321987685038"><ele>146.0</ele><time>2026-04-25T07:56:59Z</time></trkpt><trkpt lat="46.069320943137996" lon="12.755102131563957"><ele>146.0</ele><time>2026-04-25T07:57:00Z</time></trkpt><trkpt lat="46.06924595654486" lon="12.754881093096333"><ele>146.0</ele><time>2026-04-25T07:57:01Z</time></trkpt><trkpt lat="46.069171334836135" lon="12.754656553907566"><ele>146.0</ele><time>2026-04-25T07:57:02Z</time></trkpt><trkpt lat="46.06909252035857" lon="12.754425862764561"><ele>145.66666666666666</ele><time>2026-04-25T07:57:03Z</time></trkpt><trkpt lat="46.06901404411506" lon="12.754187149350557"><ele>145.33333333333334</ele><time>2026-04-25T07:57:04Z</time></trkpt><trkpt lat="46.06893311608063" lon="12.753939481886407"><ele>145.0</ele><time>2026-04-25T07:57:05Z</time></trkpt><trkpt lat="46.06884648694668" lon="12.753680502928262"><ele>145.66666666666669</ele><time>2026-04-25T07:57:06Z</time></trkpt><trkpt lat="46.06875935544214" lon="12.75341232193562"><ele>146.33333333333334</ele><time>2026-04-25T07:57:07Z</time></trkpt><trkpt lat="46.06867051682606" lon="12.75314801079697"><ele>147.0</ele><time>2026-04-25T07:57:08Z</time></trkpt><trkpt lat="46.06858346139109" lon="12.752888241645678"><ele>147.0</ele><time>2026-04-25T07:57:09Z</time></trkpt><trkpt lat="46.0684943898738" lon="12.752632940720762"><ele>147.0</ele><time>2026-04-25T07:57:10Z</time></trkpt><trkpt lat="46.06841098250533" lon="12.75237796845421"><ele>147.0</ele><time>2026-04-25T07:57:11Z</time></trkpt><trkpt lat="46.06832652968613" lon="12.752125940591508"><ele>148.0</ele><time>2026-04-25T07:57:12Z</time></trkpt><trkpt lat="46.0682432471226" lon="12.751878640298111"><ele>149.0</ele><time>2026-04-25T07:57:13Z</time></trkpt><trkpt lat="46.06817471441962" lon="12.751627156926338"><ele>150.0</ele><time>2026-04-25T07:57:14Z</time></trkpt><trkpt lat="46.06808082782828" lon="12.75139591629479"><ele>150.0</ele><time>2026-04-25T07:57:15.001Z</time></trkpt><trkpt lat="46.067998814429274" lon="12.751154905830804"><ele>150.0</ele><time>2026-04-25T07:57:16.001Z</time></trkpt><trkpt lat="46.06791741201042" lon="12.750908548950767"><ele>150.0</ele><time>2026-04-25T07:57:17.001Z</time></trkpt><trkpt lat="46.06783358554612" lon="12.750657140116758"><ele>150.0</ele><time>2026-04-25T07:57:18.001Z</time></trkpt><trkpt lat="46.06774813982547" lon="12.750396119773681"><ele>150.0</ele><time>2026-04-25T07:57:19.001Z</time></trkpt><trkpt lat="46.067665755812456" lon="12.750128617693882"><ele>150.0</ele><time>2026-04-25T07:57:20.001Z</time></trkpt><trkpt lat="46.06758244461907" lon="12.74985464100945"><ele>150.33333333333334</ele><time>2026-04-25T07:57:21.001Z</time></trkpt><trkpt lat="46.0675014897611" lon="12.749579615692728"><ele>150.66666666666669</ele><time>2026-04-25T07:57:22.001Z</time></trkpt><trkpt lat="46.06742184265304" lon="12.749300406259694"><ele>151.0</ele><time>2026-04-25T07:57:23.001Z</time></trkpt><trkpt lat="46.0673425152481" lon="12.749020305916687"><ele>150.33333333333334</ele><time>2026-04-25T07:57:24.001Z</time></trkpt><trkpt lat="46.067261610496736" lon="12.748738909291442"><ele>149.66666666666666</ele><time>2026-04-25T07:57:25.001Z</time></trkpt><trkpt lat="46.06718237451241" lon="12.748462622343082"><ele>149.0</ele><time>2026-04-25T07:57:26.001Z</time></trkpt><trkpt lat="46.067105811759134" lon="12.748194653934835"><ele>149.0</ele><time>2026-04-25T07:57:27.001Z</time></trkpt><trkpt lat="46.067031790045114" lon="12.74793706466838"><ele>149.0</ele><time>2026-04-25T07:57:28.001Z</time></trkpt><trkpt lat="46.06696020520803" lon="12.747685415250793"><ele>149.0</ele><time>2026-04-25T07:57:29.001Z</time></trkpt><trkpt lat="46.06688876492909" lon="12.74743590928725"><ele>149.0</ele><time>2026-04-25T07:57:30.001Z</time></trkpt><trkpt lat="46.0668160722462" lon="12.747188612669795"><ele>149.0</ele><time>2026-04-25T07:57:31.001Z</time></trkpt><trkpt lat="46.06674533845456" lon="12.74694784794517"><ele>149.0</ele><time>2026-04-25T07:57:32.001Z</time></trkpt><trkpt lat="46.06667688668993" lon="12.746713173623977"><ele>149.0</ele><time>2026-04-25T07:57:33.001Z</time></trkpt><trkpt lat="46.06660902852455" lon="12.746483435469415"><ele>149.0</ele><time>2026-04-25T07:57:34.001Z</time></trkpt><trkpt lat="46.06654096352517" lon="12.746260585578847"><ele>149.0</ele><time>2026-04-25T07:57:35.001Z</time></trkpt><trkpt lat="46.06647397261232" lon="12.746027488297607"><ele>149.0</ele><time>2026-04-25T07:57:36.001Z</time></trkpt><trkpt lat="46.066418253358954" lon="12.74577742796643"><ele>149.0</ele><time>2026-04-25T07:57:37Z</time></trkpt><trkpt lat="46.06632785869877" lon="12.745522247314721"><ele>149.0</ele><time>2026-04-25T07:57:38Z</time></trkpt><trkpt lat="46.06624048985504" lon="12.745215736622688"><ele>149.5</ele><time>2026-04-25T07:57:39Z</time></trkpt><trkpt lat="46.066144561510264" lon="12.74481742364933"><ele>150.0</ele><time>2026-04-25T07:57:40Z</time></trkpt><trkpt lat="46.066016009293065" lon="12.744368376415286"><ele>151.0</ele><time>2026-04-25T07:57:41Z</time></trkpt><trkpt lat="46.0658952687675" lon="12.74394866982516"><ele>152.0</ele><time>2026-04-25T07:57:42Z</time></trkpt><trkpt lat="46.06578395773745" lon="12.743560456305799"><ele>150.5</ele><time>2026-04-25T07:57:43Z</time></trkpt><trkpt lat="46.06567963462073" lon="12.743196614064173"><ele>149.0</ele><time>2026-04-25T07:57:44Z</time></trkpt><trkpt lat="46.06557393929079" lon="12.742827737857173"><ele>148.5</ele><time>2026-04-25T07:57:45Z</time></trkpt><trkpt lat="46.0654646812182" lon="12.742451201065544"><ele>148.0</ele><time>2026-04-25T07:57:46Z</time></trkpt><trkpt lat="46.06535728592001" lon="12.7420780573143"><ele>147.5</ele><time>2026-04-25T07:57:47Z</time></trkpt><trkpt lat="46.06525183294154" lon="12.741710841094157"><ele>147.0</ele><time>2026-04-25T07:57:48Z</time></trkpt><trkpt lat="46.06513593705479" lon="12.74136631763664"><ele>147.0</ele><time>2026-04-25T07:57:49Z</time></trkpt><trkpt lat="46.06503901720717" lon="12.741028698818912"><ele>147.0</ele><time>2026-04-25T07:57:50Z</time></trkpt><trkpt lat="46.064944902231495" lon="12.740702745392827"><ele>147.0</ele><time>2026-04-25T07:57:51Z</time></trkpt><trkpt lat="46.064854101841384" lon="12.740387409327788"><ele>147.0</ele><time>2026-04-25T07:57:52Z</time></trkpt><trkpt lat="46.06478742558105" lon="12.740093647752735"><ele>147.33333333333334</ele><time>2026-04-25T07:57:53Z</time></trkpt><trkpt lat="46.064696465887174" lon="12.739835499034376"><ele>147.66666666666669</ele><time>2026-04-25T07:57:54Z</time></trkpt><trkpt lat="46.06462517209806" lon="12.73958724803724"><ele>148.0</ele><time>2026-04-25T07:57:55Z</time></trkpt><trkpt lat="46.064556396661416" lon="12.739341638170956"><ele>148.33333333333334</ele><time>2026-04-25T07:57:56Z</time></trkpt><trkpt lat="46.06448782219813" lon="12.739091631626309"><ele>148.66666666666666</ele><time>2026-04-25T07:57:57Z</time></trkpt><trkpt lat="46.064422981441865" lon="12.73884142534749"><ele>149.0</ele><time>2026-04-25T07:57:58Z</time></trkpt><trkpt lat="46.064357020076635" lon="12.738595705897765"><ele>149.0</ele><time>2026-04-25T07:57:59Z</time></trkpt><trkpt lat="46.064291053132536" lon="12.738355355304822"><ele>149.0</ele><time>2026-04-25T07:58:00Z</time></trkpt><trkpt lat="46.06422384721328" lon="12.738116941593919"><ele>149.0</ele><time>2026-04-25T07:58:01Z</time></trkpt><trkpt lat="46.06415610223744" lon="12.737878943647784"><ele>148.66666666666666</ele><time>2026-04-25T07:58:02Z</time></trkpt><trkpt lat="46.064089860500836" lon="12.737646735552461"><ele>148.33333333333334</ele><time>2026-04-25T07:58:03Z</time></trkpt><trkpt lat="46.06402671082142" lon="12.73742359253667"><ele>148.0</ele><time>2026-04-25T07:58:04Z</time></trkpt><trkpt lat="46.06396389931137" lon="12.737202310534245"><ele>148.0</ele><time>2026-04-25T07:58:05Z</time></trkpt><trkpt lat="46.06389833490347" lon="12.736975538625435"><ele>148.0</ele><time>2026-04-25T07:58:06Z</time></trkpt><trkpt lat="46.06383166531032" lon="12.736746774988134"><ele>148.0</ele><time>2026-04-25T07:58:07Z</time></trkpt><trkpt lat="46.06376618746825" lon="12.736516074082834"><ele>148.0</ele><time>2026-04-25T07:58:08Z</time></trkpt><trkpt lat="46.06370270547418" lon="12.73628659451093"><ele>148.0</ele><time>2026-04-25T07:58:09Z</time></trkpt><trkpt lat="46.063637801770106" lon="12.736058167273626"><ele>148.0</ele><time>2026-04-25T07:58:10Z</time></trkpt><trkpt lat="46.063572234813485" lon="12.735830880801451"><ele>148.0</ele><time>2026-04-25T07:58:11Z</time></trkpt><trkpt lat="46.06350964072762" lon="12.73561117789578"><ele>148.0</ele><time>2026-04-25T07:58:12Z</time></trkpt><trkpt lat="46.063448475813864" lon="12.735397974245402"><ele>148.0</ele><time>2026-04-25T07:58:13Z</time></trkpt><trkpt lat="46.06338663233916" lon="12.735183777054566"><ele>148.0</ele><time>2026-04-25T07:58:14Z</time></trkpt><trkpt lat="46.06332499053076" lon="12.734970616092916"><ele>148.0</ele><time>2026-04-25T07:58:15Z</time></trkpt><trkpt lat="46.06326478293512" lon="12.734762558210848"><ele>148.0</ele><time>2026-04-25T07:58:16Z</time></trkpt><trkpt lat="46.06320603735824" lon="12.734559870172257"><ele>148.0</ele><time>2026-04-25T07:58:17Z</time></trkpt><trkpt lat="46.06314790011274" lon="12.734357925423609"><ele>148.0</ele><time>2026-04-25T07:58:18Z</time></trkpt><trkpt lat="46.063088193124564" lon="12.734150535882375"><ele>148.0</ele><time>2026-04-25T07:58:19Z</time></trkpt><trkpt lat="46.06302776709942" lon="12.733942574069486"><ele>148.0</ele><time>2026-04-25T07:58:20Z</time></trkpt><trkpt lat="46.06296666414428" lon="12.733730189120646"><ele>148.0</ele><time>2026-04-25T07:58:21Z</time></trkpt><trkpt lat="46.06290755360275" lon="12.733518549621461"><ele>148.0</ele><time>2026-04-25T07:58:22Z</time></trkpt><trkpt lat="46.06284790859561" lon="12.733309273495031"><ele>148.0</ele><time>2026-04-25T07:58:23Z</time></trkpt><trkpt lat="46.062788459471086" lon="12.733102053569008"><ele>148.0</ele><time>2026-04-25T07:58:24Z</time></trkpt><trkpt lat="46.06272805223989" lon="12.732894895850583"><ele>148.0</ele><time>2026-04-25T07:58:25Z</time></trkpt><trkpt lat="46.062666878566574" lon="12.732687044139023"><ele>147.66666666666669</ele><time>2026-04-25T07:58:26Z</time></trkpt><trkpt lat="46.06260525944659" lon="12.732474523056036"><ele>147.33333333333334</ele><time>2026-04-25T07:58:27Z</time></trkpt><trkpt lat="46.062544447529255" lon="12.732260855867718"><ele>147.0</ele><time>2026-04-25T07:58:28Z</time></trkpt><trkpt lat="46.062483099344206" lon="12.732045774661941"><ele>147.66666666666666</ele><time>2026-04-25T07:58:29Z</time></trkpt><trkpt lat="46.062420379054" lon="12.731829703982179"><ele>148.33333333333331</ele><time>2026-04-25T07:58:30Z</time></trkpt><trkpt lat="46.06235723483552" lon="12.731611661083406"><ele>149.0</ele><time>2026-04-25T07:58:31Z</time></trkpt><trkpt lat="46.0622932168225" lon="12.731389427401215"><ele>149.0</ele><time>2026-04-25T07:58:32Z</time></trkpt><trkpt lat="46.06222850094769" lon="12.73116256539851"><ele>149.0</ele><time>2026-04-25T07:58:33Z</time></trkpt><trkpt lat="46.062163837209845" lon="12.730934786817265"><ele>149.0</ele><time>2026-04-25T07:58:34Z</time></trkpt><trkpt lat="46.062096993356285" lon="12.730704406807696"><ele>149.66666666666666</ele><time>2026-04-25T07:58:35Z</time></trkpt><trkpt lat="46.06203390710496" lon="12.730487608158928"><ele>150.33333333333334</ele><time>2026-04-25T07:58:36Z</time></trkpt><trkpt lat="46.061971665289995" lon="12.730269745047558"><ele>151.0</ele><time>2026-04-25T07:58:37Z</time></trkpt><trkpt lat="46.061908702724516" lon="12.730048322485514"><ele>151.66666666666669</ele><time>2026-04-25T07:58:38Z</time></trkpt><trkpt lat="46.06184534275877" lon="12.729823713599126"><ele>152.33333333333334</ele><time>2026-04-25T07:58:39Z</time></trkpt><trkpt lat="46.061779457270006" lon="12.729597063534243"><ele>153.0</ele><time>2026-04-25T07:58:40Z</time></trkpt><trkpt lat="46.06171333468259" lon="12.729363330619824"><ele>153.0</ele><time>2026-04-25T07:58:41Z</time></trkpt><trkpt lat="46.06164282550644" lon="12.729122814514717"><ele>153.0</ele><time>2026-04-25T07:58:42Z</time></trkpt><trkpt lat="46.06157157700525" lon="12.728877111526717"><ele>153.0</ele><time>2026-04-25T07:58:43Z</time></trkpt><trkpt lat="46.06149959483917" lon="12.728627374562032"><ele>151.33333333333334</ele><time>2026-04-25T07:58:44Z</time></trkpt><trkpt lat="46.06142722330079" lon="12.728377281055616"><ele>149.66666666666669</ele><time>2026-04-25T07:58:45Z</time></trkpt><trkpt lat="46.061355797497576" lon="12.728125341266091"><ele>148.0</ele><time>2026-04-25T07:58:46Z</time></trkpt><trkpt lat="46.061288006497996" lon="12.727871066482358"><ele>148.33333333333334</ele><time>2026-04-25T07:58:47Z</time></trkpt><trkpt lat="46.06122052288334" lon="12.727616514861806"><ele>148.66666666666666</ele><time>2026-04-25T07:58:48Z</time></trkpt><trkpt lat="46.06115545072162" lon="12.727361432569419"><ele>149.0</ele><time>2026-04-25T07:58:49Z</time></trkpt><trkpt lat="46.06109296195067" lon="12.727105840618318"><ele>150.0</ele><time>2026-04-25T07:58:50Z</time></trkpt><trkpt lat="46.06103071241096" lon="12.72684779943824"><ele>151.0</ele><time>2026-04-25T07:58:51Z</time></trkpt><trkpt lat="46.06097382860346" lon="12.726588058733242"><ele>152.0</ele><time>2026-04-25T07:58:52Z</time></trkpt><trkpt lat="46.060920133788606" lon="12.726329098770002"><ele>152.0</ele><time>2026-04-25T07:58:53Z</time></trkpt><trkpt lat="46.060866922593675" lon="12.726079290387403"><ele>152.0</ele><time>2026-04-25T07:58:54Z</time></trkpt><trkpt lat="46.06082128739766" lon="12.725840142619198"><ele>152.0</ele><time>2026-04-25T07:58:55Z</time></trkpt><trkpt lat="46.06078134520414" lon="12.725602494957144"><ele>151.0</ele><time>2026-04-25T07:58:56Z</time></trkpt><trkpt lat="46.06074313344778" lon="12.725364457333942"><ele>150.0</ele><time>2026-04-25T07:58:57Z</time></trkpt><trkpt lat="46.060706401917116" lon="12.725123805512583"><ele>149.0</ele><time>2026-04-25T07:58:58Z</time></trkpt><trkpt lat="46.06067272930371" lon="12.72488295957961"><ele>149.0</ele><time>2026-04-25T07:58:59Z</time></trkpt><trkpt lat="46.06063778915813" lon="12.724637197319426"><ele>149.0</ele><time>2026-04-25T07:59:00Z</time></trkpt><trkpt lat="46.060602854430684" lon="12.724372586997955"><ele>149.0</ele><time>2026-04-25T07:59:01Z</time></trkpt><trkpt lat="46.0605724521896" lon="12.72409580251508"><ele>149.0</ele><time>2026-04-25T07:59:02Z</time></trkpt><trkpt lat="46.06054729792454" lon="12.723815334082088"><ele>149.0</ele><time>2026-04-25T07:59:03Z</time></trkpt><trkpt lat="46.06052013585984" lon="12.723538567988912"><ele>149.0</ele><time>2026-04-25T07:59:04Z</time></trkpt><trkpt lat="46.06049068823287" lon="12.723261549619531"><ele>149.0</ele><time>2026-04-25T07:59:05Z</time></trkpt><trkpt lat="46.06046889209095" lon="12.722987001155351"><ele>149.0</ele><time>2026-04-25T07:59:06Z</time></trkpt><trkpt lat="46.06045112820916" lon="12.72271265836857"><ele>149.0</ele><time>2026-04-25T07:59:07Z</time></trkpt><trkpt lat="46.06043116128583" lon="12.722434747019635"><ele>148.66666666666666</ele><time>2026-04-25T07:59:08Z</time></trkpt><trkpt lat="46.06041048848179" lon="12.722144738126394"><ele>148.33333333333334</ele><time>2026-04-25T07:59:09Z</time></trkpt><trkpt lat="46.06039117163857" lon="12.721847907282708"><ele>148.0</ele><time>2026-04-25T07:59:10Z</time></trkpt><trkpt lat="46.06037241336509" lon="12.721533069884718"><ele>149.0</ele><time>2026-04-25T07:59:11Z</time></trkpt><trkpt lat="46.06035131141462" lon="12.72118972122456"><ele>150.0</ele><time>2026-04-25T07:59:12Z</time></trkpt><trkpt lat="46.06032748770702" lon="12.72082639740867"><ele>150.0</ele><time>2026-04-25T07:59:13Z</time></trkpt><trkpt lat="46.06030080810224" lon="12.720438127831157"><ele>150.0</ele><time>2026-04-25T07:59:14Z</time></trkpt><trkpt lat="46.06027499530559" lon="12.720032191451486"><ele>150.0</ele><time>2026-04-25T07:59:15Z</time></trkpt><trkpt lat="46.060247063918645" lon="12.719605792232036"><ele>150.0</ele><time>2026-04-25T07:59:16Z</time></trkpt><trkpt lat="46.060220100831266" lon="12.719191892516227"><ele>150.0</ele><time>2026-04-25T07:59:17Z</time></trkpt><trkpt lat="46.060193694398684" lon="12.71879646940297"><ele>150.0</ele><time>2026-04-25T07:59:18Z</time></trkpt><trkpt lat="46.06016946536098" lon="12.718423991849566"><ele>150.0</ele><time>2026-04-25T07:59:19Z</time></trkpt><trkpt lat="46.060148639411146" lon="12.718073512700121"><ele>150.0</ele><time>2026-04-25T07:59:20.001Z</time></trkpt><trkpt lat="46.060128577373376" lon="12.7177567319898"><ele>149.66666666666666</ele><time>2026-04-25T07:59:21.001Z</time></trkpt><trkpt lat="46.06011040439891" lon="12.71746156537001"><ele>149.33333333333331</ele><time>2026-04-25T07:59:22.001Z</time></trkpt><trkpt lat="46.06009231245553" lon="12.717174712578034"><ele>149.0</ele><time>2026-04-25T07:59:23.001Z</time></trkpt><trkpt lat="46.06007383537438" lon="12.716892409631855"><ele>149.0</ele><time>2026-04-25T07:59:24.001Z</time></trkpt><trkpt lat="46.060056058477606" lon="12.716612881930665"><ele>149.0</ele><time>2026-04-25T07:59:25.001Z</time></trkpt><trkpt lat="46.06003873424712" lon="12.716327830716018"><ele>149.0</ele><time>2026-04-25T07:59:26.001Z</time></trkpt><trkpt lat="46.0600208785486" lon="12.716033709274534"><ele>149.0</ele><time>2026-04-25T07:59:27.001Z</time></trkpt><trkpt lat="46.06000315252641" lon="12.7157335458137"><ele>149.0</ele><time>2026-04-25T07:59:28.001Z</time></trkpt><trkpt lat="46.0599842190299" lon="12.71543053117785"><ele>149.0</ele><time>2026-04-25T07:59:29.001Z</time></trkpt><trkpt lat="46.059966524461515" lon="12.715130047510495"><ele>149.0</ele><time>2026-04-25T07:59:30.001Z</time></trkpt><trkpt lat="46.05995048091994" lon="12.714839808414693"><ele>149.0</ele><time>2026-04-25T07:59:31Z</time></trkpt><trkpt lat="46.059935070090866" lon="12.714560007584177"><ele>149.0</ele><time>2026-04-25T07:59:32Z</time></trkpt><trkpt lat="46.05991779620551" lon="12.714292634406943"><ele>149.0</ele><time>2026-04-25T07:59:33Z</time></trkpt><trkpt lat="46.05990094540065" lon="12.714033961518522"><ele>149.0</ele><time>2026-04-25T07:59:34Z</time></trkpt><trkpt lat="46.059883592270005" lon="12.713785575404534"><ele>149.0</ele><time>2026-04-25T07:59:35Z</time></trkpt><trkpt lat="46.05986080535427" lon="12.713539028533534"><ele>149.0</ele><time>2026-04-25T07:59:36Z</time></trkpt><trkpt lat="46.059833797111985" lon="12.713300674710247"><ele>149.0</ele><time>2026-04-25T07:59:37Z</time></trkpt><trkpt lat="46.05980363403984" lon="12.713073434064727"><ele>149.0</ele><time>2026-04-25T07:59:38Z</time></trkpt><trkpt lat="46.05976871628515" lon="12.712853709450014"><ele>148.33333333333331</ele><time>2026-04-25T07:59:39Z</time></trkpt><trkpt lat="46.05972819409225" lon="12.712636311813093"><ele>147.66666666666666</ele><time>2026-04-25T07:59:40Z</time></trkpt><trkpt lat="46.059687679959254" lon="12.712417084333113"><ele>147.0</ele><time>2026-04-25T07:59:41Z</time></trkpt><trkpt lat="46.0596409915222" lon="12.712195461472442"><ele>147.0</ele><time>2026-04-25T07:59:42Z</time></trkpt><trkpt lat="46.059580812809514" lon="12.7119684665658"><ele>147.0</ele><time>2026-04-25T07:59:43Z</time></trkpt><trkpt lat="46.05951061758179" lon="12.711746640870285"><ele>147.0</ele><time>2026-04-25T07:59:44Z</time></trkpt><trkpt lat="46.05944003833779" lon="12.711532084587"><ele>147.0</ele><time>2026-04-25T07:59:45Z</time></trkpt><trkpt lat="46.059361624368925" lon="12.711317256841852"><ele>147.0</ele><time>2026-04-25T07:59:46Z</time></trkpt><trkpt lat="46.059271878276384" lon="12.711101019839678"><ele>147.0</ele><time>2026-04-25T07:59:47Z</time></trkpt><trkpt lat="46.05917578681662" lon="12.710886834955858"><ele>146.33333333333334</ele><time>2026-04-25T07:59:48Z</time></trkpt><trkpt lat="46.05907129408006" lon="12.71067755530372"><ele>145.66666666666669</ele><time>2026-04-25T07:59:49Z</time></trkpt><trkpt lat="46.058956092416935" lon="12.710465966217031"><ele>145.0</ele><time>2026-04-25T07:59:50Z</time></trkpt><trkpt lat="46.0588344560288" lon="12.710256345721534"><ele>145.0</ele><time>2026-04-25T07:59:51Z</time></trkpt><trkpt lat="46.0587028708937" lon="12.71005098690767"><ele>145.0</ele><time>2026-04-25T07:59:52Z</time></trkpt><trkpt lat="46.058560580842574" lon="12.709853065714995"><ele>145.0</ele><time>2026-04-25T07:59:53Z</time></trkpt><trkpt lat="46.05840760367969" lon="12.709660967082526"><ele>144.66666666666669</ele><time>2026-04-25T07:59:54Z</time></trkpt><trkpt lat="46.05825608192795" lon="12.709450624791634"><ele>144.33333333333334</ele><time>2026-04-25T07:59:55Z</time></trkpt><trkpt lat="46.058085460430334" lon="12.709253629291052"><ele>144.0</ele><time>2026-04-25T07:59:56Z</time></trkpt><trkpt lat="46.0578981896656" lon="12.709070405675856"><ele>144.0</ele><time>2026-04-25T07:59:57Z</time></trkpt><trkpt lat="46.05772347965118" lon="12.708841250738999"><ele>144.0</ele><time>2026-04-25T07:59:58Z</time></trkpt><trkpt lat="46.05752337339861" lon="12.70864095984228"><ele>143.0</ele><time>2026-04-25T07:59:59Z</time></trkpt><trkpt lat="46.057328682889285" lon="12.70841694992719"><ele>142.0</ele><time>2026-04-25T08:00:00Z</time></trkpt><trkpt lat="46.057130716693635" lon="12.708190252144064"><ele>142.0</ele><time>2026-04-25T08:00:01Z</time></trkpt><trkpt lat="46.05693430598525" lon="12.707966423664981"><ele>142.0</ele><time>2026-04-25T08:00:02Z</time></trkpt><trkpt lat="46.05673849618056" lon="12.70774158160866"><ele>141.5</ele><time>2026-04-25T08:00:03Z</time></trkpt><trkpt lat="46.0565448588073" lon="12.707518909541236"><ele>141.0</ele><time>2026-04-25T08:00:04Z</time></trkpt><trkpt lat="46.05635568736426" lon="12.707302946361908"><ele>141.0</ele><time>2026-04-25T08:00:05Z</time></trkpt><trkpt lat="46.05617136623206" lon="12.707090775173057"><ele>141.0</ele><time>2026-04-25T08:00:06Z</time></trkpt><trkpt lat="46.05599423873972" lon="12.706888380604735"><ele>141.33333333333334</ele><time>2026-04-25T08:00:07Z</time></trkpt><trkpt lat="46.055824424277354" lon="12.706693644265629"><ele>141.66666666666669</ele><time>2026-04-25T08:00:08Z</time></trkpt><trkpt lat="46.05565875055354" lon="12.70650003598433"><ele>142.0</ele><time>2026-04-25T08:00:09Z</time></trkpt><trkpt lat="46.05549307160223" lon="12.706301350735155"><ele>141.0</ele><time>2026-04-25T08:00:10Z</time></trkpt><trkpt lat="46.05533280708124" lon="12.706095979729897"><ele>140.0</ele><time>2026-04-25T08:00:11Z</time></trkpt><trkpt lat="46.05518121338145" lon="12.705885427479688"><ele>139.0</ele><time>2026-04-25T08:00:12Z</time></trkpt><trkpt lat="46.05504022644156" lon="12.705669985121618"><ele>138.66666666666669</ele><time>2026-04-25T08:00:13Z</time></trkpt><trkpt lat="46.05490867192315" lon="12.705444935579663"><ele>138.33333333333334</ele><time>2026-04-25T08:00:14Z</time></trkpt><trkpt lat="46.05479046897073" lon="12.70521902103108"><ele>138.0</ele><time>2026-04-25T08:00:15Z</time></trkpt><trkpt lat="46.05468383074383" lon="12.704998064642979"><ele>138.0</ele><time>2026-04-25T08:00:16Z</time></trkpt><trkpt lat="46.0545908986852" lon="12.70478679813169"><ele>138.0</ele><time>2026-04-25T08:00:17Z</time></trkpt><trkpt lat="46.054505336525985" lon="12.704579331406684"><ele>138.0</ele><time>2026-04-25T08:00:18Z</time></trkpt><trkpt lat="46.054430652896045" lon="12.70437891804467"><ele>137.5</ele><time>2026-04-25T08:00:19Z</time></trkpt><trkpt lat="46.05436399628439" lon="12.704187595770863"><ele>137.0</ele><time>2026-04-25T08:00:20Z</time></trkpt><trkpt lat="46.05430317056414" lon="12.703992327154054"><ele>136.5</ele><time>2026-04-25T08:00:21Z</time></trkpt><trkpt lat="46.05424934400516" lon="12.703796410069668"><ele>136.0</ele><time>2026-04-25T08:00:22Z</time></trkpt><trkpt lat="46.05419994161857" lon="12.70359840484564"><ele>136.0</ele><time>2026-04-25T08:00:23Z</time></trkpt><trkpt lat="46.05415163092447" lon="12.703395782670057"><ele>136.0</ele><time>2026-04-25T08:00:24Z</time></trkpt><trkpt lat="46.05410394886746" lon="12.703180775969495"><ele>136.0</ele><time>2026-04-25T08:00:25Z</time></trkpt><trkpt lat="46.05407647622859" lon="12.702944022020768"><ele>135.33333333333334</ele><time>2026-04-25T08:00:26Z</time></trkpt><trkpt lat="46.05402461542518" lon="12.70271219483839"><ele>134.66666666666666</ele><time>2026-04-25T08:00:27Z</time></trkpt><trkpt lat="46.053994978593956" lon="12.702476249727592"><ele>134.0</ele><time>2026-04-25T08:00:28Z</time></trkpt><trkpt lat="46.05396971446999" lon="12.702245179230104"><ele>134.0</ele><time>2026-04-25T08:00:29Z</time></trkpt><trkpt lat="46.05395274458334" lon="12.702022960112112"><ele>134.0</ele><time>2026-04-25T08:00:30Z</time></trkpt><trkpt lat="46.053940939172186" lon="12.701800340668148"><ele>134.0</ele><time>2026-04-25T08:00:31Z</time></trkpt><trkpt lat="46.05393533224495" lon="12.701562782663354"><ele>134.33333333333331</ele><time>2026-04-25T08:00:32Z</time></trkpt><trkpt lat="46.05393604078401" lon="12.701308999246743"><ele>134.66666666666666</ele><time>2026-04-25T08:00:33Z</time></trkpt><trkpt lat="46.05394468386535" lon="12.701052337975751"><ele>135.0</ele><time>2026-04-25T08:00:34Z</time></trkpt><trkpt lat="46.0539595417338" lon="12.700792948459899"><ele>134.33333333333334</ele><time>2026-04-25T08:00:35Z</time></trkpt><trkpt lat="46.05398031739561" lon="12.7005384110653"><ele>133.66666666666669</ele><time>2026-04-25T08:00:36Z</time></trkpt><trkpt lat="46.05401088694885" lon="12.700283015497996"><ele>133.0</ele><time>2026-04-25T08:00:37Z</time></trkpt><trkpt lat="46.054047282096505" lon="12.700032549211436"><ele>133.0</ele><time>2026-04-25T08:00:38Z</time></trkpt><trkpt lat="46.054086057629625" lon="12.699778796298155"><ele>133.0</ele><time>2026-04-25T08:00:39Z</time></trkpt><trkpt lat="46.05412469877093" lon="12.699512770838902"><ele>133.0</ele><time>2026-04-25T08:00:40Z</time></trkpt><trkpt lat="46.05416862654693" lon="12.69923481566528"><ele>133.5</ele><time>2026-04-25T08:00:41Z</time></trkpt><trkpt lat="46.05421697887803" lon="12.69892630107271"><ele>134.0</ele><time>2026-04-25T08:00:42Z</time></trkpt><trkpt lat="46.054283548510384" lon="12.69851443642554"><ele>134.0</ele><time>2026-04-25T08:00:43Z</time></trkpt><trkpt lat="46.054361509250846" lon="12.698030222264821"><ele>134.0</ele><time>2026-04-25T08:00:44Z</time></trkpt><trkpt lat="46.05443012843757" lon="12.697552415952817"><ele>133.5</ele><time>2026-04-25T08:00:45Z</time></trkpt><trkpt lat="46.05449394774462" lon="12.697143209531996"><ele>133.0</ele><time>2026-04-25T08:00:46Z</time></trkpt><trkpt lat="46.05453850355484" lon="12.696745488321064"><ele>133.0</ele><time>2026-04-25T08:00:47Z</time></trkpt><trkpt lat="46.054563622700144" lon="12.696355412600274"><ele>133.0</ele><time>2026-04-25T08:00:48Z</time></trkpt><trkpt lat="46.0545732170107" lon="12.695980787561567"><ele>131.5</ele><time>2026-04-25T08:00:49Z</time></trkpt><trkpt lat="46.05456695650855" lon="12.695612792829756"><ele>130.0</ele><time>2026-04-25T08:00:50Z</time></trkpt><trkpt lat="46.05454766093303" lon="12.695266381489176"><ele>130.0</ele><time>2026-04-25T08:00:51Z</time></trkpt><trkpt lat="46.05452852386856" lon="12.694950010334628"><ele>130.0</ele><time>2026-04-25T08:00:52Z</time></trkpt><trkpt lat="46.054511236281876" lon="12.694666993380812"><ele>130.0</ele><time>2026-04-25T08:00:53Z</time></trkpt><trkpt lat="46.054499376447836" lon="12.694411297703663"><ele>130.5</ele><time>2026-04-25T08:00:54Z</time></trkpt><trkpt lat="46.05448857285171" lon="12.694174428287132"><ele>131.0</ele><time>2026-04-25T08:00:55Z</time></trkpt><trkpt lat="46.054483912211815" lon="12.693969106629352"><ele>131.5</ele><time>2026-04-25T08:00:56Z</time></trkpt><trkpt lat="46.054484160475624" lon="12.693780866599809"><ele>132.0</ele><time>2026-04-25T08:00:57Z</time></trkpt><trkpt lat="46.05448559392895" lon="12.693614489376007"><ele>132.2</ele><time>2026-04-25T08:00:58Z</time></trkpt><trkpt lat="46.054485287417236" lon="12.693456753350192"><ele>132.39999999999998</ele><time>2026-04-25T08:00:59Z</time></trkpt><trkpt lat="46.054485009600185" lon="12.6933205804023"><ele>132.60000000000002</ele><time>2026-04-25T08:01:00Z</time></trkpt><trkpt lat="46.05448790327664" lon="12.693195748529602"><ele>132.8</ele><time>2026-04-25T08:01:01Z</time></trkpt><trkpt lat="46.05449444192607" lon="12.693074301694953"><ele>133.0</ele><time>2026-04-25T08:01:02Z</time></trkpt><trkpt lat="46.054516993896385" lon="12.692942870042751"><ele>133.0</ele><time>2026-04-25T08:01:03Z</time></trkpt><trkpt lat="46.05454849550528" lon="12.692802981290717"><ele>133.0</ele><time>2026-04-25T08:01:04Z</time></trkpt><trkpt lat="46.05455333566571" lon="12.692651633274709"><ele>133.0</ele><time>2026-04-25T08:01:05Z</time></trkpt><trkpt lat="46.054526379731314" lon="12.692491481239761"><ele>133.0</ele><time>2026-04-25T08:01:06Z</time></trkpt><trkpt lat="46.054462524250695" lon="12.69237483695302"><ele>133.0</ele><time>2026-04-25T08:01:07Z</time></trkpt><trkpt lat="46.05436539528638" lon="12.692262992589011"><ele>133.33333333333334</ele><time>2026-04-25T08:01:08Z</time></trkpt><trkpt lat="46.054265861842296" lon="12.692116751699231"><ele>133.66666666666666</ele><time>2026-04-25T08:01:09Z</time></trkpt><trkpt lat="46.05417134422774" lon="12.691939648015591"><ele>134.0</ele><time>2026-04-25T08:01:10Z</time></trkpt><trkpt lat="46.05407148060511" lon="12.691753779562832"><ele>133.33333333333331</ele><time>2026-04-25T08:01:11Z</time></trkpt><trkpt lat="46.05397228952741" lon="12.691557225236767"><ele>132.66666666666666</ele><time>2026-04-25T08:01:12Z</time></trkpt><trkpt lat="46.05387168858331" lon="12.691365266000739"><ele>132.0</ele><time>2026-04-25T08:01:13Z</time></trkpt><trkpt lat="46.053777989597926" lon="12.691183512673671"><ele>132.0</ele><time>2026-04-25T08:01:14Z</time></trkpt><trkpt lat="46.05369248017026" lon="12.691015708863091"><ele>132.0</ele><time>2026-04-25T08:01:15Z</time></trkpt><trkpt lat="46.05360477134922" lon="12.6908467789077"><ele>132.0</ele><time>2026-04-25T08:01:15.999Z</time></trkpt><trkpt lat="46.05351628679034" lon="12.690674275682385"><ele>132.0</ele><time>2026-04-25T08:01:16.999Z</time></trkpt><trkpt lat="46.05342747477086" lon="12.690498392627637"><ele>132.0</ele><time>2026-04-25T08:01:17.999Z</time></trkpt><trkpt lat="46.05333073566593" lon="12.690314898356121"><ele>132.0</ele><time>2026-04-25T08:01:18.999Z</time></trkpt><trkpt lat="46.05322567715692" lon="12.690113536665038"><ele>132.0</ele><time>2026-04-25T08:01:19.999Z</time></trkpt><trkpt lat="46.05312275424527" lon="12.689913794247126"><ele>132.0</ele><time>2026-04-25T08:01:20.999Z</time></trkpt><trkpt lat="46.05302520867498" lon="12.689715756127136"><ele>132.0</ele><time>2026-04-25T08:01:21.999Z</time></trkpt><trkpt lat="46.05292575398634" lon="12.689510762382167"><ele>132.0</ele><time>2026-04-25T08:01:22.999Z</time></trkpt><trkpt lat="46.05282632678917" lon="12.689293458608807"><ele>132.66666666666666</ele><time>2026-04-25T08:01:23.999Z</time></trkpt><trkpt lat="46.05272639577185" lon="12.689059989617325"><ele>133.33333333333331</ele><time>2026-04-25T08:01:25Z</time></trkpt><trkpt lat="46.05262540739529" lon="12.688809215901484"><ele>134.0</ele><time>2026-04-25T08:01:26Z</time></trkpt><trkpt lat="46.05252476759645" lon="12.688543623748487"><ele>133.33333333333331</ele><time>2026-04-25T08:01:27Z</time></trkpt><trkpt lat="46.052425415722034" lon="12.688265989370697"><ele>132.66666666666666</ele><time>2026-04-25T08:01:28Z</time></trkpt><trkpt lat="46.0523270378124" lon="12.687972074089123"><ele>132.0</ele><time>2026-04-25T08:01:29Z</time></trkpt><trkpt lat="46.05223229116735" lon="12.6876665257849"><ele>132.0</ele><time>2026-04-25T08:01:30Z</time></trkpt><trkpt lat="46.05214496382529" lon="12.68736342899811"><ele>132.0</ele><time>2026-04-25T08:01:31Z</time></trkpt><trkpt lat="46.052060421978716" lon="12.687062766318213"><ele>131.66666666666666</ele><time>2026-04-25T08:01:32Z</time></trkpt><trkpt lat="46.05198210906263" lon="12.686781400865533"><ele>131.33333333333331</ele><time>2026-04-25T08:01:33Z</time></trkpt><trkpt lat="46.05190760116884" lon="12.686514222016484"><ele>131.0</ele><time>2026-04-25T08:01:34Z</time></trkpt><trkpt lat="46.05183403923392" lon="12.686260182572378"><ele>131.0</ele><time>2026-04-25T08:01:35Z</time></trkpt><trkpt lat="46.05176460438694" lon="12.686009086225226"><ele>131.0</ele><time>2026-04-25T08:01:36Z</time></trkpt><trkpt lat="46.05169444624817" lon="12.685752476617363"><ele>131.0</ele><time>2026-04-25T08:01:37Z</time></trkpt><trkpt lat="46.05161627611545" lon="12.68549393204524"><ele>132.0</ele><time>2026-04-25T08:01:38Z</time></trkpt><trkpt lat="46.05153389198401" lon="12.68523938937292"><ele>133.0</ele><time>2026-04-25T08:01:39Z</time></trkpt><trkpt lat="46.05144717780664" lon="12.684994816483824"><ele>134.0</ele><time>2026-04-25T08:01:40Z</time></trkpt><trkpt lat="46.051356814258" lon="12.684755961874856"><ele>134.0</ele><time>2026-04-25T08:01:41Z</time></trkpt><trkpt lat="46.051261446159" lon="12.684519044423567"><ele>134.0</ele><time>2026-04-25T08:01:42Z</time></trkpt><trkpt lat="46.05116385945518" lon="12.68427899372822"><ele>134.0</ele><time>2026-04-25T08:01:43Z</time></trkpt><trkpt lat="46.05106854552203" lon="12.684039076028625"><ele>134.0</ele><time>2026-04-25T08:01:44Z</time></trkpt><trkpt lat="46.05097408614988" lon="12.683800568210263"><ele>134.0</ele><time>2026-04-25T08:01:45Z</time></trkpt><trkpt lat="46.05087947596793" lon="12.683558939434759"><ele>134.0</ele><time>2026-04-25T08:01:46Z</time></trkpt><trkpt lat="46.05078268136062" lon="12.683316481886111"><ele>133.33333333333331</ele><time>2026-04-25T08:01:47Z</time></trkpt><trkpt lat="46.05068524041561" lon="12.683073915503307"><ele>132.66666666666666</ele><time>2026-04-25T08:01:48Z</time></trkpt><trkpt lat="46.050588214980344" lon="12.682832091574136"><ele>132.0</ele><time>2026-04-25T08:01:49Z</time></trkpt><trkpt lat="46.05049204885547" lon="12.68259055803589"><ele>132.0</ele><time>2026-04-25T08:01:50Z</time></trkpt><trkpt lat="46.05039647848406" lon="12.682348162119382"><ele>132.0</ele><time>2026-04-25T08:01:51Z</time></trkpt><trkpt lat="46.05030053834164" lon="12.682106937159705"><ele>132.0</ele><time>2026-04-25T08:01:52Z</time></trkpt><trkpt lat="46.0502042607294" lon="12.681863689749687"><ele>132.33333333333334</ele><time>2026-04-25T08:01:53Z</time></trkpt><trkpt lat="46.05010826609184" lon="12.681619474411606"><ele>132.66666666666669</ele><time>2026-04-25T08:01:54Z</time></trkpt><trkpt lat="46.050009192593144" lon="12.681373797876454"><ele>133.0</ele><time>2026-04-25T08:01:55Z</time></trkpt><trkpt lat="46.049909269981924" lon="12.681128102444298"><ele>132.33333333333334</ele><time>2026-04-25T08:01:56Z</time></trkpt><trkpt lat="46.0498096346403" lon="12.680886051161474"><ele>131.66666666666666</ele><time>2026-04-25T08:01:57Z</time></trkpt><trkpt lat="46.04970907232727" lon="12.68064254167887"><ele>131.0</ele><time>2026-04-25T08:01:58Z</time></trkpt><trkpt lat="46.04961032201724" lon="12.68039680415892"><ele>132.0</ele><time>2026-04-25T08:01:59Z</time></trkpt><trkpt lat="46.04951035991768" lon="12.680150337894444"><ele>133.0</ele><time>2026-04-25T08:02:00Z</time></trkpt><trkpt lat="46.04941136123756" lon="12.679899544225991"><ele>134.0</ele><time>2026-04-25T08:02:01Z</time></trkpt><trkpt lat="46.049310354801165" lon="12.679647626595075"><ele>133.66666666666666</ele><time>2026-04-25T08:02:02Z</time></trkpt><trkpt lat="46.04920745110372" lon="12.67939429056558"><ele>133.33333333333334</ele><time>2026-04-25T08:02:03Z</time></trkpt><trkpt lat="46.04910359565074" lon="12.679133184018006"><ele>133.0</ele><time>2026-04-25T08:02:04Z</time></trkpt><trkpt lat="46.04899406453816" lon="12.678863219508951"><ele>132.66666666666669</ele><time>2026-04-25T08:02:05Z</time></trkpt><trkpt lat="46.048884496127236" lon="12.678590157212692"><ele>132.33333333333334</ele><time>2026-04-25T08:02:06Z</time></trkpt><trkpt lat="46.04877277074849" lon="12.678310019193198"><ele>132.0</ele><time>2026-04-25T08:02:07Z</time></trkpt><trkpt lat="46.04865895940095" lon="12.678026998135806"><ele>132.33333333333334</ele><time>2026-04-25T08:02:08Z</time></trkpt><trkpt lat="46.048545837287804" lon="12.677745448671871"><ele>132.66666666666669</ele><time>2026-04-25T08:02:09Z</time></trkpt><trkpt lat="46.048435101025994" lon="12.677469884753338"><ele>133.0</ele><time>2026-04-25T08:02:10Z</time></trkpt><trkpt lat="46.04832380773413" lon="12.677194966227942"><ele>131.66666666666669</ele><time>2026-04-25T08:02:11Z</time></trkpt><trkpt lat="46.04821235904319" lon="12.6769206829841"><ele>130.33333333333334</ele><time>2026-04-25T08:02:12Z</time></trkpt><trkpt lat="46.04810395210511" lon="12.676649342841522"><ele>129.0</ele><time>2026-04-25T08:02:13Z</time></trkpt><trkpt lat="46.04799499250215" lon="12.676376947123618"><ele>129.0</ele><time>2026-04-25T08:02:14Z</time></trkpt><trkpt lat="46.04788739566711" lon="12.676110223562011"><ele>129.0</ele><time>2026-04-25T08:02:15Z</time></trkpt><trkpt lat="46.047781041949925" lon="12.675847413881264"><ele>129.0</ele><time>2026-04-25T08:02:16Z</time></trkpt><trkpt lat="46.04767738939295" lon="12.675590737808555"><ele>129.66666666666666</ele><time>2026-04-25T08:02:17Z</time></trkpt><trkpt lat="46.0475763055061" lon="12.675340205458603"><ele>130.33333333333331</ele><time>2026-04-25T08:02:18Z</time></trkpt><trkpt lat="46.04748147797336" lon="12.67510328396057"><ele>131.0</ele><time>2026-04-25T08:02:19Z</time></trkpt><trkpt lat="46.04739115292659" lon="12.674880269676393"><ele>131.0</ele><time>2026-04-25T08:02:20Z</time></trkpt><trkpt lat="46.047311021470165" lon="12.674674775369636"><ele>131.0</ele><time>2026-04-25T08:02:21Z</time></trkpt><trkpt lat="46.047241182830064" lon="12.674481808181378"><ele>131.0</ele><time>2026-04-25T08:02:22Z</time></trkpt><trkpt lat="46.047179605827274" lon="12.67429659326265"><ele>131.0</ele><time>2026-04-25T08:02:23Z</time></trkpt><trkpt lat="46.047128624301905" lon="12.674126078089104"><ele>131.0</ele><time>2026-04-25T08:02:24Z</time></trkpt><trkpt lat="46.04708182649278" lon="12.67396372344804"><ele>131.0</ele><time>2026-04-25T08:02:25Z</time></trkpt><trkpt lat="46.047042914075995" lon="12.673822540845602"><ele>131.0</ele><time>2026-04-25T08:02:26Z</time></trkpt><trkpt lat="46.04701331646303" lon="12.673684572652073"><ele>131.0</ele><time>2026-04-25T08:02:27Z</time></trkpt><trkpt lat="46.0469881181562" lon="12.67353346016764"><ele>131.0</ele><time>2026-04-25T08:02:28Z</time></trkpt><trkpt lat="46.047008529435885" lon="12.67335325778329"><ele>131.0</ele><time>2026-04-25T08:02:29Z</time></trkpt><trkpt lat="46.046979699403295" lon="12.673185990282333"><ele>131.0</ele><time>2026-04-25T08:02:30Z</time></trkpt><trkpt lat="46.04691979170552" lon="12.673026573873674"><ele>131.0</ele><time>2026-04-25T08:02:31Z</time></trkpt><trkpt lat="46.04679526976924" lon="12.672924979776981"><ele>131.0</ele><time>2026-04-25T08:02:32Z</time></trkpt><trkpt lat="46.04666278739468" lon="12.672801743699198"><ele>131.0</ele><time>2026-04-25T08:02:33Z</time></trkpt><trkpt lat="46.04654940031748" lon="12.67261553296037"><ele>130.66666666666666</ele><time>2026-04-25T08:02:34Z</time></trkpt><trkpt lat="46.04645417741701" lon="12.67238752241115"><ele>130.33333333333334</ele><time>2026-04-25T08:02:35Z</time></trkpt><trkpt lat="46.04636707906214" lon="12.6721393532901"><ele>130.0</ele><time>2026-04-25T08:02:36Z</time></trkpt><trkpt lat="46.04628204349386" lon="12.671887514970907"><ele>130.0</ele><time>2026-04-25T08:02:37Z</time></trkpt><trkpt lat="46.04620508427161" lon="12.671644896514081"><ele>130.0</ele><time>2026-04-25T08:02:38Z</time></trkpt><trkpt lat="46.04613040115783" lon="12.671396437756762"><ele>130.0</ele><time>2026-04-25T08:02:39Z</time></trkpt><trkpt lat="46.04605644275802" lon="12.671154494116056"><ele>130.33333333333334</ele><time>2026-04-25T08:02:40Z</time></trkpt><trkpt lat="46.04598360121777" lon="12.67091881316637"><ele>130.66666666666666</ele><time>2026-04-25T08:02:41Z</time></trkpt><trkpt lat="46.04591462986978" lon="12.670688048505475"><ele>131.0</ele><time>2026-04-25T08:02:42Z</time></trkpt><trkpt lat="46.04584726807939" lon="12.670468498901249"><ele>130.66666666666666</ele><time>2026-04-25T08:02:43Z</time></trkpt><trkpt lat="46.045781706077705" lon="12.67025637666866"><ele>130.33333333333334</ele><time>2026-04-25T08:02:44Z</time></trkpt><trkpt lat="46.04572147931455" lon="12.670048349288082"><ele>130.0</ele><time>2026-04-25T08:02:45Z</time></trkpt><trkpt lat="46.04565844586256" lon="12.669834274393548"><ele>130.0</ele><time>2026-04-25T08:02:46Z</time></trkpt><trkpt lat="46.04559526662631" lon="12.66961878548871"><ele>130.0</ele><time>2026-04-25T08:02:47Z</time></trkpt><trkpt lat="46.04553745711063" lon="12.669401996106437"><ele>130.0</ele><time>2026-04-25T08:02:48Z</time></trkpt><trkpt lat="46.045484416178084" lon="12.66918317777713"><ele>130.66666666666669</ele><time>2026-04-25T08:02:49Z</time></trkpt><trkpt lat="46.045433335531875" lon="12.6689662032936"><ele>131.33333333333334</ele><time>2026-04-25T08:02:50Z</time></trkpt><trkpt lat="46.04538431451838" lon="12.668758776195732"><ele>132.0</ele><time>2026-04-25T08:02:51Z</time></trkpt><trkpt lat="46.045337976871714" lon="12.668557212087538"><ele>132.25</ele><time>2026-04-25T08:02:52Z</time></trkpt><trkpt lat="46.04529151026712" lon="12.668358096133792"><ele>132.5</ele><time>2026-04-25T08:02:53Z</time></trkpt><trkpt lat="46.04524499015316" lon="12.668165265514139"><ele>132.75</ele><time>2026-04-25T08:02:54Z</time></trkpt><trkpt lat="46.04519916260475" lon="12.667976235746812"><ele>133.0</ele><time>2026-04-25T08:02:55Z</time></trkpt><trkpt lat="46.04515640064346" lon="12.667789867729672"><ele>133.5</ele><time>2026-04-25T08:02:56Z</time></trkpt><trkpt lat="46.045112580656074" lon="12.667602936506986"><ele>134.0</ele><time>2026-04-25T08:02:57Z</time></trkpt><trkpt lat="46.045068470443525" lon="12.667410490331172"><ele>134.5</ele><time>2026-04-25T08:02:58Z</time></trkpt><trkpt lat="46.04501871619833" lon="12.667210848315461"><ele>135.0</ele><time>2026-04-25T08:02:59Z</time></trkpt><trkpt lat="46.044971799746065" lon="12.667007568654867"><ele>134.33333333333334</ele><time>2026-04-25T08:03:00Z</time></trkpt><trkpt lat="46.04492429915702" lon="12.666802840686826"><ele>133.66666666666669</ele><time>2026-04-25T08:03:01Z</time></trkpt><trkpt lat="46.04487666863902" lon="12.666598835269355"><ele>133.0</ele><time>2026-04-25T08:03:02Z</time></trkpt><trkpt lat="46.04482808416939" lon="12.666391098485635"><ele>133.0</ele><time>2026-04-25T08:03:03Z</time></trkpt><trkpt lat="46.04477902529801" lon="12.666179498454708"><ele>133.0</ele><time>2026-04-25T08:03:04Z</time></trkpt><trkpt lat="46.04472771159925" lon="12.665961820425506"><ele>133.0</ele><time>2026-04-25T08:03:05Z</time></trkpt><trkpt lat="46.044675311153" lon="12.665740725359298"><ele>132.33333333333334</ele><time>2026-04-25T08:03:06Z</time></trkpt><trkpt lat="46.04462364153185" lon="12.665511455654299"><ele>131.66666666666666</ele><time>2026-04-25T08:03:07Z</time></trkpt><trkpt lat="46.04457204223912" lon="12.665287531731432"><ele>131.0</ele><time>2026-04-25T08:03:07.999Z</time></trkpt><trkpt lat="46.0445215175042" lon="12.66506855459756"><ele>131.0</ele><time>2026-04-25T08:03:08.999Z</time></trkpt><trkpt lat="46.044470198960454" lon="12.664852318789672"><ele>131.0</ele><time>2026-04-25T08:03:09.999Z</time></trkpt><trkpt lat="46.04441988358303" lon="12.664636752685789"><ele>131.0</ele><time>2026-04-25T08:03:10.999Z</time></trkpt><trkpt lat="46.04436719057016" lon="12.664418072605963"><ele>131.0</ele><time>2026-04-25T08:03:11.999Z</time></trkpt><trkpt lat="46.04431545559206" lon="12.664197649420093"><ele>131.0</ele><time>2026-04-25T08:03:12.999Z</time></trkpt><trkpt lat="46.04426319115081" lon="12.663975591029647"><ele>131.0</ele><time>2026-04-25T08:03:13.999Z</time></trkpt><trkpt lat="46.044210721346964" lon="12.663749829099643"><ele>131.0</ele><time>2026-04-25T08:03:14.999Z</time></trkpt><trkpt lat="46.04415820115926" lon="12.663530665800884"><ele>131.0</ele><time>2026-04-25T08:03:15.999Z</time></trkpt><trkpt lat="46.044104785963725" lon="12.663299670894743"><ele>131.0</ele><time>2026-04-25T08:03:16.999Z</time></trkpt><trkpt lat="46.04405118978594" lon="12.663063740715735"><ele>131.0</ele><time>2026-04-25T08:03:17.999Z</time></trkpt><trkpt lat="46.043997294082104" lon="12.662830133952847"><ele>131.0</ele><time>2026-04-25T08:03:18.999Z</time></trkpt><trkpt lat="46.043942260059424" lon="12.662595551571087"><ele>131.0</ele><time>2026-04-25T08:03:19.999Z</time></trkpt><trkpt lat="46.04388536579851" lon="12.662356649825945"><ele>131.0</ele><time>2026-04-25T08:03:20.999Z</time></trkpt><trkpt lat="46.043829237187914" lon="12.662116446592096"><ele>131.0</ele><time>2026-04-25T08:03:21.999Z</time></trkpt><trkpt lat="46.043772762910656" lon="12.661871239947926"><ele>131.0</ele><time>2026-04-25T08:03:22.999Z</time></trkpt><trkpt lat="46.043716669461645" lon="12.661626586684912"><ele>131.0</ele><time>2026-04-25T08:03:23.999Z</time></trkpt><trkpt lat="46.04366122890268" lon="12.661384957890684"><ele>131.0</ele><time>2026-04-25T08:03:24.999Z</time></trkpt><trkpt lat="46.04360476581016" lon="12.661147184104054"><ele>131.0</ele><time>2026-04-25T08:03:25.999Z</time></trkpt><trkpt lat="46.04354969679647" lon="12.660908294074025"><ele>131.0</ele><time>2026-04-25T08:03:26.999Z</time></trkpt><trkpt lat="46.04349424833261" lon="12.660673242184327"><ele>131.0</ele><time>2026-04-25T08:03:27.999Z</time></trkpt><trkpt lat="46.04343442593673" lon="12.660439377954894"><ele>131.0</ele><time>2026-04-25T08:03:28.999Z</time></trkpt><trkpt lat="46.043369054719946" lon="12.660206736240397"><ele>131.33333333333331</ele><time>2026-04-25T08:03:29.999Z</time></trkpt><trkpt lat="46.04329764910937" lon="12.65997444836292"><ele>131.66666666666666</ele><time>2026-04-25T08:03:31Z</time></trkpt><trkpt lat="46.04322030164279" lon="12.659745358163518"><ele>132.0</ele><time>2026-04-25T08:03:32Z</time></trkpt><trkpt lat="46.043137902571154" lon="12.659519083152867"><ele>131.66666666666666</ele><time>2026-04-25T08:03:33Z</time></trkpt><trkpt lat="46.04304827798476" lon="12.659294133177756"><ele>131.33333333333331</ele><time>2026-04-25T08:03:34Z</time></trkpt><trkpt lat="46.04295312526413" lon="12.659070722147534"><ele>131.0</ele><time>2026-04-25T08:03:35Z</time></trkpt><trkpt lat="46.04285287632185" lon="12.658850119106798"><ele>131.0</ele><time>2026-04-25T08:03:36Z</time></trkpt><trkpt lat="46.04275028362716" lon="12.658631399679672"><ele>131.0</ele><time>2026-04-25T08:03:37Z</time></trkpt><trkpt lat="46.04264848973626" lon="12.658412356727693"><ele>131.0</ele><time>2026-04-25T08:03:38Z</time></trkpt><trkpt lat="46.04255305119943" lon="12.658208457114885"><ele>131.25</ele><time>2026-04-25T08:03:39Z</time></trkpt><trkpt lat="46.042468880443074" lon="12.658019351497348"><ele>131.5</ele><time>2026-04-25T08:03:40Z</time></trkpt><trkpt lat="46.04239519071682" lon="12.657850928774238"><ele>131.75</ele><time>2026-04-25T08:03:41Z</time></trkpt><trkpt lat="46.04233312272029" lon="12.657694185932286"><ele>132.0</ele><time>2026-04-25T08:03:42Z</time></trkpt><trkpt lat="46.042280910053705" lon="12.657547032424944"><ele>132.0</ele><time>2026-04-25T08:03:43Z</time></trkpt><trkpt lat="46.04223605897498" lon="12.657412318613742"><ele>132.0</ele><time>2026-04-25T08:03:44Z</time></trkpt><trkpt lat="46.042200765089426" lon="12.657305584600364"><ele>132.0</ele><time>2026-04-25T08:03:45Z</time></trkpt><trkpt lat="46.0421612302467" lon="12.657183855948093"><ele>132.0</ele><time>2026-04-25T08:03:47Z</time></trkpt><trkpt lat="46.042132312372004" lon="12.657083986614717"><ele>132.0</ele><time>2026-04-25T08:03:52Z</time></trkpt><trkpt lat="46.04211286889736" lon="12.656965825755606"><ele>132.0</ele><time>2026-04-25T08:03:54Z</time></trkpt><trkpt lat="46.04213269451511" lon="12.656865247063202"><ele>132.0</ele><time>2026-04-25T08:03:55Z</time></trkpt><trkpt lat="46.04217533289637" lon="12.656751400588576"><ele>132.0</ele><time>2026-04-25T08:03:56Z</time></trkpt><trkpt lat="46.042216370277615" lon="12.656623676316121"><ele>132.0</ele><time>2026-04-25T08:03:57Z</time></trkpt><trkpt lat="46.042231496023426" lon="12.656493297340475"><ele>132.0</ele><time>2026-04-25T08:03:58Z</time></trkpt><trkpt lat="46.042220938231196" lon="12.656360905311564"><ele>132.0</ele><time>2026-04-25T08:03:59Z</time></trkpt><trkpt lat="46.042185449038406" lon="12.65623000615841"><ele>131.79999999999998</ele><time>2026-04-25T08:04:00Z</time></trkpt><trkpt lat="46.04212657569629" lon="12.656116419478387"><ele>131.6</ele><time>2026-04-25T08:04:01Z</time></trkpt><trkpt lat="46.04204181435879" lon="12.656034791226642"><ele>131.39999999999998</ele><time>2026-04-25T08:04:02Z</time></trkpt><trkpt lat="46.04194606657855" lon="12.655979349730064"><ele>131.2</ele><time>2026-04-25T08:04:03Z</time></trkpt><trkpt lat="46.041844328131035" lon="12.655964588554799"><ele>131.0</ele><time>2026-04-25T08:04:04Z</time></trkpt><trkpt lat="46.0417468154395" lon="12.655996138309236"><ele>131.0</ele><time>2026-04-25T08:04:05Z</time></trkpt><trkpt lat="46.041661332060166" lon="12.656066557021251"><ele>131.0</ele><time>2026-04-25T08:04:06Z</time></trkpt><trkpt lat="46.04159216255751" lon="12.656161677053392"><ele>131.0</ele><time>2026-04-25T08:04:07Z</time></trkpt><trkpt lat="46.0415383335894" lon="12.6562554216751"><ele>131.0</ele><time>2026-04-25T08:04:08Z</time></trkpt><trkpt lat="46.04146711700788" lon="12.656332438505892"><ele>131.0</ele><time>2026-04-25T08:04:09Z</time></trkpt><trkpt lat="46.041371875301664" lon="12.65637608631924"><ele>130.75</ele><time>2026-04-25T08:04:10Z</time></trkpt><trkpt lat="46.041261424721434" lon="12.65637419522261"><ele>130.5</ele><time>2026-04-25T08:04:11Z</time></trkpt><trkpt lat="46.04114259253999" lon="12.656329559861087"><ele>130.25</ele><time>2026-04-25T08:04:12Z</time></trkpt><trkpt lat="46.04102036926502" lon="12.656248259554845"><ele>130.0</ele><time>2026-04-25T08:04:13Z</time></trkpt><trkpt lat="46.04088736388685" lon="12.656173270887566"><ele>130.33333333333334</ele><time>2026-04-25T08:04:14Z</time></trkpt><trkpt lat="46.040740784154686" lon="12.656103698174025"><ele>130.66666666666666</ele><time>2026-04-25T08:04:15Z</time></trkpt><trkpt lat="46.04058921203881" lon="12.656043431290477"><ele>131.0</ele><time>2026-04-25T08:04:16Z</time></trkpt><trkpt lat="46.04043616791892" lon="12.655989243932723"><ele>131.0</ele><time>2026-04-25T08:04:17Z</time></trkpt><trkpt lat="46.04027706583788" lon="12.655937470681788"><ele>131.0</ele><time>2026-04-25T08:04:18Z</time></trkpt><trkpt lat="46.04011586804468" lon="12.655887485543463"><ele>131.0</ele><time>2026-04-25T08:04:19Z</time></trkpt><trkpt lat="46.0399568384109" lon="12.655838539995456"><ele>130.33333333333331</ele><time>2026-04-25T08:04:20Z</time></trkpt><trkpt lat="46.03980607070974" lon="12.655789574470084"><ele>129.66666666666666</ele><time>2026-04-25T08:04:21Z</time></trkpt><trkpt lat="46.03965929156737" lon="12.655742290203316"><ele>129.0</ele><time>2026-04-25T08:04:22Z</time></trkpt><trkpt lat="46.039510692741466" lon="12.655693117416327"><ele>129.0</ele><time>2026-04-25T08:04:23Z</time></trkpt><trkpt lat="46.039359017564024" lon="12.655642609856125"><ele>129.0</ele><time>2026-04-25T08:04:24Z</time></trkpt><trkpt lat="46.039202071238066" lon="12.655591911756675"><ele>129.0</ele><time>2026-04-25T08:04:25Z</time></trkpt><trkpt lat="46.03903825683199" lon="12.655535011050592"><ele>128.66666666666666</ele><time>2026-04-25T08:04:26Z</time></trkpt><trkpt lat="46.03886664342188" lon="12.65547539415828"><ele>128.33333333333331</ele><time>2026-04-25T08:04:27Z</time></trkpt><trkpt lat="46.03868740850801" lon="12.65541645066968"><ele>128.0</ele><time>2026-04-25T08:04:28Z</time></trkpt><trkpt lat="46.038498002732595" lon="12.655350410200505"><ele>127.66666666666666</ele><time>2026-04-25T08:04:29Z</time></trkpt><trkpt lat="46.038300905024585" lon="12.655279285866415"><ele>127.33333333333334</ele><time>2026-04-25T08:04:30Z</time></trkpt><trkpt lat="46.03810337344864" lon="12.655211668367066"><ele>127.0</ele><time>2026-04-25T08:04:31Z</time></trkpt><trkpt lat="46.0379093424116" lon="12.65514468096517"><ele>127.0</ele><time>2026-04-25T08:04:32Z</time></trkpt><trkpt lat="46.037717160394735" lon="12.655080231955179"><ele>127.0</ele><time>2026-04-25T08:04:33Z</time></trkpt><trkpt lat="46.037527293572815" lon="12.655019191082275"><ele>127.0</ele><time>2026-04-25T08:04:34Z</time></trkpt><trkpt lat="46.037341627735394" lon="12.65496032972456"><ele>127.0</ele><time>2026-04-25T08:04:35Z</time></trkpt><trkpt lat="46.03716280352797" lon="12.654902905225818"><ele>127.0</ele><time>2026-04-25T08:04:36Z</time></trkpt><trkpt lat="46.03698943979859" lon="12.654847056000039"><ele>127.0</ele><time>2026-04-25T08:04:37Z</time></trkpt><trkpt lat="46.036818311390334" lon="12.654794361174783"><ele>127.0</ele><time>2026-04-25T08:04:38Z</time></trkpt><trkpt lat="46.03664183994431" lon="12.65473235435426"><ele>127.0</ele><time>2026-04-25T08:04:39Z</time></trkpt><trkpt lat="46.036462443914246" lon="12.654662386149125"><ele>127.0</ele><time>2026-04-25T08:04:40Z</time></trkpt><trkpt lat="46.03628273702089" lon="12.65459047255637"><ele>127.0</ele><time>2026-04-25T08:04:41Z</time></trkpt><trkpt lat="46.03610466636944" lon="12.654520199283754"><ele>127.0</ele><time>2026-04-25T08:04:42Z</time></trkpt><trkpt lat="46.03592806771578" lon="12.654449258182895"><ele>127.0</ele><time>2026-04-25T08:04:43Z</time></trkpt><trkpt lat="46.03575108251261" lon="12.654378971936437"><ele>126.33333333333334</ele><time>2026-04-25T08:04:44Z</time></trkpt><trkpt lat="46.03557447075099" lon="12.654306911738805"><ele>125.66666666666666</ele><time>2026-04-25T08:04:45Z</time></trkpt><trkpt lat="46.03539804750101" lon="12.654235658304282"><ele>125.0</ele><time>2026-04-25T08:04:46Z</time></trkpt><trkpt lat="46.035221303298975" lon="12.654163233677084"><ele>125.0</ele><time>2026-04-25T08:04:47Z</time></trkpt><trkpt lat="46.0350412725362" lon="12.654088078418486"><ele>125.0</ele><time>2026-04-25T08:04:48Z</time></trkpt><trkpt lat="46.034860037886496" lon="12.654012285842908"><ele>125.0</ele><time>2026-04-25T08:04:49Z</time></trkpt><trkpt lat="46.034679960575566" lon="12.653937977568413"><ele>124.33333333333333</ele><time>2026-04-25T08:04:50Z</time></trkpt><trkpt lat="46.034501352086465" lon="12.653864696602756"><ele>123.66666666666666</ele><time>2026-04-25T08:04:51Z</time></trkpt><trkpt lat="46.03432404427491" lon="12.653792845606153"><ele>123.0</ele><time>2026-04-25T08:04:52Z</time></trkpt><trkpt lat="46.034144275570114" lon="12.65371987211221"><ele>123.33333333333334</ele><time>2026-04-25T08:04:53Z</time></trkpt><trkpt lat="46.03395849196318" lon="12.653645673207766"><ele>123.66666666666667</ele><time>2026-04-25T08:04:54Z</time></trkpt><trkpt lat="46.033767989499154" lon="12.653568083431812"><ele>124.0</ele><time>2026-04-25T08:04:55Z</time></trkpt><trkpt lat="46.03357565608284" lon="12.653486027419248"><ele>123.0</ele><time>2026-04-25T08:04:56Z</time></trkpt><trkpt lat="46.03338667051129" lon="12.653407469849947"><ele>122.0</ele><time>2026-04-25T08:04:57Z</time></trkpt><trkpt lat="46.03320032768173" lon="12.653331205938484"><ele>121.0</ele><time>2026-04-25T08:04:58Z</time></trkpt><trkpt lat="46.03301635369616" lon="12.653256004432558"><ele>121.0</ele><time>2026-04-25T08:04:59Z</time></trkpt><trkpt lat="46.032835654597875" lon="12.65318149894397"><ele>121.0</ele><time>2026-04-25T08:05:00Z</time></trkpt><trkpt lat="46.032659342750044" lon="12.653108904549052"><ele>121.0</ele><time>2026-04-25T08:05:01Z</time></trkpt><trkpt lat="46.03248779343679" lon="12.653038482287778"><ele>120.66666666666667</ele><time>2026-04-25T08:05:02Z</time></trkpt><trkpt lat="46.03231576240307" lon="12.652973143124877"><ele>120.33333333333334</ele><time>2026-04-25T08:05:03Z</time></trkpt><trkpt lat="46.03214055814533" lon="12.652922699036036"><ele>120.0</ele><time>2026-04-25T08:05:03.999Z</time></trkpt><trkpt lat="46.03196101794143" lon="12.652886168251245"><ele>120.0</ele><time>2026-04-25T08:05:04.999Z</time></trkpt><trkpt lat="46.031778402081954" lon="12.652860579588204"><ele>120.0</ele><time>2026-04-25T08:05:05.999Z</time></trkpt><trkpt lat="46.031593778960804" lon="12.65284135030404"><ele>120.0</ele><time>2026-04-25T08:05:06.999Z</time></trkpt><trkpt lat="46.031408731892135" lon="12.652824156642433"><ele>119.66666666666666</ele><time>2026-04-25T08:05:07.999Z</time></trkpt><trkpt lat="46.03122322515367" lon="12.652805853959979"><ele>119.33333333333333</ele><time>2026-04-25T08:05:08.999Z</time></trkpt><trkpt lat="46.03103678904227" lon="12.652787234202771"><ele>119.0</ele><time>2026-04-25T08:05:09.999Z</time></trkpt><trkpt lat="46.03084995257788" lon="12.652769854423005"><ele>118.66666666666666</ele><time>2026-04-25T08:05:10.999Z</time></trkpt><trkpt lat="46.03066232612843" lon="12.652751165400653"><ele>118.33333333333334</ele><time>2026-04-25T08:05:11.999Z</time></trkpt><trkpt lat="46.030473297477066" lon="12.652732141674088"><ele>118.0</ele><time>2026-04-25T08:05:12.999Z</time></trkpt><trkpt lat="46.030282955588206" lon="12.65271402565854"><ele>118.0</ele><time>2026-04-25T08:05:13.999Z</time></trkpt><trkpt lat="46.030091811834744" lon="12.65269881808594"><ele>118.0</ele><time>2026-04-25T08:05:14.999Z</time></trkpt><trkpt lat="46.02990144548731" lon="12.652694307009094"><ele>118.0</ele><time>2026-04-25T08:05:15.999Z</time></trkpt><trkpt lat="46.02970828926374" lon="12.652703171561315"><ele>117.33333333333334</ele><time>2026-04-25T08:05:16.999Z</time></trkpt><trkpt lat="46.02951588798416" lon="12.65272340639003"><ele>116.66666666666666</ele><time>2026-04-25T08:05:17.999Z</time></trkpt><trkpt lat="46.02932069806559" lon="12.652745871502892"><ele>116.0</ele><time>2026-04-25T08:05:18.999Z</time></trkpt><trkpt lat="46.029124775611315" lon="12.652770527501794"><ele>115.66666666666666</ele><time>2026-04-25T08:05:19.999Z</time></trkpt><trkpt lat="46.02892907163013" lon="12.652794584805944"><ele>115.33333333333334</ele><time>2026-04-25T08:05:20.999Z</time></trkpt><trkpt lat="46.02873526837084" lon="12.652817970993807"><ele>115.0</ele><time>2026-04-25T08:05:21.999Z</time></trkpt><trkpt lat="46.02854229611212" lon="12.652823246437407"><ele>115.0</ele><time>2026-04-25T08:05:22.999Z</time></trkpt><trkpt lat="46.028351247092345" lon="12.652846714765255"><ele>115.0</ele><time>2026-04-25T08:05:23.999Z</time></trkpt><trkpt lat="46.02816188570623" lon="12.652869584752287"><ele>115.0</ele><time>2026-04-25T08:05:24.999Z</time></trkpt><trkpt lat="46.027968828715956" lon="12.652890791437438"><ele>115.0</ele><time>2026-04-25T08:05:25.999Z</time></trkpt><trkpt lat="46.02777311224345" lon="12.652908265185035"><ele>115.0</ele><time>2026-04-25T08:05:26.999Z</time></trkpt><trkpt lat="46.027574576697546" lon="12.652920275198131"><ele>115.0</ele><time>2026-04-25T08:05:27.999Z</time></trkpt><trkpt lat="46.027376416288696" lon="12.65292869682999"><ele>115.0</ele><time>2026-04-25T08:05:28.999Z</time></trkpt><trkpt lat="46.027178058093774" lon="12.65295627297267"><ele>115.0</ele><time>2026-04-25T08:05:29.999Z</time></trkpt><trkpt lat="46.02698015972092" lon="12.652960736066868"><ele>115.0</ele><time>2026-04-25T08:05:30.999Z</time></trkpt><trkpt lat="46.026784742295" lon="12.652960969349529"><ele>114.0</ele><time>2026-04-25T08:05:31.999Z</time></trkpt><trkpt lat="46.02659301859758" lon="12.652963857683343"><ele>113.0</ele><time>2026-04-25T08:05:32.999Z</time></trkpt><trkpt lat="46.02641150181533" lon="12.652968356351328"><ele>112.0</ele><time>2026-04-25T08:05:33.999Z</time></trkpt><trkpt lat="46.02623686762137" lon="12.652970859126832"><ele>112.0</ele><time>2026-04-25T08:05:34.999Z</time></trkpt><trkpt lat="46.02606563566417" lon="12.652976058004413"><ele>112.0</ele><time>2026-04-25T08:05:35.999Z</time></trkpt><trkpt lat="46.02589562096086" lon="12.652978402598817"><ele>112.0</ele><time>2026-04-25T08:05:37Z</time></trkpt><trkpt lat="46.025723657903754" lon="12.65297971354917"><ele>111.66666666666667</ele><time>2026-04-25T08:05:38Z</time></trkpt><trkpt lat="46.02555046099334" lon="12.65297790395578"><ele>111.33333333333334</ele><time>2026-04-25T08:05:39Z</time></trkpt><trkpt lat="46.02537777993329" lon="12.652974111738885"><ele>111.0</ele><time>2026-04-25T08:05:40Z</time></trkpt><trkpt lat="46.02520160648185" lon="12.652966289598249"><ele>111.0</ele><time>2026-04-25T08:05:41Z</time></trkpt><trkpt lat="46.02502114963405" lon="12.652958509900303"><ele>111.0</ele><time>2026-04-25T08:05:42Z</time></trkpt><trkpt lat="46.02483930537448" lon="12.6529491722459"><ele>111.0</ele><time>2026-04-25T08:05:43Z</time></trkpt><trkpt lat="46.024658245968375" lon="12.652936793759167"><ele>110.66666666666666</ele><time>2026-04-25T08:05:44Z</time></trkpt><trkpt lat="46.02447236684939" lon="12.652920019048937"><ele>110.33333333333333</ele><time>2026-04-25T08:05:45Z</time></trkpt><trkpt lat="46.024283881836595" lon="12.652905650624826"><ele>110.0</ele><time>2026-04-25T08:05:46Z</time></trkpt><trkpt lat="46.024092635673725" lon="12.652893062051119"><ele>110.0</ele><time>2026-04-25T08:05:47Z</time></trkpt><trkpt lat="46.023899111427944" lon="12.652882013754672"><ele>110.0</ele><time>2026-04-25T08:05:48Z</time></trkpt><trkpt lat="46.02370526382205" lon="12.652870484695832"><ele>110.0</ele><time>2026-04-25T08:05:49Z</time></trkpt><trkpt lat="46.02351101050223" lon="12.652858723267245"><ele>110.0</ele><time>2026-04-25T08:05:50Z</time></trkpt><trkpt lat="46.02331512348329" lon="12.652845468280223"><ele>110.0</ele><time>2026-04-25T08:05:51Z</time></trkpt><trkpt lat="46.02311996417498" lon="12.65283516026294"><ele>110.0</ele><time>2026-04-25T08:05:52Z</time></trkpt><trkpt lat="46.022932597231836" lon="12.652827538302981"><ele>109.33333333333333</ele><time>2026-04-25T08:05:53Z</time></trkpt><trkpt lat="46.02276217151023" lon="12.652815774917777"><ele>108.66666666666666</ele><time>2026-04-25T08:05:54Z</time></trkpt><trkpt lat="46.022599527650584" lon="12.65279864259675"><ele>108.0</ele><time>2026-04-25T08:05:55Z</time></trkpt><trkpt lat="46.02244350541245" lon="12.652780193280018"><ele>107.5</ele><time>2026-04-25T08:05:56Z</time></trkpt><trkpt lat="46.022297317672795" lon="12.6527603569672"><ele>107.0</ele><time>2026-04-25T08:05:57Z</time></trkpt><trkpt lat="46.022168088662355" lon="12.652736856838096"><ele>106.5</ele><time>2026-04-25T08:05:58Z</time></trkpt><trkpt lat="46.02204924853187" lon="12.652711631432936"><ele>106.0</ele><time>2026-04-25T08:05:59Z</time></trkpt><trkpt lat="46.02193558800935" lon="12.652674931971411"><ele>106.0</ele><time>2026-04-25T08:06:00Z</time></trkpt><trkpt lat="46.02182390164684" lon="12.652632581033957"><ele>106.0</ele><time>2026-04-25T08:06:01Z</time></trkpt><trkpt lat="46.02170950614501" lon="12.652584657513177"><ele>106.0</ele><time>2026-04-25T08:06:02Z</time></trkpt><trkpt lat="46.021599439632475" lon="12.652532592962796"><ele>106.0</ele><time>2026-04-25T08:06:03Z</time></trkpt><trkpt lat="46.02150349959075" lon="12.6524793554324"><ele>105.83333333333334</ele><time>2026-04-25T08:06:04Z</time></trkpt><trkpt lat="46.02142488181992" lon="12.652434566906464"><ele>105.66666666666667</ele><time>2026-04-25T08:06:05Z</time></trkpt><trkpt lat="46.021356562356054" lon="12.65238427136542"><ele>105.5</ele><time>2026-04-25T08:06:06Z</time></trkpt><trkpt lat="46.0212955969884" lon="12.652324913865469"><ele>105.33333333333334</ele><time>2026-04-25T08:06:07Z</time></trkpt><trkpt lat="46.02124119938597" lon="12.652238962530541"><ele>105.16666666666667</ele><time>2026-04-25T08:06:08Z</time></trkpt><trkpt lat="46.02121019896171" lon="12.652114042366174"><ele>105.0</ele><time>2026-04-25T08:06:09Z</time></trkpt><trkpt lat="46.02117541408338" lon="12.651973614057086"><ele>104.75</ele><time>2026-04-25T08:06:10Z</time></trkpt><trkpt lat="46.021107698258696" lon="12.651840729334854"><ele>104.5</ele><time>2026-04-25T08:06:11Z</time></trkpt><trkpt lat="46.02101604384327" lon="12.651737144588038"><ele>104.25</ele><time>2026-04-25T08:06:12Z</time></trkpt><trkpt lat="46.02091038297419" lon="12.651673201247508"><ele>104.0</ele><time>2026-04-25T08:06:13Z</time></trkpt><trkpt lat="46.020804020847486" lon="12.651646017584504"><ele>103.75</ele><time>2026-04-25T08:06:14Z</time></trkpt><trkpt lat="46.02071309521507" lon="12.651638901425146"><ele>103.5</ele><time>2026-04-25T08:06:15Z</time></trkpt><trkpt lat="46.020622680074936" lon="12.651520240357778"><ele>103.25</ele><time>2026-04-25T08:06:16Z</time></trkpt><trkpt lat="46.02054802963" lon="12.651375658790402"><ele>103.0</ele><time>2026-04-25T08:06:17Z</time></trkpt><trkpt lat="46.02048737463666" lon="12.65120699415255"><ele>102.75</ele><time>2026-04-25T08:06:18Z</time></trkpt><trkpt lat="46.02042757500814" lon="12.651024281984105"><ele>102.5</ele><time>2026-04-25T08:06:19Z</time></trkpt><trkpt lat="46.0203669396393" lon="12.65083090884935"><ele>102.25</ele><time>2026-04-25T08:06:20Z</time></trkpt><trkpt lat="46.02031089273409" lon="12.650626112840767"><ele>102.0</ele><time>2026-04-25T08:06:21Z</time></trkpt><trkpt lat="46.020256117642575" lon="12.650410150449675"><ele>101.66666666666666</ele><time>2026-04-25T08:06:22Z</time></trkpt><trkpt lat="46.02019613793501" lon="12.650188357849169"><ele>101.33333333333333</ele><time>2026-04-25T08:06:23Z</time></trkpt><trkpt lat="46.020134746715904" lon="12.64996864247447"><ele>101.0</ele><time>2026-04-25T08:06:24Z</time></trkpt><trkpt lat="46.02007664407605" lon="12.649749888748104"><ele>101.0</ele><time>2026-04-25T08:06:25Z</time></trkpt><trkpt lat="46.020018905352764" lon="12.649534270469072"><ele>101.0</ele><time>2026-04-25T08:06:26Z</time></trkpt><trkpt lat="46.019960681348905" lon="12.649323092604618"><ele>101.0</ele><time>2026-04-25T08:06:27Z</time></trkpt><trkpt lat="46.019902374390604" lon="12.649109894143658"><ele>101.33333333333333</ele><time>2026-04-25T08:06:28Z</time></trkpt><trkpt lat="46.01984327730713" lon="12.648891323985328"><ele>101.66666666666666</ele><time>2026-04-25T08:06:29Z</time></trkpt><trkpt lat="46.01978317042039" lon="12.648669395851973"><ele>102.0</ele><time>2026-04-25T08:06:30Z</time></trkpt><trkpt lat="46.019721648569806" lon="12.648446234069835"><ele>102.0</ele><time>2026-04-25T08:06:31Z</time></trkpt><trkpt lat="46.0196583332251" lon="12.648216592363056"><ele>102.0</ele><time>2026-04-25T08:06:32Z</time></trkpt><trkpt lat="46.01959115116492" lon="12.647982043466401"><ele>102.0</ele><time>2026-04-25T08:06:33Z</time></trkpt><trkpt lat="46.0195256955434" lon="12.647750861518212"><ele>102.0</ele><time>2026-04-25T08:06:34Z</time></trkpt><trkpt lat="46.01946246954418" lon="12.647518324082004"><ele>102.0</ele><time>2026-04-25T08:06:35Z</time></trkpt><trkpt lat="46.019401810750374" lon="12.647290279920588"><ele>102.0</ele><time>2026-04-25T08:06:36Z</time></trkpt><trkpt lat="46.019342319061124" lon="12.647074543555107"><ele>101.66666666666666</ele><time>2026-04-25T08:06:37Z</time></trkpt><trkpt lat="46.0192829362265" lon="12.646860264756416"><ele>101.33333333333333</ele><time>2026-04-25T08:06:38Z</time></trkpt><trkpt lat="46.01922293080502" lon="12.646641220605499"><ele>101.0</ele><time>2026-04-25T08:06:39Z</time></trkpt><trkpt lat="46.019161247330274" lon="12.64641579151206"><ele>101.0</ele><time>2026-04-25T08:06:40Z</time></trkpt><trkpt lat="46.0190972220525" lon="12.64618356921239"><ele>101.0</ele><time>2026-04-25T08:06:41Z</time></trkpt><trkpt lat="46.01903143704503" lon="12.64594317151162"><ele>101.0</ele><time>2026-04-25T08:06:42Z</time></trkpt><trkpt lat="46.018964687428884" lon="12.645697412115823"><ele>101.66666666666666</ele><time>2026-04-25T08:06:43Z</time></trkpt><trkpt lat="46.018896752903686" lon="12.645448911463491"><ele>102.33333333333334</ele><time>2026-04-25T08:06:44Z</time></trkpt><trkpt lat="46.01882664802593" lon="12.64519826782729"><ele>103.0</ele><time>2026-04-25T08:06:45Z</time></trkpt><trkpt lat="46.01875509559544" lon="12.644936996512508"><ele>103.0</ele><time>2026-04-25T08:06:46Z</time></trkpt><trkpt lat="46.01867721487555" lon="12.644666103818217"><ele>103.0</ele><time>2026-04-25T08:06:47Z</time></trkpt><trkpt lat="46.018591958649" lon="12.644387979709029"><ele>103.0</ele><time>2026-04-25T08:06:48Z</time></trkpt><trkpt lat="46.01850300965616" lon="12.644106837402047"><ele>102.66666666666667</ele><time>2026-04-25T08:06:49Z</time></trkpt><trkpt lat="46.01841031722988" lon="12.643820087310596"><ele>102.33333333333334</ele><time>2026-04-25T08:06:50Z</time></trkpt><trkpt lat="46.01831390517839" lon="12.643530926976503"><ele>102.0</ele><time>2026-04-25T08:06:51Z</time></trkpt><trkpt lat="46.01821518585525" lon="12.643237440629315"><ele>101.5</ele><time>2026-04-25T08:06:52Z</time></trkpt><trkpt lat="46.01811549474676" lon="12.64294134973949"><ele>101.0</ele><time>2026-04-25T08:06:53Z</time></trkpt><trkpt lat="46.018015144819685" lon="12.642648260638353"><ele>101.0</ele><time>2026-04-25T08:06:54Z</time></trkpt><trkpt lat="46.01791773856108" lon="12.6423655554536"><ele>101.0</ele><time>2026-04-25T08:06:55Z</time></trkpt><trkpt lat="46.01782253648927" lon="12.642090465969643"><ele>101.0</ele><time>2026-04-25T08:06:56Z</time></trkpt><trkpt lat="46.01773181938974" lon="12.641824714384903"><ele>101.0</ele><time>2026-04-25T08:06:57Z</time></trkpt><trkpt lat="46.017644253752465" lon="12.641570705162916"><ele>101.0</ele><time>2026-04-25T08:06:58Z</time></trkpt><trkpt lat="46.017559070260845" lon="12.641323922326272"><ele>101.0</ele><time>2026-04-25T08:06:59Z</time></trkpt><trkpt lat="46.017476006852895" lon="12.641083722160833"><ele>101.0</ele><time>2026-04-25T08:07:00Z</time></trkpt><trkpt lat="46.017394838874885" lon="12.640845031052399"><ele>101.0</ele><time>2026-04-25T08:07:00.999Z</time></trkpt><trkpt lat="46.017314628003874" lon="12.640609141484687"><ele>101.0</ele><time>2026-04-25T08:07:01.999Z</time></trkpt><trkpt lat="46.01723307745622" lon="12.64037263394859"><ele>101.0</ele><time>2026-04-25T08:07:02.999Z</time></trkpt><trkpt lat="46.017148727344" lon="12.640127522159066"><ele>101.0</ele><time>2026-04-25T08:07:03.999Z</time></trkpt><trkpt lat="46.01706313993005" lon="12.639878561832328"><ele>101.0</ele><time>2026-04-25T08:07:04.999Z</time></trkpt><trkpt lat="46.01697817993624" lon="12.639626213484323"><ele>101.0</ele><time>2026-04-25T08:07:05.999Z</time></trkpt><trkpt lat="46.01689336360515" lon="12.639377283590834"><ele>101.0</ele><time>2026-04-25T08:07:06.999Z</time></trkpt><trkpt lat="46.01680455001619" lon="12.639126180183757"><ele>101.0</ele><time>2026-04-25T08:07:07.999Z</time></trkpt><trkpt lat="46.01671426805143" lon="12.638870280121687"><ele>100.33333333333333</ele><time>2026-04-25T08:07:08.999Z</time></trkpt><trkpt lat="46.016624012192864" lon="12.63860889557458"><ele>99.66666666666666</ele><time>2026-04-25T08:07:09.999Z</time></trkpt><trkpt lat="46.01653248002632" lon="12.638347735762705"><ele>99.0</ele><time>2026-04-25T08:07:10.999Z</time></trkpt><trkpt lat="46.01644108771479" lon="12.638084873085035"><ele>99.0</ele><time>2026-04-25T08:07:11.999Z</time></trkpt><trkpt lat="46.01634917783711" lon="12.637818352366489"><ele>99.0</ele><time>2026-04-25T08:07:12.999Z</time></trkpt><trkpt lat="46.01625448275064" lon="12.637543950823343"><ele>99.0</ele><time>2026-04-25T08:07:13.999Z</time></trkpt><trkpt lat="46.0161575041783" lon="12.637264503234674"><ele>99.0</ele><time>2026-04-25T08:07:14.999Z</time></trkpt><trkpt lat="46.01606117826289" lon="12.63698731652338"><ele>99.0</ele><time>2026-04-25T08:07:15.999Z</time></trkpt><trkpt lat="46.01596420855706" lon="12.636711541873069"><ele>99.0</ele><time>2026-04-25T08:07:16.999Z</time></trkpt><trkpt lat="46.01586810358117" lon="12.636437584125574"><ele>98.66666666666666</ele><time>2026-04-25T08:07:17.999Z</time></trkpt><trkpt lat="46.01577250756591" lon="12.636166699165594"><ele>98.33333333333333</ele><time>2026-04-25T08:07:18.999Z</time></trkpt><trkpt lat="46.0156811620642" lon="12.635901878749594"><ele>98.0</ele><time>2026-04-25T08:07:19.999Z</time></trkpt><trkpt lat="46.015591505199176" lon="12.635641770102515"><ele>98.0</ele><time>2026-04-25T08:07:20.999Z</time></trkpt><trkpt lat="46.01550376661474" lon="12.635382185290139"><ele>98.0</ele><time>2026-04-25T08:07:21.999Z</time></trkpt><trkpt lat="46.01541505907627" lon="12.635123840797451"><ele>98.0</ele><time>2026-04-25T08:07:22.999Z</time></trkpt><trkpt lat="46.01532757139465" lon="12.634868565778625"><ele>98.0</ele><time>2026-04-25T08:07:23.999Z</time></trkpt><trkpt lat="46.0152389427512" lon="12.634614052648134"><ele>98.0</ele><time>2026-04-25T08:07:24.999Z</time></trkpt><trkpt lat="46.01514929391675" lon="12.634358800194969"><ele>98.0</ele><time>2026-04-25T08:07:25.999Z</time></trkpt><trkpt lat="46.01506108750558" lon="12.63410336505646"><ele>97.66666666666666</ele><time>2026-04-25T08:07:26.999Z</time></trkpt><trkpt lat="46.014973386991464" lon="12.633848742139607"><ele>97.33333333333334</ele><time>2026-04-25T08:07:27.999Z</time></trkpt><trkpt lat="46.01488451944172" lon="12.633594307747806"><ele>97.0</ele><time>2026-04-25T08:07:28.999Z</time></trkpt><trkpt lat="46.01479811040064" lon="12.633346621712883"><ele>97.0</ele><time>2026-04-25T08:07:29.999Z</time></trkpt><trkpt lat="46.014718060743974" lon="12.633102836034181"><ele>97.0</ele><time>2026-04-25T08:07:30.999Z</time></trkpt><trkpt lat="46.01464421561018" lon="12.63286903554956"><ele>97.0</ele><time>2026-04-25T08:07:31.999Z</time></trkpt><trkpt lat="46.014576884014886" lon="12.632643464722776"><ele>97.0</ele><time>2026-04-25T08:07:32.999Z</time></trkpt><trkpt lat="46.01451262471173" lon="12.632418370381306"><ele>97.0</ele><time>2026-04-25T08:07:33.999Z</time></trkpt><trkpt lat="46.014448694614224" lon="12.632185543353577"><ele>97.0</ele><time>2026-04-25T08:07:34.999Z</time></trkpt><trkpt lat="46.01437929571273" lon="12.631949343677492"><ele>97.66666666666667</ele><time>2026-04-25T08:07:35.999Z</time></trkpt><trkpt lat="46.01431299821043" lon="12.631712437850421"><ele>98.33333333333334</ele><time>2026-04-25T08:07:36.999Z</time></trkpt><trkpt lat="46.01424305982118" lon="12.631468086846857"><ele>99.0</ele><time>2026-04-25T08:07:37.999Z</time></trkpt><trkpt lat="46.014169564603385" lon="12.631211508588127"><ele>97.66666666666667</ele><time>2026-04-25T08:07:38.999Z</time></trkpt><trkpt lat="46.014091361726294" lon="12.630945993869261"><ele>96.33333333333334</ele><time>2026-04-25T08:07:39.999Z</time></trkpt><trkpt lat="46.014013576675744" lon="12.630671665947773"><ele>95.0</ele><time>2026-04-25T08:07:40.999Z</time></trkpt><trkpt lat="46.01393228484727" lon="12.63039189264019"><ele>96.0</ele><time>2026-04-25T08:07:41.999Z</time></trkpt><trkpt lat="46.01384986309044" lon="12.630111186835382"><ele>97.0</ele><time>2026-04-25T08:07:43Z</time></trkpt><trkpt lat="46.01376958460203" lon="12.629828622011273"><ele>98.0</ele><time>2026-04-25T08:07:44Z</time></trkpt><trkpt lat="46.01368778088097" lon="12.62954490583827"><ele>99.0</ele><time>2026-04-25T08:07:45Z</time></trkpt><trkpt lat="46.01360624197366" lon="12.629260165003398"><ele>100.0</ele><time>2026-04-25T08:07:46Z</time></trkpt><trkpt lat="46.01352233821182" lon="12.628971971748381"><ele>101.0</ele><time>2026-04-25T08:07:47Z</time></trkpt><trkpt lat="46.013435801176406" lon="12.62868482663844"><ele>100.66666666666666</ele><time>2026-04-25T08:07:48Z</time></trkpt><trkpt lat="46.01334964520294" lon="12.628402978083589"><ele>100.33333333333334</ele><time>2026-04-25T08:07:49Z</time></trkpt><trkpt lat="46.01327568752317" lon="12.628118530762327"><ele>100.0</ele><time>2026-04-25T08:07:50Z</time></trkpt><trkpt lat="46.0132218767399" lon="12.627828142380311"><ele>99.66666666666667</ele><time>2026-04-25T08:07:51Z</time></trkpt><trkpt lat="46.01318523503428" lon="12.627526996839164"><ele>99.33333333333334</ele><time>2026-04-25T08:07:52Z</time></trkpt><trkpt lat="46.013176563280226" lon="12.627215837464135"><ele>99.0</ele><time>2026-04-25T08:07:53Z</time></trkpt><trkpt lat="46.01317930359633" lon="12.6269059744737"><ele>99.0</ele><time>2026-04-25T08:07:54Z</time></trkpt><trkpt lat="46.01318871079449" lon="12.626605734907184"><ele>99.0</ele><time>2026-04-25T08:07:55Z</time></trkpt><trkpt lat="46.01319783147538" lon="12.62633384127531"><ele>99.0</ele><time>2026-04-25T08:07:56Z</time></trkpt><trkpt lat="46.01320538063126" lon="12.626085773692573"><ele>99.0</ele><time>2026-04-25T08:07:57Z</time></trkpt><trkpt lat="46.01321231299198" lon="12.625851832365752"><ele>99.0</ele><time>2026-04-25T08:07:58Z</time></trkpt><trkpt lat="46.013220717293606" lon="12.625623362152401"><ele>99.0</ele><time>2026-04-25T08:07:59Z</time></trkpt><trkpt lat="46.01322905220917" lon="12.625415213746786"><ele>99.25</ele><time>2026-04-25T08:08:00Z</time></trkpt><trkpt lat="46.013234188321775" lon="12.625208570908834"><ele>99.5</ele><time>2026-04-25T08:08:01Z</time></trkpt><trkpt lat="46.01324264960194" lon="12.625001837971222"><ele>99.75</ele><time>2026-04-25T08:08:02Z</time></trkpt><trkpt lat="46.013247482762466" lon="12.624816005865437"><ele>100.0</ele><time>2026-04-25T08:08:03Z</time></trkpt><trkpt lat="46.01325099619407" lon="12.624637378695864"><ele>99.8</ele><time>2026-04-25T08:08:04Z</time></trkpt><trkpt lat="46.013255370101206" lon="12.624471713712028"><ele>99.6</ele><time>2026-04-25T08:08:05Z</time></trkpt><trkpt lat="46.013262104954585" lon="12.624320457873129"><ele>99.4</ele><time>2026-04-25T08:08:06Z</time></trkpt><trkpt lat="46.01326879082557" lon="12.62418253316796"><ele>99.2</ele><time>2026-04-25T08:08:07Z</time></trkpt><trkpt lat="46.01327469498691" lon="12.624061369060847"><ele>99.0</ele><time>2026-04-25T08:08:08Z</time></trkpt><trkpt lat="46.013284940493556" lon="12.623957775770972"><ele>99.0</ele><time>2026-04-25T08:08:09Z</time></trkpt><trkpt lat="46.0133088328522" lon="12.623797637207549"><ele>99.0</ele><time>2026-04-25T08:08:11Z</time></trkpt><trkpt lat="46.013329220808515" lon="12.623682811811834"><ele>99.0</ele><time>2026-04-25T08:08:13Z</time></trkpt><trkpt lat="46.01335194017903" lon="12.623577338434629"><ele>99.0</ele><time>2026-04-25T08:08:16Z</time></trkpt><trkpt lat="46.01340177585249" lon="12.623443359302525"><ele>99.0</ele><time>2026-04-25T08:08:19Z</time></trkpt><trkpt lat="46.01341550091171" lon="12.623335199899156"><ele>99.16666666666667</ele><time>2026-04-25T08:08:20Z</time></trkpt><trkpt lat="46.013396269344405" lon="12.62321590345111"><ele>99.33333333333334</ele><time>2026-04-25T08:08:21Z</time></trkpt><trkpt lat="46.013394766271794" lon="12.62304110108746"><ele>99.5</ele><time>2026-04-25T08:08:23Z</time></trkpt><trkpt lat="46.013409338966106" lon="12.622942325074284"><ele>99.66666666666667</ele><time>2026-04-25T08:08:24Z</time></trkpt><trkpt lat="46.01342499759157" lon="12.622848746400418"><ele>99.83333333333334</ele><time>2026-04-25T08:08:25Z</time></trkpt><trkpt lat="46.013439898186654" lon="12.622744113600533"><ele>100.0</ele><time>2026-04-25T08:08:26Z</time></trkpt><trkpt lat="46.013452799073704" lon="12.62263372911767"><ele>100.0</ele><time>2026-04-25T08:08:27Z</time></trkpt><trkpt lat="46.01346992889962" lon="12.622515242039146"><ele>100.0</ele><time>2026-04-25T08:08:28Z</time></trkpt><trkpt lat="46.01349062512953" lon="12.622389384143577"><ele>100.0</ele><time>2026-04-25T08:08:29Z</time></trkpt><trkpt lat="46.01351568369996" lon="12.62225545772661"><ele>100.0</ele><time>2026-04-25T08:08:30Z</time></trkpt><trkpt lat="46.01353784306932" lon="12.622111138414073"><ele>100.0</ele><time>2026-04-25T08:08:31Z</time></trkpt><trkpt lat="46.01356218640248" lon="12.62195511263008"><ele>100.0</ele><time>2026-04-25T08:08:32Z</time></trkpt><trkpt lat="46.01358837759549" lon="12.62179374787461"><ele>100.0</ele><time>2026-04-25T08:08:33Z</time></trkpt><trkpt lat="46.01361002854891" lon="12.621636299589428"><ele>100.0</ele><time>2026-04-25T08:08:34Z</time></trkpt><trkpt lat="46.01363351869959" lon="12.621485994720485"><ele>100.0</ele><time>2026-04-25T08:08:35Z</time></trkpt><trkpt lat="46.01365401289097" lon="12.621348085717024"><ele>100.0</ele><time>2026-04-25T08:08:36Z</time></trkpt><trkpt lat="46.01367136545189" lon="12.621227080988737"><ele>100.00000000000001</ele><time>2026-04-25T08:08:37Z</time></trkpt><trkpt lat="46.013685118989045" lon="12.621119454318464"><ele>100.0</ele><time>2026-04-25T08:08:38Z</time></trkpt><trkpt lat="46.013691701513736" lon="12.621024014356697"><ele>100.0</ele><time>2026-04-25T08:08:39Z</time></trkpt><trkpt lat="46.01368910114575" lon="12.62088982732625"><ele>100.0</ele><time>2026-04-25T08:08:41Z</time></trkpt><trkpt lat="46.013653700636006" lon="12.620769645497374"><ele>100.00000000000001</ele><time>2026-04-25T08:08:43Z</time></trkpt><trkpt lat="46.0135735774412" lon="12.62070197911546"><ele>100.0</ele><time>2026-04-25T08:08:44Z</time></trkpt><trkpt lat="46.013441343854794" lon="12.620605746044907"><ele>99.66666666666667</ele><time>2026-04-25T08:08:45Z</time></trkpt><trkpt lat="46.01327365210419" lon="12.620493468721726"><ele>99.33333333333334</ele><time>2026-04-25T08:08:46Z</time></trkpt><trkpt lat="46.013125927521365" lon="12.620376156439635"><ele>99.0</ele><time>2026-04-25T08:08:47Z</time></trkpt><trkpt lat="46.01300059863224" lon="12.620274398807469"><ele>99.0</ele><time>2026-04-25T08:08:48Z</time></trkpt><trkpt lat="46.01288868350302" lon="12.620187011461049"><ele>99.0</ele><time>2026-04-25T08:08:49Z</time></trkpt><trkpt lat="46.01278528345075" lon="12.62010512854578"><ele>99.0</ele><time>2026-04-25T08:08:50Z</time></trkpt><trkpt lat="46.01268928525905" lon="12.620028705831276"><ele>99.0</ele><time>2026-04-25T08:08:51Z</time></trkpt><trkpt lat="46.01259567710566" lon="12.619961866490627"><ele>99.0</ele><time>2026-04-25T08:08:52Z</time></trkpt><trkpt lat="46.01249941277027" lon="12.61990009094791"><ele>99.0</ele><time>2026-04-25T08:08:53Z</time></trkpt><trkpt lat="46.01240884283766" lon="12.619851264281998"><ele>99.0</ele><time>2026-04-25T08:08:54Z</time></trkpt><trkpt lat="46.01232294233852" lon="12.61981290767696"><ele>99.0</ele><time>2026-04-25T08:08:55Z</time></trkpt><trkpt lat="46.01223942412961" lon="12.619782946250915"><ele>99.0</ele><time>2026-04-25T08:08:56Z</time></trkpt><trkpt lat="46.01215122024698" lon="12.619759429821624"><ele>98.6</ele><time>2026-04-25T08:08:57Z</time></trkpt><trkpt lat="46.01205601107014" lon="12.61975014960086"><ele>98.2</ele><time>2026-04-25T08:08:58Z</time></trkpt><trkpt lat="46.011956662688306" lon="12.619750770712407"><ele>97.8</ele><time>2026-04-25T08:08:59Z</time></trkpt><trkpt lat="46.011857071804336" lon="12.619765162335815"><ele>97.39999999999999</ele><time>2026-04-25T08:09:00Z</time></trkpt><trkpt lat="46.011763542814094" lon="12.619795421423435"><ele>97.0</ele><time>2026-04-25T08:09:00.999Z</time></trkpt><trkpt lat="46.01167996443399" lon="12.619828642660801"><ele>97.00000000000001</ele><time>2026-04-25T08:09:01.999Z</time></trkpt><trkpt lat="46.01160099055954" lon="12.61986324068553"><ele>97.0</ele><time>2026-04-25T08:09:02.999Z</time></trkpt><trkpt lat="46.011526959627055" lon="12.619893425671975"><ele>97.0</ele><time>2026-04-25T08:09:03.999Z</time></trkpt><trkpt lat="46.011460828822415" lon="12.619923446080946"><ele>97.0</ele><time>2026-04-25T08:09:04.999Z</time></trkpt><trkpt lat="46.01133829034965" lon="12.61997569516859"><ele>97.00000000000001</ele><time>2026-04-25T08:09:06.999Z</time></trkpt><trkpt lat="46.011271539467316" lon="12.620009109708368"><ele>97.0</ele><time>2026-04-25T08:09:07.999Z</time></trkpt><trkpt lat="46.01121004102283" lon="12.620034567243568"><ele>97.00000000000001</ele><time>2026-04-25T08:09:08.999Z</time></trkpt><trkpt lat="46.01110867847484" lon="12.620062151414317"><ele>97.0</ele><time>2026-04-25T08:09:10.999Z</time></trkpt><trkpt lat="46.01100002944262" lon="12.620094781612025"><ele>97.0</ele><time>2026-04-25T08:09:12.999Z</time></trkpt><trkpt lat="46.01093739490981" lon="12.620111933889744"><ele>97.0</ele><time>2026-04-25T08:09:13.999Z</time></trkpt><trkpt lat="46.010868193666155" lon="12.620120337961772"><ele>97.00000000000001</ele><time>2026-04-25T08:09:14.999Z</time></trkpt><trkpt lat="46.01079753773952" lon="12.620124119007185"><ele>97.0</ele><time>2026-04-25T08:09:15.999Z</time></trkpt><trkpt lat="46.010734241363906" lon="12.62013071703624"><ele>96.83333333333334</ele><time>2026-04-25T08:09:16.999Z</time></trkpt><trkpt lat="46.01061474254018" lon="12.620126214367165"><ele>96.66666666666667</ele><time>2026-04-25T08:09:18.999Z</time></trkpt><trkpt lat="46.010525357726166" lon="12.620111388265691"><ele>96.5</ele><time>2026-04-25T08:09:20.999Z</time></trkpt><trkpt lat="46.010449890983836" lon="12.6200873197778"><ele>96.33333333333334</ele><time>2026-04-25T08:09:22.999Z</time></trkpt><trkpt lat="46.010379874875134" lon="12.620053135503577"><ele>96.16666666666667</ele><time>2026-04-25T08:09:24.999Z</time></trkpt><trkpt lat="46.010335641227435" lon="12.619983342260372"><ele>96.0</ele><time>2026-04-25T08:09:27.999Z</time></trkpt><trkpt lat="46.01035080333948" lon="12.61983692129674"><ele>96.0</ele><time>2026-04-25T08:09:28.999Z</time></trkpt><trkpt lat="46.01036473750769" lon="12.619695053890798"><ele>96.0</ele><time>2026-04-25T08:09:30.999Z</time></trkpt><trkpt lat="46.010361616502855" lon="12.619505675188359"><ele>96.0</ele><time>2026-04-25T08:09:32.999Z</time></trkpt><trkpt lat="46.01034963892982" lon="12.619392596539587"><ele>96.0</ele><time>2026-04-25T08:09:33.999Z</time></trkpt><trkpt lat="46.010347599680706" lon="12.619272492703004"><ele>96.0</ele><time>2026-04-25T08:09:34.999Z</time></trkpt><trkpt lat="46.010352944278644" lon="12.6191483040997"><ele>96.19999999999999</ele><time>2026-04-25T08:09:35.999Z</time></trkpt><trkpt lat="46.01036944198164" lon="12.619021118075624"><ele>96.39999999999999</ele><time>2026-04-25T08:09:36.999Z</time></trkpt><trkpt lat="46.01038955722134" lon="12.61889299906468"><ele>96.6</ele><time>2026-04-25T08:09:37.999Z</time></trkpt><trkpt lat="46.01041314640746" lon="12.618760543690925"><ele>96.8</ele><time>2026-04-25T08:09:38.999Z</time></trkpt><trkpt lat="46.01044134593744" lon="12.618624148651737"><ele>97.0</ele><time>2026-04-25T08:09:39.999Z</time></trkpt><trkpt lat="46.01047102018374" lon="12.61849329739749"><ele>97.0</ele><time>2026-04-25T08:09:40.999Z</time></trkpt><trkpt lat="46.01050113629033" lon="12.618369886922785"><ele>97.0</ele><time>2026-04-25T08:09:41.999Z</time></trkpt><trkpt lat="46.01053348550735" lon="12.618246494603092"><ele>97.0</ele><time>2026-04-25T08:09:42.999Z</time></trkpt><trkpt lat="46.01056724173834" lon="12.618122956030913"><ele>97.0</ele><time>2026-04-25T08:09:43.999Z</time></trkpt><trkpt lat="46.01060488391574" lon="12.617994693176533"><ele>97.0</ele><time>2026-04-25T08:09:44.999Z</time></trkpt><trkpt lat="46.010663287382506" lon="12.617866523362423"><ele>96.75</ele><time>2026-04-25T08:09:45.999Z</time></trkpt><trkpt lat="46.0106918928042" lon="12.617708746560416"><ele>96.5</ele><time>2026-04-25T08:09:46.999Z</time></trkpt><trkpt lat="46.010742531348455" lon="12.617552421649927"><ele>96.25</ele><time>2026-04-25T08:09:48Z</time></trkpt><trkpt lat="46.01080656624066" lon="12.617390361072593"><ele>96.0</ele><time>2026-04-25T08:09:49Z</time></trkpt><trkpt lat="46.010864284007866" lon="12.617216322367762"><ele>96.0</ele><time>2026-04-25T08:09:50Z</time></trkpt><trkpt lat="46.010921755401014" lon="12.617041004105781"><ele>96.0</ele><time>2026-04-25T08:09:51Z</time></trkpt><trkpt lat="46.01097634231787" lon="12.616878154880249"><ele>96.0</ele><time>2026-04-25T08:09:52Z</time></trkpt><trkpt lat="46.01102991826615" lon="12.616724146656688"><ele>96.0</ele><time>2026-04-25T08:09:53Z</time></trkpt><trkpt lat="46.01107669939642" lon="12.616570887492216"><ele>96.25</ele><time>2026-04-25T08:09:54Z</time></trkpt><trkpt lat="46.01112376171906" lon="12.61642127857378"><ele>96.5</ele><time>2026-04-25T08:09:55Z</time></trkpt><trkpt lat="46.0111733848077" lon="12.61627514844981"><ele>96.75</ele><time>2026-04-25T08:09:56Z</time></trkpt><trkpt lat="46.01122140414292" lon="12.616122281315464"><ele>97.0</ele><time>2026-04-25T08:09:57Z</time></trkpt><trkpt lat="46.01127003898837" lon="12.615963425121874"><ele>97.0</ele><time>2026-04-25T08:09:58Z</time></trkpt><trkpt lat="46.011322337651805" lon="12.61580554671365"><ele>97.0</ele><time>2026-04-25T08:09:59Z</time></trkpt><trkpt lat="46.01137360172107" lon="12.615642129750926"><ele>97.0</ele><time>2026-04-25T08:10:00Z</time></trkpt><trkpt lat="46.01142244535934" lon="12.61547979737888"><ele>97.0</ele><time>2026-04-25T08:10:01Z</time></trkpt><trkpt lat="46.01146802593203" lon="12.615322354920533"><ele>96.8</ele><time>2026-04-25T08:10:02Z</time></trkpt><trkpt lat="46.01150785246744" lon="12.615167842646045"><ele>96.6</ele><time>2026-04-25T08:10:03Z</time></trkpt><trkpt lat="46.01154242466317" lon="12.615033455431332"><ele>96.39999999999999</ele><time>2026-04-25T08:10:04Z</time></trkpt><trkpt lat="46.01157606695886" lon="12.614909382385928"><ele>96.19999999999999</ele><time>2026-04-25T08:10:05Z</time></trkpt><trkpt lat="46.01161155102324" lon="12.61479407246946"><ele>96.0</ele><time>2026-04-25T08:10:06Z</time></trkpt><trkpt lat="46.01164389099449" lon="12.614693671171802"><ele>96.16666666666667</ele><time>2026-04-25T08:10:07Z</time></trkpt><trkpt lat="46.011677899983155" lon="12.614604489538435"><ele>96.33333333333334</ele><time>2026-04-25T08:10:08Z</time></trkpt><trkpt lat="46.01171375813937" lon="12.614527484859886"><ele>96.5</ele><time>2026-04-25T08:10:09Z</time></trkpt><trkpt lat="46.01176463434205" lon="12.614363137382053"><ele>96.66666666666667</ele><time>2026-04-25T08:10:11Z</time></trkpt><trkpt lat="46.01179013381749" lon="12.614260510597358"><ele>96.83333333333334</ele><time>2026-04-25T08:10:12Z</time></trkpt><trkpt lat="46.0118155058708" lon="12.614153821089033"><ele>97.0</ele><time>2026-04-25T08:10:13Z</time></trkpt><trkpt lat="46.011833799781485" lon="12.614013492287784"><ele>97.0</ele><time>2026-04-25T08:10:14Z</time></trkpt><trkpt lat="46.01186764916559" lon="12.613867862025497"><ele>97.0</ele><time>2026-04-25T08:10:15Z</time></trkpt><trkpt lat="46.01190979691208" lon="12.613713416862005"><ele>97.0</ele><time>2026-04-25T08:10:16Z</time></trkpt><trkpt lat="46.01195903795552" lon="12.613545773698947"><ele>97.0</ele><time>2026-04-25T08:10:17Z</time></trkpt><trkpt lat="46.01201584335738" lon="12.613377274328405"><ele>97.0</ele><time>2026-04-25T08:10:18Z</time></trkpt><trkpt lat="46.01207835111197" lon="12.613206347819085"><ele>97.0</ele><time>2026-04-25T08:10:19Z</time></trkpt><trkpt lat="46.01214975221086" lon="12.613036201372168"><ele>97.0</ele><time>2026-04-25T08:10:20Z</time></trkpt><trkpt lat="46.01222679743582" lon="12.612874775220835"><ele>97.0</ele><time>2026-04-25T08:10:21Z</time></trkpt><trkpt lat="46.012309743467306" lon="12.612724446673786"><ele>97.0</ele><time>2026-04-25T08:10:22Z</time></trkpt><trkpt lat="46.01239950350649" lon="12.61258525986798"><ele>97.0</ele><time>2026-04-25T08:10:23Z</time></trkpt><trkpt lat="46.012491590232656" lon="12.61244980301208"><ele>97.0</ele><time>2026-04-25T08:10:24Z</time></trkpt><trkpt lat="46.01258183357621" lon="12.61231060464407"><ele>97.0</ele><time>2026-04-25T08:10:25Z</time></trkpt><trkpt lat="46.012671552834696" lon="12.612168941007072"><ele>97.25</ele><time>2026-04-25T08:10:26Z</time></trkpt><trkpt lat="46.01276593422479" lon="12.612028241528593"><ele>97.5</ele><time>2026-04-25T08:10:27Z</time></trkpt><trkpt lat="46.01285690901295" lon="12.611885505575271"><ele>97.75</ele><time>2026-04-25T08:10:28Z</time></trkpt><trkpt lat="46.012943934341266" lon="12.61174438619255"><ele>98.0</ele><time>2026-04-25T08:10:29Z</time></trkpt><trkpt lat="46.01302614056138" lon="12.611611544680068"><ele>98.0</ele><time>2026-04-25T08:10:30Z</time></trkpt><trkpt lat="46.01310636795119" lon="12.611481910260128"><ele>98.0</ele><time>2026-04-25T08:10:31Z</time></trkpt><trkpt lat="46.01318567241218" lon="12.611347225086915"><ele>98.0</ele><time>2026-04-25T08:10:32Z</time></trkpt><trkpt lat="46.01326748115823" lon="12.611208067053797"><ele>98.0</ele><time>2026-04-25T08:10:33Z</time></trkpt><trkpt lat="46.013352127808645" lon="12.611060405936467"><ele>98.25</ele><time>2026-04-25T08:10:34Z</time></trkpt><trkpt lat="46.013436724895804" lon="12.610914541894607"><ele>98.5</ele><time>2026-04-25T08:10:35Z</time></trkpt><trkpt lat="46.013517584963914" lon="12.61076564180043"><ele>98.75</ele><time>2026-04-25T08:10:36Z</time></trkpt><trkpt lat="46.013604405271415" lon="12.610611350091384"><ele>99.0</ele><time>2026-04-25T08:10:37Z</time></trkpt><trkpt lat="46.0136943888721" lon="12.610450356484652"><ele>99.0</ele><time>2026-04-25T08:10:38Z</time></trkpt><trkpt lat="46.01378335701523" lon="12.610288957440261"><ele>99.0</ele><time>2026-04-25T08:10:39Z</time></trkpt><trkpt lat="46.013866636914216" lon="12.610128123259011"><ele>99.0</ele><time>2026-04-25T08:10:40Z</time></trkpt><trkpt lat="46.01394677115307" lon="12.609974881667668"><ele>99.0</ele><time>2026-04-25T08:10:41Z</time></trkpt><trkpt lat="46.014021308316266" lon="12.609836894497873"><ele>99.0</ele><time>2026-04-25T08:10:42Z</time></trkpt><trkpt lat="46.01409025399812" lon="12.609698875522428"><ele>99.0</ele><time>2026-04-25T08:10:43Z</time></trkpt><trkpt lat="46.01415580397705" lon="12.609566340934103"><ele>99.0</ele><time>2026-04-25T08:10:44Z</time></trkpt><trkpt lat="46.014219268293445" lon="12.609440427957468"><ele>99.0</ele><time>2026-04-25T08:10:45Z</time></trkpt><trkpt lat="46.01428255514816" lon="12.609315501064492"><ele>99.0</ele><time>2026-04-25T08:10:46Z</time></trkpt><trkpt lat="46.014339614822745" lon="12.609189477711594"><ele>98.5</ele><time>2026-04-25T08:10:47Z</time></trkpt><trkpt lat="46.014384111595184" lon="12.609050348508857"><ele>98.0</ele><time>2026-04-25T08:10:48Z</time></trkpt><trkpt lat="46.01443830547005" lon="12.608916895273687"><ele>97.5</ele><time>2026-04-25T08:10:49Z</time></trkpt><trkpt lat="46.01449163582084" lon="12.608758214695689"><ele>97.0</ele><time>2026-04-25T08:10:50Z</time></trkpt><trkpt lat="46.0145432954854" lon="12.608591034010782"><ele>97.0</ele><time>2026-04-25T08:10:51Z</time></trkpt><trkpt lat="46.01459772761233" lon="12.608408900103498"><ele>97.0</ele><time>2026-04-25T08:10:52Z</time></trkpt><trkpt lat="46.014649587477315" lon="12.608224002390896"><ele>97.0</ele><time>2026-04-25T08:10:53Z</time></trkpt><trkpt lat="46.014699495204425" lon="12.608032680716077"><ele>97.0</ele><time>2026-04-25T08:10:54Z</time></trkpt><trkpt lat="46.014751689688964" lon="12.607843485919453"><ele>97.0</ele><time>2026-04-25T08:10:55Z</time></trkpt><trkpt lat="46.01480468674161" lon="12.607656145537623"><ele>97.0</ele><time>2026-04-25T08:10:56Z</time></trkpt><trkpt lat="46.01485690850177" lon="12.607469663327107"><ele>97.0</ele><time>2026-04-25T08:10:57Z</time></trkpt><trkpt lat="46.01490982266578" lon="12.607281686666834"><ele>97.0</ele><time>2026-04-25T08:10:57.999Z</time></trkpt><trkpt lat="46.014961255391285" lon="12.607090414396504"><ele>96.66666666666667</ele><time>2026-04-25T08:10:58.999Z</time></trkpt><trkpt lat="46.015013680396805" lon="12.606896683196364"><ele>96.33333333333334</ele><time>2026-04-25T08:10:59.999Z</time></trkpt><trkpt lat="46.015069938844185" lon="12.606693655576791"><ele>96.0</ele><time>2026-04-25T08:11:00.999Z</time></trkpt><trkpt lat="46.015128536444955" lon="12.60647922778269"><ele>96.0</ele><time>2026-04-25T08:11:01.999Z</time></trkpt><trkpt lat="46.01519034349637" lon="12.606255031045894"><ele>96.0</ele><time>2026-04-25T08:11:02.999Z</time></trkpt><trkpt lat="46.015254127162564" lon="12.606024211980287"><ele>96.0</ele><time>2026-04-25T08:11:03.999Z</time></trkpt><trkpt lat="46.015319066418684" lon="12.605792421058474"><ele>96.66666666666666</ele><time>2026-04-25T08:11:04.999Z</time></trkpt><trkpt lat="46.015382717545215" lon="12.605557151695493"><ele>97.33333333333333</ele><time>2026-04-25T08:11:05.999Z</time></trkpt><trkpt lat="46.015447943657264" lon="12.60532145940125"><ele>98.0</ele><time>2026-04-25T08:11:06.999Z</time></trkpt><trkpt lat="46.01551318225743" lon="12.605088529758973"><ele>98.0</ele><time>2026-04-25T08:11:07.999Z</time></trkpt><trkpt lat="46.01557787918357" lon="12.604859969404206"><ele>98.0</ele><time>2026-04-25T08:11:08.999Z</time></trkpt><trkpt lat="46.015642511136896" lon="12.60463705907684"><ele>98.0</ele><time>2026-04-25T08:11:09.999Z</time></trkpt><trkpt lat="46.01570460055352" lon="12.6044128007025"><ele>97.66666666666666</ele><time>2026-04-25T08:11:10.999Z</time></trkpt><trkpt lat="46.015766408982756" lon="12.604182676422315"><ele>97.33333333333334</ele><time>2026-04-25T08:11:11.999Z</time></trkpt><trkpt lat="46.01582720232719" lon="12.603951941947136"><ele>97.0</ele><time>2026-04-25T08:11:12.999Z</time></trkpt><trkpt lat="46.015884834733356" lon="12.603721416758741"><ele>97.33333333333334</ele><time>2026-04-25T08:11:13.999Z</time></trkpt><trkpt lat="46.01593949975601" lon="12.603496324997641"><ele>97.66666666666666</ele><time>2026-04-25T08:11:14.999Z</time></trkpt><trkpt lat="46.01598712303142" lon="12.603291897512248"><ele>98.0</ele><time>2026-04-25T08:11:15.999Z</time></trkpt><trkpt lat="46.01603332171673" lon="12.60309982881715"><ele>98.0</ele><time>2026-04-25T08:11:16.999Z</time></trkpt><trkpt lat="46.016077891497936" lon="12.602931555498428"><ele>98.0</ele><time>2026-04-25T08:11:17.999Z</time></trkpt><trkpt lat="46.01611806061623" lon="12.602787054087182"><ele>98.0</ele><time>2026-04-25T08:11:18.999Z</time></trkpt><trkpt lat="46.01614977294222" lon="12.60267121354268"><ele>98.0</ele><time>2026-04-25T08:11:19.999Z</time></trkpt><trkpt lat="46.01618223537884" lon="12.602569875930241"><ele>98.0</ele><time>2026-04-25T08:11:20.999Z</time></trkpt><trkpt lat="46.016220459144094" lon="12.602483235586668"><ele>97.99999999999999</ele><time>2026-04-25T08:11:21.999Z</time></trkpt><trkpt lat="46.01626551363333" lon="12.602419177519668"><ele>98.0</ele><time>2026-04-25T08:11:22.999Z</time></trkpt><trkpt lat="46.01634163263026" lon="12.602344566186678"><ele>98.0</ele><time>2026-04-25T08:11:24.999Z</time></trkpt><trkpt lat="46.01640616567203" lon="12.602299218244465"><ele>98.0</ele><time>2026-04-25T08:11:32.999Z</time></trkpt><trkpt lat="46.01647317016317" lon="12.602209930892677"><ele>97.99999999999999</ele><time>2026-04-25T08:11:36.999Z</time></trkpt><trkpt lat="46.01648793794298" lon="12.602024842893908"><ele>98.0</ele><time>2026-04-25T08:11:38.999Z</time></trkpt><trkpt lat="46.01646036602471" lon="12.601926416283678"><ele>97.60000000000001</ele><time>2026-04-25T08:11:39.999Z</time></trkpt><trkpt lat="46.016427547242195" lon="12.601809259760586"><ele>97.2</ele><time>2026-04-25T08:11:40.999Z</time></trkpt><trkpt lat="46.016378699180734" lon="12.601684455963932"><ele>96.8</ele><time>2026-04-25T08:11:41.999Z</time></trkpt><trkpt lat="46.016339085552985" lon="12.601540354065008"><ele>96.4</ele><time>2026-04-25T08:11:42.999Z</time></trkpt><trkpt lat="46.01629055902464" lon="12.60137875143593"><ele>96.0</ele><time>2026-04-25T08:11:43.999Z</time></trkpt><trkpt lat="46.01624007112701" lon="12.601197509956291"><ele>95.75</ele><time>2026-04-25T08:11:44.999Z</time></trkpt><trkpt lat="46.016188457573996" lon="12.60100453020396"><ele>95.5</ele><time>2026-04-25T08:11:45.999Z</time></trkpt><trkpt lat="46.01613198122881" lon="12.600811165105355"><ele>95.25</ele><time>2026-04-25T08:11:46.999Z</time></trkpt><trkpt lat="46.0160796843899" lon="12.600620261852033"><ele>95.0</ele><time>2026-04-25T08:11:47.999Z</time></trkpt><trkpt lat="46.01602023470465" lon="12.600432427180596"><ele>95.0</ele><time>2026-04-25T08:11:48.999Z</time></trkpt><trkpt lat="46.01594305340853" lon="12.600248040534778"><ele>95.0</ele><time>2026-04-25T08:11:49.999Z</time></trkpt><trkpt lat="46.01585673007295" lon="12.600055505484717"><ele>95.0</ele><time>2026-04-25T08:11:50.999Z</time></trkpt><trkpt lat="46.01576247943411" lon="12.599837697084553"><ele>94.66666666666667</ele><time>2026-04-25T08:11:51.999Z</time></trkpt><trkpt lat="46.01565890451489" lon="12.599600041580945"><ele>94.33333333333333</ele><time>2026-04-25T08:11:52.999Z</time></trkpt><trkpt lat="46.01554921437948" lon="12.599350208237968"><ele>94.0</ele><time>2026-04-25T08:11:54Z</time></trkpt><trkpt lat="46.01544609660279" lon="12.59911139216238"><ele>94.0</ele><time>2026-04-25T08:11:55Z</time></trkpt><trkpt lat="46.01534600787726" lon="12.598875394453138"><ele>94.0</ele><time>2026-04-25T08:11:56Z</time></trkpt><trkpt lat="46.01524350637655" lon="12.598644275953479"><ele>94.0</ele><time>2026-04-25T08:11:57Z</time></trkpt><trkpt lat="46.01514280540548" lon="12.598413545457309"><ele>94.0</ele><time>2026-04-25T08:11:58Z</time></trkpt><trkpt lat="46.01504190172652" lon="12.598182481885589"><ele>94.0</ele><time>2026-04-25T08:11:59Z</time></trkpt><trkpt lat="46.014936456834725" lon="12.597943114367348"><ele>94.0</ele><time>2026-04-25T08:12:00Z</time></trkpt><trkpt lat="46.01482930046739" lon="12.597702062504917"><ele>93.66666666666666</ele><time>2026-04-25T08:12:01Z</time></trkpt><trkpt lat="46.01472600706472" lon="12.597465619999928"><ele>93.33333333333333</ele><time>2026-04-25T08:12:02Z</time></trkpt><trkpt lat="46.01462542804884" lon="12.597234253804517"><ele>93.0</ele><time>2026-04-25T08:12:03Z</time></trkpt><trkpt lat="46.01452770281635" lon="12.59701014268062"><ele>92.66666666666667</ele><time>2026-04-25T08:12:04Z</time></trkpt><trkpt lat="46.014432272119016" lon="12.596790521993906"><ele>92.33333333333334</ele><time>2026-04-25T08:12:05Z</time></trkpt><trkpt lat="46.01433766107643" lon="12.596573447106522"><ele>92.0</ele><time>2026-04-25T08:12:06Z</time></trkpt><trkpt lat="46.014243192322326" lon="12.596353798265367"><ele>92.33333333333334</ele><time>2026-04-25T08:12:07Z</time></trkpt><trkpt lat="46.01414787534419" lon="12.596136725428766"><ele>92.66666666666667</ele><time>2026-04-25T08:12:08Z</time></trkpt><trkpt lat="46.01405224940858" lon="12.595917019709407"><ele>93.0</ele><time>2026-04-25T08:12:09Z</time></trkpt><trkpt lat="46.01395788142613" lon="12.59570015753273"><ele>93.0</ele><time>2026-04-25T08:12:10Z</time></trkpt><trkpt lat="46.013863163177604" lon="12.595483367517044"><ele>93.0</ele><time>2026-04-25T08:12:11Z</time></trkpt><trkpt lat="46.0137673282294" lon="12.595265620711748"><ele>93.0</ele><time>2026-04-25T08:12:12Z</time></trkpt><trkpt lat="46.01367201452096" lon="12.595047466725289"><ele>93.0</ele><time>2026-04-25T08:12:13Z</time></trkpt><trkpt lat="46.01357646706387" lon="12.59482620333979"><ele>93.0</ele><time>2026-04-25T08:12:14Z</time></trkpt><trkpt lat="46.01348086065217" lon="12.594604668952142"><ele>93.0</ele><time>2026-04-25T08:12:15Z</time></trkpt><trkpt lat="46.01338598948599" lon="12.594382500415348"><ele>92.33333333333333</ele><time>2026-04-25T08:12:16Z</time></trkpt><trkpt lat="46.013290726333615" lon="12.594165867497852"><ele>91.66666666666666</ele><time>2026-04-25T08:12:17Z</time></trkpt><trkpt lat="46.013198239502366" lon="12.59395260381439"><ele>91.0</ele><time>2026-04-25T08:12:18Z</time></trkpt><trkpt lat="46.01311053556782" lon="12.593748226071394"><ele>90.75</ele><time>2026-04-25T08:12:19Z</time></trkpt><trkpt lat="46.013028174563594" lon="12.593558359956063"><ele>90.5</ele><time>2026-04-25T08:12:20Z</time></trkpt><trkpt lat="46.01295172906104" lon="12.593379650928345"><ele>90.25</ele><time>2026-04-25T08:12:21Z</time></trkpt><trkpt lat="46.01288196225396" lon="12.593210463049148"><ele>90.0</ele><time>2026-04-25T08:12:22Z</time></trkpt><trkpt lat="46.01282003366883" lon="12.593050186859399"><ele>90.0</ele><time>2026-04-25T08:12:23Z</time></trkpt><trkpt lat="46.012770974392375" lon="12.592899301737209"><ele>90.0</ele><time>2026-04-25T08:12:24Z</time></trkpt><trkpt lat="46.012734199592195" lon="12.592756877520724"><ele>90.0</ele><time>2026-04-25T08:12:25Z</time></trkpt><trkpt lat="46.012710493158984" lon="12.592617914328487"><ele>90.0</ele><time>2026-04-25T08:12:26Z</time></trkpt><trkpt lat="46.0127086524044" lon="12.592485207525494"><ele>90.0</ele><time>2026-04-25T08:12:27Z</time></trkpt><trkpt lat="46.01272702895447" lon="12.592361229708079"><ele>90.2</ele><time>2026-04-25T08:12:28Z</time></trkpt><trkpt lat="46.01275090089067" lon="12.592243756146184"><ele>90.4</ele><time>2026-04-25T08:12:29Z</time></trkpt><trkpt lat="46.01275902953694" lon="12.592124684261794"><ele>90.6</ele><time>2026-04-25T08:12:30Z</time></trkpt><trkpt lat="46.012743068755164" lon="12.592001285772762"><ele>90.8</ele><time>2026-04-25T08:12:31Z</time></trkpt><trkpt lat="46.01270953018383" lon="12.591879226260891"><ele>91.0</ele><time>2026-04-25T08:12:32Z</time></trkpt><trkpt lat="46.01261117711414" lon="12.59180365602974"><ele>90.5</ele><time>2026-04-25T08:12:33Z</time></trkpt><trkpt lat="46.01249751423194" lon="12.59180046450179"><ele>90.0</ele><time>2026-04-25T08:12:34Z</time></trkpt><trkpt lat="46.01238094866904" lon="12.591812070204453"><ele>89.5</ele><time>2026-04-25T08:12:35Z</time></trkpt><trkpt lat="46.01227790100091" lon="12.591792257265766"><ele>89.0</ele><time>2026-04-25T08:12:36Z</time></trkpt><trkpt lat="46.012175547821876" lon="12.591716385332086"><ele>88.5</ele><time>2026-04-25T08:12:37Z</time></trkpt><trkpt lat="46.012084729553216" lon="12.59160062355548"><ele>88.0</ele><time>2026-04-25T08:12:38Z</time></trkpt><trkpt lat="46.0120051167926" lon="12.591438174990245"><ele>87.5</ele><time>2026-04-25T08:12:39Z</time></trkpt><trkpt lat="46.01190514510066" lon="12.591281825751247"><ele>87.0</ele><time>2026-04-25T08:12:40Z</time></trkpt><trkpt lat="46.01180042685953" lon="12.59112153146455"><ele>87.0</ele><time>2026-04-25T08:12:41Z</time></trkpt><trkpt lat="46.01168109506457" lon="12.590968452360038"><ele>87.0</ele><time>2026-04-25T08:12:42Z</time></trkpt><trkpt lat="46.011568668798645" lon="12.590797317503911"><ele>87.0</ele><time>2026-04-25T08:12:43Z</time></trkpt><trkpt lat="46.01145546313533" lon="12.590619507839028"><ele>86.66666666666667</ele><time>2026-04-25T08:12:44Z</time></trkpt><trkpt lat="46.011340137263865" lon="12.59043869764897"><ele>86.33333333333334</ele><time>2026-04-25T08:12:45Z</time></trkpt><trkpt lat="46.0112227408062" lon="12.590256325849293"><ele>86.0</ele><time>2026-04-25T08:12:46Z</time></trkpt><trkpt lat="46.01110750298537" lon="12.590075768711023"><ele>86.33333333333334</ele><time>2026-04-25T08:12:47Z</time></trkpt><trkpt lat="46.01099328899977" lon="12.589898900466862"><ele>86.66666666666667</ele><time>2026-04-25T08:12:48Z</time></trkpt><trkpt lat="46.010882303463475" lon="12.589728093697495"><ele>87.0</ele><time>2026-04-25T08:12:49Z</time></trkpt><trkpt lat="46.0107781828772" lon="12.589566943954626"><ele>86.75</ele><time>2026-04-25T08:12:50Z</time></trkpt><trkpt lat="46.01068038931396" lon="12.589412801558984"><ele>86.5</ele><time>2026-04-25T08:12:51Z</time></trkpt><trkpt lat="46.01058575249454" lon="12.589264717022221"><ele>86.25</ele><time>2026-04-25T08:12:52Z</time></trkpt><trkpt lat="46.010493157766696" lon="12.589121232443128"><ele>86.0</ele><time>2026-04-25T08:12:53Z</time></trkpt><trkpt lat="46.01039838032842" lon="12.588975337480779"><ele>86.0</ele><time>2026-04-25T08:12:54Z</time></trkpt><trkpt lat="46.0102993980069" lon="12.588824201975854"><ele>86.0</ele><time>2026-04-25T08:12:55Z</time></trkpt><trkpt lat="46.01019945202127" lon="12.588666754510568"><ele>86.0</ele><time>2026-04-25T08:12:56Z</time></trkpt><trkpt lat="46.010096370146705" lon="12.588504310285352"><ele>86.0</ele><time>2026-04-25T08:12:57Z</time></trkpt><trkpt lat="46.00999108131174" lon="12.588329039756488"><ele>86.0</ele><time>2026-04-25T08:12:58Z</time></trkpt><trkpt lat="46.009886939778" lon="12.588145857302006"><ele>86.0</ele><time>2026-04-25T08:12:59Z</time></trkpt><trkpt lat="46.00978456304676" lon="12.587956696243026"><ele>86.0</ele><time>2026-04-25T08:13:00Z</time></trkpt><trkpt lat="46.0096811166718" lon="12.587764125422952"><ele>85.0</ele><time>2026-04-25T08:13:01Z</time></trkpt><trkpt lat="46.00957428359578" lon="12.587565806360516"><ele>84.0</ele><time>2026-04-25T08:13:01.999Z</time></trkpt><trkpt lat="46.00946741538718" lon="12.587363597504805"><ele>83.0</ele><time>2026-04-25T08:13:02.999Z</time></trkpt><trkpt lat="46.009361810166745" lon="12.587162318523927"><ele>82.66666666666667</ele><time>2026-04-25T08:13:03.999Z</time></trkpt><trkpt lat="46.00925762516948" lon="12.586964156664203"><ele>82.33333333333333</ele><time>2026-04-25T08:13:04.999Z</time></trkpt><trkpt lat="46.00915325307784" lon="12.586765156626026"><ele>82.0</ele><time>2026-04-25T08:13:05.999Z</time></trkpt><trkpt lat="46.00904297049665" lon="12.586559159141643"><ele>82.0</ele><time>2026-04-25T08:13:06.999Z</time></trkpt><trkpt lat="46.00892734717651" lon="12.586342378857166"><ele>82.0</ele><time>2026-04-25T08:13:07.999Z</time></trkpt><trkpt lat="46.00880331631251" lon="12.586113503905061"><ele>82.0</ele><time>2026-04-25T08:13:08.999Z</time></trkpt><trkpt lat="46.00867594859667" lon="12.585875856291272"><ele>81.66666666666666</ele><time>2026-04-25T08:13:09.999Z</time></trkpt><trkpt lat="46.00854731570184" lon="12.585631876680706"><ele>81.33333333333333</ele><time>2026-04-25T08:13:10.999Z</time></trkpt><trkpt lat="46.008420441142064" lon="12.585393731834866"><ele>81.0</ele><time>2026-04-25T08:13:11.999Z</time></trkpt><trkpt lat="46.00829489352379" lon="12.585159318661319"><ele>80.66666666666667</ele><time>2026-04-25T08:13:12.999Z</time></trkpt><trkpt lat="46.0081734670003" lon="12.584933984932954"><ele>80.33333333333334</ele><time>2026-04-25T08:13:13.999Z</time></trkpt><trkpt lat="46.00806393570925" lon="12.584726503220784"><ele>80.0</ele><time>2026-04-25T08:13:14.999Z</time></trkpt><trkpt lat="46.00795590143" lon="12.584521894893893"><ele>80.0</ele><time>2026-04-25T08:13:15.999Z</time></trkpt><trkpt lat="46.00784910681215" lon="12.58432027897699"><ele>80.0</ele><time>2026-04-25T08:13:16.999Z</time></trkpt><trkpt lat="46.00774460485466" lon="12.584125453936826"><ele>80.0</ele><time>2026-04-25T08:13:17.999Z</time></trkpt><trkpt lat="46.007642318875746" lon="12.583933792805524"><ele>80.0</ele><time>2026-04-25T08:13:18.999Z</time></trkpt><trkpt lat="46.007541523408136" lon="12.583743287376574"><ele>80.0</ele><time>2026-04-25T08:13:19.999Z</time></trkpt><trkpt lat="46.00743648261532" lon="12.583546054806373"><ele>80.0</ele><time>2026-04-25T08:13:20.999Z</time></trkpt><trkpt lat="46.00732720500609" lon="12.583342533302163"><ele>80.0</ele><time>2026-04-25T08:13:21.999Z</time></trkpt><trkpt lat="46.00721574102663" lon="12.58313315529297"><ele>80.0</ele><time>2026-04-25T08:13:22.999Z</time></trkpt><trkpt lat="46.00710043247377" lon="12.582917504451142"><ele>80.0</ele><time>2026-04-25T08:13:23.999Z</time></trkpt><trkpt lat="46.00698269642538" lon="12.582698398082265"><ele>79.33333333333334</ele><time>2026-04-25T08:13:24.999Z</time></trkpt><trkpt lat="46.0068644058178" lon="12.582476853477692"><ele>78.66666666666667</ele><time>2026-04-25T08:13:25.999Z</time></trkpt><trkpt lat="46.00674750089612" lon="12.582253528827541"><ele>78.0</ele><time>2026-04-25T08:13:26.999Z</time></trkpt><trkpt lat="46.00662823851388" lon="12.582028176499215"><ele>77.33333333333333</ele><time>2026-04-25T08:13:27.999Z</time></trkpt><trkpt lat="46.00650991446103" lon="12.581802364000707"><ele>76.66666666666666</ele><time>2026-04-25T08:13:28.999Z</time></trkpt><trkpt lat="46.00639280205244" lon="12.581579344297804"><ele>76.0</ele><time>2026-04-25T08:13:29.999Z</time></trkpt><trkpt lat="46.00627525551169" lon="12.581360467376673"><ele>76.0</ele><time>2026-04-25T08:13:30.999Z</time></trkpt><trkpt lat="46.006157351074414" lon="12.581143938951966"><ele>76.0</ele><time>2026-04-25T08:13:31.999Z</time></trkpt><trkpt lat="46.00604123681155" lon="12.580931539196634"><ele>76.0</ele><time>2026-04-25T08:13:32.999Z</time></trkpt><trkpt lat="46.00592888282438" lon="12.58072269727202"><ele>76.33333333333333</ele><time>2026-04-25T08:13:33.999Z</time></trkpt><trkpt lat="46.00581919321107" lon="12.580517812735625"><ele>76.66666666666667</ele><time>2026-04-25T08:13:34.999Z</time></trkpt><trkpt lat="46.00571128127368" lon="12.580316421203692"><ele>77.0</ele><time>2026-04-25T08:13:35.999Z</time></trkpt><trkpt lat="46.005602016097754" lon="12.580114900269448"><ele>77.0</ele><time>2026-04-25T08:13:36.999Z</time></trkpt><trkpt lat="46.005492250090015" lon="12.579909664841812"><ele>77.0</ele><time>2026-04-25T08:13:37.999Z</time></trkpt><trkpt lat="46.00538085453177" lon="12.579699060752654"><ele>77.0</ele><time>2026-04-25T08:13:38.999Z</time></trkpt><trkpt lat="46.005269309729634" lon="12.579488872892073"><ele>76.33333333333334</ele><time>2026-04-25T08:13:39.999Z</time></trkpt><trkpt lat="46.00516692616002" lon="12.579297608291354"><ele>75.66666666666667</ele><time>2026-04-25T08:13:40.999Z</time></trkpt><trkpt lat="46.005073677676066" lon="12.579121747138146"><ele>75.0</ele><time>2026-04-25T08:13:41.999Z</time></trkpt><trkpt lat="46.004988581131926" lon="12.57895904746146"><ele>74.75</ele><time>2026-04-25T08:13:42.999Z</time></trkpt><trkpt lat="46.00490904336631" lon="12.578806933951961"><ele>74.5</ele><time>2026-04-25T08:13:43.999Z</time></trkpt><trkpt lat="46.00483231481115" lon="12.578663163194356"><ele>74.25</ele><time>2026-04-25T08:13:44.999Z</time></trkpt><trkpt lat="46.00475612750221" lon="12.578522455759678"><ele>74.0</ele><time>2026-04-25T08:13:45.999Z</time></trkpt><trkpt lat="46.004678593201184" lon="12.578380719244864"><ele>73.75</ele><time>2026-04-25T08:13:46.999Z</time></trkpt><trkpt lat="46.0046022896094" lon="12.578240014008484"><ele>73.5</ele><time>2026-04-25T08:13:47.999Z</time></trkpt><trkpt lat="46.00452979009555" lon="12.578105030202375"><ele>73.25</ele><time>2026-04-25T08:13:48.999Z</time></trkpt><trkpt lat="46.004461591837426" lon="12.577978078221795"><ele>73.0</ele><time>2026-04-25T08:13:49.999Z</time></trkpt><trkpt lat="46.00439819780769" lon="12.577859214397378"><ele>73.0</ele><time>2026-04-25T08:13:50.999Z</time></trkpt><trkpt lat="46.00434071397519" lon="12.577749231363896"><ele>73.0</ele><time>2026-04-25T08:13:51.999Z</time></trkpt><trkpt lat="46.004286658214" lon="12.577645976117509"><ele>73.0</ele><time>2026-04-25T08:13:52.999Z</time></trkpt><trkpt lat="46.00423642471048" lon="12.577549432715143"><ele>73.0</ele><time>2026-04-25T08:13:53.999Z</time></trkpt><trkpt lat="46.004191186563894" lon="12.577463218871788"><ele>73.0</ele><time>2026-04-25T08:13:54.999Z</time></trkpt><trkpt lat="46.004150021886105" lon="12.577385238310901"><ele>73.0</ele><time>2026-04-25T08:13:55.999Z</time></trkpt><trkpt lat="46.00408203583857" lon="12.577255535922903"><ele>72.83333333333333</ele><time>2026-04-25T08:13:57.999Z</time></trkpt><trkpt lat="46.00404295040624" lon="12.577177097307533"><ele>72.66666666666666</ele><time>2026-04-25T08:14:00Z</time></trkpt><trkpt lat="46.00400207182335" lon="12.577104127644912"><ele>72.5</ele><time>2026-04-25T08:14:06Z</time></trkpt><trkpt lat="46.00394900986115" lon="12.576995621574431"><ele>72.33333333333333</ele><time>2026-04-25T08:14:10Z</time></trkpt><trkpt lat="46.003909937994905" lon="12.576919346067134"><ele>72.16666666666667</ele><time>2026-04-25T08:14:11Z</time></trkpt><trkpt lat="46.00386100123573" lon="12.576820724287149"><ele>72.0</ele><time>2026-04-25T08:14:12Z</time></trkpt><trkpt lat="46.00380721684466" lon="12.57670524133406"><ele>72.0</ele><time>2026-04-25T08:14:13Z</time></trkpt><trkpt lat="46.00375423500853" lon="12.576587319089784"><ele>72.0</ele><time>2026-04-25T08:14:14Z</time></trkpt><trkpt lat="46.003710612228595" lon="12.576453028812425"><ele>72.0</ele><time>2026-04-25T08:14:15Z</time></trkpt><trkpt lat="46.00367849250082" lon="12.576303113288084"><ele>72.0</ele><time>2026-04-25T08:14:16Z</time></trkpt><trkpt lat="46.0036513108361" lon="12.576140143756378"><ele>72.0</ele><time>2026-04-25T08:14:17Z</time></trkpt><trkpt lat="46.00362756347071" lon="12.575967409741391"><ele>72.0</ele><time>2026-04-25T08:14:18Z</time></trkpt><trkpt lat="46.003605261844555" lon="12.575784939716817"><ele>72.0</ele><time>2026-04-25T08:14:19Z</time></trkpt><trkpt lat="46.003587962034075" lon="12.575594247599863"><ele>72.0</ele><time>2026-04-25T08:14:20Z</time></trkpt><trkpt lat="46.00356947085254" lon="12.575395538287161"><ele>72.0</ele><time>2026-04-25T08:14:21Z</time></trkpt><trkpt lat="46.00354980084743" lon="12.575197801781306"><ele>71.75</ele><time>2026-04-25T08:14:22Z</time></trkpt><trkpt lat="46.00352531747937" lon="12.575003893469727"><ele>71.5</ele><time>2026-04-25T08:14:23Z</time></trkpt><trkpt lat="46.00349471235293" lon="12.574817619461744"><ele>71.25</ele><time>2026-04-25T08:14:24Z</time></trkpt><trkpt lat="46.003462991885606" lon="12.574641834730997"><ele>71.0</ele><time>2026-04-25T08:14:25Z</time></trkpt><trkpt lat="46.00342651295236" lon="12.574472542069506"><ele>70.75</ele><time>2026-04-25T08:14:26Z</time></trkpt><trkpt lat="46.00338384660757" lon="12.574308381631713"><ele>70.5</ele><time>2026-04-25T08:14:27Z</time></trkpt><trkpt lat="46.00333534123776" lon="12.574142141380083"><ele>70.25</ele><time>2026-04-25T08:14:28Z</time></trkpt><trkpt lat="46.00328145216162" lon="12.573973715858438"><ele>70.0</ele><time>2026-04-25T08:14:29Z</time></trkpt><trkpt lat="46.00322361283591" lon="12.573806375610152"><ele>69.25</ele><time>2026-04-25T08:14:30Z</time></trkpt><trkpt lat="46.00316277171071" lon="12.573636466107239"><ele>68.5</ele><time>2026-04-25T08:14:31Z</time></trkpt><trkpt lat="46.00310214518875" lon="12.573461819706456"><ele>67.75</ele><time>2026-04-25T08:14:32Z</time></trkpt><trkpt lat="46.003038778345704" lon="12.573281750570477"><ele>67.0</ele><time>2026-04-25T08:14:33Z</time></trkpt><trkpt lat="46.00297187491774" lon="12.573096044180392"><ele>67.0</ele><time>2026-04-25T08:14:34Z</time></trkpt><trkpt lat="46.002903557614296" lon="12.572903840919938"><ele>67.0</ele><time>2026-04-25T08:14:35Z</time></trkpt><trkpt lat="46.00282867603392" lon="12.572698521004394"><ele>67.0</ele><time>2026-04-25T08:14:36Z</time></trkpt><trkpt lat="46.00274933909353" lon="12.572482653368006"><ele>67.66666666666666</ele><time>2026-04-25T08:14:37Z</time></trkpt><trkpt lat="46.00267140652384" lon="12.572255803797843"><ele>68.33333333333333</ele><time>2026-04-25T08:14:38Z</time></trkpt><trkpt lat="46.00258816385491" lon="12.572024625506174"><ele>69.0</ele><time>2026-04-25T08:14:39Z</time></trkpt><trkpt lat="46.002501767503944" lon="12.57178360386896"><ele>68.33333333333333</ele><time>2026-04-25T08:14:40Z</time></trkpt><trkpt lat="46.00241133412101" lon="12.571534657842552"><ele>67.66666666666666</ele><time>2026-04-25T08:14:41Z</time></trkpt><trkpt lat="46.00232079702259" lon="12.571283204887612"><ele>67.0</ele><time>2026-04-25T08:14:42Z</time></trkpt><trkpt lat="46.002231645878105" lon="12.571032464516573"><ele>67.0</ele><time>2026-04-25T08:14:43Z</time></trkpt><trkpt lat="46.00214092642851" lon="12.570783777650457"><ele>67.0</ele><time>2026-04-25T08:14:44Z</time></trkpt><trkpt lat="46.002049114688674" lon="12.570537068021585"><ele>67.0</ele><time>2026-04-25T08:14:45Z</time></trkpt><trkpt lat="46.00195433697076" lon="12.570293809055164"><ele>67.0</ele><time>2026-04-25T08:14:46Z</time></trkpt><trkpt lat="46.00187700763358" lon="12.570035863417765"><ele>67.0</ele><time>2026-04-25T08:14:47Z</time></trkpt><trkpt lat="46.00178764197868" lon="12.569786951124302"><ele>67.0</ele><time>2026-04-25T08:14:48Z</time></trkpt><trkpt lat="46.00169750814601" lon="12.569537710591023"><ele>66.66666666666666</ele><time>2026-04-25T08:14:49Z</time></trkpt><trkpt lat="46.00159288726794" lon="12.569299370013177"><ele>66.33333333333333</ele><time>2026-04-25T08:14:50Z</time></trkpt><trkpt lat="46.00150437870888" lon="12.569054860974747"><ele>66.0</ele><time>2026-04-25T08:14:51Z</time></trkpt><trkpt lat="46.00140854170847" lon="12.568806835583858"><ele>65.66666666666667</ele><time>2026-04-25T08:14:52Z</time></trkpt><trkpt lat="46.001309285924286" lon="12.568564979437962"><ele>65.33333333333334</ele><time>2026-04-25T08:14:53Z</time></trkpt><trkpt lat="46.001204217966134" lon="12.568329719930102"><ele>65.0</ele><time>2026-04-25T08:14:54Z</time></trkpt><trkpt lat="46.00109509715342" lon="12.5680894965755"><ele>65.0</ele><time>2026-04-25T08:14:55Z</time></trkpt><trkpt lat="46.0009857725298" lon="12.567838335183206"><ele>65.0</ele><time>2026-04-25T08:14:56Z</time></trkpt><trkpt lat="46.000871555525876" lon="12.567583069031091"><ele>65.0</ele><time>2026-04-25T08:14:57Z</time></trkpt><trkpt lat="46.000756335101585" lon="12.567330602161242"><ele>65.0</ele><time>2026-04-25T08:14:58Z</time></trkpt><trkpt lat="46.00064292942598" lon="12.567079857283117"><ele>65.0</ele><time>2026-04-25T08:14:59Z</time></trkpt><trkpt lat="46.00053289247864" lon="12.566835430631757"><ele>65.0</ele><time>2026-04-25T08:15:00Z</time></trkpt><trkpt lat="46.000426561046936" lon="12.56660276229587"><ele>65.0</ele><time>2026-04-25T08:15:01Z</time></trkpt><trkpt lat="46.000318556278565" lon="12.566378698962815"><ele>65.0</ele><time>2026-04-25T08:15:02Z</time></trkpt><trkpt lat="46.00020596175242" lon="12.566165413044253"><ele>65.0</ele><time>2026-04-25T08:15:02.999Z</time></trkpt><trkpt lat="46.00008436308841" lon="12.565963838327212"><ele>64.33333333333334</ele><time>2026-04-25T08:15:03.999Z</time></trkpt><trkpt lat="45.999956125818244" lon="12.565767213972507"><ele>63.66666666666667</ele><time>2026-04-25T08:15:04.999Z</time></trkpt><trkpt lat="45.99982314103314" lon="12.565574160559391"><ele>63.0</ele><time>2026-04-25T08:15:05.999Z</time></trkpt><trkpt lat="45.99968713220783" lon="12.56537622788977"><ele>62.66666666666667</ele><time>2026-04-25T08:15:06.999Z</time></trkpt><trkpt lat="45.99955308942423" lon="12.56518086873825"><ele>62.333333333333336</ele><time>2026-04-25T08:15:07.999Z</time></trkpt><trkpt lat="45.999415588429734" lon="12.564987543084213"><ele>62.0</ele><time>2026-04-25T08:15:08.999Z</time></trkpt><trkpt lat="45.99928052339949" lon="12.56479278267871"><ele>62.0</ele><time>2026-04-25T08:15:09.999Z</time></trkpt><trkpt lat="45.999144860330915" lon="12.56459917407337"><ele>62.0</ele><time>2026-04-25T08:15:10.999Z</time></trkpt><trkpt lat="45.99900897262873" lon="12.564403906188991"><ele>62.0</ele><time>2026-04-25T08:15:11.999Z</time></trkpt><trkpt lat="45.99887179387375" lon="12.564205788212167"><ele>61.66666666666667</ele><time>2026-04-25T08:15:12.999Z</time></trkpt><trkpt lat="45.99873374134739" lon="12.564006413500792"><ele>61.33333333333333</ele><time>2026-04-25T08:15:13.999Z</time></trkpt><trkpt lat="45.99859292299311" lon="12.563804443276204"><ele>61.0</ele><time>2026-04-25T08:15:14.999Z</time></trkpt><trkpt lat="45.9984511638134" lon="12.563602675148816"><ele>61.0</ele><time>2026-04-25T08:15:15.999Z</time></trkpt><trkpt lat="45.99830995488328" lon="12.563398217665624"><ele>61.0</ele><time>2026-04-25T08:15:16.999Z</time></trkpt><trkpt lat="45.99816720928937" lon="12.563192635537435"><ele>61.0</ele><time>2026-04-25T08:15:17.999Z</time></trkpt><trkpt lat="45.99802730638019" lon="12.562987411200467"><ele>60.33333333333333</ele><time>2026-04-25T08:15:18.999Z</time></trkpt><trkpt lat="45.99789204525147" lon="12.56278016712221"><ele>59.66666666666667</ele><time>2026-04-25T08:15:19.999Z</time></trkpt><trkpt lat="45.99776527562621" lon="12.562561622001873"><ele>59.0</ele><time>2026-04-25T08:15:20.999Z</time></trkpt><trkpt lat="45.99764285821852" lon="12.562334818436842"><ele>59.0</ele><time>2026-04-25T08:15:21.999Z</time></trkpt><trkpt lat="45.99752480134408" lon="12.562100374536032"><ele>59.0</ele><time>2026-04-25T08:15:22.999Z</time></trkpt><trkpt lat="45.99740501137045" lon="12.56186381213413"><ele>59.0</ele><time>2026-04-25T08:15:23.999Z</time></trkpt><trkpt lat="45.99728294363188" lon="12.56163282157871"><ele>59.0</ele><time>2026-04-25T08:15:24.999Z</time></trkpt><trkpt lat="45.99715321074278" lon="12.561404476082098"><ele>59.0</ele><time>2026-04-25T08:15:25.999Z</time></trkpt><trkpt lat="45.99701716586868" lon="12.56117912240382"><ele>59.0</ele><time>2026-04-25T08:15:26.999Z</time></trkpt><trkpt lat="45.99688125752007" lon="12.560960763131634"><ele>59.0</ele><time>2026-04-25T08:15:27.999Z</time></trkpt><trkpt lat="45.99675061132338" lon="12.560744304544704"><ele>59.0</ele><time>2026-04-25T08:15:28.999Z</time></trkpt><trkpt lat="45.99662919613916" lon="12.560519496929826"><ele>59.0</ele><time>2026-04-25T08:15:29.999Z</time></trkpt><trkpt lat="45.996520116527684" lon="12.560285940703322"><ele>58.333333333333336</ele><time>2026-04-25T08:15:30.999Z</time></trkpt><trkpt lat="45.99641713656052" lon="12.56004567727913"><ele>57.66666666666667</ele><time>2026-04-25T08:15:31.999Z</time></trkpt><trkpt lat="45.99631978331545" lon="12.559806103350276"><ele>57.0</ele><time>2026-04-25T08:15:32.999Z</time></trkpt><trkpt lat="45.9962242548578" lon="12.55956990150144"><ele>56.66666666666667</ele><time>2026-04-25T08:15:33.999Z</time></trkpt><trkpt lat="45.99613219146255" lon="12.559336336025297"><ele>56.333333333333336</ele><time>2026-04-25T08:15:34.999Z</time></trkpt><trkpt lat="45.99604396281773" lon="12.55910286988482"><ele>56.0</ele><time>2026-04-25T08:15:35.999Z</time></trkpt><trkpt lat="45.995958440375695" lon="12.558863542414596"><ele>56.0</ele><time>2026-04-25T08:15:36.999Z</time></trkpt><trkpt lat="45.99587202588297" lon="12.558620790597576"><ele>56.0</ele><time>2026-04-25T08:15:37.999Z</time></trkpt><trkpt lat="45.995784926173926" lon="12.558382539425569"><ele>56.0</ele><time>2026-04-25T08:15:38.999Z</time></trkpt><trkpt lat="45.99569542640247" lon="12.558155760956996"><ele>55.66666666666667</ele><time>2026-04-25T08:15:39.999Z</time></trkpt><trkpt lat="45.99560082756971" lon="12.557941422689717"><ele>55.33333333333333</ele><time>2026-04-25T08:15:40.999Z</time></trkpt><trkpt lat="45.99550474939927" lon="12.557735255569058"><ele>55.0</ele><time>2026-04-25T08:15:41.999Z</time></trkpt><trkpt lat="45.99540946900122" lon="12.557536723164175"><ele>55.0</ele><time>2026-04-25T08:15:42.999Z</time></trkpt><trkpt lat="45.995316381010156" lon="12.557343603403954"><ele>55.0</ele><time>2026-04-25T08:15:43.999Z</time></trkpt><trkpt lat="45.99522080860527" lon="12.557160530118347"><ele>55.0</ele><time>2026-04-25T08:15:44.999Z</time></trkpt><trkpt lat="45.99512262044143" lon="12.556986133482397"><ele>54.666666666666664</ele><time>2026-04-25T08:15:45.999Z</time></trkpt><trkpt lat="45.99502043596575" lon="12.556820698289902"><ele>54.33333333333333</ele><time>2026-04-25T08:15:46.999Z</time></trkpt><trkpt lat="45.99491400738114" lon="12.556664079775524"><ele>54.0</ele><time>2026-04-25T08:15:47.999Z</time></trkpt><trkpt lat="45.99480321152922" lon="12.556510714200728"><ele>54.0</ele><time>2026-04-25T08:15:48.999Z</time></trkpt><trkpt lat="45.99469040245571" lon="12.556359358890836"><ele>54.0</ele><time>2026-04-25T08:15:49.999Z</time></trkpt><trkpt lat="45.994576247676804" lon="12.55620946306365"><ele>54.0</ele><time>2026-04-25T08:15:50.999Z</time></trkpt><trkpt lat="45.99446331245512" lon="12.556057488423507"><ele>54.33333333333333</ele><time>2026-04-25T08:15:51.999Z</time></trkpt><trkpt lat="45.99435013100999" lon="12.55590506116072"><ele>54.666666666666664</ele><time>2026-04-25T08:15:52.999Z</time></trkpt><trkpt lat="45.99423607752249" lon="12.555754154225596"><ele>55.0</ele><time>2026-04-25T08:15:53.999Z</time></trkpt><trkpt lat="45.994124586004354" lon="12.555605318027977"><ele>54.25</ele><time>2026-04-25T08:15:54.999Z</time></trkpt><trkpt lat="45.99401799975956" lon="12.555459455870663"><ele>53.5</ele><time>2026-04-25T08:15:55.999Z</time></trkpt><trkpt lat="45.9939144325565" lon="12.555319337508276"><ele>52.75</ele><time>2026-04-25T08:15:56.999Z</time></trkpt><trkpt lat="45.993808772350064" lon="12.555183966770802"><ele>52.0</ele><time>2026-04-25T08:15:57.999Z</time></trkpt><trkpt lat="45.993705357170924" lon="12.555048052668441"><ele>52.0</ele><time>2026-04-25T08:15:58.999Z</time></trkpt><trkpt lat="45.993603707581265" lon="12.554913614595284"><ele>52.0</ele><time>2026-04-25T08:15:59.999Z</time></trkpt><trkpt lat="45.99350440094489" lon="12.554779643493008"><ele>52.0</ele><time>2026-04-25T08:16:00.999Z</time></trkpt><trkpt lat="45.99340510534732" lon="12.55465038589876"><ele>52.0</ele><time>2026-04-25T08:16:01.999Z</time></trkpt><trkpt lat="45.99330217756702" lon="12.554530085991127"><ele>51.75</ele><time>2026-04-25T08:16:02.999Z</time></trkpt><trkpt lat="45.99319749515812" lon="12.554411634892451"><ele>51.5</ele><time>2026-04-25T08:16:03.999Z</time></trkpt><trkpt lat="45.99309310141305" lon="12.554289439242996"><ele>51.25</ele><time>2026-04-25T08:16:04.999Z</time></trkpt><trkpt lat="45.992990258788105" lon="12.554163587855951"><ele>51.0</ele><time>2026-04-25T08:16:06Z</time></trkpt><trkpt lat="45.99288661982377" lon="12.554038474588651"><ele>51.0</ele><time>2026-04-25T08:16:07Z</time></trkpt><trkpt lat="45.99278232848104" lon="12.553916312494376"><ele>51.0</ele><time>2026-04-25T08:16:08Z</time></trkpt><trkpt lat="45.99267640127191" lon="12.553799736767768"><ele>51.0</ele><time>2026-04-25T08:16:09Z</time></trkpt><trkpt lat="45.992571046930976" lon="12.553683761583951"><ele>51.0</ele><time>2026-04-25T08:16:10Z</time></trkpt><trkpt lat="45.992468600320116" lon="12.553564489231864"><ele>50.75</ele><time>2026-04-25T08:16:11Z</time></trkpt><trkpt lat="45.992366946379505" lon="12.553442597310875"><ele>50.5</ele><time>2026-04-25T08:16:12Z</time></trkpt><trkpt lat="45.99226647585813" lon="12.553315965241794"><ele>50.25</ele><time>2026-04-25T08:16:13Z</time></trkpt><trkpt lat="45.99217066905837" lon="12.553184580021657"><ele>50.0</ele><time>2026-04-25T08:16:14Z</time></trkpt><trkpt lat="45.992079370047875" lon="12.553042807782795"><ele>50.0</ele><time>2026-04-25T08:16:15Z</time></trkpt><trkpt lat="45.991993972800785" lon="12.55289969297076"><ele>50.0</ele><time>2026-04-25T08:16:16Z</time></trkpt><trkpt lat="45.99190906818596" lon="12.55275064571742"><ele>50.0</ele><time>2026-04-25T08:16:17Z</time></trkpt><trkpt lat="45.99182273735745" lon="12.552601668339806"><ele>50.0</ele><time>2026-04-25T08:16:18Z</time></trkpt><trkpt lat="45.99173133653308" lon="12.55245385690699"><ele>49.75</ele><time>2026-04-25T08:16:19Z</time></trkpt><trkpt lat="45.991654357304135" lon="12.552288337713009"><ele>49.5</ele><time>2026-04-25T08:16:20Z</time></trkpt><trkpt lat="45.99156722349003" lon="12.552135938271974"><ele>49.25</ele><time>2026-04-25T08:16:21Z</time></trkpt><trkpt lat="45.991483303831345" lon="12.551980938544773"><ele>49.0</ele><time>2026-04-25T08:16:22Z</time></trkpt><trkpt lat="45.99140278284246" lon="12.551824609910275"><ele>49.0</ele><time>2026-04-25T08:16:23Z</time></trkpt><trkpt lat="45.991325798524194" lon="12.551668411984679"><ele>49.0</ele><time>2026-04-25T08:16:24Z</time></trkpt><trkpt lat="45.99125377963531" lon="12.551508340566818"><ele>49.0</ele><time>2026-04-25T08:16:25Z</time></trkpt><trkpt lat="45.9911924610855" lon="12.551340047544928"><ele>49.0</ele><time>2026-04-25T08:16:26Z</time></trkpt><trkpt lat="45.99113717810187" lon="12.551164239705026"><ele>49.0</ele><time>2026-04-25T08:16:27Z</time></trkpt><trkpt lat="45.991082692252974" lon="12.550981455808545"><ele>49.0</ele><time>2026-04-25T08:16:28Z</time></trkpt><trkpt lat="45.99102125798405" lon="12.550801980889988"><ele>49.0</ele><time>2026-04-25T08:16:29Z</time></trkpt><trkpt lat="45.9909817308197" lon="12.550614417641553"><ele>49.0</ele><time>2026-04-25T08:16:30Z</time></trkpt><trkpt lat="45.990939058838364" lon="12.550433243087559"><ele>48.75</ele><time>2026-04-25T08:16:31Z</time></trkpt><trkpt lat="45.99089780709483" lon="12.55025832453672"><ele>48.5</ele><time>2026-04-25T08:16:32Z</time></trkpt><trkpt lat="45.99085869046328" lon="12.550090749862289"><ele>48.25</ele><time>2026-04-25T08:16:33Z</time></trkpt><trkpt lat="45.99083423695281" lon="12.5499130637832"><ele>48.0</ele><time>2026-04-25T08:16:34Z</time></trkpt><trkpt lat="45.99079429724147" lon="12.549739269979682"><ele>48.0</ele><time>2026-04-25T08:16:35Z</time></trkpt><trkpt lat="45.99075413960126" lon="12.549567665695884"><ele>48.0</ele><time>2026-04-25T08:16:36Z</time></trkpt><trkpt lat="45.990724122204504" lon="12.549396650754995"><ele>48.0</ele><time>2026-04-25T08:16:37Z</time></trkpt><trkpt lat="45.9906997082153" lon="12.54922393497293"><ele>48.0</ele><time>2026-04-25T08:16:38Z</time></trkpt><trkpt lat="45.990679704113" lon="12.54906881936791"><ele>48.0</ele><time>2026-04-25T08:16:39Z</time></trkpt><trkpt lat="45.9906666921946" lon="12.548952459822395"><ele>48.0</ele><time>2026-04-25T08:16:40Z</time></trkpt><trkpt lat="45.99065042135626" lon="12.548812791747743"><ele>48.0</ele><time>2026-04-25T08:16:42Z</time></trkpt><trkpt lat="45.99063805125638" lon="12.548714027582967"><ele>48.0</ele><time>2026-04-25T08:16:44Z</time></trkpt><trkpt lat="45.99062740313517" lon="12.548610901770779"><ele>48.0</ele><time>2026-04-25T08:16:53Z</time></trkpt><trkpt lat="45.99062023514862" lon="12.548491197974739"><ele>48.0</ele><time>2026-04-25T08:17:04Z</time></trkpt><trkpt lat="45.99057372633906" lon="12.548389308333379"><ele>48.0</ele><time>2026-04-25T08:17:05Z</time></trkpt><trkpt lat="45.990508119285764" lon="12.548314134374394"><ele>48.0</ele><time>2026-04-25T08:17:06Z</time></trkpt><trkpt lat="45.990449089932945" lon="12.548239875020803"><ele>48.0</ele><time>2026-04-25T08:17:07Z</time></trkpt><trkpt lat="45.99039031485554" lon="12.548190690409795"><ele>48.0</ele><time>2026-04-25T08:17:07.999Z</time></trkpt><trkpt lat="45.99030362453727" lon="12.548076090422947"><ele>48.0</ele><time>2026-04-25T08:17:09.999Z</time></trkpt><trkpt lat="45.99024581968946" lon="12.547970706082284"><ele>48.0</ele><time>2026-04-25T08:17:11.999Z</time></trkpt><trkpt lat="45.99018662475031" lon="12.547889835463309"><ele>47.833333333333336</ele><time>2026-04-25T08:17:13.999Z</time></trkpt><trkpt lat="45.99013417248821" lon="12.547818079049636"><ele>47.666666666666664</ele><time>2026-04-25T08:17:15.999Z</time></trkpt><trkpt lat="45.99008826879578" lon="12.54773515364814"><ele>47.5</ele><time>2026-04-25T08:17:18.999Z</time></trkpt><trkpt lat="45.99006140789576" lon="12.547625836606423"><ele>47.33333333333333</ele><time>2026-04-25T08:17:21.999Z</time></trkpt><trkpt lat="45.990112600918025" lon="12.547516697058265"><ele>47.166666666666664</ele><time>2026-04-25T08:17:23.999Z</time></trkpt><trkpt lat="45.99019437547139" lon="12.547431927575007"><ele>47.0</ele><time>2026-04-25T08:17:25.999Z</time></trkpt><trkpt lat="45.990297328177796" lon="12.547375432808307"><ele>47.0</ele><time>2026-04-25T08:17:27.999Z</time></trkpt><trkpt lat="45.9904194848244" lon="12.547315176458447"><ele>47.0</ele><time>2026-04-25T08:17:29.999Z</time></trkpt><trkpt lat="45.990492646291386" lon="12.54728652891957"><ele>47.0</ele><time>2026-04-25T08:17:30.999Z</time></trkpt><trkpt lat="45.99056502135431" lon="12.547258910090111"><ele>47.0</ele><time>2026-04-25T08:17:31.999Z</time></trkpt><trkpt lat="45.99063800658229" lon="12.547236714458023"><ele>47.0</ele><time>2026-04-25T08:17:32.999Z</time></trkpt><trkpt lat="45.99071090204388" lon="12.547208597351679"><ele>47.0</ele><time>2026-04-25T08:17:33.999Z</time></trkpt><trkpt lat="45.99077675858255" lon="12.547175034281658"><ele>46.8</ele><time>2026-04-25T08:17:34.999Z</time></trkpt><trkpt lat="45.990877976473" lon="12.547119469970019"><ele>46.6</ele><time>2026-04-25T08:17:36.999Z</time></trkpt><trkpt lat="45.99095247129489" lon="12.547026605490029"><ele>46.4</ele><time>2026-04-25T08:17:38.999Z</time></trkpt><trkpt lat="45.99103709228188" lon="12.546893613631159"><ele>46.199999999999996</ele><time>2026-04-25T08:17:40.999Z</time></trkpt><trkpt lat="45.9910861677194" lon="12.546798967659381"><ele>46.0</ele><time>2026-04-25T08:17:41.999Z</time></trkpt><trkpt lat="45.99114592580344" lon="12.54668706429032"><ele>46.0</ele><time>2026-04-25T08:17:42.999Z</time></trkpt><trkpt lat="45.99121645365826" lon="12.546557986477831"><ele>46.0</ele><time>2026-04-25T08:17:43.999Z</time></trkpt><trkpt lat="45.99127934982995" lon="12.546413436889202"><ele>46.0</ele><time>2026-04-25T08:17:44.999Z</time></trkpt><trkpt lat="45.99135660240609" lon="12.546281684097114"><ele>46.0</ele><time>2026-04-25T08:17:45.999Z</time></trkpt><trkpt lat="45.99143675714912" lon="12.54614532167262"><ele>46.0</ele><time>2026-04-25T08:17:46.999Z</time></trkpt><trkpt lat="45.99152409603994" lon="12.546006105286937"><ele>46.0</ele><time>2026-04-25T08:17:47.999Z</time></trkpt><trkpt lat="45.99161077165979" lon="12.545864263032362"><ele>46.0</ele><time>2026-04-25T08:17:48.999Z</time></trkpt><trkpt lat="45.99169878875085" lon="12.545711944434174"><ele>46.0</ele><time>2026-04-25T08:17:49.999Z</time></trkpt><trkpt lat="45.99178672853279" lon="12.545560998522225"><ele>46.0</ele><time>2026-04-25T08:17:50.999Z</time></trkpt><trkpt lat="45.99187261658433" lon="12.545411191871317"><ele>46.0</ele><time>2026-04-25T08:17:51.999Z</time></trkpt><trkpt lat="45.99195934888316" lon="12.54526427184069"><ele>46.0</ele><time>2026-04-25T08:17:52.999Z</time></trkpt><trkpt lat="45.99204652786947" lon="12.545120490755975"><ele>46.0</ele><time>2026-04-25T08:17:53.999Z</time></trkpt><trkpt lat="45.992131777505804" lon="12.544975772558367"><ele>45.75</ele><time>2026-04-25T08:17:54.999Z</time></trkpt><trkpt lat="45.992215351812" lon="12.544832983030913"><ele>45.5</ele><time>2026-04-25T08:17:55.999Z</time></trkpt><trkpt lat="45.99229678897348" lon="12.544691243380333"><ele>45.25</ele><time>2026-04-25T08:17:56.999Z</time></trkpt><trkpt lat="45.99237674238113" lon="12.544552244458412"><ele>45.0</ele><time>2026-04-25T08:17:57.999Z</time></trkpt><trkpt lat="45.992455051296815" lon="12.544417156899653"><ele>45.0</ele><time>2026-04-25T08:17:58.999Z</time></trkpt><trkpt lat="45.99253009265141" lon="12.544287031096236"><ele>45.0</ele><time>2026-04-25T08:17:59.999Z</time></trkpt><trkpt lat="45.992603537678775" lon="12.544159433415338"><ele>45.0</ele><time>2026-04-25T08:18:00.999Z</time></trkpt><trkpt lat="45.9926758341387" lon="12.54403405769171"><ele>45.0</ele><time>2026-04-25T08:18:01.999Z</time></trkpt><trkpt lat="45.992749440496105" lon="12.54391226132673"><ele>45.0</ele><time>2026-04-25T08:18:02.999Z</time></trkpt><trkpt lat="45.992820302663134" lon="12.543792124347421"><ele>45.0</ele><time>2026-04-25T08:18:03.999Z</time></trkpt><trkpt lat="45.992890738319026" lon="12.543670978392417"><ele>45.0</ele><time>2026-04-25T08:18:04.999Z</time></trkpt><trkpt lat="45.99296110479236" lon="12.543550204630591"><ele>45.0</ele><time>2026-04-25T08:18:05.999Z</time></trkpt><trkpt lat="45.99303205531393" lon="12.543426733327665"><ele>45.0</ele><time>2026-04-25T08:18:06.999Z</time></trkpt><trkpt lat="45.99310644576364" lon="12.543298456234654"><ele>45.0</ele><time>2026-04-25T08:18:07.999Z</time></trkpt><trkpt lat="45.99318346015812" lon="12.54316635294768"><ele>45.0</ele><time>2026-04-25T08:18:08.999Z</time></trkpt><trkpt lat="45.99326242367528" lon="12.543032303476023"><ele>45.0</ele><time>2026-04-25T08:18:09.999Z</time></trkpt><trkpt lat="45.993342043059215" lon="12.542896556564422"><ele>45.0</ele><time>2026-04-25T08:18:10.999Z</time></trkpt><trkpt lat="45.99342103111055" lon="12.542760181652957"><ele>45.0</ele><time>2026-04-25T08:18:12Z</time></trkpt><trkpt lat="45.993501640816625" lon="12.542623287697793"><ele>45.0</ele><time>2026-04-25T08:18:13Z</time></trkpt><trkpt lat="45.993583869874975" lon="12.542484843033675"><ele>45.0</ele><time>2026-04-25T08:18:14Z</time></trkpt><trkpt lat="45.993665268438825" lon="12.542344412236066"><ele>45.0</ele><time>2026-04-25T08:18:15Z</time></trkpt><trkpt lat="45.99374800317493" lon="12.54220257186827"><ele>45.0</ele><time>2026-04-25T08:18:16Z</time></trkpt><trkpt lat="45.9938319395951" lon="12.542057388560938"><ele>45.0</ele><time>2026-04-25T08:18:17Z</time></trkpt><trkpt lat="45.99391887606637" lon="12.541909467611637"><ele>45.0</ele><time>2026-04-25T08:18:18Z</time></trkpt><trkpt lat="45.99400766798438" lon="12.541757744574113"><ele>45.0</ele><time>2026-04-25T08:18:19Z</time></trkpt><trkpt lat="45.99409877147704" lon="12.541601657139822"><ele>45.0</ele><time>2026-04-25T08:18:20Z</time></trkpt><trkpt lat="45.994192328273016" lon="12.541441869905151"><ele>45.0</ele><time>2026-04-25T08:18:21Z</time></trkpt><trkpt lat="45.99428296950051" lon="12.541283380311746"><ele>45.0</ele><time>2026-04-25T08:18:22Z</time></trkpt><trkpt lat="45.99437361459622" lon="12.541127509055165"><ele>45.0</ele><time>2026-04-25T08:18:23Z</time></trkpt><trkpt lat="45.99446461934737" lon="12.540973822335044"><ele>45.0</ele><time>2026-04-25T08:18:24Z</time></trkpt><trkpt lat="45.994555172084326" lon="12.540816472386503"><ele>45.0</ele><time>2026-04-25T08:18:25Z</time></trkpt><trkpt lat="45.99464660048318" lon="12.540654588520582"><ele>45.0</ele><time>2026-04-25T08:18:26Z</time></trkpt><trkpt lat="45.99474076671976" lon="12.540491246995773"><ele>45.0</ele><time>2026-04-25T08:18:27Z</time></trkpt><trkpt lat="45.994837493238784" lon="12.54032545532427"><ele>44.666666666666664</ele><time>2026-04-25T08:18:28Z</time></trkpt><trkpt lat="45.994938286669715" lon="12.54015917850787"><ele>44.33333333333333</ele><time>2026-04-25T08:18:29Z</time></trkpt><trkpt lat="45.99503421960181" lon="12.539990377808794"><ele>44.0</ele><time>2026-04-25T08:18:30Z</time></trkpt><trkpt lat="45.99512861029414" lon="12.539820798337475"><ele>44.0</ele><time>2026-04-25T08:18:31Z</time></trkpt><trkpt lat="45.99522031842957" lon="12.53965334942379"><ele>44.0</ele><time>2026-04-25T08:18:32Z</time></trkpt><trkpt lat="45.99531191375566" lon="12.539489813470512"><ele>44.0</ele><time>2026-04-25T08:18:33Z</time></trkpt><trkpt lat="45.99540680290877" lon="12.539336492917002"><ele>44.0</ele><time>2026-04-25T08:18:34Z</time></trkpt><trkpt lat="45.99551050317581" lon="12.539199183741124"><ele>44.0</ele><time>2026-04-25T08:18:35Z</time></trkpt><trkpt lat="45.99562396189266" lon="12.539083137526069"><ele>44.0</ele><time>2026-04-25T08:18:36Z</time></trkpt><trkpt lat="45.99574390123361" lon="12.53897382888704"><ele>44.0</ele><time>2026-04-25T08:18:37Z</time></trkpt><trkpt lat="45.99586223485783" lon="12.53886267677489"><ele>44.0</ele><time>2026-04-25T08:18:38Z</time></trkpt><trkpt lat="45.995984091804054" lon="12.538757465790967"><ele>44.0</ele><time>2026-04-25T08:18:39Z</time></trkpt><trkpt lat="45.99610088497686" lon="12.538643045390428"><ele>44.0</ele><time>2026-04-25T08:18:40Z</time></trkpt><trkpt lat="45.99622113562842" lon="12.538530287002116"><ele>44.0</ele><time>2026-04-25T08:18:41Z</time></trkpt><trkpt lat="45.99632930127053" lon="12.538379293949198"><ele>44.0</ele><time>2026-04-25T08:18:42Z</time></trkpt><trkpt lat="45.99642742151792" lon="12.538219131274694"><ele>44.0</ele><time>2026-04-25T08:18:43Z</time></trkpt><trkpt lat="45.996517563157234" lon="12.538044318874183"><ele>44.0</ele><time>2026-04-25T08:18:44Z</time></trkpt><trkpt lat="45.996616857062065" lon="12.537890173781907"><ele>44.0</ele><time>2026-04-25T08:18:45Z</time></trkpt><trkpt lat="45.99670716730431" lon="12.537741146471706"><ele>44.0</ele><time>2026-04-25T08:18:46Z</time></trkpt><trkpt lat="45.99679637756996" lon="12.537598739589093"><ele>44.0</ele><time>2026-04-25T08:18:47Z</time></trkpt><trkpt lat="45.99687951920686" lon="12.537458066022248"><ele>44.0</ele><time>2026-04-25T08:18:48Z</time></trkpt><trkpt lat="45.996955085063455" lon="12.537314235280396"><ele>44.0</ele><time>2026-04-25T08:18:49Z</time></trkpt><trkpt lat="45.99702307507418" lon="12.537167387758"><ele>44.0</ele><time>2026-04-25T08:18:50Z</time></trkpt><trkpt lat="45.99708451402176" lon="12.53701548497757"><ele>44.0</ele><time>2026-04-25T08:18:51Z</time></trkpt><trkpt lat="45.99714165761033" lon="12.536865573823645"><ele>44.0</ele><time>2026-04-25T08:18:52Z</time></trkpt><trkpt lat="45.99719692828678" lon="12.536720032743775"><ele>44.0</ele><time>2026-04-25T08:18:53Z</time></trkpt><trkpt lat="45.997251422881696" lon="12.536578164483538"><ele>44.0</ele><time>2026-04-25T08:18:54Z</time></trkpt><trkpt lat="45.997311731630035" lon="12.536438959568756"><ele>44.0</ele><time>2026-04-25T08:18:55Z</time></trkpt><trkpt lat="45.9973759372411" lon="12.536308515148006"><ele>44.0</ele><time>2026-04-25T08:18:56Z</time></trkpt><trkpt lat="45.99743838767707" lon="12.536190431773196"><ele>44.0</ele><time>2026-04-25T08:18:57Z</time></trkpt><trkpt lat="45.99749615619349" lon="12.536082962810864"><ele>44.0</ele><time>2026-04-25T08:18:58Z</time></trkpt><trkpt lat="45.997543699696614" lon="12.535993946427235"><ele>44.0</ele><time>2026-04-25T08:18:59Z</time></trkpt><trkpt lat="45.99758315218246" lon="12.535922980852925"><ele>44.0</ele><time>2026-04-25T08:19:00Z</time></trkpt><trkpt lat="45.99763914827421" lon="12.535822111777783"><ele>44.0</ele><time>2026-04-25T08:19:02Z</time></trkpt><trkpt lat="45.99768564468967" lon="12.535755224994551"><ele>44.0</ele><time>2026-04-25T08:19:06Z</time></trkpt><trkpt lat="45.99776268763152" lon="12.535683598969731"><ele>44.0</ele><time>2026-04-25T08:19:15.999Z</time></trkpt><trkpt lat="45.99786041750818" lon="12.535567182586343"><ele>44.0</ele><time>2026-04-25T08:19:17.999Z</time></trkpt><trkpt lat="45.99792231876681" lon="12.53550029297177"><ele>44.0</ele><time>2026-04-25T08:19:18.999Z</time></trkpt><trkpt lat="45.997982331146225" lon="12.535447565496208"><ele>44.0</ele><time>2026-04-25T08:19:19.999Z</time></trkpt><trkpt lat="45.99797350397624" lon="12.535186187168675"><ele>44.0</ele><time>2026-04-25T08:19:21.999Z</time></trkpt><trkpt lat="45.997946069207224" lon="12.535068877828463"><ele>44.0</ele><time>2026-04-25T08:19:22.999Z</time></trkpt><trkpt lat="45.99790593003813" lon="12.534945007307057"><ele>44.0</ele><time>2026-04-25T08:19:23.999Z</time></trkpt><trkpt lat="45.99785466127019" lon="12.534817200436285"><ele>44.0</ele><time>2026-04-25T08:19:24.999Z</time></trkpt><trkpt lat="45.99779640923418" lon="12.534688964817251"><ele>44.0</ele><time>2026-04-25T08:19:25.999Z</time></trkpt><trkpt lat="45.99773875783641" lon="12.534556472428772"><ele>44.0</ele><time>2026-04-25T08:19:26.999Z</time></trkpt><trkpt lat="45.99768356888566" lon="12.534422836295434"><ele>44.0</ele><time>2026-04-25T08:19:27.999Z</time></trkpt><trkpt lat="45.99763234777736" lon="12.53429782381918"><ele>44.0</ele><time>2026-04-25T08:19:28.999Z</time></trkpt><trkpt lat="45.99758782554352" lon="12.534185197042836"><ele>44.0</ele><time>2026-04-25T08:19:29.999Z</time></trkpt><trkpt lat="45.9975446803665" lon="12.534075220930239"><ele>44.0</ele><time>2026-04-25T08:19:30.999Z</time></trkpt><trkpt lat="45.99751480802448" lon="12.533951783130737"><ele>44.0</ele><time>2026-04-25T08:19:31.999Z</time></trkpt><trkpt lat="45.99747349561327" lon="12.53384624464159"><ele>44.0</ele><time>2026-04-25T08:19:32.999Z</time></trkpt><trkpt lat="45.99743016321629" lon="12.533735545897711"><ele>44.0</ele><time>2026-04-25T08:19:33.999Z</time></trkpt><trkpt lat="45.99738378880304" lon="12.533617075476272"><ele>44.0</ele><time>2026-04-25T08:19:34.999Z</time></trkpt><trkpt lat="45.99733465123528" lon="12.533491546824393"><ele>43.5</ele><time>2026-04-25T08:19:35.999Z</time></trkpt><trkpt lat="45.99728363575441" lon="12.533361220300533"><ele>43.0</ele><time>2026-04-25T08:19:36.999Z</time></trkpt><trkpt lat="45.99722821162948" lon="12.533222209640549"><ele>42.5</ele><time>2026-04-25T08:19:37.999Z</time></trkpt><trkpt lat="45.997167413945164" lon="12.533074137185785"><ele>42.0</ele><time>2026-04-25T08:19:38.999Z</time></trkpt><trkpt lat="45.99710049578283" lon="12.532925939005446"><ele>41.6</ele><time>2026-04-25T08:19:39.999Z</time></trkpt><trkpt lat="45.997029621817134" lon="12.53279096545725"><ele>41.2</ele><time>2026-04-25T08:19:40.999Z</time></trkpt><trkpt lat="45.9969585205888" lon="12.532666842250077"><ele>40.8</ele><time>2026-04-25T08:19:41.999Z</time></trkpt><trkpt lat="45.996872212115186" lon="12.532574653811285"><ele>40.4</ele><time>2026-04-25T08:19:42.999Z</time></trkpt><trkpt lat="45.996803293790116" lon="12.532474270329008"><ele>40.0</ele><time>2026-04-25T08:19:43.999Z</time></trkpt><trkpt lat="45.996740875513524" lon="12.532365101767656"><ele>40.0</ele><time>2026-04-25T08:19:44.999Z</time></trkpt><trkpt lat="45.99669294846645" lon="12.532240937151018"><ele>40.0</ele><time>2026-04-25T08:19:45.999Z</time></trkpt><trkpt lat="45.99663357333856" lon="12.532160386427504"><ele>40.0</ele><time>2026-04-25T08:19:46.999Z</time></trkpt><trkpt lat="45.996669564133725" lon="12.531961907968938"><ele>40.0</ele><time>2026-04-25T08:19:47.999Z</time></trkpt><trkpt lat="45.99664698334683" lon="12.531809854735203"><ele>40.0</ele><time>2026-04-25T08:19:48.999Z</time></trkpt><trkpt lat="45.996641027702346" lon="12.531645689950926"><ele>39.75</ele><time>2026-04-25T08:19:49.999Z</time></trkpt><trkpt lat="45.99663805195559" lon="12.53147485893372"><ele>39.5</ele><time>2026-04-25T08:19:50.999Z</time></trkpt><trkpt lat="45.99664289844962" lon="12.531303505664596"><ele>39.25</ele><time>2026-04-25T08:19:51.999Z</time></trkpt><trkpt lat="45.99667952930877" lon="12.531146089238739"><ele>39.0</ele><time>2026-04-25T08:19:52.999Z</time></trkpt><trkpt lat="45.996697114279414" lon="12.530982596819273"><ele>38.75</ele><time>2026-04-25T08:19:53.999Z</time></trkpt><trkpt lat="45.99674066581261" lon="12.530828100774402"><ele>38.5</ele><time>2026-04-25T08:19:54.999Z</time></trkpt><trkpt lat="45.99680835242708" lon="12.530681735090752"><ele>38.25</ele><time>2026-04-25T08:19:55.999Z</time></trkpt><trkpt lat="45.99686288804233" lon="12.530519253045247"><ele>38.0</ele><time>2026-04-25T08:19:56.999Z</time></trkpt><trkpt lat="45.996916777686266" lon="12.530354307201863"><ele>38.0</ele><time>2026-04-25T08:19:57.999Z</time></trkpt><trkpt lat="45.99696326884022" lon="12.530184142278346"><ele>38.0</ele><time>2026-04-25T08:19:58.999Z</time></trkpt><trkpt lat="45.99700609242295" lon="12.530008419388007"><ele>38.0</ele><time>2026-04-25T08:19:59.999Z</time></trkpt><trkpt lat="45.99704282758234" lon="12.52981877931643"><ele>38.0</ele><time>2026-04-25T08:20:00.999Z</time></trkpt><trkpt lat="45.99706814953444" lon="12.529616329076463"><ele>38.0</ele><time>2026-04-25T08:20:01.999Z</time></trkpt><trkpt lat="45.99708331930276" lon="12.529395500888546"><ele>38.0</ele><time>2026-04-25T08:20:02.999Z</time></trkpt><trkpt lat="45.99708571936587" lon="12.529171472393509"><ele>38.0</ele><time>2026-04-25T08:20:03.999Z</time></trkpt><trkpt lat="45.9970780351005" lon="12.528935521046582"><ele>38.0</ele><time>2026-04-25T08:20:04.999Z</time></trkpt><trkpt lat="45.99705769279827" lon="12.528693246334067"><ele>38.0</ele><time>2026-04-25T08:20:05.999Z</time></trkpt><trkpt lat="45.99701596566854" lon="12.528455135302215"><ele>38.0</ele><time>2026-04-25T08:20:06.999Z</time></trkpt><trkpt lat="45.997002491578115" lon="12.528199555973776"><ele>38.0</ele><time>2026-04-25T08:20:07.999Z</time></trkpt><trkpt lat="45.99697407272915" lon="12.527946170531923"><ele>38.0</ele><time>2026-04-25T08:20:08.999Z</time></trkpt><trkpt lat="45.99694689709796" lon="12.527690662655447"><ele>38.0</ele><time>2026-04-25T08:20:09.999Z</time></trkpt><trkpt lat="45.99691956639967" lon="12.527436584925725"><ele>37.666666666666664</ele><time>2026-04-25T08:20:10.999Z</time></trkpt><trkpt lat="45.996892063676334" lon="12.527185235192533"><ele>37.333333333333336</ele><time>2026-04-25T08:20:11.999Z</time></trkpt><trkpt lat="45.99686440162402" lon="12.526930712326742"><ele>37.0</ele><time>2026-04-25T08:20:12.999Z</time></trkpt><trkpt lat="45.996836928962615" lon="12.526674589690742"><ele>37.0</ele><time>2026-04-25T08:20:13.999Z</time></trkpt><trkpt lat="45.996808577776896" lon="12.52641027664818"><ele>37.0</ele><time>2026-04-25T08:20:14.999Z</time></trkpt><trkpt lat="45.99678156279235" lon="12.526158420930301"><ele>37.0</ele><time>2026-04-25T08:20:15.999Z</time></trkpt><trkpt lat="45.99675288656592" lon="12.525911675391644"><ele>37.0</ele><time>2026-04-25T08:20:16.999Z</time></trkpt><trkpt lat="45.996722160168964" lon="12.525670515054935"><ele>37.0</ele><time>2026-04-25T08:20:18Z</time></trkpt><trkpt lat="45.996669453333304" lon="12.525439339374921"><ele>37.0</ele><time>2026-04-25T08:20:19Z</time></trkpt><trkpt lat="45.996621350500924" lon="12.525211464333031"><ele>36.66666666666667</ele><time>2026-04-25T08:20:20Z</time></trkpt><trkpt lat="45.99656036726713" lon="12.524988452770229"><ele>36.333333333333336</ele><time>2026-04-25T08:20:21Z</time></trkpt><trkpt lat="45.996510938860844" lon="12.52475295479088"><ele>36.0</ele><time>2026-04-25T08:20:22Z</time></trkpt><trkpt lat="45.99644429543834" lon="12.52452415596646"><ele>36.0</ele><time>2026-04-25T08:20:23Z</time></trkpt><trkpt lat="45.996376095304" lon="12.524293987561835"><ele>36.0</ele><time>2026-04-25T08:20:24Z</time></trkpt><trkpt lat="45.996307209470956" lon="12.524065683846338"><ele>36.0</ele><time>2026-04-25T08:20:25Z</time></trkpt><trkpt lat="45.99623849685807" lon="12.523837954174002"><ele>36.333333333333336</ele><time>2026-04-25T08:20:26Z</time></trkpt><trkpt lat="45.99617074529253" lon="12.523613409535423"><ele>36.66666666666667</ele><time>2026-04-25T08:20:27Z</time></trkpt><trkpt lat="45.99610478559136" lon="12.523391783873306"><ele>37.0</ele><time>2026-04-25T08:20:28Z</time></trkpt><trkpt lat="45.996040843019614" lon="12.523173578649605"><ele>37.0</ele><time>2026-04-25T08:20:29Z</time></trkpt><trkpt lat="45.995983391240955" lon="12.522954244021305"><ele>37.0</ele><time>2026-04-25T08:20:30Z</time></trkpt><trkpt lat="45.99594353837521" lon="12.522727134678298"><ele>37.0</ele><time>2026-04-25T08:20:31Z</time></trkpt><trkpt lat="45.99593316953651" lon="12.5224946348629"><ele>37.25</ele><time>2026-04-25T08:20:32Z</time></trkpt><trkpt lat="45.99593719243904" lon="12.522259761450433"><ele>37.5</ele><time>2026-04-25T08:20:33Z</time></trkpt><trkpt lat="45.995935769358766" lon="12.522059383249982"><ele>37.75</ele><time>2026-04-25T08:20:34Z</time></trkpt><trkpt lat="45.995947609441494" lon="12.521884926675101"><ele>38.0</ele><time>2026-04-25T08:20:35Z</time></trkpt><trkpt lat="45.99597837200311" lon="12.521722715036788"><ele>38.25</ele><time>2026-04-25T08:20:36Z</time></trkpt><trkpt lat="45.99598153386497" lon="12.521543886970699"><ele>38.5</ele><time>2026-04-25T08:20:37Z</time></trkpt><trkpt lat="45.99601438284394" lon="12.52132452263756"><ele>38.75</ele><time>2026-04-25T08:20:38Z</time></trkpt><trkpt lat="45.996055431103414" lon="12.521106444764232"><ele>39.0</ele><time>2026-04-25T08:20:39Z</time></trkpt><trkpt lat="45.99609701861043" lon="12.5208948610804"><ele>38.333333333333336</ele><time>2026-04-25T08:20:40Z</time></trkpt><trkpt lat="45.996138395889126" lon="12.520677575140091"><ele>37.66666666666667</ele><time>2026-04-25T08:20:41Z</time></trkpt><trkpt lat="45.99618315334608" lon="12.520452388221006"><ele>37.0</ele><time>2026-04-25T08:20:42Z</time></trkpt><trkpt lat="45.99622878081399" lon="12.52022065469564"><ele>37.0</ele><time>2026-04-25T08:20:43Z</time></trkpt><trkpt lat="45.996275521583655" lon="12.519982880927516"><ele>37.0</ele><time>2026-04-25T08:20:44Z</time></trkpt><trkpt lat="45.99632463266068" lon="12.519734187155809"><ele>37.0</ele><time>2026-04-25T08:20:45Z</time></trkpt><trkpt lat="45.99637319889839" lon="12.51947959056536"><ele>37.0</ele><time>2026-04-25T08:20:46Z</time></trkpt><trkpt lat="45.9964222623161" lon="12.519220563279116"><ele>37.0</ele><time>2026-04-25T08:20:47Z</time></trkpt><trkpt lat="45.9964734266399" lon="12.518956589718414"><ele>37.0</ele><time>2026-04-25T08:20:48Z</time></trkpt><trkpt lat="45.99652538853737" lon="12.518683221826493"><ele>37.0</ele><time>2026-04-25T08:20:49Z</time></trkpt><trkpt lat="45.9965780620754" lon="12.5184046993552"><ele>37.0</ele><time>2026-04-25T08:20:50Z</time></trkpt><trkpt lat="45.996629110094474" lon="12.518131506132494"><ele>37.0</ele><time>2026-04-25T08:20:51Z</time></trkpt><trkpt lat="45.9966783840764" lon="12.517861254678243"><ele>36.66666666666667</ele><time>2026-04-25T08:20:52Z</time></trkpt><trkpt lat="45.9967290119175" lon="12.517593344115024"><ele>36.333333333333336</ele><time>2026-04-25T08:20:53Z</time></trkpt><trkpt lat="45.996780794839175" lon="12.51732955683478"><ele>36.0</ele><time>2026-04-25T08:20:54Z</time></trkpt><trkpt lat="45.996830335526965" lon="12.517066285589012"><ele>35.666666666666664</ele><time>2026-04-25T08:20:55Z</time></trkpt><trkpt lat="45.99687618315682" lon="12.516803839687123"><ele>35.33333333333333</ele><time>2026-04-25T08:20:56Z</time></trkpt><trkpt lat="45.996917007976315" lon="12.516540277321116"><ele>35.0</ele><time>2026-04-25T08:20:57Z</time></trkpt><trkpt lat="45.99695175413265" lon="12.516275681181764"><ele>35.0</ele><time>2026-04-25T08:20:58Z</time></trkpt><trkpt lat="45.99698054563296" lon="12.516010817427441"><ele>35.0</ele><time>2026-04-25T08:20:59Z</time></trkpt><trkpt lat="45.997001411958045" lon="12.5157487672073"><ele>35.0</ele><time>2026-04-25T08:21:00Z</time></trkpt><trkpt lat="45.9970154562039" lon="12.51548789587885"><ele>34.666666666666664</ele><time>2026-04-25T08:21:01Z</time></trkpt><trkpt lat="45.99702550520097" lon="12.515226804153633"><ele>34.333333333333336</ele><time>2026-04-25T08:21:02Z</time></trkpt><trkpt lat="45.99703025722368" lon="12.514962139718177"><ele>34.0</ele><time>2026-04-25T08:21:03Z</time></trkpt><trkpt lat="45.99702700427811" lon="12.514696993897275"><ele>33.66666666666667</ele><time>2026-04-25T08:21:04Z</time></trkpt><trkpt lat="45.997016949063166" lon="12.514431496287484"><ele>33.333333333333336</ele><time>2026-04-25T08:21:05Z</time></trkpt><trkpt lat="45.99700026037651" lon="12.514165645427664"><ele>33.0</ele><time>2026-04-25T08:21:06Z</time></trkpt><trkpt lat="45.99697697496244" lon="12.513899930558436"><ele>33.0</ele><time>2026-04-25T08:21:07Z</time></trkpt><trkpt lat="45.99694865264349" lon="12.513634152887283"><ele>33.0</ele><time>2026-04-25T08:21:08Z</time></trkpt><trkpt lat="45.99691666350869" lon="12.513369518984675"><ele>33.0</ele><time>2026-04-25T08:21:09Z</time></trkpt><trkpt lat="45.99687845703011" lon="12.51310753315373"><ele>33.0</ele><time>2026-04-25T08:21:10Z</time></trkpt><trkpt lat="45.9968359391741" lon="12.512850204204677"><ele>33.0</ele><time>2026-04-25T08:21:11Z</time></trkpt><trkpt lat="45.99679041551493" lon="12.51259888417506"><ele>33.0</ele><time>2026-04-25T08:21:12Z</time></trkpt><trkpt lat="45.99674922004484" lon="12.512348908115156"><ele>33.0</ele><time>2026-04-25T08:21:13Z</time></trkpt><trkpt lat="45.99670770334512" lon="12.512101753648807"><ele>33.0</ele><time>2026-04-25T08:21:13.999Z</time></trkpt><trkpt lat="45.996664092823146" lon="12.511860248445608"><ele>33.0</ele><time>2026-04-25T08:21:14.999Z</time></trkpt><trkpt lat="45.996616167215386" lon="12.511621148786041"><ele>33.0</ele><time>2026-04-25T08:21:15.999Z</time></trkpt><trkpt lat="45.99657115487358" lon="12.5113769345661"><ele>33.0</ele><time>2026-04-25T08:21:16.999Z</time></trkpt><trkpt lat="45.996497002559856" lon="12.511142312856824"><ele>33.0</ele><time>2026-04-25T08:21:17.999Z</time></trkpt><trkpt lat="45.99639660585879" lon="12.510929724102388"><ele>33.0</ele><time>2026-04-25T08:21:18.999Z</time></trkpt><trkpt lat="45.996299412475125" lon="12.510712309736753"><ele>33.0</ele><time>2026-04-25T08:21:19.999Z</time></trkpt><trkpt lat="45.996185861360175" lon="12.51051420117959"><ele>33.0</ele><time>2026-04-25T08:21:20.999Z</time></trkpt><trkpt lat="45.99606376534743" lon="12.510326567873992"><ele>32.666666666666664</ele><time>2026-04-25T08:21:21.999Z</time></trkpt><trkpt lat="45.9959410268358" lon="12.510145043111766"><ele>32.33333333333333</ele><time>2026-04-25T08:21:22.999Z</time></trkpt><trkpt lat="45.9958209369707" lon="12.509969116283935"><ele>32.0</ele><time>2026-04-25T08:21:23.999Z</time></trkpt><trkpt lat="45.99569890713901" lon="12.509793157325538"><ele>32.0</ele><time>2026-04-25T08:21:24.999Z</time></trkpt><trkpt lat="45.9955745330968" lon="12.509613077127526"><ele>32.0</ele><time>2026-04-25T08:21:25.999Z</time></trkpt><trkpt lat="45.99545398707397" lon="12.509432807214731"><ele>32.0</ele><time>2026-04-25T08:21:26.999Z</time></trkpt><trkpt lat="45.99535307233468" lon="12.509232813288415"><ele>32.0</ele><time>2026-04-25T08:21:27.999Z</time></trkpt><trkpt lat="45.99523222972576" lon="12.509062162062996"><ele>32.0</ele><time>2026-04-25T08:21:28.999Z</time></trkpt><trkpt lat="45.99512746551333" lon="12.508871592248898"><ele>32.0</ele><time>2026-04-25T08:21:29.999Z</time></trkpt><trkpt lat="45.99502478578707" lon="12.50867405548812"><ele>31.666666666666664</ele><time>2026-04-25T08:21:30.999Z</time></trkpt><trkpt lat="45.994924876615094" lon="12.508469476684601"><ele>31.333333333333336</ele><time>2026-04-25T08:21:31.999Z</time></trkpt><trkpt lat="45.9948268939051" lon="12.508260600398158"><ele>31.0</ele><time>2026-04-25T08:21:32.999Z</time></trkpt><trkpt lat="45.994725285735" lon="12.508042941953004"><ele>30.666666666666668</ele><time>2026-04-25T08:21:33.999Z</time></trkpt><trkpt lat="45.99464175676409" lon="12.507804174131222"><ele>30.333333333333336</ele><time>2026-04-25T08:21:34.999Z</time></trkpt><trkpt lat="45.994549676613204" lon="12.507566604289003"><ele>30.0</ele><time>2026-04-25T08:21:35.999Z</time></trkpt><trkpt lat="45.99446584986736" lon="12.507312943801914"><ele>29.666666666666664</ele><time>2026-04-25T08:21:36.999Z</time></trkpt><trkpt lat="45.99439148195033" lon="12.507048476567025"><ele>29.333333333333332</ele><time>2026-04-25T08:21:37.999Z</time></trkpt><trkpt lat="45.9943309706308" lon="12.506775504140267"><ele>29.0</ele><time>2026-04-25T08:21:38.999Z</time></trkpt><trkpt lat="45.994282772838424" lon="12.506511236752463"><ele>29.0</ele><time>2026-04-25T08:21:39.999Z</time></trkpt><trkpt lat="45.99422350174191" lon="12.506255979360418"><ele>29.0</ele><time>2026-04-25T08:21:40.999Z</time></trkpt><trkpt lat="45.99419579214942" lon="12.505991437757755"><ele>29.0</ele><time>2026-04-25T08:21:41.999Z</time></trkpt><trkpt lat="45.9941526958016" lon="12.505733023477537"><ele>29.0</ele><time>2026-04-25T08:21:42.999Z</time></trkpt><trkpt lat="45.994109645562325" lon="12.505474773692987"><ele>29.0</ele><time>2026-04-25T08:21:43.999Z</time></trkpt><trkpt lat="45.994053260078225" lon="12.505221922082596"><ele>29.0</ele><time>2026-04-25T08:21:44.999Z</time></trkpt><trkpt lat="45.994007386433914" lon="12.504955125298753"><ele>29.0</ele><time>2026-04-25T08:21:45.999Z</time></trkpt><trkpt lat="45.99397641820038" lon="12.504679482239116"><ele>29.0</ele><time>2026-04-25T08:21:46.999Z</time></trkpt><trkpt lat="45.99392830253557" lon="12.504410865535839"><ele>29.0</ele><time>2026-04-25T08:21:47.999Z</time></trkpt><trkpt lat="45.99387297852557" lon="12.504145225396858"><ele>29.0</ele><time>2026-04-25T08:21:48.999Z</time></trkpt><trkpt lat="45.99381066671133" lon="12.503887355729217"><ele>29.0</ele><time>2026-04-25T08:21:49.999Z</time></trkpt><trkpt lat="45.99374247966299" lon="12.503634259264341"><ele>29.0</ele><time>2026-04-25T08:21:50.999Z</time></trkpt><trkpt lat="45.993664878592924" lon="12.503386456421179"><ele>29.0</ele><time>2026-04-25T08:21:51.999Z</time></trkpt><trkpt lat="45.99356334111573" lon="12.503152301731564"><ele>29.0</ele><time>2026-04-25T08:21:52.999Z</time></trkpt><trkpt lat="45.99346927218879" lon="12.502915235571312"><ele>29.0</ele><time>2026-04-25T08:21:53.999Z</time></trkpt><trkpt lat="45.99337164526658" lon="12.502687319250889"><ele>29.333333333333332</ele><time>2026-04-25T08:21:54.999Z</time></trkpt><trkpt lat="45.99327402103316" lon="12.502458670074889"><ele>29.666666666666664</ele><time>2026-04-25T08:21:55.999Z</time></trkpt><trkpt lat="45.993178990045784" lon="12.502229468791292"><ele>30.0</ele><time>2026-04-25T08:21:56.999Z</time></trkpt><trkpt lat="45.99308805372826" lon="12.502001670519064"><ele>30.0</ele><time>2026-04-25T08:21:57.999Z</time></trkpt><trkpt lat="45.993005431458755" lon="12.501766394899814"><ele>30.0</ele><time>2026-04-25T08:21:58.999Z</time></trkpt><trkpt lat="45.99293254868361" lon="12.501529641558259"><ele>30.0</ele><time>2026-04-25T08:21:59.999Z</time></trkpt><trkpt lat="45.99286149774806" lon="12.501289168108126"><ele>29.666666666666664</ele><time>2026-04-25T08:22:00.999Z</time></trkpt><trkpt lat="45.992792766771785" lon="12.50104867317262"><ele>29.333333333333332</ele><time>2026-04-25T08:22:01.999Z</time></trkpt><trkpt lat="45.99272554528756" lon="12.500809573971598"><ele>29.0</ele><time>2026-04-25T08:22:02.999Z</time></trkpt><trkpt lat="45.992661405121616" lon="12.500573464417538"><ele>29.333333333333332</ele><time>2026-04-25T08:22:03.999Z</time></trkpt><trkpt lat="45.99260020497903" lon="12.500344690731508"><ele>29.666666666666664</ele><time>2026-04-25T08:22:04.999Z</time></trkpt><trkpt lat="45.9925393802797" lon="12.500120132618374"><ele>30.0</ele><time>2026-04-25T08:22:05.999Z</time></trkpt><trkpt lat="45.9924786915565" lon="12.49990075497587"><ele>30.0</ele><time>2026-04-25T08:22:06.999Z</time></trkpt><trkpt lat="45.99241615535504" lon="12.499678944463147"><ele>30.0</ele><time>2026-04-25T08:22:07.999Z</time></trkpt><trkpt lat="45.99235367921468" lon="12.499451501467863"><ele>30.0</ele><time>2026-04-25T08:22:08.999Z</time></trkpt><trkpt lat="45.99229065026518" lon="12.499222691330198"><ele>29.666666666666664</ele><time>2026-04-25T08:22:09.999Z</time></trkpt><trkpt lat="45.99222736028974" lon="12.498993262884767"><ele>29.333333333333332</ele><time>2026-04-25T08:22:10.999Z</time></trkpt><trkpt lat="45.99215915345034" lon="12.498765237539068"><ele>29.0</ele><time>2026-04-25T08:22:11.999Z</time></trkpt><trkpt lat="45.99209244343346" lon="12.498530367595672"><ele>28.666666666666664</ele><time>2026-04-25T08:22:12.999Z</time></trkpt><trkpt lat="45.99198203175722" lon="12.498324589271936"><ele>28.333333333333336</ele><time>2026-04-25T08:22:13.999Z</time></trkpt><trkpt lat="45.99186954836439" lon="12.498108982238902"><ele>28.0</ele><time>2026-04-25T08:22:14.999Z</time></trkpt><trkpt lat="45.99174696960578" lon="12.497898804053206"><ele>27.666666666666668</ele><time>2026-04-25T08:22:15.999Z</time></trkpt><trkpt lat="45.991616043958324" lon="12.497699391276749"><ele>27.333333333333336</ele><time>2026-04-25T08:22:16.999Z</time></trkpt><trkpt lat="45.9914929042546" lon="12.497501954748845"><ele>27.0</ele><time>2026-04-25T08:22:17.999Z</time></trkpt><trkpt lat="45.991373100175544" lon="12.497307789000367"><ele>27.0</ele><time>2026-04-25T08:22:18.999Z</time></trkpt><trkpt lat="45.99125480360125" lon="12.49711923561432"><ele>27.0</ele><time>2026-04-25T08:22:19.999Z</time></trkpt><trkpt lat="45.991139001453945" lon="12.496931970095236"><ele>27.0</ele><time>2026-04-25T08:22:20.999Z</time></trkpt><trkpt lat="45.99103557119296" lon="12.496730343547727"><ele>27.0</ele><time>2026-04-25T08:22:21.999Z</time></trkpt><trkpt lat="45.990920208679526" lon="12.496543170797452"><ele>27.0</ele><time>2026-04-25T08:22:23Z</time></trkpt><trkpt lat="45.9908044262284" lon="12.496355316707577"><ele>27.0</ele><time>2026-04-25T08:22:24Z</time></trkpt><trkpt lat="45.99068792908117" lon="12.496165293568188"><ele>27.333333333333336</ele><time>2026-04-25T08:22:25Z</time></trkpt><trkpt lat="45.99057281340627" lon="12.49597346103852"><ele>27.666666666666668</ele><time>2026-04-25T08:22:26Z</time></trkpt><trkpt lat="45.99045909365698" lon="12.495778390910182"><ele>28.0</ele><time>2026-04-25T08:22:27Z</time></trkpt><trkpt lat="45.99034419067875" lon="12.49557761605084"><ele>28.0</ele><time>2026-04-25T08:22:28Z</time></trkpt><trkpt lat="45.99022767263004" lon="12.495373888172864"><ele>28.0</ele><time>2026-04-25T08:22:29Z</time></trkpt><trkpt lat="45.9900972380957" lon="12.495171028340451"><ele>28.0</ele><time>2026-04-25T08:22:30Z</time></trkpt><trkpt lat="45.98997409353139" lon="12.494947647810333"><ele>28.0</ele><time>2026-04-25T08:22:31Z</time></trkpt><trkpt lat="45.989848672629435" lon="12.494721792310427"><ele>28.0</ele><time>2026-04-25T08:22:32Z</time></trkpt><trkpt lat="45.989721133904176" lon="12.494492936854064"><ele>28.0</ele><time>2026-04-25T08:22:33Z</time></trkpt><trkpt lat="45.98959446721916" lon="12.494268799593234"><ele>28.0</ele><time>2026-04-25T08:22:34Z</time></trkpt><trkpt lat="45.98947220142751" lon="12.494052955844985"><ele>28.0</ele><time>2026-04-25T08:22:35Z</time></trkpt><trkpt lat="45.98935556713021" lon="12.493845221272938"><ele>28.0</ele><time>2026-04-25T08:22:36Z</time></trkpt><trkpt lat="45.989241986748404" lon="12.493642187813013"><ele>27.666666666666668</ele><time>2026-04-25T08:22:37Z</time></trkpt><trkpt lat="45.98913228019756" lon="12.49343926813233"><ele>27.333333333333336</ele><time>2026-04-25T08:22:38Z</time></trkpt><trkpt lat="45.989027659679046" lon="12.49323361495107"><ele>27.0</ele><time>2026-04-25T08:22:39Z</time></trkpt><trkpt lat="45.98892894371742" lon="12.493021051387979"><ele>26.666666666666664</ele><time>2026-04-25T08:22:40Z</time></trkpt><trkpt lat="45.988834298013586" lon="12.492800472104232"><ele>26.333333333333332</ele><time>2026-04-25T08:22:41Z</time></trkpt><trkpt lat="45.98874267575028" lon="12.492563796179812"><ele>26.0</ele><time>2026-04-25T08:22:42Z</time></trkpt><trkpt lat="45.988649066254695" lon="12.49231969127473"><ele>26.666666666666664</ele><time>2026-04-25T08:22:43Z</time></trkpt><trkpt lat="45.98855458766666" lon="12.492072601951596"><ele>27.333333333333336</ele><time>2026-04-25T08:22:44Z</time></trkpt><trkpt lat="45.98845850100594" lon="12.491825208054935"><ele>28.0</ele><time>2026-04-25T08:22:45Z</time></trkpt><trkpt lat="45.988364687799134" lon="12.491576389264779"><ele>28.333333333333336</ele><time>2026-04-25T08:22:46Z</time></trkpt><trkpt lat="45.988272363463885" lon="12.491324628774548"><ele>28.666666666666664</ele><time>2026-04-25T08:22:47Z</time></trkpt><trkpt lat="45.98817704314898" lon="12.491073639540517"><ele>29.0</ele><time>2026-04-25T08:22:48Z</time></trkpt><trkpt lat="45.988080370823354" lon="12.49082322035625"><ele>28.333333333333332</ele><time>2026-04-25T08:22:49Z</time></trkpt><trkpt lat="45.98799988104888" lon="12.490559702984289"><ele>27.666666666666664</ele><time>2026-04-25T08:22:50Z</time></trkpt><trkpt lat="45.98790686435431" lon="12.490313761126925"><ele>27.0</ele><time>2026-04-25T08:22:51Z</time></trkpt><trkpt lat="45.98781378466393" lon="12.490067651781985"><ele>26.0</ele><time>2026-04-25T08:22:52Z</time></trkpt><trkpt lat="45.98772223122479" lon="12.489825577893283"><ele>25.0</ele><time>2026-04-25T08:22:53Z</time></trkpt><trkpt lat="45.98763044739911" lon="12.48958289489754"><ele>24.0</ele><time>2026-04-25T08:22:54Z</time></trkpt><trkpt lat="45.987538558434956" lon="12.489339933877885"><ele>25.0</ele><time>2026-04-25T08:22:55Z</time></trkpt><trkpt lat="45.987446749376716" lon="12.489097184133097"><ele>26.0</ele><time>2026-04-25T08:22:56Z</time></trkpt><trkpt lat="45.987353371067236" lon="12.488850285188894"><ele>27.0</ele><time>2026-04-25T08:22:57Z</time></trkpt><trkpt lat="45.98726006620912" lon="12.488603580443417"><ele>27.0</ele><time>2026-04-25T08:22:58Z</time></trkpt><trkpt lat="45.98716619461727" lon="12.488355895689027"><ele>27.0</ele><time>2026-04-25T08:22:59Z</time></trkpt><trkpt lat="45.987071121457156" lon="12.488106517416796"><ele>27.0</ele><time>2026-04-25T08:23:00Z</time></trkpt><trkpt lat="45.98697458457968" lon="12.487853299799513"><ele>27.333333333333336</ele><time>2026-04-25T08:23:01Z</time></trkpt><trkpt lat="45.98687787874413" lon="12.48760133205209"><ele>27.666666666666668</ele><time>2026-04-25T08:23:02Z</time></trkpt><trkpt lat="45.98678098234561" lon="12.487352716271328"><ele>28.0</ele><time>2026-04-25T08:23:03Z</time></trkpt><trkpt lat="45.98668492884356" lon="12.487106265607125"><ele>27.0</ele><time>2026-04-25T08:23:04Z</time></trkpt><trkpt lat="45.986591926339926" lon="12.486860758525607"><ele>26.0</ele><time>2026-04-25T08:23:05Z</time></trkpt><trkpt lat="45.986486250872034" lon="12.486631827375767"><ele>25.0</ele><time>2026-04-25T08:23:06Z</time></trkpt><trkpt lat="45.98639301108423" lon="12.486385935090741"><ele>25.666666666666668</ele><time>2026-04-25T08:23:07Z</time></trkpt><trkpt lat="45.9863133662821" lon="12.486127837454468"><ele>26.333333333333336</ele><time>2026-04-25T08:23:08Z</time></trkpt><trkpt lat="45.98621866247481" lon="12.485878597619289"><ele>27.0</ele><time>2026-04-25T08:23:09Z</time></trkpt><trkpt lat="45.98612560275585" lon="12.485634219451846"><ele>27.0</ele><time>2026-04-25T08:23:10Z</time></trkpt><trkpt lat="45.98603471036526" lon="12.485396692563377"><ele>27.0</ele><time>2026-04-25T08:23:11Z</time></trkpt><trkpt lat="45.98594989457257" lon="12.485175045524171"><ele>27.0</ele><time>2026-04-25T08:23:12Z</time></trkpt><trkpt lat="45.98586371466083" lon="12.484946058048992"><ele>26.666666666666664</ele><time>2026-04-25T08:23:13Z</time></trkpt><trkpt lat="45.985777946904946" lon="12.484718017311014"><ele>26.333333333333332</ele><time>2026-04-25T08:23:14Z</time></trkpt><trkpt lat="45.985696136656216" lon="12.484501187984268"><ele>26.0</ele><time>2026-04-25T08:23:15Z</time></trkpt><trkpt lat="45.98560631914174" lon="12.484304235794294"><ele>25.333333333333332</ele><time>2026-04-25T08:23:16Z</time></trkpt><trkpt lat="45.98553932872721" lon="12.484097761257688"><ele>24.666666666666664</ele><time>2026-04-25T08:23:17Z</time></trkpt><trkpt lat="45.98549260234744" lon="12.48386758832735"><ele>24.0</ele><time>2026-04-25T08:23:17.999Z</time></trkpt><trkpt lat="45.98543697072515" lon="12.483634795333257"><ele>23.333333333333332</ele><time>2026-04-25T08:23:18.999Z</time></trkpt><trkpt lat="45.985382541099405" lon="12.483394012403325"><ele>22.666666666666664</ele><time>2026-04-25T08:23:19.999Z</time></trkpt><trkpt lat="45.98532734228968" lon="12.483143561997226"><ele>22.0</ele><time>2026-04-25T08:23:20.999Z</time></trkpt><trkpt lat="45.98525613059539" lon="12.482895457116367"><ele>22.0</ele><time>2026-04-25T08:23:21.999Z</time></trkpt><trkpt lat="45.98520549108515" lon="12.482640187565297"><ele>22.0</ele><time>2026-04-25T08:23:22.999Z</time></trkpt><trkpt lat="45.98515427956322" lon="12.482394211766223"><ele>22.0</ele><time>2026-04-25T08:23:23.999Z</time></trkpt><trkpt lat="45.98510192794303" lon="12.482152281293143"><ele>22.333333333333332</ele><time>2026-04-25T08:23:24.999Z</time></trkpt><trkpt lat="45.98505026446148" lon="12.481917940428048"><ele>22.666666666666668</ele><time>2026-04-25T08:23:25.999Z</time></trkpt><trkpt lat="45.98499655044365" lon="12.48169146171112"><ele>23.0</ele><time>2026-04-25T08:23:26.999Z</time></trkpt><trkpt lat="45.9849309718045" lon="12.481470305110761"><ele>23.5</ele><time>2026-04-25T08:23:27.999Z</time></trkpt><trkpt lat="45.98484889323855" lon="12.48126558481249"><ele>24.0</ele><time>2026-04-25T08:23:28.999Z</time></trkpt><trkpt lat="45.984762842089246" lon="12.48109212077401"><ele>24.5</ele><time>2026-04-25T08:23:29.999Z</time></trkpt><trkpt lat="45.98469756764563" lon="12.48092132719407"><ele>25.0</ele><time>2026-04-25T08:23:30.999Z</time></trkpt><trkpt lat="45.98462560672568" lon="12.480773736463558"><ele>25.0</ele><time>2026-04-25T08:23:31.999Z</time></trkpt><trkpt lat="45.98456974980159" lon="12.480628993064473"><ele>25.0</ele><time>2026-04-25T08:23:32.999Z</time></trkpt><trkpt lat="45.984542136877224" lon="12.480464976484043"><ele>25.0</ele><time>2026-04-25T08:23:33.999Z</time></trkpt><trkpt lat="45.98453584393998" lon="12.480291371460561"><ele>25.0</ele><time>2026-04-25T08:23:34.999Z</time></trkpt><trkpt lat="45.9845568379419" lon="12.480110961539909"><ele>25.25</ele><time>2026-04-25T08:23:35.999Z</time></trkpt><trkpt lat="45.98460871762503" lon="12.47992929451812"><ele>25.5</ele><time>2026-04-25T08:23:36.999Z</time></trkpt><trkpt lat="45.98466500701129" lon="12.479731402128369"><ele>25.75</ele><time>2026-04-25T08:23:37.999Z</time></trkpt><trkpt lat="45.98469922120874" lon="12.479555579458106"><ele>26.0</ele><time>2026-04-25T08:23:38.999Z</time></trkpt><trkpt lat="45.98474833911397" lon="12.479389453435699"><ele>26.25</ele><time>2026-04-25T08:23:39.999Z</time></trkpt><trkpt lat="45.984799293522286" lon="12.479225757343425"><ele>26.5</ele><time>2026-04-25T08:23:40.999Z</time></trkpt><trkpt lat="45.984846375191374" lon="12.479069457335994"><ele>26.75</ele><time>2026-04-25T08:23:41.999Z</time></trkpt><trkpt lat="45.984883926249765" lon="12.478915389448924"><ele>27.0</ele><time>2026-04-25T08:23:42.999Z</time></trkpt><trkpt lat="45.9849052919315" lon="12.478768539155359"><ele>27.333333333333332</ele><time>2026-04-25T08:23:43.999Z</time></trkpt><trkpt lat="45.98491827153682" lon="12.478634860646128"><ele>27.666666666666664</ele><time>2026-04-25T08:23:44.999Z</time></trkpt><trkpt lat="45.98491846407569" lon="12.47850935782451"><ele>28.0</ele><time>2026-04-25T08:23:45.999Z</time></trkpt><trkpt lat="45.98490702613234" lon="12.47838396744864"><ele>28.333333333333332</ele><time>2026-04-25T08:23:46.999Z</time></trkpt><trkpt lat="45.984885371141665" lon="12.478267506918618"><ele>28.666666666666664</ele><time>2026-04-25T08:23:47.999Z</time></trkpt><trkpt lat="45.98485418844503" lon="12.478151687562189"><ele>29.0</ele><time>2026-04-25T08:23:48.999Z</time></trkpt><trkpt lat="45.984823250920456" lon="12.478044908641895"><ele>29.166666666666664</ele><time>2026-04-25T08:23:49.999Z</time></trkpt><trkpt lat="45.9847938890467" lon="12.477931502684674"><ele>29.333333333333332</ele><time>2026-04-25T08:23:50.999Z</time></trkpt><trkpt lat="45.984767360241015" lon="12.477811943192325"><ele>29.5</ele><time>2026-04-25T08:23:51.999Z</time></trkpt><trkpt lat="45.984749290539696" lon="12.477689628494685"><ele>29.666666666666664</ele><time>2026-04-25T08:23:52.999Z</time></trkpt><trkpt lat="45.98473601779915" lon="12.477571953466104"><ele>29.833333333333332</ele><time>2026-04-25T08:23:53.999Z</time></trkpt><trkpt lat="45.98472280489806" lon="12.47746229654282"><ele>30.0</ele><time>2026-04-25T08:23:54.999Z</time></trkpt><trkpt lat="45.98471109525447" lon="12.477353200518337"><ele>30.0</ele><time>2026-04-25T08:23:55.999Z</time></trkpt><trkpt lat="45.98470961739188" lon="12.47725962474993"><ele>30.0</ele><time>2026-04-25T08:23:56.999Z</time></trkpt><trkpt lat="45.984719872135926" lon="12.477105052723061"><ele>30.0</ele><time>2026-04-25T08:23:58.999Z</time></trkpt><trkpt lat="45.98473607021603" lon="12.476992970754559"><ele>30.0</ele><time>2026-04-25T08:24:01.999Z</time></trkpt><trkpt lat="45.98477212108566" lon="12.476886623218181"><ele>30.0</ele><time>2026-04-25T08:24:04.999Z</time></trkpt><trkpt lat="45.98466579430212" lon="12.47679947741523"><ele>30.666666666666668</ele><time>2026-04-25T08:24:07.999Z</time></trkpt><trkpt lat="45.98459444387671" lon="12.476754446515052"><ele>31.333333333333336</ele><time>2026-04-25T08:24:11.999Z</time></trkpt><trkpt lat="45.9845219116586" lon="12.476674447365832"><ele>32.0</ele><time>2026-04-25T08:24:44Z</time></trkpt><trkpt lat="45.98444548613905" lon="12.476621438130241"><ele>32.66666666666667</ele><time>2026-04-25T08:24:46Z</time></trkpt><trkpt lat="45.984396445147325" lon="12.47656030222896"><ele>33.333333333333336</ele><time>2026-04-25T08:24:48Z</time></trkpt><trkpt lat="45.98433941783505" lon="12.476496238369089"><ele>34.0</ele><time>2026-04-25T08:24:50Z</time></trkpt><trkpt lat="45.984296671108375" lon="12.476407791761321"><ele>34.2</ele><time>2026-04-25T08:24:52Z</time></trkpt><trkpt lat="45.98435625435552" lon="12.476262174754426"><ele>34.4</ele><time>2026-04-25T08:24:54Z</time></trkpt><trkpt lat="45.98438533056987" lon="12.476168824698586"><ele>34.6</ele><time>2026-04-25T08:24:55Z</time></trkpt><trkpt lat="45.9844083479843" lon="12.476040082803516"><ele>34.8</ele><time>2026-04-25T08:24:56Z</time></trkpt><trkpt lat="45.98447146254241" lon="12.475889907369456"><ele>35.0</ele><time>2026-04-25T08:24:57Z</time></trkpt><trkpt lat="45.98451822556164" lon="12.47568487337834"><ele>35.0</ele><time>2026-04-25T08:24:58Z</time></trkpt><trkpt lat="45.98458393804833" lon="12.475492005533749"><ele>35.0</ele><time>2026-04-25T08:24:59Z</time></trkpt><trkpt lat="45.98465825441336" lon="12.475338196382168"><ele>35.0</ele><time>2026-04-25T08:25:00Z</time></trkpt><trkpt lat="45.9847148999405" lon="12.4752043972634"><ele>35.0</ele><time>2026-04-25T08:25:01Z</time></trkpt><trkpt lat="45.98477744920787" lon="12.4750933036044"><ele>35.0</ele><time>2026-04-25T08:25:02Z</time></trkpt><trkpt lat="45.98483476522627" lon="12.474973728079446"><ele>35.0</ele><time>2026-04-25T08:25:03Z</time></trkpt><trkpt lat="45.984895631973714" lon="12.474880776840774"><ele>35.0</ele><time>2026-04-25T08:25:04Z</time></trkpt><trkpt lat="45.984955668380096" lon="12.474763176647047"><ele>35.0</ele><time>2026-04-25T08:25:05Z</time></trkpt><trkpt lat="45.98502316623147" lon="12.474636527682621"><ele>35.0</ele><time>2026-04-25T08:25:06Z</time></trkpt><trkpt lat="45.98507179981376" lon="12.474483103753123"><ele>36.0</ele><time>2026-04-25T08:25:07Z</time></trkpt><trkpt lat="45.985107025957376" lon="12.474310073753838"><ele>37.0</ele><time>2026-04-25T08:25:08Z</time></trkpt><trkpt lat="45.985156830764836" lon="12.474150728390109"><ele>38.0</ele><time>2026-04-25T08:25:09Z</time></trkpt><trkpt lat="45.98520992577657" lon="12.474002827158142"><ele>39.0</ele><time>2026-04-25T08:25:10Z</time></trkpt><trkpt lat="45.98528111406198" lon="12.473855918529066"><ele>40.25</ele><time>2026-04-25T08:25:11Z</time></trkpt><trkpt lat="45.98537957564407" lon="12.473719677372417"><ele>41.5</ele><time>2026-04-25T08:25:12Z</time></trkpt><trkpt lat="45.98548434523174" lon="12.473592293752194"><ele>42.75</ele><time>2026-04-25T08:25:13Z</time></trkpt><trkpt lat="45.985592017120126" lon="12.473478070265816"><ele>44.0</ele><time>2026-04-25T08:25:14Z</time></trkpt><trkpt lat="45.98570491841435" lon="12.473385182102158"><ele>44.0</ele><time>2026-04-25T08:25:15Z</time></trkpt><trkpt lat="45.985802556619646" lon="12.473280801150931"><ele>44.0</ele><time>2026-04-25T08:25:16Z</time></trkpt><trkpt lat="45.98588553143495" lon="12.473191057425787"><ele>44.0</ele><time>2026-04-25T08:25:17Z</time></trkpt><trkpt lat="45.98595963857109" lon="12.47308429044359"><ele>44.0</ele><time>2026-04-25T08:25:18Z</time></trkpt><trkpt lat="45.98605310508305" lon="12.473003621351163"><ele>44.0</ele><time>2026-04-25T08:25:19Z</time></trkpt><trkpt lat="45.98616068983407" lon="12.472941537006106"><ele>45.25</ele><time>2026-04-25T08:25:19.999Z</time></trkpt><trkpt lat="45.986276536437785" lon="12.472914584302707"><ele>46.5</ele><time>2026-04-25T08:25:20.999Z</time></trkpt><trkpt lat="45.98640866796918" lon="12.47292562494865"><ele>47.75</ele><time>2026-04-25T08:25:21.999Z</time></trkpt><trkpt lat="45.986545193011565" lon="12.472968747563613"><ele>49.0</ele><time>2026-04-25T08:25:22.999Z</time></trkpt><trkpt lat="45.986687501762496" lon="12.473030395691861"><ele>49.0</ele><time>2026-04-25T08:25:23.999Z</time></trkpt><trkpt lat="45.986811447333906" lon="12.47308029635347"><ele>49.0</ele><time>2026-04-25T08:25:24.999Z</time></trkpt><trkpt lat="45.98691726349105" lon="12.473109696845027"><ele>49.0</ele><time>2026-04-25T08:25:25.999Z</time></trkpt><trkpt lat="45.9870236763885" lon="12.473111927055156"><ele>49.0</ele><time>2026-04-25T08:25:26.999Z</time></trkpt><trkpt lat="45.9871254896403" lon="12.473086179134507"><ele>49.0</ele><time>2026-04-25T08:25:27.999Z</time></trkpt><trkpt lat="45.98722369158729" lon="12.473026111758294"><ele>49.75</ele><time>2026-04-25T08:25:28.999Z</time></trkpt><trkpt lat="45.98731921233497" lon="12.472924420932621"><ele>50.5</ele><time>2026-04-25T08:25:29.999Z</time></trkpt><trkpt lat="45.98741194980416" lon="12.47280564968495"><ele>51.25</ele><time>2026-04-25T08:25:30.999Z</time></trkpt><trkpt lat="45.98750170459236" lon="12.472672016853725"><ele>52.0</ele><time>2026-04-25T08:25:31.999Z</time></trkpt><trkpt lat="45.98758517259032" lon="12.472505369108376"><ele>52.0</ele><time>2026-04-25T08:25:32.999Z</time></trkpt><trkpt lat="45.98764822233624" lon="12.472333398104814"><ele>52.0</ele><time>2026-04-25T08:25:33.999Z</time></trkpt><trkpt lat="45.987690904136635" lon="12.47214888809438"><ele>52.0</ele><time>2026-04-25T08:25:34.999Z</time></trkpt><trkpt lat="45.98772246888062" lon="12.47195260763179"><ele>52.0</ele><time>2026-04-25T08:25:35.999Z</time></trkpt><trkpt lat="45.98775412185913" lon="12.471756792681962"><ele>52.0</ele><time>2026-04-25T08:25:36.999Z</time></trkpt><trkpt lat="45.98778710979193" lon="12.471572384570381"><ele>52.0</ele><time>2026-04-25T08:25:37.999Z</time></trkpt><trkpt lat="45.98781553820234" lon="12.47139802119228"><ele>52.0</ele><time>2026-04-25T08:25:38.999Z</time></trkpt><trkpt lat="45.9878453114217" lon="12.47122988790457"><ele>52.0</ele><time>2026-04-25T08:25:39.999Z</time></trkpt><trkpt lat="45.98787846245862" lon="12.471052640050198"><ele>54.0</ele><time>2026-04-25T08:25:40.999Z</time></trkpt><trkpt lat="45.98791003147856" lon="12.470859926746488"><ele>56.0</ele><time>2026-04-25T08:25:41.999Z</time></trkpt><trkpt lat="45.987942996823996" lon="12.470663749431868"><ele>58.0</ele><time>2026-04-25T08:25:42.999Z</time></trkpt><trkpt lat="45.98797541283868" lon="12.470471039576488"><ele>60.0</ele><time>2026-04-25T08:25:43.999Z</time></trkpt><trkpt lat="45.98800625827007" lon="12.470279848179631"><ele>60.75</ele><time>2026-04-25T08:25:44.999Z</time></trkpt><trkpt lat="45.98803638769452" lon="12.470103900996536"><ele>61.5</ele><time>2026-04-25T08:25:45.999Z</time></trkpt><trkpt lat="45.988064461290676" lon="12.469941413952839"><ele>62.25</ele><time>2026-04-25T08:25:46.999Z</time></trkpt><trkpt lat="45.988092116082036" lon="12.469784849150585"><ele>63.0</ele><time>2026-04-25T08:25:47.999Z</time></trkpt><trkpt lat="45.98812149183503" lon="12.469625059007255"><ele>64.5</ele><time>2026-04-25T08:25:48.999Z</time></trkpt><trkpt lat="45.98814965824188" lon="12.469451132488276"><ele>66.0</ele><time>2026-04-25T08:25:49.999Z</time></trkpt><trkpt lat="45.988177877104945" lon="12.469276062182272"><ele>67.5</ele><time>2026-04-25T08:25:50.999Z</time></trkpt><trkpt lat="45.98821421403917" lon="12.469101513926425"><ele>69.0</ele><time>2026-04-25T08:25:51.999Z</time></trkpt><trkpt lat="45.988273565964015" lon="12.468927101630861"><ele>70.5</ele><time>2026-04-25T08:25:52.999Z</time></trkpt><trkpt lat="45.98835193207826" lon="12.468769726820135"><ele>72.0</ele><time>2026-04-25T08:25:53.999Z</time></trkpt><trkpt lat="45.98844368453686" lon="12.468629524091119"><ele>73.5</ele><time>2026-04-25T08:25:54.999Z</time></trkpt><trkpt lat="45.988547938416204" lon="12.468504790881251"><ele>75.0</ele><time>2026-04-25T08:25:55.999Z</time></trkpt><trkpt lat="45.98866989266706" lon="12.468399160528211"><ele>75.0</ele><time>2026-04-25T08:25:56.999Z</time></trkpt><trkpt lat="45.98880874844203" lon="12.468308578882395"><ele>75.0</ele><time>2026-04-25T08:25:57.999Z</time></trkpt><trkpt lat="45.988962260894944" lon="12.468206299818691"><ele>75.0</ele><time>2026-04-25T08:25:58.999Z</time></trkpt><trkpt lat="45.9891196183722" lon="12.46809216767423"><ele>75.75</ele><time>2026-04-25T08:25:59.999Z</time></trkpt><trkpt lat="45.98926062293102" lon="12.467988514544224"><ele>76.5</ele><time>2026-04-25T08:26:00.999Z</time></trkpt><trkpt lat="45.9893898646777" lon="12.467897645815754"><ele>77.25</ele><time>2026-04-25T08:26:01.999Z</time></trkpt><trkpt lat="45.989519491477495" lon="12.467808445270474"><ele>78.0</ele><time>2026-04-25T08:26:02.999Z</time></trkpt><trkpt lat="45.98965050339818" lon="12.467716925835123"><ele>78.0</ele><time>2026-04-25T08:26:03.999Z</time></trkpt><trkpt lat="45.98978216314699" lon="12.467625321504995"><ele>78.0</ele><time>2026-04-25T08:26:04.999Z</time></trkpt><trkpt lat="45.98991446052661" lon="12.467534619253161"><ele>78.0</ele><time>2026-04-25T08:26:05.999Z</time></trkpt><trkpt lat="45.99004543791039" lon="12.467445781040295"><ele>78.0</ele><time>2026-04-25T08:26:06.999Z</time></trkpt><trkpt lat="45.990174822174815" lon="12.467355565523732"><ele>78.5</ele><time>2026-04-25T08:26:07.999Z</time></trkpt><trkpt lat="45.990305068391514" lon="12.467265308984963"><ele>79.0</ele><time>2026-04-25T08:26:08.999Z</time></trkpt><trkpt lat="45.99042487244066" lon="12.467182843187699"><ele>79.5</ele><time>2026-04-25T08:26:09.999Z</time></trkpt><trkpt lat="45.99052953464507" lon="12.467112107258115"><ele>80.0</ele><time>2026-04-25T08:26:10.999Z</time></trkpt><trkpt lat="45.99062519449803" lon="12.467048974646257"><ele>80.4</ele><time>2026-04-25T08:26:11.999Z</time></trkpt><trkpt lat="45.99071426486959" lon="12.466997058911753"><ele>80.8</ele><time>2026-04-25T08:26:12.999Z</time></trkpt><trkpt lat="45.990797860996054" lon="12.466952081286147"><ele>81.19999999999999</ele><time>2026-04-25T08:26:13.999Z</time></trkpt><trkpt lat="45.99088450057753" lon="12.466909489995677"><ele>81.6</ele><time>2026-04-25T08:26:14.999Z</time></trkpt><trkpt lat="45.990969912060045" lon="12.466861659730386"><ele>82.0</ele><time>2026-04-25T08:26:15.999Z</time></trkpt><trkpt lat="45.99106623728293" lon="12.466809423206307"><ele>83.25</ele><time>2026-04-25T08:26:16.999Z</time></trkpt><trkpt lat="45.991173410012976" lon="12.4667490634927"><ele>84.5</ele><time>2026-04-25T08:26:17.999Z</time></trkpt><trkpt lat="45.991281490018814" lon="12.46669464523754"><ele>85.75</ele><time>2026-04-25T08:26:18.999Z</time></trkpt><trkpt lat="45.99138718379089" lon="12.466640775162965"><ele>87.0</ele><time>2026-04-25T08:26:19.999Z</time></trkpt><trkpt lat="45.99148917240808" lon="12.466576936978578"><ele>87.0</ele><time>2026-04-25T08:26:20.999Z</time></trkpt><trkpt lat="45.99160069926797" lon="12.466514650543184"><ele>87.0</ele><time>2026-04-25T08:26:21.999Z</time></trkpt><trkpt lat="45.99171187397694" lon="12.466454283113265"><ele>87.0</ele><time>2026-04-25T08:26:22.999Z</time></trkpt><trkpt lat="45.99181749680115" lon="12.466393081328693"><ele>87.0</ele><time>2026-04-25T08:26:23.999Z</time></trkpt><trkpt lat="45.99191570680689" lon="12.466337104644342"><ele>88.25</ele><time>2026-04-25T08:26:24.999Z</time></trkpt><trkpt lat="45.99201406096251" lon="12.466281957109198"><ele>89.5</ele><time>2026-04-25T08:26:25.999Z</time></trkpt><trkpt lat="45.9921202719923" lon="12.466222333697552"><ele>90.75</ele><time>2026-04-25T08:26:26.999Z</time></trkpt><trkpt lat="45.992233611413205" lon="12.466160585192338"><ele>92.0</ele><time>2026-04-25T08:26:27.999Z</time></trkpt><trkpt lat="45.992350917526224" lon="12.466101502925433"><ele>93.0</ele><time>2026-04-25T08:26:28.999Z</time></trkpt><trkpt lat="45.99246917557801" lon="12.466040145989814"><ele>94.0</ele><time>2026-04-25T08:26:29.999Z</time></trkpt><trkpt lat="45.992584896720395" lon="12.46597604111559"><ele>95.0</ele><time>2026-04-25T08:26:30.999Z</time></trkpt><trkpt lat="45.99269839691559" lon="12.465911630376706"><ele>96.0</ele><time>2026-04-25T08:26:31.999Z</time></trkpt><trkpt lat="45.99280218840773" lon="12.465852652943912"><ele>96.4</ele><time>2026-04-25T08:26:32.999Z</time></trkpt><trkpt lat="45.99289426744354" lon="12.465804516259702"><ele>96.8</ele><time>2026-04-25T08:26:33.999Z</time></trkpt><trkpt lat="45.99298125457147" lon="12.46575821318173"><ele>97.2</ele><time>2026-04-25T08:26:35Z</time></trkpt><trkpt lat="45.99306297423296" lon="12.465705005659613"><ele>97.60000000000001</ele><time>2026-04-25T08:26:36Z</time></trkpt><trkpt lat="45.99315489844335" lon="12.465657552894852"><ele>98.0</ele><time>2026-04-25T08:26:37Z</time></trkpt><trkpt lat="45.99323701338347" lon="12.465600878742764"><ele>97.99999999999999</ele><time>2026-04-25T08:26:38Z</time></trkpt><trkpt lat="45.99331142092385" lon="12.465533959637686"><ele>98.0</ele><time>2026-04-25T08:26:39Z</time></trkpt><trkpt lat="45.99337241282876" lon="12.465458795757792"><ele>98.0</ele><time>2026-04-25T08:26:40Z</time></trkpt><trkpt lat="45.993406509103394" lon="12.465355498020262"><ele>98.0</ele><time>2026-04-25T08:26:41Z</time></trkpt><trkpt lat="45.993401542910966" lon="12.465231191718157"><ele>97.99999999999999</ele><time>2026-04-25T08:26:42Z</time></trkpt><trkpt lat="45.99336985637341" lon="12.465088286066376"><ele>98.0</ele><time>2026-04-25T08:26:43Z</time></trkpt><trkpt lat="45.99333157194129" lon="12.464936457059846"><ele>98.80000000000001</ele><time>2026-04-25T08:26:44Z</time></trkpt><trkpt lat="45.993288654408595" lon="12.464780228169246"><ele>99.6</ele><time>2026-04-25T08:26:45Z</time></trkpt><trkpt lat="45.99325230062349" lon="12.464631865299939"><ele>100.4</ele><time>2026-04-25T08:26:46Z</time></trkpt><trkpt lat="45.99321915830954" lon="12.464504659976635"><ele>101.19999999999999</ele><time>2026-04-25T08:26:47Z</time></trkpt><trkpt lat="45.99319418055559" lon="12.464386778500337"><ele>102.0</ele><time>2026-04-25T08:26:48Z</time></trkpt><trkpt lat="45.99319075082182" lon="12.464260570828555"><ele>102.83333333333333</ele><time>2026-04-25T08:26:49Z</time></trkpt><trkpt lat="45.99321068343572" lon="12.464137715190075"><ele>103.66666666666666</ele><time>2026-04-25T08:26:50Z</time></trkpt><trkpt lat="45.99324949677469" lon="12.464022796780872"><ele>104.5</ele><time>2026-04-25T08:26:51Z</time></trkpt><trkpt lat="45.993293082762236" lon="12.463906875109265"><ele>105.33333333333333</ele><time>2026-04-25T08:26:52Z</time></trkpt><trkpt lat="45.99333065656533" lon="12.463791487538826"><ele>106.16666666666666</ele><time>2026-04-25T08:26:53Z</time></trkpt><trkpt lat="45.99336094179677" lon="12.46370312204183"><ele>107.0</ele><time>2026-04-25T08:26:54Z</time></trkpt><trkpt lat="45.993400118422464" lon="12.463590340195097"><ele>107.99999999999999</ele><time>2026-04-25T08:26:56Z</time></trkpt><trkpt lat="45.993433122955324" lon="12.463511854690287"><ele>109.0</ele><time>2026-04-25T08:26:59Z</time></trkpt><trkpt lat="45.99351031224923" lon="12.46342256460653"><ele>110.0</ele><time>2026-04-25T08:27:03Z</time></trkpt><trkpt lat="45.99358300489492" lon="12.463469640550779"><ele>111.0</ele><time>2026-04-25T08:27:04Z</time></trkpt><trkpt lat="45.99364860234836" lon="12.46355504535355"><ele>111.99999999999999</ele><time>2026-04-25T08:27:05Z</time></trkpt><trkpt lat="45.99373275205946" lon="12.463620139564972"><ele>113.0</ele><time>2026-04-25T08:27:06Z</time></trkpt><trkpt lat="45.99381740774268" lon="12.463687262880688"><ele>113.0</ele><time>2026-04-25T08:27:07Z</time></trkpt><trkpt lat="45.993895255098074" lon="12.463753160146686"><ele>113.00000000000001</ele><time>2026-04-25T08:27:08Z</time></trkpt><trkpt lat="45.99395756064237" lon="12.463804965886839"><ele>113.00000000000001</ele><time>2026-04-25T08:27:09Z</time></trkpt><trkpt lat="45.994017256549085" lon="12.46384542388702"><ele>113.0</ele><time>2026-04-25T08:27:10Z</time></trkpt><trkpt lat="45.994123354558376" lon="12.463920144353187"><ele>113.0</ele><time>2026-04-25T08:27:12Z</time></trkpt><trkpt lat="45.99424540522575" lon="12.463979371624688"><ele>112.33333333333333</ele><time>2026-04-25T08:27:14Z</time></trkpt><trkpt lat="45.994320335971025" lon="12.464008214577744"><ele>111.66666666666666</ele><time>2026-04-25T08:27:15Z</time></trkpt><trkpt lat="45.99439716126195" lon="12.464041057460731"><ele>111.0</ele><time>2026-04-25T08:27:16Z</time></trkpt><trkpt lat="45.99447588470771" lon="12.464073876119496"><ele>110.33333333333334</ele><time>2026-04-25T08:27:17Z</time></trkpt><trkpt lat="45.994550886592044" lon="12.46411081954959"><ele>109.66666666666667</ele><time>2026-04-25T08:27:18Z</time></trkpt><trkpt lat="45.994626720490615" lon="12.464151920787794"><ele>109.0</ele><time>2026-04-25T08:27:19Z</time></trkpt><trkpt lat="45.994701554908055" lon="12.464198834294109"><ele>109.00000000000001</ele><time>2026-04-25T08:27:20Z</time></trkpt><trkpt lat="45.99477513707457" lon="12.46425169385255"><ele>109.0</ele><time>2026-04-25T08:27:21Z</time></trkpt><trkpt lat="45.99485181380534" lon="12.464305318020914"><ele>109.0</ele><time>2026-04-25T08:27:22Z</time></trkpt><trkpt lat="45.99492023157943" lon="12.464362798119526"><ele>109.0</ele><time>2026-04-25T08:27:23Z</time></trkpt><trkpt lat="45.99500947962457" lon="12.464446050101603"><ele>109.00000000000001</ele><time>2026-04-25T08:27:24.999Z</time></trkpt><trkpt lat="45.99506566361925" lon="12.464494118115807"><ele>109.0</ele><time>2026-04-25T08:27:28.999Z</time></trkpt><trkpt lat="45.99513733547502" lon="12.464551326491003"><ele>109.16666666666667</ele><time>2026-04-25T08:27:32.999Z</time></trkpt><trkpt lat="45.99525342204106" lon="12.46448525726612"><ele>109.33333333333334</ele><time>2026-04-25T08:27:34.999Z</time></trkpt><trkpt lat="45.995325664468595" lon="12.46446440380642"><ele>109.5</ele><time>2026-04-25T08:27:35.999Z</time></trkpt><trkpt lat="45.9954059398422" lon="12.46442869894276"><ele>109.66666666666666</ele><time>2026-04-25T08:27:36.999Z</time></trkpt><trkpt lat="45.99548659479725" lon="12.464380831824228"><ele>109.83333333333333</ele><time>2026-04-25T08:27:37.999Z</time></trkpt><trkpt lat="45.995554490055596" lon="12.464344936355966"><ele>110.0</ele><time>2026-04-25T08:27:38.999Z</time></trkpt><trkpt lat="45.9956252292323" lon="12.46431118856816"><ele>109.99999999999999</ele><time>2026-04-25T08:27:39.999Z</time></trkpt><trkpt lat="45.99569572788022" lon="12.464266079039373"><ele>110.0</ele><time>2026-04-25T08:27:40.999Z</time></trkpt><trkpt lat="45.995771437733374" lon="12.464218722344555"><ele>110.0</ele><time>2026-04-25T08:27:41.999Z</time></trkpt><trkpt lat="45.995847474143794" lon="12.464166727272042"><ele>110.0</ele><time>2026-04-25T08:27:42.999Z</time></trkpt><trkpt lat="45.99590287610063" lon="12.464122454705246"><ele>110.0</ele><time>2026-04-25T08:27:43.999Z</time></trkpt><trkpt lat="45.995965623298844" lon="12.464073800633502"><ele>109.99999999999999</ele><time>2026-04-25T08:27:45.999Z</time></trkpt><trkpt lat="45.996018152821456" lon="12.464023792127906"><ele>110.0</ele><time>2026-04-25T08:27:53.999Z</time></trkpt><trkpt lat="45.995964596910106" lon="12.463781348508572"><ele>111.25</ele><time>2026-04-25T08:27:56.999Z</time></trkpt><trkpt lat="45.99591199452883" lon="12.46364093690137"><ele>112.5</ele><time>2026-04-25T08:27:57.999Z</time></trkpt><trkpt lat="45.99585967684008" lon="12.463479075476295"><ele>113.75</ele><time>2026-04-25T08:27:58.999Z</time></trkpt><trkpt lat="45.995805620139" lon="12.463314205276832"><ele>115.0</ele><time>2026-04-25T08:27:59.999Z</time></trkpt><trkpt lat="45.995759905270425" lon="12.463183944173881"><ele>115.2</ele><time>2026-04-25T08:28:00.999Z</time></trkpt><trkpt lat="45.9957220557332" lon="12.463077884915217"><ele>115.4</ele><time>2026-04-25T08:28:01.999Z</time></trkpt><trkpt lat="45.99568933880557" lon="12.462972475151913"><ele>115.6</ele><time>2026-04-25T08:28:02.999Z</time></trkpt><trkpt lat="45.99565459584736" lon="12.462852706292402"><ele>115.8</ele><time>2026-04-25T08:28:03.999Z</time></trkpt><trkpt lat="45.99561325630914" lon="12.462714011995955"><ele>116.0</ele><time>2026-04-25T08:28:04.999Z</time></trkpt><trkpt lat="45.99556869635281" lon="12.462561420177899"><ele>117.16666666666666</ele><time>2026-04-25T08:28:05.999Z</time></trkpt><trkpt lat="45.99553420998672" lon="12.46242952655162"><ele>118.33333333333333</ele><time>2026-04-25T08:28:06.999Z</time></trkpt><trkpt lat="45.99550877463475" lon="12.462309184554057"><ele>119.5</ele><time>2026-04-25T08:28:07.999Z</time></trkpt><trkpt lat="45.995481909952" lon="12.46219780398036"><ele>120.66666666666666</ele><time>2026-04-25T08:28:08.999Z</time></trkpt><trkpt lat="45.9954721475778" lon="12.46208875629005"><ele>121.83333333333333</ele><time>2026-04-25T08:28:09.999Z</time></trkpt><trkpt lat="45.99543579018394" lon="12.462002896300262"><ele>123.0</ele><time>2026-04-25T08:28:10.999Z</time></trkpt><trkpt lat="45.995400528989514" lon="12.461847252759338"><ele>124.71428571428572</ele><time>2026-04-25T08:28:12.999Z</time></trkpt><trkpt lat="45.99537947628143" lon="12.461752688341022"><ele>126.42857142857143</ele><time>2026-04-25T08:28:13.999Z</time></trkpt><trkpt lat="45.995354875539824" lon="12.461652046869217"><ele>128.14285714285714</ele><time>2026-04-25T08:28:14.999Z</time></trkpt><trkpt lat="45.995330142819796" lon="12.461554730782652"><ele>129.85714285714286</ele><time>2026-04-25T08:28:15.999Z</time></trkpt><trkpt lat="45.99530745955393" lon="12.461461002456707"><ele>131.57142857142856</ele><time>2026-04-25T08:28:16.999Z</time></trkpt><trkpt lat="45.99528882928386" lon="12.461364329197409"><ele>133.28571428571428</ele><time>2026-04-25T08:28:17.999Z</time></trkpt><trkpt lat="45.99526577663456" lon="12.461265067441305"><ele>135.0</ele><time>2026-04-25T08:28:18.999Z</time></trkpt><trkpt lat="45.99523743331511" lon="12.46116538269369"><ele>136.14285714285714</ele><time>2026-04-25T08:28:19.999Z</time></trkpt><trkpt lat="45.995215240724164" lon="12.461065444369485"><ele>137.28571428571428</ele><time>2026-04-25T08:28:20.999Z</time></trkpt><trkpt lat="45.99518930163383" lon="12.460971938458016"><ele>138.42857142857142</ele><time>2026-04-25T08:28:21.999Z</time></trkpt><trkpt lat="45.99516450868403" lon="12.460868192257859"><ele>139.57142857142856</ele><time>2026-04-25T08:28:22.999Z</time></trkpt><trkpt lat="45.995140080444095" lon="12.460767273382407"><ele>140.71428571428572</ele><time>2026-04-25T08:28:23.999Z</time></trkpt><trkpt lat="45.99511695680723" lon="12.460669991452177"><ele>141.85714285714283</ele><time>2026-04-25T08:28:24.999Z</time></trkpt><trkpt lat="45.995092964494745" lon="12.460578394922337"><ele>143.0</ele><time>2026-04-25T08:28:25.999Z</time></trkpt><trkpt lat="45.995065125334335" lon="12.460488522283786"><ele>142.6</ele><time>2026-04-25T08:28:26.999Z</time></trkpt><trkpt lat="45.995034735616656" lon="12.460385216061239"><ele>142.20000000000002</ele><time>2026-04-25T08:28:27.999Z</time></trkpt><trkpt lat="45.99498143745779" lon="12.460275723600938"><ele>141.8</ele><time>2026-04-25T08:28:28.999Z</time></trkpt><trkpt lat="45.994912934693225" lon="12.460131635751496"><ele>141.4</ele><time>2026-04-25T08:28:29.999Z</time></trkpt><trkpt lat="45.99483050493665" lon="12.459956885928817"><ele>141.0</ele><time>2026-04-25T08:28:30.999Z</time></trkpt><trkpt lat="45.994745230158514" lon="12.459776396298897"><ele>142.75</ele><time>2026-04-25T08:28:31.999Z</time></trkpt><trkpt lat="45.99466696009822" lon="12.459606653095312"><ele>144.5</ele><time>2026-04-25T08:28:32.999Z</time></trkpt><trkpt lat="45.994585243053706" lon="12.459442648453038"><ele>146.25</ele><time>2026-04-25T08:28:33.999Z</time></trkpt><trkpt lat="45.9944896165467" lon="12.45928539724235"><ele>148.0</ele><time>2026-04-25T08:28:34.999Z</time></trkpt><trkpt lat="45.99436675237531" lon="12.459144436151833"><ele>148.0</ele><time>2026-04-25T08:28:35.999Z</time></trkpt><trkpt lat="45.99422509816683" lon="12.459017482321595"><ele>148.0</ele><time>2026-04-25T08:28:36.999Z</time></trkpt><trkpt lat="45.99408281080595" lon="12.458894110916287"><ele>148.0</ele><time>2026-04-25T08:28:37.999Z</time></trkpt><trkpt lat="45.99393999027979" lon="12.45876313906775"><ele>148.0</ele><time>2026-04-25T08:28:38.999Z</time></trkpt><trkpt lat="45.993799270574385" lon="12.458629887918734"><ele>148.0</ele><time>2026-04-25T08:28:39.999Z</time></trkpt><trkpt lat="45.993672332663365" lon="12.45848206590908"><ele>148.0</ele><time>2026-04-25T08:28:41Z</time></trkpt><trkpt lat="45.99355582219842" lon="12.458323365623341"><ele>148.0</ele><time>2026-04-25T08:28:42Z</time></trkpt><trkpt lat="45.99345622604331" lon="12.458166961507171"><ele>148.0</ele><time>2026-04-25T08:28:43Z</time></trkpt><trkpt lat="45.99337958914768" lon="12.458006105964804"><ele>148.0</ele><time>2026-04-25T08:28:44Z</time></trkpt><trkpt lat="45.993317310979336" lon="12.457841365619547"><ele>148.0</ele><time>2026-04-25T08:28:45Z</time></trkpt><trkpt lat="45.993267748312455" lon="12.45766310418729"><ele>147.75</ele><time>2026-04-25T08:28:46Z</time></trkpt><trkpt lat="45.993239245447455" lon="12.457472118438606"><ele>147.5</ele><time>2026-04-25T08:28:47Z</time></trkpt><trkpt lat="45.993240904753875" lon="12.457267642027674"><ele>147.25</ele><time>2026-04-25T08:28:48Z</time></trkpt><trkpt lat="45.993195342181835" lon="12.457078166668206"><ele>147.0</ele><time>2026-04-25T08:28:49Z</time></trkpt><trkpt lat="45.993139839099975" lon="12.456884642161464"><ele>150.5</ele><time>2026-04-25T08:28:50Z</time></trkpt><trkpt lat="45.99309385498478" lon="12.456696491257112"><ele>154.0</ele><time>2026-04-25T08:28:51Z</time></trkpt><trkpt lat="45.99308121321316" lon="12.456505783313803"><ele>157.5</ele><time>2026-04-25T08:28:52Z</time></trkpt><trkpt lat="45.99304800307453" lon="12.45631585823662"><ele>161.0</ele><time>2026-04-25T08:28:53Z</time></trkpt><trkpt lat="45.99303333030635" lon="12.45611807257093"><ele>164.0</ele><time>2026-04-25T08:28:54Z</time></trkpt><trkpt lat="45.99301079840278" lon="12.455927630009295"><ele>167.0</ele><time>2026-04-25T08:28:55Z</time></trkpt><trkpt lat="45.992993571730295" lon="12.455773787743457"><ele>170.0</ele><time>2026-04-25T08:28:56Z</time></trkpt><trkpt lat="45.9929807564797" lon="12.455632976858745"><ele>173.0</ele><time>2026-04-25T08:28:57Z</time></trkpt><trkpt lat="45.99296697603699" lon="12.45549233373929"><ele>176.0</ele><time>2026-04-25T08:28:58Z</time></trkpt><trkpt lat="45.99294991346555" lon="12.455363996234583"><ele>177.20000000000002</ele><time>2026-04-25T08:28:59Z</time></trkpt><trkpt lat="45.99293667893198" lon="12.455241202693996"><ele>178.4</ele><time>2026-04-25T08:29:00Z</time></trkpt><trkpt lat="45.992923985819345" lon="12.455118089594142"><ele>179.6</ele><time>2026-04-25T08:29:01Z</time></trkpt><trkpt lat="45.99290830287958" lon="12.454988607043676"><ele>180.8</ele><time>2026-04-25T08:29:02Z</time></trkpt><trkpt lat="45.99289241780478" lon="12.45485062781168"><ele>182.0</ele><time>2026-04-25T08:29:03Z</time></trkpt><trkpt lat="45.99287725439523" lon="12.454697659558676"><ele>184.2</ele><time>2026-04-25T08:29:04Z</time></trkpt><trkpt lat="45.99286490940216" lon="12.454537009449073"><ele>186.39999999999998</ele><time>2026-04-25T08:29:05Z</time></trkpt><trkpt lat="45.992859129547305" lon="12.454393643201616"><ele>188.60000000000002</ele><time>2026-04-25T08:29:06Z</time></trkpt><trkpt lat="45.99285624062351" lon="12.454255916037576"><ele>190.8</ele><time>2026-04-25T08:29:07Z</time></trkpt><trkpt lat="45.9928592001089" lon="12.454120712101743"><ele>193.0</ele><time>2026-04-25T08:29:08Z</time></trkpt><trkpt lat="45.99286690178078" lon="12.453988442995978"><ele>193.0</ele><time>2026-04-25T08:29:09Z</time></trkpt><trkpt lat="45.992891755161665" lon="12.453854209417601"><ele>193.0</ele><time>2026-04-25T08:29:10Z</time></trkpt><trkpt lat="45.992908883631266" lon="12.453709790029436"><ele>193.0</ele><time>2026-04-25T08:29:11Z</time></trkpt><trkpt lat="45.992930025672116" lon="12.453561517728815"><ele>193.0</ele><time>2026-04-25T08:29:12Z</time></trkpt><trkpt lat="45.99293875415765" lon="12.453403209683406"><ele>193.0</ele><time>2026-04-25T08:29:13Z</time></trkpt><trkpt lat="45.99296215590021" lon="12.453253472317495"><ele>193.49999999999997</ele><time>2026-04-25T08:29:14Z</time></trkpt><trkpt lat="45.99299934585207" lon="12.453133088514631"><ele>194.0</ele><time>2026-04-25T08:29:15Z</time></trkpt><trkpt lat="45.99300691360586" lon="12.452998691762696"><ele>194.5</ele><time>2026-04-25T08:29:16Z</time></trkpt><trkpt lat="45.99302954723265" lon="12.452884030420327"><ele>195.0</ele><time>2026-04-25T08:29:17Z</time></trkpt><trkpt lat="45.99304555223196" lon="12.452766803163119"><ele>195.49999999999997</ele><time>2026-04-25T08:29:18Z</time></trkpt><trkpt lat="45.993041707146936" lon="12.452646887633309"><ele>196.0</ele><time>2026-04-25T08:29:19Z</time></trkpt><trkpt lat="45.99302164341576" lon="12.452524140677587"><ele>195.99999999999997</ele><time>2026-04-25T08:29:20Z</time></trkpt><trkpt lat="45.99293645292985" lon="12.452466719632108"><ele>196.0</ele><time>2026-04-25T08:29:21Z</time></trkpt><trkpt lat="45.99286156764878" lon="12.452443844024073"><ele>196.0</ele><time>2026-04-25T08:29:22Z</time></trkpt><trkpt lat="45.99278003556082" lon="12.452463314174636"><ele>196.0</ele><time>2026-04-25T08:29:23Z</time></trkpt><trkpt lat="45.992712787003136" lon="12.452545432488968"><ele>195.99999999999997</ele><time>2026-04-25T08:29:24Z</time></trkpt><trkpt lat="45.99265344332901" lon="12.452656140781476"><ele>196.0</ele><time>2026-04-25T08:29:25Z</time></trkpt><trkpt lat="45.99258833949428" lon="12.452770712988645"><ele>196.0</ele><time>2026-04-25T08:29:26Z</time></trkpt><trkpt lat="45.99250721433768" lon="12.452892185514703"><ele>196.0</ele><time>2026-04-25T08:29:27Z</time></trkpt><trkpt lat="45.992429074092875" lon="12.453022338458197"><ele>196.0</ele><time>2026-04-25T08:29:27.999Z</time></trkpt><trkpt lat="45.992348167149345" lon="12.453156213834717"><ele>196.0</ele><time>2026-04-25T08:29:28.999Z</time></trkpt><trkpt lat="45.99226682765839" lon="12.453282509480303"><ele>192.60000000000002</ele><time>2026-04-25T08:29:29.999Z</time></trkpt><trkpt lat="45.99219702821392" lon="12.453382886050495"><ele>189.2</ele><time>2026-04-25T08:29:30.999Z</time></trkpt><trkpt lat="45.99212969463443" lon="12.453492193572307"><ele>185.8</ele><time>2026-04-25T08:29:31.999Z</time></trkpt><trkpt lat="45.992058173782105" lon="12.453605904676914"><ele>182.39999999999998</ele><time>2026-04-25T08:29:32.999Z</time></trkpt><trkpt lat="45.991985808028424" lon="12.453719905180263"><ele>179.0</ele><time>2026-04-25T08:29:33.999Z</time></trkpt><trkpt lat="45.99191267478062" lon="12.453834790062876"><ele>175.2</ele><time>2026-04-25T08:29:34.999Z</time></trkpt><trkpt lat="45.99183981008173" lon="12.453950901842873"><ele>171.39999999999998</ele><time>2026-04-25T08:29:35.999Z</time></trkpt><trkpt lat="45.99176610029598" lon="12.454064637263043"><ele>167.6</ele><time>2026-04-25T08:29:36.999Z</time></trkpt><trkpt lat="45.99168723570542" lon="12.454174908268499"><ele>163.8</ele><time>2026-04-25T08:29:37.999Z</time></trkpt><trkpt lat="45.991609007052695" lon="12.454279259366992"><ele>160.0</ele><time>2026-04-25T08:29:38.999Z</time></trkpt><trkpt lat="45.99152645204365" lon="12.454391979944912"><ele>161.75</ele><time>2026-04-25T08:29:39.999Z</time></trkpt><trkpt lat="45.9914317039374" lon="12.454516174586947"><ele>163.5</ele><time>2026-04-25T08:29:40.999Z</time></trkpt><trkpt lat="45.99132718044103" lon="12.454648902866584"><ele>165.25</ele><time>2026-04-25T08:29:41.999Z</time></trkpt><trkpt lat="45.99121070494404" lon="12.454780312120336"><ele>167.0</ele><time>2026-04-25T08:29:42.999Z</time></trkpt><trkpt lat="45.991083298993445" lon="12.4549004798661"><ele>167.0</ele><time>2026-04-25T08:29:43.999Z</time></trkpt><trkpt lat="45.99094648095422" lon="12.45500762897558"><ele>167.0</ele><time>2026-04-25T08:29:44.999Z</time></trkpt><trkpt lat="45.99082480053136" lon="12.455094656187102"><ele>167.0</ele><time>2026-04-25T08:29:45.999Z</time></trkpt><trkpt lat="45.990719491416094" lon="12.455160926081101"><ele>167.0</ele><time>2026-04-25T08:29:46.999Z</time></trkpt><trkpt lat="45.990625618314525" lon="12.455205126772992"><ele>174.0</ele><time>2026-04-25T08:29:47.999Z</time></trkpt><trkpt lat="45.990537579530574" lon="12.455236418608138"><ele>181.0</ele><time>2026-04-25T08:29:48.999Z</time></trkpt><trkpt lat="45.990445045541584" lon="12.455231621899495"><ele>188.0</ele><time>2026-04-25T08:29:49.999Z</time></trkpt><trkpt lat="45.990354661405604" lon="12.455233926344828"><ele>195.0</ele><time>2026-04-25T08:29:50.999Z</time></trkpt><trkpt lat="45.99026337541815" lon="12.455229421034659"><ele>202.0</ele><time>2026-04-25T08:29:51.999Z</time></trkpt><trkpt lat="45.990177138821196" lon="12.455214953589294"><ele>201.99999999999997</ele><time>2026-04-25T08:29:52.999Z</time></trkpt><trkpt lat="45.99011071085206" lon="12.455172449942838"><ele>202.0</ele><time>2026-04-25T08:29:53.999Z</time></trkpt><trkpt lat="45.990028745759936" lon="12.455042077300838"><ele>202.0</ele><time>2026-04-25T08:29:55.999Z</time></trkpt><trkpt lat="45.98998210090358" lon="12.454955516924374"><ele>202.0</ele><time>2026-04-25T08:29:56.999Z</time></trkpt><trkpt lat="45.98995097013252" lon="12.454843256297433"><ele>201.99999999999997</ele><time>2026-04-25T08:29:57.999Z</time></trkpt><trkpt lat="45.98991818071861" lon="12.454722320228647"><ele>202.0</ele><time>2026-04-25T08:29:58.999Z</time></trkpt><trkpt lat="45.98989983099618" lon="12.454596636242103"><ele>204.2</ele><time>2026-04-25T08:29:59.999Z</time></trkpt><trkpt lat="45.98990045635954" lon="12.454467733152562"><ele>206.39999999999998</ele><time>2026-04-25T08:30:00.999Z</time></trkpt><trkpt lat="45.989896472594324" lon="12.454332717385432"><ele>208.60000000000002</ele><time>2026-04-25T08:30:01.999Z</time></trkpt><trkpt lat="45.989880429400685" lon="12.45419090872245"><ele>210.8</ele><time>2026-04-25T08:30:02.999Z</time></trkpt><trkpt lat="45.989812511084416" lon="12.454060508198038"><ele>213.0</ele><time>2026-04-25T08:30:03.999Z</time></trkpt><trkpt lat="45.98975104992214" lon="12.453960240026964"><ele>212.99999999999997</ele><time>2026-04-25T08:30:04.999Z</time></trkpt><trkpt lat="45.98971013142091" lon="12.453874545873173"><ele>213.0</ele><time>2026-04-25T08:30:05.999Z</time></trkpt><trkpt lat="45.98967364505797" lon="12.453796474688644"><ele>213.0</ele><time>2026-04-25T08:30:06.999Z</time></trkpt><trkpt lat="45.98969286217463" lon="12.453696507393866"><ele>213.0</ele><time>2026-04-25T08:30:07.999Z</time></trkpt><trkpt lat="45.9897550292564" lon="12.453632198929073"><ele>213.0</ele><time>2026-04-25T08:30:08.999Z</time></trkpt><trkpt lat="45.98982784365716" lon="12.45363289319984"><ele>212.99999999999997</ele><time>2026-04-25T08:30:09.999Z</time></trkpt><trkpt lat="45.989890571004004" lon="12.453686950899884"><ele>213.0</ele><time>2026-04-25T08:30:10.999Z</time></trkpt><trkpt lat="45.98995363562928" lon="12.453727265706936"><ele>216.33333333333334</ele><time>2026-04-25T08:30:11.999Z</time></trkpt><trkpt lat="45.99002361797228" lon="12.453726190717905"><ele>219.66666666666669</ele><time>2026-04-25T08:30:12.999Z</time></trkpt><trkpt lat="45.99009177770885" lon="12.453681261902755"><ele>223.0</ele><time>2026-04-25T08:30:13.999Z</time></trkpt><trkpt lat="45.99015457462169" lon="12.453599125221487"><ele>226.33333333333334</ele><time>2026-04-25T08:30:14.999Z</time></trkpt><trkpt lat="45.99021088330899" lon="12.453498027984907"><ele>229.66666666666669</ele><time>2026-04-25T08:30:15.999Z</time></trkpt><trkpt lat="45.990258608807316" lon="12.453377456329896"><ele>233.0</ele><time>2026-04-25T08:30:16.999Z</time></trkpt><trkpt lat="45.99028870175859" lon="12.453240937941006"><ele>233.00000000000003</ele><time>2026-04-25T08:30:17.999Z</time></trkpt><trkpt lat="45.99029409535436" lon="12.453117747212833"><ele>233.0</ele><time>2026-04-25T08:30:18.999Z</time></trkpt><trkpt lat="45.99031378629863" lon="12.453026251218727"><ele>233.0</ele><time>2026-04-25T08:30:19.999Z</time></trkpt><trkpt lat="45.990320292117815" lon="12.452922200757946"><ele>233.0</ele><time>2026-04-25T08:30:20.999Z</time></trkpt><trkpt lat="45.99036451005014" lon="12.452832836589385"><ele>233.00000000000003</ele><time>2026-04-25T08:30:21.999Z</time></trkpt><trkpt lat="45.990424444125" lon="12.452761178713349"><ele>233.0</ele><time>2026-04-25T08:30:22.999Z</time></trkpt><trkpt lat="45.99050485805427" lon="12.452723130413233"><ele>231.8</ele><time>2026-04-25T08:30:23.999Z</time></trkpt><trkpt lat="45.990598858509614" lon="12.452707832082861"><ele>230.60000000000002</ele><time>2026-04-25T08:30:24.999Z</time></trkpt><trkpt lat="45.99068811289623" lon="12.452678017971195"><ele>229.39999999999998</ele><time>2026-04-25T08:30:25.999Z</time></trkpt><trkpt lat="45.990771699595584" lon="12.452614337368333"><ele>228.2</ele><time>2026-04-25T08:30:26.999Z</time></trkpt><trkpt lat="45.990850392410465" lon="12.452525335942362"><ele>227.0</ele><time>2026-04-25T08:30:27.999Z</time></trkpt><trkpt lat="45.99093082125926" lon="12.45241588907362"><ele>230.0</ele><time>2026-04-25T08:30:28.999Z</time></trkpt><trkpt lat="45.99096694382964" lon="12.45223569537879"><ele>233.0</ele><time>2026-04-25T08:30:29.999Z</time></trkpt><trkpt lat="45.99099855234607" lon="12.452043083591635"><ele>236.0</ele><time>2026-04-25T08:30:30.999Z</time></trkpt><trkpt lat="45.991013901315654" lon="12.451869283389794"><ele>239.0</ele><time>2026-04-25T08:30:31.999Z</time></trkpt><trkpt lat="45.99103250618232" lon="12.451733611231326"><ele>239.0</ele><time>2026-04-25T08:30:32.999Z</time></trkpt><trkpt lat="45.99106192209345" lon="12.451611863725084"><ele>238.99999999999997</ele><time>2026-04-25T08:30:33.999Z</time></trkpt><trkpt lat="45.99110906802666" lon="12.451504323261439"><ele>238.99999999999997</ele><time>2026-04-25T08:30:34.999Z</time></trkpt><trkpt lat="45.99118006338734" lon="12.451428361829935"><ele>239.0</ele><time>2026-04-25T08:30:35.999Z</time></trkpt><trkpt lat="45.99126651860826" lon="12.451375536387644"><ele>239.0</ele><time>2026-04-25T08:30:36.999Z</time></trkpt><trkpt lat="45.99135125226986" lon="12.451324236944652"><ele>239.0</ele><time>2026-04-25T08:30:37.999Z</time></trkpt><trkpt lat="45.99143811793436" lon="12.451266734594823"><ele>238.99999999999997</ele><time>2026-04-25T08:30:38.999Z</time></trkpt><trkpt lat="45.991528983968166" lon="12.45120579007477"><ele>238.99999999999997</ele><time>2026-04-25T08:30:39.999Z</time></trkpt><trkpt lat="45.991620683248186" lon="12.451146581538932"><ele>239.0</ele><time>2026-04-25T08:30:40.999Z</time></trkpt><trkpt lat="45.991709597629864" lon="12.451094241552655"><ele>239.0</ele><time>2026-04-25T08:30:41.999Z</time></trkpt><trkpt lat="45.991783833374036" lon="12.451040583806938"><ele>239.66666666666669</ele><time>2026-04-25T08:30:42.999Z</time></trkpt><trkpt lat="45.99184216021717" lon="12.450985159919574"><ele>240.33333333333334</ele><time>2026-04-25T08:30:43.999Z</time></trkpt><trkpt lat="45.991895812429526" lon="12.45091699629917"><ele>241.0</ele><time>2026-04-25T08:30:44.999Z</time></trkpt><trkpt lat="45.991938025073175" lon="12.450826085095764"><ele>241.66666666666669</ele><time>2026-04-25T08:30:45.999Z</time></trkpt><trkpt lat="45.991949383593806" lon="12.450701708460697"><ele>242.33333333333334</ele><time>2026-04-25T08:30:47Z</time></trkpt><trkpt lat="45.99193154291333" lon="12.450556429894894"><ele>243.0</ele><time>2026-04-25T08:30:48Z</time></trkpt><trkpt lat="45.991844532014575" lon="12.450441969519574"><ele>245.75</ele><time>2026-04-25T08:30:49Z</time></trkpt><trkpt lat="45.991744997830786" lon="12.45032263047129"><ele>248.5</ele><time>2026-04-25T08:30:50Z</time></trkpt><trkpt lat="45.99162785727033" lon="12.450206579985588"><ele>251.25</ele><time>2026-04-25T08:30:51Z</time></trkpt><trkpt lat="45.991495990821406" lon="12.450106186106819"><ele>254.0</ele><time>2026-04-25T08:30:52Z</time></trkpt><trkpt lat="45.991363533660326" lon="12.45001714654861"><ele>254.0</ele><time>2026-04-25T08:30:53Z</time></trkpt><trkpt lat="45.9912581196536" lon="12.449923757089946"><ele>254.0</ele><time>2026-04-25T08:30:54Z</time></trkpt><trkpt lat="45.99116484054546" lon="12.449843519815092"><ele>254.0</ele><time>2026-04-25T08:30:55Z</time></trkpt><trkpt lat="45.99108809877788" lon="12.449743915528417"><ele>254.0</ele><time>2026-04-25T08:30:56Z</time></trkpt><trkpt lat="45.99101356126775" lon="12.449618546113904"><ele>254.50000000000003</ele><time>2026-04-25T08:30:57Z</time></trkpt><trkpt lat="45.990955998874725" lon="12.44950440096433"><ele>255.0</ele><time>2026-04-25T08:30:58Z</time></trkpt><trkpt lat="45.99089051673154" lon="12.449431955180792"><ele>255.5</ele><time>2026-04-25T08:30:59Z</time></trkpt><trkpt lat="45.990854282007206" lon="12.44934830331291"><ele>256.0</ele><time>2026-04-25T08:31:00Z</time></trkpt><trkpt lat="45.99079358587485" lon="12.44924098444797"><ele>256.5</ele><time>2026-04-25T08:31:02Z</time></trkpt><trkpt lat="45.990805580430674" lon="12.449117972387263"><ele>257.0</ele><time>2026-04-25T08:31:04Z</time></trkpt><trkpt lat="45.990872380915114" lon="12.449093252175897"><ele>261.8</ele><time>2026-04-25T08:31:05Z</time></trkpt><trkpt lat="45.990938106965636" lon="12.449149994486877"><ele>266.6</ele><time>2026-04-25T08:31:06Z</time></trkpt><trkpt lat="45.99097007819419" lon="12.44926352786986"><ele>271.40000000000003</ele><time>2026-04-25T08:31:07Z</time></trkpt><trkpt lat="45.99100105995975" lon="12.449398590415056"><ele>276.2</ele><time>2026-04-25T08:31:08Z</time></trkpt><trkpt lat="45.99106116798361" lon="12.449509254351167"><ele>281.0</ele><time>2026-04-25T08:31:09Z</time></trkpt><trkpt lat="45.99114435785053" lon="12.44960021943386"><ele>275.6</ele><time>2026-04-25T08:31:10Z</time></trkpt><trkpt lat="45.991239692509374" lon="12.449660622155129"><ele>270.20000000000005</ele><time>2026-04-25T08:31:11Z</time></trkpt><trkpt lat="45.991350531941734" lon="12.449687792028133"><ele>264.79999999999995</ele><time>2026-04-25T08:31:12Z</time></trkpt><trkpt lat="45.99146236973949" lon="12.449703113197776"><ele>259.4</ele><time>2026-04-25T08:31:13Z</time></trkpt><trkpt lat="45.991573760619374" lon="12.449722751124824"><ele>254.0</ele><time>2026-04-25T08:31:14Z</time></trkpt><trkpt lat="45.99166248340938" lon="12.449743833088196"><ele>255.66666666666669</ele><time>2026-04-25T08:31:15Z</time></trkpt><trkpt lat="45.991740331069295" lon="12.449761805251763"><ele>257.33333333333337</ele><time>2026-04-25T08:31:16Z</time></trkpt><trkpt lat="45.99181452898435" lon="12.449777117467606"><ele>259.0</ele><time>2026-04-25T08:31:17Z</time></trkpt><trkpt lat="45.99188659716745" lon="12.449786834846766"><ele>260.6666666666667</ele><time>2026-04-25T08:31:18Z</time></trkpt><trkpt lat="45.99196111164363" lon="12.449784109633416"><ele>262.3333333333333</ele><time>2026-04-25T08:31:19Z</time></trkpt><trkpt lat="45.992039070314846" lon="12.449765835030062"><ele>264.0</ele><time>2026-04-25T08:31:20Z</time></trkpt><trkpt lat="45.992121176429784" lon="12.44973670912318"><ele>264.0</ele><time>2026-04-25T08:31:21Z</time></trkpt><trkpt lat="45.992200179933654" lon="12.449700118043708"><ele>264.0</ele><time>2026-04-25T08:31:22Z</time></trkpt><trkpt lat="45.992274921255735" lon="12.449642566692058"><ele>264.0</ele><time>2026-04-25T08:31:23Z</time></trkpt><trkpt lat="45.992342305776305" lon="12.449570517800586"><ele>264.0</ele><time>2026-04-25T08:31:24Z</time></trkpt><trkpt lat="45.99241213594642" lon="12.449508491610503"><ele>264.0</ele><time>2026-04-25T08:31:25Z</time></trkpt><trkpt lat="45.99248780031452" lon="12.449483803115653"><ele>264.0</ele><time>2026-04-25T08:31:26Z</time></trkpt><trkpt lat="45.992567196553274" lon="12.449513273555752"><ele>264.4</ele><time>2026-04-25T08:31:27Z</time></trkpt><trkpt lat="45.99265339796472" lon="12.449594394147287"><ele>264.79999999999995</ele><time>2026-04-25T08:31:28Z</time></trkpt><trkpt lat="45.992748073373484" lon="12.449664624848413"><ele>265.20000000000005</ele><time>2026-04-25T08:31:28.999Z</time></trkpt><trkpt lat="45.99285774903012" lon="12.449698759028934"><ele>265.6</ele><time>2026-04-25T08:31:29.999Z</time></trkpt><trkpt lat="45.99296180513303" lon="12.449724817920213"><ele>266.0</ele><time>2026-04-25T08:31:30.999Z</time></trkpt><trkpt lat="45.993050520089085" lon="12.449757107475884"><ele>266.0</ele><time>2026-04-25T08:31:31.999Z</time></trkpt><trkpt lat="45.99312226893463" lon="12.449778579016526"><ele>266.0</ele><time>2026-04-25T08:31:32.999Z</time></trkpt><trkpt lat="45.99318546213969" lon="12.449789317281759"><ele>266.0</ele><time>2026-04-25T08:31:33.999Z</time></trkpt><trkpt lat="45.99327489776039" lon="12.44970832367744"><ele>266.0</ele><time>2026-04-25T08:31:35.999Z</time></trkpt><trkpt lat="45.993240105975744" lon="12.449537634104717"><ele>266.0</ele><time>2026-04-25T08:31:37.999Z</time></trkpt><trkpt lat="45.993161406578345" lon="12.44951106469614"><ele>266.0</ele><time>2026-04-25T08:31:38.999Z</time></trkpt><trkpt lat="45.99307645653798" lon="12.449525458913506"><ele>271.6</ele><time>2026-04-25T08:31:39.999Z</time></trkpt><trkpt lat="45.99298478690739" lon="12.449516228214398"><ele>277.20000000000005</ele><time>2026-04-25T08:31:40.999Z</time></trkpt><trkpt lat="45.99289509383244" lon="12.449469276125216"><ele>282.79999999999995</ele><time>2026-04-25T08:31:41.999Z</time></trkpt><trkpt lat="45.99282363813275" lon="12.449394803382392"><ele>288.4</ele><time>2026-04-25T08:31:42.999Z</time></trkpt><trkpt lat="45.992797248663706" lon="12.449263414871782"><ele>294.0</ele><time>2026-04-25T08:31:43.999Z</time></trkpt><trkpt lat="45.99276591990788" lon="12.449137516788022"><ele>294.0</ele><time>2026-04-25T08:31:44.999Z</time></trkpt><trkpt lat="45.99271716827164" lon="12.449031548421852"><ele>294.0</ele><time>2026-04-25T08:31:45.999Z</time></trkpt><trkpt lat="45.992640547235375" lon="12.448963777780357"><ele>294.0</ele><time>2026-04-25T08:31:46.999Z</time></trkpt><trkpt lat="45.992539838047364" lon="12.448955870421482"><ele>294.0</ele><time>2026-04-25T08:31:47.999Z</time></trkpt><trkpt lat="45.99244864803219" lon="12.449029928545086"><ele>294.0</ele><time>2026-04-25T08:31:48.999Z</time></trkpt><trkpt lat="45.99235959967744" lon="12.44907447433923"><ele>293.1666666666667</ele><time>2026-04-25T08:31:49.999Z</time></trkpt><trkpt lat="45.99227527078422" lon="12.449078006051046"><ele>292.3333333333333</ele><time>2026-04-25T08:31:50.999Z</time></trkpt><trkpt lat="45.99219512990793" lon="12.449048328075783"><ele>291.5</ele><time>2026-04-25T08:31:51.999Z</time></trkpt><trkpt lat="45.99211076437841" lon="12.448984792065067"><ele>290.66666666666663</ele><time>2026-04-25T08:31:52.999Z</time></trkpt><trkpt lat="45.992034114620175" lon="12.448895170529886"><ele>289.8333333333333</ele><time>2026-04-25T08:31:53.999Z</time></trkpt><trkpt lat="45.9919614780502" lon="12.448833303377413"><ele>289.0</ele><time>2026-04-25T08:31:54.999Z</time></trkpt><trkpt lat="45.99190674683493" lon="12.448779805260363"><ele>291.8333333333333</ele><time>2026-04-25T08:31:55.999Z</time></trkpt><trkpt lat="45.991856093834826" lon="12.448707867568649"><ele>294.66666666666663</ele><time>2026-04-25T08:31:56.999Z</time></trkpt><trkpt lat="45.99182597914176" lon="12.4486266253629"><ele>297.5</ele><time>2026-04-25T08:31:57.999Z</time></trkpt><trkpt lat="45.99185887717478" lon="12.448483831526785"><ele>300.3333333333333</ele><time>2026-04-25T08:31:59.999Z</time></trkpt><trkpt lat="45.99193434005156" lon="12.448472674003865"><ele>303.1666666666667</ele><time>2026-04-25T08:32:00.999Z</time></trkpt><trkpt lat="45.992004856376376" lon="12.448503685940297"><ele>306.0</ele><time>2026-04-25T08:32:01.999Z</time></trkpt><trkpt lat="45.99205517185947" lon="12.448596192546816"><ele>306.0</ele><time>2026-04-25T08:32:02.999Z</time></trkpt><trkpt lat="45.9920945117571" lon="12.448708014444504"><ele>306.0</ele><time>2026-04-25T08:32:03.999Z</time></trkpt><trkpt lat="45.992150627246325" lon="12.448774224172759"><ele>306.0</ele><time>2026-04-25T08:32:04.999Z</time></trkpt><trkpt lat="45.992219034327064" lon="12.448797706231254"><ele>306.0</ele><time>2026-04-25T08:32:05.999Z</time></trkpt><trkpt lat="45.992287125049735" lon="12.448766900244745"><ele>306.0</ele><time>2026-04-25T08:32:06.999Z</time></trkpt><trkpt lat="45.99235031133377" lon="12.4486931754546"><ele>306.0</ele><time>2026-04-25T08:32:07.999Z</time></trkpt><trkpt lat="45.99242287262831" lon="12.448607035885846"><ele>307.8</ele><time>2026-04-25T08:32:08.999Z</time></trkpt><trkpt lat="45.992517254391245" lon="12.448541889156818"><ele>309.6</ele><time>2026-04-25T08:32:09.999Z</time></trkpt><trkpt lat="45.99262536354535" lon="12.44850856167754"><ele>311.4</ele><time>2026-04-25T08:32:10.999Z</time></trkpt><trkpt lat="45.99274099374985" lon="12.44849398114655"><ele>313.2</ele><time>2026-04-25T08:32:11.999Z</time></trkpt><trkpt lat="45.992855920418464" lon="12.448491945905564"><ele>315.0</ele><time>2026-04-25T08:32:12.999Z</time></trkpt><trkpt lat="45.99297059880278" lon="12.448534861155354"><ele>315.0</ele><time>2026-04-25T08:32:13.999Z</time></trkpt><trkpt lat="45.993089388851104" lon="12.448612168691778"><ele>315.0</ele><time>2026-04-25T08:32:14.999Z</time></trkpt><trkpt lat="45.99319382649639" lon="12.44867231989441"><ele>315.0</ele><time>2026-04-25T08:32:15.999Z</time></trkpt><trkpt lat="45.99329365826704" lon="12.44869314793818"><ele>315.0</ele><time>2026-04-25T08:32:16.999Z</time></trkpt><trkpt lat="45.993403668271846" lon="12.448658572309613"><ele>317.0</ele><time>2026-04-25T08:32:17.999Z</time></trkpt><trkpt lat="45.99352082572265" lon="12.448575732347125"><ele>319.0</ele><time>2026-04-25T08:32:18.999Z</time></trkpt><trkpt lat="45.993645135681575" lon="12.448492477364614"><ele>321.0</ele><time>2026-04-25T08:32:19.999Z</time></trkpt><trkpt lat="45.99375561428059" lon="12.448423264343921"><ele>323.0</ele><time>2026-04-25T08:32:20.999Z</time></trkpt><trkpt lat="45.99385164027313" lon="12.448356948511666"><ele>323.0</ele><time>2026-04-25T08:32:21.999Z</time></trkpt><trkpt lat="45.9939296909826" lon="12.448277398804704"><ele>323.0</ele><time>2026-04-25T08:32:22.999Z</time></trkpt><trkpt lat="45.993993196284286" lon="12.4482020840582"><ele>323.0</ele><time>2026-04-25T08:32:23.999Z</time></trkpt><trkpt lat="45.99405973500447" lon="12.448173545976747"><ele>323.0</ele><time>2026-04-25T08:32:24.999Z</time></trkpt><trkpt lat="45.99413297467206" lon="12.44819455881216"><ele>323.0</ele><time>2026-04-25T08:32:25.999Z</time></trkpt><trkpt lat="45.99419357999752" lon="12.44828287069084"><ele>323.0</ele><time>2026-04-25T08:32:26.999Z</time></trkpt><trkpt lat="45.994243504429704" lon="12.448401467775884"><ele>327.5</ele><time>2026-04-25T08:32:27.999Z</time></trkpt><trkpt lat="45.99431209985955" lon="12.448492221001159"><ele>332.0</ele><time>2026-04-25T08:32:28.999Z</time></trkpt><trkpt lat="45.99441467842359" lon="12.448534535103942"><ele>336.5</ele><time>2026-04-25T08:32:29.999Z</time></trkpt><trkpt lat="45.994538896939254" lon="12.44855280273948"><ele>341.0</ele><time>2026-04-25T08:32:30.999Z</time></trkpt><trkpt lat="45.99467064474094" lon="12.448593308778307"><ele>341.0</ele><time>2026-04-25T08:32:31.999Z</time></trkpt><trkpt lat="45.99482213071394" lon="12.448657599228685"><ele>341.0</ele><time>2026-04-25T08:32:32.999Z</time></trkpt><trkpt lat="45.99496108124425" lon="12.448722540461093"><ele>341.0</ele><time>2026-04-25T08:32:33.999Z</time></trkpt><trkpt lat="45.99506253133982" lon="12.448789679855121"><ele>341.0</ele><time>2026-04-25T08:32:34.999Z</time></trkpt><trkpt lat="45.99514728157253" lon="12.44885886679214"><ele>341.4</ele><time>2026-04-25T08:32:35.999Z</time></trkpt><trkpt lat="45.99523085299108" lon="12.448931852832523"><ele>341.8</ele><time>2026-04-25T08:32:36.999Z</time></trkpt><trkpt lat="45.995310698734954" lon="12.449012239273642"><ele>342.2</ele><time>2026-04-25T08:32:37.999Z</time></trkpt><trkpt lat="45.995387311931374" lon="12.44910558778939"><ele>342.59999999999997</ele><time>2026-04-25T08:32:38.999Z</time></trkpt><trkpt lat="45.9954604528643" lon="12.449220218080644"><ele>343.0</ele><time>2026-04-25T08:32:39.999Z</time></trkpt><trkpt lat="45.995520160905265" lon="12.449349274898688"><ele>343.0</ele><time>2026-04-25T08:32:40.999Z</time></trkpt><trkpt lat="45.99556185921364" lon="12.449471584835335"><ele>343.0</ele><time>2026-04-25T08:32:41.999Z</time></trkpt><trkpt lat="45.99560180942352" lon="12.449566273480126"><ele>343.0</ele><time>2026-04-25T08:32:42.999Z</time></trkpt><trkpt lat="45.99566869744847" lon="12.44963124729382"><ele>343.0</ele><time>2026-04-25T08:32:43.999Z</time></trkpt><trkpt lat="45.995751966354625" lon="12.449659016582258"><ele>343.0</ele><time>2026-04-25T08:32:44.999Z</time></trkpt><trkpt lat="45.99583321005909" lon="12.449622921780268"><ele>343.0</ele><time>2026-04-25T08:32:45.999Z</time></trkpt><trkpt lat="45.99589282103495" lon="12.449550493373428"><ele>343.0</ele><time>2026-04-25T08:32:46.999Z</time></trkpt><trkpt lat="45.99591652406398" lon="12.449436172099881"><ele>343.0</ele><time>2026-04-25T08:32:47.999Z</time></trkpt><trkpt lat="45.995895611023606" lon="12.449299487555045"><ele>343.0</ele><time>2026-04-25T08:32:48.999Z</time></trkpt><trkpt lat="45.9958317402088" lon="12.449169984635367"><ele>343.0</ele><time>2026-04-25T08:32:49.999Z</time></trkpt><trkpt lat="45.99573252682038" lon="12.44906296851836"><ele>343.0</ele><time>2026-04-25T08:32:50.999Z</time></trkpt><trkpt lat="45.99565220270013" lon="12.448981222043944"><ele>343.0</ele><time>2026-04-25T08:32:51.999Z</time></trkpt><trkpt lat="45.995600560023796" lon="12.448896695801539"><ele>343.0</ele><time>2026-04-25T08:32:53Z</time></trkpt><trkpt lat="45.99557023506951" lon="12.44876539012053"><ele>343.0</ele><time>2026-04-25T08:32:54Z</time></trkpt><trkpt lat="45.995548992822805" lon="12.448609980593023"><ele>343.0</ele><time>2026-04-25T08:32:55Z</time></trkpt><trkpt lat="45.99552511931285" lon="12.448441534737961"><ele>343.0</ele><time>2026-04-25T08:32:56Z</time></trkpt><trkpt lat="45.99549779298759" lon="12.448270624443957"><ele>346.75</ele><time>2026-04-25T08:32:57Z</time></trkpt><trkpt lat="45.9954274204157" lon="12.448122210888267"><ele>350.5</ele><time>2026-04-25T08:32:58Z</time></trkpt><trkpt lat="45.99532712808594" lon="12.448001303266384"><ele>354.25</ele><time>2026-04-25T08:32:59Z</time></trkpt><trkpt lat="45.99529094005627" lon="12.447838130392277"><ele>358.0</ele><time>2026-04-25T08:33:00Z</time></trkpt><trkpt lat="45.99523043807907" lon="12.447727559483539"><ele>358.59999999999997</ele><time>2026-04-25T08:33:01Z</time></trkpt><trkpt lat="45.995191097107565" lon="12.447616559281006"><ele>359.2</ele><time>2026-04-25T08:33:02Z</time></trkpt><trkpt lat="45.99508644608436" lon="12.44755877192785"><ele>359.8</ele><time>2026-04-25T08:33:03Z</time></trkpt><trkpt lat="45.994979975766036" lon="12.447578184464968"><ele>360.4</ele><time>2026-04-25T08:33:04Z</time></trkpt><trkpt lat="45.99489599196741" lon="12.447564348437906"><ele>361.0</ele><time>2026-04-25T08:33:05Z</time></trkpt><trkpt lat="45.99481105918284" lon="12.447531558834257"><ele>361.0</ele><time>2026-04-25T08:33:07Z</time></trkpt><trkpt lat="45.994781129545174" lon="12.447422042456989"><ele>361.0</ele><time>2026-04-25T08:33:09Z</time></trkpt><trkpt lat="45.99481058229091" lon="12.447276954186654"><ele>361.0</ele><time>2026-04-25T08:33:11Z</time></trkpt><trkpt lat="45.99480699639138" lon="12.447103961620323"><ele>361.0</ele><time>2026-04-25T08:33:13Z</time></trkpt><trkpt lat="45.99478933386293" lon="12.446997238118096"><ele>361.0</ele><time>2026-04-25T08:33:14Z</time></trkpt><trkpt lat="45.99478051551435" lon="12.446882339173882"><ele>363.8333333333333</ele><time>2026-04-25T08:33:15Z</time></trkpt><trkpt lat="45.99475293322782" lon="12.44678218375281"><ele>366.66666666666663</ele><time>2026-04-25T08:33:16Z</time></trkpt><trkpt lat="45.99472220745062" lon="12.446688492595829"><ele>369.5</ele><time>2026-04-25T08:33:17Z</time></trkpt><trkpt lat="45.99469158851333" lon="12.446589328609257"><ele>372.3333333333333</ele><time>2026-04-25T08:33:18Z</time></trkpt><trkpt lat="45.99463792354724" lon="12.446502780496274"><ele>375.1666666666667</ele><time>2026-04-25T08:33:19Z</time></trkpt><trkpt lat="45.994608307669125" lon="12.446405642097842"><ele>378.0</ele><time>2026-04-25T08:33:20Z</time></trkpt><trkpt lat="45.99457352081318" lon="12.446310323620722"><ele>380.3333333333333</ele><time>2026-04-25T08:33:21Z</time></trkpt><trkpt lat="45.994533141352306" lon="12.44619763235103"><ele>382.66666666666663</ele><time>2026-04-25T08:33:22Z</time></trkpt><trkpt lat="45.994518584387116" lon="12.44606115194944"><ele>385.0</ele><time>2026-04-25T08:33:23Z</time></trkpt><trkpt lat="45.9944739374031" lon="12.445973470063288"><ele>387.3333333333333</ele><time>2026-04-25T08:33:24Z</time></trkpt><trkpt lat="45.99439512852766" lon="12.445935417773056"><ele>389.66666666666663</ele><time>2026-04-25T08:33:25Z</time></trkpt><trkpt lat="45.994321777461195" lon="12.445908129244689"><ele>392.0</ele><time>2026-04-25T08:33:26Z</time></trkpt><trkpt lat="45.99424798726747" lon="12.445870047410303"><ele>391.99999999999994</ele><time>2026-04-25T08:33:27Z</time></trkpt><trkpt lat="45.99418329051648" lon="12.445847431413481"><ele>392.0</ele><time>2026-04-25T08:33:28Z</time></trkpt><trkpt lat="45.9941202294402" lon="12.445827226278148"><ele>392.0</ele><time>2026-04-25T08:33:29Z</time></trkpt><trkpt lat="45.99408438913499" lon="12.445740663191561"><ele>392.0</ele><time>2026-04-25T08:33:30Z</time></trkpt><trkpt lat="45.99408415162698" lon="12.445625686524632"><ele>391.99999999999994</ele><time>2026-04-25T08:33:31Z</time></trkpt><trkpt lat="45.994118854807034" lon="12.445483669113973"><ele>392.0</ele><time>2026-04-25T08:33:32Z</time></trkpt><trkpt lat="45.994122626865185" lon="12.445352984293779"><ele>391.6</ele><time>2026-04-25T08:33:32.999Z</time></trkpt><trkpt lat="45.994106416596125" lon="12.445231521227367"><ele>391.20000000000005</ele><time>2026-04-25T08:33:33.999Z</time></trkpt><trkpt lat="45.99402808161241" lon="12.445137061128708"><ele>390.8</ele><time>2026-04-25T08:33:34.999Z</time></trkpt><trkpt lat="45.993924310531206" lon="12.44509819569748"><ele>390.4</ele><time>2026-04-25T08:33:35.999Z</time></trkpt><trkpt lat="45.99381213179125" lon="12.445081037889508"><ele>390.0</ele><time>2026-04-25T08:33:36.999Z</time></trkpt><trkpt lat="45.99371924767731" lon="12.445027125875438"><ele>390.0</ele><time>2026-04-25T08:33:37.999Z</time></trkpt><trkpt lat="45.99364772070159" lon="12.445009564633304"><ele>390.0</ele><time>2026-04-25T08:33:38.999Z</time></trkpt><trkpt lat="45.99360678389358" lon="12.44487426996735"><ele>390.0</ele><time>2026-04-25T08:33:40.999Z</time></trkpt><trkpt lat="45.99371816736792" lon="12.444793932262133"><ele>390.0</ele><time>2026-04-25T08:33:42.999Z</time></trkpt><trkpt lat="45.99380001010467" lon="12.444863653636613"><ele>390.0</ele><time>2026-04-25T08:33:43.999Z</time></trkpt><trkpt lat="45.99389164042738" lon="12.444950264558472"><ele>390.0</ele><time>2026-04-25T08:33:44.999Z</time></trkpt><trkpt lat="45.99403060995599" lon="12.444990913522354"><ele>390.0</ele><time>2026-04-25T08:33:45.999Z</time></trkpt><trkpt lat="45.99418091858485" lon="12.445007458905167"><ele>390.0</ele><time>2026-04-25T08:33:46.999Z</time></trkpt><trkpt lat="45.99431246571474" lon="12.445070836182776"><ele>390.0</ele><time>2026-04-25T08:33:47.999Z</time></trkpt><trkpt lat="45.99441608067403" lon="12.445172131821565"><ele>390.4</ele><time>2026-04-25T08:33:48.999Z</time></trkpt><trkpt lat="45.994478223528965" lon="12.445286391725961"><ele>390.8</ele><time>2026-04-25T08:33:49.999Z</time></trkpt><trkpt lat="45.99451499872117" lon="12.445401698985194"><ele>391.20000000000005</ele><time>2026-04-25T08:33:50.999Z</time></trkpt><trkpt lat="45.99457255767071" lon="12.445491904453975"><ele>391.6</ele><time>2026-04-25T08:33:51.999Z</time></trkpt><trkpt lat="45.994671032113835" lon="12.44551938102716"><ele>392.0</ele><time>2026-04-25T08:33:52.999Z</time></trkpt><trkpt lat="45.994779055106136" lon="12.44552416107252"><ele>392.0</ele><time>2026-04-25T08:33:53.999Z</time></trkpt><trkpt lat="45.994853505442904" lon="12.44557338464601"><ele>392.0</ele><time>2026-04-25T08:33:54.999Z</time></trkpt><trkpt lat="45.99491098033377" lon="12.445673828615767"><ele>392.0</ele><time>2026-04-25T08:33:55.999Z</time></trkpt><trkpt lat="45.994966866333705" lon="12.44579799701734"><ele>392.0</ele><time>2026-04-25T08:33:56.999Z</time></trkpt><trkpt lat="45.99505807035964" lon="12.445892404345114"><ele>392.0</ele><time>2026-04-25T08:33:57.999Z</time></trkpt><trkpt lat="45.995178602181575" lon="12.44595371257971"><ele>396.0</ele><time>2026-04-25T08:33:58.999Z</time></trkpt><trkpt lat="45.99529944558052" lon="12.446010878959148"><ele>400.0</ele><time>2026-04-25T08:33:59.999Z</time></trkpt><trkpt lat="45.9954074451421" lon="12.446079329159167"><ele>404.0</ele><time>2026-04-25T08:34:00.999Z</time></trkpt><trkpt lat="45.99551727997041" lon="12.446155690958456"><ele>408.0</ele><time>2026-04-25T08:34:01.999Z</time></trkpt><trkpt lat="45.99561743987987" lon="12.446211439850101"><ele>408.0</ele><time>2026-04-25T08:34:02.999Z</time></trkpt><trkpt lat="45.99571112143725" lon="12.4462307827923"><ele>408.0</ele><time>2026-04-25T08:34:03.999Z</time></trkpt><trkpt lat="45.99581698533341" lon="12.446219852436858"><ele>408.0</ele><time>2026-04-25T08:34:04.999Z</time></trkpt><trkpt lat="45.99592731072251" lon="12.446165577138279"><ele>408.0</ele><time>2026-04-25T08:34:05.999Z</time></trkpt><trkpt lat="45.99603930178238" lon="12.44610143222538"><ele>408.0</ele><time>2026-04-25T08:34:06.999Z</time></trkpt><trkpt lat="45.99615338358412" lon="12.446048805016803"><ele>408.79999999999995</ele><time>2026-04-25T08:34:07.999Z</time></trkpt><trkpt lat="45.99626211794837" lon="12.445995834118158"><ele>409.6</ele><time>2026-04-25T08:34:08.999Z</time></trkpt><trkpt lat="45.996361913451906" lon="12.44593450407215"><ele>410.4</ele><time>2026-04-25T08:34:09.999Z</time></trkpt><trkpt lat="45.996460461064586" lon="12.445859115262225"><ele>411.20000000000005</ele><time>2026-04-25T08:34:10.999Z</time></trkpt><trkpt lat="45.99656077346971" lon="12.445780182292642"><ele>412.0</ele><time>2026-04-25T08:34:11.999Z</time></trkpt><trkpt lat="45.99665871500665" lon="12.445698379104323"><ele>414.0</ele><time>2026-04-25T08:34:12.999Z</time></trkpt><trkpt lat="45.996756136098874" lon="12.445617644397657"><ele>416.0</ele><time>2026-04-25T08:34:13.999Z</time></trkpt><trkpt lat="45.99685091732338" lon="12.44553427706603"><ele>418.0</ele><time>2026-04-25T08:34:14.999Z</time></trkpt><trkpt lat="45.99694427203107" lon="12.445431176190537"><ele>420.0</ele><time>2026-04-25T08:34:15.999Z</time></trkpt><trkpt lat="45.99704274191912" lon="12.445310800276019"><ele>422.5</ele><time>2026-04-25T08:34:16.999Z</time></trkpt><trkpt lat="45.99715859530194" lon="12.445215213140882"><ele>425.0</ele><time>2026-04-25T08:34:17.999Z</time></trkpt><trkpt lat="45.997282669846136" lon="12.445164896181097"><ele>427.5</ele><time>2026-04-25T08:34:18.999Z</time></trkpt><trkpt lat="45.99742168825895" lon="12.445131308234908"><ele>430.0</ele><time>2026-04-25T08:34:19.999Z</time></trkpt><trkpt lat="45.99760793714129" lon="12.44510955246725"><ele>431.33333333333337</ele><time>2026-04-25T08:34:20.999Z</time></trkpt><trkpt lat="45.9977904907412" lon="12.445084601076294"><ele>432.66666666666663</ele><time>2026-04-25T08:34:21.999Z</time></trkpt><trkpt lat="45.99793383970388" lon="12.445068812362836"><ele>434.0</ele><time>2026-04-25T08:34:22.999Z</time></trkpt><trkpt lat="45.99805870755681" lon="12.445050104554005"><ele>434.0</ele><time>2026-04-25T08:34:23.999Z</time></trkpt><trkpt lat="45.9981770815376" lon="12.445030419674062"><ele>434.0</ele><time>2026-04-25T08:34:24.999Z</time></trkpt><trkpt lat="45.99829544985916" lon="12.445004639428015"><ele>434.0</ele><time>2026-04-25T08:34:25.999Z</time></trkpt><trkpt lat="45.998423746201226" lon="12.444978870705299"><ele>434.0</ele><time>2026-04-25T08:34:26.999Z</time></trkpt><trkpt lat="45.99855638267874" lon="12.44495183464475"><ele>435.25</ele><time>2026-04-25T08:34:27.999Z</time></trkpt><trkpt lat="45.99868969058464" lon="12.44493265200479"><ele>436.5</ele><time>2026-04-25T08:34:28.999Z</time></trkpt><trkpt lat="45.99882054579097" lon="12.444918011973508"><ele>437.75</ele><time>2026-04-25T08:34:29.999Z</time></trkpt><trkpt lat="45.99895394587981" lon="12.444917027558697"><ele>439.0</ele><time>2026-04-25T08:34:30.999Z</time></trkpt><trkpt lat="45.99909202174776" lon="12.444932847560947"><ele>442.5</ele><time>2026-04-25T08:34:31.999Z</time></trkpt><trkpt lat="45.99923204499929" lon="12.444956564412601"><ele>446.0</ele><time>2026-04-25T08:34:32.999Z</time></trkpt><trkpt lat="45.99937062995741" lon="12.44497643238788"><ele>449.5</ele><time>2026-04-25T08:34:33.999Z</time></trkpt><trkpt lat="45.99950528038252" lon="12.444989373522192"><ele>453.0</ele><time>2026-04-25T08:34:34.999Z</time></trkpt><trkpt lat="45.999639667203645" lon="12.445003799818052"><ele>453.0</ele><time>2026-04-25T08:34:35.999Z</time></trkpt><trkpt lat="45.99977160075348" lon="12.445018584848135"><ele>453.0</ele><time>2026-04-25T08:34:36.999Z</time></trkpt><trkpt lat="45.99990175329058" lon="12.445034103820904"><ele>453.0</ele><time>2026-04-25T08:34:37.999Z</time></trkpt><trkpt lat="46.000028124968246" lon="12.445050039258149"><ele>453.0</ele><time>2026-04-25T08:34:38.999Z</time></trkpt><trkpt lat="46.00015160723514" lon="12.445070518159172"><ele>453.0</ele><time>2026-04-25T08:34:39.999Z</time></trkpt><trkpt lat="46.00027722428858" lon="12.445102725971182"><ele>452.99999999999994</ele><time>2026-04-25T08:34:40.999Z</time></trkpt><trkpt lat="46.00038782916792" lon="12.44516066982422"><ele>452.99999999999994</ele><time>2026-04-25T08:34:41.999Z</time></trkpt><trkpt lat="46.00048351510537" lon="12.445218971814112"><ele>453.0</ele><time>2026-04-25T08:34:42.999Z</time></trkpt><trkpt lat="46.00057571375109" lon="12.445270814044246"><ele>453.0</ele><time>2026-04-25T08:34:43.999Z</time></trkpt><trkpt lat="46.00066256075542" lon="12.445278003696101"><ele>453.0</ele><time>2026-04-25T08:34:44.999Z</time></trkpt><trkpt lat="46.000738271066645" lon="12.445234865088064"><ele>452.99999999999994</ele><time>2026-04-25T08:34:45.999Z</time></trkpt><trkpt lat="46.000837265232256" lon="12.445210433517005"><ele>452.99999999999994</ele><time>2026-04-25T08:34:46.999Z</time></trkpt><trkpt lat="46.000809069398244" lon="12.445022661382808"><ele>453.0</ele><time>2026-04-25T08:34:47.999Z</time></trkpt><trkpt lat="46.00079405521287" lon="12.444897260281813"><ele>453.0</ele><time>2026-04-25T08:34:48.999Z</time></trkpt><trkpt lat="46.000740962419954" lon="12.444798682336696"><ele>453.0</ele><time>2026-04-25T08:34:49.999Z</time></trkpt><trkpt lat="46.000637030069385" lon="12.444738565539712"><ele>453.0</ele><time>2026-04-25T08:34:50.999Z</time></trkpt><trkpt lat="46.000513681491796" lon="12.444658793817746"><ele>453.0</ele><time>2026-04-25T08:34:51.999Z</time></trkpt><trkpt lat="46.00039872101649" lon="12.444579308328585"><ele>453.0</ele><time>2026-04-25T08:34:52.999Z</time></trkpt><trkpt lat="46.000298692190135" lon="12.444525368872066"><ele>455.0</ele><time>2026-04-25T08:34:53.999Z</time></trkpt><trkpt lat="46.0002298916454" lon="12.44440449983565"><ele>457.0</ele><time>2026-04-25T08:34:54.999Z</time></trkpt><trkpt lat="46.00017921296601" lon="12.444246033885788"><ele>459.0</ele><time>2026-04-25T08:34:55.999Z</time></trkpt><trkpt lat="46.00013697916946" lon="12.444059300951855"><ele>461.0</ele><time>2026-04-25T08:34:56.999Z</time></trkpt><trkpt lat="46.00006904424505" lon="12.443883651617057"><ele>465.0</ele><time>2026-04-25T08:34:57.999Z</time></trkpt><trkpt lat="46.00001428863465" lon="12.443719314806545"><ele>469.0</ele><time>2026-04-25T08:34:59Z</time></trkpt><trkpt lat="45.99996146067576" lon="12.443573643937171"><ele>473.0</ele><time>2026-04-25T08:35:00Z</time></trkpt><trkpt lat="45.99990169945165" lon="12.443462685853483"><ele>477.0</ele><time>2026-04-25T08:35:01Z</time></trkpt><trkpt lat="45.99982496934521" lon="12.443379810799893"><ele>481.0</ele><time>2026-04-25T08:35:02Z</time></trkpt><trkpt lat="45.999719824203034" lon="12.443307385493924"><ele>481.0</ele><time>2026-04-25T08:35:03Z</time></trkpt><trkpt lat="45.99959464309454" lon="12.44328615057825"><ele>481.0</ele><time>2026-04-25T08:35:04Z</time></trkpt><trkpt lat="45.99948958460794" lon="12.443231849225729"><ele>481.0</ele><time>2026-04-25T08:35:05Z</time></trkpt><trkpt lat="45.999403136477824" lon="12.443164107865371"><ele>481.0</ele><time>2026-04-25T08:35:06Z</time></trkpt><trkpt lat="45.999326401595155" lon="12.443094468272998"><ele>481.0</ele><time>2026-04-25T08:35:07Z</time></trkpt><trkpt lat="45.999250315049345" lon="12.443036204354998"><ele>482.6666666666667</ele><time>2026-04-25T08:35:08Z</time></trkpt><trkpt lat="45.99918818049968" lon="12.442957983239385"><ele>484.33333333333337</ele><time>2026-04-25T08:35:09Z</time></trkpt><trkpt lat="45.9991244425645" lon="12.442897512372701"><ele>486.0</ele><time>2026-04-25T08:35:10Z</time></trkpt><trkpt lat="45.99905563966768" lon="12.442850819279716"><ele>487.66666666666663</ele><time>2026-04-25T08:35:11Z</time></trkpt><trkpt lat="45.99901636967881" lon="12.442759012438788"><ele>489.3333333333333</ele><time>2026-04-25T08:35:12Z</time></trkpt><trkpt lat="45.99898590649345" lon="12.442658742712949"><ele>491.0</ele><time>2026-04-25T08:35:13Z</time></trkpt><trkpt lat="45.9989541876823" lon="12.442561638022044"><ele>490.99999999999994</ele><time>2026-04-25T08:35:14Z</time></trkpt><trkpt lat="45.998948617822016" lon="12.442445550681542"><ele>491.0</ele><time>2026-04-25T08:35:15Z</time></trkpt><trkpt lat="45.99891361656853" lon="12.44233726937873"><ele>491.0</ele><time>2026-04-25T08:35:16Z</time></trkpt><trkpt lat="45.9988767437517" lon="12.442225851263805"><ele>491.0</ele><time>2026-04-25T08:35:17Z</time></trkpt><trkpt lat="45.9988285947199" lon="12.442117359138281"><ele>490.99999999999994</ele><time>2026-04-25T08:35:18Z</time></trkpt><trkpt lat="45.99875510058191" lon="12.44202801198587"><ele>491.0</ele><time>2026-04-25T08:35:19Z</time></trkpt><trkpt lat="45.99866975721537" lon="12.441987005081563"><ele>491.99999999999994</ele><time>2026-04-25T08:35:20Z</time></trkpt><trkpt lat="45.99860757178632" lon="12.441913117861388"><ele>493.0</ele><time>2026-04-25T08:35:21Z</time></trkpt><trkpt lat="45.99853613198954" lon="12.441868278681582"><ele>494.0</ele><time>2026-04-25T08:35:22Z</time></trkpt><trkpt lat="45.99846666236581" lon="12.441829693946774"><ele>495.0</ele><time>2026-04-25T08:35:23Z</time></trkpt><trkpt lat="45.99838493565532" lon="12.441840625774729"><ele>495.99999999999994</ele><time>2026-04-25T08:35:24Z</time></trkpt><trkpt lat="45.998306594063806" lon="12.441815805858383"><ele>497.0</ele><time>2026-04-25T08:35:25Z</time></trkpt><trkpt lat="45.99822737185742" lon="12.441778332041862"><ele>496.99999999999994</ele><time>2026-04-25T08:35:26Z</time></trkpt><trkpt lat="45.99814976752512" lon="12.441735131169454"><ele>497.0</ele><time>2026-04-25T08:35:27Z</time></trkpt><trkpt lat="45.99807657379039" lon="12.441681686002461"><ele>497.0</ele><time>2026-04-25T08:35:27.999Z</time></trkpt><trkpt lat="45.99802632175315" lon="12.441584654018701"><ele>497.0</ele><time>2026-04-25T08:35:28.999Z</time></trkpt><trkpt lat="45.99796363852155" lon="12.441504001741482"><ele>496.99999999999994</ele><time>2026-04-25T08:35:29.999Z</time></trkpt><trkpt lat="45.99792844985091" lon="12.441396244053951"><ele>497.0</ele><time>2026-04-25T08:35:30.999Z</time></trkpt><trkpt lat="45.997920225429596" lon="12.44127796792013"><ele>501.16666666666663</ele><time>2026-04-25T08:35:31.999Z</time></trkpt><trkpt lat="45.997901462897644" lon="12.44116289328487"><ele>505.3333333333333</ele><time>2026-04-25T08:35:32.999Z</time></trkpt><trkpt lat="45.99786799897316" lon="12.441060641747283"><ele>509.5</ele><time>2026-04-25T08:35:33.999Z</time></trkpt><trkpt lat="45.99785926318552" lon="12.440950733549482"><ele>513.6666666666666</ele><time>2026-04-25T08:35:34.999Z</time></trkpt><trkpt lat="45.99781254227307" lon="12.440855477094898"><ele>517.8333333333334</ele><time>2026-04-25T08:35:35.999Z</time></trkpt><trkpt lat="45.99772951579841" lon="12.440792268804845"><ele>522.0</ele><time>2026-04-25T08:35:36.999Z</time></trkpt><trkpt lat="45.997627568302306" lon="12.440770826861964"><ele>522.0</ele><time>2026-04-25T08:35:37.999Z</time></trkpt><trkpt lat="45.99754597059533" lon="12.440738539895996"><ele>522.0</ele><time>2026-04-25T08:35:38.999Z</time></trkpt><trkpt lat="45.997465446011915" lon="12.440679029392953"><ele>522.0</ele><time>2026-04-25T08:35:39.999Z</time></trkpt><trkpt lat="45.997376751178614" lon="12.440609240796988"><ele>522.0</ele><time>2026-04-25T08:35:40.999Z</time></trkpt><trkpt lat="45.9972911365413" lon="12.440532489078633"><ele>522.0</ele><time>2026-04-25T08:35:41.999Z</time></trkpt><trkpt lat="45.99719998970564" lon="12.440450816516734"><ele>523.8000000000001</ele><time>2026-04-25T08:35:42.999Z</time></trkpt><trkpt lat="45.99712819112128" lon="12.440324730182375"><ele>525.6</ele><time>2026-04-25T08:35:43.999Z</time></trkpt><trkpt lat="45.99704053675259" lon="12.440228351591818"><ele>527.4000000000001</ele><time>2026-04-25T08:35:44.999Z</time></trkpt><trkpt lat="45.99694787888238" lon="12.440145575632979"><ele>529.2</ele><time>2026-04-25T08:35:45.999Z</time></trkpt><trkpt lat="45.996859890031736" lon="12.440070363434035"><ele>531.0</ele><time>2026-04-25T08:35:46.999Z</time></trkpt><trkpt lat="45.99677810518577" lon="12.440000454295031"><ele>531.0</ele><time>2026-04-25T08:35:47.999Z</time></trkpt><trkpt lat="45.996702837166595" lon="12.439936115837376"><ele>531.0</ele><time>2026-04-25T08:35:48.999Z</time></trkpt><trkpt lat="45.996631800815656" lon="12.43987539445934"><ele>531.0</ele><time>2026-04-25T08:35:49.999Z</time></trkpt><trkpt lat="45.996566213066856" lon="12.439815390182453"><ele>531.0</ele><time>2026-04-25T08:35:50.999Z</time></trkpt><trkpt lat="45.99650906562246" lon="12.439746777712138"><ele>531.0</ele><time>2026-04-25T08:35:51.999Z</time></trkpt><trkpt lat="45.996448860117745" lon="12.439680836002696"><ele>531.0</ele><time>2026-04-25T08:35:52.999Z</time></trkpt><trkpt lat="45.99642260323233" lon="12.439570094828436"><ele>532.0</ele><time>2026-04-25T08:35:53.999Z</time></trkpt><trkpt lat="45.99638630627211" lon="12.43946249548926"><ele>533.0</ele><time>2026-04-25T08:35:54.999Z</time></trkpt><trkpt lat="45.996350345353534" lon="12.439344640769828"><ele>534.0</ele><time>2026-04-25T08:35:55.999Z</time></trkpt><trkpt lat="45.996312557532704" lon="12.439225356042751"><ele>535.0</ele><time>2026-04-25T08:35:56.999Z</time></trkpt><trkpt lat="45.996281727643094" lon="12.439129043289938"><ele>536.0</ele><time>2026-04-25T08:35:57.999Z</time></trkpt><trkpt lat="45.9962524335916" lon="12.439037528548273"><ele>537.0</ele><time>2026-04-25T08:35:58.999Z</time></trkpt><trkpt lat="45.9962227622567" lon="12.438944834983051"><ele>537.0</ele><time>2026-04-25T08:35:59.999Z</time></trkpt><trkpt lat="45.99617948625253" lon="12.438858873753105"><ele>537.0</ele><time>2026-04-25T08:36:00.999Z</time></trkpt><trkpt lat="45.99615248479085" lon="12.438759831368262"><ele>537.0</ele><time>2026-04-25T08:36:01.999Z</time></trkpt><trkpt lat="45.99611943232525" lon="12.438662285094546"><ele>537.0</ele><time>2026-04-25T08:36:02.999Z</time></trkpt><trkpt lat="45.99609256658099" lon="12.438555810266944"><ele>537.0</ele><time>2026-04-25T08:36:03.999Z</time></trkpt><trkpt lat="45.99601541741588" lon="12.438501848304846"><ele>537.0</ele><time>2026-04-25T08:36:04.999Z</time></trkpt><trkpt lat="45.99592474160912" lon="12.438471827512053"><ele>536.5</ele><time>2026-04-25T08:36:05.999Z</time></trkpt><trkpt lat="45.99583897328645" lon="12.438450698281617"><ele>536.0</ele><time>2026-04-25T08:36:06.999Z</time></trkpt><trkpt lat="45.99576381565916" lon="12.4384239155355"><ele>535.5</ele><time>2026-04-25T08:36:07.999Z</time></trkpt><trkpt lat="45.995690910812684" lon="12.438393540321249"><ele>535.0</ele><time>2026-04-25T08:36:08.999Z</time></trkpt><trkpt lat="45.995619703164486" lon="12.438362386351839"><ele>534.5</ele><time>2026-04-25T08:36:09.999Z</time></trkpt><trkpt lat="45.99554973178664" lon="12.43833148830294"><ele>534.0</ele><time>2026-04-25T08:36:10.999Z</time></trkpt><trkpt lat="45.995479462429266" lon="12.438291431019605"><ele>534.0</ele><time>2026-04-25T08:36:11.999Z</time></trkpt><trkpt lat="45.9954182982193" lon="12.438238912537807"><ele>534.0</ele><time>2026-04-25T08:36:12.999Z</time></trkpt><trkpt lat="45.99536517706462" lon="12.43817017556588"><ele>534.0</ele><time>2026-04-25T08:36:13.999Z</time></trkpt><trkpt lat="45.99533673912668" lon="12.438059823262233"><ele>534.0</ele><time>2026-04-25T08:36:14.999Z</time></trkpt><trkpt lat="45.995287556625385" lon="12.437951008379985"><ele>534.0</ele><time>2026-04-25T08:36:15.999Z</time></trkpt><trkpt lat="45.995224107741166" lon="12.437844012676567"><ele>534.0</ele><time>2026-04-25T08:36:16.999Z</time></trkpt><trkpt lat="45.995152136381385" lon="12.437747621531148"><ele>535.4</ele><time>2026-04-25T08:36:17.999Z</time></trkpt><trkpt lat="45.995078655772" lon="12.437653747352456"><ele>536.8</ele><time>2026-04-25T08:36:18.999Z</time></trkpt><trkpt lat="45.994998461416394" lon="12.437558429862019"><ele>538.2</ele><time>2026-04-25T08:36:19.999Z</time></trkpt><trkpt lat="45.994919590128895" lon="12.437466294453147"><ele>539.6</ele><time>2026-04-25T08:36:20.999Z</time></trkpt><trkpt lat="45.994846832782144" lon="12.437389678916707"><ele>541.0</ele><time>2026-04-25T08:36:21.999Z</time></trkpt><trkpt lat="45.99478217635325" lon="12.437339713808637"><ele>541.0</ele><time>2026-04-25T08:36:22.999Z</time></trkpt><trkpt lat="45.9946852878002" lon="12.437255723067432"><ele>541.0</ele><time>2026-04-25T08:36:24.999Z</time></trkpt><trkpt lat="45.99461107317787" lon="12.4371457103165"><ele>541.0</ele><time>2026-04-25T08:36:26.999Z</time></trkpt><trkpt lat="45.99460961183236" lon="12.43705076272773"><ele>541.0</ele><time>2026-04-25T08:36:27.999Z</time></trkpt><trkpt lat="45.994623891522686" lon="12.436948530976945"><ele>541.0</ele><time>2026-04-25T08:36:28.999Z</time></trkpt><trkpt lat="45.99463563109529" lon="12.436841318685115"><ele>541.0</ele><time>2026-04-25T08:36:29.999Z</time></trkpt><trkpt lat="45.99467144768144" lon="12.436743687105688"><ele>542.7142857142858</ele><time>2026-04-25T08:36:30.999Z</time></trkpt><trkpt lat="45.99469234303829" lon="12.436649377368141"><ele>544.4285714285714</ele><time>2026-04-25T08:36:31.999Z</time></trkpt><trkpt lat="45.994741815607895" lon="12.436582755510814"><ele>546.1428571428571</ele><time>2026-04-25T08:36:32.999Z</time></trkpt><trkpt lat="45.99479903189532" lon="12.436531269158792"><ele>547.8571428571429</ele><time>2026-04-25T08:36:33.999Z</time></trkpt><trkpt lat="45.99486697746385" lon="12.436499576377201"><ele>549.5714285714286</ele><time>2026-04-25T08:36:34.999Z</time></trkpt><trkpt lat="45.994944568460944" lon="12.436488216692114"><ele>551.2857142857143</ele><time>2026-04-25T08:36:35.999Z</time></trkpt><trkpt lat="45.995028044011526" lon="12.436488302951606"><ele>553.0</ele><time>2026-04-25T08:36:36.999Z</time></trkpt><trkpt lat="45.99511704670396" lon="12.436487513019502"><ele>556.1666666666667</ele><time>2026-04-25T08:36:37.999Z</time></trkpt><trkpt lat="45.99520113819115" lon="12.43650093059845"><ele>559.3333333333334</ele><time>2026-04-25T08:36:38.999Z</time></trkpt><trkpt lat="45.99527221576274" lon="12.436555773224272"><ele>562.5</ele><time>2026-04-25T08:36:39.999Z</time></trkpt><trkpt lat="45.995326141432145" lon="12.436644336602162"><ele>565.6666666666666</ele><time>2026-04-25T08:36:40.999Z</time></trkpt><trkpt lat="45.99534766893615" lon="12.436751888304736"><ele>568.8333333333333</ele><time>2026-04-25T08:36:41.999Z</time></trkpt><trkpt lat="45.99535933687921" lon="12.436860358054965"><ele>572.0</ele><time>2026-04-25T08:36:42.999Z</time></trkpt><trkpt lat="45.995388216957636" lon="12.436969643204591"><ele>572.0</ele><time>2026-04-25T08:36:43.999Z</time></trkpt><trkpt lat="45.99544351607923" lon="12.437079467500789"><ele>572.0</ele><time>2026-04-25T08:36:44.999Z</time></trkpt><trkpt lat="45.99552469378556" lon="12.437177654468744"><ele>572.0</ele><time>2026-04-25T08:36:45.999Z</time></trkpt><trkpt lat="45.9956169766874" lon="12.437278345070414"><ele>572.0</ele><time>2026-04-25T08:36:46.999Z</time></trkpt><trkpt lat="45.995691284110656" lon="12.437409277567188"><ele>572.0</ele><time>2026-04-25T08:36:47.999Z</time></trkpt><trkpt lat="45.99575246942671" lon="12.4375384143582"><ele>574.0</ele><time>2026-04-25T08:36:48.999Z</time></trkpt><trkpt lat="45.99581990849551" lon="12.437627589951505"><ele>576.0</ele><time>2026-04-25T08:36:49.999Z</time></trkpt><trkpt lat="45.99589926675731" lon="12.437675169267612"><ele>578.0</ele><time>2026-04-25T08:36:50.999Z</time></trkpt><trkpt lat="45.99599439535725" lon="12.437676266361825"><ele>580.0</ele><time>2026-04-25T08:36:51.999Z</time></trkpt><trkpt lat="45.99610521862417" lon="12.437657772095012"><ele>582.0</ele><time>2026-04-25T08:36:52.999Z</time></trkpt><trkpt lat="45.9962290335651" lon="12.437649625440052"><ele>582.0</ele><time>2026-04-25T08:36:53.999Z</time></trkpt><trkpt lat="45.99635672756889" lon="12.437661440200456"><ele>582.0</ele><time>2026-04-25T08:36:54.999Z</time></trkpt><trkpt lat="45.99648115507049" lon="12.437724799844228"><ele>582.0</ele><time>2026-04-25T08:36:55.999Z</time></trkpt><trkpt lat="45.996610734467296" lon="12.437828103433754"><ele>582.0</ele><time>2026-04-25T08:36:56.999Z</time></trkpt><trkpt lat="45.9967496322569" lon="12.437921796714198"><ele>583.2</ele><time>2026-04-25T08:36:57.999Z</time></trkpt><trkpt lat="45.996873749419585" lon="12.437980312224811"><ele>584.4000000000001</ele><time>2026-04-25T08:36:58.999Z</time></trkpt><trkpt lat="45.99696786882297" lon="12.438066761911827"><ele>585.5999999999999</ele><time>2026-04-25T08:36:59.999Z</time></trkpt><trkpt lat="45.99703452389686" lon="12.438184585852426"><ele>586.8</ele><time>2026-04-25T08:37:00.999Z</time></trkpt><trkpt lat="45.997068411309975" lon="12.438319843331165"><ele>588.0</ele><time>2026-04-25T08:37:01.999Z</time></trkpt><trkpt lat="45.99709827750508" lon="12.438449247382062"><ele>588.0</ele><time>2026-04-25T08:37:02.999Z</time></trkpt><trkpt lat="45.99715435871407" lon="12.438549766109778"><ele>588.0</ele><time>2026-04-25T08:37:03.999Z</time></trkpt><trkpt lat="45.99724543307421" lon="12.438609018973041"><ele>588.0</ele><time>2026-04-25T08:37:04.999Z</time></trkpt><trkpt lat="45.99735963665499" lon="12.438629738543469"><ele>588.0</ele><time>2026-04-25T08:37:05.999Z</time></trkpt><trkpt lat="45.997487689626674" lon="12.43864683199682"><ele>588.0</ele><time>2026-04-25T08:37:06.999Z</time></trkpt><trkpt lat="45.99762984373615" lon="12.438653355308823"><ele>589.5</ele><time>2026-04-25T08:37:07.999Z</time></trkpt><trkpt lat="45.99776308852361" lon="12.438624584397283"><ele>591.0</ele><time>2026-04-25T08:37:09Z</time></trkpt><trkpt lat="45.99788042177771" lon="12.438587079848629"><ele>592.5</ele><time>2026-04-25T08:37:09.999Z</time></trkpt><trkpt lat="45.99800158051486" lon="12.438505202042816"><ele>594.0</ele><time>2026-04-25T08:37:11Z</time></trkpt><trkpt lat="45.99813188967239" lon="12.43836378369566"><ele>594.0</ele><time>2026-04-25T08:37:12Z</time></trkpt><trkpt lat="45.99825579432342" lon="12.438232503368566"><ele>594.0</ele><time>2026-04-25T08:37:13Z</time></trkpt><trkpt lat="45.99836420647664" lon="12.438149245711974"><ele>594.0</ele><time>2026-04-25T08:37:14Z</time></trkpt><trkpt lat="45.99846963884782" lon="12.438082356896313"><ele>594.0</ele><time>2026-04-25T08:37:15Z</time></trkpt><trkpt lat="45.998557057031014" lon="12.438039884466933"><ele>598.25</ele><time>2026-04-25T08:37:16Z</time></trkpt><trkpt lat="45.99865615291099" lon="12.438034238517682"><ele>602.5</ele><time>2026-04-25T08:37:17Z</time></trkpt><trkpt lat="45.998762693233324" lon="12.438078472579692"><ele>606.75</ele><time>2026-04-25T08:37:18Z</time></trkpt><trkpt lat="45.998872349627916" lon="12.438179329715018"><ele>611.0</ele><time>2026-04-25T08:37:19Z</time></trkpt><trkpt lat="45.99898300622828" lon="12.438285380891514"><ele>611.0</ele><time>2026-04-25T08:37:20Z</time></trkpt><trkpt lat="45.99907845280696" lon="12.43843021016312"><ele>611.0</ele><time>2026-04-25T08:37:21Z</time></trkpt><trkpt lat="45.99914785118214" lon="12.438599801986808"><ele>611.0</ele><time>2026-04-25T08:37:22Z</time></trkpt><trkpt lat="45.9992236447373" lon="12.43873646690835"><ele>611.0</ele><time>2026-04-25T08:37:23Z</time></trkpt><trkpt lat="45.999345184259774" lon="12.438844624112884"><ele>613.6666666666666</ele><time>2026-04-25T08:37:24Z</time></trkpt><trkpt lat="45.999493660297915" lon="12.4389456512652"><ele>616.3333333333334</ele><time>2026-04-25T08:37:25Z</time></trkpt><trkpt lat="45.99964454075492" lon="12.439065794481378"><ele>619.0</ele><time>2026-04-25T08:37:26Z</time></trkpt><trkpt lat="45.999775207897464" lon="12.439179218863414"><ele>619.0</ele><time>2026-04-25T08:37:26.999Z</time></trkpt><trkpt lat="45.99988687548218" lon="12.439270485605835"><ele>619.0</ele><time>2026-04-25T08:37:27.999Z</time></trkpt><trkpt lat="46.00000538299133" lon="12.439345849368355"><ele>619.0</ele><time>2026-04-25T08:37:28.999Z</time></trkpt><trkpt lat="46.000139607201355" lon="12.439385503256304"><ele>619.0</ele><time>2026-04-25T08:37:29.999Z</time></trkpt><trkpt lat="46.0002832283581" lon="12.439400621943944"><ele>619.0</ele><time>2026-04-25T08:37:30.999Z</time></trkpt><trkpt lat="46.000437241160995" lon="12.439386143197998"><ele>619.0</ele><time>2026-04-25T08:37:31.999Z</time></trkpt><trkpt lat="46.0006164155226" lon="12.439350525928175"><ele>619.0</ele><time>2026-04-25T08:37:32.999Z</time></trkpt><trkpt lat="46.00080309835757" lon="12.439327358992399"><ele>623.0</ele><time>2026-04-25T08:37:33.999Z</time></trkpt><trkpt lat="46.000945014578505" lon="12.43931651590614"><ele>627.0</ele><time>2026-04-25T08:37:34.999Z</time></trkpt><trkpt lat="46.0010659346863" lon="12.43933513390249"><ele>631.0</ele><time>2026-04-25T08:37:35.999Z</time></trkpt><trkpt lat="46.00117861663522" lon="12.439385028385221"><ele>635.0</ele><time>2026-04-25T08:37:36.999Z</time></trkpt><trkpt lat="46.00128227587139" lon="12.439483186716387"><ele>635.0</ele><time>2026-04-25T08:37:37.999Z</time></trkpt><trkpt lat="46.001374051474855" lon="12.439610827154741"><ele>635.0</ele><time>2026-04-25T08:37:38.999Z</time></trkpt><trkpt lat="46.001442278123925" lon="12.439712545204115"><ele>635.0</ele><time>2026-04-25T08:37:39.999Z</time></trkpt><trkpt lat="46.00152111524433" lon="12.439777424592426"><ele>635.0</ele><time>2026-04-25T08:37:40.999Z</time></trkpt><trkpt lat="46.001632993337715" lon="12.439804761573184"><ele>635.0</ele><time>2026-04-25T08:37:41.999Z</time></trkpt><trkpt lat="46.001777569127455" lon="12.439779777912115"><ele>631.3333333333333</ele><time>2026-04-25T08:37:42.999Z</time></trkpt><trkpt lat="46.00193429558094" lon="12.439743617783819"><ele>627.6666666666666</ele><time>2026-04-25T08:37:43.999Z</time></trkpt><trkpt lat="46.00208359989513" lon="12.439701602903606"><ele>624.0</ele><time>2026-04-25T08:37:44.999Z</time></trkpt><trkpt lat="46.00222849417459" lon="12.439634700157457"><ele>630.75</ele><time>2026-04-25T08:37:45.999Z</time></trkpt><trkpt lat="46.00236523589361" lon="12.439589082910462"><ele>637.5</ele><time>2026-04-25T08:37:46.999Z</time></trkpt><trkpt lat="46.002502263792096" lon="12.43958243911924"><ele>644.25</ele><time>2026-04-25T08:37:47.999Z</time></trkpt><trkpt lat="46.00265309496385" lon="12.43960004059221"><ele>651.0</ele><time>2026-04-25T08:37:48.999Z</time></trkpt><trkpt lat="46.00280286785932" lon="12.439620930300986"><ele>646.75</ele><time>2026-04-25T08:37:49.999Z</time></trkpt><trkpt lat="46.002936635067165" lon="12.439638708482134"><ele>642.5</ele><time>2026-04-25T08:37:50.999Z</time></trkpt><trkpt lat="46.00304255873898" lon="12.43967224501159"><ele>638.25</ele><time>2026-04-25T08:37:51.999Z</time></trkpt><trkpt lat="46.0031385144793" lon="12.439738112573838"><ele>634.0</ele><time>2026-04-25T08:37:52.999Z</time></trkpt><trkpt lat="46.00323247742564" lon="12.439857359306501"><ele>636.8</ele><time>2026-04-25T08:37:53.999Z</time></trkpt><trkpt lat="46.003343142575076" lon="12.43996167790628"><ele>639.5999999999999</ele><time>2026-04-25T08:37:54.999Z</time></trkpt><trkpt lat="46.003442309153726" lon="12.440018291794361"><ele>642.4</ele><time>2026-04-25T08:37:55.999Z</time></trkpt><trkpt lat="46.00352792921464" lon="12.440057383519395"><ele>645.1999999999999</ele><time>2026-04-25T08:37:56.999Z</time></trkpt><trkpt lat="46.00359185140683" lon="12.440077297164049"><ele>648.0</ele><time>2026-04-25T08:37:57.999Z</time></trkpt><trkpt lat="46.0037015145333" lon="12.440040126457664"><ele>648.0</ele><time>2026-04-25T08:37:59.999Z</time></trkpt><trkpt lat="46.00372180572019" lon="12.439953330410694"><ele>648.0</ele><time>2026-04-25T08:38:00.999Z</time></trkpt><trkpt lat="46.00369511770606" lon="12.439864544009332"><ele>648.0</ele><time>2026-04-25T08:38:01.999Z</time></trkpt><trkpt lat="46.00363839346204" lon="12.439782905485682"><ele>648.0</ele><time>2026-04-25T08:38:02.999Z</time></trkpt><trkpt lat="46.00354497224163" lon="12.439784972549162"><ele>648.0</ele><time>2026-04-25T08:38:03.999Z</time></trkpt><trkpt lat="46.00345692247191" lon="12.43975349103347"><ele>648.0</ele><time>2026-04-25T08:38:04.999Z</time></trkpt><trkpt lat="46.003409395337094" lon="12.43963392436558"><ele>650.5</ele><time>2026-04-25T08:38:05.999Z</time></trkpt><trkpt lat="46.00338064482316" lon="12.439496394604385"><ele>653.0</ele><time>2026-04-25T08:38:06.999Z</time></trkpt><trkpt lat="46.00333091001412" lon="12.439349722824563"><ele>655.5</ele><time>2026-04-25T08:38:07.999Z</time></trkpt><trkpt lat="46.00326594229158" lon="12.439209171897243"><ele>658.0</ele><time>2026-04-25T08:38:08.999Z</time></trkpt><trkpt lat="46.003178331392675" lon="12.439088556342263"><ele>658.0</ele><time>2026-04-25T08:38:09.999Z</time></trkpt><trkpt lat="46.003060702078564" lon="12.438993143565387"><ele>658.0</ele><time>2026-04-25T08:38:10.999Z</time></trkpt><trkpt lat="46.002925295831275" lon="12.438892555716103"><ele>658.0</ele><time>2026-04-25T08:38:11.999Z</time></trkpt><trkpt lat="46.00278330112767" lon="12.438789616960657"><ele>658.0</ele><time>2026-04-25T08:38:12.999Z</time></trkpt><trkpt lat="46.002632951664964" lon="12.438684687950069"><ele>663.6666666666667</ele><time>2026-04-25T08:38:13.999Z</time></trkpt><trkpt lat="46.00247985577133" lon="12.438582461820195"><ele>669.3333333333334</ele><time>2026-04-25T08:38:14.999Z</time></trkpt><trkpt lat="46.002334859796036" lon="12.438474109359834"><ele>675.0</ele><time>2026-04-25T08:38:15.999Z</time></trkpt><trkpt lat="46.00219369703058" lon="12.438402223129968"><ele>675.0</ele><time>2026-04-25T08:38:16.999Z</time></trkpt><trkpt lat="46.0020688343488" lon="12.43834065255155"><ele>675.0</ele><time>2026-04-25T08:38:17.999Z</time></trkpt><trkpt lat="46.001947879907085" lon="12.438285940496575"><ele>675.0</ele><time>2026-04-25T08:38:18.999Z</time></trkpt><trkpt lat="46.0018298126025" lon="12.438180641911625"><ele>675.0</ele><time>2026-04-25T08:38:19.999Z</time></trkpt><trkpt lat="46.001703149500564" lon="12.438056696344157"><ele>680.3333333333334</ele><time>2026-04-25T08:38:20.999Z</time></trkpt><trkpt lat="46.00157127864807" lon="12.43792515290407"><ele>685.6666666666667</ele><time>2026-04-25T08:38:21.999Z</time></trkpt><trkpt lat="46.00143719593275" lon="12.43779332231726"><ele>691.0</ele><time>2026-04-25T08:38:22.999Z</time></trkpt><trkpt lat="46.00130349432791" lon="12.437680345178332"><ele>691.0</ele><time>2026-04-25T08:38:23.999Z</time></trkpt><trkpt lat="46.001159505006534" lon="12.437586515398749"><ele>691.0</ele><time>2026-04-25T08:38:24.999Z</time></trkpt><trkpt lat="46.001006178689096" lon="12.437559996966987"><ele>691.0</ele><time>2026-04-25T08:38:25.999Z</time></trkpt><trkpt lat="46.00088043731664" lon="12.437546392403304"><ele>691.0</ele><time>2026-04-25T08:38:26.999Z</time></trkpt><trkpt lat="46.00079276505551" lon="12.437528384704322"><ele>690.1666666666667</ele><time>2026-04-25T08:38:27.999Z</time></trkpt><trkpt lat="46.0007199598097" lon="12.437515044422073"><ele>689.3333333333334</ele><time>2026-04-25T08:38:28.999Z</time></trkpt><trkpt lat="46.00066084461132" lon="12.437434742631373"><ele>688.5</ele><time>2026-04-25T08:38:29.999Z</time></trkpt><trkpt lat="46.00062445241227" lon="12.437301444066335"><ele>687.6666666666666</ele><time>2026-04-25T08:38:30.999Z</time></trkpt><trkpt lat="46.00059378197977" lon="12.437157894213053"><ele>686.8333333333333</ele><time>2026-04-25T08:38:31.999Z</time></trkpt><trkpt lat="46.00054309938097" lon="12.437053251998124"><ele>686.0</ele><time>2026-04-25T08:38:32.999Z</time></trkpt><trkpt lat="46.00046392893762" lon="12.436944515216448"><ele>686.0</ele><time>2026-04-25T08:38:33.999Z</time></trkpt><trkpt lat="46.000359817907416" lon="12.436832667796224"><ele>686.0</ele><time>2026-04-25T08:38:34.999Z</time></trkpt><trkpt lat="46.000242557815376" lon="12.436714842936208"><ele>686.0</ele><time>2026-04-25T08:38:35.999Z</time></trkpt><trkpt lat="46.000112739571826" lon="12.436598425198317"><ele>686.0</ele><time>2026-04-25T08:38:36.999Z</time></trkpt><trkpt lat="45.99996889706357" lon="12.4364926911967"><ele>686.0</ele><time>2026-04-25T08:38:37.999Z</time></trkpt><trkpt lat="45.9998427543395" lon="12.436372422777806"><ele>686.0</ele><time>2026-04-25T08:38:38.999Z</time></trkpt><trkpt lat="45.99973518094555" lon="12.436220605537446"><ele>686.0</ele><time>2026-04-25T08:38:39.999Z</time></trkpt><trkpt lat="45.999637730945466" lon="12.436090772326743"><ele>686.0</ele><time>2026-04-25T08:38:40.999Z</time></trkpt><trkpt lat="45.999550164875615" lon="12.436000126138612"><ele>692.5</ele><time>2026-04-25T08:38:41.999Z</time></trkpt><trkpt lat="45.999483540942244" lon="12.435893536669214"><ele>699.0</ele><time>2026-04-25T08:38:42.999Z</time></trkpt><trkpt lat="45.999452918906" lon="12.435721745225809"><ele>705.5</ele><time>2026-04-25T08:38:43.999Z</time></trkpt><trkpt lat="45.99941359813098" lon="12.435538506106885"><ele>712.0</ele><time>2026-04-25T08:38:44.999Z</time></trkpt><trkpt lat="45.99938101373884" lon="12.435377592903384"><ele>709.75</ele><time>2026-04-25T08:38:45.999Z</time></trkpt><trkpt lat="45.999325262306456" lon="12.435236638244623"><ele>707.5</ele><time>2026-04-25T08:38:46.999Z</time></trkpt><trkpt lat="45.99923933788269" lon="12.435118486434979"><ele>705.25</ele><time>2026-04-25T08:38:47.999Z</time></trkpt><trkpt lat="45.9991315619219" lon="12.435024760553798"><ele>703.0</ele><time>2026-04-25T08:38:48.999Z</time></trkpt><trkpt lat="45.99901271060745" lon="12.43492775106942"><ele>703.0</ele><time>2026-04-25T08:38:49.999Z</time></trkpt><trkpt lat="45.99889634454634" lon="12.434835877171448"><ele>703.0</ele><time>2026-04-25T08:38:50.999Z</time></trkpt><trkpt lat="45.99880211205613" lon="12.434735409358952"><ele>703.0</ele><time>2026-04-25T08:38:51.999Z</time></trkpt><trkpt lat="45.99872773938217" lon="12.434641515547423"><ele>703.0</ele><time>2026-04-25T08:38:52.999Z</time></trkpt><trkpt lat="45.998670013762855" lon="12.43455861089601"><ele>703.0</ele><time>2026-04-25T08:38:53.999Z</time></trkpt><trkpt lat="45.99862423903854" lon="12.434474398808254"><ele>706.8</ele><time>2026-04-25T08:38:54.999Z</time></trkpt><trkpt lat="45.99863046542524" lon="12.434349111333159"><ele>710.5999999999999</ele><time>2026-04-25T08:38:55.999Z</time></trkpt><trkpt lat="45.99867169947098" lon="12.434190232974803"><ele>714.4000000000001</ele><time>2026-04-25T08:38:56.999Z</time></trkpt><trkpt lat="45.99872142133069" lon="12.43402587426301"><ele>718.2</ele><time>2026-04-25T08:38:57.999Z</time></trkpt><trkpt lat="45.99875272750943" lon="12.433897185900657"><ele>722.0</ele><time>2026-04-25T08:38:58.999Z</time></trkpt><trkpt lat="45.998781080079326" lon="12.43377744922012"><ele>722.25</ele><time>2026-04-25T08:38:59.999Z</time></trkpt><trkpt lat="45.99885403984454" lon="12.433685913612365"><ele>722.5</ele><time>2026-04-25T08:39:00.999Z</time></trkpt><trkpt lat="45.998958790674145" lon="12.433623958294593"><ele>722.75</ele><time>2026-04-25T08:39:01.999Z</time></trkpt><trkpt lat="45.99907651400624" lon="12.43356399516969"><ele>723.0</ele><time>2026-04-25T08:39:02.999Z</time></trkpt><trkpt lat="45.99917836401323" lon="12.433485499901336"><ele>729.5</ele><time>2026-04-25T08:39:03.999Z</time></trkpt><trkpt lat="45.999258615401985" lon="12.433362033118497"><ele>736.0</ele><time>2026-04-25T08:39:04.999Z</time></trkpt><trkpt lat="45.999316239860725" lon="12.43320341465091"><ele>742.5</ele><time>2026-04-25T08:39:05.999Z</time></trkpt><trkpt lat="45.99937676385283" lon="12.433056229910996"><ele>749.0</ele><time>2026-04-25T08:39:06.999Z</time></trkpt><trkpt lat="45.99940942316813" lon="12.432891705537843"><ele>749.0</ele><time>2026-04-25T08:39:07.999Z</time></trkpt><trkpt lat="45.999477040371254" lon="12.43274288806444"><ele>749.0</ele><time>2026-04-25T08:39:08.999Z</time></trkpt><trkpt lat="45.999524992773004" lon="12.432541679593344"><ele>749.0</ele><time>2026-04-25T08:39:09.999Z</time></trkpt><trkpt lat="45.999544963216366" lon="12.432326315314706"><ele>749.0</ele><time>2026-04-25T08:39:10.999Z</time></trkpt><trkpt lat="45.99956789772333" lon="12.432162657550037"><ele>750.25</ele><time>2026-04-25T08:39:11.999Z</time></trkpt><trkpt lat="45.99958685277564" lon="12.432020054330836"><ele>751.5</ele><time>2026-04-25T08:39:12.999Z</time></trkpt><trkpt lat="45.99959742384115" lon="12.431875902378728"><ele>752.75</ele><time>2026-04-25T08:39:13.999Z</time></trkpt><trkpt lat="45.999520962688386" lon="12.431737762134748"><ele>754.0</ele><time>2026-04-25T08:39:14.999Z</time></trkpt><trkpt lat="45.99943158033887" lon="12.431608673047725"><ele>754.0</ele><time>2026-04-25T08:39:15.999Z</time></trkpt><trkpt lat="45.99931755332281" lon="12.43145874338451"><ele>754.0</ele><time>2026-04-25T08:39:16.999Z</time></trkpt><trkpt lat="45.9992009326033" lon="12.431331538261743"><ele>754.0</ele><time>2026-04-25T08:39:17.999Z</time></trkpt><trkpt lat="45.999113415442324" lon="12.431228515429932"><ele>754.0</ele><time>2026-04-25T08:39:18.999Z</time></trkpt><trkpt lat="45.99905145043659" lon="12.431133466339762"><ele>755.5</ele><time>2026-04-25T08:39:19.999Z</time></trkpt><trkpt lat="45.99901299871106" lon="12.431043147649218"><ele>757.0</ele><time>2026-04-25T08:39:20.999Z</time></trkpt><trkpt lat="45.999030260636665" lon="12.430938497768581"><ele>758.5</ele><time>2026-04-25T08:39:21.999Z</time></trkpt><trkpt lat="45.999078054803014" lon="12.430848360682647"><ele>760.0</ele><time>2026-04-25T08:39:22.999Z</time></trkpt><trkpt lat="45.99914201680939" lon="12.430746264409311"><ele>761.5</ele><time>2026-04-25T08:39:23.999Z</time></trkpt><trkpt lat="45.99920319922068" lon="12.430610182024488"><ele>763.0</ele><time>2026-04-25T08:39:24.999Z</time></trkpt><trkpt lat="45.9992985811018" lon="12.430459716608619"><ele>763.0</ele><time>2026-04-25T08:39:25.999Z</time></trkpt><trkpt lat="45.999393000829436" lon="12.430281493944365"><ele>763.0</ele><time>2026-04-25T08:39:26.999Z</time></trkpt><trkpt lat="45.999468831996076" lon="12.430116137521281"><ele>763.0</ele><time>2026-04-25T08:39:27.999Z</time></trkpt><trkpt lat="45.999554124099724" lon="12.429965055699148"><ele>763.0</ele><time>2026-04-25T08:39:28.999Z</time></trkpt><trkpt lat="45.99965870855392" lon="12.429833060009708"><ele>763.0</ele><time>2026-04-25T08:39:29.999Z</time></trkpt><trkpt lat="45.9997317843182" lon="12.429688684630422"><ele>763.0</ele><time>2026-04-25T08:39:30.999Z</time></trkpt><trkpt lat="45.99980189782507" lon="12.429591646674695"><ele>763.0</ele><time>2026-04-25T08:39:31.999Z</time></trkpt><trkpt lat="45.99986104280479" lon="12.429504440812993"><ele>763.0</ele><time>2026-04-25T08:39:32.999Z</time></trkpt><trkpt lat="45.99992202868801" lon="12.42944927932076"><ele>763.0</ele><time>2026-04-25T08:39:33.999Z</time></trkpt><trkpt lat="46.00003825948518" lon="12.42949629115074"><ele>763.0</ele><time>2026-04-25T08:39:35.999Z</time></trkpt><trkpt lat="46.00006169971658" lon="12.429602948901673"><ele>763.0</ele><time>2026-04-25T08:39:36.999Z</time></trkpt><trkpt lat="46.000039876745745" lon="12.429706181983555"><ele>763.0</ele><time>2026-04-25T08:39:37.999Z</time></trkpt><trkpt lat="45.999985173930874" lon="12.429775553332078"><ele>763.0</ele><time>2026-04-25T08:39:38.999Z</time></trkpt><trkpt lat="45.9998932911149" lon="12.429804959124553"><ele>763.0</ele><time>2026-04-25T08:39:39.999Z</time></trkpt><trkpt lat="45.99980427146173" lon="12.429878416885348"><ele>763.0</ele><time>2026-04-25T08:39:40.999Z</time></trkpt><trkpt lat="45.99972656300343" lon="12.430009818772195"><ele>763.0</ele><time>2026-04-25T08:39:41.999Z</time></trkpt><trkpt lat="45.99967542401962" lon="12.430178278550935"><ele>763.0</ele><time>2026-04-25T08:39:42.999Z</time></trkpt><trkpt lat="45.99964112258533" lon="12.430374079657838"><ele>763.0</ele><time>2026-04-25T08:39:43.999Z</time></trkpt><trkpt lat="45.99959817562205" lon="12.430510330734087"><ele>763.0</ele><time>2026-04-25T08:39:44.999Z</time></trkpt><trkpt lat="45.999549673545914" lon="12.430628411706586"><ele>763.5</ele><time>2026-04-25T08:39:45.999Z</time></trkpt><trkpt lat="45.99953457580424" lon="12.430735848984325"><ele>764.0</ele><time>2026-04-25T08:39:46.999Z</time></trkpt><trkpt lat="45.9995472933347" lon="12.430848309067766"><ele>764.5</ele><time>2026-04-25T08:39:47.999Z</time></trkpt><trkpt lat="45.999603533313305" lon="12.43092577634338"><ele>765.0</ele><time>2026-04-25T08:39:48.999Z</time></trkpt><trkpt lat="45.99970739664598" lon="12.430957810319489"><ele>765.5</ele><time>2026-04-25T08:39:49.999Z</time></trkpt><trkpt lat="45.9998159648723" lon="12.430952260208706"><ele>766.0</ele><time>2026-04-25T08:39:50.999Z</time></trkpt><trkpt lat="45.99992392418345" lon="12.430957147636088"><ele>766.0</ele><time>2026-04-25T08:39:51.999Z</time></trkpt><trkpt lat="46.0000477250682" lon="12.430981827991781"><ele>766.0</ele><time>2026-04-25T08:39:52.999Z</time></trkpt><trkpt lat="46.00017698812928" lon="12.4310173437442"><ele>766.0</ele><time>2026-04-25T08:39:53.999Z</time></trkpt><trkpt lat="46.00029808170142" lon="12.431065008332073"><ele>766.0</ele><time>2026-04-25T08:39:54.999Z</time></trkpt><trkpt lat="46.0004087409929" lon="12.43115010103026"><ele>766.0</ele><time>2026-04-25T08:39:55.999Z</time></trkpt><trkpt lat="46.00050605182605" lon="12.431240171092393"><ele>766.0</ele><time>2026-04-25T08:39:56.999Z</time></trkpt><trkpt lat="46.00058281400182" lon="12.43134343213192"><ele>766.0</ele><time>2026-04-25T08:39:57.999Z</time></trkpt><trkpt lat="46.00062944357616" lon="12.431471372457574"><ele>766.0</ele><time>2026-04-25T08:39:58.999Z</time></trkpt><trkpt lat="46.000637269023144" lon="12.431603151620703"><ele>766.0</ele><time>2026-04-25T08:39:59.999Z</time></trkpt><trkpt lat="46.0006296841222" lon="12.431728207397786"><ele>763.5999999999999</ele><time>2026-04-25T08:40:00.999Z</time></trkpt><trkpt lat="46.00062394014374" lon="12.431836594823475"><ele>761.2</ele><time>2026-04-25T08:40:01.999Z</time></trkpt><trkpt lat="46.000630907505915" lon="12.431948030984522"><ele>758.8</ele><time>2026-04-25T08:40:02.999Z</time></trkpt><trkpt lat="46.00062436820659" lon="12.432098835868992"><ele>756.4000000000001</ele><time>2026-04-25T08:40:03.999Z</time></trkpt><trkpt lat="46.000628840618006" lon="12.432285860402141"><ele>754.0</ele><time>2026-04-25T08:40:04.999Z</time></trkpt><trkpt lat="46.0006537584221" lon="12.432484652903794"><ele>753.8333333333334</ele><time>2026-04-25T08:40:05.999Z</time></trkpt><trkpt lat="46.000648971749044" lon="12.432640602382337"><ele>753.6666666666667</ele><time>2026-04-25T08:40:06.999Z</time></trkpt><trkpt lat="46.00062800376191" lon="12.432773015794366"><ele>753.5</ele><time>2026-04-25T08:40:07.999Z</time></trkpt><trkpt lat="46.00062977860596" lon="12.432876889963435"><ele>753.3333333333334</ele><time>2026-04-25T08:40:08.999Z</time></trkpt><trkpt lat="46.000664455617205" lon="12.4329657717787"><ele>753.1666666666666</ele><time>2026-04-25T08:40:09.999Z</time></trkpt><trkpt lat="46.00072047976504" lon="12.433081702934762"><ele>753.0</ele><time>2026-04-25T08:40:10.999Z</time></trkpt><trkpt lat="46.000806491387415" lon="12.43319468460433"><ele>758.5999999999999</ele><time>2026-04-25T08:40:11.999Z</time></trkpt><trkpt lat="46.00089539653069" lon="12.433303154776407"><ele>764.1999999999999</ele><time>2026-04-25T08:40:12.999Z</time></trkpt><trkpt lat="46.00094452287549" lon="12.43343519640045"><ele>769.8</ele><time>2026-04-25T08:40:13.999Z</time></trkpt><trkpt lat="46.000962091968596" lon="12.433584188505701"><ele>775.4</ele><time>2026-04-25T08:40:14.999Z</time></trkpt><trkpt lat="46.000960733579234" lon="12.433750959859578"><ele>781.0</ele><time>2026-04-25T08:40:15.999Z</time></trkpt><trkpt lat="46.0009555287375" lon="12.433907278665112"><ele>781.0</ele><time>2026-04-25T08:40:16.999Z</time></trkpt><trkpt lat="46.00095609135588" lon="12.434029416270908"><ele>781.0</ele><time>2026-04-25T08:40:17.999Z</time></trkpt><trkpt lat="46.00095650195172" lon="12.43413938091106"><ele>781.0</ele><time>2026-04-25T08:40:18.999Z</time></trkpt><trkpt lat="46.00105526661697" lon="12.43421669771346"><ele>781.0</ele><time>2026-04-25T08:40:19.999Z</time></trkpt><trkpt lat="46.00116134758295" lon="12.434269511945573"><ele>781.0</ele><time>2026-04-25T08:40:20.999Z</time></trkpt><trkpt lat="46.001304967238994" lon="12.434328712776699"><ele>781.0</ele><time>2026-04-25T08:40:21.999Z</time></trkpt><trkpt lat="46.00143648330982" lon="12.434414089602528"><ele>781.0</ele><time>2026-04-25T08:40:22.999Z</time></trkpt><trkpt lat="46.00154619584076" lon="12.43446174962683"><ele>781.0</ele><time>2026-04-25T08:40:23.999Z</time></trkpt><trkpt lat="46.00163969633521" lon="12.434536328107468"><ele>781.0</ele><time>2026-04-25T08:40:24.999Z</time></trkpt><trkpt lat="46.001718520158136" lon="12.434600623480904"><ele>783.75</ele><time>2026-04-25T08:40:25.999Z</time></trkpt><trkpt lat="46.00181386455975" lon="12.434647104954264"><ele>786.5</ele><time>2026-04-25T08:40:26.999Z</time></trkpt><trkpt lat="46.00192223119761" lon="12.434701255568765"><ele>789.25</ele><time>2026-04-25T08:40:27.999Z</time></trkpt><trkpt lat="46.00204928412391" lon="12.434722249808315"><ele>792.0</ele><time>2026-04-25T08:40:28.999Z</time></trkpt><trkpt lat="46.00216669377766" lon="12.4347142859144"><ele>792.0</ele><time>2026-04-25T08:40:29.999Z</time></trkpt><trkpt lat="46.00226249028343" lon="12.434689904373881"><ele>792.0</ele><time>2026-04-25T08:40:30.999Z</time></trkpt><trkpt lat="46.00235354471023" lon="12.434699113843376"><ele>792.0</ele><time>2026-04-25T08:40:31.999Z</time></trkpt><trkpt lat="46.00243892097596" lon="12.434736158907254"><ele>792.0</ele><time>2026-04-25T08:40:32.999Z</time></trkpt><trkpt lat="46.00251187805168" lon="12.434836629118879"><ele>792.0</ele><time>2026-04-25T08:40:33.999Z</time></trkpt><trkpt lat="46.002575634834386" lon="12.4349820562778"><ele>796.0</ele><time>2026-04-25T08:40:34.999Z</time></trkpt><trkpt lat="46.002651655280324" lon="12.435107849350421"><ele>800.0</ele><time>2026-04-25T08:40:35.999Z</time></trkpt><trkpt lat="46.002755773222795" lon="12.435201145608163"><ele>804.0</ele><time>2026-04-25T08:40:36.999Z</time></trkpt><trkpt lat="46.00287332070853" lon="12.435268880679304"><ele>808.0</ele><time>2026-04-25T08:40:37.999Z</time></trkpt><trkpt lat="46.002957985708186" lon="12.435367516889775"><ele>808.75</ele><time>2026-04-25T08:40:38.999Z</time></trkpt><trkpt lat="46.003030057695234" lon="12.43549188444458"><ele>809.5</ele><time>2026-04-25T08:40:39.999Z</time></trkpt><trkpt lat="46.0031221303526" lon="12.435580374346275"><ele>810.25</ele><time>2026-04-25T08:40:40.999Z</time></trkpt><trkpt lat="46.00324642260383" lon="12.435635819977174"><ele>811.0</ele><time>2026-04-25T08:40:41.999Z</time></trkpt><trkpt lat="46.00339106102805" lon="12.43566599981144"><ele>811.0</ele><time>2026-04-25T08:40:42.999Z</time></trkpt><trkpt lat="46.00354364743154" lon="12.435665026859551"><ele>811.0</ele><time>2026-04-25T08:40:43.999Z</time></trkpt><trkpt lat="46.00369753538016" lon="12.43564801374383"><ele>811.0</ele><time>2026-04-25T08:40:44.999Z</time></trkpt><trkpt lat="46.00383588231845" lon="12.435608369246802"><ele>811.0</ele><time>2026-04-25T08:40:45.999Z</time></trkpt><trkpt lat="46.003970114694326" lon="12.43552781891861"><ele>819.0</ele><time>2026-04-25T08:40:46.999Z</time></trkpt><trkpt lat="46.004107094290625" lon="12.435414698011028"><ele>827.0</ele><time>2026-04-25T08:40:47.999Z</time></trkpt><trkpt lat="46.00425116798916" lon="12.435278461940493"><ele>835.0</ele><time>2026-04-25T08:40:48.999Z</time></trkpt><trkpt lat="46.004406075917935" lon="12.435136779617226"><ele>837.6666666666666</ele><time>2026-04-25T08:40:49.999Z</time></trkpt><trkpt lat="46.0045502798104" lon="12.4349919301018"><ele>840.3333333333333</ele><time>2026-04-25T08:40:50.999Z</time></trkpt><trkpt lat="46.004683735403354" lon="12.434833546044297"><ele>843.0</ele><time>2026-04-25T08:40:51.999Z</time></trkpt><trkpt lat="46.00480185147777" lon="12.43468124880543"><ele>843.5999999999999</ele><time>2026-04-25T08:40:52.999Z</time></trkpt><trkpt lat="46.00489917473268" lon="12.43455331847187"><ele>844.1999999999999</ele><time>2026-04-25T08:40:53.999Z</time></trkpt><trkpt lat="46.004981898533224" lon="12.43444186415296"><ele>844.8</ele><time>2026-04-25T08:40:54.999Z</time></trkpt><trkpt lat="46.00505571227468" lon="12.434333150186301"><ele>845.4</ele><time>2026-04-25T08:40:55.999Z</time></trkpt><trkpt lat="46.005107819290856" lon="12.434240713551873"><ele>846.0</ele><time>2026-04-25T08:40:56.999Z</time></trkpt><trkpt lat="46.00514411431062" lon="12.434160087135725"><ele>846.0</ele><time>2026-04-25T08:40:57.999Z</time></trkpt><trkpt lat="46.00517380700478" lon="12.434067810179608"><ele>846.0</ele><time>2026-04-25T08:40:58.999Z</time></trkpt><trkpt lat="46.00517376766993" lon="12.433964262539424"><ele>846.0</ele><time>2026-04-25T08:40:59.999Z</time></trkpt><trkpt lat="46.00511720861484" lon="12.433837839979025"><ele>846.0</ele><time>2026-04-25T08:41:00.999Z</time></trkpt><trkpt lat="46.00505494399999" lon="12.433695125202588"><ele>846.0</ele><time>2026-04-25T08:41:01.999Z</time></trkpt><trkpt lat="46.00503464743041" lon="12.433563039435256"><ele>847.4</ele><time>2026-04-25T08:41:02.999Z</time></trkpt><trkpt lat="46.0050545040604" lon="12.433431221478825"><ele>848.8</ele><time>2026-04-25T08:41:03.999Z</time></trkpt><trkpt lat="46.00509585561013" lon="12.43331292291609"><ele>850.1999999999999</ele><time>2026-04-25T08:41:04.999Z</time></trkpt><trkpt lat="46.00514776440978" lon="12.433175406892765"><ele>851.5999999999999</ele><time>2026-04-25T08:41:05.999Z</time></trkpt><trkpt lat="46.005189266023926" lon="12.433026403171338"><ele>853.0</ele><time>2026-04-25T08:41:06.999Z</time></trkpt><trkpt lat="46.00524389861294" lon="12.432911217024847"><ele>856.5</ele><time>2026-04-25T08:41:07.999Z</time></trkpt><trkpt lat="46.00530581243699" lon="12.432809288238348"><ele>860.0</ele><time>2026-04-25T08:41:08.999Z</time></trkpt><trkpt lat="46.005390751322686" lon="12.432724642959576"><ele>863.5</ele><time>2026-04-25T08:41:09.999Z</time></trkpt><trkpt lat="46.005500479757956" lon="12.432656130249288"><ele>867.0</ele><time>2026-04-25T08:41:10.999Z</time></trkpt><trkpt lat="46.005627460052935" lon="12.432597620570979"><ele>867.0</ele><time>2026-04-25T08:41:11.999Z</time></trkpt><trkpt lat="46.00574732987925" lon="12.43255102164889"><ele>867.0</ele><time>2026-04-25T08:41:12.999Z</time></trkpt><trkpt lat="46.00584588055701" lon="12.432506724424837"><ele>867.0</ele><time>2026-04-25T08:41:13.999Z</time></trkpt><trkpt lat="46.00592830135362" lon="12.432472538066037"><ele>867.0</ele><time>2026-04-25T08:41:14.999Z</time></trkpt><trkpt lat="46.00601648342077" lon="12.432438367241224"><ele>867.0</ele><time>2026-04-25T08:41:15.999Z</time></trkpt><trkpt lat="46.0061083763534" lon="12.432394197939988"><ele>866.0</ele><time>2026-04-25T08:41:16.999Z</time></trkpt><trkpt lat="46.00619260950522" lon="12.43235437054507"><ele>865.0</ele><time>2026-04-25T08:41:17.999Z</time></trkpt><trkpt lat="46.00627514268764" lon="12.432313182953916"><ele>864.0</ele><time>2026-04-25T08:41:18.999Z</time></trkpt><trkpt lat="46.0063508293646" lon="12.432249412482756"><ele>863.0</ele><time>2026-04-25T08:41:19.999Z</time></trkpt><trkpt lat="46.006424744752636" lon="12.432168308709171"><ele>862.0</ele><time>2026-04-25T08:41:20.999Z</time></trkpt><trkpt lat="46.00649672474518" lon="12.432095420377182"><ele>861.0</ele><time>2026-04-25T08:41:21.999Z</time></trkpt><trkpt lat="46.006557252499114" lon="12.432027305992372"><ele>863.5</ele><time>2026-04-25T08:41:22.999Z</time></trkpt><trkpt lat="46.006611737039584" lon="12.431973152119543"><ele>866.0</ele><time>2026-04-25T08:41:23.999Z</time></trkpt><trkpt lat="46.0066738574443" lon="12.431924241652462"><ele>868.5</ele><time>2026-04-25T08:41:24.999Z</time></trkpt><trkpt lat="46.006743724847496" lon="12.431891354731553"><ele>871.0</ele><time>2026-04-25T08:41:25.999Z</time></trkpt><trkpt lat="46.00682870594397" lon="12.431891094637121"><ele>873.5</ele><time>2026-04-25T08:41:26.999Z</time></trkpt><trkpt lat="46.00691956291675" lon="12.431915389262834"><ele>876.0</ele><time>2026-04-25T08:41:27.999Z</time></trkpt><trkpt lat="46.00700151225019" lon="12.431987517222844"><ele>876.0</ele><time>2026-04-25T08:41:29Z</time></trkpt><trkpt lat="46.007055999216114" lon="12.432076866243483"><ele>876.0</ele><time>2026-04-25T08:41:30Z</time></trkpt><trkpt lat="46.007117304000836" lon="12.43220037485054"><ele>876.0</ele><time>2026-04-25T08:41:31.999Z</time></trkpt><trkpt lat="46.00715357742737" lon="12.432283993427884"><ele>876.0</ele><time>2026-04-25T08:41:33.999Z</time></trkpt><trkpt lat="46.00719984467588" lon="12.432376602073667"><ele>876.0</ele><time>2026-04-25T08:41:36.999Z</time></trkpt><trkpt lat="46.00724287455689" lon="12.432448828002656"><ele>876.0</ele><time>2026-04-25T08:41:39.999Z</time></trkpt><trkpt lat="46.007235952227965" lon="12.432605077105096"><ele>876.0</ele><time>2026-04-25T08:41:43.999Z</time></trkpt><trkpt lat="46.007283194368995" lon="12.432505279775715"><ele>875.9999999999999</ele><time>2026-04-25T08:42:26.999Z</time></trkpt><trkpt lat="46.0073111912351" lon="12.432379241042863"><ele>875.9999999999999</ele><time>2026-04-25T08:43:49Z</time></trkpt><trkpt lat="46.00735946445144" lon="12.432284322518564"><ele>876.0</ele><time>2026-04-25T08:43:51Z</time></trkpt><trkpt lat="46.007371383281054" lon="12.432152494386054"><ele>876.0</ele><time>2026-04-25T08:43:53Z</time></trkpt><trkpt lat="46.00730450814038" lon="12.431983616131909"><ele>876.0</ele><time>2026-04-25T08:43:55Z</time></trkpt><trkpt lat="46.00724513215179" lon="12.431898720602353"><ele>875.9999999999999</ele><time>2026-04-25T08:43:56Z</time></trkpt><trkpt lat="46.00716825357204" lon="12.431812148603957"><ele>875.9999999999999</ele><time>2026-04-25T08:43:57Z</time></trkpt><trkpt lat="46.00707964508316" lon="12.431713576783205"><ele>876.0</ele><time>2026-04-25T08:43:57.999Z</time></trkpt><trkpt lat="46.00699641675338" lon="12.43161274929363"><ele>876.0</ele><time>2026-04-25T08:43:58.999Z</time></trkpt><trkpt lat="46.00692211268504" lon="12.431527922115666"><ele>876.0</ele><time>2026-04-25T08:43:59.999Z</time></trkpt><trkpt lat="46.00687084344569" lon="12.43143662745572"><ele>876.0</ele><time>2026-04-25T08:44:00.999Z</time></trkpt><trkpt lat="46.00684667673429" lon="12.431329756506319"><ele>876.0</ele><time>2026-04-25T08:44:01.999Z</time></trkpt><trkpt lat="46.00685659192737" lon="12.43121407850158"><ele>876.0</ele><time>2026-04-25T08:44:02.999Z</time></trkpt><trkpt lat="46.006898777955165" lon="12.431092079346007"><ele>876.0</ele><time>2026-04-25T08:44:03.999Z</time></trkpt><trkpt lat="46.00696918763931" lon="12.430975617408409"><ele>876.0</ele><time>2026-04-25T08:44:04.999Z</time></trkpt><trkpt lat="46.007069915887406" lon="12.430916584320842"><ele>876.5999999999999</ele><time>2026-04-25T08:44:05.999Z</time></trkpt><trkpt lat="46.007163942466434" lon="12.430853577727229"><ele>877.1999999999999</ele><time>2026-04-25T08:44:06.999Z</time></trkpt><trkpt lat="46.0072783792051" lon="12.43086729308944"><ele>877.8000000000001</ele><time>2026-04-25T08:44:07.999Z</time></trkpt><trkpt lat="46.00739652803436" lon="12.430915607154613"><ele>878.4000000000001</ele><time>2026-04-25T08:44:08.999Z</time></trkpt><trkpt lat="46.007492304833825" lon="12.430955130176276"><ele>879.0</ele><time>2026-04-25T08:44:09.999Z</time></trkpt><trkpt lat="46.00756507212098" lon="12.430982620824144"><ele>880.2</ele><time>2026-04-25T08:44:10.999Z</time></trkpt><trkpt lat="46.00764036158334" lon="12.431052611892355"><ele>881.4000000000001</ele><time>2026-04-25T08:44:11.999Z</time></trkpt><trkpt lat="46.007705261628814" lon="12.431180621435812"><ele>882.6</ele><time>2026-04-25T08:44:12.999Z</time></trkpt><trkpt lat="46.007778444082994" lon="12.43129521042616"><ele>883.8</ele><time>2026-04-25T08:44:13.999Z</time></trkpt><trkpt lat="46.00788535163489" lon="12.431349567831381"><ele>885.0</ele><time>2026-04-25T08:44:14.999Z</time></trkpt><trkpt lat="46.008013541501555" lon="12.43135012961299"><ele>885.5</ele><time>2026-04-25T08:44:15.999Z</time></trkpt><trkpt lat="46.008162679078346" lon="12.431343482870655"><ele>886.0</ele><time>2026-04-25T08:44:16.999Z</time></trkpt><trkpt lat="46.008319292433" lon="12.431335239618877"><ele>886.5</ele><time>2026-04-25T08:44:17.999Z</time></trkpt><trkpt lat="46.00844957959918" lon="12.431305814868592"><ele>887.0</ele><time>2026-04-25T08:44:18.999Z</time></trkpt><trkpt lat="46.00856648920236" lon="12.431264256990987"><ele>888.0</ele><time>2026-04-25T08:44:19.999Z</time></trkpt><trkpt lat="46.008677007580324" lon="12.431210109970902"><ele>889.0</ele><time>2026-04-25T08:44:20.999Z</time></trkpt><trkpt lat="46.008776762645596" lon="12.431117234512712"><ele>890.0</ele><time>2026-04-25T08:44:21.999Z</time></trkpt><trkpt lat="46.00888672820849" lon="12.431003420929814"><ele>891.0</ele><time>2026-04-25T08:44:22.999Z</time></trkpt><trkpt lat="46.00896833337827" lon="12.430847290491226"><ele>891.0</ele><time>2026-04-25T08:44:23.999Z</time></trkpt><trkpt lat="46.009051851514045" lon="12.430709109421727"><ele>891.0</ele><time>2026-04-25T08:44:24.999Z</time></trkpt><trkpt lat="46.00914129482317" lon="12.430591212021632"><ele>891.0</ele><time>2026-04-25T08:44:25.999Z</time></trkpt><trkpt lat="46.00925860155802" lon="12.43051124896787"><ele>891.0</ele><time>2026-04-25T08:44:26.999Z</time></trkpt><trkpt lat="46.009385600519195" lon="12.430441685997913"><ele>892.25</ele><time>2026-04-25T08:44:27.999Z</time></trkpt><trkpt lat="46.00948571705551" lon="12.430352879925604"><ele>893.5</ele><time>2026-04-25T08:44:28.999Z</time></trkpt><trkpt lat="46.009571127704305" lon="12.43023151419674"><ele>894.75</ele><time>2026-04-25T08:44:29.999Z</time></trkpt><trkpt lat="46.00964347316129" lon="12.43008557722949"><ele>896.0</ele><time>2026-04-25T08:44:30.999Z</time></trkpt><trkpt lat="46.00971247728426" lon="12.429937250387987"><ele>896.0</ele><time>2026-04-25T08:44:31.999Z</time></trkpt><trkpt lat="46.00978503259296" lon="12.429810248398761"><ele>895.9999999999999</ele><time>2026-04-25T08:44:32.999Z</time></trkpt><trkpt lat="46.00986043927301" lon="12.42969852676213"><ele>895.9999999999999</ele><time>2026-04-25T08:44:33.999Z</time></trkpt><trkpt lat="46.009929283481455" lon="12.429592605168654"><ele>896.0</ele><time>2026-04-25T08:44:34.999Z</time></trkpt><trkpt lat="46.00998802086322" lon="12.42948489187541"><ele>896.0</ele><time>2026-04-25T08:44:35.999Z</time></trkpt><trkpt lat="46.010035876489276" lon="12.429373581247805"><ele>899.8333333333334</ele><time>2026-04-25T08:44:36.999Z</time></trkpt><trkpt lat="46.01007531627795" lon="12.42926298538739"><ele>903.6666666666667</ele><time>2026-04-25T08:44:37.999Z</time></trkpt><trkpt lat="46.010106270682144" lon="12.429144921847218"><ele>907.5</ele><time>2026-04-25T08:44:38.999Z</time></trkpt><trkpt lat="46.01014384846887" lon="12.42903092040265"><ele>911.3333333333333</ele><time>2026-04-25T08:44:39.999Z</time></trkpt><trkpt lat="46.010160323239226" lon="12.428907907664039"><ele>915.1666666666666</ele><time>2026-04-25T08:44:40.999Z</time></trkpt><trkpt lat="46.0101736275054" lon="12.428792801195918"><ele>919.0</ele><time>2026-04-25T08:44:41.999Z</time></trkpt><trkpt lat="46.01018352137858" lon="12.428702856907092"><ele>919.6666666666666</ele><time>2026-04-25T08:44:42.999Z</time></trkpt><trkpt lat="46.01020250078384" lon="12.428530316989214"><ele>920.3333333333333</ele><time>2026-04-25T08:44:44.999Z</time></trkpt><trkpt lat="46.010189110995526" lon="12.428432630286101"><ele>921.0</ele><time>2026-04-25T08:44:45.999Z</time></trkpt><trkpt lat="46.0101788708493" lon="12.428330556745435"><ele>921.6666666666667</ele><time>2026-04-25T08:44:46.999Z</time></trkpt><trkpt lat="46.01012398155125" lon="12.42825390685732"><ele>922.3333333333334</ele><time>2026-04-25T08:44:47.999Z</time></trkpt><trkpt lat="46.01004654305268" lon="12.42821324802163"><ele>923.0</ele><time>2026-04-25T08:44:48.999Z</time></trkpt><trkpt lat="46.00997553321481" lon="12.4281820077038"><ele>920.5714285714286</ele><time>2026-04-25T08:44:49.999Z</time></trkpt><trkpt lat="46.00991106720533" lon="12.428151068233905"><ele>918.1428571428571</ele><time>2026-04-25T08:44:50.999Z</time></trkpt><trkpt lat="46.00985309918662" lon="12.428102638866259"><ele>915.7142857142857</ele><time>2026-04-25T08:44:51.999Z</time></trkpt><trkpt lat="46.00980772487275" lon="12.428030221813227"><ele>913.2857142857142</ele><time>2026-04-25T08:44:52.999Z</time></trkpt><trkpt lat="46.009768495249446" lon="12.427945850939567"><ele>910.8571428571429</ele><time>2026-04-25T08:44:53.999Z</time></trkpt><trkpt lat="46.0097371024677" lon="12.427855300169087"><ele>908.4285714285713</ele><time>2026-04-25T08:44:54.999Z</time></trkpt><trkpt lat="46.009720371731156" lon="12.427759912915898"><ele>905.9999999999999</ele><time>2026-04-25T08:44:55.999Z</time></trkpt><trkpt lat="46.00969375595749" lon="12.427663005829464"><ele>905.9999999999999</ele><time>2026-04-25T08:44:56.999Z</time></trkpt><trkpt lat="46.00970305783093" lon="12.427568175295663"><ele>906.0</ele><time>2026-04-25T08:44:57.999Z</time></trkpt><trkpt lat="46.009742248209726" lon="12.427492013590163"><ele>905.9999999999999</ele><time>2026-04-25T08:44:58.999Z</time></trkpt><trkpt lat="46.009805336154216" lon="12.427453994679427"><ele>905.9999999999999</ele><time>2026-04-25T08:44:59.999Z</time></trkpt><trkpt lat="46.00988171870889" lon="12.42743418554075"><ele>906.0</ele><time>2026-04-25T08:45:00.999Z</time></trkpt><trkpt lat="46.00995074588506" lon="12.427401839504943"><ele>905.9999999999999</ele><time>2026-04-25T08:45:01.999Z</time></trkpt><trkpt lat="46.01001710534431" lon="12.427357362270248"><ele>905.9999999999999</ele><time>2026-04-25T08:45:02.999Z</time></trkpt><trkpt lat="46.01007459687317" lon="12.427292980579825"><ele>910.1666666666666</ele><time>2026-04-25T08:45:03.999Z</time></trkpt><trkpt lat="46.010118544044666" lon="12.427205130811053"><ele>914.3333333333333</ele><time>2026-04-25T08:45:04.999Z</time></trkpt><trkpt lat="46.010135741125254" lon="12.427101675984483"><ele>918.5</ele><time>2026-04-25T08:45:05.999Z</time></trkpt><trkpt lat="46.01014621274849" lon="12.426995524699768"><ele>922.6666666666666</ele><time>2026-04-25T08:45:06.999Z</time></trkpt><trkpt lat="46.010157522110966" lon="12.426882256871423"><ele>926.8333333333333</ele><time>2026-04-25T08:45:07.999Z</time></trkpt><trkpt lat="46.01016561151146" lon="12.426774193786082"><ele>931.0</ele><time>2026-04-25T08:45:08.999Z</time></trkpt><trkpt lat="46.01017794843422" lon="12.42666499210786"><ele>931.4999999999999</ele><time>2026-04-25T08:45:09.999Z</time></trkpt><trkpt lat="46.0101943041749" lon="12.426555920701658"><ele>932.0</ele><time>2026-04-25T08:45:10.999Z</time></trkpt><trkpt lat="46.01022288771239" lon="12.42645683208398"><ele>932.5</ele><time>2026-04-25T08:45:11.999Z</time></trkpt><trkpt lat="46.010272248463686" lon="12.42637305910055"><ele>933.0</ele><time>2026-04-25T08:45:12.999Z</time></trkpt><trkpt lat="46.010317858175995" lon="12.426287345442908"><ele>933.4999999999999</ele><time>2026-04-25T08:45:13.999Z</time></trkpt><trkpt lat="46.010354458887335" lon="12.426183711818155"><ele>934.0</ele><time>2026-04-25T08:45:14.999Z</time></trkpt><trkpt lat="46.010386112900036" lon="12.426071422689324"><ele>934.4999999999999</ele><time>2026-04-25T08:45:15.999Z</time></trkpt><trkpt lat="46.01041198543822" lon="12.425952246059445"><ele>935.0</ele><time>2026-04-25T08:45:16.999Z</time></trkpt><trkpt lat="46.01043544858427" lon="12.425831140037166"><ele>935.5</ele><time>2026-04-25T08:45:17.999Z</time></trkpt><trkpt lat="46.01044147665645" lon="12.425704298438896"><ele>936.0</ele><time>2026-04-25T08:45:18.999Z</time></trkpt><trkpt lat="46.01043899224993" lon="12.425580975453377"><ele>936.4999999999999</ele><time>2026-04-25T08:45:19.999Z</time></trkpt><trkpt lat="46.010436331388135" lon="12.425468842812544"><ele>937.0</ele><time>2026-04-25T08:45:20.999Z</time></trkpt><trkpt lat="46.010434049200136" lon="12.425372670035765"><ele>938.0</ele><time>2026-04-25T08:45:21.999Z</time></trkpt><trkpt lat="46.01043183289823" lon="12.425279273724387"><ele>939.0</ele><time>2026-04-25T08:45:22.999Z</time></trkpt><trkpt lat="46.010344075922795" lon="12.425102752025081"><ele>940.0</ele><time>2026-04-25T08:45:24.999Z</time></trkpt><trkpt lat="46.01037266048271" lon="12.425010155933226"><ele>941.0</ele><time>2026-04-25T08:45:25.999Z</time></trkpt><trkpt lat="46.010436526015205" lon="12.424936462256957"><ele>942.0</ele><time>2026-04-25T08:45:26.999Z</time></trkpt><trkpt lat="46.01051482686491" lon="12.424852905699986"><ele>942.0</ele><time>2026-04-25T08:45:28Z</time></trkpt><trkpt lat="46.01059143709138" lon="12.424753010020472"><ele>942.0</ele><time>2026-04-25T08:45:29Z</time></trkpt><trkpt lat="46.01067109297957" lon="12.424648683573729"><ele>942.0</ele><time>2026-04-25T08:45:30Z</time></trkpt><trkpt lat="46.010752608515226" lon="12.424544174599193"><ele>942.0</ele><time>2026-04-25T08:45:31Z</time></trkpt><trkpt lat="46.010825384186354" lon="12.424445533392696"><ele>942.0</ele><time>2026-04-25T08:45:32Z</time></trkpt><trkpt lat="46.010895889089596" lon="12.424351418242917"><ele>944.4000000000001</ele><time>2026-04-25T08:45:33Z</time></trkpt><trkpt lat="46.01095892977867" lon="12.42424890994782"><ele>946.8000000000001</ele><time>2026-04-25T08:45:34Z</time></trkpt><trkpt lat="46.01100938299913" lon="12.424136079402693"><ele>949.2</ele><time>2026-04-25T08:45:35Z</time></trkpt><trkpt lat="46.01104180206428" lon="12.424016721950759"><ele>951.6</ele><time>2026-04-25T08:45:36Z</time></trkpt><trkpt lat="46.011061189193455" lon="12.42388813489432"><ele>954.0</ele><time>2026-04-25T08:45:37Z</time></trkpt><trkpt lat="46.01108082999319" lon="12.423773480978424"><ele>954.0</ele><time>2026-04-25T08:45:38Z</time></trkpt><trkpt lat="46.01111159056103" lon="12.42366363674991"><ele>954.0</ele><time>2026-04-25T08:45:39Z</time></trkpt><trkpt lat="46.01115954984029" lon="12.423579648139455"><ele>954.0</ele><time>2026-04-25T08:45:40Z</time></trkpt><trkpt lat="46.01122940556169" lon="12.42351854207763"><ele>954.0</ele><time>2026-04-25T08:45:41Z</time></trkpt><trkpt lat="46.01132135780948" lon="12.423492465196478"><ele>954.0</ele><time>2026-04-25T08:45:42Z</time></trkpt><trkpt lat="46.01143225685333" lon="12.42347569202588"><ele>954.0</ele><time>2026-04-25T08:45:43Z</time></trkpt><trkpt lat="46.01155108779175" lon="12.423414608184785"><ele>957.5</ele><time>2026-04-25T08:45:44Z</time></trkpt><trkpt lat="46.01165933868564" lon="12.423309355241452"><ele>961.0</ele><time>2026-04-25T08:45:45Z</time></trkpt><trkpt lat="46.011767902704804" lon="12.423196033116755"><ele>964.5</ele><time>2026-04-25T08:45:46Z</time></trkpt><trkpt lat="46.011868990399925" lon="12.423082812103557"><ele>968.0</ele><time>2026-04-25T08:45:47Z</time></trkpt><trkpt lat="46.011965996386444" lon="12.422978762445394"><ele>968.0</ele><time>2026-04-25T08:45:48Z</time></trkpt><trkpt lat="46.01206649176075" lon="12.42287337121728"><ele>968.0</ele><time>2026-04-25T08:45:49Z</time></trkpt><trkpt lat="46.01214499987912" lon="12.422774206131585"><ele>968.0</ele><time>2026-04-25T08:45:50Z</time></trkpt><trkpt lat="46.0122239689283" lon="12.42266974777151"><ele>968.0</ele><time>2026-04-25T08:45:51Z</time></trkpt><trkpt lat="46.01228420035064" lon="12.422546688335636"><ele>968.0</ele><time>2026-04-25T08:45:52Z</time></trkpt><trkpt lat="46.01232689842257" lon="12.422405980060521"><ele>968.0</ele><time>2026-04-25T08:45:53Z</time></trkpt><trkpt lat="46.012366818523475" lon="12.422252500814462"><ele>968.0</ele><time>2026-04-25T08:45:54Z</time></trkpt><trkpt lat="46.01241061636364" lon="12.422098277027192"><ele>968.0</ele><time>2026-04-25T08:45:55Z</time></trkpt><trkpt lat="46.0124343080751" lon="12.421947516984115"><ele>968.0</ele><time>2026-04-25T08:45:56Z</time></trkpt><trkpt lat="46.012421429182915" lon="12.421794790984634"><ele>968.0</ele><time>2026-04-25T08:45:57Z</time></trkpt><trkpt lat="46.01237267023867" lon="12.42165223528569"><ele>968.1666666666667</ele><time>2026-04-25T08:45:58Z</time></trkpt><trkpt lat="46.01233318049838" lon="12.421528584929586"><ele>968.3333333333334</ele><time>2026-04-25T08:45:58.999Z</time></trkpt><trkpt lat="46.012343998558805" lon="12.421432426538766"><ele>968.5</ele><time>2026-04-25T08:45:59.999Z</time></trkpt><trkpt lat="46.01245211733897" lon="12.421393497593597"><ele>968.6666666666667</ele><time>2026-04-25T08:46:01.999Z</time></trkpt><trkpt lat="46.01251470551634" lon="12.421463584481865"><ele>968.8333333333334</ele><time>2026-04-25T08:46:02.999Z</time></trkpt><trkpt lat="46.01253079494414" lon="12.421590631843495"><ele>969.0</ele><time>2026-04-25T08:46:03.999Z</time></trkpt><trkpt lat="46.012533055456046" lon="12.421699021602693"><ele>971.6</ele><time>2026-04-25T08:46:04.999Z</time></trkpt><trkpt lat="46.01257176326054" lon="12.421792244701292"><ele>974.2</ele><time>2026-04-25T08:46:05.999Z</time></trkpt><trkpt lat="46.01263545824035" lon="12.421852175691184"><ele>976.8000000000001</ele><time>2026-04-25T08:46:06.999Z</time></trkpt><trkpt lat="46.012725713327455" lon="12.421868192760918"><ele>979.4000000000001</ele><time>2026-04-25T08:46:07.999Z</time></trkpt><trkpt lat="46.012835711458585" lon="12.421833514253704"><ele>982.0</ele><time>2026-04-25T08:46:08.999Z</time></trkpt><trkpt lat="46.01295624408129" lon="12.421758840192787"><ele>982.0</ele><time>2026-04-25T08:46:09.999Z</time></trkpt><trkpt lat="46.01303621433019" lon="12.421716360793196"><ele>982.0</ele><time>2026-04-25T08:46:10.999Z</time></trkpt><trkpt lat="46.013165847033314" lon="12.421766175772866"><ele>982.0</ele><time>2026-04-25T08:46:12.999Z</time></trkpt><trkpt lat="46.01320146414411" lon="12.421864008312847"><ele>982.0</ele><time>2026-04-25T08:46:13.999Z</time></trkpt><trkpt lat="46.013211088801356" lon="12.422025597960301"><ele>982.0</ele><time>2026-04-25T08:46:14.999Z</time></trkpt><trkpt lat="46.01320682123461" lon="12.422188999448906"><ele>982.0</ele><time>2026-04-25T08:46:15.999Z</time></trkpt><trkpt lat="46.01317721059757" lon="12.422366707482988"><ele>982.0</ele><time>2026-04-25T08:46:16.999Z</time></trkpt><trkpt lat="46.01310913539224" lon="12.422541446553355"><ele>982.0</ele><time>2026-04-25T08:46:17.999Z</time></trkpt><trkpt lat="46.01302117345521" lon="12.42271622351453"><ele>982.0</ele><time>2026-04-25T08:46:18.999Z</time></trkpt><trkpt lat="46.012927013481395" lon="12.422921852807903"><ele>983.6</ele><time>2026-04-25T08:46:19.999Z</time></trkpt><trkpt lat="46.0128431386407" lon="12.423106669798884"><ele>985.2</ele><time>2026-04-25T08:46:20.999Z</time></trkpt><trkpt lat="46.01278278937335" lon="12.423252738045809"><ele>986.8</ele><time>2026-04-25T08:46:21.999Z</time></trkpt><trkpt lat="46.01274041303955" lon="12.423369322872166"><ele>988.4</ele><time>2026-04-25T08:46:22.999Z</time></trkpt><trkpt lat="46.012708199759615" lon="12.423469558387486"><ele>990.0</ele><time>2026-04-25T08:46:23.999Z</time></trkpt><trkpt lat="46.012685660332856" lon="12.423556823847708"><ele>990.0</ele><time>2026-04-25T08:46:24.999Z</time></trkpt><trkpt lat="46.01269482123531" lon="12.423652806282302"><ele>990.0</ele><time>2026-04-25T08:46:25.999Z</time></trkpt><trkpt lat="46.01273472805373" lon="12.42374782413706"><ele>990.0</ele><time>2026-04-25T08:46:26.999Z</time></trkpt><trkpt lat="46.01280454440877" lon="12.423787882033327"><ele>990.0</ele><time>2026-04-25T08:46:27.999Z</time></trkpt><trkpt lat="46.01287696879414" lon="12.423770896149357"><ele>990.0</ele><time>2026-04-25T08:46:28.999Z</time></trkpt><trkpt lat="46.01292038636328" lon="12.42368341367705"><ele>990.0</ele><time>2026-04-25T08:46:29.999Z</time></trkpt><trkpt lat="46.0129380880416" lon="12.423555283377217"><ele>990.0</ele><time>2026-04-25T08:46:30.999Z</time></trkpt><trkpt lat="46.012973603146214" lon="12.423418861045795"><ele>990.0</ele><time>2026-04-25T08:46:31.999Z</time></trkpt><trkpt lat="46.01303654317512" lon="12.423289748815778"><ele>990.0</ele><time>2026-04-25T08:46:32.999Z</time></trkpt><trkpt lat="46.0131193825789" lon="12.423171122693047"><ele>990.0</ele><time>2026-04-25T08:46:33.999Z</time></trkpt><trkpt lat="46.01321734948726" lon="12.423077801553529"><ele>990.0</ele><time>2026-04-25T08:46:34.999Z</time></trkpt><trkpt lat="46.01333237174583" lon="12.423024904176412"><ele>992.2</ele><time>2026-04-25T08:46:35.999Z</time></trkpt><trkpt lat="46.01344491513163" lon="12.423016545333791"><ele>994.4</ele><time>2026-04-25T08:46:36.999Z</time></trkpt><trkpt lat="46.01354912719497" lon="12.42304592216279"><ele>996.5999999999999</ele><time>2026-04-25T08:46:37.999Z</time></trkpt><trkpt lat="46.01363405376652" lon="12.423054031426028"><ele>998.8</ele><time>2026-04-25T08:46:38.999Z</time></trkpt><trkpt lat="46.0137080374387" lon="12.423005947587862"><ele>1001.0</ele><time>2026-04-25T08:46:39.999Z</time></trkpt><trkpt lat="46.01376377160727" lon="12.42289752575146"><ele>1001.0</ele><time>2026-04-25T08:46:40.999Z</time></trkpt><trkpt lat="46.01377846807968" lon="12.422755614886723"><ele>1000.9999999999999</ele><time>2026-04-25T08:46:41.999Z</time></trkpt><trkpt lat="46.01374862839587" lon="12.422595985708611"><ele>1000.9999999999999</ele><time>2026-04-25T08:46:42.999Z</time></trkpt><trkpt lat="46.01371451770393" lon="12.422464823176451"><ele>1001.0</ele><time>2026-04-25T08:46:43.999Z</time></trkpt><trkpt lat="46.01372459846213" lon="12.42235238483244"><ele>1001.0</ele><time>2026-04-25T08:46:44.999Z</time></trkpt><trkpt lat="46.013786235787336" lon="12.42224706087411"><ele>1000.5</ele><time>2026-04-25T08:46:45.999Z</time></trkpt><trkpt lat="46.01387697451125" lon="12.422147904825565"><ele>1000.0</ele><time>2026-04-25T08:46:46.999Z</time></trkpt><trkpt lat="46.01398041107798" lon="12.422044642721222"><ele>999.5</ele><time>2026-04-25T08:46:47.999Z</time></trkpt><trkpt lat="46.01408579157771" lon="12.421917815796629"><ele>999.0</ele><time>2026-04-25T08:46:48.999Z</time></trkpt><trkpt lat="46.01417332553963" lon="12.421742052170238"><ele>1005.3333333333333</ele><time>2026-04-25T08:46:49.999Z</time></trkpt><trkpt lat="46.01424914712296" lon="12.421537103456254"><ele>1011.6666666666666</ele><time>2026-04-25T08:46:50.999Z</time></trkpt><trkpt lat="46.01433750004052" lon="12.421331093407"><ele>1018.0</ele><time>2026-04-25T08:46:51.999Z</time></trkpt><trkpt lat="46.01441130978961" lon="12.421092528950377"><ele>1018.5</ele><time>2026-04-25T08:46:52.999Z</time></trkpt><trkpt lat="46.01447095757474" lon="12.420898082889515"><ele>1019.0</ele><time>2026-04-25T08:46:53.999Z</time></trkpt><trkpt lat="46.014546126439726" lon="12.420733523455361"><ele>1019.5</ele><time>2026-04-25T08:46:54.999Z</time></trkpt><trkpt lat="46.01461793714496" lon="12.420573721056643"><ele>1020.0</ele><time>2026-04-25T08:46:55.999Z</time></trkpt><trkpt lat="46.01464437461231" lon="12.42038068252209"><ele>1022.0</ele><time>2026-04-25T08:46:56.999Z</time></trkpt><trkpt lat="46.01463916324252" lon="12.420161739507673"><ele>1024.0</ele><time>2026-04-25T08:46:57.999Z</time></trkpt><trkpt lat="46.01464139775307" lon="12.41996531341363"><ele>1026.0</ele><time>2026-04-25T08:46:58.999Z</time></trkpt><trkpt lat="46.01469013002414" lon="12.419807953758955"><ele>1028.0</ele><time>2026-04-25T08:46:59.999Z</time></trkpt><trkpt lat="46.01476392846516" lon="12.419661491150716"><ele>1027.5</ele><time>2026-04-25T08:47:00.999Z</time></trkpt><trkpt lat="46.01487230588345" lon="12.419546687586596"><ele>1027.0</ele><time>2026-04-25T08:47:01.999Z</time></trkpt><trkpt lat="46.01498860106647" lon="12.419451232886413"><ele>1026.5</ele><time>2026-04-25T08:47:02.999Z</time></trkpt><trkpt lat="46.015071553824235" lon="12.419340108247159"><ele>1026.0</ele><time>2026-04-25T08:47:03.999Z</time></trkpt><trkpt lat="46.0151272553659" lon="12.419198168524353"><ele>1029.2</ele><time>2026-04-25T08:47:04.999Z</time></trkpt><trkpt lat="46.01514571808018" lon="12.419016983787209"><ele>1032.3999999999999</ele><time>2026-04-25T08:47:05.999Z</time></trkpt><trkpt lat="46.01514134041584" lon="12.418863606191199"><ele>1035.6</ele><time>2026-04-25T08:47:06.999Z</time></trkpt><trkpt lat="46.01515626691328" lon="12.418744926686312"><ele>1038.8</ele><time>2026-04-25T08:47:07.999Z</time></trkpt><trkpt lat="46.01520428875639" lon="12.418657074687921"><ele>1042.0</ele><time>2026-04-25T08:47:08.999Z</time></trkpt><trkpt lat="46.01528024222126" lon="12.41859608344366"><ele>1043.0</ele><time>2026-04-25T08:47:09.999Z</time></trkpt><trkpt lat="46.01538665433894" lon="12.418560983696162"><ele>1044.0</ele><time>2026-04-25T08:47:10.999Z</time></trkpt><trkpt lat="46.01548893637732" lon="12.418486208023586"><ele>1045.0</ele><time>2026-04-25T08:47:11.999Z</time></trkpt><trkpt lat="46.0155614084723" lon="12.418357516063674"><ele>1046.0</ele><time>2026-04-25T08:47:12.999Z</time></trkpt><trkpt lat="46.01560553309635" lon="12.418193675089459"><ele>1046.0</ele><time>2026-04-25T08:47:13.999Z</time></trkpt><trkpt lat="46.01563310430236" lon="12.418038392960865"><ele>1046.0</ele><time>2026-04-25T08:47:14.999Z</time></trkpt><trkpt lat="46.01568178953874" lon="12.417917512526946"><ele>1046.0</ele><time>2026-04-25T08:47:15.999Z</time></trkpt><trkpt lat="46.0157537065094" lon="12.417807064271878"><ele>1046.0</ele><time>2026-04-25T08:47:16.999Z</time></trkpt><trkpt lat="46.01586346891302" lon="12.417734223329004"><ele>1046.0</ele><time>2026-04-25T08:47:17.999Z</time></trkpt><trkpt lat="46.015978947845014" lon="12.417687127277695"><ele>1047.8</ele><time>2026-04-25T08:47:18.999Z</time></trkpt><trkpt lat="46.01607698589797" lon="12.417657548858255"><ele>1049.6</ele><time>2026-04-25T08:47:19.999Z</time></trkpt><trkpt lat="46.01617135161081" lon="12.417642595862404"><ele>1051.4</ele><time>2026-04-25T08:47:20.999Z</time></trkpt><trkpt lat="46.016267076957924" lon="12.41764760300631"><ele>1053.2</ele><time>2026-04-25T08:47:21.999Z</time></trkpt><trkpt lat="46.0163554933873" lon="12.417653225178874"><ele>1055.0</ele><time>2026-04-25T08:47:22.999Z</time></trkpt><trkpt lat="46.01643575363775" lon="12.417656305304172"><ele>1055.0</ele><time>2026-04-25T08:47:23.999Z</time></trkpt><trkpt lat="46.01651287620917" lon="12.417656029086427"><ele>1055.0</ele><time>2026-04-25T08:47:24.999Z</time></trkpt><trkpt lat="46.0165833945358" lon="12.41761281122736"><ele>1055.0</ele><time>2026-04-25T08:47:25.999Z</time></trkpt><trkpt lat="46.01663354620144" lon="12.417523572682915"><ele>1055.0</ele><time>2026-04-25T08:47:26.999Z</time></trkpt><trkpt lat="46.01665185508747" lon="12.417392989513512"><ele>1055.0</ele><time>2026-04-25T08:47:27.999Z</time></trkpt><trkpt lat="46.016653062908304" lon="12.417254732804423"><ele>1055.0</ele><time>2026-04-25T08:47:28.999Z</time></trkpt><trkpt lat="46.01666719869037" lon="12.417123011141493"><ele>1056.4</ele><time>2026-04-25T08:47:29.999Z</time></trkpt><trkpt lat="46.016706650540414" lon="12.417005681240875"><ele>1057.8</ele><time>2026-04-25T08:47:30.999Z</time></trkpt><trkpt lat="46.01677555214486" lon="12.41690578074669"><ele>1059.2</ele><time>2026-04-25T08:47:31.999Z</time></trkpt><trkpt lat="46.01685629700503" lon="12.416825263521947"><ele>1060.6</ele><time>2026-04-25T08:47:32.999Z</time></trkpt><trkpt lat="46.016942876217065" lon="12.416759589384492"><ele>1062.0</ele><time>2026-04-25T08:47:34Z</time></trkpt><trkpt lat="46.017040809852936" lon="12.41672005407051"><ele>1062.0</ele><time>2026-04-25T08:47:35Z</time></trkpt><trkpt lat="46.01714329887698" lon="12.416689645551344"><ele>1062.0</ele><time>2026-04-25T08:47:36Z</time></trkpt><trkpt lat="46.01725401467504" lon="12.416652376553623"><ele>1062.0</ele><time>2026-04-25T08:47:37Z</time></trkpt><trkpt lat="46.01737614307435" lon="12.416608022588946"><ele>1062.0</ele><time>2026-04-25T08:47:38Z</time></trkpt><trkpt lat="46.01749188099052" lon="12.416579607719704"><ele>1062.8</ele><time>2026-04-25T08:47:39Z</time></trkpt><trkpt lat="46.01760059986984" lon="12.41656898414652"><ele>1063.6</ele><time>2026-04-25T08:47:40Z</time></trkpt><trkpt lat="46.01770120640497" lon="12.416584293269729"><ele>1064.3999999999999</ele><time>2026-04-25T08:47:41Z</time></trkpt><trkpt lat="46.01780089660189" lon="12.416589097776932"><ele>1065.2</ele><time>2026-04-25T08:47:42Z</time></trkpt><trkpt lat="46.017894090838645" lon="12.416573227317466"><ele>1066.0</ele><time>2026-04-25T08:47:43Z</time></trkpt><trkpt lat="46.01798069686792" lon="12.416524061532346"><ele>1066.0</ele><time>2026-04-25T08:47:44Z</time></trkpt><trkpt lat="46.01809057924368" lon="12.416461714465358"><ele>1066.0</ele><time>2026-04-25T08:47:45Z</time></trkpt><trkpt lat="46.01820097092021" lon="12.416358719534697"><ele>1066.0</ele><time>2026-04-25T08:47:46Z</time></trkpt><trkpt lat="46.01830662637168" lon="12.416258543464057"><ele>1066.0</ele><time>2026-04-25T08:47:47Z</time></trkpt><trkpt lat="46.01840687784702" lon="12.416174743364957"><ele>1069.5</ele><time>2026-04-25T08:47:48Z</time></trkpt><trkpt lat="46.01851107924359" lon="12.416094732364504"><ele>1073.0</ele><time>2026-04-25T08:47:49Z</time></trkpt><trkpt lat="46.01861731928117" lon="12.416016342885667"><ele>1076.5</ele><time>2026-04-25T08:47:50Z</time></trkpt><trkpt lat="46.018730961560266" lon="12.4159338447782"><ele>1080.0</ele><time>2026-04-25T08:47:51Z</time></trkpt><trkpt lat="46.018838826534974" lon="12.415851790848237"><ele>1080.0</ele><time>2026-04-25T08:47:52Z</time></trkpt><trkpt lat="46.01895228015317" lon="12.415786614130448"><ele>1080.0</ele><time>2026-04-25T08:47:53Z</time></trkpt><trkpt lat="46.01906473268107" lon="12.415718024202635"><ele>1080.0</ele><time>2026-04-25T08:47:54Z</time></trkpt><trkpt lat="46.01917225040553" lon="12.415636980917922"><ele>1080.0</ele><time>2026-04-25T08:47:55Z</time></trkpt><trkpt lat="46.01926590593772" lon="12.415537113811089"><ele>1082.25</ele><time>2026-04-25T08:47:56Z</time></trkpt><trkpt lat="46.01936734285012" lon="12.415453317351343"><ele>1084.5</ele><time>2026-04-25T08:47:57Z</time></trkpt><trkpt lat="46.019468355946586" lon="12.415359904414775"><ele>1086.75</ele><time>2026-04-25T08:47:58Z</time></trkpt><trkpt lat="46.01956694351902" lon="12.41526496296943"><ele>1089.0</ele><time>2026-04-25T08:47:59Z</time></trkpt><trkpt lat="46.019658000492115" lon="12.415184222681821"><ele>1089.0</ele><time>2026-04-25T08:47:59.999Z</time></trkpt><trkpt lat="46.01974338223751" lon="12.415104375973044"><ele>1089.0</ele><time>2026-04-25T08:48:00.999Z</time></trkpt><trkpt lat="46.01982596478471" lon="12.415068074878244"><ele>1089.0</ele><time>2026-04-25T08:48:01.999Z</time></trkpt><trkpt lat="46.0198997863817" lon="12.415034929564955"><ele>1089.0</ele><time>2026-04-25T08:48:02.999Z</time></trkpt><trkpt lat="46.01997189694084" lon="12.4150242398359"><ele>1089.0</ele><time>2026-04-25T08:48:03.999Z</time></trkpt><trkpt lat="46.02004980151879" lon="12.415045792014118"><ele>1089.0</ele><time>2026-04-25T08:48:04.999Z</time></trkpt><trkpt lat="46.02012405019742" lon="12.415103292213056"><ele>1089.2</ele><time>2026-04-25T08:48:05.999Z</time></trkpt><trkpt lat="46.020198658047754" lon="12.415206256066673"><ele>1089.4</ele><time>2026-04-25T08:48:06.999Z</time></trkpt><trkpt lat="46.02026461915254" lon="12.415314835452632"><ele>1089.6</ele><time>2026-04-25T08:48:07.999Z</time></trkpt><trkpt lat="46.02033676383247" lon="12.415430309512399"><ele>1089.8</ele><time>2026-04-25T08:48:08.999Z</time></trkpt><trkpt lat="46.020433657242926" lon="12.415511786998445"><ele>1090.0</ele><time>2026-04-25T08:48:09.999Z</time></trkpt><trkpt lat="46.02053766707815" lon="12.415573036347086"><ele>1090.0</ele><time>2026-04-25T08:48:10.999Z</time></trkpt><trkpt lat="46.02064972049397" lon="12.415632940278698"><ele>1090.0</ele><time>2026-04-25T08:48:11.999Z</time></trkpt><trkpt lat="46.020772876283615" lon="12.415661534015182"><ele>1090.0</ele><time>2026-04-25T08:48:12.999Z</time></trkpt><trkpt lat="46.02088715921399" lon="12.415670357243897"><ele>1090.0</ele><time>2026-04-25T08:48:13.999Z</time></trkpt><trkpt lat="46.020995557606554" lon="12.4156848040261"><ele>1089.25</ele><time>2026-04-25T08:48:14.999Z</time></trkpt><trkpt lat="46.021106040236994" lon="12.41572869061625"><ele>1088.5</ele><time>2026-04-25T08:48:15.999Z</time></trkpt><trkpt lat="46.02121642092626" lon="12.415787108371322"><ele>1087.75</ele><time>2026-04-25T08:48:16.999Z</time></trkpt><trkpt lat="46.02132434575163" lon="12.4158466298573"><ele>1087.0</ele><time>2026-04-25T08:48:17.999Z</time></trkpt><trkpt lat="46.02143664512472" lon="12.415931584737399"><ele>1087.0</ele><time>2026-04-25T08:48:18.999Z</time></trkpt><trkpt lat="46.02153726141337" lon="12.416015817096902"><ele>1087.0</ele><time>2026-04-25T08:48:19.999Z</time></trkpt><trkpt lat="46.02164383706227" lon="12.416086052061017"><ele>1087.0</ele><time>2026-04-25T08:48:20.999Z</time></trkpt><trkpt lat="46.021758222168096" lon="12.416123844978422"><ele>1087.0</ele><time>2026-04-25T08:48:21.999Z</time></trkpt><trkpt lat="46.021876010542286" lon="12.416132294506601"><ele>1085.2</ele><time>2026-04-25T08:48:22.999Z</time></trkpt><trkpt lat="46.021987882869" lon="12.416159260018873"><ele>1083.4</ele><time>2026-04-25T08:48:23.999Z</time></trkpt><trkpt lat="46.02207631385571" lon="12.416198449663234"><ele>1081.6</ele><time>2026-04-25T08:48:24.999Z</time></trkpt><trkpt lat="46.022160091024695" lon="12.41623888288827"><ele>1079.8</ele><time>2026-04-25T08:48:25.999Z</time></trkpt><trkpt lat="46.02226681085895" lon="12.416267385939733"><ele>1078.0</ele><time>2026-04-25T08:48:26.999Z</time></trkpt><trkpt lat="46.022369688314036" lon="12.416217999120304"><ele>1078.0</ele><time>2026-04-25T08:48:27.999Z</time></trkpt><trkpt lat="46.02246187471785" lon="12.416156979048727"><ele>1078.0</ele><time>2026-04-25T08:48:28.999Z</time></trkpt><trkpt lat="46.02255709716907" lon="12.416049394454994"><ele>1078.0</ele><time>2026-04-25T08:48:29.999Z</time></trkpt><trkpt lat="46.022642425939864" lon="12.415959130974091"><ele>1078.0</ele><time>2026-04-25T08:48:30.999Z</time></trkpt><trkpt lat="46.022730628210425" lon="12.415895180316465"><ele>1078.0</ele><time>2026-04-25T08:48:31.999Z</time></trkpt><trkpt lat="46.02283288296112" lon="12.415850482921869"><ele>1077.6666666666665</ele><time>2026-04-25T08:48:32.999Z</time></trkpt><trkpt lat="46.022941786260326" lon="12.415811024553426"><ele>1077.3333333333333</ele><time>2026-04-25T08:48:33.999Z</time></trkpt><trkpt lat="46.023036999445566" lon="12.415780080293429"><ele>1077.0</ele><time>2026-04-25T08:48:34.999Z</time></trkpt><trkpt lat="46.02311845849897" lon="12.415756457896766"><ele>1076.6666666666667</ele><time>2026-04-25T08:48:35.999Z</time></trkpt><trkpt lat="46.02318923144976" lon="12.415740424888314"><ele>1076.3333333333335</ele><time>2026-04-25T08:48:36.999Z</time></trkpt><trkpt lat="46.02325971832037" lon="12.415737851190396"><ele>1076.0</ele><time>2026-04-25T08:48:37.999Z</time></trkpt><trkpt lat="46.02331376675212" lon="12.41579975265038"><ele>1076.6666666666667</ele><time>2026-04-25T08:48:38.999Z</time></trkpt><trkpt lat="46.02335661225583" lon="12.415901665540455"><ele>1077.3333333333335</ele><time>2026-04-25T08:48:39.999Z</time></trkpt><trkpt lat="46.02339329149288" lon="12.41601558485287"><ele>1078.0</ele><time>2026-04-25T08:48:40.999Z</time></trkpt><trkpt lat="46.02343945274635" lon="12.41612546435706"><ele>1078.6666666666667</ele><time>2026-04-25T08:48:41.999Z</time></trkpt><trkpt lat="46.02350279921431" lon="12.416203605393648"><ele>1079.3333333333333</ele><time>2026-04-25T08:48:42.999Z</time></trkpt><trkpt lat="46.02358285235719" lon="12.416260427206353"><ele>1080.0</ele><time>2026-04-25T08:48:43.999Z</time></trkpt><trkpt lat="46.02369091992077" lon="12.416217695952131"><ele>1080.0</ele><time>2026-04-25T08:48:44.999Z</time></trkpt><trkpt lat="46.02380901113987" lon="12.416186171611153"><ele>1080.0</ele><time>2026-04-25T08:48:45.999Z</time></trkpt><trkpt lat="46.02392578124235" lon="12.416114689565532"><ele>1080.0</ele><time>2026-04-25T08:48:46.999Z</time></trkpt><trkpt lat="46.02402493597169" lon="12.416008521483565"><ele>1080.0</ele><time>2026-04-25T08:48:47.999Z</time></trkpt><trkpt lat="46.02412259277532" lon="12.415931322042058"><ele>1080.25</ele><time>2026-04-25T08:48:48.999Z</time></trkpt><trkpt lat="46.02421850538779" lon="12.415855446718654"><ele>1080.5</ele><time>2026-04-25T08:48:49.999Z</time></trkpt><trkpt lat="46.02432014713478" lon="12.415782818877943"><ele>1080.75</ele><time>2026-04-25T08:48:50.999Z</time></trkpt><trkpt lat="46.0244415226438" lon="12.415724458277525"><ele>1081.0</ele><time>2026-04-25T08:48:51.999Z</time></trkpt><trkpt lat="46.024561466618614" lon="12.415677057170322"><ele>1081.0</ele><time>2026-04-25T08:48:52.999Z</time></trkpt><trkpt lat="46.024677493441644" lon="12.415637842635071"><ele>1081.0</ele><time>2026-04-25T08:48:53.999Z</time></trkpt><trkpt lat="46.0247945877541" lon="12.41560194748691"><ele>1081.0</ele><time>2026-04-25T08:48:54.999Z</time></trkpt><trkpt lat="46.02490467680197" lon="12.415569254838447"><ele>1081.0</ele><time>2026-04-25T08:48:55.999Z</time></trkpt><trkpt lat="46.02501499610278" lon="12.41556315973686"><ele>1083.0</ele><time>2026-04-25T08:48:56.999Z</time></trkpt><trkpt lat="46.02511518811892" lon="12.415558546862439"><ele>1085.0</ele><time>2026-04-25T08:48:57.999Z</time></trkpt><trkpt lat="46.025203803569724" lon="12.415545825928927"><ele>1087.0</ele><time>2026-04-25T08:48:58.999Z</time></trkpt><trkpt lat="46.025295660707236" lon="12.415560127870206"><ele>1089.0</ele><time>2026-04-25T08:48:59.999Z</time></trkpt><trkpt lat="46.02538651356601" lon="12.415639102354945"><ele>1091.0</ele><time>2026-04-25T08:49:00.999Z</time></trkpt><trkpt lat="46.02549829744612" lon="12.415686758637571"><ele>1091.0</ele><time>2026-04-25T08:49:01.999Z</time></trkpt><trkpt lat="46.02560111984565" lon="12.415754240203825"><ele>1091.0</ele><time>2026-04-25T08:49:02.999Z</time></trkpt><trkpt lat="46.025690685885095" lon="12.4157871828386"><ele>1091.0</ele><time>2026-04-25T08:49:03.999Z</time></trkpt><trkpt lat="46.02577514764088" lon="12.415798410834995"><ele>1091.0</ele><time>2026-04-25T08:49:04.999Z</time></trkpt><trkpt lat="46.025858853597775" lon="12.415808898046045"><ele>1091.0</ele><time>2026-04-25T08:49:05.999Z</time></trkpt><trkpt lat="46.025930648931485" lon="12.415846595878822"><ele>1090.3333333333335</ele><time>2026-04-25T08:49:06.999Z</time></trkpt><trkpt lat="46.02599341095011" lon="12.415875133415868"><ele>1089.6666666666667</ele><time>2026-04-25T08:49:07.999Z</time></trkpt><trkpt lat="46.02601082979538" lon="12.415975462750593"><ele>1089.0</ele><time>2026-04-25T08:49:08.999Z</time></trkpt><trkpt lat="46.02602516212694" lon="12.416081815152085"><ele>1088.3333333333333</ele><time>2026-04-25T08:49:09.999Z</time></trkpt><trkpt lat="46.02601725229057" lon="12.416211050148805"><ele>1087.6666666666665</ele><time>2026-04-25T08:49:10.999Z</time></trkpt><trkpt lat="46.0260306537404" lon="12.416317724258285"><ele>1087.0</ele><time>2026-04-25T08:49:11.999Z</time></trkpt><trkpt lat="46.02604102130495" lon="12.416420674192025"><ele>1089.2</ele><time>2026-04-25T08:49:12.999Z</time></trkpt><trkpt lat="46.02609098049547" lon="12.416513360249242"><ele>1091.4</ele><time>2026-04-25T08:49:13.999Z</time></trkpt><trkpt lat="46.026190444362165" lon="12.41655063249689"><ele>1093.6</ele><time>2026-04-25T08:49:14.999Z</time></trkpt><trkpt lat="46.0263006868134" lon="12.416537458273588"><ele>1095.8</ele><time>2026-04-25T08:49:15.999Z</time></trkpt><trkpt lat="46.02638948886206" lon="12.41651309393047"><ele>1098.0</ele><time>2026-04-25T08:49:16.999Z</time></trkpt><trkpt lat="46.02648259509834" lon="12.416474435642048"><ele>1098.0</ele><time>2026-04-25T08:49:17.999Z</time></trkpt><trkpt lat="46.02656951506913" lon="12.41641164001836"><ele>1098.0</ele><time>2026-04-25T08:49:18.999Z</time></trkpt><trkpt lat="46.02663166752015" lon="12.416257088905555"><ele>1098.0</ele><time>2026-04-25T08:49:19.999Z</time></trkpt><trkpt lat="46.02668972346366" lon="12.416120410758571"><ele>1098.0</ele><time>2026-04-25T08:49:20.999Z</time></trkpt><trkpt lat="46.02674630344098" lon="12.41599644361565"><ele>1098.0</ele><time>2026-04-25T08:49:21.999Z</time></trkpt><trkpt lat="46.02679732605624" lon="12.415880319661216"><ele>1095.6</ele><time>2026-04-25T08:49:22.999Z</time></trkpt><trkpt lat="46.02684032608604" lon="12.415762066807423"><ele>1093.1999999999998</ele><time>2026-04-25T08:49:23.999Z</time></trkpt><trkpt lat="46.026871051571206" lon="12.41563620304794"><ele>1090.8</ele><time>2026-04-25T08:49:24.999Z</time></trkpt><trkpt lat="46.02686310098861" lon="12.415487106054803"><ele>1088.3999999999999</ele><time>2026-04-25T08:49:25.999Z</time></trkpt><trkpt lat="46.026843850003395" lon="12.41535098183434"><ele>1086.0</ele><time>2026-04-25T08:49:26.999Z</time></trkpt><trkpt lat="46.026810793117654" lon="12.415226086664672"><ele>1084.3333333333333</ele><time>2026-04-25T08:49:27.999Z</time></trkpt><trkpt lat="46.02681727683231" lon="12.415118715374788"><ele>1082.6666666666667</ele><time>2026-04-25T08:49:28.999Z</time></trkpt><trkpt lat="46.02686532206223" lon="12.41504456601378"><ele>1081.0</ele><time>2026-04-25T08:49:29.999Z</time></trkpt><trkpt lat="46.02692051241444" lon="12.414970075693848"><ele>1079.3333333333335</ele><time>2026-04-25T08:49:30.999Z</time></trkpt><trkpt lat="46.026985124527336" lon="12.414878217707578"><ele>1077.6666666666667</ele><time>2026-04-25T08:49:31.999Z</time></trkpt><trkpt lat="46.02704936343036" lon="12.41476946507713"><ele>1076.0</ele><time>2026-04-25T08:49:32.999Z</time></trkpt><trkpt lat="46.02711181997497" lon="12.41465496139706"><ele>1072.0</ele><time>2026-04-25T08:49:33.999Z</time></trkpt><trkpt lat="46.027177547046165" lon="12.414536548828385"><ele>1068.0</ele><time>2026-04-25T08:49:34.999Z</time></trkpt><trkpt lat="46.02725625580727" lon="12.414424700176138"><ele>1064.0</ele><time>2026-04-25T08:49:35.999Z</time></trkpt><trkpt lat="46.02735052849595" lon="12.41431987959059"><ele>1060.0</ele><time>2026-04-25T08:49:36.999Z</time></trkpt><trkpt lat="46.02744433765067" lon="12.414204113957327"><ele>1061.75</ele><time>2026-04-25T08:49:37.999Z</time></trkpt><trkpt lat="46.02754571355809" lon="12.414118391397054"><ele>1063.5</ele><time>2026-04-25T08:49:38.999Z</time></trkpt><trkpt lat="46.02765890041006" lon="12.414050387474587"><ele>1065.25</ele><time>2026-04-25T08:49:40Z</time></trkpt><trkpt lat="46.02775489776751" lon="12.413943383175107"><ele>1067.0</ele><time>2026-04-25T08:49:41Z</time></trkpt><trkpt lat="46.027821521395374" lon="12.413804380670664"><ele>1067.0</ele><time>2026-04-25T08:49:42Z</time></trkpt><trkpt lat="46.0278989081682" lon="12.413686600892897"><ele>1067.0</ele><time>2026-04-25T08:49:43Z</time></trkpt><trkpt lat="46.02797199021765" lon="12.41358172293995"><ele>1067.0</ele><time>2026-04-25T08:49:44Z</time></trkpt><trkpt lat="46.02805496107008" lon="12.413478969112216"><ele>1067.0</ele><time>2026-04-25T08:49:45Z</time></trkpt><trkpt lat="46.02814741960583" lon="12.413387043393183"><ele>1067.0</ele><time>2026-04-25T08:49:46Z</time></trkpt><trkpt lat="46.02826078972647" lon="12.413343804878922"><ele>1071.75</ele><time>2026-04-25T08:49:47Z</time></trkpt><trkpt lat="46.028387352622175" lon="12.413282878312758"><ele>1076.5</ele><time>2026-04-25T08:49:48Z</time></trkpt><trkpt lat="46.028503607671325" lon="12.413196393060291"><ele>1081.25</ele><time>2026-04-25T08:49:49Z</time></trkpt><trkpt lat="46.02860335189486" lon="12.413073814781322"><ele>1086.0</ele><time>2026-04-25T08:49:50Z</time></trkpt><trkpt lat="46.028710271380916" lon="12.41299175231831"><ele>1082.0</ele><time>2026-04-25T08:49:51Z</time></trkpt><trkpt lat="46.02882655315199" lon="12.41294917425865"><ele>1078.0</ele><time>2026-04-25T08:49:52Z</time></trkpt><trkpt lat="46.02893018959333" lon="12.412877328294682"><ele>1074.0</ele><time>2026-04-25T08:49:53Z</time></trkpt><trkpt lat="46.02901677429755" lon="12.412775482531666"><ele>1070.0</ele><time>2026-04-25T08:49:54Z</time></trkpt><trkpt lat="46.02908927781685" lon="12.41266656177678"><ele>1074.0</ele><time>2026-04-25T08:49:55Z</time></trkpt><trkpt lat="46.02915874966943" lon="12.412561521434492"><ele>1078.0</ele><time>2026-04-25T08:49:56Z</time></trkpt><trkpt lat="46.029220478702825" lon="12.412471815417964"><ele>1082.0</ele><time>2026-04-25T08:49:57Z</time></trkpt><trkpt lat="46.0292750966549" lon="12.412377239464659"><ele>1086.0</ele><time>2026-04-25T08:49:58Z</time></trkpt><trkpt lat="46.02935178744921" lon="12.412308806738517"><ele>1090.0</ele><time>2026-04-25T08:49:59Z</time></trkpt><trkpt lat="46.02942770872648" lon="12.412245215189435"><ele>1090.0</ele><time>2026-04-25T08:50:00Z</time></trkpt><trkpt lat="46.029501013539935" lon="12.41219177792089"><ele>1090.0</ele><time>2026-04-25T08:50:01Z</time></trkpt><trkpt lat="46.0295757859597" lon="12.412146410816444"><ele>1090.0</ele><time>2026-04-25T08:50:02Z</time></trkpt><trkpt lat="46.02964155245987" lon="12.412105918553783"><ele>1090.0</ele><time>2026-04-25T08:50:03Z</time></trkpt><trkpt lat="46.029730054227294" lon="12.411998075157339"><ele>1090.0</ele><time>2026-04-25T08:50:05Z</time></trkpt><trkpt lat="46.029740965672865" lon="12.411901595384135"><ele>1090.0</ele><time>2026-04-25T08:50:07Z</time></trkpt><trkpt lat="46.029753411620774" lon="12.41180759287857"><ele>1090.4</ele><time>2026-04-25T08:50:09.999Z</time></trkpt><trkpt lat="46.02971167194763" lon="12.411693194756921"><ele>1090.8</ele><time>2026-04-25T08:50:30.999Z</time></trkpt><trkpt lat="46.02984644102762" lon="12.411608145087238"><ele>1091.2</ele><time>2026-04-25T08:50:31.999Z</time></trkpt><trkpt lat="46.02993092838837" lon="12.411559568718266"><ele>1091.6</ele><time>2026-04-25T08:50:32.999Z</time></trkpt><trkpt lat="46.03002326673541" lon="12.411494468089888"><ele>1092.0</ele><time>2026-04-25T08:50:33.999Z</time></trkpt><trkpt lat="46.03013535087965" lon="12.41145836432564"><ele>1092.0</ele><time>2026-04-25T08:50:34.999Z</time></trkpt><trkpt lat="46.03025994844277" lon="12.411454185593163"><ele>1092.0</ele><time>2026-04-25T08:50:35.999Z</time></trkpt><trkpt lat="46.03037749987697" lon="12.41146429252934"><ele>1092.0</ele><time>2026-04-25T08:50:36.999Z</time></trkpt><trkpt lat="46.030483695226415" lon="12.41148071073778"><ele>1092.0</ele><time>2026-04-25T08:50:37.999Z</time></trkpt><trkpt lat="46.03058352884065" lon="12.411498907941438"><ele>1092.0</ele><time>2026-04-25T08:50:38.999Z</time></trkpt><trkpt lat="46.03068396401449" lon="12.411520122590703"><ele>1092.0</ele><time>2026-04-25T08:50:39.999Z</time></trkpt><trkpt lat="46.030782646907824" lon="12.411536169022348"><ele>1092.0</ele><time>2026-04-25T08:50:40.999Z</time></trkpt><trkpt lat="46.03087820766441" lon="12.41157071650778"><ele>1092.0</ele><time>2026-04-25T08:50:41.999Z</time></trkpt><trkpt lat="46.03098007379087" lon="12.411572890035435"><ele>1092.0</ele><time>2026-04-25T08:50:42.999Z</time></trkpt><trkpt lat="46.031085741882066" lon="12.41155905876547"><ele>1095.25</ele><time>2026-04-25T08:50:43.999Z</time></trkpt><trkpt lat="46.031186508801305" lon="12.41150520309133"><ele>1098.5</ele><time>2026-04-25T08:50:44.999Z</time></trkpt><trkpt lat="46.031294831453955" lon="12.411454924921085"><ele>1101.75</ele><time>2026-04-25T08:50:45.999Z</time></trkpt><trkpt lat="46.03141080828678" lon="12.41141112144396"><ele>1105.0</ele><time>2026-04-25T08:50:46.999Z</time></trkpt><trkpt lat="46.03152446936505" lon="12.411337263230099"><ele>1103.5</ele><time>2026-04-25T08:50:47.999Z</time></trkpt><trkpt lat="46.03163332074952" lon="12.411242308046058"><ele>1102.0</ele><time>2026-04-25T08:50:48.999Z</time></trkpt><trkpt lat="46.0317567858209" lon="12.411168021006771"><ele>1100.5</ele><time>2026-04-25T08:50:49.999Z</time></trkpt><trkpt lat="46.03188636026402" lon="12.41109030752371"><ele>1099.0</ele><time>2026-04-25T08:50:50.999Z</time></trkpt><trkpt lat="46.032017585119846" lon="12.411011484726355"><ele>1099.0</ele><time>2026-04-25T08:50:51.999Z</time></trkpt><trkpt lat="46.03214972045572" lon="12.41094104110716"><ele>1099.0</ele><time>2026-04-25T08:50:52.999Z</time></trkpt><trkpt lat="46.03228277312132" lon="12.410874340333098"><ele>1099.0</ele><time>2026-04-25T08:50:53.999Z</time></trkpt><trkpt lat="46.032412985392625" lon="12.410794564333719"><ele>1099.0</ele><time>2026-04-25T08:50:54.999Z</time></trkpt><trkpt lat="46.03253569374769" lon="12.410695321247745"><ele>1099.75</ele><time>2026-04-25T08:50:55.999Z</time></trkpt><trkpt lat="46.03264831003533" lon="12.410573014820255"><ele>1100.5</ele><time>2026-04-25T08:50:56.999Z</time></trkpt><trkpt lat="46.03275344580991" lon="12.410429999372068"><ele>1101.25</ele><time>2026-04-25T08:50:57.999Z</time></trkpt><trkpt lat="46.03285625357831" lon="12.410282094545346"><ele>1102.0</ele><time>2026-04-25T08:50:58.999Z</time></trkpt><trkpt lat="46.03295123164825" lon="12.410141394156573"><ele>1102.0</ele><time>2026-04-25T08:50:59.999Z</time></trkpt><trkpt lat="46.03304077036028" lon="12.410001278451773"><ele>1102.0</ele><time>2026-04-25T08:51:00.999Z</time></trkpt><trkpt lat="46.033132813115394" lon="12.409867149610173"><ele>1102.0</ele><time>2026-04-25T08:51:01.999Z</time></trkpt><trkpt lat="46.03323255737072" lon="12.409736634912399"><ele>1102.0</ele><time>2026-04-25T08:51:02.999Z</time></trkpt><trkpt lat="46.03333929319218" lon="12.409604083073166"><ele>1104.0</ele><time>2026-04-25T08:51:03.999Z</time></trkpt><trkpt lat="46.033452396616276" lon="12.409469208935414"><ele>1106.0</ele><time>2026-04-25T08:51:04.999Z</time></trkpt><trkpt lat="46.03357226215252" lon="12.409331940436871"><ele>1108.0</ele><time>2026-04-25T08:51:05.999Z</time></trkpt><trkpt lat="46.03369747985556" lon="12.409193825588911"><ele>1108.0</ele><time>2026-04-25T08:51:06.999Z</time></trkpt><trkpt lat="46.033821219324416" lon="12.40906875492905"><ele>1108.0</ele><time>2026-04-25T08:51:07.999Z</time></trkpt><trkpt lat="46.033942578666384" lon="12.408949514414575"><ele>1108.0</ele><time>2026-04-25T08:51:08.999Z</time></trkpt><trkpt lat="46.034057273967306" lon="12.408832334816028"><ele>1108.0</ele><time>2026-04-25T08:51:09.999Z</time></trkpt><trkpt lat="46.03416248870776" lon="12.40871108071673"><ele>1109.75</ele><time>2026-04-25T08:51:10.999Z</time></trkpt><trkpt lat="46.034255063114756" lon="12.408575710153762"><ele>1111.5</ele><time>2026-04-25T08:51:11.999Z</time></trkpt><trkpt lat="46.03433595554976" lon="12.408428040516878"><ele>1113.25</ele><time>2026-04-25T08:51:12.999Z</time></trkpt><trkpt lat="46.03440531223588" lon="12.408269742904743"><ele>1115.0</ele><time>2026-04-25T08:51:13.999Z</time></trkpt><trkpt lat="46.03446694050135" lon="12.408101098680932"><ele>1116.0</ele><time>2026-04-25T08:51:14.999Z</time></trkpt><trkpt lat="46.03452375244397" lon="12.40791846238507"><ele>1117.0</ele><time>2026-04-25T08:51:15.999Z</time></trkpt><trkpt lat="46.03457893138384" lon="12.407738364688566"><ele>1118.0</ele><time>2026-04-25T08:51:16.999Z</time></trkpt><trkpt lat="46.034634407829294" lon="12.407557475263227"><ele>1119.0</ele><time>2026-04-25T08:51:17.999Z</time></trkpt><trkpt lat="46.034687363023814" lon="12.407372261125378"><ele>1119.0</ele><time>2026-04-25T08:51:18.999Z</time></trkpt><trkpt lat="46.03473780403224" lon="12.407185905563937"><ele>1119.0</ele><time>2026-04-25T08:51:19.999Z</time></trkpt><trkpt lat="46.03479040444848" lon="12.407006060178857"><ele>1119.0</ele><time>2026-04-25T08:51:20.999Z</time></trkpt><trkpt lat="46.03483344207923" lon="12.406831527372582"><ele>1119.0</ele><time>2026-04-25T08:51:21.999Z</time></trkpt><trkpt lat="46.0348629298411" lon="12.406681137617698"><ele>1119.75</ele><time>2026-04-25T08:51:22.999Z</time></trkpt><trkpt lat="46.03489259711714" lon="12.406537409647813"><ele>1120.5</ele><time>2026-04-25T08:51:23.999Z</time></trkpt><trkpt lat="46.03492220957607" lon="12.406374762631824"><ele>1121.25</ele><time>2026-04-25T08:51:24.999Z</time></trkpt><trkpt lat="46.03495378642818" lon="12.406209021481986"><ele>1122.0</ele><time>2026-04-25T08:51:25.999Z</time></trkpt><trkpt lat="46.03498229542461" lon="12.406049271267447"><ele>1124.0</ele><time>2026-04-25T08:51:26.999Z</time></trkpt><trkpt lat="46.03501574711467" lon="12.405892610362963"><ele>1126.0</ele><time>2026-04-25T08:51:27.999Z</time></trkpt><trkpt lat="46.035080993859346" lon="12.40576852198305"><ele>1128.0</ele><time>2026-04-25T08:51:28.999Z</time></trkpt><trkpt lat="46.03516938837045" lon="12.405656464054069"><ele>1130.0</ele><time>2026-04-25T08:51:29.999Z</time></trkpt><trkpt lat="46.035267248322945" lon="12.405578960174303"><ele>1130.0</ele><time>2026-04-25T08:51:30.999Z</time></trkpt><trkpt lat="46.03537170533756" lon="12.405531656908838"><ele>1130.0</ele><time>2026-04-25T08:51:31.999Z</time></trkpt><trkpt lat="46.03548754167753" lon="12.405507479430849"><ele>1130.0</ele><time>2026-04-25T08:51:32.999Z</time></trkpt><trkpt lat="46.035608708900554" lon="12.40548983933082"><ele>1130.0</ele><time>2026-04-25T08:51:33.999Z</time></trkpt><trkpt lat="46.035735764467915" lon="12.40547834070246"><ele>1127.25</ele><time>2026-04-25T08:51:34.999Z</time></trkpt><trkpt lat="46.03586482337075" lon="12.405466841976494"><ele>1124.5</ele><time>2026-04-25T08:51:35.999Z</time></trkpt><trkpt lat="46.03599310364119" lon="12.405433730658494"><ele>1121.75</ele><time>2026-04-25T08:51:36.999Z</time></trkpt><trkpt lat="46.03611015892569" lon="12.405362788218335"><ele>1119.0</ele><time>2026-04-25T08:51:37.999Z</time></trkpt><trkpt lat="46.03621898848577" lon="12.405237942058594"><ele>1119.0</ele><time>2026-04-25T08:51:38.999Z</time></trkpt><trkpt lat="46.036326295088955" lon="12.405086125409984"><ele>1119.0</ele><time>2026-04-25T08:51:39.999Z</time></trkpt><trkpt lat="46.0364340146701" lon="12.404926557706084"><ele>1119.0</ele><time>2026-04-25T08:51:40.999Z</time></trkpt><trkpt lat="46.03653904165717" lon="12.40478092960431"><ele>1118.5</ele><time>2026-04-25T08:51:41.999Z</time></trkpt><trkpt lat="46.036660709296676" lon="12.404653763653068"><ele>1118.0</ele><time>2026-04-25T08:51:42.999Z</time></trkpt><trkpt lat="46.03678458480531" lon="12.404535659113105"><ele>1117.5</ele><time>2026-04-25T08:51:43.999Z</time></trkpt><trkpt lat="46.03689525258972" lon="12.404407199111816"><ele>1117.0</ele><time>2026-04-25T08:51:44.999Z</time></trkpt><trkpt lat="46.03699334376204" lon="12.404269204233357"><ele>1117.0</ele><time>2026-04-25T08:51:46Z</time></trkpt><trkpt lat="46.037083087091965" lon="12.404136155377573"><ele>1117.0</ele><time>2026-04-25T08:51:47Z</time></trkpt><trkpt lat="46.03717307286238" lon="12.404026282671175"><ele>1117.0</ele><time>2026-04-25T08:51:48Z</time></trkpt><trkpt lat="46.03727898414549" lon="12.403927580250373"><ele>1117.0</ele><time>2026-04-25T08:51:49Z</time></trkpt><trkpt lat="46.037389667106986" lon="12.40382870709635"><ele>1117.25</ele><time>2026-04-25T08:51:50Z</time></trkpt><trkpt lat="46.03749831346666" lon="12.403735297401596"><ele>1117.5</ele><time>2026-04-25T08:51:51Z</time></trkpt><trkpt lat="46.037605690480596" lon="12.403645292038881"><ele>1117.75</ele><time>2026-04-25T08:51:52Z</time></trkpt><trkpt lat="46.03771290043186" lon="12.403540906826679"><ele>1118.0</ele><time>2026-04-25T08:51:53Z</time></trkpt><trkpt lat="46.03782289685144" lon="12.403415406929739"><ele>1118.0</ele><time>2026-04-25T08:51:54Z</time></trkpt><trkpt lat="46.03794173351726" lon="12.403284458236925"><ele>1118.0</ele><time>2026-04-25T08:51:55Z</time></trkpt><trkpt lat="46.03805770806575" lon="12.40315293154357"><ele>1118.0</ele><time>2026-04-25T08:51:56Z</time></trkpt><trkpt lat="46.03817256973805" lon="12.403010700203554"><ele>1118.0</ele><time>2026-04-25T08:51:57Z</time></trkpt><trkpt lat="46.03828426969385" lon="12.402842396156748"><ele>1117.0</ele><time>2026-04-25T08:51:58Z</time></trkpt><trkpt lat="46.038391218085884" lon="12.402657596562532"><ele>1116.0</ele><time>2026-04-25T08:51:59Z</time></trkpt><trkpt lat="46.038499053207126" lon="12.402460973800578"><ele>1115.0</ele><time>2026-04-25T08:52:00Z</time></trkpt><trkpt lat="46.038600573909285" lon="12.402253192497104"><ele>1116.0</ele><time>2026-04-25T08:52:01Z</time></trkpt><trkpt lat="46.038696527446106" lon="12.40203986248203"><ele>1117.0</ele><time>2026-04-25T08:52:02Z</time></trkpt><trkpt lat="46.03878476255015" lon="12.40182521757777"><ele>1118.0</ele><time>2026-04-25T08:52:03Z</time></trkpt><trkpt lat="46.038869133976775" lon="12.401618216878672"><ele>1118.0</ele><time>2026-04-25T08:52:04Z</time></trkpt><trkpt lat="46.038945013686245" lon="12.401433834802956"><ele>1118.0</ele><time>2026-04-25T08:52:05Z</time></trkpt><trkpt lat="46.03901668359965" lon="12.401265758202005"><ele>1118.0</ele><time>2026-04-25T08:52:06Z</time></trkpt><trkpt lat="46.03907828940723" lon="12.401120969090904"><ele>1118.0</ele><time>2026-04-25T08:52:07Z</time></trkpt><trkpt lat="46.0391325638487" lon="12.400984199141506"><ele>1117.75</ele><time>2026-04-25T08:52:08Z</time></trkpt><trkpt lat="46.03918627695526" lon="12.400856632279583"><ele>1117.5</ele><time>2026-04-25T08:52:09Z</time></trkpt><trkpt lat="46.03920385651413" lon="12.400673882219655"><ele>1117.25</ele><time>2026-04-25T08:52:10Z</time></trkpt><trkpt lat="46.03914985890347" lon="12.400468287357649"><ele>1117.0</ele><time>2026-04-25T08:52:11Z</time></trkpt><trkpt lat="46.03910122728188" lon="12.400231157088962"><ele>1122.3333333333333</ele><time>2026-04-25T08:52:12Z</time></trkpt><trkpt lat="46.03908731614916" lon="12.399972425289134"><ele>1127.6666666666667</ele><time>2026-04-25T08:52:13Z</time></trkpt><trkpt lat="46.03903979859962" lon="12.399751051609172"><ele>1133.0</ele><time>2026-04-25T08:52:14Z</time></trkpt><trkpt lat="46.03904374178805" lon="12.399539342435034"><ele>1133.6666666666667</ele><time>2026-04-25T08:52:15Z</time></trkpt><trkpt lat="46.03907489890547" lon="12.399324288493753"><ele>1134.3333333333333</ele><time>2026-04-25T08:52:16Z</time></trkpt><trkpt lat="46.03913886562733" lon="12.399102433763366"><ele>1135.0</ele><time>2026-04-25T08:52:17Z</time></trkpt><trkpt lat="46.03920605752395" lon="12.398886874883978"><ele>1130.75</ele><time>2026-04-25T08:52:18Z</time></trkpt><trkpt lat="46.03926054769743" lon="12.398700091364788"><ele>1126.5</ele><time>2026-04-25T08:52:19Z</time></trkpt><trkpt lat="46.03930496288614" lon="12.398526477497263"><ele>1122.25</ele><time>2026-04-25T08:52:20Z</time></trkpt><trkpt lat="46.03934270201059" lon="12.398354738874788"><ele>1118.0</ele><time>2026-04-25T08:52:20.999Z</time></trkpt><trkpt lat="46.03935811920551" lon="12.398159596287119"><ele>1119.0</ele><time>2026-04-25T08:52:21.999Z</time></trkpt><trkpt lat="46.03934438737933" lon="12.397937304899951"><ele>1120.0</ele><time>2026-04-25T08:52:22.999Z</time></trkpt><trkpt lat="46.0393373337726" lon="12.397709292403203"><ele>1121.0</ele><time>2026-04-25T08:52:23.999Z</time></trkpt><trkpt lat="46.039342087361106" lon="12.397486581689648"><ele>1121.0</ele><time>2026-04-25T08:52:24.999Z</time></trkpt><trkpt lat="46.03935029159325" lon="12.397287771665845"><ele>1121.0</ele><time>2026-04-25T08:52:25.999Z</time></trkpt><trkpt lat="46.039365137114636" lon="12.397112335820765"><ele>1121.0</ele><time>2026-04-25T08:52:26.999Z</time></trkpt><trkpt lat="46.03937903177006" lon="12.396942190568891"><ele>1121.0</ele><time>2026-04-25T08:52:27.999Z</time></trkpt><trkpt lat="46.039392309303786" lon="12.39677835281108"><ele>1119.8</ele><time>2026-04-25T08:52:28.999Z</time></trkpt><trkpt lat="46.03940304126267" lon="12.396620136369261"><ele>1118.6</ele><time>2026-04-25T08:52:29.999Z</time></trkpt><trkpt lat="46.039417338681645" lon="12.396475136622856"><ele>1117.4</ele><time>2026-04-25T08:52:30.999Z</time></trkpt><trkpt lat="46.039442345256454" lon="12.396341594929398"><ele>1116.2</ele><time>2026-04-25T08:52:31.999Z</time></trkpt><trkpt lat="46.03947845115873" lon="12.396211801636268"><ele>1115.0</ele><time>2026-04-25T08:52:32.999Z</time></trkpt><trkpt lat="46.0395226115015" lon="12.3960984058016"><ele>1114.8</ele><time>2026-04-25T08:52:33.999Z</time></trkpt><trkpt lat="46.03957710800558" lon="12.396004785268438"><ele>1114.6</ele><time>2026-04-25T08:52:34.999Z</time></trkpt><trkpt lat="46.03966197820214" lon="12.395940033783907"><ele>1114.4</ele><time>2026-04-25T08:52:35.999Z</time></trkpt><trkpt lat="46.039770153778306" lon="12.395943947174663"><ele>1114.2</ele><time>2026-04-25T08:52:36.999Z</time></trkpt><trkpt lat="46.0398990838721" lon="12.396002705372837"><ele>1114.0</ele><time>2026-04-25T08:52:37.999Z</time></trkpt><trkpt lat="46.040040962852295" lon="12.396111465992815"><ele>1116.0</ele><time>2026-04-25T08:52:38.999Z</time></trkpt><trkpt lat="46.04022701493572" lon="12.39627402496974"><ele>1118.0</ele><time>2026-04-25T08:52:39.999Z</time></trkpt><trkpt lat="46.040390463591535" lon="12.396422279828911"><ele>1120.0</ele><time>2026-04-25T08:52:40.999Z</time></trkpt><trkpt lat="46.04053823923879" lon="12.39653770974259"><ele>1116.0</ele><time>2026-04-25T08:52:41.999Z</time></trkpt><trkpt lat="46.04068277033692" lon="12.396651851851862"><ele>1112.0</ele><time>2026-04-25T08:52:42.999Z</time></trkpt><trkpt lat="46.04081021069791" lon="12.3967581753313"><ele>1108.0</ele><time>2026-04-25T08:52:43.999Z</time></trkpt><trkpt lat="46.040930050191" lon="12.396862944719706"><ele>1108.0</ele><time>2026-04-25T08:52:44.999Z</time></trkpt><trkpt lat="46.04103776219446" lon="12.396984230587242"><ele>1108.0</ele><time>2026-04-25T08:52:45.999Z</time></trkpt><trkpt lat="46.041113445468284" lon="12.397145414249698"><ele>1108.0</ele><time>2026-04-25T08:52:46.999Z</time></trkpt><trkpt lat="46.04120275221116" lon="12.397316067654277"><ele>1108.0</ele><time>2026-04-25T08:52:47.999Z</time></trkpt><trkpt lat="46.04130320799291" lon="12.397471319905247"><ele>1103.25</ele><time>2026-04-25T08:52:48.999Z</time></trkpt><trkpt lat="46.04137682874453" lon="12.397618267936215"><ele>1098.5</ele><time>2026-04-25T08:52:49.999Z</time></trkpt><trkpt lat="46.041458745334566" lon="12.3977635175282"><ele>1093.75</ele><time>2026-04-25T08:52:50.999Z</time></trkpt><trkpt lat="46.041541981136724" lon="12.397903067631203"><ele>1089.0</ele><time>2026-04-25T08:52:51.999Z</time></trkpt><trkpt lat="46.041622999228885" lon="12.398048177238659"><ele>1090.75</ele><time>2026-04-25T08:52:52.999Z</time></trkpt><trkpt lat="46.04170175066567" lon="12.398192607827127"><ele>1092.5</ele><time>2026-04-25T08:52:53.999Z</time></trkpt><trkpt lat="46.04178276471536" lon="12.398334616459755"><ele>1094.25</ele><time>2026-04-25T08:52:54.999Z</time></trkpt><trkpt lat="46.04187019531053" lon="12.398469379638911"><ele>1096.0</ele><time>2026-04-25T08:52:55.999Z</time></trkpt><trkpt lat="46.04197135960826" lon="12.398604419952916"><ele>1096.0</ele><time>2026-04-25T08:52:56.999Z</time></trkpt><trkpt lat="46.04208337805381" lon="12.398746694483386"><ele>1096.0</ele><time>2026-04-25T08:52:57.999Z</time></trkpt><trkpt lat="46.04220348343288" lon="12.398895514815505"><ele>1096.0</ele><time>2026-04-25T08:52:58.999Z</time></trkpt><trkpt lat="46.04232334387299" lon="12.399057190535501"><ele>1096.0</ele><time>2026-04-25T08:52:59.999Z</time></trkpt><trkpt lat="46.0424479984167" lon="12.399223153762614"><ele>1096.0</ele><time>2026-04-25T08:53:00.999Z</time></trkpt><trkpt lat="46.04257285663479" lon="12.399379219404667"><ele>1096.0</ele><time>2026-04-25T08:53:01.999Z</time></trkpt><trkpt lat="46.04269808891039" lon="12.399523095301987"><ele>1089.0</ele><time>2026-04-25T08:53:02.999Z</time></trkpt><trkpt lat="46.04281680000664" lon="12.399667310380382"><ele>1082.0</ele><time>2026-04-25T08:53:03.999Z</time></trkpt><trkpt lat="46.04293910014222" lon="12.399810099397715"><ele>1075.0</ele><time>2026-04-25T08:53:04.999Z</time></trkpt><trkpt lat="46.0430604230731" lon="12.399955601879196"><ele>1075.0</ele><time>2026-04-25T08:53:05.999Z</time></trkpt><trkpt lat="46.04318440797787" lon="12.400099530705031"><ele>1075.0</ele><time>2026-04-25T08:53:06.999Z</time></trkpt><trkpt lat="46.04330388098727" lon="12.400245004270996"><ele>1075.0</ele><time>2026-04-25T08:53:07.999Z</time></trkpt><trkpt lat="46.04341955577581" lon="12.400384835113067"><ele>1074.0</ele><time>2026-04-25T08:53:08.999Z</time></trkpt><trkpt lat="46.04354164281094" lon="12.400519119033408"><ele>1073.0</ele><time>2026-04-25T08:53:09.999Z</time></trkpt><trkpt lat="46.04367309374655" lon="12.400644859479636"><ele>1072.0</ele><time>2026-04-25T08:53:10.999Z</time></trkpt><trkpt lat="46.043815352868634" lon="12.40075902581103"><ele>1072.0</ele><time>2026-04-25T08:53:11.999Z</time></trkpt><trkpt lat="46.04396425613659" lon="12.400871808545142"><ele>1072.0</ele><time>2026-04-25T08:53:12.999Z</time></trkpt><trkpt lat="46.04411036913038" lon="12.400987249342307"><ele>1072.0</ele><time>2026-04-25T08:53:13.999Z</time></trkpt><trkpt lat="46.0442587878807" lon="12.401106037358584"><ele>1071.3333333333333</ele><time>2026-04-25T08:53:14.999Z</time></trkpt><trkpt lat="46.04440347465514" lon="12.40122192692632"><ele>1070.6666666666667</ele><time>2026-04-25T08:53:15.999Z</time></trkpt><trkpt lat="46.044549148204936" lon="12.401324339669243"><ele>1070.0</ele><time>2026-04-25T08:53:16.999Z</time></trkpt><trkpt lat="46.0446887023359" lon="12.401419722733094"><ele>1070.0</ele><time>2026-04-25T08:53:17.999Z</time></trkpt><trkpt lat="46.044823021788595" lon="12.401512044023542"><ele>1070.0</ele><time>2026-04-25T08:53:18.999Z</time></trkpt><trkpt lat="46.0449533252413" lon="12.401602212940233"><ele>1070.0</ele><time>2026-04-25T08:53:19.999Z</time></trkpt><trkpt lat="46.04508586282265" lon="12.401686697833721"><ele>1070.0</ele><time>2026-04-25T08:53:20.999Z</time></trkpt><trkpt lat="46.04521815181528" lon="12.401769550953341"><ele>1073.75</ele><time>2026-04-25T08:53:21.999Z</time></trkpt><trkpt lat="46.0453536228338" lon="12.401838532582262"><ele>1077.5</ele><time>2026-04-25T08:53:22.999Z</time></trkpt><trkpt lat="46.045492593326045" lon="12.401899589805227"><ele>1081.25</ele><time>2026-04-25T08:53:23.999Z</time></trkpt><trkpt lat="46.045634396691014" lon="12.401956754997073"><ele>1085.0</ele><time>2026-04-25T08:53:24.999Z</time></trkpt><trkpt lat="46.045782517165044" lon="12.402013197511815"><ele>1091.3333333333335</ele><time>2026-04-25T08:53:25.999Z</time></trkpt><trkpt lat="46.045941712160634" lon="12.402048156123298"><ele>1097.6666666666667</ele><time>2026-04-25T08:53:26.999Z</time></trkpt><trkpt lat="46.04610585987617" lon="12.402074083039118"><ele>1104.0</ele><time>2026-04-25T08:53:27.999Z</time></trkpt><trkpt lat="46.04627279137254" lon="12.402087478259201"><ele>1104.0</ele><time>2026-04-25T08:53:28.999Z</time></trkpt><trkpt lat="46.0464410748592" lon="12.402093449233503"><ele>1104.0</ele><time>2026-04-25T08:53:29.999Z</time></trkpt><trkpt lat="46.046604306342154" lon="12.402091983414236"><ele>1104.0</ele><time>2026-04-25T08:53:30.999Z</time></trkpt><trkpt lat="46.04676075357954" lon="12.402080765163985"><ele>1105.0</ele><time>2026-04-25T08:53:31.999Z</time></trkpt><trkpt lat="46.04691251212974" lon="12.402071302399655"><ele>1106.0</ele><time>2026-04-25T08:53:32.999Z</time></trkpt><trkpt lat="46.04705559582666" lon="12.402092383622335"><ele>1107.0</ele><time>2026-04-25T08:53:33.999Z</time></trkpt><trkpt lat="46.047193791861446" lon="12.40209056229105"><ele>1108.0</ele><time>2026-04-25T08:53:34.999Z</time></trkpt><trkpt lat="46.04731983923589" lon="12.402087765862987"><ele>1108.0</ele><time>2026-04-25T08:53:35.999Z</time></trkpt><trkpt lat="46.04744644898959" lon="12.4020774082218"><ele>1108.0</ele><time>2026-04-25T08:53:36.999Z</time></trkpt><trkpt lat="46.04757045997256" lon="12.402019059374169"><ele>1108.0</ele><time>2026-04-25T08:53:37.999Z</time></trkpt><trkpt lat="46.047689726709365" lon="12.40194348997705"><ele>1108.0</ele><time>2026-04-25T08:53:38.999Z</time></trkpt><trkpt lat="46.04781041948772" lon="12.40185151908916"><ele>1107.75</ele><time>2026-04-25T08:53:39.999Z</time></trkpt><trkpt lat="46.04790727115772" lon="12.401733067784024"><ele>1107.5</ele><time>2026-04-25T08:53:40.999Z</time></trkpt><trkpt lat="46.04799266823098" lon="12.401606628819122"><ele>1107.25</ele><time>2026-04-25T08:53:41.999Z</time></trkpt><trkpt lat="46.048054149288426" lon="12.40146846733366"><ele>1107.0</ele><time>2026-04-25T08:53:42.999Z</time></trkpt><trkpt lat="46.04811778108857" lon="12.401316094848362"><ele>1107.0</ele><time>2026-04-25T08:53:43.999Z</time></trkpt><trkpt lat="46.04811402978407" lon="12.40110521615096"><ele>1107.0</ele><time>2026-04-25T08:53:44.999Z</time></trkpt><trkpt lat="46.04812439558394" lon="12.400872631482075"><ele>1107.0</ele><time>2026-04-25T08:53:45.999Z</time></trkpt><trkpt lat="46.048113638959855" lon="12.400639355601836"><ele>1106.5</ele><time>2026-04-25T08:53:46.999Z</time></trkpt><trkpt lat="46.04810516341937" lon="12.400414933986077"><ele>1106.0</ele><time>2026-04-25T08:53:47.999Z</time></trkpt><trkpt lat="46.0481039714541" lon="12.400206678431372"><ele>1105.5</ele><time>2026-04-25T08:53:48.999Z</time></trkpt><trkpt lat="46.048108470740246" lon="12.40001396032064"><ele>1105.0</ele><time>2026-04-25T08:53:49.999Z</time></trkpt><trkpt lat="46.048112926906356" lon="12.399818786675638"><ele>1105.0</ele><time>2026-04-25T08:53:51Z</time></trkpt><trkpt lat="46.04814306978319" lon="12.399624788700262"><ele>1105.0</ele><time>2026-04-25T08:53:52Z</time></trkpt><trkpt lat="46.048171056524154" lon="12.39943323908954"><ele>1105.0</ele><time>2026-04-25T08:53:53Z</time></trkpt><trkpt lat="46.04819208473444" lon="12.399238623116734"><ele>1105.0</ele><time>2026-04-25T08:53:54Z</time></trkpt><trkpt lat="46.04820524846096" lon="12.399047470252038"><ele>1105.0</ele><time>2026-04-25T08:53:55Z</time></trkpt><trkpt lat="46.048218668214794" lon="12.39887114856116"><ele>1105.0</ele><time>2026-04-25T08:53:56Z</time></trkpt><trkpt lat="46.04823493649717" lon="12.39870653170794"><ele>1105.0</ele><time>2026-04-25T08:53:57Z</time></trkpt><trkpt lat="46.04826656862895" lon="12.398542208268264"><ele>1105.0</ele><time>2026-04-25T08:53:58Z</time></trkpt><trkpt lat="46.04827472394929" lon="12.398373487925577"><ele>1104.2</ele><time>2026-04-25T08:53:59Z</time></trkpt><trkpt lat="46.04827384690563" lon="12.398229001879889"><ele>1103.4</ele><time>2026-04-25T08:54:00Z</time></trkpt><trkpt lat="46.048282692432046" lon="12.39809792039538"><ele>1102.6</ele><time>2026-04-25T08:54:01Z</time></trkpt><trkpt lat="46.048301622593016" lon="12.397961306123506"><ele>1101.8</ele><time>2026-04-25T08:54:02Z</time></trkpt><trkpt lat="46.04833855592801" lon="12.397831934882705"><ele>1101.0</ele><time>2026-04-25T08:54:03Z</time></trkpt><trkpt lat="46.04842768470018" lon="12.397741120856102"><ele>1096.0</ele><time>2026-04-25T08:54:04Z</time></trkpt><trkpt lat="46.048534925615215" lon="12.397714262756184"><ele>1091.0</ele><time>2026-04-25T08:54:05Z</time></trkpt><trkpt lat="46.04864347656298" lon="12.397764822416761"><ele>1086.0</ele><time>2026-04-25T08:54:06Z</time></trkpt><trkpt lat="46.048746804843276" lon="12.397873424206159"><ele>1081.0</ele><time>2026-04-25T08:54:07Z</time></trkpt><trkpt lat="46.048858852502704" lon="12.39797885411732"><ele>1078.25</ele><time>2026-04-25T08:54:08Z</time></trkpt><trkpt lat="46.0489730297099" lon="12.398074494506602"><ele>1075.5</ele><time>2026-04-25T08:54:09Z</time></trkpt><trkpt lat="46.04908573321527" lon="12.398161293010402"><ele>1072.75</ele><time>2026-04-25T08:54:10Z</time></trkpt><trkpt lat="46.0491925715411" lon="12.398258286417123"><ele>1070.0</ele><time>2026-04-25T08:54:11Z</time></trkpt><trkpt lat="46.04929909636505" lon="12.398356886414316"><ele>1070.0</ele><time>2026-04-25T08:54:12Z</time></trkpt><trkpt lat="46.049418115632" lon="12.398458597062879"><ele>1070.0</ele><time>2026-04-25T08:54:13Z</time></trkpt><trkpt lat="46.04954021072664" lon="12.398565911863605"><ele>1070.0</ele><time>2026-04-25T08:54:14Z</time></trkpt><trkpt lat="46.049667459012134" lon="12.398681247853563"><ele>1070.0</ele><time>2026-04-25T08:54:15Z</time></trkpt><trkpt lat="46.04979541534181" lon="12.398812161408388"><ele>1068.0</ele><time>2026-04-25T08:54:16Z</time></trkpt><trkpt lat="46.04991931613231" lon="12.398952385304595"><ele>1066.0</ele><time>2026-04-25T08:54:16.999Z</time></trkpt><trkpt lat="46.050035120097625" lon="12.399094725180612"><ele>1064.0</ele><time>2026-04-25T08:54:17.999Z</time></trkpt><trkpt lat="46.05015050421007" lon="12.399227232103518"><ele>1064.0</ele><time>2026-04-25T08:54:18.999Z</time></trkpt><trkpt lat="46.05027010887005" lon="12.399342074809661"><ele>1064.0</ele><time>2026-04-25T08:54:19.999Z</time></trkpt><trkpt lat="46.05040042533157" lon="12.399444399622347"><ele>1064.0</ele><time>2026-04-25T08:54:20.999Z</time></trkpt><trkpt lat="46.05053670252139" lon="12.399534955893545"><ele>1064.0</ele><time>2026-04-25T08:54:21.999Z</time></trkpt><trkpt lat="46.05067728516647" lon="12.399620348614194"><ele>1060.0</ele><time>2026-04-25T08:54:22.999Z</time></trkpt><trkpt lat="46.05081998824306" lon="12.399705445995536"><ele>1056.0</ele><time>2026-04-25T08:54:23.999Z</time></trkpt><trkpt lat="46.05096813499487" lon="12.399795075298746"><ele>1052.0</ele><time>2026-04-25T08:54:24.999Z</time></trkpt><trkpt lat="46.051116671363815" lon="12.399904261663275"><ele>1052.0</ele><time>2026-04-25T08:54:25.999Z</time></trkpt><trkpt lat="46.051256390727744" lon="12.400034658804014"><ele>1052.0</ele><time>2026-04-25T08:54:26.999Z</time></trkpt><trkpt lat="46.05138722274795" lon="12.400173235047323"><ele>1052.0</ele><time>2026-04-25T08:54:27.999Z</time></trkpt><trkpt lat="46.05150927787146" lon="12.40031184506646"><ele>1049.0</ele><time>2026-04-25T08:54:28.999Z</time></trkpt><trkpt lat="46.05163110584849" lon="12.400431434589155"><ele>1046.0</ele><time>2026-04-25T08:54:29.999Z</time></trkpt><trkpt lat="46.051756631800394" lon="12.400539048617516"><ele>1043.0</ele><time>2026-04-25T08:54:30.999Z</time></trkpt><trkpt lat="46.051890597364405" lon="12.40061834902261"><ele>1040.0</ele><time>2026-04-25T08:54:31.999Z</time></trkpt><trkpt lat="46.052040815077724" lon="12.400677192477875"><ele>1040.0</ele><time>2026-04-25T08:54:32.999Z</time></trkpt><trkpt lat="46.05219782974513" lon="12.400727484192835"><ele>1040.0</ele><time>2026-04-25T08:54:33.999Z</time></trkpt><trkpt lat="46.052353830442414" lon="12.400766191836704"><ele>1040.0</ele><time>2026-04-25T08:54:34.999Z</time></trkpt><trkpt lat="46.05251710763143" lon="12.400792930521769"><ele>1044.6666666666667</ele><time>2026-04-25T08:54:35.999Z</time></trkpt><trkpt lat="46.05268225755219" lon="12.400807643253758"><ele>1049.3333333333333</ele><time>2026-04-25T08:54:36.999Z</time></trkpt><trkpt lat="46.052849387052525" lon="12.400810819391522"><ele>1054.0</ele><time>2026-04-25T08:54:37.999Z</time></trkpt><trkpt lat="46.053015658389285" lon="12.400801382831869"><ele>1054.0</ele><time>2026-04-25T08:54:38.999Z</time></trkpt><trkpt lat="46.05317979256085" lon="12.400797142952042"><ele>1054.0</ele><time>2026-04-25T08:54:39.999Z</time></trkpt><trkpt lat="46.05335107430145" lon="12.40080899845753"><ele>1054.0</ele><time>2026-04-25T08:54:40.999Z</time></trkpt><trkpt lat="46.053527068605824" lon="12.400827044003615"><ele>1054.0</ele><time>2026-04-25T08:54:41.999Z</time></trkpt><trkpt lat="46.05370488325118" lon="12.400846317460857"><ele>1054.0</ele><time>2026-04-25T08:54:42.999Z</time></trkpt><trkpt lat="46.0538860148317" lon="12.40086246802958"><ele>1054.0</ele><time>2026-04-25T08:54:43.999Z</time></trkpt><trkpt lat="46.05406103670229" lon="12.400880790432316"><ele>1053.0</ele><time>2026-04-25T08:54:44.999Z</time></trkpt><trkpt lat="46.05424156575457" lon="12.400889779764363"><ele>1052.0</ele><time>2026-04-25T08:54:45.999Z</time></trkpt><trkpt lat="46.05441428633709" lon="12.40089596765351"><ele>1051.0</ele><time>2026-04-25T08:54:46.999Z</time></trkpt><trkpt lat="46.05458244634587" lon="12.400901599673015"><ele>1051.0</ele><time>2026-04-25T08:54:47.999Z</time></trkpt><trkpt lat="46.05474285425165" lon="12.400901591206495"><ele>1051.0</ele><time>2026-04-25T08:54:48.999Z</time></trkpt><trkpt lat="46.05490086212603" lon="12.40088468523141"><ele>1051.0</ele><time>2026-04-25T08:54:49.999Z</time></trkpt><trkpt lat="46.05505449665471" lon="12.400856718468967"><ele>1048.0</ele><time>2026-04-25T08:54:50.999Z</time></trkpt><trkpt lat="46.05520449777873" lon="12.400821913234074"><ele>1045.0</ele><time>2026-04-25T08:54:51.999Z</time></trkpt><trkpt lat="46.0553527958094" lon="12.400778772658631"><ele>1042.0</ele><time>2026-04-25T08:54:52.999Z</time></trkpt><trkpt lat="46.05550350305154" lon="12.40072684624629"><ele>1042.0</ele><time>2026-04-25T08:54:53.999Z</time></trkpt><trkpt lat="46.05565631757489" lon="12.400672346470033"><ele>1042.0</ele><time>2026-04-25T08:54:54.999Z</time></trkpt><trkpt lat="46.05581127330858" lon="12.400616804984894"><ele>1042.0</ele><time>2026-04-25T08:54:55.999Z</time></trkpt><trkpt lat="46.0559699349733" lon="12.400562308843826"><ele>1039.0</ele><time>2026-04-25T08:54:56.999Z</time></trkpt><trkpt lat="46.05613566909832" lon="12.400541412984193"><ele>1036.0</ele><time>2026-04-25T08:54:57.999Z</time></trkpt><trkpt lat="46.05630358576479" lon="12.400506477404587"><ele>1033.0</ele><time>2026-04-25T08:54:58.999Z</time></trkpt><trkpt lat="46.056466488805825" lon="12.400443364629036"><ele>1037.6666666666665</ele><time>2026-04-25T08:54:59.999Z</time></trkpt><trkpt lat="46.056630460581786" lon="12.400414523623619"><ele>1042.3333333333333</ele><time>2026-04-25T08:55:00.999Z</time></trkpt><trkpt lat="46.056780145318776" lon="12.400389682041846"><ele>1047.0</ele><time>2026-04-25T08:55:01.999Z</time></trkpt><trkpt lat="46.056920691956215" lon="12.400396274847221"><ele>1047.0</ele><time>2026-04-25T08:55:02.999Z</time></trkpt><trkpt lat="46.05705980880021" lon="12.400359303094394"><ele>1047.0</ele><time>2026-04-25T08:55:03.999Z</time></trkpt><trkpt lat="46.05720003891145" lon="12.40035801165192"><ele>1047.0</ele><time>2026-04-25T08:55:04.999Z</time></trkpt><trkpt lat="46.05733718470949" lon="12.400345029577673"><ele>1047.0</ele><time>2026-04-25T08:55:05.999Z</time></trkpt><trkpt lat="46.057456720278715" lon="12.40033178312957"><ele>1044.0</ele><time>2026-04-25T08:55:06.999Z</time></trkpt><trkpt lat="46.057576860481355" lon="12.400326376180328"><ele>1041.0</ele><time>2026-04-25T08:55:07.999Z</time></trkpt><trkpt lat="46.05770038443645" lon="12.400329100711355"><ele>1038.0</ele><time>2026-04-25T08:55:08.999Z</time></trkpt><trkpt lat="46.05781716232092" lon="12.400341165131264"><ele>1035.0</ele><time>2026-04-25T08:55:09.999Z</time></trkpt><trkpt lat="46.057942739599966" lon="12.400366955748982"><ele>1035.0</ele><time>2026-04-25T08:55:10.999Z</time></trkpt><trkpt lat="46.05807137439951" lon="12.400408460275221"><ele>1035.0</ele><time>2026-04-25T08:55:11.999Z</time></trkpt><trkpt lat="46.0581997666711" lon="12.400477389823783"><ele>1035.0</ele><time>2026-04-25T08:55:12.999Z</time></trkpt><trkpt lat="46.05833439903043" lon="12.40056687421332"><ele>1035.0</ele><time>2026-04-25T08:55:13.999Z</time></trkpt><trkpt lat="46.05845423928853" lon="12.400645675205855"><ele>1030.25</ele><time>2026-04-25T08:55:14.999Z</time></trkpt><trkpt lat="46.05857013320233" lon="12.400711501793676"><ele>1025.5</ele><time>2026-04-25T08:55:15.999Z</time></trkpt><trkpt lat="46.058690435408515" lon="12.400788340128841"><ele>1020.75</ele><time>2026-04-25T08:55:16.999Z</time></trkpt><trkpt lat="46.05881469692342" lon="12.400866086047484"><ele>1016.0</ele><time>2026-04-25T08:55:17.999Z</time></trkpt><trkpt lat="46.05892647354083" lon="12.4009347889596"><ele>1016.0</ele><time>2026-04-25T08:55:18.999Z</time></trkpt><trkpt lat="46.05903199823554" lon="12.401003692070672"><ele>1016.0</ele><time>2026-04-25T08:55:19.999Z</time></trkpt><trkpt lat="46.05913626596941" lon="12.40107056958597"><ele>1016.0</ele><time>2026-04-25T08:55:20.999Z</time></trkpt><trkpt lat="46.059237404705875" lon="12.401135087779092"><ele>1016.0</ele><time>2026-04-25T08:55:21.999Z</time></trkpt><trkpt lat="46.05933893908101" lon="12.401202358350075"><ele>1016.25</ele><time>2026-04-25T08:55:22.999Z</time></trkpt><trkpt lat="46.059444020896166" lon="12.401270740916782"><ele>1016.5</ele><time>2026-04-25T08:55:23.999Z</time></trkpt><trkpt lat="46.0595551223872" lon="12.401339152576888"><ele>1016.75</ele><time>2026-04-25T08:55:24.999Z</time></trkpt><trkpt lat="46.05967068765794" lon="12.401409668166792"><ele>1017.0</ele><time>2026-04-25T08:55:25.999Z</time></trkpt><trkpt lat="46.05978885002276" lon="12.401478640240615"><ele>1016.5</ele><time>2026-04-25T08:55:26.999Z</time></trkpt><trkpt lat="46.05990666453517" lon="12.401550153790732"><ele>1016.0</ele><time>2026-04-25T08:55:27.999Z</time></trkpt><trkpt lat="46.060025296982865" lon="12.401622815842712"><ele>1015.5</ele><time>2026-04-25T08:55:28.999Z</time></trkpt><trkpt lat="46.06014476124529" lon="12.401694858820127"><ele>1015.0</ele><time>2026-04-25T08:55:29.999Z</time></trkpt><trkpt lat="46.06026367346898" lon="12.401768955929057"><ele>1015.0</ele><time>2026-04-25T08:55:30.999Z</time></trkpt><trkpt lat="46.06037983972598" lon="12.401839471694032"><ele>1015.0</ele><time>2026-04-25T08:55:31.999Z</time></trkpt><trkpt lat="46.060492060525206" lon="12.401910567897414"><ele>1015.0</ele><time>2026-04-25T08:55:32.999Z</time></trkpt><trkpt lat="46.060602054756046" lon="12.4019782226514"><ele>1015.0</ele><time>2026-04-25T08:55:33.999Z</time></trkpt><trkpt lat="46.060707869170606" lon="12.402040979497077"><ele>1015.4</ele><time>2026-04-25T08:55:34.999Z</time></trkpt><trkpt lat="46.06080820217193" lon="12.402100232034575"><ele>1015.8</ele><time>2026-04-25T08:55:35.999Z</time></trkpt><trkpt lat="46.06090311722975" lon="12.402156102748867"><ele>1016.2</ele><time>2026-04-25T08:55:36.999Z</time></trkpt><trkpt lat="46.06098447927026" lon="12.402206577251334"><ele>1016.6</ele><time>2026-04-25T08:55:37.999Z</time></trkpt><trkpt lat="46.06105516545284" lon="12.402251218743592"><ele>1017.0</ele><time>2026-04-25T08:55:38.999Z</time></trkpt><trkpt lat="46.06116139801576" lon="12.402315838061853"><ele>1017.0</ele><time>2026-04-25T08:55:40.999Z</time></trkpt><trkpt lat="46.06123872873207" lon="12.402382880118587"><ele>1017.0</ele><time>2026-04-25T08:55:42.999Z</time></trkpt><trkpt lat="46.061208605339424" lon="12.402561663975273"><ele>1017.0</ele><time>2026-04-25T08:55:45.999Z</time></trkpt><trkpt lat="46.061161019200995" lon="12.402678117525669"><ele>1017.0</ele><time>2026-04-25T08:55:47.999Z</time></trkpt><trkpt lat="46.061128863079354" lon="12.402764412759208"><ele>1017.0</ele><time>2026-04-25T08:55:49.999Z</time></trkpt><trkpt lat="46.0611061425872" lon="12.40285030274857"><ele>1017.0</ele><time>2026-04-25T08:55:52.999Z</time></trkpt><trkpt lat="46.06110289569219" lon="12.402956502952847"><ele>1017.0</ele><time>2026-04-25T08:55:57Z</time></trkpt><trkpt lat="46.06110838767541" lon="12.403108449377324"><ele>1018.0</ele><time>2026-04-25T08:56:00Z</time></trkpt><trkpt lat="46.06110314639169" lon="12.403258560920731"><ele>1018.0</ele><time>2026-04-25T08:56:02Z</time></trkpt><trkpt lat="46.06109937974268" lon="12.403370990160022"><ele>1018.0</ele><time>2026-04-25T08:56:05Z</time></trkpt></trkseg><trkseg><trkpt lat="46.06113309282872" lon="12.403344101957236"><ele>1017.9999999999999</ele><time>2026-04-25T09:34:16Z</time></trkpt><trkpt lat="46.06113089115268" lon="12.403222070498172"><ele>1018.0</ele><time>2026-04-25T09:34:37Z</time></trkpt><trkpt lat="46.0611373116965" lon="12.40310006223229"><ele>1018.0</ele><time>2026-04-25T09:34:39Z</time></trkpt><trkpt lat="46.06113971250325" lon="12.402991606655084"><ele>1018.0</ele><time>2026-04-25T09:34:41Z</time></trkpt><trkpt lat="46.061144389640965" lon="12.402841460018168"><ele>1017.9999999999999</ele><time>2026-04-25T09:34:43Z</time></trkpt><trkpt lat="46.06116942738103" lon="12.40271629439805"><ele>1018.0</ele><time>2026-04-25T09:34:45Z</time></trkpt><trkpt lat="46.061208277501805" lon="12.402628226619209"><ele>1017.8571428571427</ele><time>2026-04-25T09:34:47Z</time></trkpt><trkpt lat="46.06127026672695" lon="12.402604692512549"><ele>1017.7142857142857</ele><time>2026-04-25T09:34:51Z</time></trkpt><trkpt lat="46.061295627752024" lon="12.402507164820852"><ele>1017.5714285714284</ele><time>2026-04-25T09:35:59Z</time></trkpt><trkpt lat="46.06133115541225" lon="12.40243085851311"><ele>1017.4285714285713</ele><time>2026-04-25T09:36:01Z</time></trkpt><trkpt lat="46.06141287481057" lon="12.402418432165403"><ele>1017.2857142857142</ele><time>2026-04-25T09:36:03Z</time></trkpt><trkpt lat="46.061468278862115" lon="12.40246191727326"><ele>1017.1428571428571</ele><time>2026-04-25T09:36:04Z</time></trkpt><trkpt lat="46.06152911089002" lon="12.402506729815013"><ele>1017.0</ele><time>2026-04-25T09:36:05Z</time></trkpt><trkpt lat="46.06159552038472" lon="12.402551904833159"><ele>1017.0</ele><time>2026-04-25T09:36:06Z</time></trkpt><trkpt lat="46.06167246810537" lon="12.402595613271842"><ele>1017.0</ele><time>2026-04-25T09:36:07Z</time></trkpt><trkpt lat="46.06176161815132" lon="12.402648700884239"><ele>1017.0</ele><time>2026-04-25T09:36:08Z</time></trkpt><trkpt lat="46.06187096561522" lon="12.402719103416599"><ele>1017.0</ele><time>2026-04-25T09:36:09Z</time></trkpt><trkpt lat="46.06198362079913" lon="12.402790233955024"><ele>1017.0</ele><time>2026-04-25T09:36:10Z</time></trkpt><trkpt lat="46.06210012758522" lon="12.402856810304288"><ele>1017.0</ele><time>2026-04-25T09:36:11Z</time></trkpt><trkpt lat="46.062215700260126" lon="12.402925729741282"><ele>1017.0</ele><time>2026-04-25T09:36:12Z</time></trkpt><trkpt lat="46.06232951636592" lon="12.402992845200279"><ele>1017.0</ele><time>2026-04-25T09:36:13Z</time></trkpt><trkpt lat="46.062443168729295" lon="12.403059449433302"><ele>1017.0</ele><time>2026-04-25T09:36:14Z</time></trkpt><trkpt lat="46.06255532259533" lon="12.403127781480311"><ele>1016.4000000000001</ele><time>2026-04-25T09:36:15Z</time></trkpt><trkpt lat="46.06266101132947" lon="12.403192579020017"><ele>1015.8000000000001</ele><time>2026-04-25T09:36:16Z</time></trkpt><trkpt lat="46.06276255683864" lon="12.403254749307456"><ele>1015.2</ele><time>2026-04-25T09:36:17Z</time></trkpt><trkpt lat="46.06286330535181" lon="12.403314844455393"><ele>1014.6</ele><time>2026-04-25T09:36:18Z</time></trkpt><trkpt lat="46.06296748144891" lon="12.40337705908985"><ele>1014.0</ele><time>2026-04-25T09:36:19Z</time></trkpt><trkpt lat="46.06307125836756" lon="12.403440986869622"><ele>1014.0</ele><time>2026-04-25T09:36:20Z</time></trkpt><trkpt lat="46.063177060400186" lon="12.403504539817956"><ele>1014.0</ele><time>2026-04-25T09:36:21Z</time></trkpt><trkpt lat="46.063280908908055" lon="12.403563807507798"><ele>1014.0</ele><time>2026-04-25T09:36:22Z</time></trkpt><trkpt lat="46.06338816771158" lon="12.403626205322249"><ele>1014.0</ele><time>2026-04-25T09:36:23Z</time></trkpt><trkpt lat="46.06348950944936" lon="12.403687067690402"><ele>1014.0</ele><time>2026-04-25T09:36:24Z</time></trkpt><trkpt lat="46.063585182995055" lon="12.403746329334338"><ele>1014.0000000000001</ele><time>2026-04-25T09:36:25Z</time></trkpt><trkpt lat="46.06367064355799" lon="12.40379555513749"><ele>1014.0000000000001</ele><time>2026-04-25T09:36:26Z</time></trkpt><trkpt lat="46.06375649407229" lon="12.403849366195443"><ele>1014.0</ele><time>2026-04-25T09:36:27Z</time></trkpt><trkpt lat="46.06383518271436" lon="12.403895151503974"><ele>1014.0</ele><time>2026-04-25T09:36:28Z</time></trkpt><trkpt lat="46.06391599798653" lon="12.403947861442752"><ele>1014.0</ele><time>2026-04-25T09:36:29Z</time></trkpt><trkpt lat="46.06400075554397" lon="12.403998674520444"><ele>1014.0</ele><time>2026-04-25T09:36:30Z</time></trkpt><trkpt lat="46.06408581165527" lon="12.404046423305788"><ele>1014.0</ele><time>2026-04-25T09:36:31Z</time></trkpt><trkpt lat="46.06416315754855" lon="12.404093314923697"><ele>1014.0</ele><time>2026-04-25T09:36:32Z</time></trkpt><trkpt lat="46.064240311162905" lon="12.404139377004899"><ele>1014.0</ele><time>2026-04-25T09:36:33Z</time></trkpt><trkpt lat="46.06431580391321" lon="12.404183097714903"><ele>1014.0</ele><time>2026-04-25T09:36:34Z</time></trkpt><trkpt lat="46.06439512624587" lon="12.40422885479901"><ele>1014.0</ele><time>2026-04-25T09:36:35Z</time></trkpt><trkpt lat="46.06447707498304" lon="12.4042748504586"><ele>1014.0000000000001</ele><time>2026-04-25T09:36:36Z</time></trkpt><trkpt lat="46.06456189793116" lon="12.404322943385568"><ele>1014.0000000000001</ele><time>2026-04-25T09:36:37Z</time></trkpt><trkpt lat="46.06464560882891" lon="12.404395083730051"><ele>1014.0</ele><time>2026-04-25T09:36:38Z</time></trkpt><trkpt lat="46.06474184591901" lon="12.404452443600833"><ele>1014.0</ele><time>2026-04-25T09:36:39Z</time></trkpt><trkpt lat="46.064850668937936" lon="12.40449398632967"><ele>1013.75</ele><time>2026-04-25T09:36:40Z</time></trkpt><trkpt lat="46.06496952802577" lon="12.404568206751062"><ele>1013.5</ele><time>2026-04-25T09:36:41Z</time></trkpt><trkpt lat="46.06510450262395" lon="12.40464852467214"><ele>1013.25</ele><time>2026-04-25T09:36:42Z</time></trkpt><trkpt lat="46.06525192985713" lon="12.404732269195753"><ele>1013.0</ele><time>2026-04-25T09:36:43Z</time></trkpt><trkpt lat="46.06540816219543" lon="12.40482346984193"><ele>1013.0</ele><time>2026-04-25T09:36:44Z</time></trkpt><trkpt lat="46.06556291040328" lon="12.404918566934063"><ele>1013.0</ele><time>2026-04-25T09:36:45Z</time></trkpt><trkpt lat="46.06572230750722" lon="12.405015829010834"><ele>1013.0</ele><time>2026-04-25T09:36:46Z</time></trkpt><trkpt lat="46.06588483179776" lon="12.40510830773434"><ele>1013.0</ele><time>2026-04-25T09:36:47Z</time></trkpt><trkpt lat="46.066049747273944" lon="12.405239522768003"><ele>1013.0</ele><time>2026-04-25T09:36:48Z</time></trkpt><trkpt lat="46.06622416505242" lon="12.405344509681116"><ele>1013.0</ele><time>2026-04-25T09:36:49Z</time></trkpt><trkpt lat="46.06640086709318" lon="12.405450871578571"><ele>1012.6666666666667</ele><time>2026-04-25T09:36:50Z</time></trkpt><trkpt lat="46.06658027479254" lon="12.405557932438485"><ele>1012.3333333333333</ele><time>2026-04-25T09:36:51Z</time></trkpt><trkpt lat="46.06675903950625" lon="12.405664142553778"><ele>1012.0</ele><time>2026-04-25T09:36:52Z</time></trkpt><trkpt lat="46.06693549736982" lon="12.405769115862986"><ele>1012.0</ele><time>2026-04-25T09:36:53Z</time></trkpt><trkpt lat="46.0671129049152" lon="12.40587468873278"><ele>1012.0</ele><time>2026-04-25T09:36:54Z</time></trkpt><trkpt lat="46.06730161501139" lon="12.405962812388326"><ele>1012.0</ele><time>2026-04-25T09:36:55Z</time></trkpt><trkpt lat="46.06748688693261" lon="12.40607872269558"><ele>1011.0</ele><time>2026-04-25T09:36:56Z</time></trkpt><trkpt lat="46.06767563785973" lon="12.406193166303153"><ele>1010.0</ele><time>2026-04-25T09:36:57Z</time></trkpt><trkpt lat="46.067867923960904" lon="12.406309304607145"><ele>1009.0</ele><time>2026-04-25T09:36:58Z</time></trkpt><trkpt lat="46.06806228592729" lon="12.406428260881217"><ele>1008.3333333333333</ele><time>2026-04-25T09:36:59Z</time></trkpt><trkpt lat="46.06826071808693" lon="12.406547168184758"><ele>1007.6666666666667</ele><time>2026-04-25T09:37:00Z</time></trkpt><trkpt lat="46.06845981435982" lon="12.406667281793998"><ele>1007.0</ele><time>2026-04-25T09:37:01Z</time></trkpt><trkpt lat="46.06865010501089" lon="12.406782578566371"><ele>1007.0</ele><time>2026-04-25T09:37:02Z</time></trkpt><trkpt lat="46.06883440724417" lon="12.406893061575206"><ele>1007.0</ele><time>2026-04-25T09:37:03Z</time></trkpt><trkpt lat="46.06900372792791" lon="12.406994059213847"><ele>1007.0</ele><time>2026-04-25T09:37:04Z</time></trkpt><trkpt lat="46.069156194177516" lon="12.4070864170389"><ele>1007.0</ele><time>2026-04-25T09:37:05Z</time></trkpt><trkpt lat="46.069289398037036" lon="12.407168517552286"><ele>1007.0</ele><time>2026-04-25T09:37:06Z</time></trkpt><trkpt lat="46.06941569280032" lon="12.40724641266032"><ele>1007.0</ele><time>2026-04-25T09:37:07Z</time></trkpt><trkpt lat="46.06953979103213" lon="12.407320323505338"><ele>1007.0</ele><time>2026-04-25T09:37:08Z</time></trkpt><trkpt lat="46.06966770773135" lon="12.407395891406084"><ele>1007.0</ele><time>2026-04-25T09:37:09Z</time></trkpt><trkpt lat="46.06980500549949" lon="12.407476107216224"><ele>1007.0</ele><time>2026-04-25T09:37:10Z</time></trkpt><trkpt lat="46.06994631478514" lon="12.407561185325365"><ele>1007.0</ele><time>2026-04-25T09:37:11Z</time></trkpt><trkpt lat="46.07009314758888" lon="12.407651101164257"><ele>1006.0</ele><time>2026-04-25T09:37:12Z</time></trkpt><trkpt lat="46.07024603640867" lon="12.40774547582397"><ele>1005.0</ele><time>2026-04-25T09:37:13Z</time></trkpt><trkpt lat="46.070407895378075" lon="12.407842069573729"><ele>1004.0</ele><time>2026-04-25T09:37:14Z</time></trkpt><trkpt lat="46.070569842810585" lon="12.407937907653162"><ele>1004.3333333333334</ele><time>2026-04-25T09:37:15Z</time></trkpt><trkpt lat="46.07073044991627" lon="12.408031820370564"><ele>1004.6666666666667</ele><time>2026-04-25T09:37:16Z</time></trkpt><trkpt lat="46.07087713783224" lon="12.408117715369466"><ele>1005.0</ele><time>2026-04-25T09:37:17Z</time></trkpt><trkpt lat="46.07101387489175" lon="12.408200619852707"><ele>1005.25</ele><time>2026-04-25T09:37:18Z</time></trkpt><trkpt lat="46.07114578699769" lon="12.408280342306139"><ele>1005.5</ele><time>2026-04-25T09:37:19Z</time></trkpt><trkpt lat="46.07127386377961" lon="12.408360995695022"><ele>1005.75</ele><time>2026-04-25T09:37:20Z</time></trkpt><trkpt lat="46.071401940840474" lon="12.408440669577166"><ele>1006.0</ele><time>2026-04-25T09:37:21Z</time></trkpt><trkpt lat="46.07153068657283" lon="12.408513049311706"><ele>1006.0</ele><time>2026-04-25T09:37:22Z</time></trkpt><trkpt lat="46.07166595519827" lon="12.408592084187594"><ele>1006.0</ele><time>2026-04-25T09:37:23Z</time></trkpt><trkpt lat="46.071810208547056" lon="12.408679089269699"><ele>1006.0</ele><time>2026-04-25T09:37:24Z</time></trkpt><trkpt lat="46.071955761526944" lon="12.408769501581702"><ele>1005.6666666666666</ele><time>2026-04-25T09:37:25Z</time></trkpt><trkpt lat="46.072101037458026" lon="12.408856073634885"><ele>1005.3333333333333</ele><time>2026-04-25T09:37:26Z</time></trkpt><trkpt lat="46.07224606909733" lon="12.408942976107543"><ele>1005.0</ele><time>2026-04-25T09:37:27Z</time></trkpt><trkpt lat="46.072393669891184" lon="12.40903173396765"><ele>1005.0</ele><time>2026-04-25T09:37:28Z</time></trkpt><trkpt lat="46.072549768017154" lon="12.409126785356596"><ele>1005.0</ele><time>2026-04-25T09:37:29Z</time></trkpt><trkpt lat="46.07270623008987" lon="12.409219850533018"><ele>1005.0</ele><time>2026-04-25T09:37:30Z</time></trkpt><trkpt lat="46.072862280254135" lon="12.409310243568143"><ele>1005.0</ele><time>2026-04-25T09:37:31Z</time></trkpt><trkpt lat="46.07302323804226" lon="12.409405673718839"><ele>1005.0</ele><time>2026-04-25T09:37:32Z</time></trkpt><trkpt lat="46.07318768153026" lon="12.4095047179949"><ele>1005.0</ele><time>2026-04-25T09:37:33Z</time></trkpt><trkpt lat="46.073350917911355" lon="12.409605006397088"><ele>1004.3333333333333</ele><time>2026-04-25T09:37:34Z</time></trkpt><trkpt lat="46.07351357624525" lon="12.409703004106953"><ele>1003.6666666666666</ele><time>2026-04-25T09:37:35Z</time></trkpt><trkpt lat="46.0736778113444" lon="12.4098020539293"><ele>1003.0</ele><time>2026-04-25T09:37:36Z</time></trkpt><trkpt lat="46.073842880596395" lon="12.40990082116139"><ele>1003.0</ele><time>2026-04-25T09:37:37Z</time></trkpt><trkpt lat="46.07400902164135" lon="12.409998204441878"><ele>1003.0</ele><time>2026-04-25T09:37:38Z</time></trkpt><trkpt lat="46.07417685977597" lon="12.410097317391372"><ele>1003.0</ele><time>2026-04-25T09:37:39Z</time></trkpt><trkpt lat="46.07434445618655" lon="12.410198810005305"><ele>1003.0</ele><time>2026-04-25T09:37:40Z</time></trkpt><trkpt lat="46.07451338810653" lon="12.410299924608065"><ele>1003.0</ele><time>2026-04-25T09:37:41Z</time></trkpt><trkpt lat="46.07468498609884" lon="12.4104022932496"><ele>1003.0</ele><time>2026-04-25T09:37:42Z</time></trkpt><trkpt lat="46.07485796687894" lon="12.410506250799012"><ele>1004.0</ele><time>2026-04-25T09:37:43Z</time></trkpt><trkpt lat="46.07502776029451" lon="12.410609209977512"><ele>1005.0</ele><time>2026-04-25T09:37:44Z</time></trkpt><trkpt lat="46.07519286295968" lon="12.410718261100394"><ele>1006.0</ele><time>2026-04-25T09:37:45Z</time></trkpt><trkpt lat="46.07535347052066" lon="12.410835975082344"><ele>1006.0</ele><time>2026-04-25T09:37:46Z</time></trkpt><trkpt lat="46.07550632505586" lon="12.410968370692329"><ele>1006.0</ele><time>2026-04-25T09:37:47Z</time></trkpt><trkpt lat="46.07565100874492" lon="12.411113879218275"><ele>1006.0</ele><time>2026-04-25T09:37:48Z</time></trkpt><trkpt lat="46.07578922873808" lon="12.411268736068962"><ele>1006.3333333333333</ele><time>2026-04-25T09:37:49Z</time></trkpt><trkpt lat="46.07591947506777" lon="12.411431939030576"><ele>1006.6666666666667</ele><time>2026-04-25T09:37:50Z</time></trkpt><trkpt lat="46.07604609693983" lon="12.411600282715492"><ele>1007.0</ele><time>2026-04-25T09:37:51Z</time></trkpt><trkpt lat="46.07617189716286" lon="12.411775823221761"><ele>1007.0</ele><time>2026-04-25T09:37:52Z</time></trkpt><trkpt lat="46.07629817115825" lon="12.411952149969645"><ele>1007.0</ele><time>2026-04-25T09:37:53Z</time></trkpt><trkpt lat="46.07642237626921" lon="12.412124476848607"><ele>1007.0</ele><time>2026-04-25T09:37:54Z</time></trkpt><trkpt lat="46.07654770804761" lon="12.412298134723184"><ele>1009.0</ele><time>2026-04-25T09:37:55Z</time></trkpt><trkpt lat="46.07666797152497" lon="12.412464998702593"><ele>1011.0</ele><time>2026-04-25T09:37:56Z</time></trkpt><trkpt lat="46.07678368428046" lon="12.412624750577324"><ele>1013.0</ele><time>2026-04-25T09:37:57Z</time></trkpt><trkpt lat="46.076888755298434" lon="12.412784438525007"><ele>1013.0</ele><time>2026-04-25T09:37:58Z</time></trkpt><trkpt lat="46.07698852529811" lon="12.412951365299802"><ele>1013.0</ele><time>2026-04-25T09:37:59Z</time></trkpt><trkpt lat="46.07707928312204" lon="12.413108679168559"><ele>1013.0</ele><time>2026-04-25T09:38:00Z</time></trkpt><trkpt lat="46.077155550525134" lon="12.413244011023387"><ele>1013.0</ele><time>2026-04-25T09:38:01Z</time></trkpt><trkpt lat="46.07722207259877" lon="12.413375019062329"><ele>1012.2</ele><time>2026-04-25T09:38:02Z</time></trkpt><trkpt lat="46.077289968094256" lon="12.413502812640493"><ele>1011.4</ele><time>2026-04-25T09:38:03Z</time></trkpt><trkpt lat="46.07735608183052" lon="12.41362978206359"><ele>1010.6000000000001</ele><time>2026-04-25T09:38:04Z</time></trkpt><trkpt lat="46.0774231663465" lon="12.413753464211194"><ele>1009.8000000000001</ele><time>2026-04-25T09:38:05Z</time></trkpt><trkpt lat="46.07750188162099" lon="12.41387905044231"><ele>1009.0</ele><time>2026-04-25T09:38:06Z</time></trkpt><trkpt lat="46.07759197561659" lon="12.413997824114423"><ele>1012.25</ele><time>2026-04-25T09:38:07Z</time></trkpt><trkpt lat="46.07769439222087" lon="12.41409176231432"><ele>1015.5</ele><time>2026-04-25T09:38:08Z</time></trkpt><trkpt lat="46.077813175263216" lon="12.414155410794079"><ele>1018.75</ele><time>2026-04-25T09:38:09Z</time></trkpt><trkpt lat="46.07794553359765" lon="12.414193660399413"><ele>1022.0</ele><time>2026-04-25T09:38:10Z</time></trkpt><trkpt lat="46.07808819152407" lon="12.414222068158848"><ele>1022.0</ele><time>2026-04-25T09:38:11Z</time></trkpt><trkpt lat="46.07824005342455" lon="12.414231686321353"><ele>1022.0</ele><time>2026-04-25T09:38:12Z</time></trkpt><trkpt lat="46.078406532146566" lon="12.414235417419803"><ele>1022.0</ele><time>2026-04-25T09:38:13Z</time></trkpt><trkpt lat="46.07858092530351" lon="12.414241300385829"><ele>1023.0</ele><time>2026-04-25T09:38:14Z</time></trkpt><trkpt lat="46.078758474180056" lon="12.414248674896852"><ele>1024.0</ele><time>2026-04-25T09:38:15Z</time></trkpt><trkpt lat="46.07893728368299" lon="12.41425476357752"><ele>1025.0</ele><time>2026-04-25T09:38:16Z</time></trkpt><trkpt lat="46.079115709700154" lon="12.414275830272095"><ele>1025.3333333333335</ele><time>2026-04-25T09:38:17Z</time></trkpt><trkpt lat="46.07929442611106" lon="12.414323093491893"><ele>1025.6666666666667</ele><time>2026-04-25T09:38:18Z</time></trkpt><trkpt lat="46.07946944157478" lon="12.41440240992819"><ele>1026.0</ele><time>2026-04-25T09:38:19Z</time></trkpt><trkpt lat="46.07963624335216" lon="12.414520820442137"><ele>1022.0</ele><time>2026-04-25T09:38:20Z</time></trkpt><trkpt lat="46.079797434888114" lon="12.41466995825163"><ele>1018.0</ele><time>2026-04-25T09:38:21Z</time></trkpt><trkpt lat="46.07994249572247" lon="12.41479951090599"><ele>1014.0</ele><time>2026-04-25T09:38:22Z</time></trkpt><trkpt lat="46.0800755135403" lon="12.414885906479148"><ele>1014.0</ele><time>2026-04-25T09:38:23Z</time></trkpt><trkpt lat="46.08020324545095" lon="12.414940164988472"><ele>1014.0</ele><time>2026-04-25T09:38:24Z</time></trkpt><trkpt lat="46.08033484220414" lon="12.414965352370233"><ele>1014.0</ele><time>2026-04-25T09:38:25Z</time></trkpt><trkpt lat="46.08047315792522" lon="12.41496996184102"><ele>1014.0</ele><time>2026-04-25T09:38:26Z</time></trkpt><trkpt lat="46.08062231199631" lon="12.414962474116656"><ele>1012.6666666666667</ele><time>2026-04-25T09:38:27Z</time></trkpt><trkpt lat="46.08077490872275" lon="12.414946705440862"><ele>1011.3333333333334</ele><time>2026-04-25T09:38:28Z</time></trkpt><trkpt lat="46.080939495535475" lon="12.414924144506683"><ele>1010.0</ele><time>2026-04-25T09:38:29Z</time></trkpt><trkpt lat="46.08111095302022" lon="12.414902735018657"><ele>1010.0</ele><time>2026-04-25T09:38:30Z</time></trkpt><trkpt lat="46.08128132577553" lon="12.414886334129104"><ele>1010.0</ele><time>2026-04-25T09:38:31Z</time></trkpt><trkpt lat="46.081463052131255" lon="12.41486917565229"><ele>1010.0</ele><time>2026-04-25T09:38:32Z</time></trkpt><trkpt lat="46.08164107008669" lon="12.414842668141066"><ele>1010.3333333333334</ele><time>2026-04-25T09:38:33Z</time></trkpt><trkpt lat="46.081797794903146" lon="12.414802942159353"><ele>1010.6666666666667</ele><time>2026-04-25T09:38:34Z</time></trkpt><trkpt lat="46.08195655604817" lon="12.414736465314515"><ele>1011.0</ele><time>2026-04-25T09:38:35Z</time></trkpt><trkpt lat="46.0821192821315" lon="12.414631994785386"><ele>1011.0</ele><time>2026-04-25T09:38:36Z</time></trkpt><trkpt lat="46.08228990997287" lon="12.414497990091649"><ele>1011.0</ele><time>2026-04-25T09:38:37Z</time></trkpt><trkpt lat="46.08245019705883" lon="12.414359315007385"><ele>1011.0</ele><time>2026-04-25T09:38:38Z</time></trkpt><trkpt lat="46.08260979480426" lon="12.414222829801426"><ele>1008.0</ele><time>2026-04-25T09:38:39Z</time></trkpt><trkpt lat="46.08276917598951" lon="12.41409136979929"><ele>1005.0</ele><time>2026-04-25T09:38:40Z</time></trkpt><trkpt lat="46.08293005793428" lon="12.413963173668543"><ele>1002.0</ele><time>2026-04-25T09:38:41Z</time></trkpt><trkpt lat="46.08308191406202" lon="12.413838916444972"><ele>1002.6666666666667</ele><time>2026-04-25T09:38:42Z</time></trkpt><trkpt lat="46.083229973085125" lon="12.413710183118585"><ele>1003.3333333333334</ele><time>2026-04-25T09:38:43Z</time></trkpt><trkpt lat="46.083381474959275" lon="12.413583123023102"><ele>1004.0</ele><time>2026-04-25T09:38:44Z</time></trkpt><trkpt lat="46.083532706066414" lon="12.41345797912211"><ele>1002.0</ele><time>2026-04-25T09:38:45Z</time></trkpt><trkpt lat="46.083682470378776" lon="12.413337118396797"><ele>1000.0</ele><time>2026-04-25T09:38:46Z</time></trkpt><trkpt lat="46.083821155459695" lon="12.413224126498354"><ele>998.0</ele><time>2026-04-25T09:38:47Z</time></trkpt><trkpt lat="46.08395318799553" lon="12.413117986003371"><ele>998.0</ele><time>2026-04-25T09:38:48Z</time></trkpt><trkpt lat="46.08407113730165" lon="12.413012151793158"><ele>998.0</ele><time>2026-04-25T09:38:49Z</time></trkpt><trkpt lat="46.0841830158268" lon="12.41288966294836"><ele>998.0</ele><time>2026-04-25T09:38:50Z</time></trkpt><trkpt lat="46.084286303563665" lon="12.412734429126608"><ele>998.0</ele><time>2026-04-25T09:38:51Z</time></trkpt><trkpt lat="46.084369858643655" lon="12.41255394480861"><ele>997.5</ele><time>2026-04-25T09:38:52Z</time></trkpt><trkpt lat="46.08443184544393" lon="12.41237259752622"><ele>997.0</ele><time>2026-04-25T09:38:53Z</time></trkpt><trkpt lat="46.08447156097253" lon="12.412192753261973"><ele>996.5</ele><time>2026-04-25T09:38:54Z</time></trkpt><trkpt lat="46.08449903665919" lon="12.412000615092142"><ele>996.0</ele><time>2026-04-25T09:38:55Z</time></trkpt><trkpt lat="46.08452374811119" lon="12.411804553095662"><ele>996.0</ele><time>2026-04-25T09:38:56Z</time></trkpt><trkpt lat="46.08455919753935" lon="12.411613286817373"><ele>996.0</ele><time>2026-04-25T09:38:57Z</time></trkpt><trkpt lat="46.084598391103576" lon="12.411442090205078"><ele>996.0</ele><time>2026-04-25T09:38:58Z</time></trkpt><trkpt lat="46.08466210224431" lon="12.411293721449635"><ele>996.0</ele><time>2026-04-25T09:38:59Z</time></trkpt><trkpt lat="46.08475475182225" lon="12.411175265881957"><ele>999.25</ele><time>2026-04-25T09:39:00Z</time></trkpt><trkpt lat="46.084869146764206" lon="12.411093928263682"><ele>1002.5</ele><time>2026-04-25T09:39:01Z</time></trkpt><trkpt lat="46.08500256307005" lon="12.411065678441325"><ele>1005.75</ele><time>2026-04-25T09:39:02Z</time></trkpt><trkpt lat="46.08513452549994" lon="12.411103563604039"><ele>1009.0</ele><time>2026-04-25T09:39:03Z</time></trkpt><trkpt lat="46.0852483276964" lon="12.411218664685858"><ele>1004.25</ele><time>2026-04-25T09:39:04Z</time></trkpt><trkpt lat="46.08534589341972" lon="12.411372232592225"><ele>999.5</ele><time>2026-04-25T09:39:05Z</time></trkpt><trkpt lat="46.08543562659131" lon="12.411512766320618"><ele>994.75</ele><time>2026-04-25T09:39:06Z</time></trkpt><trkpt lat="46.08553122656928" lon="12.411663305696356"><ele>990.0</ele><time>2026-04-25T09:39:07Z</time></trkpt><trkpt lat="46.08562720558229" lon="12.411829592926008"><ele>990.0</ele><time>2026-04-25T09:39:08Z</time></trkpt><trkpt lat="46.08573020186122" lon="12.411993542854137"><ele>990.0</ele><time>2026-04-25T09:39:09Z</time></trkpt><trkpt lat="46.08583138387446" lon="12.412134457250104"><ele>990.0</ele><time>2026-04-25T09:39:10Z</time></trkpt><trkpt lat="46.08592403255031" lon="12.412243782266065"><ele>990.0</ele><time>2026-04-25T09:39:11Z</time></trkpt><trkpt lat="46.086021716486414" lon="12.41233472191024"><ele>990.25</ele><time>2026-04-25T09:39:12Z</time></trkpt><trkpt lat="46.08613052038652" lon="12.412400905102562"><ele>990.5</ele><time>2026-04-25T09:39:13Z</time></trkpt><trkpt lat="46.08623966092436" lon="12.41246794886837"><ele>990.75</ele><time>2026-04-25T09:39:14Z</time></trkpt><trkpt lat="46.086361074912" lon="12.412497024288509"><ele>991.0</ele><time>2026-04-25T09:39:15Z</time></trkpt><trkpt lat="46.08649581045136" lon="12.412469649282647"><ele>993.3333333333333</ele><time>2026-04-25T09:39:16Z</time></trkpt><trkpt lat="46.086638787506324" lon="12.412451916493774"><ele>995.6666666666667</ele><time>2026-04-25T09:39:17Z</time></trkpt><trkpt lat="46.08679680664908" lon="12.412415812121067"><ele>998.0</ele><time>2026-04-25T09:39:18Z</time></trkpt><trkpt lat="46.086963863343584" lon="12.412350591981623"><ele>998.0</ele><time>2026-04-25T09:39:19Z</time></trkpt><trkpt lat="46.08715718087366" lon="12.412278030615326"><ele>998.0</ele><time>2026-04-25T09:39:20Z</time></trkpt><trkpt lat="46.08740811050655" lon="12.412194795689008"><ele>1011.0</ele><time>2026-04-25T09:39:21Z</time></trkpt><trkpt lat="46.08766698158273" lon="12.412107833887983"><ele>1024.0</ele><time>2026-04-25T09:39:22Z</time></trkpt><trkpt lat="46.08790611547405" lon="12.412034011157902"><ele>1024.0</ele><time>2026-04-25T09:39:23Z</time></trkpt><trkpt lat="46.088107766901146" lon="12.411974829486986"><ele>1024.0</ele><time>2026-04-25T09:39:24Z</time></trkpt><trkpt lat="46.088275733042025" lon="12.411916551379457"><ele>1024.0</ele><time>2026-04-25T09:39:25Z</time></trkpt><trkpt lat="46.08841863030004" lon="12.41185613538129"><ele>1023.5</ele><time>2026-04-25T09:39:26Z</time></trkpt><trkpt lat="46.08855025890393" lon="12.411775231751475"><ele>1023.0</ele><time>2026-04-25T09:39:27Z</time></trkpt><trkpt lat="46.08869475742665" lon="12.411727483115891"><ele>1022.5</ele><time>2026-04-25T09:39:28Z</time></trkpt><trkpt lat="46.08882366822326" lon="12.411664058492617"><ele>1022.0</ele><time>2026-04-25T09:39:29Z</time></trkpt><trkpt lat="46.088954603026714" lon="12.41159963804936"><ele>1022.0</ele><time>2026-04-25T09:39:30Z</time></trkpt><trkpt lat="46.08907547458191" lon="12.41147705436772"><ele>1022.0</ele><time>2026-04-25T09:39:31Z</time></trkpt><trkpt lat="46.08921597438884" lon="12.41148219035217"><ele>1022.0</ele><time>2026-04-25T09:39:32Z</time></trkpt><trkpt lat="46.08935971588061" lon="12.411529703248606"><ele>1022.0</ele><time>2026-04-25T09:39:33Z</time></trkpt><trkpt lat="46.08949225262233" lon="12.411604027571823"><ele>1019.25</ele><time>2026-04-25T09:39:34Z</time></trkpt><trkpt lat="46.08959828167096" lon="12.411674022007663"><ele>1016.5</ele><time>2026-04-25T09:39:35Z</time></trkpt><trkpt lat="46.08969781588386" lon="12.411737811983215"><ele>1013.75</ele><time>2026-04-25T09:39:36Z</time></trkpt><trkpt lat="46.08980974550427" lon="12.41178408123559"><ele>1011.0</ele><time>2026-04-25T09:39:37Z</time></trkpt><trkpt lat="46.08992664910777" lon="12.411807201680698"><ele>1009.25</ele><time>2026-04-25T09:39:38Z</time></trkpt><trkpt lat="46.09004729683484" lon="12.411803342435013"><ele>1007.5</ele><time>2026-04-25T09:39:39Z</time></trkpt><trkpt lat="46.090171870467564" lon="12.411778093935768"><ele>1005.75</ele><time>2026-04-25T09:39:40Z</time></trkpt><trkpt lat="46.090297126012764" lon="12.411740558622412"><ele>1004.0</ele><time>2026-04-25T09:39:41Z</time></trkpt><trkpt lat="46.09042031676947" lon="12.411707564989241"><ele>1004.0</ele><time>2026-04-25T09:39:42Z</time></trkpt><trkpt lat="46.09054177125601" lon="12.411678258131856"><ele>1004.0</ele><time>2026-04-25T09:39:43Z</time></trkpt><trkpt lat="46.090661692415125" lon="12.411649123119098"><ele>1004.0</ele><time>2026-04-25T09:39:44Z</time></trkpt><trkpt lat="46.09077535574104" lon="12.41161655476543"><ele>1004.0</ele><time>2026-04-25T09:39:45Z</time></trkpt><trkpt lat="46.090881466303685" lon="12.41158513915962"><ele>1004.6</ele><time>2026-04-25T09:39:46Z</time></trkpt><trkpt lat="46.090985056965344" lon="12.411560335125921"><ele>1005.2</ele><time>2026-04-25T09:39:47Z</time></trkpt><trkpt lat="46.091085502157114" lon="12.411538278991854"><ele>1005.8000000000001</ele><time>2026-04-25T09:39:48Z</time></trkpt><trkpt lat="46.09118677178826" lon="12.411512503693274"><ele>1006.4000000000001</ele><time>2026-04-25T09:39:49Z</time></trkpt><trkpt lat="46.0912876281767" lon="12.411485044531059"><ele>1007.0</ele><time>2026-04-25T09:39:50Z</time></trkpt><trkpt lat="46.09139238334543" lon="12.411458249727534"><ele>1007.0</ele><time>2026-04-25T09:39:51Z</time></trkpt><trkpt lat="46.09150416962354" lon="12.411431536027896"><ele>1007.0</ele><time>2026-04-25T09:39:52Z</time></trkpt><trkpt lat="46.09162138097716" lon="12.411401468014853"><ele>1007.0</ele><time>2026-04-25T09:39:53Z</time></trkpt><trkpt lat="46.09174309780862" lon="12.411368873362791"><ele>1007.0</ele><time>2026-04-25T09:39:54Z</time></trkpt><trkpt lat="46.09187013118074" lon="12.411335604616196"><ele>1013.0</ele><time>2026-04-25T09:39:55Z</time></trkpt><trkpt lat="46.09200163692728" lon="12.411304584933145"><ele>1019.0</ele><time>2026-04-25T09:39:56Z</time></trkpt><trkpt lat="46.09213223688911" lon="12.41126688342022"><ele>1025.0</ele><time>2026-04-25T09:39:57Z</time></trkpt><trkpt lat="46.092257118365204" lon="12.411217084694925"><ele>1031.0</ele><time>2026-04-25T09:39:58Z</time></trkpt><trkpt lat="46.092382798322156" lon="12.411132671809622"><ele>1029.3333333333335</ele><time>2026-04-25T09:39:59Z</time></trkpt><trkpt lat="46.092501392591494" lon="12.411004055751524"><ele>1027.6666666666667</ele><time>2026-04-25T09:40:00Z</time></trkpt><trkpt lat="46.09261660448996" lon="12.410830467565177"><ele>1026.0</ele><time>2026-04-25T09:40:01Z</time></trkpt><trkpt lat="46.09273507481766" lon="12.410633740760693"><ele>1031.3333333333333</ele><time>2026-04-25T09:40:02Z</time></trkpt><trkpt lat="46.092851552452565" lon="12.410433615447081"><ele>1036.6666666666665</ele><time>2026-04-25T09:40:03Z</time></trkpt><trkpt lat="46.09296695832518" lon="12.410242483570094"><ele>1042.0</ele><time>2026-04-25T09:40:04Z</time></trkpt><trkpt lat="46.093083807055926" lon="12.410062308895144"><ele>1042.0</ele><time>2026-04-25T09:40:05Z</time></trkpt><trkpt lat="46.09319756309634" lon="12.409884432867804"><ele>1042.0</ele><time>2026-04-25T09:40:06Z</time></trkpt><trkpt lat="46.09330826238401" lon="12.40973104313282"><ele>1042.0</ele><time>2026-04-25T09:40:07Z</time></trkpt><trkpt lat="46.09342243510769" lon="12.409612732552764"><ele>1041.75</ele><time>2026-04-25T09:40:08Z</time></trkpt><trkpt lat="46.09354185481895" lon="12.409522401951511"><ele>1041.5</ele><time>2026-04-25T09:40:09Z</time></trkpt><trkpt lat="46.09366714422895" lon="12.409451001834329"><ele>1041.25</ele><time>2026-04-25T09:40:10Z</time></trkpt><trkpt lat="46.09379616719066" lon="12.409400777888687"><ele>1041.0</ele><time>2026-04-25T09:40:11Z</time></trkpt><trkpt lat="46.09392024980187" lon="12.40937402006406"><ele>1041.0</ele><time>2026-04-25T09:40:12Z</time></trkpt><trkpt lat="46.09403605367364" lon="12.40934835634703"><ele>1041.0</ele><time>2026-04-25T09:40:13Z</time></trkpt><trkpt lat="46.09415160779834" lon="12.409318609694907"><ele>1041.0</ele><time>2026-04-25T09:40:14Z</time></trkpt><trkpt lat="46.0942742830548" lon="12.409282812376462"><ele>1041.0</ele><time>2026-04-25T09:40:15Z</time></trkpt><trkpt lat="46.094395198316185" lon="12.40922933501311"><ele>1040.25</ele><time>2026-04-25T09:40:16Z</time></trkpt><trkpt lat="46.09451692386097" lon="12.40916225044075"><ele>1039.5</ele><time>2026-04-25T09:40:17Z</time></trkpt><trkpt lat="46.094640426067556" lon="12.409079820376773"><ele>1038.75</ele><time>2026-04-25T09:40:18Z</time></trkpt><trkpt lat="46.094764089103194" lon="12.408996030829988"><ele>1038.0</ele><time>2026-04-25T09:40:19Z</time></trkpt><trkpt lat="46.094883945804135" lon="12.408920496202043"><ele>1039.0</ele><time>2026-04-25T09:40:20Z</time></trkpt><trkpt lat="46.095003458991314" lon="12.408844391553354"><ele>1040.0</ele><time>2026-04-25T09:40:21Z</time></trkpt><trkpt lat="46.09512073368155" lon="12.408765039101795"><ele>1041.0</ele><time>2026-04-25T09:40:22Z</time></trkpt><trkpt lat="46.095237323162195" lon="12.408696440006851"><ele>1042.0</ele><time>2026-04-25T09:40:23Z</time></trkpt><trkpt lat="46.095355034192565" lon="12.408636956418034"><ele>1043.25</ele><time>2026-04-25T09:40:24Z</time></trkpt><trkpt lat="46.0954689155939" lon="12.408583045802269"><ele>1044.5</ele><time>2026-04-25T09:40:25Z</time></trkpt><trkpt lat="46.09558421670025" lon="12.408527844828818"><ele>1045.75</ele><time>2026-04-25T09:40:26Z</time></trkpt><trkpt lat="46.09570142257987" lon="12.408475918524479"><ele>1047.0</ele><time>2026-04-25T09:40:27Z</time></trkpt><trkpt lat="46.09581171190727" lon="12.408424726193537"><ele>1047.0</ele><time>2026-04-25T09:40:28Z</time></trkpt><trkpt lat="46.095918339989936" lon="12.40837674996981"><ele>1047.0</ele><time>2026-04-25T09:40:29Z</time></trkpt><trkpt lat="46.09602174884211" lon="12.408332230189554"><ele>1047.0</ele><time>2026-04-25T09:40:30Z</time></trkpt><trkpt lat="46.09612056223938" lon="12.408296409946397"><ele>1047.0</ele><time>2026-04-25T09:40:31Z</time></trkpt><trkpt lat="46.09620320412869" lon="12.40826084478635"><ele>1047.0</ele><time>2026-04-25T09:40:32Z</time></trkpt><trkpt lat="46.096271320547125" lon="12.40823014393735"><ele>1047.0</ele><time>2026-04-25T09:40:33Z</time></trkpt><trkpt lat="46.09634021604659" lon="12.40820177710225"><ele>1047.0</ele><time>2026-04-25T09:40:34Z</time></trkpt><trkpt lat="46.09641075245768" lon="12.408175133072337"><ele>1047.0</ele><time>2026-04-25T09:40:35Z</time></trkpt><trkpt lat="46.09647523016651" lon="12.408155766494232"><ele>1047.0</ele><time>2026-04-25T09:40:36Z</time></trkpt><trkpt lat="46.09654270416265" lon="12.408140093744144"><ele>1047.0</ele><time>2026-04-25T09:40:37Z</time></trkpt><trkpt lat="46.09660911372768" lon="12.408129498306787"><ele>1047.0</ele><time>2026-04-25T09:40:38Z</time></trkpt><trkpt lat="46.09672823721195" lon="12.408114767891206"><ele>1046.6</ele><time>2026-04-25T09:40:40Z</time></trkpt><trkpt lat="46.09684627464314" lon="12.408122198454048"><ele>1046.2</ele><time>2026-04-25T09:40:42Z</time></trkpt><trkpt lat="46.09691301958601" lon="12.40812937075048"><ele>1045.8</ele><time>2026-04-25T09:40:43Z</time></trkpt><trkpt lat="46.09699243658848" lon="12.408138365472105"><ele>1045.4</ele><time>2026-04-25T09:40:44Z</time></trkpt><trkpt lat="46.09708599928946" lon="12.40815145872832"><ele>1045.0</ele><time>2026-04-25T09:40:45Z</time></trkpt><trkpt lat="46.09718657221975" lon="12.408169849162057"><ele>1045.0</ele><time>2026-04-25T09:40:46Z</time></trkpt><trkpt lat="46.0972806777906" lon="12.408189788101124"><ele>1045.0</ele><time>2026-04-25T09:40:47Z</time></trkpt><trkpt lat="46.0973720821197" lon="12.408218291882836"><ele>1045.0</ele><time>2026-04-25T09:40:48Z</time></trkpt><trkpt lat="46.097456190777336" lon="12.408262374295234"><ele>1045.0</ele><time>2026-04-25T09:40:49Z</time></trkpt><trkpt lat="46.09753147924406" lon="12.408331935593013"><ele>1045.0</ele><time>2026-04-25T09:40:50Z</time></trkpt><trkpt lat="46.09759298431436" lon="12.40843625184612"><ele>1045.6</ele><time>2026-04-25T09:40:51Z</time></trkpt><trkpt lat="46.097647295005764" lon="12.40855977001174"><ele>1046.2</ele><time>2026-04-25T09:40:52Z</time></trkpt><trkpt lat="46.09769982399499" lon="12.408697545586353"><ele>1046.8</ele><time>2026-04-25T09:40:53Z</time></trkpt><trkpt lat="46.097751911529336" lon="12.408852532706499"><ele>1047.4</ele><time>2026-04-25T09:40:54Z</time></trkpt><trkpt lat="46.097802925742094" lon="12.409003677649467"><ele>1048.0</ele><time>2026-04-25T09:40:55Z</time></trkpt><trkpt lat="46.09784966693871" lon="12.409153942219907"><ele>1051.0</ele><time>2026-04-25T09:40:56Z</time></trkpt><trkpt lat="46.09789968444221" lon="12.409306352407182"><ele>1054.0</ele><time>2026-04-25T09:40:57Z</time></trkpt><trkpt lat="46.09794950983454" lon="12.409465400072504"><ele>1057.0</ele><time>2026-04-25T09:40:58Z</time></trkpt><trkpt lat="46.09800068446349" lon="12.409635671406448"><ele>1060.0</ele><time>2026-04-25T09:40:59Z</time></trkpt><trkpt lat="46.09805966208983" lon="12.409816591130097"><ele>1059.5</ele><time>2026-04-25T09:41:00Z</time></trkpt><trkpt lat="46.098117830877115" lon="12.409993947458906"><ele>1059.0</ele><time>2026-04-25T09:41:01Z</time></trkpt><trkpt lat="46.09818458432416" lon="12.410167884666102"><ele>1058.5</ele><time>2026-04-25T09:41:02Z</time></trkpt><trkpt lat="46.09827029863397" lon="12.410335757690447"><ele>1058.0</ele><time>2026-04-25T09:41:03Z</time></trkpt><trkpt lat="46.09836291382056" lon="12.410509217768077"><ele>1057.75</ele><time>2026-04-25T09:41:04Z</time></trkpt><trkpt lat="46.098455760828514" lon="12.410678342358864"><ele>1057.5</ele><time>2026-04-25T09:41:05Z</time></trkpt><trkpt lat="46.09855102757309" lon="12.410843892030888"><ele>1057.25</ele><time>2026-04-25T09:41:06Z</time></trkpt><trkpt lat="46.09864011957227" lon="12.411010216410968"><ele>1057.0</ele><time>2026-04-25T09:41:07Z</time></trkpt><trkpt lat="46.09873259586039" lon="12.41116643935222"><ele>1057.0</ele><time>2026-04-25T09:41:08Z</time></trkpt><trkpt lat="46.098825552662156" lon="12.41130629028169"><ele>1057.0</ele><time>2026-04-25T09:41:09Z</time></trkpt><trkpt lat="46.09892170861442" lon="12.41142776304867"><ele>1057.0</ele><time>2026-04-25T09:41:10Z</time></trkpt><trkpt lat="46.09902058305547" lon="12.411527708394955"><ele>1057.0</ele><time>2026-04-25T09:41:11Z</time></trkpt><trkpt lat="46.099125272925896" lon="12.411619948497577"><ele>1055.5</ele><time>2026-04-25T09:41:12Z</time></trkpt><trkpt lat="46.09923811083584" lon="12.411692567276802"><ele>1054.0</ele><time>2026-04-25T09:41:13Z</time></trkpt><trkpt lat="46.099360082957446" lon="12.411746357180462"><ele>1052.5</ele><time>2026-04-25T09:41:14Z</time></trkpt><trkpt lat="46.09948886371652" lon="12.411779197087865"><ele>1051.0</ele><time>2026-04-25T09:41:15Z</time></trkpt><trkpt lat="46.09961625582948" lon="12.411797296798738"><ele>1051.0</ele><time>2026-04-25T09:41:16Z</time></trkpt><trkpt lat="46.09974226824719" lon="12.41179822607466"><ele>1051.0</ele><time>2026-04-25T09:41:17Z</time></trkpt><trkpt lat="46.099866500527284" lon="12.411779604737138"><ele>1051.0</ele><time>2026-04-25T09:41:18Z</time></trkpt><trkpt lat="46.09999001008528" lon="12.411741716481098"><ele>1051.0</ele><time>2026-04-25T09:41:19Z</time></trkpt><trkpt lat="46.10010543586731" lon="12.411689544661778"><ele>1051.0</ele><time>2026-04-25T09:41:20Z</time></trkpt><trkpt lat="46.10021438822859" lon="12.411609816149838"><ele>1051.0</ele><time>2026-04-25T09:41:21Z</time></trkpt><trkpt lat="46.1003146023052" lon="12.411491356274942"><ele>1051.0</ele><time>2026-04-25T09:41:22Z</time></trkpt><trkpt lat="46.10041032618558" lon="12.41133746239801"><ele>1051.0</ele><time>2026-04-25T09:41:23Z</time></trkpt><trkpt lat="46.100507303651206" lon="12.411164316309232"><ele>1052.6666666666665</ele><time>2026-04-25T09:41:24Z</time></trkpt><trkpt lat="46.10061099673596" lon="12.410982946965056"><ele>1054.3333333333333</ele><time>2026-04-25T09:41:25Z</time></trkpt><trkpt lat="46.100721588586005" lon="12.410786546468051"><ele>1056.0</ele><time>2026-04-25T09:41:26Z</time></trkpt><trkpt lat="46.100841472438354" lon="12.410578537709402"><ele>1059.0</ele><time>2026-04-25T09:41:27Z</time></trkpt><trkpt lat="46.10096470985304" lon="12.410358812346857"><ele>1062.0</ele><time>2026-04-25T09:41:28Z</time></trkpt><trkpt lat="46.10108410006084" lon="12.410145869224452"><ele>1065.0</ele><time>2026-04-25T09:41:29Z</time></trkpt><trkpt lat="46.10119908839136" lon="12.409944431285917"><ele>1065.0</ele><time>2026-04-25T09:41:30Z</time></trkpt><trkpt lat="46.10130807782618" lon="12.409756458315345"><ele>1065.0</ele><time>2026-04-25T09:41:31Z</time></trkpt><trkpt lat="46.10141294288497" lon="12.409579814550352"><ele>1065.0</ele><time>2026-04-25T09:41:32Z</time></trkpt><trkpt lat="46.10152982107152" lon="12.409433061103453"><ele>1063.0</ele><time>2026-04-25T09:41:33Z</time></trkpt><trkpt lat="46.10166565977534" lon="12.409341302472484"><ele>1061.0</ele><time>2026-04-25T09:41:34Z</time></trkpt><trkpt lat="46.1018296087905" lon="12.40930008471365"><ele>1059.0</ele><time>2026-04-25T09:41:35Z</time></trkpt><trkpt lat="46.102013192413615" lon="12.409306825245062"><ele>1059.0</ele><time>2026-04-25T09:41:36Z</time></trkpt><trkpt lat="46.10218823139583" lon="12.409326978459854"><ele>1059.0</ele><time>2026-04-25T09:41:37Z</time></trkpt><trkpt lat="46.10234769157397" lon="12.409336932583829"><ele>1059.0</ele><time>2026-04-25T09:41:38Z</time></trkpt><trkpt lat="46.10249865609626" lon="12.409343670447845"><ele>1057.0</ele><time>2026-04-25T09:41:39Z</time></trkpt><trkpt lat="46.10262930185511" lon="12.409341049350987"><ele>1055.0</ele><time>2026-04-25T09:41:40Z</time></trkpt><trkpt lat="46.102771291931816" lon="12.409344663437665"><ele>1053.0</ele><time>2026-04-25T09:41:41Z</time></trkpt><trkpt lat="46.102925966859104" lon="12.409356348047377"><ele>1051.0</ele><time>2026-04-25T09:41:42Z</time></trkpt><trkpt lat="46.10307537817375" lon="12.409370836617834"><ele>1051.0</ele><time>2026-04-25T09:41:43Z</time></trkpt><trkpt lat="46.10321097879881" lon="12.409381230441557"><ele>1051.0</ele><time>2026-04-25T09:41:44Z</time></trkpt><trkpt lat="46.10332261252992" lon="12.409386949256216"><ele>1051.0</ele><time>2026-04-25T09:41:45Z</time></trkpt><trkpt lat="46.103427520302425" lon="12.409395265707118"><ele>1051.0</ele><time>2026-04-25T09:41:46Z</time></trkpt><trkpt lat="46.103525563196236" lon="12.409416808100998"><ele>1049.0</ele><time>2026-04-25T09:41:47Z</time></trkpt><trkpt lat="46.10362295962003" lon="12.409450823144153"><ele>1047.0</ele><time>2026-04-25T09:41:48Z</time></trkpt><trkpt lat="46.10372759298903" lon="12.40950798099804"><ele>1045.0</ele><time>2026-04-25T09:41:49Z</time></trkpt><trkpt lat="46.103834237872285" lon="12.409591191745841"><ele>1043.0</ele><time>2026-04-25T09:41:50Z</time></trkpt><trkpt lat="46.10394550252642" lon="12.40969216001779"><ele>1043.0</ele><time>2026-04-25T09:41:51Z</time></trkpt><trkpt lat="46.10405872064423" lon="12.409804306369843"><ele>1043.0</ele><time>2026-04-25T09:41:52Z</time></trkpt><trkpt lat="46.104169544047345" lon="12.409911384748323"><ele>1043.0</ele><time>2026-04-25T09:41:53Z</time></trkpt><trkpt lat="46.10427160968193" lon="12.410007464252311"><ele>1043.0</ele><time>2026-04-25T09:41:54Z</time></trkpt><trkpt lat="46.104369190827875" lon="12.410089402671515"><ele>1041.5</ele><time>2026-04-25T09:41:55Z</time></trkpt><trkpt lat="46.10447354463542" lon="12.410139374660316"><ele>1040.0</ele><time>2026-04-25T09:41:56Z</time></trkpt><trkpt lat="46.10458300985183" lon="12.41015664271204"><ele>1038.5</ele><time>2026-04-25T09:41:57Z</time></trkpt><trkpt lat="46.10470695401007" lon="12.41013641388854"><ele>1037.0</ele><time>2026-04-25T09:41:58Z</time></trkpt><trkpt lat="46.10484043411262" lon="12.410096027720547"><ele>1034.25</ele><time>2026-04-25T09:41:59Z</time></trkpt><trkpt lat="46.10498129235963" lon="12.410045229347089"><ele>1031.5</ele><time>2026-04-25T09:42:00Z</time></trkpt><trkpt lat="46.10511071324967" lon="12.409994259643604"><ele>1028.75</ele><time>2026-04-25T09:42:01Z</time></trkpt><trkpt lat="46.10522984509402" lon="12.40994347539573"><ele>1026.0</ele><time>2026-04-25T09:42:02Z</time></trkpt><trkpt lat="46.10535046224052" lon="12.409904825223125"><ele>1026.0</ele><time>2026-04-25T09:42:03Z</time></trkpt><trkpt lat="46.10546804187519" lon="12.409875380694912"><ele>1026.0</ele><time>2026-04-25T09:42:04Z</time></trkpt><trkpt lat="46.105570470249326" lon="12.40985349515529"><ele>1026.0</ele><time>2026-04-25T09:42:05Z</time></trkpt><trkpt lat="46.105663530631844" lon="12.409861256060477"><ele>1026.0</ele><time>2026-04-25T09:42:06Z</time></trkpt><trkpt lat="46.10575060221166" lon="12.409898025050188"><ele>1026.0</ele><time>2026-04-25T09:42:07Z</time></trkpt><trkpt lat="46.105816326472244" lon="12.40998685338728"><ele>1024.8</ele><time>2026-04-25T09:42:08Z</time></trkpt><trkpt lat="46.10587855230927" lon="12.41011952567601"><ele>1023.5999999999999</ele><time>2026-04-25T09:42:09.001Z</time></trkpt><trkpt lat="46.10592328338272" lon="12.410263711827923"><ele>1022.4</ele><time>2026-04-25T09:42:10.001Z</time></trkpt><trkpt lat="46.10594959105524" lon="12.410421491109679"><ele>1021.2</ele><time>2026-04-25T09:42:11.001Z</time></trkpt><trkpt lat="46.10596272554467" lon="12.41056934045889"><ele>1020.0</ele><time>2026-04-25T09:42:12.001Z</time></trkpt><trkpt lat="46.10596522280765" lon="12.410712680346295"><ele>1020.0</ele><time>2026-04-25T09:42:13.001Z</time></trkpt><trkpt lat="46.10596767455578" lon="12.410849528785572"><ele>1020.0</ele><time>2026-04-25T09:42:14.001Z</time></trkpt><trkpt lat="46.105999050241756" lon="12.410976561096472"><ele>1020.0</ele><time>2026-04-25T09:42:15.001Z</time></trkpt><trkpt lat="46.106053901613585" lon="12.411085045714401"><ele>1020.0</ele><time>2026-04-25T09:42:16.001Z</time></trkpt><trkpt lat="46.106120511519386" lon="12.411185073821756"><ele>1020.0</ele><time>2026-04-25T09:42:17.001Z</time></trkpt><trkpt lat="46.106214200403514" lon="12.411256326551861"><ele>1022.75</ele><time>2026-04-25T09:42:18.001Z</time></trkpt><trkpt lat="46.10630361020229" lon="12.41134545596802"><ele>1025.5</ele><time>2026-04-25T09:42:19.001Z</time></trkpt><trkpt lat="46.10638468176568" lon="12.411467563218086"><ele>1028.25</ele><time>2026-04-25T09:42:20.001Z</time></trkpt><trkpt lat="46.10643706390018" lon="12.41160969477967"><ele>1031.0</ele><time>2026-04-25T09:42:21.001Z</time></trkpt><trkpt lat="46.10649202089673" lon="12.411785998397855"><ele>1031.0</ele><time>2026-04-25T09:42:22.001Z</time></trkpt><trkpt lat="46.10655914728223" lon="12.411972964595318"><ele>1031.0</ele><time>2026-04-25T09:42:23.001Z</time></trkpt><trkpt lat="46.10662422684257" lon="12.412174030941078"><ele>1031.0</ele><time>2026-04-25T09:42:24.001Z</time></trkpt><trkpt lat="46.10669392350176" lon="12.412388594698498"><ele>1027.75</ele><time>2026-04-25T09:42:25Z</time></trkpt><trkpt lat="46.10676517834371" lon="12.412592275383329"><ele>1024.5</ele><time>2026-04-25T09:42:26Z</time></trkpt><trkpt lat="46.106830167809434" lon="12.412773790081047"><ele>1021.25</ele><time>2026-04-25T09:42:27Z</time></trkpt><trkpt lat="46.106893543934355" lon="12.412944370507411"><ele>1018.0</ele><time>2026-04-25T09:42:28Z</time></trkpt><trkpt lat="46.106958653194106" lon="12.413102528694345"><ele>1018.0</ele><time>2026-04-25T09:42:29Z</time></trkpt><trkpt lat="46.10702774640043" lon="12.413254486533951"><ele>1018.0</ele><time>2026-04-25T09:42:30Z</time></trkpt><trkpt lat="46.10710470530333" lon="12.41339252724698"><ele>1018.0</ele><time>2026-04-25T09:42:31Z</time></trkpt><trkpt lat="46.10718127468865" lon="12.413516531805842"><ele>1018.0</ele><time>2026-04-25T09:42:32Z</time></trkpt><trkpt lat="46.107283574479446" lon="12.41362117258457"><ele>1018.0</ele><time>2026-04-25T09:42:33Z</time></trkpt><trkpt lat="46.107396807848495" lon="12.413715112824887"><ele>1018.0</ele><time>2026-04-25T09:42:34Z</time></trkpt><trkpt lat="46.10751474302474" lon="12.413792754676084"><ele>1018.0</ele><time>2026-04-25T09:42:35Z</time></trkpt><trkpt lat="46.10763960158598" lon="12.413852061134767"><ele>1018.0</ele><time>2026-04-25T09:42:36Z</time></trkpt><trkpt lat="46.10776057199918" lon="12.413901554366303"><ele>1013.5</ele><time>2026-04-25T09:42:37Z</time></trkpt><trkpt lat="46.1078890153661" lon="12.413937711021461"><ele>1009.0</ele><time>2026-04-25T09:42:38Z</time></trkpt><trkpt lat="46.10802040536753" lon="12.413957049515904"><ele>1004.5</ele><time>2026-04-25T09:42:39Z</time></trkpt><trkpt lat="46.10814097602597" lon="12.413972316367685"><ele>1000.0</ele><time>2026-04-25T09:42:40Z</time></trkpt><trkpt lat="46.10825371230882" lon="12.41399903141249"><ele>994.25</ele><time>2026-04-25T09:42:41Z</time></trkpt><trkpt lat="46.108363685014545" lon="12.414042180663968"><ele>988.5</ele><time>2026-04-25T09:42:42Z</time></trkpt><trkpt lat="46.10848154219191" lon="12.414111668147171"><ele>982.75</ele><time>2026-04-25T09:42:43Z</time></trkpt><trkpt lat="46.10859777178122" lon="12.414181157414953"><ele>977.0</ele><time>2026-04-25T09:42:44Z</time></trkpt><trkpt lat="46.10871034113548" lon="12.414260460125611"><ele>977.0</ele><time>2026-04-25T09:42:45Z</time></trkpt><trkpt lat="46.108831138826915" lon="12.414335318463664"><ele>977.0</ele><time>2026-04-25T09:42:46Z</time></trkpt><trkpt lat="46.10895720516249" lon="12.414412097189098"><ele>977.0</ele><time>2026-04-25T09:42:47Z</time></trkpt><trkpt lat="46.10909279587966" lon="12.414491979863078"><ele>977.0</ele><time>2026-04-25T09:42:48Z</time></trkpt><trkpt lat="46.10922219003477" lon="12.414579254360195"><ele>976.75</ele><time>2026-04-25T09:42:49Z</time></trkpt><trkpt lat="46.10934352617429" lon="12.414672031042326"><ele>976.5</ele><time>2026-04-25T09:42:50Z</time></trkpt><trkpt lat="46.1094580502261" lon="12.41474765626212"><ele>976.25</ele><time>2026-04-25T09:42:51Z</time></trkpt><trkpt lat="46.10956902224207" lon="12.41480422823678"><ele>976.0</ele><time>2026-04-25T09:42:52Z</time></trkpt><trkpt lat="46.10967132765068" lon="12.414890248750853"><ele>976.0</ele><time>2026-04-25T09:42:53Z</time></trkpt><trkpt lat="46.10974896068712" lon="12.414996041709749"><ele>976.0</ele><time>2026-04-25T09:42:54Z</time></trkpt><trkpt lat="46.10980653448948" lon="12.415121343432599"><ele>976.0</ele><time>2026-04-25T09:42:55Z</time></trkpt><trkpt lat="46.109857330503054" lon="12.41526454194628"><ele>976.0</ele><time>2026-04-25T09:42:56Z</time></trkpt><trkpt lat="46.10990017967423" lon="12.415444498834542"><ele>969.6666666666666</ele><time>2026-04-25T09:42:57Z</time></trkpt><trkpt lat="46.10995479614772" lon="12.415646050736953"><ele>963.3333333333333</ele><time>2026-04-25T09:42:58Z</time></trkpt><trkpt lat="46.110018829051235" lon="12.415879195295028"><ele>957.0</ele><time>2026-04-25T09:42:59Z</time></trkpt><trkpt lat="46.11009416479887" lon="12.416119882043011"><ele>959.6666666666667</ele><time>2026-04-25T09:43:00Z</time></trkpt><trkpt lat="46.11015353949564" lon="12.416342340855392"><ele>962.3333333333334</ele><time>2026-04-25T09:43:01Z</time></trkpt><trkpt lat="46.11021112203327" lon="12.416539928834167"><ele>965.0</ele><time>2026-04-25T09:43:02Z</time></trkpt><trkpt lat="46.11026909662376" lon="12.416722674517478"><ele>965.0</ele><time>2026-04-25T09:43:03Z</time></trkpt><trkpt lat="46.11032225370763" lon="12.41689341221467"><ele>965.0</ele><time>2026-04-25T09:43:04Z</time></trkpt><trkpt lat="46.11036515756941" lon="12.417048986701195"><ele>965.0</ele><time>2026-04-25T09:43:05Z</time></trkpt><trkpt lat="46.11039581560483" lon="12.417201762264977"><ele>965.0</ele><time>2026-04-25T09:43:06Z</time></trkpt><trkpt lat="46.11042176130862" lon="12.417338095103203"><ele>965.5000000000001</ele><time>2026-04-25T09:43:07Z</time></trkpt><trkpt lat="46.110434974339604" lon="12.417470386196017"><ele>966.0</ele><time>2026-04-25T09:43:08Z</time></trkpt><trkpt lat="46.11044187486818" lon="12.417599301982824"><ele>966.5</ele><time>2026-04-25T09:43:09Z</time></trkpt><trkpt lat="46.11044898186893" lon="12.417723565606096"><ele>967.0</ele><time>2026-04-25T09:43:10Z</time></trkpt><trkpt lat="46.110466626064955" lon="12.417841258106073"><ele>967.5000000000001</ele><time>2026-04-25T09:43:11Z</time></trkpt><trkpt lat="46.110506400554506" lon="12.417932998498578"><ele>968.0</ele><time>2026-04-25T09:43:12Z</time></trkpt><trkpt lat="46.110565341471606" lon="12.418001376117711"><ele>966.5000000000001</ele><time>2026-04-25T09:43:13Z</time></trkpt><trkpt lat="46.11063814621995" lon="12.418039449966743"><ele>965.0</ele><time>2026-04-25T09:43:14Z</time></trkpt><trkpt lat="46.11071551942008" lon="12.418046230015191"><ele>963.5</ele><time>2026-04-25T09:43:15Z</time></trkpt><trkpt lat="46.110785417799214" lon="12.41802814598069"><ele>962.0</ele><time>2026-04-25T09:43:16Z</time></trkpt><trkpt lat="46.110853557186225" lon="12.417978418600184"><ele>960.5000000000001</ele><time>2026-04-25T09:43:17Z</time></trkpt><trkpt lat="46.110909469571034" lon="12.417884900603498"><ele>959.0</ele><time>2026-04-25T09:43:18Z</time></trkpt><trkpt lat="46.11095629552838" lon="12.417763182438623"><ele>953.75</ele><time>2026-04-25T09:43:19Z</time></trkpt><trkpt lat="46.11099863001739" lon="12.417619035971075"><ele>948.5</ele><time>2026-04-25T09:43:20Z</time></trkpt><trkpt lat="46.11103834038928" lon="12.417456621465112"><ele>943.25</ele><time>2026-04-25T09:43:21Z</time></trkpt><trkpt lat="46.11106299467446" lon="12.417272465695401"><ele>938.0</ele><time>2026-04-25T09:43:22Z</time></trkpt><trkpt lat="46.111067120827556" lon="12.417066533148553"><ele>937.75</ele><time>2026-04-25T09:43:23Z</time></trkpt><trkpt lat="46.11105814050521" lon="12.416846015655086"><ele>937.5</ele><time>2026-04-25T09:43:24Z</time></trkpt><trkpt lat="46.11102216074557" lon="12.416628398412513"><ele>937.25</ele><time>2026-04-25T09:43:25Z</time></trkpt><trkpt lat="46.11099569098664" lon="12.416448297786511"><ele>937.0</ele><time>2026-04-25T09:43:26Z</time></trkpt><trkpt lat="46.11099190152557" lon="12.41626474078585"><ele>936.5</ele><time>2026-04-25T09:43:27Z</time></trkpt><trkpt lat="46.11101181779463" lon="12.41608635601567"><ele>936.0</ele><time>2026-04-25T09:43:28Z</time></trkpt><trkpt lat="46.11104624159273" lon="12.415899800868013"><ele>935.5</ele><time>2026-04-25T09:43:29Z</time></trkpt><trkpt lat="46.11108095700194" lon="12.415718493793197"><ele>935.0</ele><time>2026-04-25T09:43:30Z</time></trkpt><trkpt lat="46.111124024174515" lon="12.415550638237935"><ele>934.0</ele><time>2026-04-25T09:43:31Z</time></trkpt><trkpt lat="46.11117952954672" lon="12.415395944502023"><ele>933.0</ele><time>2026-04-25T09:43:32Z</time></trkpt><trkpt lat="46.11124848054512" lon="12.415259473688874"><ele>932.0</ele><time>2026-04-25T09:43:33Z</time></trkpt><trkpt lat="46.11131771312447" lon="12.415147545807605"><ele>931.0</ele><time>2026-04-25T09:43:34Z</time></trkpt><trkpt lat="46.111371631997585" lon="12.415041216811897"><ele>930.0</ele><time>2026-04-25T09:43:35Z</time></trkpt><trkpt lat="46.111406701157904" lon="12.414924581630894"><ele>930.0</ele><time>2026-04-25T09:43:36Z</time></trkpt><trkpt lat="46.11141236598587" lon="12.41479770594093"><ele>930.0</ele><time>2026-04-25T09:43:37Z</time></trkpt><trkpt lat="46.111370660429614" lon="12.414660840454804"><ele>930.0</ele><time>2026-04-25T09:43:38Z</time></trkpt><trkpt lat="46.111277224308886" lon="12.414512299994676"><ele>930.0</ele><time>2026-04-25T09:43:39Z</time></trkpt><trkpt lat="46.11116467222775" lon="12.41436308950708"><ele>933.6666666666667</ele><time>2026-04-25T09:43:40Z</time></trkpt><trkpt lat="46.11106087547862" lon="12.414213691193273"><ele>937.3333333333334</ele><time>2026-04-25T09:43:41Z</time></trkpt><trkpt lat="46.11095339757517" lon="12.414038239899167"><ele>941.0</ele><time>2026-04-25T09:43:42Z</time></trkpt><trkpt lat="46.110841793384324" lon="12.413850637982234"><ele>939.0</ele><time>2026-04-25T09:43:43Z</time></trkpt><trkpt lat="46.11073299500143" lon="12.413662141383533"><ele>937.0</ele><time>2026-04-25T09:43:44Z</time></trkpt><trkpt lat="46.11062912921221" lon="12.413481402607609"><ele>935.0</ele><time>2026-04-25T09:43:45Z</time></trkpt><trkpt lat="46.110527288633804" lon="12.413306132118732"><ele>935.0</ele><time>2026-04-25T09:43:46Z</time></trkpt><trkpt lat="46.110432133927844" lon="12.413132960202912"><ele>935.0</ele><time>2026-04-25T09:43:47Z</time></trkpt><trkpt lat="46.11034502809982" lon="12.412958410633875"><ele>935.0</ele><time>2026-04-25T09:43:48Z</time></trkpt><trkpt lat="46.110262285300095" lon="12.412785357360807"><ele>935.0</ele><time>2026-04-25T09:43:49Z</time></trkpt><trkpt lat="46.11018321503354" lon="12.412623396113515"><ele>934.75</ele><time>2026-04-25T09:43:50Z</time></trkpt><trkpt lat="46.110100158786075" lon="12.412473503817328"><ele>934.5</ele><time>2026-04-25T09:43:51Z</time></trkpt><trkpt lat="46.11000202143442" lon="12.412340117844412"><ele>934.25</ele><time>2026-04-25T09:43:52Z</time></trkpt><trkpt lat="46.1098922742811" lon="12.412226320580787"><ele>934.0</ele><time>2026-04-25T09:43:53Z</time></trkpt><trkpt lat="46.109772225326765" lon="12.412125665039087"><ele>937.5</ele><time>2026-04-25T09:43:54Z</time></trkpt><trkpt lat="46.109644385240166" lon="12.412042949271397"><ele>941.0</ele><time>2026-04-25T09:43:55Z</time></trkpt><trkpt lat="46.109533418534966" lon="12.411973185007948"><ele>944.5</ele><time>2026-04-25T09:43:56Z</time></trkpt><trkpt lat="46.1094265290371" lon="12.411902751262865"><ele>948.0</ele><time>2026-04-25T09:43:57Z</time></trkpt><trkpt lat="46.109323418853705" lon="12.411823057050986"><ele>948.0</ele><time>2026-04-25T09:43:58Z</time></trkpt><trkpt lat="46.109233083018665" lon="12.411710464693073"><ele>948.0</ele><time>2026-04-25T09:43:59Z</time></trkpt><trkpt lat="46.10916646503486" lon="12.411569705849164"><ele>948.0</ele><time>2026-04-25T09:44:00Z</time></trkpt><trkpt lat="46.10912326094891" lon="12.41140823072913"><ele>948.0</ele><time>2026-04-25T09:44:01Z</time></trkpt><trkpt lat="46.10910009327712" lon="12.411224410337176"><ele>948.5</ele><time>2026-04-25T09:44:02Z</time></trkpt><trkpt lat="46.10909950325082" lon="12.411016631759479"><ele>949.0</ele><time>2026-04-25T09:44:03Z</time></trkpt><trkpt lat="46.10910630505057" lon="12.410807632594702"><ele>949.5</ele><time>2026-04-25T09:44:04Z</time></trkpt><trkpt lat="46.109128541735494" lon="12.41059776863342"><ele>950.0</ele><time>2026-04-25T09:44:05Z</time></trkpt><trkpt lat="46.10917390875556" lon="12.410376917163841"><ele>950.0</ele><time>2026-04-25T09:44:06Z</time></trkpt><trkpt lat="46.10923673589269" lon="12.410143572169307"><ele>950.0</ele><time>2026-04-25T09:44:07Z</time></trkpt><trkpt lat="46.109291239371515" lon="12.409890971919156"><ele>950.0</ele><time>2026-04-25T09:44:08Z</time></trkpt><trkpt lat="46.109326533250254" lon="12.409640142463392"><ele>950.3333333333334</ele><time>2026-04-25T09:44:09Z</time></trkpt><trkpt lat="46.10934050177838" lon="12.40939063247248"><ele>950.6666666666667</ele><time>2026-04-25T09:44:10Z</time></trkpt><trkpt lat="46.109338586954" lon="12.409149483523871"><ele>951.0</ele><time>2026-04-25T09:44:11Z</time></trkpt><trkpt lat="46.10932613286319" lon="12.408918467497497"><ele>951.0</ele><time>2026-04-25T09:44:12Z</time></trkpt><trkpt lat="46.10930890175527" lon="12.408697648629142"><ele>951.0</ele><time>2026-04-25T09:44:13Z</time></trkpt><trkpt lat="46.109292184691874" lon="12.408514940316033"><ele>951.0</ele><time>2026-04-25T09:44:14Z</time></trkpt><trkpt lat="46.109282074402145" lon="12.408342943512805"><ele>951.0</ele><time>2026-04-25T09:44:15Z</time></trkpt><trkpt lat="46.1092855865889" lon="12.408181309657962"><ele>951.0</ele><time>2026-04-25T09:44:16Z</time></trkpt><trkpt lat="46.10931461956407" lon="12.408044612994143"><ele>950.9999999999999</ele><time>2026-04-25T09:44:17Z</time></trkpt><trkpt lat="46.10936852703582" lon="12.407927311055358"><ele>950.9999999999999</ele><time>2026-04-25T09:44:18Z</time></trkpt><trkpt lat="46.10944759852245" lon="12.4078262530628"><ele>951.0</ele><time>2026-04-25T09:44:19Z</time></trkpt><trkpt lat="46.109542874191604" lon="12.407756466620336"><ele>951.0</ele><time>2026-04-25T09:44:20Z</time></trkpt><trkpt lat="46.109648295290185" lon="12.40773023301652"><ele>951.5</ele><time>2026-04-25T09:44:21Z</time></trkpt><trkpt lat="46.10976457450151" lon="12.407746203141588"><ele>952.0</ele><time>2026-04-25T09:44:22Z</time></trkpt><trkpt lat="46.10988806916469" lon="12.407790925540942"><ele>952.5</ele><time>2026-04-25T09:44:23Z</time></trkpt><trkpt lat="46.11001699881402" lon="12.407848239447901"><ele>953.0</ele><time>2026-04-25T09:44:24Z</time></trkpt><trkpt lat="46.1101510371249" lon="12.407913444063094"><ele>955.3333333333334</ele><time>2026-04-25T09:44:25Z</time></trkpt><trkpt lat="46.11029369967787" lon="12.407982570702472"><ele>957.6666666666667</ele><time>2026-04-25T09:44:26Z</time></trkpt><trkpt lat="46.11044123463483" lon="12.408051794954385"><ele>960.0</ele><time>2026-04-25T09:44:27Z</time></trkpt><trkpt lat="46.11057944555044" lon="12.408114019630204"><ele>960.5</ele><time>2026-04-25T09:44:28Z</time></trkpt><trkpt lat="46.110714833035225" lon="12.408158326593435"><ele>961.0</ele><time>2026-04-25T09:44:29Z</time></trkpt><trkpt lat="46.11085066678145" lon="12.408176509470932"><ele>961.5</ele><time>2026-04-25T09:44:30Z</time></trkpt><trkpt lat="46.110989527049036" lon="12.408173098356878"><ele>962.0</ele><time>2026-04-25T09:44:31Z</time></trkpt><trkpt lat="46.1111325076922" lon="12.408148172699837"><ele>960.6666666666667</ele><time>2026-04-25T09:44:32Z</time></trkpt><trkpt lat="46.11128032283895" lon="12.408092523157524"><ele>959.3333333333333</ele><time>2026-04-25T09:44:33Z</time></trkpt><trkpt lat="46.11142960426623" lon="12.408007226972583"><ele>958.0</ele><time>2026-04-25T09:44:34Z</time></trkpt><trkpt lat="46.1115748686059" lon="12.407894272608056"><ele>955.6666666666666</ele><time>2026-04-25T09:44:35Z</time></trkpt><trkpt lat="46.11171393738806" lon="12.407757619551514"><ele>953.3333333333333</ele><time>2026-04-25T09:44:36Z</time></trkpt><trkpt lat="46.111830708138584" lon="12.40760079267299"><ele>951.0</ele><time>2026-04-25T09:44:37Z</time></trkpt><trkpt lat="46.111925027419844" lon="12.407448265765415"><ele>951.0</ele><time>2026-04-25T09:44:38Z</time></trkpt><trkpt lat="46.11200799538927" lon="12.407296562464852"><ele>951.0</ele><time>2026-04-25T09:44:39Z</time></trkpt><trkpt lat="46.11210414367001" lon="12.407158607887315"><ele>951.0</ele><time>2026-04-25T09:44:40Z</time></trkpt><trkpt lat="46.112226317837894" lon="12.407043250612244"><ele>951.0</ele><time>2026-04-25T09:44:41Z</time></trkpt><trkpt lat="46.1123591219388" lon="12.406933727043395"><ele>950.5</ele><time>2026-04-25T09:44:42Z</time></trkpt><trkpt lat="46.112490959933204" lon="12.406824165441316"><ele>950.0</ele><time>2026-04-25T09:44:43Z</time></trkpt><trkpt lat="46.11260458672494" lon="12.406691340745414"><ele>949.5</ele><time>2026-04-25T09:44:44Z</time></trkpt><trkpt lat="46.11269610615104" lon="12.406546458942302"><ele>949.0</ele><time>2026-04-25T09:44:45Z</time></trkpt><trkpt lat="46.112769586776906" lon="12.406379639666362"><ele>947.5</ele><time>2026-04-25T09:44:46Z</time></trkpt><trkpt lat="46.112818981821555" lon="12.406196335479525"><ele>946.0</ele><time>2026-04-25T09:44:47Z</time></trkpt><trkpt lat="46.11288943825085" lon="12.406017556799153"><ele>944.5</ele><time>2026-04-25T09:44:48Z</time></trkpt><trkpt lat="46.112952852053354" lon="12.405821167019749"><ele>943.0</ele><time>2026-04-25T09:44:49Z</time></trkpt><trkpt lat="46.1130212881578" lon="12.405609223390273"><ele>940.6666666666666</ele><time>2026-04-25T09:44:50Z</time></trkpt><trkpt lat="46.11292937700527" lon="12.405288428191483"><ele>938.3333333333333</ele><time>2026-04-25T09:44:51Z</time></trkpt><trkpt lat="46.11295998219026" lon="12.405058572089569"><ele>936.0</ele><time>2026-04-25T09:44:52Z</time></trkpt><trkpt lat="46.112992744121186" lon="12.404837356313854"><ele>934.5</ele><time>2026-04-25T09:44:53Z</time></trkpt><trkpt lat="46.113021196394214" lon="12.404624488553003"><ele>933.0</ele><time>2026-04-25T09:44:54Z</time></trkpt><trkpt lat="46.11304389188141" lon="12.404416924680076"><ele>931.5</ele><time>2026-04-25T09:44:55Z</time></trkpt><trkpt lat="46.11305755285545" lon="12.404209967876406"><ele>930.0</ele><time>2026-04-25T09:44:56Z</time></trkpt><trkpt lat="46.11305417342214" lon="12.40401118722886"><ele>928.5</ele><time>2026-04-25T09:44:57Z</time></trkpt><trkpt lat="46.11304491741657" lon="12.403827290005509"><ele>927.0</ele><time>2026-04-25T09:44:58Z</time></trkpt><trkpt lat="46.113033096561175" lon="12.403658968700649"><ele>925.5</ele><time>2026-04-25T09:44:59Z</time></trkpt><trkpt lat="46.11301749590696" lon="12.403506511764055"><ele>924.0</ele><time>2026-04-25T09:45:00Z</time></trkpt><trkpt lat="46.1130053775431" lon="12.40336455263356"><ele>924.0</ele><time>2026-04-25T09:45:01Z</time></trkpt><trkpt lat="46.113000684647325" lon="12.403222367650534"><ele>924.0000000000001</ele><time>2026-04-25T09:45:02Z</time></trkpt><trkpt lat="46.113009105227164" lon="12.403077751818904"><ele>924.0000000000001</ele><time>2026-04-25T09:45:03Z</time></trkpt><trkpt lat="46.1130287084152" lon="12.402945264147192"><ele>924.0</ele><time>2026-04-25T09:45:04Z</time></trkpt><trkpt lat="46.113058642164084" lon="12.402821569348378"><ele>924.0</ele><time>2026-04-25T09:45:05Z</time></trkpt><trkpt lat="46.11309587552073" lon="12.402709154996826"><ele>923.5</ele><time>2026-04-25T09:45:06Z</time></trkpt><trkpt lat="46.11313896196749" lon="12.402615290396799"><ele>923.0</ele><time>2026-04-25T09:45:07Z</time></trkpt><trkpt lat="46.113186232554106" lon="12.40253427087871"><ele>922.5</ele><time>2026-04-25T09:45:08Z</time></trkpt><trkpt lat="46.1132274181832" lon="12.402455348361283"><ele>922.0</ele><time>2026-04-25T09:45:09Z</time></trkpt><trkpt lat="46.11325988526068" lon="12.402375116840627"><ele>921.5</ele><time>2026-04-25T09:45:10Z</time></trkpt><trkpt lat="46.113366423404806" lon="12.402280298261829"><ele>921.0</ele><time>2026-04-25T09:45:12Z</time></trkpt><trkpt lat="46.11344932117762" lon="12.402290999044892"><ele>921.0</ele><time>2026-04-25T09:45:13Z</time></trkpt><trkpt lat="46.11353741330967" lon="12.402300190459323"><ele>921.0</ele><time>2026-04-25T09:45:14Z</time></trkpt><trkpt lat="46.11361957644329" lon="12.40231130151828"><ele>921.0</ele><time>2026-04-25T09:45:15Z</time></trkpt><trkpt lat="46.113696072091884" lon="12.402315447016534"><ele>921.0</ele><time>2026-04-25T09:45:16Z</time></trkpt><trkpt lat="46.11375989456797" lon="12.402315131020329"><ele>921.0</ele><time>2026-04-25T09:45:17Z</time></trkpt><trkpt lat="46.11386074609514" lon="12.402312521042248"><ele>921.0</ele><time>2026-04-25T09:45:19Z</time></trkpt><trkpt lat="46.113939260784186" lon="12.40230449376001"><ele>921.0</ele><time>2026-04-25T09:45:21Z</time></trkpt><trkpt lat="46.11400991438139" lon="12.4022945318977"><ele>921.0</ele><time>2026-04-25T09:45:23Z</time></trkpt><trkpt lat="46.11408717251478" lon="12.402232253672803"><ele>921.0</ele><time>2026-04-25T09:45:25Z</time></trkpt><trkpt lat="46.114157304608334" lon="12.402278198096623"><ele>921.0</ele><time>2026-04-25T09:45:27Z</time></trkpt><trkpt lat="46.11416320973462" lon="12.402465225868095"><ele>921.0</ele><time>2026-04-25T09:45:29Z</time></trkpt><trkpt lat="46.114170670462286" lon="12.402580520686326"><ele>921.0</ele><time>2026-04-25T09:45:30Z</time></trkpt><trkpt lat="46.114192802240154" lon="12.402717270139368"><ele>921.1666666666666</ele><time>2026-04-25T09:45:31Z</time></trkpt><trkpt lat="46.114215043764425" lon="12.402861207382688"><ele>921.3333333333333</ele><time>2026-04-25T09:45:32Z</time></trkpt><trkpt lat="46.11423789875682" lon="12.402993491541567"><ele>921.5</ele><time>2026-04-25T09:45:33Z</time></trkpt><trkpt lat="46.11426450292376" lon="12.40311353202344"><ele>921.6666666666666</ele><time>2026-04-25T09:45:34Z</time></trkpt><trkpt lat="46.114288349775535" lon="12.403233879870168"><ele>921.8333333333333</ele><time>2026-04-25T09:45:35Z</time></trkpt><trkpt lat="46.11430247782756" lon="12.403339729448922"><ele>922.0</ele><time>2026-04-25T09:45:36Z</time></trkpt><trkpt lat="46.11432045943468" lon="12.403440327614213"><ele>922.9999999999999</ele><time>2026-04-25T09:45:37Z</time></trkpt><trkpt lat="46.11434720660885" lon="12.403537055344987"><ele>924.0</ele><time>2026-04-25T09:45:38Z</time></trkpt><trkpt lat="46.114378774999494" lon="12.403634924248038"><ele>925.0</ele><time>2026-04-25T09:45:39Z</time></trkpt><trkpt lat="46.11440321071383" lon="12.403721658725887"><ele>926.0</ele><time>2026-04-25T09:45:40Z</time></trkpt><trkpt lat="46.11444545328223" lon="12.40384631880279"><ele>926.9999999999999</ele><time>2026-04-25T09:45:42Z</time></trkpt><trkpt lat="46.114478708137" lon="12.403953945321128"><ele>928.0</ele><time>2026-04-25T09:45:44Z</time></trkpt><trkpt lat="46.11451306716375" lon="12.404058873953133"><ele>928.8333333333333</ele><time>2026-04-25T09:45:47Z</time></trkpt><trkpt lat="46.11454277278493" lon="12.40414111574597"><ele>929.6666666666666</ele><time>2026-04-25T09:45:58Z</time></trkpt><trkpt lat="46.11456813048527" lon="12.4042467757243"><ele>930.5</ele><time>2026-04-25T09:46:07Z</time></trkpt><trkpt lat="46.11463368744434" lon="12.40426350915622"><ele>931.3333333333333</ele><time>2026-04-25T09:46:18.999Z</time></trkpt><trkpt lat="46.11461916698957" lon="12.404167811274348"><ele>932.1666666666666</ele><time>2026-04-25T09:46:21Z</time></trkpt><trkpt lat="46.1145612040978" lon="12.404058780275333"><ele>933.0</ele><time>2026-04-25T09:46:23Z</time></trkpt><trkpt lat="46.114515297544834" lon="12.403932678390131"><ele>932.0</ele><time>2026-04-25T09:46:25Z</time></trkpt><trkpt lat="46.11447080494952" lon="12.4038126064094"><ele>931.0</ele><time>2026-04-25T09:46:27Z</time></trkpt><trkpt lat="46.11442346547456" lon="12.4036926128784"><ele>930.0</ele><time>2026-04-25T09:46:29Z</time></trkpt><trkpt lat="46.114378705600316" lon="12.403548220045476"><ele>929.0</ele><time>2026-04-25T09:46:31Z</time></trkpt><trkpt lat="46.1143369677557" lon="12.403369260851589"><ele>928.0</ele><time>2026-04-25T09:46:33Z</time></trkpt><trkpt lat="46.11432079121949" lon="12.403260304687024"><ele>927.9999999999999</ele><time>2026-04-25T09:46:34Z</time></trkpt><trkpt lat="46.11430135348888" lon="12.403155793217346"><ele>928.0</ele><time>2026-04-25T09:46:35Z</time></trkpt><trkpt lat="46.11428609073425" lon="12.403056412556387"><ele>928.0</ele><time>2026-04-25T09:46:36Z</time></trkpt><trkpt lat="46.11426996308673" lon="12.402959744008216"><ele>928.0</ele><time>2026-04-25T09:46:37Z</time></trkpt><trkpt lat="46.11423862442056" lon="12.402800493730016"><ele>927.9999999999999</ele><time>2026-04-25T09:46:39Z</time></trkpt><trkpt lat="46.11421385145619" lon="12.40266032670691"><ele>928.0</ele><time>2026-04-25T09:46:41Z</time></trkpt><trkpt lat="46.11419237458014" lon="12.402530578574732"><ele>926.9999999999999</ele><time>2026-04-25T09:46:43Z</time></trkpt><trkpt lat="46.11418096996347" lon="12.402399115330407"><ele>926.0</ele><time>2026-04-25T09:46:45Z</time></trkpt><trkpt lat="46.11421211595362" lon="12.402301181898311"><ele>925.0</ele><time>2026-04-25T09:46:47Z</time></trkpt><trkpt lat="46.11427833811756" lon="12.402266600408248"><ele>924.0</ele><time>2026-04-25T09:46:48Z</time></trkpt><trkpt lat="46.114390031716596" lon="12.402307692231354"><ele>922.9999999999999</ele><time>2026-04-25T09:46:50Z</time></trkpt><trkpt lat="46.1144558756614" lon="12.402326336915666"><ele>922.0</ele><time>2026-04-25T09:46:51Z</time></trkpt><trkpt lat="46.114525033617774" lon="12.402351323612114"><ele>922.0</ele><time>2026-04-25T09:46:52Z</time></trkpt><trkpt lat="46.1145950654667" lon="12.402362504892304"><ele>922.0000000000001</ele><time>2026-04-25T09:46:53Z</time></trkpt><trkpt lat="46.11465928017389" lon="12.402398023754808"><ele>922.0</ele><time>2026-04-25T09:46:54Z</time></trkpt><trkpt lat="46.11471667160649" lon="12.402453988305979"><ele>922.0</ele><time>2026-04-25T09:46:55Z</time></trkpt><trkpt lat="46.114761223595345" lon="12.402531169044032"><ele>922.0000000000001</ele><time>2026-04-25T09:46:56Z</time></trkpt><trkpt lat="46.11480836135669" lon="12.402608751564717"><ele>922.0</ele><time>2026-04-25T09:46:57Z</time></trkpt><trkpt lat="46.11486018039972" lon="12.402684834862102"><ele>922.0</ele><time>2026-04-25T09:46:58Z</time></trkpt><trkpt lat="46.11491648933563" lon="12.402768349083935"><ele>921.2857142857143</ele><time>2026-04-25T09:46:59Z</time></trkpt><trkpt lat="46.11498154919457" lon="12.402852192033944"><ele>920.5714285714287</ele><time>2026-04-25T09:47:00Z</time></trkpt><trkpt lat="46.115053672122556" lon="12.40290507661671"><ele>919.8571428571429</ele><time>2026-04-25T09:47:01Z</time></trkpt><trkpt lat="46.115126859498695" lon="12.4029309310261"><ele>919.1428571428571</ele><time>2026-04-25T09:47:02Z</time></trkpt><trkpt lat="46.115197892889896" lon="12.402939740478748"><ele>918.4285714285714</ele><time>2026-04-25T09:47:03Z</time></trkpt><trkpt lat="46.11526359763896" lon="12.40294298057302"><ele>917.7142857142858</ele><time>2026-04-25T09:47:04Z</time></trkpt><trkpt lat="46.11532705613721" lon="12.402939122411373"><ele>917.0</ele><time>2026-04-25T09:47:05Z</time></trkpt><trkpt lat="46.11544600238451" lon="12.402893200803891"><ele>917.0000000000001</ele><time>2026-04-25T09:47:07Z</time></trkpt><trkpt lat="46.115506420173475" lon="12.402851794035623"><ele>917.0</ele><time>2026-04-25T09:47:08Z</time></trkpt><trkpt lat="46.11556044094484" lon="12.402788168292284"><ele>917.0</ele><time>2026-04-25T09:47:09Z</time></trkpt><trkpt lat="46.115619670171085" lon="12.402715013211372"><ele>917.0</ele><time>2026-04-25T09:47:10Z</time></trkpt><trkpt lat="46.11568414875125" lon="12.402636992305364"><ele>917.0000000000001</ele><time>2026-04-25T09:47:11Z</time></trkpt><trkpt lat="46.11574995061463" lon="12.402558171885698"><ele>917.0</ele><time>2026-04-25T09:47:12Z</time></trkpt><trkpt lat="46.11580625647361" lon="12.402489711205133"><ele>916.3333333333334</ele><time>2026-04-25T09:47:13Z</time></trkpt><trkpt lat="46.11586260624688" lon="12.402433615361414"><ele>915.6666666666667</ele><time>2026-04-25T09:47:14Z</time></trkpt><trkpt lat="46.11592696773124" lon="12.402380202517246"><ele>915.0</ele><time>2026-04-25T09:47:15Z</time></trkpt><trkpt lat="46.11599675515177" lon="12.402333442532253"><ele>914.3333333333333</ele><time>2026-04-25T09:47:16Z</time></trkpt><trkpt lat="46.11607012576183" lon="12.402291433290877"><ele>913.6666666666666</ele><time>2026-04-25T09:47:17Z</time></trkpt><trkpt lat="46.116145814166856" lon="12.402247299588504"><ele>913.0</ele><time>2026-04-25T09:47:18Z</time></trkpt><trkpt lat="46.11622290055503" lon="12.402198813900851"><ele>911.8333333333333</ele><time>2026-04-25T09:47:19Z</time></trkpt><trkpt lat="46.11629769900392" lon="12.402144221897728"><ele>910.6666666666666</ele><time>2026-04-25T09:47:20Z</time></trkpt><trkpt lat="46.11635854307564" lon="12.402062457371919"><ele>909.5</ele><time>2026-04-25T09:47:21Z</time></trkpt><trkpt lat="46.11640203779767" lon="12.401956009449075"><ele>908.3333333333333</ele><time>2026-04-25T09:47:22Z</time></trkpt><trkpt lat="46.116426690512846" lon="12.401830204104975"><ele>907.1666666666666</ele><time>2026-04-25T09:47:23Z</time></trkpt><trkpt lat="46.11645563666499" lon="12.401698969457671"><ele>906.0</ele><time>2026-04-25T09:47:24Z</time></trkpt><trkpt lat="46.11648945349576" lon="12.401563892142848"><ele>906.0</ele><time>2026-04-25T09:47:25Z</time></trkpt><trkpt lat="46.11652433969517" lon="12.401417974904453"><ele>906.0</ele><time>2026-04-25T09:47:26Z</time></trkpt><trkpt lat="46.11655884158748" lon="12.401259409460952"><ele>906.0</ele><time>2026-04-25T09:47:27Z</time></trkpt><trkpt lat="46.11659718154085" lon="12.401093315859379"><ele>906.0</ele><time>2026-04-25T09:47:28Z</time></trkpt><trkpt lat="46.11664324240541" lon="12.40093449066105"><ele>904.5999999999999</ele><time>2026-04-25T09:47:29Z</time></trkpt><trkpt lat="46.116691010635236" lon="12.400784087540808"><ele>903.1999999999999</ele><time>2026-04-25T09:47:30Z</time></trkpt><trkpt lat="46.116742914616985" lon="12.400642529477317"><ele>901.8000000000001</ele><time>2026-04-25T09:47:31Z</time></trkpt><trkpt lat="46.11680406474007" lon="12.400511654122129"><ele>900.4000000000001</ele><time>2026-04-25T09:47:32Z</time></trkpt><trkpt lat="46.11687288710188" lon="12.400385688255666"><ele>899.0</ele><time>2026-04-25T09:47:33Z</time></trkpt><trkpt lat="46.1169483264263" lon="12.400262058298175"><ele>896.75</ele><time>2026-04-25T09:47:34Z</time></trkpt><trkpt lat="46.1170316955367" lon="12.400143596730153"><ele>894.5</ele><time>2026-04-25T09:47:35Z</time></trkpt><trkpt lat="46.117125130315685" lon="12.400033248280405"><ele>892.25</ele><time>2026-04-25T09:47:36Z</time></trkpt><trkpt lat="46.11722316192313" lon="12.399938849521762"><ele>890.0</ele><time>2026-04-25T09:47:37Z</time></trkpt><trkpt lat="46.11731776115447" lon="12.399856938918415"><ele>890.5</ele><time>2026-04-25T09:47:38Z</time></trkpt><trkpt lat="46.1174220131227" lon="12.399779669236228"><ele>891.0</ele><time>2026-04-25T09:47:39Z</time></trkpt><trkpt lat="46.11753595895311" lon="12.399711966516234"><ele>891.5</ele><time>2026-04-25T09:47:40Z</time></trkpt><trkpt lat="46.117654765033876" lon="12.399654424549245"><ele>892.0</ele><time>2026-04-25T09:47:41Z</time></trkpt><trkpt lat="46.11777117945103" lon="12.399604632739505"><ele>888.5</ele><time>2026-04-25T09:47:42Z</time></trkpt><trkpt lat="46.117878190028804" lon="12.399551827035873"><ele>885.0</ele><time>2026-04-25T09:47:43Z</time></trkpt><trkpt lat="46.11797874490231" lon="12.39948828927168"><ele>881.5</ele><time>2026-04-25T09:47:44Z</time></trkpt><trkpt lat="46.11807532448352" lon="12.39940314189202"><ele>878.0</ele><time>2026-04-25T09:47:45Z</time></trkpt><trkpt lat="46.118162650521654" lon="12.399294399824004"><ele>877.0</ele><time>2026-04-25T09:47:46Z</time></trkpt><trkpt lat="46.11824239709373" lon="12.399166285713164"><ele>876.0</ele><time>2026-04-25T09:47:47Z</time></trkpt><trkpt lat="46.118314054519814" lon="12.399023589818784"><ele>875.0</ele><time>2026-04-25T09:47:48Z</time></trkpt><trkpt lat="46.11838461040194" lon="12.39887719629243"><ele>874.0</ele><time>2026-04-25T09:47:49Z</time></trkpt><trkpt lat="46.11846539523776" lon="12.398718832736831"><ele>872.25</ele><time>2026-04-25T09:47:50Z</time></trkpt><trkpt lat="46.11854932310454" lon="12.398548002212117"><ele>870.5</ele><time>2026-04-25T09:47:51Z</time></trkpt><trkpt lat="46.11863319048035" lon="12.398371857416986"><ele>868.75</ele><time>2026-04-25T09:47:52Z</time></trkpt><trkpt lat="46.1187070308105" lon="12.398192234746242"><ele>867.0</ele><time>2026-04-25T09:47:53Z</time></trkpt><trkpt lat="46.11877189573578" lon="12.398011255426972"><ele>864.5</ele><time>2026-04-25T09:47:54Z</time></trkpt><trkpt lat="46.11882950737186" lon="12.397822504379112"><ele>862.0</ele><time>2026-04-25T09:47:55Z</time></trkpt><trkpt lat="46.118874316879904" lon="12.397628691631171"><ele>859.5</ele><time>2026-04-25T09:47:56Z</time></trkpt><trkpt lat="46.11890784537855" lon="12.397431191799118"><ele>857.0</ele><time>2026-04-25T09:47:57Z</time></trkpt><trkpt lat="46.118937634336085" lon="12.39723816863902"><ele>854.25</ele><time>2026-04-25T09:47:58Z</time></trkpt><trkpt lat="46.11897954334981" lon="12.397055907912643"><ele>851.5</ele><time>2026-04-25T09:47:59Z</time></trkpt><trkpt lat="46.11903585595297" lon="12.39688719892335"><ele>848.75</ele><time>2026-04-25T09:48:00Z</time></trkpt><trkpt lat="46.119099454837865" lon="12.39672708944402"><ele>846.0</ele><time>2026-04-25T09:48:01Z</time></trkpt><trkpt lat="46.11917044790174" lon="12.396572013949545"><ele>848.5</ele><time>2026-04-25T09:48:02Z</time></trkpt><trkpt lat="46.11924479118108" lon="12.396409319834284"><ele>851.0</ele><time>2026-04-25T09:48:03Z</time></trkpt><trkpt lat="46.119317759386526" lon="12.396234586388326"><ele>853.5</ele><time>2026-04-25T09:48:04Z</time></trkpt><trkpt lat="46.11939339928502" lon="12.396058438885921"><ele>856.0</ele><time>2026-04-25T09:48:05Z</time></trkpt><trkpt lat="46.119478516179925" lon="12.395885585173062"><ele>856.0</ele><time>2026-04-25T09:48:06Z</time></trkpt><trkpt lat="46.11956979973741" lon="12.395718748505557"><ele>856.0</ele><time>2026-04-25T09:48:07Z</time></trkpt><trkpt lat="46.11965912561137" lon="12.395569054354183"><ele>856.0</ele><time>2026-04-25T09:48:08Z</time></trkpt><trkpt lat="46.11974739376925" lon="12.395432039086034"><ele>856.0</ele><time>2026-04-25T09:48:09Z</time></trkpt><trkpt lat="46.119834274457276" lon="12.395292955382756"><ele>855.25</ele><time>2026-04-25T09:48:10Z</time></trkpt><trkpt lat="46.11991461957867" lon="12.395137342445182"><ele>854.5</ele><time>2026-04-25T09:48:11Z</time></trkpt><trkpt lat="46.11998341272533" lon="12.39496193868599"><ele>853.75</ele><time>2026-04-25T09:48:12Z</time></trkpt><trkpt lat="46.12004006832457" lon="12.394769075113834"><ele>853.0</ele><time>2026-04-25T09:48:13Z</time></trkpt><trkpt lat="46.12009039140971" lon="12.39455574557512"><ele>851.0</ele><time>2026-04-25T09:48:14Z</time></trkpt><trkpt lat="46.120148632566035" lon="12.394334121496765"><ele>849.0</ele><time>2026-04-25T09:48:15Z</time></trkpt><trkpt lat="46.12019041366158" lon="12.394113890004743"><ele>847.0</ele><time>2026-04-25T09:48:16Z</time></trkpt><trkpt lat="46.12021964002554" lon="12.393899203707864"><ele>846.0</ele><time>2026-04-25T09:48:17Z</time></trkpt><trkpt lat="46.12027372696281" lon="12.39370442720605"><ele>845.0</ele><time>2026-04-25T09:48:18Z</time></trkpt><trkpt lat="46.12033702639994" lon="12.393523837080194"><ele>844.0</ele><time>2026-04-25T09:48:19Z</time></trkpt><trkpt lat="46.120411244867945" lon="12.39336030594482"><ele>843.0</ele><time>2026-04-25T09:48:20Z</time></trkpt><trkpt lat="46.120499496631574" lon="12.39319934032602"><ele>843.0</ele><time>2026-04-25T09:48:21Z</time></trkpt><trkpt lat="46.12060246627913" lon="12.393046048689905"><ele>843.0</ele><time>2026-04-25T09:48:22Z</time></trkpt><trkpt lat="46.120716639940355" lon="12.392905694491082"><ele>843.0</ele><time>2026-04-25T09:48:23Z</time></trkpt><trkpt lat="46.12083263798709" lon="12.392769275817011"><ele>843.0</ele><time>2026-04-25T09:48:24Z</time></trkpt><trkpt lat="46.12093803284776" lon="12.392612700409524"><ele>845.3333333333333</ele><time>2026-04-25T09:48:25Z</time></trkpt><trkpt lat="46.121032415187656" lon="12.392432298974638"><ele>847.6666666666666</ele><time>2026-04-25T09:48:26Z</time></trkpt><trkpt lat="46.12112169151367" lon="12.392239104630551"><ele>850.0</ele><time>2026-04-25T09:48:27Z</time></trkpt><trkpt lat="46.12121450196804" lon="12.392041706536506"><ele>850.0</ele><time>2026-04-25T09:48:28Z</time></trkpt><trkpt lat="46.12130772814025" lon="12.391843571147257"><ele>850.0</ele><time>2026-04-25T09:48:29Z</time></trkpt><trkpt lat="46.12140110994094" lon="12.391638454821095"><ele>850.0</ele><time>2026-04-25T09:48:30Z</time></trkpt><trkpt lat="46.121487820518745" lon="12.391451825501692"><ele>853.25</ele><time>2026-04-25T09:48:31Z</time></trkpt><trkpt lat="46.121566538139305" lon="12.391289514142139"><ele>856.5</ele><time>2026-04-25T09:48:32Z</time></trkpt><trkpt lat="46.121642580610555" lon="12.39114507955831"><ele>859.75</ele><time>2026-04-25T09:48:33Z</time></trkpt><trkpt lat="46.1217197276028" lon="12.391002425396815"><ele>863.0</ele><time>2026-04-25T09:48:34Z</time></trkpt><trkpt lat="46.12179299366372" lon="12.390860811693857"><ele>863.0</ele><time>2026-04-25T09:48:35Z</time></trkpt><trkpt lat="46.121865386574754" lon="12.390718248261411"><ele>863.0</ele><time>2026-04-25T09:48:36Z</time></trkpt><trkpt lat="46.12194599023256" lon="12.390576685094493"><ele>863.0</ele><time>2026-04-25T09:48:37Z</time></trkpt><trkpt lat="46.122037307666126" lon="12.39043869592334"><ele>863.0</ele><time>2026-04-25T09:48:38Z</time></trkpt><trkpt lat="46.12213889218135" lon="12.390303438185995"><ele>863.0</ele><time>2026-04-25T09:48:39Z</time></trkpt><trkpt lat="46.122246805393466" lon="12.390173705839038"><ele>863.0</ele><time>2026-04-25T09:48:40Z</time></trkpt><trkpt lat="46.12235497571604" lon="12.390057504534873"><ele>863.0</ele><time>2026-04-25T09:48:41Z</time></trkpt><trkpt lat="46.12246367915404" lon="12.389953630608217"><ele>863.0</ele><time>2026-04-25T09:48:42Z</time></trkpt><trkpt lat="46.1225667373831" lon="12.389859173259968"><ele>863.2</ele><time>2026-04-25T09:48:43Z</time></trkpt><trkpt lat="46.122667542464384" lon="12.389769572760713"><ele>863.4</ele><time>2026-04-25T09:48:44Z</time></trkpt><trkpt lat="46.12276182849905" lon="12.389687482752604"><ele>863.6000000000001</ele><time>2026-04-25T09:48:45Z</time></trkpt><trkpt lat="46.12285406918582" lon="12.389606479649817"><ele>863.8000000000001</ele><time>2026-04-25T09:48:46Z</time></trkpt><trkpt lat="46.12294290603523" lon="12.389526321161128"><ele>864.0</ele><time>2026-04-25T09:48:47Z</time></trkpt><trkpt lat="46.12303099319935" lon="12.389450061001241"><ele>864.0</ele><time>2026-04-25T09:48:48Z</time></trkpt><trkpt lat="46.12311104236517" lon="12.389383529395921"><ele>864.0</ele><time>2026-04-25T09:48:49Z</time></trkpt><trkpt lat="46.12318829018427" lon="12.389321275264809"><ele>864.0</ele><time>2026-04-25T09:48:50Z</time></trkpt><trkpt lat="46.1232598841623" lon="12.389257944026806"><ele>864.0</ele><time>2026-04-25T09:48:51Z</time></trkpt><trkpt lat="46.12331872220857" lon="12.389184019213728"><ele>864.0</ele><time>2026-04-25T09:48:52Z</time></trkpt><trkpt lat="46.12336631313732" lon="12.38909860552308"><ele>864.0</ele><time>2026-04-25T09:48:53Z</time></trkpt><trkpt lat="46.123404862101644" lon="12.388995121705705"><ele>862.0</ele><time>2026-04-25T09:48:54Z</time></trkpt><trkpt lat="46.12341716302764" lon="12.388864817667088"><ele>860.0000000000001</ele><time>2026-04-25T09:48:55Z</time></trkpt><trkpt lat="46.1234178635317" lon="12.388723374370832"><ele>858.0000000000001</ele><time>2026-04-25T09:48:56Z</time></trkpt><trkpt lat="46.123404549461924" lon="12.388577773880607"><ele>856.0</ele><time>2026-04-25T09:48:57Z</time></trkpt><trkpt lat="46.12338333584349" lon="12.388426361107708"><ele>854.0</ele><time>2026-04-25T09:48:58Z</time></trkpt><trkpt lat="46.12335656137516" lon="12.38827089620219"><ele>854.0</ele><time>2026-04-25T09:48:59Z</time></trkpt><trkpt lat="46.123334689938794" lon="12.388108942139448"><ele>854.0</ele><time>2026-04-25T09:49:00Z</time></trkpt><trkpt lat="46.123326933635845" lon="12.38794174373579"><ele>854.0</ele><time>2026-04-25T09:49:01Z</time></trkpt><trkpt lat="46.1233245587592" lon="12.387770562631447"><ele>854.0</ele><time>2026-04-25T09:49:02Z</time></trkpt><trkpt lat="46.12332081169402" lon="12.387605458962334"><ele>854.2</ele><time>2026-04-25T09:49:03Z</time></trkpt><trkpt lat="46.12329998984724" lon="12.38745810967444"><ele>854.4000000000001</ele><time>2026-04-25T09:49:04Z</time></trkpt><trkpt lat="46.12326793660467" lon="12.387325190018297"><ele>854.6</ele><time>2026-04-25T09:49:05Z</time></trkpt><trkpt lat="46.1232364086233" lon="12.387198079622015"><ele>854.8</ele><time>2026-04-25T09:49:06Z</time></trkpt><trkpt lat="46.12320290843712" lon="12.387067094792155"><ele>855.0</ele><time>2026-04-25T09:49:07Z</time></trkpt><trkpt lat="46.12317140098116" lon="12.386931557471796"><ele>853.3333333333334</ele><time>2026-04-25T09:49:08Z</time></trkpt><trkpt lat="46.123129598549234" lon="12.386809129742387"><ele>851.6666666666667</ele><time>2026-04-25T09:49:09Z</time></trkpt><trkpt lat="46.12308231502047" lon="12.386706929167111"><ele>850.0</ele><time>2026-04-25T09:49:10Z</time></trkpt><trkpt lat="46.12303593731733" lon="12.386611772920793"><ele>848.3333333333334</ele><time>2026-04-25T09:49:11Z</time></trkpt><trkpt lat="46.12299052626253" lon="12.386519907539492"><ele>846.6666666666667</ele><time>2026-04-25T09:49:12Z</time></trkpt><trkpt lat="46.122937906405625" lon="12.386428543828584"><ele>845.0</ele><time>2026-04-25T09:49:13Z</time></trkpt><trkpt lat="46.12287805886201" lon="12.386342185119348"><ele>845.0</ele><time>2026-04-25T09:49:14Z</time></trkpt><trkpt lat="46.12280747095283" lon="12.38626371070557"><ele>845.0</ele><time>2026-04-25T09:49:15Z</time></trkpt><trkpt lat="46.12273002217988" lon="12.386190751251764"><ele>845.0</ele><time>2026-04-25T09:49:16Z</time></trkpt><trkpt lat="46.122646974709475" lon="12.386118766195212"><ele>845.0</ele><time>2026-04-25T09:49:17Z</time></trkpt><trkpt lat="46.122563823818254" lon="12.386047463896956"><ele>845.0</ele><time>2026-04-25T09:49:18Z</time></trkpt><trkpt lat="46.12248982753437" lon="12.385976803367193"><ele>845.0000000000001</ele><time>2026-04-25T09:49:19Z</time></trkpt><trkpt lat="46.12242018812533" lon="12.385901707961574"><ele>845.0</ele><time>2026-04-25T09:49:20Z</time></trkpt><trkpt lat="46.12235017820902" lon="12.385813010270462"><ele>845.0</ele><time>2026-04-25T09:49:21Z</time></trkpt><trkpt lat="46.122289344777805" lon="12.385715379687356"><ele>845.0</ele><time>2026-04-25T09:49:22Z</time></trkpt><trkpt lat="46.12224006804142" lon="12.38561074969304"><ele>845.0000000000001</ele><time>2026-04-25T09:49:23Z</time></trkpt><trkpt lat="46.12219793501276" lon="12.385507127008779"><ele>845.0</ele><time>2026-04-25T09:49:24Z</time></trkpt><trkpt lat="46.1221615268466" lon="12.385407172709423"><ele>842.5000000000001</ele><time>2026-04-25T09:49:25Z</time></trkpt><trkpt lat="46.12212940736314" lon="12.385306802683994"><ele>840.0</ele><time>2026-04-25T09:49:26Z</time></trkpt><trkpt lat="46.12209560566179" lon="12.385214860398479"><ele>837.5</ele><time>2026-04-25T09:49:27Z</time></trkpt><trkpt lat="46.12206115957149" lon="12.385126266947692"><ele>835.0</ele><time>2026-04-25T09:49:28Z</time></trkpt><trkpt lat="46.12203179215605" lon="12.38504532508172"><ele>832.5000000000001</ele><time>2026-04-25T09:49:29Z</time></trkpt><trkpt lat="46.121977864413616" lon="12.384921539223175"><ele>830.0</ele><time>2026-04-25T09:49:31Z</time></trkpt><trkpt lat="46.12193513498382" lon="12.384837225326542"><ele>830.0000000000001</ele><time>2026-04-25T09:49:34Z</time></trkpt><trkpt lat="46.121873762630386" lon="12.384767789549088"><ele>830.0</ele><time>2026-04-25T09:51:02Z</time></trkpt><trkpt lat="46.12182512031834" lon="12.384689104979444"><ele>830.0</ele><time>2026-04-25T09:51:04Z</time></trkpt><trkpt lat="46.121782338643555" lon="12.384546101321842"><ele>830.0</ele><time>2026-04-25T09:51:06Z</time></trkpt><trkpt lat="46.121740192484374" lon="12.384466507007287"><ele>830.0000000000001</ele><time>2026-04-25T09:51:07Z</time></trkpt><trkpt lat="46.12169225323907" lon="12.384375972420097"><ele>830.0</ele><time>2026-04-25T09:51:08Z</time></trkpt><trkpt lat="46.12162870597016" lon="12.384291602370999"><ele>830.3333333333334</ele><time>2026-04-25T09:51:09Z</time></trkpt><trkpt lat="46.12158208880092" lon="12.38420060227971"><ele>830.6666666666667</ele><time>2026-04-25T09:51:10Z</time></trkpt><trkpt lat="46.12153759766862" lon="12.384111338704917"><ele>831.0</ele><time>2026-04-25T09:51:11Z</time></trkpt><trkpt lat="46.121490774204894" lon="12.38401353612979"><ele>831.3333333333333</ele><time>2026-04-25T09:51:12Z</time></trkpt><trkpt lat="46.121442487272915" lon="12.383908296236145"><ele>831.6666666666666</ele><time>2026-04-25T09:51:13Z</time></trkpt><trkpt lat="46.12139596618547" lon="12.383792862134827"><ele>832.0</ele><time>2026-04-25T09:51:14Z</time></trkpt><trkpt lat="46.12134706370073" lon="12.383673966236442"><ele>829.4000000000001</ele><time>2026-04-25T09:51:15Z</time></trkpt><trkpt lat="46.12129886167483" lon="12.383550325824137"><ele>826.8000000000001</ele><time>2026-04-25T09:51:16Z</time></trkpt><trkpt lat="46.12124701870028" lon="12.383423629016624"><ele>824.2</ele><time>2026-04-25T09:51:17Z</time></trkpt><trkpt lat="46.12119311786728" lon="12.383297022556565"><ele>821.6</ele><time>2026-04-25T09:51:18Z</time></trkpt><trkpt lat="46.12113914953847" lon="12.383168542093703"><ele>819.0</ele><time>2026-04-25T09:51:19Z</time></trkpt><trkpt lat="46.12108685908211" lon="12.383039439552809"><ele>818.6</ele><time>2026-04-25T09:51:20Z</time></trkpt><trkpt lat="46.121035581647206" lon="12.382909667980591"><ele>818.2</ele><time>2026-04-25T09:51:21Z</time></trkpt><trkpt lat="46.1209782770829" lon="12.38278182709478"><ele>817.8000000000001</ele><time>2026-04-25T09:51:22Z</time></trkpt><trkpt lat="46.120923034062265" lon="12.382649908205867"><ele>817.4000000000001</ele><time>2026-04-25T09:51:23Z</time></trkpt><trkpt lat="46.120866028372774" lon="12.382519832679634"><ele>817.0</ele><time>2026-04-25T09:51:24Z</time></trkpt><trkpt lat="46.12081893547831" lon="12.382385300477775"><ele>817.0</ele><time>2026-04-25T09:51:25Z</time></trkpt><trkpt lat="46.12077334453682" lon="12.382253663190221"><ele>817.0</ele><time>2026-04-25T09:51:26Z</time></trkpt><trkpt lat="46.12073091449038" lon="12.382114250135862"><ele>817.0</ele><time>2026-04-25T09:51:27Z</time></trkpt><trkpt lat="46.120690624662906" lon="12.38196688335628"><ele>817.0</ele><time>2026-04-25T09:51:28Z</time></trkpt><trkpt lat="46.12065639126184" lon="12.381811267035285"><ele>817.0</ele><time>2026-04-25T09:51:29Z</time></trkpt><trkpt lat="46.12062942702206" lon="12.381649869270134"><ele>806.5</ele><time>2026-04-25T09:51:30Z</time></trkpt><trkpt lat="46.12060735590948" lon="12.38148615106193"><ele>796.0</ele><time>2026-04-25T09:51:31Z</time></trkpt><trkpt lat="46.12059272388746" lon="12.381319814046117"><ele>785.5</ele><time>2026-04-25T09:51:32Z</time></trkpt><trkpt lat="46.120589165889" lon="12.381151407556493"><ele>775.0</ele><time>2026-04-25T09:51:33Z</time></trkpt><trkpt lat="46.120592897879725" lon="12.380978833904935"><ele>775.0</ele><time>2026-04-25T09:51:34Z</time></trkpt><trkpt lat="46.12060011387011" lon="12.380805576444045"><ele>775.0</ele><time>2026-04-25T09:51:35Z</time></trkpt><trkpt lat="46.12060824772408" lon="12.38063178260485"><ele>775.0</ele><time>2026-04-25T09:51:36Z</time></trkpt><trkpt lat="46.120622845745636" lon="12.380458191734478"><ele>775.0</ele><time>2026-04-25T09:51:37Z</time></trkpt><trkpt lat="46.120631393936286" lon="12.38028333063825"><ele>776.0</ele><time>2026-04-25T09:51:38Z</time></trkpt><trkpt lat="46.12063926962191" lon="12.380110046274607"><ele>777.0</ele><time>2026-04-25T09:51:39Z</time></trkpt><trkpt lat="46.12064820694857" lon="12.37994745778822"><ele>778.0</ele><time>2026-04-25T09:51:40Z</time></trkpt><trkpt lat="46.12065736963554" lon="12.379802817364192"><ele>779.0</ele><time>2026-04-25T09:51:41Z</time></trkpt><trkpt lat="46.1206687986618" lon="12.379674602042764"><ele>780.0</ele><time>2026-04-25T09:51:42Z</time></trkpt><trkpt lat="46.12069312597091" lon="12.379566156894834"><ele>781.4</ele><time>2026-04-25T09:51:43Z</time></trkpt><trkpt lat="46.12075225933427" lon="12.379461092700945"><ele>782.8</ele><time>2026-04-25T09:51:44Z</time></trkpt><trkpt lat="46.120808982000234" lon="12.379420272935699"><ele>784.2</ele><time>2026-04-25T09:51:45Z</time></trkpt><trkpt lat="46.12090255378117" lon="12.37939723584366"><ele>785.6</ele><time>2026-04-25T09:51:46Z</time></trkpt><trkpt lat="46.12100208729293" lon="12.37943381637074"><ele>787.0</ele><time>2026-04-25T09:51:47Z</time></trkpt><trkpt lat="46.121114567526746" lon="12.379441936661308"><ele>787.0</ele><time>2026-04-25T09:51:48Z</time></trkpt><trkpt lat="46.12123073982568" lon="12.379481329207666"><ele>787.0</ele><time>2026-04-25T09:51:49Z</time></trkpt><trkpt lat="46.121353925479475" lon="12.379519640435953"><ele>787.0</ele><time>2026-04-25T09:51:50Z</time></trkpt><trkpt lat="46.121489484247675" lon="12.379553376787573"><ele>787.0</ele><time>2026-04-25T09:51:51Z</time></trkpt><trkpt lat="46.12163336754813" lon="12.379586093426003"><ele>785.5</ele><time>2026-04-25T09:51:52Z</time></trkpt><trkpt lat="46.12177058295744" lon="12.379621067890508"><ele>784.0</ele><time>2026-04-25T09:51:53Z</time></trkpt><trkpt lat="46.121899612477634" lon="12.379659016957593"><ele>782.5</ele><time>2026-04-25T09:51:54Z</time></trkpt><trkpt lat="46.1220186729281" lon="12.379701497023998"><ele>781.0</ele><time>2026-04-25T09:51:55Z</time></trkpt><trkpt lat="46.122128876792125" lon="12.379758981852808"><ele>781.4</ele><time>2026-04-25T09:51:56Z</time></trkpt><trkpt lat="46.12223043952075" lon="12.379827073682113"><ele>781.8</ele><time>2026-04-25T09:51:57Z</time></trkpt><trkpt lat="46.122323811448815" lon="12.379897626576623"><ele>782.1999999999999</ele><time>2026-04-25T09:51:58Z</time></trkpt><trkpt lat="46.12240283315433" lon="12.3799578570089"><ele>782.5999999999999</ele><time>2026-04-25T09:51:59Z</time></trkpt><trkpt lat="46.12246236959671" lon="12.379992989572147"><ele>783.0</ele><time>2026-04-25T09:52:00Z</time></trkpt><trkpt lat="46.122571922181905" lon="12.379976977327736"><ele>783.0</ele><time>2026-04-25T09:52:02Z</time></trkpt><trkpt lat="46.12260621978546" lon="12.379805301499818"><ele>783.0</ele><time>2026-04-25T09:52:04Z</time></trkpt><trkpt lat="46.12256416466912" lon="12.379711791448562"><ele>783.0</ele><time>2026-04-25T09:52:05Z</time></trkpt><trkpt lat="46.12249186792692" lon="12.379653471372388"><ele>783.0</ele><time>2026-04-25T09:52:06Z</time></trkpt><trkpt lat="46.12240857340617" lon="12.379605274359609"><ele>783.0</ele><time>2026-04-25T09:52:07Z</time></trkpt><trkpt lat="46.122327908862424" lon="12.37953119845435"><ele>782.5</ele><time>2026-04-25T09:52:08Z</time></trkpt><trkpt lat="46.122245172391" lon="12.379413631346127"><ele>782.0</ele><time>2026-04-25T09:52:08.999Z</time></trkpt><trkpt lat="46.1221584575023" lon="12.379256411059659"><ele>781.5</ele><time>2026-04-25T09:52:09.999Z</time></trkpt><trkpt lat="46.12207736498261" lon="12.379075522379546"><ele>781.0</ele><time>2026-04-25T09:52:10.999Z</time></trkpt><trkpt lat="46.12199609121388" lon="12.37887432521732"><ele>774.6666666666666</ele><time>2026-04-25T09:52:11.999Z</time></trkpt><trkpt lat="46.12191345465564" lon="12.378681152791845"><ele>768.3333333333333</ele><time>2026-04-25T09:52:12.999Z</time></trkpt><trkpt lat="46.121828913436744" lon="12.378496759824499"><ele>762.0</ele><time>2026-04-25T09:52:13.999Z</time></trkpt><trkpt lat="46.12174806988492" lon="12.378321961882417"><ele>762.0</ele><time>2026-04-25T09:52:14.999Z</time></trkpt><trkpt lat="46.121665684453305" lon="12.378149559826852"><ele>762.0</ele><time>2026-04-25T09:52:15.999Z</time></trkpt><trkpt lat="46.12157097157158" lon="12.377984871357457"><ele>762.0</ele><time>2026-04-25T09:52:16.999Z</time></trkpt><trkpt lat="46.12146690026595" lon="12.377831045033712"><ele>762.0</ele><time>2026-04-25T09:52:17.999Z</time></trkpt><trkpt lat="46.121371048064866" lon="12.377663001841865"><ele>760.5</ele><time>2026-04-25T09:52:18.999Z</time></trkpt><trkpt lat="46.12129022154783" lon="12.3774775875758"><ele>759.0</ele><time>2026-04-25T09:52:19.999Z</time></trkpt><trkpt lat="46.12122837043149" lon="12.377289149486376"><ele>757.5</ele><time>2026-04-25T09:52:20.999Z</time></trkpt><trkpt lat="46.121176969824546" lon="12.37710634160347"><ele>756.0</ele><time>2026-04-25T09:52:21.999Z</time></trkpt><trkpt lat="46.12111832628929" lon="12.376938476081802"><ele>751.75</ele><time>2026-04-25T09:52:22.999Z</time></trkpt><trkpt lat="46.12104107175329" lon="12.376785397226612"><ele>747.5</ele><time>2026-04-25T09:52:23.999Z</time></trkpt><trkpt lat="46.120948646494966" lon="12.376654104585835"><ele>743.25</ele><time>2026-04-25T09:52:24.999Z</time></trkpt><trkpt lat="46.12086080732105" lon="12.37653922534702"><ele>739.0</ele><time>2026-04-25T09:52:25.999Z</time></trkpt><trkpt lat="46.12078510991372" lon="12.376440756413169"><ele>734.0</ele><time>2026-04-25T09:52:26.999Z</time></trkpt><trkpt lat="46.120711758592954" lon="12.376344026814726"><ele>729.0</ele><time>2026-04-25T09:52:27.999Z</time></trkpt><trkpt lat="46.12064030491951" lon="12.376248984885017"><ele>724.0</ele><time>2026-04-25T09:52:28.999Z</time></trkpt><trkpt lat="46.120570338327" lon="12.376159831805603"><ele>719.0</ele><time>2026-04-25T09:52:29.999Z</time></trkpt><trkpt lat="46.120509321171774" lon="12.376071290607443"><ele>714.0</ele><time>2026-04-25T09:52:30.999Z</time></trkpt><trkpt lat="46.1204599536609" lon="12.375965934444794"><ele>714.0</ele><time>2026-04-25T09:52:31.999Z</time></trkpt><trkpt lat="46.12043317784501" lon="12.375842368875796"><ele>714.0</ele><time>2026-04-25T09:52:32.999Z</time></trkpt><trkpt lat="46.12043136830375" lon="12.375712741161234"><ele>714.0</ele><time>2026-04-25T09:52:33.999Z</time></trkpt><trkpt lat="46.120456581846334" lon="12.375589138962653"><ele>714.0</ele><time>2026-04-25T09:52:34.999Z</time></trkpt><trkpt lat="46.12050872126525" lon="12.375488418307487"><ele>714.0</ele><time>2026-04-25T09:52:35.999Z</time></trkpt><trkpt lat="46.120581874938104" lon="12.375427446845006"><ele>714.0</ele><time>2026-04-25T09:52:36.999Z</time></trkpt><trkpt lat="46.12067278924343" lon="12.375403308077592"><ele>714.0</ele><time>2026-04-25T09:52:37.999Z</time></trkpt><trkpt lat="46.120766551877345" lon="12.375398045259933"><ele>714.0</ele><time>2026-04-25T09:52:39Z</time></trkpt><trkpt lat="46.12085449398989" lon="12.37537751548262"><ele>714.0</ele><time>2026-04-25T09:52:40Z</time></trkpt><trkpt lat="46.12093736676393" lon="12.375323582176632"><ele>714.0</ele><time>2026-04-25T09:52:41Z</time></trkpt><trkpt lat="46.121020454697884" lon="12.375241079702365"><ele>714.0</ele><time>2026-04-25T09:52:42Z</time></trkpt><trkpt lat="46.12110690928062" lon="12.375138043458163"><ele>714.0</ele><time>2026-04-25T09:52:43Z</time></trkpt><trkpt lat="46.12119563000252" lon="12.375025524351294"><ele>714.0</ele><time>2026-04-25T09:52:44Z</time></trkpt><trkpt lat="46.12129674804958" lon="12.374902629445481"><ele>714.0</ele><time>2026-04-25T09:52:45Z</time></trkpt><trkpt lat="46.121406276609285" lon="12.374771874928614"><ele>714.0</ele><time>2026-04-25T09:52:46Z</time></trkpt><trkpt lat="46.12152139515993" lon="12.374626832957652"><ele>710.0</ele><time>2026-04-25T09:52:47Z</time></trkpt><trkpt lat="46.121643003985476" lon="12.374471480969795"><ele>706.0</ele><time>2026-04-25T09:52:48Z</time></trkpt><trkpt lat="46.121772861345775" lon="12.374309856203377"><ele>702.0</ele><time>2026-04-25T09:52:49Z</time></trkpt><trkpt lat="46.12189910550192" lon="12.374148574180818"><ele>702.0</ele><time>2026-04-25T09:52:50Z</time></trkpt><trkpt lat="46.122028699195006" lon="12.373992485254123"><ele>702.0</ele><time>2026-04-25T09:52:51Z</time></trkpt><trkpt lat="46.122166046337206" lon="12.373845950546643"><ele>702.0</ele><time>2026-04-25T09:52:52Z</time></trkpt><trkpt lat="46.12231131060421" lon="12.373713696863447"><ele>701.0</ele><time>2026-04-25T09:52:53Z</time></trkpt><trkpt lat="46.12245727445621" lon="12.373614068009815"><ele>700.0</ele><time>2026-04-25T09:52:54Z</time></trkpt><trkpt lat="46.122587053892275" lon="12.373532848365718"><ele>699.0</ele><time>2026-04-25T09:52:55Z</time></trkpt><trkpt lat="46.12270335692751" lon="12.373449596272343"><ele>698.0</ele><time>2026-04-25T09:52:56Z</time></trkpt><trkpt lat="46.1228039128906" lon="12.373352131773123"><ele>698.0</ele><time>2026-04-25T09:52:57Z</time></trkpt><trkpt lat="46.12288366609151" lon="12.373227897272255"><ele>698.0</ele><time>2026-04-25T09:52:58Z</time></trkpt><trkpt lat="46.12294855432619" lon="12.373085584976518"><ele>698.0</ele><time>2026-04-25T09:52:59Z</time></trkpt><trkpt lat="46.12301020940604" lon="12.372941016278675"><ele>698.0</ele><time>2026-04-25T09:53:00Z</time></trkpt><trkpt lat="46.12308128890607" lon="12.37279447141956"><ele>698.2</ele><time>2026-04-25T09:53:01Z</time></trkpt><trkpt lat="46.1231644381359" lon="12.372675784431795"><ele>698.4</ele><time>2026-04-25T09:53:02Z</time></trkpt><trkpt lat="46.12323504603967" lon="12.372566734453443"><ele>698.6</ele><time>2026-04-25T09:53:03Z</time></trkpt><trkpt lat="46.12329977849302" lon="12.372483010192163"><ele>698.8000000000001</ele><time>2026-04-25T09:53:04Z</time></trkpt><trkpt lat="46.12334676284903" lon="12.372412325402234"><ele>699.0</ele><time>2026-04-25T09:53:05Z</time></trkpt><trkpt lat="46.12342748955207" lon="12.372359535933262"><ele>697.2</ele><time>2026-04-25T09:53:07Z</time></trkpt><trkpt lat="46.12349148327175" lon="12.37231227765517"><ele>695.4000000000001</ele><time>2026-04-25T09:53:10Z</time></trkpt><trkpt lat="46.12357185781647" lon="12.372264173662664"><ele>693.6</ele><time>2026-04-25T09:54:48Z</time></trkpt><trkpt lat="46.12365642574353" lon="12.372186395555275"><ele>691.8</ele><time>2026-04-25T09:54:51Z</time></trkpt><trkpt lat="46.12374121417146" lon="12.372114321053738"><ele>690.0</ele><time>2026-04-25T09:54:53Z</time></trkpt><trkpt lat="46.12383977097306" lon="12.372015683483358"><ele>690.0</ele><time>2026-04-25T09:54:55Z</time></trkpt><trkpt lat="46.12392101923505" lon="12.371964623653735"><ele>690.0</ele><time>2026-04-25T09:54:56Z</time></trkpt><trkpt lat="46.123982515150956" lon="12.371850923468262"><ele>690.0</ele><time>2026-04-25T09:54:57Z</time></trkpt><trkpt lat="46.12404216001573" lon="12.371735847022912"><ele>690.0</ele><time>2026-04-25T09:54:58Z</time></trkpt><trkpt lat="46.12410971745494" lon="12.371619650373203"><ele>690.0</ele><time>2026-04-25T09:54:59Z</time></trkpt><trkpt lat="46.124174460177805" lon="12.371510816834958"><ele>686.0</ele><time>2026-04-25T09:55:00Z</time></trkpt><trkpt lat="46.124239303877694" lon="12.371410474397699"><ele>682.0</ele><time>2026-04-25T09:55:01Z</time></trkpt><trkpt lat="46.124308752326215" lon="12.371315711108544"><ele>678.0</ele><time>2026-04-25T09:55:02Z</time></trkpt><trkpt lat="46.12436446973649" lon="12.371190850948055"><ele>674.0</ele><time>2026-04-25T09:55:03Z</time></trkpt><trkpt lat="46.124437279396055" lon="12.371095045338569"><ele>670.0</ele><time>2026-04-25T09:55:04Z</time></trkpt><trkpt lat="46.12453110240882" lon="12.371071084535378"><ele>670.0</ele><time>2026-04-25T09:55:05Z</time></trkpt><trkpt lat="46.12461536173515" lon="12.370999111951235"><ele>670.0</ele><time>2026-04-25T09:55:06Z</time></trkpt><trkpt lat="46.12467916786449" lon="12.370957584483206"><ele>670.0</ele><time>2026-04-25T09:55:07Z</time></trkpt><trkpt lat="46.124777939192484" lon="12.370906305458538"><ele>670.0</ele><time>2026-04-25T09:55:08Z</time></trkpt><trkpt lat="46.124889055214545" lon="12.370855000594643"><ele>670.0</ele><time>2026-04-25T09:55:09Z</time></trkpt><trkpt lat="46.124977807805905" lon="12.370815543720724"><ele>666.1666666666667</ele><time>2026-04-25T09:55:10Z</time></trkpt><trkpt lat="46.125053253174116" lon="12.370781553855158"><ele>662.3333333333334</ele><time>2026-04-25T09:55:11Z</time></trkpt><trkpt lat="46.12512698719139" lon="12.37071913799428"><ele>658.5</ele><time>2026-04-25T09:55:12Z</time></trkpt><trkpt lat="46.12519974747035" lon="12.3706689326127"><ele>654.6666666666666</ele><time>2026-04-25T09:55:13Z</time></trkpt><trkpt lat="46.12526044496612" lon="12.37058237197209"><ele>650.8333333333333</ele><time>2026-04-25T09:55:14Z</time></trkpt><trkpt lat="46.12530767046435" lon="12.370472753117419"><ele>647.0</ele><time>2026-04-25T09:55:15Z</time></trkpt><trkpt lat="46.125349682316546" lon="12.370350805137097"><ele>646.0</ele><time>2026-04-25T09:55:16Z</time></trkpt><trkpt lat="46.125390396007454" lon="12.370215363798827"><ele>645.0</ele><time>2026-04-25T09:55:17Z</time></trkpt><trkpt lat="46.12543643777317" lon="12.370076018957503"><ele>644.0</ele><time>2026-04-25T09:55:18Z</time></trkpt><trkpt lat="46.12548673272876" lon="12.369928685603284"><ele>643.0</ele><time>2026-04-25T09:55:19Z</time></trkpt><trkpt lat="46.125543567279124" lon="12.369802837663906"><ele>642.0</ele><time>2026-04-25T09:55:20Z</time></trkpt><trkpt lat="46.12559760956073" lon="12.369689683555295"><ele>637.4</ele><time>2026-04-25T09:55:21Z</time></trkpt><trkpt lat="46.12563997912116" lon="12.36958860454494"><ele>632.8000000000001</ele><time>2026-04-25T09:55:22Z</time></trkpt><trkpt lat="46.1256843964296" lon="12.369513148672494"><ele>628.2</ele><time>2026-04-25T09:55:23Z</time></trkpt><trkpt lat="46.125739033847616" lon="12.369372802610783"><ele>623.6</ele><time>2026-04-25T09:55:25Z</time></trkpt><trkpt lat="46.12579418734339" lon="12.369293404654327"><ele>619.0</ele><time>2026-04-25T09:55:27Z</time></trkpt><trkpt lat="46.12587253138554" lon="12.36940704427644"><ele>619.0</ele><time>2026-04-25T09:55:29Z</time></trkpt><trkpt lat="46.12584187154409" lon="12.369514730759573"><ele>619.0</ele><time>2026-04-25T09:55:30Z</time></trkpt><trkpt lat="46.1258097801481" lon="12.369651568667022"><ele>619.0</ele><time>2026-04-25T09:55:31Z</time></trkpt><trkpt lat="46.12579276586558" lon="12.369789281598644"><ele>619.0</ele><time>2026-04-25T09:55:32Z</time></trkpt><trkpt lat="46.125804910958685" lon="12.369919242481886"><ele>619.0</ele><time>2026-04-25T09:55:33Z</time></trkpt><trkpt lat="46.125841885434376" lon="12.37004197561098"><ele>620.5</ele><time>2026-04-25T09:55:34Z</time></trkpt><trkpt lat="46.12590750542505" lon="12.37015397792641"><ele>622.0</ele><time>2026-04-25T09:55:35Z</time></trkpt><trkpt lat="46.12597107915699" lon="12.370254164985349"><ele>623.5</ele><time>2026-04-25T09:55:36Z</time></trkpt><trkpt lat="46.126026746835194" lon="12.370354470966692"><ele>625.0</ele><time>2026-04-25T09:55:37Z</time></trkpt><trkpt lat="46.12608715286417" lon="12.370448180855623"><ele>626.5</ele><time>2026-04-25T09:55:38Z</time></trkpt><trkpt lat="46.12614621750414" lon="12.370517000523758"><ele>628.0</ele><time>2026-04-25T09:55:39Z</time></trkpt><trkpt lat="46.12620966520376" lon="12.370556014258216"><ele>628.0</ele><time>2026-04-25T09:55:40Z</time></trkpt><trkpt lat="46.12627826761215" lon="12.370544125227669"><ele>628.0</ele><time>2026-04-25T09:55:41Z</time></trkpt><trkpt lat="46.1263421741755" lon="12.370488537022936"><ele>628.0</ele><time>2026-04-25T09:55:42Z</time></trkpt><trkpt lat="46.126382939176146" lon="12.37039528170554"><ele>628.0</ele><time>2026-04-25T09:55:43Z</time></trkpt><trkpt lat="46.12639523650058" lon="12.370271201131201"><ele>628.0</ele><time>2026-04-25T09:55:44Z</time></trkpt><trkpt lat="46.12637175944969" lon="12.37013907747663"><ele>628.0</ele><time>2026-04-25T09:55:45Z</time></trkpt><trkpt lat="46.12632257408372" lon="12.370011169318197"><ele>628.0</ele><time>2026-04-25T09:55:46Z</time></trkpt><trkpt lat="46.12629019810365" lon="12.369871694568548"><ele>628.0</ele><time>2026-04-25T09:55:47Z</time></trkpt><trkpt lat="46.12624842495899" lon="12.369747914065561"><ele>628.0</ele><time>2026-04-25T09:55:48Z</time></trkpt><trkpt lat="46.12625319296484" lon="12.369618171019573"><ele>628.0</ele><time>2026-04-25T09:55:49Z</time></trkpt><trkpt lat="46.12628816045278" lon="12.369487153590576"><ele>628.0</ele><time>2026-04-25T09:55:50Z</time></trkpt><trkpt lat="46.1263365870783" lon="12.369355636988521"><ele>626.1999999999999</ele><time>2026-04-25T09:55:51Z</time></trkpt><trkpt lat="46.126379757586776" lon="12.369225770767502"><ele>624.4</ele><time>2026-04-25T09:55:52Z</time></trkpt><trkpt lat="46.12641421378635" lon="12.369097249961209"><ele>622.5999999999999</ele><time>2026-04-25T09:55:53Z</time></trkpt><trkpt lat="46.126423110439156" lon="12.36896517305824"><ele>620.8</ele><time>2026-04-25T09:55:54Z</time></trkpt><trkpt lat="46.12641224159499" lon="12.368836747426544"><ele>619.0</ele><time>2026-04-25T09:55:55Z</time></trkpt><trkpt lat="46.12638616090053" lon="12.36870809950756"><ele>615.2</ele><time>2026-04-25T09:55:56Z</time></trkpt><trkpt lat="46.12634852551686" lon="12.368577116802895"><ele>611.4</ele><time>2026-04-25T09:55:57Z</time></trkpt><trkpt lat="46.12629189211731" lon="12.368455948126897"><ele>607.6</ele><time>2026-04-25T09:55:58Z</time></trkpt><trkpt lat="46.12622073316666" lon="12.368346327909276"><ele>603.8</ele><time>2026-04-25T09:55:59Z</time></trkpt><trkpt lat="46.12613655896282" lon="12.368257533020511"><ele>600.0</ele><time>2026-04-25T09:56:00Z</time></trkpt><trkpt lat="46.12604440423714" lon="12.368192018325663"><ele>600.0</ele><time>2026-04-25T09:56:00.999Z</time></trkpt><trkpt lat="46.125951644082676" lon="12.368156314921107"><ele>600.0</ele><time>2026-04-25T09:56:01.999Z</time></trkpt><trkpt lat="46.12585603569455" lon="12.36814720161121"><ele>600.0</ele><time>2026-04-25T09:56:02.999Z</time></trkpt><trkpt lat="46.12575719081474" lon="12.368174271335693"><ele>600.0</ele><time>2026-04-25T09:56:03.999Z</time></trkpt><trkpt lat="46.12566034570797" lon="12.368221783936196"><ele>600.0</ele><time>2026-04-25T09:56:04.999Z</time></trkpt><trkpt lat="46.125562954091635" lon="12.368296401126479"><ele>597.5</ele><time>2026-04-25T09:56:05.999Z</time></trkpt><trkpt lat="46.12545768730467" lon="12.368380546257299"><ele>595.0</ele><time>2026-04-25T09:56:06.999Z</time></trkpt><trkpt lat="46.125347596693736" lon="12.36843157135745"><ele>592.5</ele><time>2026-04-25T09:56:07.999Z</time></trkpt><trkpt lat="46.125239931933244" lon="12.368446776487987"><ele>590.0</ele><time>2026-04-25T09:56:08.999Z</time></trkpt><trkpt lat="46.12513298851289" lon="12.368439932334526"><ele>590.0</ele><time>2026-04-25T09:56:09.999Z</time></trkpt><trkpt lat="46.12503079330538" lon="12.368417269094317"><ele>590.0</ele><time>2026-04-25T09:56:10.999Z</time></trkpt><trkpt lat="46.124933166128635" lon="12.36838271759238"><ele>590.0</ele><time>2026-04-25T09:56:11.999Z</time></trkpt><trkpt lat="46.12483995347383" lon="12.368339836171678"><ele>590.0</ele><time>2026-04-25T09:56:12.999Z</time></trkpt><trkpt lat="46.12476005535917" lon="12.368295197267823"><ele>590.0</ele><time>2026-04-25T09:56:13.999Z</time></trkpt><trkpt lat="46.12469064493277" lon="12.368251533876778"><ele>590.8333333333333</ele><time>2026-04-25T09:56:14.999Z</time></trkpt><trkpt lat="46.12462984852505" lon="12.368205571011192"><ele>591.6666666666666</ele><time>2026-04-25T09:56:15.999Z</time></trkpt><trkpt lat="46.124572303489934" lon="12.368057370029685"><ele>592.5</ele><time>2026-04-25T09:56:17.999Z</time></trkpt><trkpt lat="46.12461389550408" lon="12.367976520875954"><ele>593.3333333333334</ele><time>2026-04-25T09:56:18.999Z</time></trkpt><trkpt lat="46.12469970924287" lon="12.367958270013357"><ele>594.1666666666667</ele><time>2026-04-25T09:56:19.999Z</time></trkpt><trkpt lat="46.12479271157348" lon="12.367989960016295"><ele>595.0</ele><time>2026-04-25T09:56:20.999Z</time></trkpt><trkpt lat="46.12488099838432" lon="12.368004660012621"><ele>590.4</ele><time>2026-04-25T09:56:21.999Z</time></trkpt><trkpt lat="46.124974912289225" lon="12.36798678706849"><ele>585.8</ele><time>2026-04-25T09:56:22.999Z</time></trkpt><trkpt lat="46.125066247230805" lon="12.367935725917821"><ele>581.2</ele><time>2026-04-25T09:56:23.999Z</time></trkpt><trkpt lat="46.125157992993884" lon="12.367850226671873"><ele>576.6</ele><time>2026-04-25T09:56:24.999Z</time></trkpt><trkpt lat="46.1252401859222" lon="12.367727126108035"><ele>572.0</ele><time>2026-04-25T09:56:25.999Z</time></trkpt><trkpt lat="46.12532485983506" lon="12.367598446375014"><ele>572.0</ele><time>2026-04-25T09:56:26.999Z</time></trkpt><trkpt lat="46.125424558527946" lon="12.367492573740627"><ele>572.0</ele><time>2026-04-25T09:56:27.999Z</time></trkpt><trkpt lat="46.12553029356047" lon="12.367422369440837"><ele>572.0</ele><time>2026-04-25T09:56:28.999Z</time></trkpt><trkpt lat="46.12564615625831" lon="12.367383321695659"><ele>572.0</ele><time>2026-04-25T09:56:29.999Z</time></trkpt><trkpt lat="46.12576342301201" lon="12.367345442758126"><ele>573.75</ele><time>2026-04-25T09:56:30.999Z</time></trkpt><trkpt lat="46.12587366953926" lon="12.367287533798784"><ele>575.5</ele><time>2026-04-25T09:56:31.999Z</time></trkpt><trkpt lat="46.12597311599664" lon="12.367192826844553"><ele>577.25</ele><time>2026-04-25T09:56:32.999Z</time></trkpt><trkpt lat="46.126059800857185" lon="12.367074960048482"><ele>579.0</ele><time>2026-04-25T09:56:33.999Z</time></trkpt><trkpt lat="46.12613384861292" lon="12.366966695935465"><ele>574.4</ele><time>2026-04-25T09:56:34.999Z</time></trkpt><trkpt lat="46.126204087308984" lon="12.366863004064227"><ele>569.8</ele><time>2026-04-25T09:56:35.999Z</time></trkpt><trkpt lat="46.12627978340449" lon="12.366762262967256"><ele>565.2</ele><time>2026-04-25T09:56:36.999Z</time></trkpt><trkpt lat="46.12636179645888" lon="12.366682207437574"><ele>560.6</ele><time>2026-04-25T09:56:37.999Z</time></trkpt><trkpt lat="46.12645536650273" lon="12.366644363083095"><ele>556.0</ele><time>2026-04-25T09:56:38.999Z</time></trkpt><trkpt lat="46.12654568027284" lon="12.366639994792015"><ele>556.4285714285714</ele><time>2026-04-25T09:56:39.999Z</time></trkpt><trkpt lat="46.12662336545918" lon="12.366663104606317"><ele>556.8571428571429</ele><time>2026-04-25T09:56:40.999Z</time></trkpt><trkpt lat="46.12669182094624" lon="12.366706731477631"><ele>557.2857142857143</ele><time>2026-04-25T09:56:41.999Z</time></trkpt><trkpt lat="46.126751662526765" lon="12.366752154725665"><ele>557.7142857142858</ele><time>2026-04-25T09:56:42.999Z</time></trkpt><trkpt lat="46.126816973714" lon="12.366773656259024"><ele>558.1428571428572</ele><time>2026-04-25T09:56:43.999Z</time></trkpt><trkpt lat="46.1268768867385" lon="12.36673706640305"><ele>558.5714285714286</ele><time>2026-04-25T09:56:44.999Z</time></trkpt><trkpt lat="46.1269080673077" lon="12.366653089566972"><ele>559.0</ele><time>2026-04-25T09:56:45.999Z</time></trkpt><trkpt lat="46.12689415552197" lon="12.366551603573615"><ele>559.0</ele><time>2026-04-25T09:56:46.999Z</time></trkpt><trkpt lat="46.126863708123345" lon="12.366428331835342"><ele>559.0</ele><time>2026-04-25T09:56:47.999Z</time></trkpt><trkpt lat="46.12676796172555" lon="12.3663631119336"><ele>559.0</ele><time>2026-04-25T09:56:48.999Z</time></trkpt><trkpt lat="46.12666534328004" lon="12.366315071832428"><ele>559.0</ele><time>2026-04-25T09:56:49.999Z</time></trkpt><trkpt lat="46.12655775378911" lon="12.366247317722452"><ele>559.0</ele><time>2026-04-25T09:56:51Z</time></trkpt><trkpt lat="46.12643430695195" lon="12.366197145308938"><ele>555.5</ele><time>2026-04-25T09:56:52Z</time></trkpt><trkpt lat="46.12629980689544" lon="12.366164248124809"><ele>552.0</ele><time>2026-04-25T09:56:53Z</time></trkpt><trkpt lat="46.126174727544544" lon="12.366136992141476"><ele>548.5</ele><time>2026-04-25T09:56:54Z</time></trkpt><trkpt lat="46.12606041959807" lon="12.36610667706814"><ele>545.0</ele><time>2026-04-25T09:56:55Z</time></trkpt><trkpt lat="46.12595195066584" lon="12.36608035297801"><ele>545.0</ele><time>2026-04-25T09:56:56Z</time></trkpt><trkpt lat="46.12585869398385" lon="12.366056976852391"><ele>545.0</ele><time>2026-04-25T09:56:57Z</time></trkpt><trkpt lat="46.12577591778805" lon="12.365994808018808"><ele>545.0</ele><time>2026-04-25T09:56:58Z</time></trkpt><trkpt lat="46.12571920115146" lon="12.365878085847266"><ele>545.0</ele><time>2026-04-25T09:56:59Z</time></trkpt><trkpt lat="46.12568095311755" lon="12.365717801636464"><ele>545.0</ele><time>2026-04-25T09:57:00Z</time></trkpt><trkpt lat="46.12564709584602" lon="12.365561798061954"><ele>541.2</ele><time>2026-04-25T09:57:01Z</time></trkpt><trkpt lat="46.12560418647526" lon="12.365419757669853"><ele>537.4</ele><time>2026-04-25T09:57:02Z</time></trkpt><trkpt lat="46.125534757605614" lon="12.36530315744155"><ele>533.6</ele><time>2026-04-25T09:57:03Z</time></trkpt><trkpt lat="46.1254407955987" lon="12.365218517923141"><ele>529.8</ele><time>2026-04-25T09:57:04Z</time></trkpt><trkpt lat="46.12534510561801" lon="12.365170109045087"><ele>526.0</ele><time>2026-04-25T09:57:05Z</time></trkpt><trkpt lat="46.12525681771499" lon="12.365149969271052"><ele>526.0</ele><time>2026-04-25T09:57:06Z</time></trkpt><trkpt lat="46.125170799322966" lon="12.36515758756786"><ele>526.0</ele><time>2026-04-25T09:57:07Z</time></trkpt><trkpt lat="46.12509681728257" lon="12.365172622993171"><ele>526.0</ele><time>2026-04-25T09:57:08Z</time></trkpt><trkpt lat="46.12502974707495" lon="12.365169756182569"><ele>526.0</ele><time>2026-04-25T09:57:09Z</time></trkpt><trkpt lat="46.12497096504334" lon="12.365127544804173"><ele>526.0</ele><time>2026-04-25T09:57:10Z</time></trkpt><trkpt lat="46.124934078144456" lon="12.365043858726018"><ele>526.0</ele><time>2026-04-25T09:57:11Z</time></trkpt><trkpt lat="46.124933956400824" lon="12.364934202440935"><ele>526.0</ele><time>2026-04-25T09:57:12Z</time></trkpt><trkpt lat="46.12497452072262" lon="12.36481913244006"><ele>524.0</ele><time>2026-04-25T09:57:13Z</time></trkpt><trkpt lat="46.12502817601569" lon="12.364695764021748"><ele>522.0</ele><time>2026-04-25T09:57:14Z</time></trkpt><trkpt lat="46.12508176593779" lon="12.3645636650718"><ele>520.0</ele><time>2026-04-25T09:57:15Z</time></trkpt><trkpt lat="46.125131930036446" lon="12.36442973540304"><ele>518.0</ele><time>2026-04-25T09:57:16Z</time></trkpt><trkpt lat="46.125181963844746" lon="12.36429889115649"><ele>516.0</ele><time>2026-04-25T09:57:17Z</time></trkpt><trkpt lat="46.125229120135906" lon="12.364169152142185"><ele>516.0</ele><time>2026-04-25T09:57:18Z</time></trkpt><trkpt lat="46.12527494594506" lon="12.364039059599797"><ele>516.0</ele><time>2026-04-25T09:57:19Z</time></trkpt><trkpt lat="46.12533965743759" lon="12.36392806131036"><ele>516.0</ele><time>2026-04-25T09:57:20Z</time></trkpt><trkpt lat="46.12539290202434" lon="12.363813758176674"><ele>516.0</ele><time>2026-04-25T09:57:21Z</time></trkpt><trkpt lat="46.125436809723524" lon="12.36370785027729"><ele>516.0</ele><time>2026-04-25T09:57:22Z</time></trkpt><trkpt lat="46.1255176753243" lon="12.36365095415314"><ele>515.0</ele><time>2026-04-25T09:57:23Z</time></trkpt><trkpt lat="46.12561420218706" lon="12.363640058613292"><ele>514.0</ele><time>2026-04-25T09:57:24Z</time></trkpt><trkpt lat="46.125710710086345" lon="12.363642768122295"><ele>513.0</ele><time>2026-04-25T09:57:25Z</time></trkpt><trkpt lat="46.12580265719008" lon="12.363647150463429"><ele>512.0</ele><time>2026-04-25T09:57:26Z</time></trkpt><trkpt lat="46.12589105929677" lon="12.363643263752827"><ele>511.0</ele><time>2026-04-25T09:57:27Z</time></trkpt><trkpt lat="46.12597735932571" lon="12.363637611984558"><ele>511.00000000000006</ele><time>2026-04-25T09:57:28Z</time></trkpt><trkpt lat="46.12606244240543" lon="12.363634021111181"><ele>511.0</ele><time>2026-04-25T09:57:29Z</time></trkpt><trkpt lat="46.12614806728203" lon="12.36364358548138"><ele>511.0</ele><time>2026-04-25T09:57:30Z</time></trkpt><trkpt lat="46.12623157651293" lon="12.36360360110494"><ele>511.0</ele><time>2026-04-25T09:57:31Z</time></trkpt><trkpt lat="46.126305754760594" lon="12.363538818576489"><ele>511.00000000000006</ele><time>2026-04-25T09:57:32Z</time></trkpt><trkpt lat="46.12635351413856" lon="12.363426470155218"><ele>511.0</ele><time>2026-04-25T09:57:33Z</time></trkpt><trkpt lat="46.12637814449164" lon="12.363276808222865"><ele>511.0</ele><time>2026-04-25T09:57:34Z</time></trkpt><trkpt lat="46.12639097012812" lon="12.363110695015617"><ele>511.0</ele><time>2026-04-25T09:57:35Z</time></trkpt><trkpt lat="46.126411219633134" lon="12.362965306897665"><ele>511.0</ele><time>2026-04-25T09:57:36Z</time></trkpt><trkpt lat="46.12643212034604" lon="12.362847122681705"><ele>511.0</ele><time>2026-04-25T09:57:37Z</time></trkpt><trkpt lat="46.126475325391084" lon="12.362742132044083"><ele>511.0</ele><time>2026-04-25T09:57:38Z</time></trkpt><trkpt lat="46.126551777349164" lon="12.362659438607473"><ele>509.25</ele><time>2026-04-25T09:57:39Z</time></trkpt><trkpt lat="46.12665294198824" lon="12.362607236113055"><ele>507.5</ele><time>2026-04-25T09:57:40Z</time></trkpt><trkpt lat="46.126775725506874" lon="12.362571227723812"><ele>505.75</ele><time>2026-04-25T09:57:41Z</time></trkpt><trkpt lat="46.126884867162104" lon="12.362512684076062"><ele>504.0</ele><time>2026-04-25T09:57:42Z</time></trkpt><trkpt lat="46.12700040579934" lon="12.362487571479436"><ele>504.0</ele><time>2026-04-25T09:57:43Z</time></trkpt><trkpt lat="46.12713520775808" lon="12.362498411930176"><ele>504.0</ele><time>2026-04-25T09:57:44Z</time></trkpt><trkpt lat="46.1272689046579" lon="12.362535921455342"><ele>504.0</ele><time>2026-04-25T09:57:45Z</time></trkpt><trkpt lat="46.12739804575431" lon="12.362576904079186"><ele>504.0</ele><time>2026-04-25T09:57:46Z</time></trkpt><trkpt lat="46.12751460830614" lon="12.362610065229168"><ele>502.2</ele><time>2026-04-25T09:57:47Z</time></trkpt><trkpt lat="46.12763249330902" lon="12.362646002916483"><ele>500.4</ele><time>2026-04-25T09:57:48Z</time></trkpt><trkpt lat="46.12774690860608" lon="12.36268088025021"><ele>498.6</ele><time>2026-04-25T09:57:49Z</time></trkpt><trkpt lat="46.12785451339009" lon="12.362700138248266"><ele>496.8</ele><time>2026-04-25T09:57:50Z</time></trkpt><trkpt lat="46.12795506519901" lon="12.362719088186688"><ele>495.0</ele><time>2026-04-25T09:57:51Z</time></trkpt><trkpt lat="46.12805812876536" lon="12.36267437334949"><ele>495.0</ele><time>2026-04-25T09:57:52Z</time></trkpt><trkpt lat="46.12815498722382" lon="12.362638249097659"><ele>495.0</ele><time>2026-04-25T09:57:53Z</time></trkpt><trkpt lat="46.12824547404328" lon="12.362604462892465"><ele>495.0</ele><time>2026-04-25T09:57:53.999Z</time></trkpt><trkpt lat="46.12832854064914" lon="12.362604639761969"><ele>495.0</ele><time>2026-04-25T09:57:54.999Z</time></trkpt><trkpt lat="46.12841267214192" lon="12.362642913237735"><ele>495.0</ele><time>2026-04-25T09:57:55.999Z</time></trkpt><trkpt lat="46.12848299856087" lon="12.36270973382615"><ele>495.0</ele><time>2026-04-25T09:57:56.999Z</time></trkpt><trkpt lat="46.128536962797675" lon="12.362803455317538"><ele>493.1666666666667</ele><time>2026-04-25T09:57:57.999Z</time></trkpt><trkpt lat="46.128579320943395" lon="12.362879749272016"><ele>491.33333333333337</ele><time>2026-04-25T09:57:58.999Z</time></trkpt><trkpt lat="46.128632392881414" lon="12.362933712518798"><ele>489.5</ele><time>2026-04-25T09:57:59.999Z</time></trkpt><trkpt lat="46.1287457478821" lon="12.362924401836027"><ele>487.6666666666667</ele><time>2026-04-25T09:58:01.999Z</time></trkpt><trkpt lat="46.128810851844115" lon="12.362778084486802"><ele>485.83333333333337</ele><time>2026-04-25T09:58:03.999Z</time></trkpt><trkpt lat="46.12879548976193" lon="12.36268340610907"><ele>484.0</ele><time>2026-04-25T09:58:04.999Z</time></trkpt><trkpt lat="46.128746097230625" lon="12.362603467434392"><ele>484.0</ele><time>2026-04-25T09:58:05.999Z</time></trkpt><trkpt lat="46.12868263713226" lon="12.362523603229446"><ele>484.0</ele><time>2026-04-25T09:58:06.999Z</time></trkpt><trkpt lat="46.128619977739646" lon="12.362427229930645"><ele>484.0</ele><time>2026-04-25T09:58:07.999Z</time></trkpt><trkpt lat="46.12855767184783" lon="12.362311325084535"><ele>484.0</ele><time>2026-04-25T09:58:08.999Z</time></trkpt><trkpt lat="46.12849400148898" lon="12.362183966260002"><ele>484.0</ele><time>2026-04-25T09:58:09.999Z</time></trkpt><trkpt lat="46.128425960307645" lon="12.362049005441168"><ele>483.75</ele><time>2026-04-25T09:58:10.999Z</time></trkpt><trkpt lat="46.12835563948906" lon="12.361903924049356"><ele>483.5</ele><time>2026-04-25T09:58:11.999Z</time></trkpt><trkpt lat="46.128286434746386" lon="12.361768871593386"><ele>483.25</ele><time>2026-04-25T09:58:12.999Z</time></trkpt><trkpt lat="46.12821555938562" lon="12.361653151357832"><ele>483.0</ele><time>2026-04-25T09:58:13.999Z</time></trkpt><trkpt lat="46.12813059972269" lon="12.361545109843261"><ele>483.0</ele><time>2026-04-25T09:58:14.999Z</time></trkpt><trkpt lat="46.12804038151819" lon="12.361444593927395"><ele>482.99999999999994</ele><time>2026-04-25T09:58:15.999Z</time></trkpt><trkpt lat="46.127958044193264" lon="12.36135836672477"><ele>482.99999999999994</ele><time>2026-04-25T09:58:16.999Z</time></trkpt><trkpt lat="46.127877567574224" lon="12.361274242905166"><ele>483.0</ele><time>2026-04-25T09:58:17.999Z</time></trkpt><trkpt lat="46.127812137336775" lon="12.361175860713328"><ele>483.0</ele><time>2026-04-25T09:58:18.999Z</time></trkpt><trkpt lat="46.12777034512006" lon="12.361039731735438"><ele>479.75</ele><time>2026-04-25T09:58:19.999Z</time></trkpt><trkpt lat="46.12775054872211" lon="12.360872614321478"><ele>476.5</ele><time>2026-04-25T09:58:20.999Z</time></trkpt><trkpt lat="46.127744131389626" lon="12.360696443369813"><ele>473.25</ele><time>2026-04-25T09:58:21.999Z</time></trkpt><trkpt lat="46.12772060510763" lon="12.360528032966737"><ele>470.0</ele><time>2026-04-25T09:58:22.999Z</time></trkpt><trkpt lat="46.12766390046182" lon="12.360369017299655"><ele>471.25</ele><time>2026-04-25T09:58:23.999Z</time></trkpt><trkpt lat="46.12759707384595" lon="12.360211578161977"><ele>472.5</ele><time>2026-04-25T09:58:24.999Z</time></trkpt><trkpt lat="46.12753064290131" lon="12.360049249213064"><ele>473.75</ele><time>2026-04-25T09:58:25.999Z</time></trkpt><trkpt lat="46.12746261576408" lon="12.359882642621175"><ele>475.0</ele><time>2026-04-25T09:58:26.999Z</time></trkpt><trkpt lat="46.12739189343869" lon="12.359719998787149"><ele>470.75</ele><time>2026-04-25T09:58:27.999Z</time></trkpt><trkpt lat="46.12731009458609" lon="12.359561253656441"><ele>466.5</ele><time>2026-04-25T09:58:28.999Z</time></trkpt><trkpt lat="46.127218873177306" lon="12.359409032157014"><ele>462.25</ele><time>2026-04-25T09:58:29.999Z</time></trkpt><trkpt lat="46.12712038191855" lon="12.359263048479455"><ele>458.0</ele><time>2026-04-25T09:58:30.999Z</time></trkpt><trkpt lat="46.12702030288541" lon="12.359114787217587"><ele>458.0</ele><time>2026-04-25T09:58:31.999Z</time></trkpt><trkpt lat="46.12692154304231" lon="12.35896051812802"><ele>458.0</ele><time>2026-04-25T09:58:32.999Z</time></trkpt><trkpt lat="46.12682872940095" lon="12.35879804812379"><ele>458.0</ele><time>2026-04-25T09:58:33.999Z</time></trkpt><trkpt lat="46.126743680233076" lon="12.358631530628124"><ele>458.0</ele><time>2026-04-25T09:58:34.999Z</time></trkpt><trkpt lat="46.12666573672574" lon="12.35845406518789"><ele>458.66666666666663</ele><time>2026-04-25T09:58:35.999Z</time></trkpt><trkpt lat="46.12658234367562" lon="12.358275677316326"><ele>459.33333333333337</ele><time>2026-04-25T09:58:36.999Z</time></trkpt><trkpt lat="46.12648182579615" lon="12.3580910293373"><ele>460.0</ele><time>2026-04-25T09:58:37.999Z</time></trkpt><trkpt lat="46.1263725538674" lon="12.357900455061785"><ele>454.0</ele><time>2026-04-25T09:58:38.999Z</time></trkpt><trkpt lat="46.12626421853891" lon="12.357706920618917"><ele>448.0</ele><time>2026-04-25T09:58:39.999Z</time></trkpt><trkpt lat="46.12617541505158" lon="12.35752636191394"><ele>442.0</ele><time>2026-04-25T09:58:40.999Z</time></trkpt><trkpt lat="46.126107805726186" lon="12.357341527829533"><ele>436.25</ele><time>2026-04-25T09:58:41.999Z</time></trkpt><trkpt lat="46.126049538246114" lon="12.357165725334937"><ele>430.5</ele><time>2026-04-25T09:58:42.999Z</time></trkpt><trkpt lat="46.12596817507856" lon="12.357012365019333"><ele>424.75</ele><time>2026-04-25T09:58:43.999Z</time></trkpt><trkpt lat="46.125862896341296" lon="12.356870491274293"><ele>419.0</ele><time>2026-04-25T09:58:44.999Z</time></trkpt><trkpt lat="46.12575718962499" lon="12.356744623944497"><ele>421.75</ele><time>2026-04-25T09:58:45.999Z</time></trkpt><trkpt lat="46.125659728031245" lon="12.356622643838703"><ele>424.5</ele><time>2026-04-25T09:58:46.999Z</time></trkpt><trkpt lat="46.12557037166408" lon="12.356504967125304"><ele>427.25</ele><time>2026-04-25T09:58:47.999Z</time></trkpt><trkpt lat="46.125483725669284" lon="12.356395768932252"><ele>430.0</ele><time>2026-04-25T09:58:48.999Z</time></trkpt><trkpt lat="46.12540054885407" lon="12.356293853130092"><ele>425.0</ele><time>2026-04-25T09:58:49.999Z</time></trkpt><trkpt lat="46.12531596552045" lon="12.356202492145638"><ele>420.0</ele><time>2026-04-25T09:58:50.999Z</time></trkpt><trkpt lat="46.1252234011905" lon="12.356123292811292"><ele>415.0</ele><time>2026-04-25T09:58:51.999Z</time></trkpt><trkpt lat="46.125123182385444" lon="12.356047167493319"><ele>410.0</ele><time>2026-04-25T09:58:52.999Z</time></trkpt><trkpt lat="46.12502444535075" lon="12.355961193341189"><ele>405.0</ele><time>2026-04-25T09:58:53.999Z</time></trkpt><trkpt lat="46.12493469196472" lon="12.355868644819918"><ele>403.4</ele><time>2026-04-25T09:58:54.999Z</time></trkpt><trkpt lat="46.124851221437396" lon="12.355779564663546"><ele>401.8</ele><time>2026-04-25T09:58:55.999Z</time></trkpt><trkpt lat="46.12476920805591" lon="12.355692119186779"><ele>400.20000000000005</ele><time>2026-04-25T09:58:57Z</time></trkpt><trkpt lat="46.12468829563343" lon="12.355600961277313"><ele>398.6</ele><time>2026-04-25T09:58:58Z</time></trkpt><trkpt lat="46.1246185328156" lon="12.355511224275961"><ele>397.0</ele><time>2026-04-25T09:58:59Z</time></trkpt><trkpt lat="46.12454814906347" lon="12.355426735406063"><ele>397.00000000000006</ele><time>2026-04-25T09:59:00Z</time></trkpt><trkpt lat="46.12448770165377" lon="12.35536612023185"><ele>397.0</ele><time>2026-04-25T09:59:01Z</time></trkpt><trkpt lat="46.124398219288985" lon="12.355294126482702"><ele>397.0</ele><time>2026-04-25T09:59:03Z</time></trkpt><trkpt lat="46.12433501705909" lon="12.355252926150145"><ele>397.0</ele><time>2026-04-25T09:59:05Z</time></trkpt><trkpt lat="46.124276975579996" lon="12.355209363309049"><ele>397.00000000000006</ele><time>2026-04-25T09:59:07Z</time></trkpt><trkpt lat="46.124211277247774" lon="12.355163850933424"><ele>397.0</ele><time>2026-04-25T09:59:09Z</time></trkpt><trkpt lat="46.12414531430464" lon="12.355111200860438"><ele>397.00000000000006</ele><time>2026-04-25T09:59:11Z</time></trkpt><trkpt lat="46.12410396425186" lon="12.354999402849444"><ele>397.0</ele><time>2026-04-25T09:59:15Z</time></trkpt><trkpt lat="46.12409604452791" lon="12.354906075933188"><ele>397.0</ele><time>2026-04-25T09:59:20Z</time></trkpt><trkpt lat="46.12411725819554" lon="12.354820423139127"><ele>397.0</ele><time>2026-04-25T09:59:22Z</time></trkpt><trkpt lat="46.12420828407127" lon="12.354718459914768"><ele>397.00000000000006</ele><time>2026-04-25T09:59:24Z</time></trkpt><trkpt lat="46.12426172250375" lon="12.354652816116348"><ele>397.0</ele><time>2026-04-25T09:59:25Z</time></trkpt><trkpt lat="46.12432362525114" lon="12.354574935486633"><ele>396.8</ele><time>2026-04-25T09:59:26Z</time></trkpt><trkpt lat="46.12439647790259" lon="12.354486390631843"><ele>396.6</ele><time>2026-04-25T09:59:27Z</time></trkpt><trkpt lat="46.124471283425116" lon="12.354393214881542"><ele>396.40000000000003</ele><time>2026-04-25T09:59:28Z</time></trkpt><trkpt lat="46.124550108224376" lon="12.35430100926666"><ele>396.20000000000005</ele><time>2026-04-25T09:59:29Z</time></trkpt><trkpt lat="46.12463440328115" lon="12.354204150640378"><ele>396.0</ele><time>2026-04-25T09:59:30Z</time></trkpt><trkpt lat="46.124733982040496" lon="12.354126741494426"><ele>396.0</ele><time>2026-04-25T09:59:31Z</time></trkpt><trkpt lat="46.124820010661864" lon="12.354028529726028"><ele>396.0</ele><time>2026-04-25T09:59:32Z</time></trkpt><trkpt lat="46.124905930043695" lon="12.353930442474368"><ele>396.0</ele><time>2026-04-25T09:59:33Z</time></trkpt><trkpt lat="46.12499562174488" lon="12.353827889790548"><ele>396.0</ele><time>2026-04-25T09:59:34Z</time></trkpt><trkpt lat="46.1250807084803" lon="12.35370434329993"><ele>395.75</ele><time>2026-04-25T09:59:35Z</time></trkpt><trkpt lat="46.12517825359689" lon="12.353593889086678"><ele>395.5</ele><time>2026-04-25T09:59:36Z</time></trkpt><trkpt lat="46.125278849075094" lon="12.35347969249621"><ele>395.25</ele><time>2026-04-25T09:59:37Z</time></trkpt><trkpt lat="46.12537945718452" lon="12.353364351252807"><ele>395.0</ele><time>2026-04-25T09:59:38Z</time></trkpt><trkpt lat="46.12547726415262" lon="12.353253864806712"><ele>395.0</ele><time>2026-04-25T09:59:39Z</time></trkpt><trkpt lat="46.12557269555549" lon="12.353144878903288"><ele>395.0</ele><time>2026-04-25T09:59:40Z</time></trkpt><trkpt lat="46.12566289990389" lon="12.353047120187595"><ele>395.0</ele><time>2026-04-25T09:59:41Z</time></trkpt><trkpt lat="46.12574525843614" lon="12.352951815392633"><ele>395.0</ele><time>2026-04-25T09:59:42Z</time></trkpt><trkpt lat="46.125826867418944" lon="12.35285462411214"><ele>395.0</ele><time>2026-04-25T09:59:43Z</time></trkpt><trkpt lat="46.12590115867949" lon="12.352763638572156"><ele>395.2</ele><time>2026-04-25T09:59:44Z</time></trkpt><trkpt lat="46.12596881232822" lon="12.352676009236676"><ele>395.4</ele><time>2026-04-25T09:59:45Z</time></trkpt><trkpt lat="46.12603966310954" lon="12.35258620341987"><ele>395.6</ele><time>2026-04-25T09:59:46Z</time></trkpt><trkpt lat="46.12611364242279" lon="12.352492136513485"><ele>395.8</ele><time>2026-04-25T09:59:47Z</time></trkpt><trkpt lat="46.12618566315649" lon="12.352392252775383"><ele>396.0</ele><time>2026-04-25T09:59:48Z</time></trkpt><trkpt lat="46.12625506994769" lon="12.352296340773865"><ele>396.0</ele><time>2026-04-25T09:59:49Z</time></trkpt><trkpt lat="46.12631944909344" lon="12.35220648573953"><ele>396.0</ele><time>2026-04-25T09:59:50Z</time></trkpt><trkpt lat="46.12637523463843" lon="12.352127465138127"><ele>396.0</ele><time>2026-04-25T09:59:51Z</time></trkpt><trkpt lat="46.12642571250116" lon="12.352055230934926"><ele>396.0</ele><time>2026-04-25T09:59:52Z</time></trkpt><trkpt lat="46.12647177811554" lon="12.351992463439883"><ele>396.0</ele><time>2026-04-25T09:59:52.999Z</time></trkpt><trkpt lat="46.126534274490034" lon="12.351909364969663"><ele>396.0</ele><time>2026-04-25T09:59:54.999Z</time></trkpt><trkpt lat="46.12658375207336" lon="12.35184917084037"><ele>396.3333333333333</ele><time>2026-04-25T09:59:56.999Z</time></trkpt><trkpt lat="46.12666093851906" lon="12.351817139209361"><ele>396.66666666666663</ele><time>2026-04-25T09:59:59.999Z</time></trkpt><trkpt lat="46.12672253075648" lon="12.351746079170574"><ele>397.0</ele><time>2026-04-25T10:00:02.999Z</time></trkpt><trkpt lat="46.12679770470854" lon="12.351726092289356"><ele>397.3333333333333</ele><time>2026-04-25T10:00:05.999Z</time></trkpt><trkpt lat="46.126851105542336" lon="12.351636016726651"><ele>397.66666666666663</ele><time>2026-04-25T10:00:17.999Z</time></trkpt><trkpt lat="46.12689281768161" lon="12.3515602768919"><ele>398.0</ele><time>2026-04-25T10:08:50.999Z</time></trkpt><trkpt lat="46.12686112191166" lon="12.351449819563667"><ele>397.79999999999995</ele><time>2026-04-25T10:09:18.999Z</time></trkpt><trkpt lat="46.126903239432934" lon="12.351340227554461"><ele>397.6</ele><time>2026-04-25T10:09:20.999Z</time></trkpt><trkpt lat="46.126999058566426" lon="12.351222580269415"><ele>397.4</ele><time>2026-04-25T10:09:22.999Z</time></trkpt><trkpt lat="46.12705067046391" lon="12.351149460104475"><ele>397.20000000000005</ele><time>2026-04-25T10:09:23.998Z</time></trkpt><trkpt lat="46.12712905480349" lon="12.35109373413705"><ele>397.0</ele><time>2026-04-25T10:09:24.998Z</time></trkpt><trkpt lat="46.127192609559195" lon="12.351003979005354"><ele>397.0</ele><time>2026-04-25T10:09:25.998Z</time></trkpt><trkpt lat="46.12724820986384" lon="12.35089001210621"><ele>397.0</ele><time>2026-04-25T10:09:26.999Z</time></trkpt><trkpt lat="46.127321340242325" lon="12.350791736253463"><ele>397.0</ele><time>2026-04-25T10:09:27.999Z</time></trkpt><trkpt lat="46.12739818117861" lon="12.35069024507446"><ele>397.0</ele><time>2026-04-25T10:09:28.999Z</time></trkpt><trkpt lat="46.12747901883094" lon="12.35056882960611"><ele>397.0</ele><time>2026-04-25T10:09:29.999Z</time></trkpt><trkpt lat="46.12756369462622" lon="12.35044503696598"><ele>396.75</ele><time>2026-04-25T10:09:30.999Z</time></trkpt><trkpt lat="46.12764656584255" lon="12.350333078710705"><ele>396.5</ele><time>2026-04-25T10:09:31.999Z</time></trkpt><trkpt lat="46.12772753318554" lon="12.350220930683598"><ele>396.25</ele><time>2026-04-25T10:09:32.999Z</time></trkpt><trkpt lat="46.12781436552768" lon="12.350099431560333"><ele>396.0</ele><time>2026-04-25T10:09:33.999Z</time></trkpt><trkpt lat="46.12790183256706" lon="12.349973436431917"><ele>396.0</ele><time>2026-04-25T10:09:34.999Z</time></trkpt><trkpt lat="46.12798939647509" lon="12.349847873205382"><ele>396.0</ele><time>2026-04-25T10:09:35.999Z</time></trkpt><trkpt lat="46.12807592246603" lon="12.3497259844393"><ele>396.0</ele><time>2026-04-25T10:09:36.999Z</time></trkpt><trkpt lat="46.128162882080474" lon="12.349602866797868"><ele>396.0</ele><time>2026-04-25T10:09:37.999Z</time></trkpt><trkpt lat="46.128251263031856" lon="12.349475623309697"><ele>395.75</ele><time>2026-04-25T10:09:38.999Z</time></trkpt><trkpt lat="46.12834353284294" lon="12.349340966465528"><ele>395.5</ele><time>2026-04-25T10:09:39.999Z</time></trkpt><trkpt lat="46.12843648081457" lon="12.349200840217184"><ele>395.25</ele><time>2026-04-25T10:09:40.999Z</time></trkpt><trkpt lat="46.1285299348989" lon="12.349056108279475"><ele>395.0</ele><time>2026-04-25T10:09:41.999Z</time></trkpt><trkpt lat="46.128625213035356" lon="12.348905884551332"><ele>394.66666666666663</ele><time>2026-04-25T10:09:42.999Z</time></trkpt><trkpt lat="46.1287219831512" lon="12.348747818710741"><ele>394.33333333333337</ele><time>2026-04-25T10:09:43.999Z</time></trkpt><trkpt lat="46.12882304721325" lon="12.348583118662361"><ele>394.0</ele><time>2026-04-25T10:09:44.999Z</time></trkpt><trkpt lat="46.128927478379836" lon="12.34841698605189"><ele>394.0</ele><time>2026-04-25T10:09:45.999Z</time></trkpt><trkpt lat="46.12902886652056" lon="12.348248027906369"><ele>394.0</ele><time>2026-04-25T10:09:46.999Z</time></trkpt><trkpt lat="46.129123030228456" lon="12.348089244138102"><ele>394.0</ele><time>2026-04-25T10:09:47.999Z</time></trkpt><trkpt lat="46.12921604442113" lon="12.347934934772331"><ele>394.0</ele><time>2026-04-25T10:09:48.999Z</time></trkpt><trkpt lat="46.12930818863121" lon="12.347787887855468"><ele>394.0</ele><time>2026-04-25T10:09:49.999Z</time></trkpt><trkpt lat="46.12939520167815" lon="12.347642277400068"><ele>394.0</ele><time>2026-04-25T10:09:50.999Z</time></trkpt><trkpt lat="46.12948139583482" lon="12.347492039205466"><ele>394.0</ele><time>2026-04-25T10:09:51.999Z</time></trkpt><trkpt lat="46.12956549139451" lon="12.347333728047957"><ele>394.0</ele><time>2026-04-25T10:09:52.999Z</time></trkpt><trkpt lat="46.129653314669845" lon="12.347164081987225"><ele>393.6666666666667</ele><time>2026-04-25T10:09:53.999Z</time></trkpt><trkpt lat="46.12974355663514" lon="12.346991053675255"><ele>393.33333333333337</ele><time>2026-04-25T10:09:54.999Z</time></trkpt><trkpt lat="46.12983311313705" lon="12.346815281808928"><ele>393.0</ele><time>2026-04-25T10:09:55.999Z</time></trkpt><trkpt lat="46.129922046181974" lon="12.346636448110754"><ele>393.0</ele><time>2026-04-25T10:09:56.999Z</time></trkpt><trkpt lat="46.13001140211285" lon="12.34645784595412"><ele>393.0</ele><time>2026-04-25T10:09:57.999Z</time></trkpt><trkpt lat="46.130101832086176" lon="12.346280872478186"><ele>393.0</ele><time>2026-04-25T10:09:58.999Z</time></trkpt><trkpt lat="46.13018920136054" lon="12.346106732833661"><ele>393.0</ele><time>2026-04-25T10:09:59.999Z</time></trkpt><trkpt lat="46.1302747154808" lon="12.345937157491742"><ele>393.0</ele><time>2026-04-25T10:10:00.999Z</time></trkpt><trkpt lat="46.130359547020724" lon="12.345772627379471"><ele>393.0</ele><time>2026-04-25T10:10:01.999Z</time></trkpt><trkpt lat="46.130441093632605" lon="12.345610155106362"><ele>393.0</ele><time>2026-04-25T10:10:02.999Z</time></trkpt><trkpt lat="46.130521524989035" lon="12.34545239018697"><ele>392.5</ele><time>2026-04-25T10:10:03.999Z</time></trkpt><trkpt lat="46.13059877725398" lon="12.345295068647907"><ele>392.0</ele><time>2026-04-25T10:10:04.999Z</time></trkpt><trkpt lat="46.13067530129241" lon="12.345139993685892"><ele>391.5</ele><time>2026-04-25T10:10:05.999Z</time></trkpt><trkpt lat="46.13075275750559" lon="12.344988983243024"><ele>391.0</ele><time>2026-04-25T10:10:06.999Z</time></trkpt><trkpt lat="46.13082850281718" lon="12.34483991775446"><ele>390.75</ele><time>2026-04-25T10:10:07.999Z</time></trkpt><trkpt lat="46.130902870482764" lon="12.344692492612065"><ele>390.5</ele><time>2026-04-25T10:10:08.999Z</time></trkpt><trkpt lat="46.13097800404751" lon="12.344539201676511"><ele>390.25</ele><time>2026-04-25T10:10:09.999Z</time></trkpt><trkpt lat="46.131055519724406" lon="12.344383153073682"><ele>390.0</ele><time>2026-04-25T10:10:10.999Z</time></trkpt><trkpt lat="46.131135766547295" lon="12.344226161506453"><ele>390.0</ele><time>2026-04-25T10:10:11.999Z</time></trkpt><trkpt lat="46.131216075104426" lon="12.344065560506472"><ele>390.0</ele><time>2026-04-25T10:10:12.999Z</time></trkpt><trkpt lat="46.13129566872491" lon="12.343902950495835"><ele>390.0</ele><time>2026-04-25T10:10:13.999Z</time></trkpt><trkpt lat="46.13137599760922" lon="12.34374113770636"><ele>390.0</ele><time>2026-04-25T10:10:14.999Z</time></trkpt><trkpt lat="46.13145252441905" lon="12.34359374807356"><ele>390.0</ele><time>2026-04-25T10:10:15.999Z</time></trkpt><trkpt lat="46.131523599293864" lon="12.343470884129742"><ele>390.0</ele><time>2026-04-25T10:10:16.999Z</time></trkpt><trkpt lat="46.13159995231193" lon="12.343367963179544"><ele>390.0</ele><time>2026-04-25T10:10:17.999Z</time></trkpt><trkpt lat="46.13168392145091" lon="12.34328422725824"><ele>390.0</ele><time>2026-04-25T10:10:18.999Z</time></trkpt><trkpt lat="46.13177490321525" lon="12.343217726873249"><ele>390.0</ele><time>2026-04-25T10:10:19.999Z</time></trkpt><trkpt lat="46.131867307918846" lon="12.343168365286708"><ele>390.1666666666667</ele><time>2026-04-25T10:10:20.999Z</time></trkpt><trkpt lat="46.13194912670682" lon="12.343143974136446"><ele>390.33333333333337</ele><time>2026-04-25T10:10:21.999Z</time></trkpt><trkpt lat="46.132013303039436" lon="12.34313746514086"><ele>390.5</ele><time>2026-04-25T10:10:22.999Z</time></trkpt><trkpt lat="46.13207667414517" lon="12.343153360038096"><ele>390.6666666666667</ele><time>2026-04-25T10:10:23.999Z</time></trkpt><trkpt lat="46.13214681468372" lon="12.343199384496511"><ele>390.83333333333337</ele><time>2026-04-25T10:10:24.999Z</time></trkpt><trkpt lat="46.13222420327182" lon="12.343249782037718"><ele>391.0</ele><time>2026-04-25T10:10:25.999Z</time></trkpt><trkpt lat="46.132314073994856" lon="12.34325145302046"><ele>391.1666666666667</ele><time>2026-04-25T10:10:26.999Z</time></trkpt><trkpt lat="46.13239764180007" lon="12.343194074714445"><ele>391.33333333333337</ele><time>2026-04-25T10:10:27.999Z</time></trkpt><trkpt lat="46.132451433679805" lon="12.34309348916935"><ele>391.5</ele><time>2026-04-25T10:10:28.999Z</time></trkpt><trkpt lat="46.13246018335733" lon="12.34296779840622"><ele>391.66666666666663</ele><time>2026-04-25T10:10:29.999Z</time></trkpt><trkpt lat="46.13242470364977" lon="12.342853018602879"><ele>391.8333333333333</ele><time>2026-04-25T10:10:30.999Z</time></trkpt><trkpt lat="46.132373049346455" lon="12.342754293554378"><ele>392.0</ele><time>2026-04-25T10:10:31.999Z</time></trkpt><trkpt lat="46.13233856527989" lon="12.342668573042175"><ele>391.99999999999994</ele><time>2026-04-25T10:10:32.999Z</time></trkpt><trkpt lat="46.13231356086778" lon="12.342462280050025"><ele>392.0</ele><time>2026-04-25T10:10:34.999Z</time></trkpt><trkpt lat="46.132310213952806" lon="12.342345292099699"><ele>392.0</ele><time>2026-04-25T10:10:35.999Z</time></trkpt><trkpt lat="46.13231008674912" lon="12.34223969233369"><ele>392.0</ele><time>2026-04-25T10:10:36.999Z</time></trkpt><trkpt lat="46.132301317585494" lon="12.3421453348655"><ele>391.99999999999994</ele><time>2026-04-25T10:10:37.999Z</time></trkpt><trkpt lat="46.132286081218055" lon="12.34204876138841"><ele>392.0</ele><time>2026-04-25T10:10:38.999Z</time></trkpt><trkpt lat="46.13226004614207" lon="12.341944629345475"><ele>392.3333333333333</ele><time>2026-04-25T10:10:39.999Z</time></trkpt><trkpt lat="46.132231589333315" lon="12.341837365990868"><ele>392.66666666666663</ele><time>2026-04-25T10:10:40.999Z</time></trkpt><trkpt lat="46.13220447380483" lon="12.341724388916727"><ele>393.0</ele><time>2026-04-25T10:10:41.999Z</time></trkpt><trkpt lat="46.13218401651662" lon="12.341604765408892"><ele>393.33333333333337</ele><time>2026-04-25T10:10:42.999Z</time></trkpt><trkpt lat="46.13217576596265" lon="12.341479233984247"><ele>393.6666666666667</ele><time>2026-04-25T10:10:43.999Z</time></trkpt><trkpt lat="46.13217672746356" lon="12.341351640421458"><ele>394.0</ele><time>2026-04-25T10:10:44.999Z</time></trkpt><trkpt lat="46.13218436993019" lon="12.341222096605938"><ele>394.2</ele><time>2026-04-25T10:10:45.999Z</time></trkpt><trkpt lat="46.132202174544574" lon="12.341087280418156"><ele>394.4</ele><time>2026-04-25T10:10:46.999Z</time></trkpt><trkpt lat="46.13222268859096" lon="12.340946874643"><ele>394.6</ele><time>2026-04-25T10:10:47.999Z</time></trkpt><trkpt lat="46.132245483460814" lon="12.340804921061004"><ele>394.8</ele><time>2026-04-25T10:10:48.999Z</time></trkpt><trkpt lat="46.132274656492484" lon="12.3406643774486"><ele>395.0</ele><time>2026-04-25T10:10:49.999Z</time></trkpt><trkpt lat="46.132307150859546" lon="12.340522714736199"><ele>395.0</ele><time>2026-04-25T10:10:50.999Z</time></trkpt><trkpt lat="46.132337634444085" lon="12.340376835337954"><ele>395.0</ele><time>2026-04-25T10:10:51.999Z</time></trkpt><trkpt lat="46.13236682558736" lon="12.340228685377047"><ele>395.0</ele><time>2026-04-25T10:10:52.999Z</time></trkpt><trkpt lat="46.132395259846945" lon="12.340077304628505"><ele>395.0</ele><time>2026-04-25T10:10:53.999Z</time></trkpt><trkpt lat="46.13242539762862" lon="12.339919840804804"><ele>395.0</ele><time>2026-04-25T10:10:54.999Z</time></trkpt><trkpt lat="46.132458190983655" lon="12.339752042793407"><ele>394.3333333333333</ele><time>2026-04-25T10:10:55.999Z</time></trkpt><trkpt lat="46.13249844305735" lon="12.339559808159718"><ele>393.66666666666663</ele><time>2026-04-25T10:10:56.999Z</time></trkpt><trkpt lat="46.13253804563313" lon="12.339342663871477"><ele>393.0</ele><time>2026-04-25T10:10:57.999Z</time></trkpt><trkpt lat="46.132575763672094" lon="12.339106598048819"><ele>392.75</ele><time>2026-04-25T10:10:58.999Z</time></trkpt><trkpt lat="46.132595976759106" lon="12.338876083311868"><ele>392.5</ele><time>2026-04-25T10:10:59.999Z</time></trkpt><trkpt lat="46.13260154187346" lon="12.338669881280564"><ele>392.25</ele><time>2026-04-25T10:11:00.999Z</time></trkpt><trkpt lat="46.13259639473726" lon="12.338492928957194"><ele>392.0</ele><time>2026-04-25T10:11:01.999Z</time></trkpt><trkpt lat="46.13259127736867" lon="12.338334393415053"><ele>392.0</ele><time>2026-04-25T10:11:02.999Z</time></trkpt><trkpt lat="46.132583609588174" lon="12.338176175496011"><ele>392.0</ele><time>2026-04-25T10:11:03.999Z</time></trkpt><trkpt lat="46.132575266674124" lon="12.33801742230659"><ele>392.0</ele><time>2026-04-25T10:11:04.999Z</time></trkpt><trkpt lat="46.132570151824154" lon="12.337860045198216"><ele>392.0</ele><time>2026-04-25T10:11:05.999Z</time></trkpt><trkpt lat="46.132563924428375" lon="12.337706376754502"><ele>392.0</ele><time>2026-04-25T10:11:06.999Z</time></trkpt><trkpt lat="46.13255817862213" lon="12.337551435790083"><ele>392.0</ele><time>2026-04-25T10:11:07.999Z</time></trkpt><trkpt lat="46.13255137460663" lon="12.337392970909585"><ele>392.0</ele><time>2026-04-25T10:11:08.999Z</time></trkpt><trkpt lat="46.13254011724019" lon="12.337230615864115"><ele>392.0</ele><time>2026-04-25T10:11:09.999Z</time></trkpt><trkpt lat="46.13252491903669" lon="12.337066292410896"><ele>392.0</ele><time>2026-04-25T10:11:10.999Z</time></trkpt><trkpt lat="46.13250305454666" lon="12.336900639254614"><ele>392.0</ele><time>2026-04-25T10:11:11.999Z</time></trkpt><trkpt lat="46.132479504050586" lon="12.336730186089827"><ele>392.0</ele><time>2026-04-25T10:11:12.999Z</time></trkpt><trkpt lat="46.13245563489511" lon="12.336556824339613"><ele>392.0</ele><time>2026-04-25T10:11:13.999Z</time></trkpt><trkpt lat="46.132429836323446" lon="12.336385591950773"><ele>392.0</ele><time>2026-04-25T10:11:14.999Z</time></trkpt><trkpt lat="46.13240441165622" lon="12.336214173914342"><ele>391.0</ele><time>2026-04-25T10:11:15.999Z</time></trkpt><trkpt lat="46.13238016946813" lon="12.336044271945008"><ele>390.0</ele><time>2026-04-25T10:11:16.999Z</time></trkpt><trkpt lat="46.13235353030398" lon="12.335877106010178"><ele>389.0</ele><time>2026-04-25T10:11:17.999Z</time></trkpt><trkpt lat="46.132325837476145" lon="12.335708309833429"><ele>388.0</ele><time>2026-04-25T10:11:18.999Z</time></trkpt><trkpt lat="46.13229765121527" lon="12.335536844673767"><ele>388.0</ele><time>2026-04-25T10:11:19.999Z</time></trkpt><trkpt lat="46.13226926709688" lon="12.335365867886368"><ele>388.0</ele><time>2026-04-25T10:11:20.999Z</time></trkpt><trkpt lat="46.13224177774455" lon="12.335189948828488"><ele>388.0</ele><time>2026-04-25T10:11:21.999Z</time></trkpt><trkpt lat="46.13221580284716" lon="12.335005222105176"><ele>388.0</ele><time>2026-04-25T10:11:22.999Z</time></trkpt><trkpt lat="46.132189941232724" lon="12.334811307194512"><ele>388.0</ele><time>2026-04-25T10:11:23.999Z</time></trkpt><trkpt lat="46.1321593471064" lon="12.334609703109765"><ele>388.0</ele><time>2026-04-25T10:11:24.999Z</time></trkpt><trkpt lat="46.13212727016053" lon="12.334398645228"><ele>388.0</ele><time>2026-04-25T10:11:25.999Z</time></trkpt><trkpt lat="46.132091114286155" lon="12.334178651841954"><ele>388.0</ele><time>2026-04-25T10:11:26.999Z</time></trkpt><trkpt lat="46.13205341511407" lon="12.333947533088239"><ele>388.0</ele><time>2026-04-25T10:11:27.999Z</time></trkpt><trkpt lat="46.13201694945821" lon="12.333718608029562"><ele>388.0</ele><time>2026-04-25T10:11:28.999Z</time></trkpt><trkpt lat="46.13198296763003" lon="12.333497550522887"><ele>388.0</ele><time>2026-04-25T10:11:29.999Z</time></trkpt><trkpt lat="46.13195285329185" lon="12.333283896949297"><ele>388.0</ele><time>2026-04-25T10:11:30.999Z</time></trkpt><trkpt lat="46.131934765274636" lon="12.333066503198294"><ele>388.0</ele><time>2026-04-25T10:11:31.999Z</time></trkpt><trkpt lat="46.131936383134956" lon="12.332841504509913"><ele>388.0</ele><time>2026-04-25T10:11:32.999Z</time></trkpt><trkpt lat="46.131963142404835" lon="12.33260833319086"><ele>387.33333333333337</ele><time>2026-04-25T10:11:33.999Z</time></trkpt><trkpt lat="46.13200902873918" lon="12.332363841434463"><ele>386.66666666666663</ele><time>2026-04-25T10:11:34.999Z</time></trkpt><trkpt lat="46.13205965655792" lon="12.332120797731491"><ele>386.0</ele><time>2026-04-25T10:11:35.999Z</time></trkpt><trkpt lat="46.13210458762422" lon="12.33190614421407"><ele>386.0</ele><time>2026-04-25T10:11:36.999Z</time></trkpt><trkpt lat="46.132148150950286" lon="12.331699431253073"><ele>386.0</ele><time>2026-04-25T10:11:37.999Z</time></trkpt><trkpt lat="46.13219437056929" lon="12.33149668026369"><ele>386.0</ele><time>2026-04-25T10:11:38.999Z</time></trkpt><trkpt lat="46.13224308618116" lon="12.331299755958558"><ele>386.0</ele><time>2026-04-25T10:11:39.999Z</time></trkpt><trkpt lat="46.132288958686104" lon="12.331105989707648"><ele>386.0</ele><time>2026-04-25T10:11:40.999Z</time></trkpt><trkpt lat="46.13233303111566" lon="12.330912742149826"><ele>386.0</ele><time>2026-04-25T10:11:41.999Z</time></trkpt><trkpt lat="46.132372763349004" lon="12.330720907128782"><ele>386.0</ele><time>2026-04-25T10:11:42.999Z</time></trkpt><trkpt lat="46.13240205524694" lon="12.330526881073698"><ele>386.0</ele><time>2026-04-25T10:11:43.999Z</time></trkpt><trkpt lat="46.13241831328251" lon="12.330325662025995"><ele>385.3333333333333</ele><time>2026-04-25T10:11:44.999Z</time></trkpt><trkpt lat="46.13242016824104" lon="12.330113508883773"><ele>384.66666666666663</ele><time>2026-04-25T10:11:45.999Z</time></trkpt><trkpt lat="46.13241254813684" lon="12.329895343472383"><ele>384.0</ele><time>2026-04-25T10:11:46.999Z</time></trkpt><trkpt lat="46.13240570955322" lon="12.329668784634327"><ele>384.0</ele><time>2026-04-25T10:11:47.999Z</time></trkpt><trkpt lat="46.13240357566019" lon="12.329434561999228"><ele>384.0</ele><time>2026-04-25T10:11:48.999Z</time></trkpt><trkpt lat="46.13240422115234" lon="12.329200487365618"><ele>384.0</ele><time>2026-04-25T10:11:49.999Z</time></trkpt><trkpt lat="46.132399479468546" lon="12.32896915623139"><ele>384.0</ele><time>2026-04-25T10:11:50.999Z</time></trkpt><trkpt lat="46.13239495676573" lon="12.328739570559712"><ele>384.0</ele><time>2026-04-25T10:11:51.999Z</time></trkpt><trkpt lat="46.132390337079876" lon="12.328509049548703"><ele>384.0</ele><time>2026-04-25T10:11:52.999Z</time></trkpt><trkpt lat="46.132385427711505" lon="12.328276200616756"><ele>383.3333333333333</ele><time>2026-04-25T10:11:53.999Z</time></trkpt><trkpt lat="46.132380335323525" lon="12.32804134386648"><ele>382.66666666666663</ele><time>2026-04-25T10:11:54.999Z</time></trkpt><trkpt lat="46.13237781021893" lon="12.327799578848202"><ele>382.0</ele><time>2026-04-25T10:11:55.999Z</time></trkpt><trkpt lat="46.13237527069503" lon="12.327554006848874"><ele>382.0</ele><time>2026-04-25T10:11:56.999Z</time></trkpt><trkpt lat="46.13237940950842" lon="12.327314409707085"><ele>382.0</ele><time>2026-04-25T10:11:57.999Z</time></trkpt><trkpt lat="46.132386843082344" lon="12.327074956845443"><ele>382.0</ele><time>2026-04-25T10:11:58.999Z</time></trkpt><trkpt lat="46.13239703431744" lon="12.326835464601068"><ele>381.66666666666663</ele><time>2026-04-25T10:11:59.999Z</time></trkpt><trkpt lat="46.13240509423714" lon="12.326594565002123"><ele>381.3333333333333</ele><time>2026-04-25T10:12:00.999Z</time></trkpt><trkpt lat="46.13241209694143" lon="12.326354951792228"><ele>381.0</ele><time>2026-04-25T10:12:01.999Z</time></trkpt><trkpt lat="46.13241821723517" lon="12.326115419987607"><ele>381.0</ele><time>2026-04-25T10:12:02.999Z</time></trkpt><trkpt lat="46.13242629594899" lon="12.325878766288858"><ele>381.0</ele><time>2026-04-25T10:12:03.999Z</time></trkpt><trkpt lat="46.1324345674946" lon="12.325645263815943"><ele>381.0</ele><time>2026-04-25T10:12:04.999Z</time></trkpt><trkpt lat="46.132441921097964" lon="12.325412881407493"><ele>381.0</ele><time>2026-04-25T10:12:05.999Z</time></trkpt><trkpt lat="46.13245024424002" lon="12.325180282905947"><ele>381.0</ele><time>2026-04-25T10:12:06.999Z</time></trkpt><trkpt lat="46.132458072901215" lon="12.32494516541273"><ele>381.0</ele><time>2026-04-25T10:12:07.999Z</time></trkpt><trkpt lat="46.13246502420009" lon="12.324712212748631"><ele>381.0</ele><time>2026-04-25T10:12:08.999Z</time></trkpt><trkpt lat="46.132472453222874" lon="12.324478555010261"><ele>381.0</ele><time>2026-04-25T10:12:09.999Z</time></trkpt><trkpt lat="46.132480379101914" lon="12.324243255083784"><ele>381.0</ele><time>2026-04-25T10:12:10.999Z</time></trkpt><trkpt lat="46.132489550285094" lon="12.324008966524074"><ele>381.6666666666667</ele><time>2026-04-25T10:12:11.999Z</time></trkpt><trkpt lat="46.132495871095365" lon="12.323776617553015"><ele>382.33333333333337</ele><time>2026-04-25T10:12:12.999Z</time></trkpt><trkpt lat="46.132502321108994" lon="12.32354508906031"><ele>383.0</ele><time>2026-04-25T10:12:13.999Z</time></trkpt><trkpt lat="46.1325077388424" lon="12.32331313639436"><ele>383.0</ele><time>2026-04-25T10:12:14.999Z</time></trkpt><trkpt lat="46.132516545239504" lon="12.323081684554321"><ele>383.0</ele><time>2026-04-25T10:12:15.999Z</time></trkpt><trkpt lat="46.13252499728763" lon="12.322843799490707"><ele>383.0</ele><time>2026-04-25T10:12:16.999Z</time></trkpt><trkpt lat="46.1325317214466" lon="12.32259505431038"><ele>381.6666666666667</ele><time>2026-04-25T10:12:17.999Z</time></trkpt><trkpt lat="46.132541576367046" lon="12.322335619265388"><ele>380.3333333333333</ele><time>2026-04-25T10:12:18.999Z</time></trkpt><trkpt lat="46.13255318542803" lon="12.322066653093572"><ele>379.0</ele><time>2026-04-25T10:12:19.999Z</time></trkpt><trkpt lat="46.13256398500978" lon="12.321784631766384"><ele>379.0</ele><time>2026-04-25T10:12:20.999Z</time></trkpt><trkpt lat="46.1325748835077" lon="12.321499451326423"><ele>379.0</ele><time>2026-04-25T10:12:21.999Z</time></trkpt><trkpt lat="46.13258444642037" lon="12.32121447128779"><ele>379.0</ele><time>2026-04-25T10:12:22.999Z</time></trkpt><trkpt lat="46.13259205172892" lon="12.320930801599168"><ele>379.0</ele><time>2026-04-25T10:12:23.999Z</time></trkpt><trkpt lat="46.13259537169689" lon="12.320650413507988"><ele>379.0</ele><time>2026-04-25T10:12:24.999Z</time></trkpt><trkpt lat="46.13259125940919" lon="12.320375384620142"><ele>379.0</ele><time>2026-04-25T10:12:25.999Z</time></trkpt><trkpt lat="46.13258106004553" lon="12.320106743525974"><ele>379.0</ele><time>2026-04-25T10:12:26.999Z</time></trkpt><trkpt lat="46.1325681870781" lon="12.319848290270395"><ele>379.0</ele><time>2026-04-25T10:12:27.999Z</time></trkpt><trkpt lat="46.13255936028205" lon="12.319604313636129"><ele>379.0</ele><time>2026-04-25T10:12:28.999Z</time></trkpt><trkpt lat="46.13255104775615" lon="12.319387818219639"><ele>378.75</ele><time>2026-04-25T10:12:29.999Z</time></trkpt><trkpt lat="46.132543320114856" lon="12.319173928116768"><ele>378.5</ele><time>2026-04-25T10:12:30.999Z</time></trkpt><trkpt lat="46.13253454166668" lon="12.318964077719922"><ele>378.25</ele><time>2026-04-25T10:12:31.999Z</time></trkpt><trkpt lat="46.13252810095498" lon="12.318757088990221"><ele>378.0</ele><time>2026-04-25T10:12:32.999Z</time></trkpt><trkpt lat="46.13252155933308" lon="12.318551552505436"><ele>378.5</ele><time>2026-04-25T10:12:33.999Z</time></trkpt><trkpt lat="46.1325156085305" lon="12.318348366452225"><ele>379.0</ele><time>2026-04-25T10:12:34.999Z</time></trkpt><trkpt lat="46.132512527468734" lon="12.318150267929745"><ele>379.5</ele><time>2026-04-25T10:12:35.999Z</time></trkpt><trkpt lat="46.13251010573964" lon="12.317966550941323"><ele>380.0</ele><time>2026-04-25T10:12:36.999Z</time></trkpt><trkpt lat="46.1325147810418" lon="12.317804150369213"><ele>381.2</ele><time>2026-04-25T10:12:37.999Z</time></trkpt><trkpt lat="46.13252529210644" lon="12.317656029820688"><ele>382.4</ele><time>2026-04-25T10:12:38.999Z</time></trkpt><trkpt lat="46.132544809340395" lon="12.317521265326267"><ele>383.6</ele><time>2026-04-25T10:12:39.999Z</time></trkpt><trkpt lat="46.132567195826915" lon="12.317405995607103"><ele>384.8</ele><time>2026-04-25T10:12:40.999Z</time></trkpt><trkpt lat="46.13255530434595" lon="12.317311072807062"><ele>386.0</ele><time>2026-04-25T10:12:41.999Z</time></trkpt><trkpt lat="46.132685703697796" lon="12.317209010631455"><ele>388.16666666666663</ele><time>2026-04-25T10:12:43.999Z</time></trkpt><trkpt lat="46.132808860464095" lon="12.317180432406158"><ele>390.3333333333333</ele><time>2026-04-25T10:12:45.999Z</time></trkpt><trkpt lat="46.132880732339856" lon="12.317182818612684"><ele>392.5</ele><time>2026-04-25T10:12:46.999Z</time></trkpt><trkpt lat="46.13295886055205" lon="12.317173883812272"><ele>394.66666666666663</ele><time>2026-04-25T10:12:47.999Z</time></trkpt><trkpt lat="46.13303785138251" lon="12.317149812668957"><ele>396.8333333333333</ele><time>2026-04-25T10:12:48.999Z</time></trkpt><trkpt lat="46.13312346209655" lon="12.317138660356973"><ele>399.0</ele><time>2026-04-25T10:12:49.999Z</time></trkpt><trkpt lat="46.13321170434803" lon="12.317104332596644"><ele>398.6</ele><time>2026-04-25T10:12:50.999Z</time></trkpt><trkpt lat="46.133313415433065" lon="12.31706250865437"><ele>398.2</ele><time>2026-04-25T10:12:51.999Z</time></trkpt><trkpt lat="46.1334246880383" lon="12.317035330283058"><ele>397.8</ele><time>2026-04-25T10:12:52.999Z</time></trkpt><trkpt lat="46.13353888013045" lon="12.317001843951953"><ele>397.40000000000003</ele><time>2026-04-25T10:12:53.999Z</time></trkpt><trkpt lat="46.13364332943805" lon="12.316964656225228"><ele>397.0</ele><time>2026-04-25T10:12:54.999Z</time></trkpt><trkpt lat="46.13374132078897" lon="12.316938308109588"><ele>397.0</ele><time>2026-04-25T10:12:55.999Z</time></trkpt><trkpt lat="46.13383126842723" lon="12.316910302278716"><ele>397.0</ele><time>2026-04-25T10:12:56.999Z</time></trkpt><trkpt lat="46.13391925520882" lon="12.316879168153433"><ele>397.0</ele><time>2026-04-25T10:12:57.999Z</time></trkpt><trkpt lat="46.13400699858859" lon="12.316854664301284"><ele>397.0</ele><time>2026-04-25T10:12:58.999Z</time></trkpt><trkpt lat="46.13409716519717" lon="12.316833216860509"><ele>397.0</ele><time>2026-04-25T10:12:59.999Z</time></trkpt><trkpt lat="46.13419020675458" lon="12.31681265057426"><ele>395.40000000000003</ele><time>2026-04-25T10:13:00.999Z</time></trkpt><trkpt lat="46.13428940472626" lon="12.316798299040475"><ele>393.8</ele><time>2026-04-25T10:13:01.999Z</time></trkpt><trkpt lat="46.13439243105626" lon="12.316791576890136"><ele>392.2</ele><time>2026-04-25T10:13:02.999Z</time></trkpt><trkpt lat="46.13450730601077" lon="12.316784937400847"><ele>390.6</ele><time>2026-04-25T10:13:03.999Z</time></trkpt><trkpt lat="46.13463119774967" lon="12.31679156081493"><ele>389.0</ele><time>2026-04-25T10:13:04.999Z</time></trkpt><trkpt lat="46.13475717101982" lon="12.316799637574398"><ele>389.0</ele><time>2026-04-25T10:13:05.999Z</time></trkpt><trkpt lat="46.13488577307587" lon="12.316802698908415"><ele>389.0</ele><time>2026-04-25T10:13:06.999Z</time></trkpt><trkpt lat="46.135019594807204" lon="12.3168056364607"><ele>389.0</ele><time>2026-04-25T10:13:07.999Z</time></trkpt><trkpt lat="46.135157902350464" lon="12.316810206371528"><ele>389.0</ele><time>2026-04-25T10:13:08.999Z</time></trkpt><trkpt lat="46.135301117078946" lon="12.316814981084068"><ele>388.75</ele><time>2026-04-25T10:13:09.999Z</time></trkpt><trkpt lat="46.135450240474" lon="12.316819930170071"><ele>388.5</ele><time>2026-04-25T10:13:10.999Z</time></trkpt><trkpt lat="46.13559639316878" lon="12.316823653416664"><ele>388.25</ele><time>2026-04-25T10:13:11.999Z</time></trkpt><trkpt lat="46.13574598433099" lon="12.31682834309435"><ele>388.0</ele><time>2026-04-25T10:13:12.999Z</time></trkpt><trkpt lat="46.13589744144273" lon="12.316831887983785"><ele>388.0</ele><time>2026-04-25T10:13:13.999Z</time></trkpt><trkpt lat="46.13605208412366" lon="12.316836070841942"><ele>388.0</ele><time>2026-04-25T10:13:14.999Z</time></trkpt><trkpt lat="46.136207856094444" lon="12.316844704112171"><ele>388.0</ele><time>2026-04-25T10:13:15.999Z</time></trkpt><trkpt lat="46.136366876619675" lon="12.316855566069018"><ele>388.0</ele><time>2026-04-25T10:13:16.999Z</time></trkpt><trkpt lat="46.13653386806849" lon="12.316876300443843"><ele>388.0</ele><time>2026-04-25T10:13:17.999Z</time></trkpt><trkpt lat="46.13671218751791" lon="12.316910164925302"><ele>388.0</ele><time>2026-04-25T10:13:18.999Z</time></trkpt><trkpt lat="46.13690046511665" lon="12.316949736013402"><ele>388.33333333333337</ele><time>2026-04-25T10:13:19.999Z</time></trkpt><trkpt lat="46.13710450934804" lon="12.316993755290397"><ele>388.66666666666663</ele><time>2026-04-25T10:13:20.999Z</time></trkpt><trkpt lat="46.137319680624465" lon="12.317040812423993"><ele>389.0</ele><time>2026-04-25T10:13:21.999Z</time></trkpt><trkpt lat="46.1375222772236" lon="12.317078046226356"><ele>389.3333333333333</ele><time>2026-04-25T10:13:22.999Z</time></trkpt><trkpt lat="46.137718108936085" lon="12.317095758209234"><ele>389.66666666666663</ele><time>2026-04-25T10:13:23.999Z</time></trkpt><trkpt lat="46.13790437223189" lon="12.317086303481867"><ele>390.0</ele><time>2026-04-25T10:13:24.999Z</time></trkpt><trkpt lat="46.13808035319236" lon="12.317059416613017"><ele>389.66666666666663</ele><time>2026-04-25T10:13:25.999Z</time></trkpt><trkpt lat="46.138246657354784" lon="12.31701046622567"><ele>389.3333333333333</ele><time>2026-04-25T10:13:26.999Z</time></trkpt><trkpt lat="46.13840095242642" lon="12.316939947963427"><ele>389.0</ele><time>2026-04-25T10:13:27.999Z</time></trkpt><trkpt lat="46.138555126511676" lon="12.316874350698813"><ele>389.0</ele><time>2026-04-25T10:13:28.999Z</time></trkpt><trkpt lat="46.13871287661894" lon="12.31680810032563"><ele>389.0</ele><time>2026-04-25T10:13:29.999Z</time></trkpt><trkpt lat="46.13887153437053" lon="12.316735624172159"><ele>389.0</ele><time>2026-04-25T10:13:30.999Z</time></trkpt><trkpt lat="46.13902883061178" lon="12.316668430082126"><ele>387.66666666666663</ele><time>2026-04-25T10:13:31.999Z</time></trkpt><trkpt lat="46.139186099456616" lon="12.316601502806387"><ele>386.33333333333337</ele><time>2026-04-25T10:13:32.999Z</time></trkpt><trkpt lat="46.139347226676584" lon="12.316537980563611"><ele>385.0</ele><time>2026-04-25T10:13:33.999Z</time></trkpt><trkpt lat="46.139513023874564" lon="12.316488066795944"><ele>385.0</ele><time>2026-04-25T10:13:34.999Z</time></trkpt><trkpt lat="46.13968041435826" lon="12.316450073331897"><ele>385.0</ele><time>2026-04-25T10:13:35.999Z</time></trkpt><trkpt lat="46.13985514873898" lon="12.316421892152734"><ele>385.0</ele><time>2026-04-25T10:13:36.999Z</time></trkpt><trkpt lat="46.14002960528445" lon="12.316405969265693"><ele>385.0</ele><time>2026-04-25T10:13:37.999Z</time></trkpt><trkpt lat="46.14021210433815" lon="12.3163962212692"><ele>385.0</ele><time>2026-04-25T10:13:39Z</time></trkpt><trkpt lat="46.14039571523803" lon="12.316407710535017"><ele>385.0</ele><time>2026-04-25T10:13:40Z</time></trkpt><trkpt lat="46.14057610016939" lon="12.316442043951639"><ele>385.0</ele><time>2026-04-25T10:13:41Z</time></trkpt><trkpt lat="46.14075362943337" lon="12.316497630327616"><ele>385.0</ele><time>2026-04-25T10:13:42Z</time></trkpt><trkpt lat="46.140928898856274" lon="12.316571553013732"><ele>385.0</ele><time>2026-04-25T10:13:43Z</time></trkpt><trkpt lat="46.1411032984975" lon="12.316649082431908"><ele>385.0</ele><time>2026-04-25T10:13:44Z</time></trkpt><trkpt lat="46.1412801411039" lon="12.316717961895904"><ele>385.0</ele><time>2026-04-25T10:13:45Z</time></trkpt><trkpt lat="46.14145683031744" lon="12.316787597311674"><ele>385.0</ele><time>2026-04-25T10:13:46Z</time></trkpt><trkpt lat="46.1416308613083" lon="12.316863848727516"><ele>385.33333333333337</ele><time>2026-04-25T10:13:47Z</time></trkpt><trkpt lat="46.14180400986164" lon="12.316945895136918"><ele>385.66666666666663</ele><time>2026-04-25T10:13:48Z</time></trkpt><trkpt lat="46.14197451505029" lon="12.317038769535705"><ele>386.0</ele><time>2026-04-25T10:13:49Z</time></trkpt><trkpt lat="46.14214180474051" lon="12.317138888449257"><ele>385.66666666666663</ele><time>2026-04-25T10:13:50Z</time></trkpt><trkpt lat="46.14230529481649" lon="12.31724468954769"><ele>385.33333333333337</ele><time>2026-04-25T10:13:51Z</time></trkpt><trkpt lat="46.14246299226483" lon="12.317362348515735"><ele>385.0</ele><time>2026-04-25T10:13:52Z</time></trkpt><trkpt lat="46.142614660008924" lon="12.317491120340081"><ele>385.0</ele><time>2026-04-25T10:13:53Z</time></trkpt><trkpt lat="46.142759771963405" lon="12.317629989763525"><ele>385.0</ele><time>2026-04-25T10:13:54Z</time></trkpt><trkpt lat="46.142900398138025" lon="12.317768284073011"><ele>385.0</ele><time>2026-04-25T10:13:55Z</time></trkpt><trkpt lat="46.143041381754564" lon="12.317900603937538"><ele>385.0</ele><time>2026-04-25T10:13:56Z</time></trkpt><trkpt lat="46.143187275783696" lon="12.318019847937984"><ele>385.0</ele><time>2026-04-25T10:13:57Z</time></trkpt><trkpt lat="46.143344821998184" lon="12.318108716915697"><ele>385.0</ele><time>2026-04-25T10:13:58Z</time></trkpt><trkpt lat="46.14351339825349" lon="12.318166122460664"><ele>385.33333333333337</ele><time>2026-04-25T10:13:59Z</time></trkpt><trkpt lat="46.143684265469105" lon="12.318238209343058"><ele>385.66666666666663</ele><time>2026-04-25T10:14:00Z</time></trkpt><trkpt lat="46.143861860501005" lon="12.318275373076913"><ele>386.0</ele><time>2026-04-25T10:14:01Z</time></trkpt><trkpt lat="46.144035624171806" lon="12.318345411601621"><ele>387.3333333333333</ele><time>2026-04-25T10:14:02Z</time></trkpt><trkpt lat="46.144206290537305" lon="12.318439507064753"><ele>388.66666666666663</ele><time>2026-04-25T10:14:03Z</time></trkpt><trkpt lat="46.14437263255246" lon="12.318562194761611"><ele>390.0</ele><time>2026-04-25T10:14:04Z</time></trkpt><trkpt lat="46.14453303568336" lon="12.318713825954609"><ele>390.0</ele><time>2026-04-25T10:14:05Z</time></trkpt><trkpt lat="46.144687551503466" lon="12.318879249891346"><ele>390.0</ele><time>2026-04-25T10:14:06Z</time></trkpt><trkpt lat="46.14483534742046" lon="12.319037970634614"><ele>390.0</ele><time>2026-04-25T10:14:07Z</time></trkpt><trkpt lat="46.14498824685795" lon="12.319163517295902"><ele>388.66666666666663</ele><time>2026-04-25T10:14:08Z</time></trkpt><trkpt lat="46.14514624836905" lon="12.319268349808063"><ele>387.3333333333333</ele><time>2026-04-25T10:14:09Z</time></trkpt><trkpt lat="46.145311358750696" lon="12.319354898922748"><ele>386.0</ele><time>2026-04-25T10:14:10Z</time></trkpt><trkpt lat="46.14548215426751" lon="12.319410851659502"><ele>386.0</ele><time>2026-04-25T10:14:11Z</time></trkpt><trkpt lat="46.14566150542309" lon="12.31944093480255"><ele>386.0</ele><time>2026-04-25T10:14:12Z</time></trkpt><trkpt lat="46.145850329453836" lon="12.319442187926132"><ele>386.0</ele><time>2026-04-25T10:14:13Z</time></trkpt><trkpt lat="46.146048304457736" lon="12.319418310509938"><ele>388.3333333333333</ele><time>2026-04-25T10:14:14Z</time></trkpt><trkpt lat="46.14625735459268" lon="12.319379069598451"><ele>390.66666666666663</ele><time>2026-04-25T10:14:15Z</time></trkpt><trkpt lat="46.14647781658055" lon="12.319339800246974"><ele>393.0</ele><time>2026-04-25T10:14:16Z</time></trkpt><trkpt lat="46.146708642281034" lon="12.319287079687484"><ele>393.33333333333337</ele><time>2026-04-25T10:14:17Z</time></trkpt><trkpt lat="46.14694170273994" lon="12.31924144677977"><ele>393.6666666666667</ele><time>2026-04-25T10:14:17.999Z</time></trkpt><trkpt lat="46.14714940505887" lon="12.319204197830887"><ele>394.0</ele><time>2026-04-25T10:14:18.999Z</time></trkpt><trkpt lat="46.14734340162427" lon="12.319169083320407"><ele>393.33333333333337</ele><time>2026-04-25T10:14:19.999Z</time></trkpt><trkpt lat="46.147532181087186" lon="12.31913320299794"><ele>392.66666666666663</ele><time>2026-04-25T10:14:20.999Z</time></trkpt><trkpt lat="46.14772341503128" lon="12.3191122776696"><ele>392.0</ele><time>2026-04-25T10:14:21.999Z</time></trkpt><trkpt lat="46.147918364500256" lon="12.319113281958101"><ele>392.0</ele><time>2026-04-25T10:14:22.999Z</time></trkpt><trkpt lat="46.14811501820219" lon="12.319137463889218"><ele>392.0</ele><time>2026-04-25T10:14:23.999Z</time></trkpt><trkpt lat="46.148311855168316" lon="12.319171950458516"><ele>392.0</ele><time>2026-04-25T10:14:24.999Z</time></trkpt><trkpt lat="46.14850515326661" lon="12.319209860455768"><ele>391.66666666666663</ele><time>2026-04-25T10:14:25.999Z</time></trkpt><trkpt lat="46.14869710604362" lon="12.319238916283446"><ele>391.33333333333337</ele><time>2026-04-25T10:14:26.999Z</time></trkpt><trkpt lat="46.14888564715035" lon="12.319269899360538"><ele>391.0</ele><time>2026-04-25T10:14:27.999Z</time></trkpt><trkpt lat="46.149069120060815" lon="12.319298111212982"><ele>390.6666666666667</ele><time>2026-04-25T10:14:28.999Z</time></trkpt><trkpt lat="46.14925479779027" lon="12.319290804864247"><ele>390.33333333333337</ele><time>2026-04-25T10:14:29.999Z</time></trkpt><trkpt lat="46.149462445959394" lon="12.319238738833459"><ele>390.0</ele><time>2026-04-25T10:14:30.999Z</time></trkpt><trkpt lat="46.149655731055645" lon="12.319219137305232"><ele>390.0</ele><time>2026-04-25T10:14:31.999Z</time></trkpt><trkpt lat="46.149828054751865" lon="12.319183960409205"><ele>390.0</ele><time>2026-04-25T10:14:32.999Z</time></trkpt><trkpt lat="46.149994675379986" lon="12.319147543118921"><ele>390.0</ele><time>2026-04-25T10:14:33.999Z</time></trkpt><trkpt lat="46.15015335813577" lon="12.319090642381424"><ele>390.33333333333337</ele><time>2026-04-25T10:14:34.999Z</time></trkpt><trkpt lat="46.15030946736493" lon="12.319058483656805"><ele>390.6666666666667</ele><time>2026-04-25T10:14:35.999Z</time></trkpt><trkpt lat="46.15046324244884" lon="12.319028824821267"><ele>391.0</ele><time>2026-04-25T10:14:36.999Z</time></trkpt><trkpt lat="46.150620413064274" lon="12.319020107702746"><ele>390.0</ele><time>2026-04-25T10:14:37.999Z</time></trkpt><trkpt lat="46.15078570470037" lon="12.319063927104025"><ele>389.0</ele><time>2026-04-25T10:14:38.999Z</time></trkpt><trkpt lat="46.150952011842364" lon="12.31915186205959"><ele>388.0</ele><time>2026-04-25T10:14:39.999Z</time></trkpt><trkpt lat="46.151125139310984" lon="12.319241883712802"><ele>388.0</ele><time>2026-04-25T10:14:40.999Z</time></trkpt><trkpt lat="46.15131107189815" lon="12.319304931734958"><ele>388.0</ele><time>2026-04-25T10:14:41.999Z</time></trkpt><trkpt lat="46.15150393310651" lon="12.319338780547458"><ele>388.0</ele><time>2026-04-25T10:14:42.999Z</time></trkpt><trkpt lat="46.15169807121294" lon="12.31935962585605"><ele>389.33333333333337</ele><time>2026-04-25T10:14:43.999Z</time></trkpt><trkpt lat="46.151893097839825" lon="12.31936906653661"><ele>390.66666666666663</ele><time>2026-04-25T10:14:44.999Z</time></trkpt><trkpt lat="46.152085124877345" lon="12.319372902798584"><ele>392.0</ele><time>2026-04-25T10:14:45.999Z</time></trkpt><trkpt lat="46.15227516044958" lon="12.319370192669231"><ele>391.66666666666663</ele><time>2026-04-25T10:14:46.999Z</time></trkpt><trkpt lat="46.15246318659016" lon="12.319359969242141"><ele>391.33333333333337</ele><time>2026-04-25T10:14:47.999Z</time></trkpt><trkpt lat="46.152650601308665" lon="12.319349859044612"><ele>391.0</ele><time>2026-04-25T10:14:48.999Z</time></trkpt><trkpt lat="46.152835582954694" lon="12.319349965628716"><ele>391.0</ele><time>2026-04-25T10:14:49.999Z</time></trkpt><trkpt lat="46.153019645892" lon="12.319347023511211"><ele>391.0</ele><time>2026-04-25T10:14:50.999Z</time></trkpt><trkpt lat="46.153207725400385" lon="12.319340462836024"><ele>391.0</ele><time>2026-04-25T10:14:51.999Z</time></trkpt><trkpt lat="46.15339775310138" lon="12.319331846117302"><ele>391.0</ele><time>2026-04-25T10:14:52.999Z</time></trkpt><trkpt lat="46.153587263951074" lon="12.31931886734692"><ele>391.0</ele><time>2026-04-25T10:14:53.999Z</time></trkpt><trkpt lat="46.15377682213945" lon="12.319301236072612"><ele>391.0</ele><time>2026-04-25T10:14:54.999Z</time></trkpt><trkpt lat="46.15396474647449" lon="12.31927721242843"><ele>390.0</ele><time>2026-04-25T10:14:55.999Z</time></trkpt><trkpt lat="46.15415216914907" lon="12.319244306164443"><ele>389.0</ele><time>2026-04-25T10:14:56.999Z</time></trkpt><trkpt lat="46.15433963006529" lon="12.319207130684953"><ele>388.0</ele><time>2026-04-25T10:14:57.999Z</time></trkpt><trkpt lat="46.154526852805986" lon="12.31916498660514"><ele>388.0</ele><time>2026-04-25T10:14:58.999Z</time></trkpt><trkpt lat="46.154712783664706" lon="12.319117373744936"><ele>388.0</ele><time>2026-04-25T10:14:59.999Z</time></trkpt><trkpt lat="46.154898126399246" lon="12.319064930294184"><ele>388.0</ele><time>2026-04-25T10:15:00.999Z</time></trkpt><trkpt lat="46.15508305934594" lon="12.319010069294736"><ele>386.6666666666667</ele><time>2026-04-25T10:15:01.999Z</time></trkpt><trkpt lat="46.15526725747747" lon="12.318956527347712"><ele>385.33333333333337</ele><time>2026-04-25T10:15:02.999Z</time></trkpt><trkpt lat="46.15545930029107" lon="12.318896811855097"><ele>384.0</ele><time>2026-04-25T10:15:03.999Z</time></trkpt><trkpt lat="46.15565055826808" lon="12.318837160401355"><ele>387.0</ele><time>2026-04-25T10:15:04.999Z</time></trkpt><trkpt lat="46.15584101213235" lon="12.318777824499968"><ele>390.0</ele><time>2026-04-25T10:15:05.999Z</time></trkpt><trkpt lat="46.15603228983932" lon="12.318719050468186"><ele>393.0</ele><time>2026-04-25T10:15:06.999Z</time></trkpt><trkpt lat="46.156222593774686" lon="12.318661828490624"><ele>393.0</ele><time>2026-04-25T10:15:07.999Z</time></trkpt><trkpt lat="46.156411644583315" lon="12.318603833037194"><ele>393.0</ele><time>2026-04-25T10:15:08.999Z</time></trkpt><trkpt lat="46.15660046460887" lon="12.318549864533813"><ele>393.0</ele><time>2026-04-25T10:15:09.999Z</time></trkpt><trkpt lat="46.156791672972524" lon="12.318491042243291"><ele>392.0</ele><time>2026-04-25T10:15:10.999Z</time></trkpt><trkpt lat="46.15699025409495" lon="12.318428664778653"><ele>391.0</ele><time>2026-04-25T10:15:11.999Z</time></trkpt><trkpt lat="46.15719221223949" lon="12.318370762527259"><ele>390.0</ele><time>2026-04-25T10:15:12.999Z</time></trkpt><trkpt lat="46.157391946167415" lon="12.318318283577158"><ele>387.6666666666667</ele><time>2026-04-25T10:15:13.999Z</time></trkpt><trkpt lat="46.15759221206274" lon="12.318275212975175"><ele>385.33333333333337</ele><time>2026-04-25T10:15:14.999Z</time></trkpt><trkpt lat="46.157794449263974" lon="12.318240678631945"><ele>383.0</ele><time>2026-04-25T10:15:15.999Z</time></trkpt><trkpt lat="46.157995994424105" lon="12.318209159417181"><ele>383.0</ele><time>2026-04-25T10:15:16.999Z</time></trkpt><trkpt lat="46.15819824798981" lon="12.318177304581615"><ele>383.0</ele><time>2026-04-25T10:15:17.999Z</time></trkpt><trkpt lat="46.15840029817255" lon="12.31815221672874"><ele>383.0</ele><time>2026-04-25T10:15:18.999Z</time></trkpt><trkpt lat="46.15860248321492" lon="12.318140831821314"><ele>382.6666666666667</ele><time>2026-04-25T10:15:19.999Z</time></trkpt><trkpt lat="46.158804358059086" lon="12.318151552347693"><ele>382.3333333333333</ele><time>2026-04-25T10:15:20.999Z</time></trkpt><trkpt lat="46.1590059081196" lon="12.31818652372071"><ele>382.0</ele><time>2026-04-25T10:15:21.999Z</time></trkpt><trkpt lat="46.15920514959009" lon="12.31824603606925"><ele>382.66666666666663</ele><time>2026-04-25T10:15:22.999Z</time></trkpt><trkpt lat="46.15940277626666" lon="12.318326999702053"><ele>383.3333333333333</ele><time>2026-04-25T10:15:23.999Z</time></trkpt><trkpt lat="46.15959514808623" lon="12.31842569643507"><ele>384.0</ele><time>2026-04-25T10:15:24.999Z</time></trkpt><trkpt lat="46.159778227810165" lon="12.318543275041266"><ele>384.66666666666663</ele><time>2026-04-25T10:15:25.999Z</time></trkpt><trkpt lat="46.15995480737163" lon="12.318673599628301"><ele>385.3333333333333</ele><time>2026-04-25T10:15:26.999Z</time></trkpt><trkpt lat="46.160122439986075" lon="12.31882018912441"><ele>386.0</ele><time>2026-04-25T10:15:27.999Z</time></trkpt><trkpt lat="46.160283159987884" lon="12.318976934402302"><ele>386.0</ele><time>2026-04-25T10:15:28.999Z</time></trkpt><trkpt lat="46.1604384105382" lon="12.319134828526243"><ele>386.0</ele><time>2026-04-25T10:15:29.999Z</time></trkpt><trkpt lat="46.16058681313279" lon="12.31928760155489"><ele>386.0</ele><time>2026-04-25T10:15:30.999Z</time></trkpt><trkpt lat="46.160721671608364" lon="12.319431046207615"><ele>388.66666666666663</ele><time>2026-04-25T10:15:31.999Z</time></trkpt><trkpt lat="46.160848121662134" lon="12.319555247785402"><ele>391.33333333333337</ele><time>2026-04-25T10:15:32.999Z</time></trkpt><trkpt lat="46.16098166537965" lon="12.31965634258802"><ele>394.0</ele><time>2026-04-25T10:15:33.999Z</time></trkpt><trkpt lat="46.161139621524605" lon="12.319727447047669"><ele>394.0</ele><time>2026-04-25T10:15:34.999Z</time></trkpt><trkpt lat="46.16131552809897" lon="12.319733562309793"><ele>394.0</ele><time>2026-04-25T10:15:35.999Z</time></trkpt><trkpt lat="46.161496882042904" lon="12.319680561408937"><ele>394.0</ele><time>2026-04-25T10:15:36.999Z</time></trkpt><trkpt lat="46.16167285310256" lon="12.319583132758376"><ele>396.0</ele><time>2026-04-25T10:15:37.999Z</time></trkpt><trkpt lat="46.16183629299461" lon="12.319414622673703"><ele>398.0</ele><time>2026-04-25T10:15:38.999Z</time></trkpt><trkpt lat="46.1619991048547" lon="12.319223720643011"><ele>400.0</ele><time>2026-04-25T10:15:39.999Z</time></trkpt><trkpt lat="46.16216061749958" lon="12.319045040559937"><ele>400.0</ele><time>2026-04-25T10:15:40.999Z</time></trkpt><trkpt lat="46.16231552921561" lon="12.318878954792362"><ele>400.0</ele><time>2026-04-25T10:15:41.999Z</time></trkpt><trkpt lat="46.16246816611432" lon="12.318718880107683"><ele>400.0</ele><time>2026-04-25T10:15:42.999Z</time></trkpt><trkpt lat="46.16261848116279" lon="12.318555811173427"><ele>400.0</ele><time>2026-04-25T10:15:43.999Z</time></trkpt><trkpt lat="46.16276798975647" lon="12.318392699871218"><ele>400.0</ele><time>2026-04-25T10:15:45Z</time></trkpt><trkpt lat="46.16291283762501" lon="12.318239916913681"><ele>400.0</ele><time>2026-04-25T10:15:46Z</time></trkpt><trkpt lat="46.16305115018908" lon="12.318090815275085"><ele>400.0</ele><time>2026-04-25T10:15:47Z</time></trkpt><trkpt lat="46.16318396880552" lon="12.317938480036277"><ele>400.0</ele><time>2026-04-25T10:15:48Z</time></trkpt><trkpt lat="46.16330994122089" lon="12.317780515059358"><ele>400.0</ele><time>2026-04-25T10:15:49Z</time></trkpt><trkpt lat="46.163432022469195" lon="12.317620414711035"><ele>400.0</ele><time>2026-04-25T10:15:50Z</time></trkpt><trkpt lat="46.163548453007216" lon="12.31745233904754"><ele>400.0</ele><time>2026-04-25T10:15:51Z</time></trkpt><trkpt lat="46.16366087268411" lon="12.317280333722447"><ele>400.0</ele><time>2026-04-25T10:15:52Z</time></trkpt><trkpt lat="46.163768812836" lon="12.317107246091837"><ele>400.25</ele><time>2026-04-25T10:15:53Z</time></trkpt><trkpt lat="46.16386429184557" lon="12.316942572544065"><ele>400.5</ele><time>2026-04-25T10:15:54Z</time></trkpt><trkpt lat="46.163953436462336" lon="12.31679605593561"><ele>400.75</ele><time>2026-04-25T10:15:55Z</time></trkpt><trkpt lat="46.16403882625782" lon="12.316661837131514"><ele>401.0</ele><time>2026-04-25T10:15:56Z</time></trkpt><trkpt lat="46.16411838877779" lon="12.31653219597836"><ele>400.0</ele><time>2026-04-25T10:15:57Z</time></trkpt><trkpt lat="46.1641969614738" lon="12.316408164005594"><ele>399.0</ele><time>2026-04-25T10:15:58Z</time></trkpt><trkpt lat="46.16427847927935" lon="12.316281165565522"><ele>398.0</ele><time>2026-04-25T10:15:59Z</time></trkpt><trkpt lat="46.16436303433512" lon="12.316154374782105"><ele>397.0</ele><time>2026-04-25T10:16:00Z</time></trkpt><trkpt lat="46.16445276480692" lon="12.316030880618714"><ele>396.5</ele><time>2026-04-25T10:16:01Z</time></trkpt><trkpt lat="46.16454759096886" lon="12.315914529314272"><ele>396.0</ele><time>2026-04-25T10:16:02Z</time></trkpt><trkpt lat="46.16464298941676" lon="12.31581645391304"><ele>395.5</ele><time>2026-04-25T10:16:03Z</time></trkpt><trkpt lat="46.164751863899724" lon="12.315736013395238"><ele>395.0</ele><time>2026-04-25T10:16:04Z</time></trkpt><trkpt lat="46.164875599646805" lon="12.315672559812091"><ele>394.0</ele><time>2026-04-25T10:16:05Z</time></trkpt><trkpt lat="46.16500270605948" lon="12.315626511835589"><ele>393.0</ele><time>2026-04-25T10:16:06Z</time></trkpt><trkpt lat="46.165134285415675" lon="12.315587975863007"><ele>392.0</ele><time>2026-04-25T10:16:07Z</time></trkpt><trkpt lat="46.1652660960607" lon="12.315555047858911"><ele>391.0</ele><time>2026-04-25T10:16:08Z</time></trkpt><trkpt lat="46.16539709902657" lon="12.315534933164715"><ele>391.0</ele><time>2026-04-25T10:16:09Z</time></trkpt><trkpt lat="46.1655272884317" lon="12.315521323578462"><ele>391.0</ele><time>2026-04-25T10:16:10Z</time></trkpt><trkpt lat="46.165656108218556" lon="12.31551878624963"><ele>391.0</ele><time>2026-04-25T10:16:11Z</time></trkpt><trkpt lat="46.16578473100122" lon="12.315526978789052"><ele>391.0</ele><time>2026-04-25T10:16:12Z</time></trkpt><trkpt lat="46.165911972069395" lon="12.315548034842585"><ele>389.5</ele><time>2026-04-25T10:16:13Z</time></trkpt><trkpt lat="46.16603511691112" lon="12.31557513354324"><ele>388.0</ele><time>2026-04-25T10:16:14Z</time></trkpt><trkpt lat="46.16615218354116" lon="12.315601039379981"><ele>386.5</ele><time>2026-04-25T10:16:15Z</time></trkpt><trkpt lat="46.16626859838347" lon="12.315613162429013"><ele>385.0</ele><time>2026-04-25T10:16:16Z</time></trkpt><trkpt lat="46.166388604497456" lon="12.315599006161143"><ele>386.0</ele><time>2026-04-25T10:16:17Z</time></trkpt><trkpt lat="46.166510585258706" lon="12.31555492297056"><ele>387.0</ele><time>2026-04-25T10:16:18Z</time></trkpt><trkpt lat="46.16662972219588" lon="12.315484446991162"><ele>388.0</ele><time>2026-04-25T10:16:19Z</time></trkpt><trkpt lat="46.166747472135654" lon="12.31540465030753"><ele>389.0</ele><time>2026-04-25T10:16:20Z</time></trkpt><trkpt lat="46.16686654097811" lon="12.315320800949987"><ele>389.0</ele><time>2026-04-25T10:16:21Z</time></trkpt><trkpt lat="46.1669662960181" lon="12.31520104685389"><ele>389.0</ele><time>2026-04-25T10:16:22Z</time></trkpt><trkpt lat="46.16710760559141" lon="12.315167325116372"><ele>389.0</ele><time>2026-04-25T10:16:23Z</time></trkpt><trkpt lat="46.16722823291069" lon="12.315095643952828"><ele>389.0</ele><time>2026-04-25T10:16:24Z</time></trkpt><trkpt lat="46.16735010307352" lon="12.315029347452551"><ele>388.5</ele><time>2026-04-25T10:16:25Z</time></trkpt><trkpt lat="46.167469707254625" lon="12.314967871725877"><ele>388.0</ele><time>2026-04-25T10:16:26Z</time></trkpt><trkpt lat="46.16758696595576" lon="12.314906471929179"><ele>387.5</ele><time>2026-04-25T10:16:27Z</time></trkpt><trkpt lat="46.167705633258095" lon="12.31485748582283"><ele>387.0</ele><time>2026-04-25T10:16:28Z</time></trkpt><trkpt lat="46.167821359037944" lon="12.314801027940534"><ele>387.0</ele><time>2026-04-25T10:16:28.999Z</time></trkpt><trkpt lat="46.16793681054629" lon="12.314739541768365"><ele>387.0</ele><time>2026-04-25T10:16:29.999Z</time></trkpt><trkpt lat="46.16805486111907" lon="12.314672782145784"><ele>387.0</ele><time>2026-04-25T10:16:30.999Z</time></trkpt><trkpt lat="46.1681744414171" lon="12.314591183152865"><ele>387.0</ele><time>2026-04-25T10:16:31.999Z</time></trkpt><trkpt lat="46.16828947937487" lon="12.314488549167155"><ele>387.25</ele><time>2026-04-25T10:16:32.999Z</time></trkpt><trkpt lat="46.168398721501696" lon="12.314361141283648"><ele>387.5</ele><time>2026-04-25T10:16:33.999Z</time></trkpt><trkpt lat="46.16850356386784" lon="12.314217636156574"><ele>387.75</ele><time>2026-04-25T10:16:34.999Z</time></trkpt><trkpt lat="46.168598244562" lon="12.314054771328781"><ele>388.0</ele><time>2026-04-25T10:16:35.999Z</time></trkpt><trkpt lat="46.16868088829697" lon="12.313873137694566"><ele>390.0</ele><time>2026-04-25T10:16:36.999Z</time></trkpt><trkpt lat="46.16875599911661" lon="12.313679701712095"><ele>392.0</ele><time>2026-04-25T10:16:37.999Z</time></trkpt><trkpt lat="46.16882690842808" lon="12.31346869748686"><ele>394.0</ele><time>2026-04-25T10:16:38.999Z</time></trkpt><trkpt lat="46.16888509837719" lon="12.313243576293196"><ele>394.0</ele><time>2026-04-25T10:16:39.999Z</time></trkpt><trkpt lat="46.16894429697716" lon="12.312996645241531"><ele>394.0</ele><time>2026-04-25T10:16:40.999Z</time></trkpt><trkpt lat="46.16901056105903" lon="12.312769552305314"><ele>394.0</ele><time>2026-04-25T10:16:41.999Z</time></trkpt><trkpt lat="46.16907631427612" lon="12.31254574322228"><ele>392.33333333333337</ele><time>2026-04-25T10:16:42.999Z</time></trkpt><trkpt lat="46.169138575407544" lon="12.312325528308037"><ele>390.66666666666663</ele><time>2026-04-25T10:16:43.999Z</time></trkpt><trkpt lat="46.16919854963748" lon="12.31211048120794"><ele>389.0</ele><time>2026-04-25T10:16:44.999Z</time></trkpt><trkpt lat="46.16925851327069" lon="12.311898535765975"><ele>389.0</ele><time>2026-04-25T10:16:45.999Z</time></trkpt><trkpt lat="46.16931707123502" lon="12.31168844455182"><ele>389.0</ele><time>2026-04-25T10:16:46.999Z</time></trkpt><trkpt lat="46.169381391511614" lon="12.311478169683403"><ele>389.0</ele><time>2026-04-25T10:16:47.999Z</time></trkpt><trkpt lat="46.16945138398442" lon="12.311266685635156"><ele>391.3333333333333</ele><time>2026-04-25T10:16:48.999Z</time></trkpt><trkpt lat="46.16952573800757" lon="12.311059359198524"><ele>393.66666666666663</ele><time>2026-04-25T10:16:49.999Z</time></trkpt><trkpt lat="46.16960333069278" lon="12.310858404223941"><ele>396.0</ele><time>2026-04-25T10:16:50.999Z</time></trkpt><trkpt lat="46.16968677430621" lon="12.31065671887177"><ele>395.0</ele><time>2026-04-25T10:16:51.999Z</time></trkpt><trkpt lat="46.169777355594604" lon="12.310449409332154"><ele>394.0</ele><time>2026-04-25T10:16:52.999Z</time></trkpt><trkpt lat="46.16987605507789" lon="12.31023817362517"><ele>393.0</ele><time>2026-04-25T10:16:53.999Z</time></trkpt><trkpt lat="46.16998419605565" lon="12.310029263604585"><ele>393.0</ele><time>2026-04-25T10:16:54.999Z</time></trkpt><trkpt lat="46.17009697621339" lon="12.309826395444789"><ele>393.0</ele><time>2026-04-25T10:16:55.999Z</time></trkpt><trkpt lat="46.17021531479413" lon="12.30963184863789"><ele>393.0</ele><time>2026-04-25T10:16:56.999Z</time></trkpt><trkpt lat="46.170333668921764" lon="12.309443993446328"><ele>392.66666666666663</ele><time>2026-04-25T10:16:57.999Z</time></trkpt><trkpt lat="46.17045957773574" lon="12.309260763018667"><ele>392.3333333333333</ele><time>2026-04-25T10:16:58.999Z</time></trkpt><trkpt lat="46.17059190855073" lon="12.30909260384715"><ele>392.0</ele><time>2026-04-25T10:16:59.999Z</time></trkpt><trkpt lat="46.17071738791828" lon="12.30891817348662"><ele>394.66666666666663</ele><time>2026-04-25T10:17:00.999Z</time></trkpt><trkpt lat="46.17083630651109" lon="12.308746230566637"><ele>397.33333333333337</ele><time>2026-04-25T10:17:01.999Z</time></trkpt><trkpt lat="46.170946741684354" lon="12.30857044624798"><ele>400.0</ele><time>2026-04-25T10:17:02.999Z</time></trkpt><trkpt lat="46.1710494409727" lon="12.308390792755107"><ele>400.0</ele><time>2026-04-25T10:17:03.999Z</time></trkpt><trkpt lat="46.17114971500425" lon="12.308210546457628"><ele>400.0</ele><time>2026-04-25T10:17:04.999Z</time></trkpt><trkpt lat="46.17125033589889" lon="12.308032318574913"><ele>400.0</ele><time>2026-04-25T10:17:05.999Z</time></trkpt><trkpt lat="46.17135554375824" lon="12.3078577294751"><ele>403.33333333333337</ele><time>2026-04-25T10:17:06.999Z</time></trkpt><trkpt lat="46.17146206813017" lon="12.307685800828008"><ele>406.66666666666663</ele><time>2026-04-25T10:17:07.999Z</time></trkpt><trkpt lat="46.171570760087334" lon="12.307519515434606"><ele>410.0</ele><time>2026-04-25T10:17:08.999Z</time></trkpt><trkpt lat="46.171680424798524" lon="12.307354029466829"><ele>407.3333333333333</ele><time>2026-04-25T10:17:09.999Z</time></trkpt><trkpt lat="46.171793415332466" lon="12.307185303585687"><ele>404.66666666666663</ele><time>2026-04-25T10:17:10.999Z</time></trkpt><trkpt lat="46.17190387491792" lon="12.30701212799949"><ele>402.0</ele><time>2026-04-25T10:17:11.999Z</time></trkpt><trkpt lat="46.17201359491315" lon="12.306842300103881"><ele>402.0</ele><time>2026-04-25T10:17:12.999Z</time></trkpt><trkpt lat="46.172121879956556" lon="12.306675315212901"><ele>402.0</ele><time>2026-04-25T10:17:13.999Z</time></trkpt><trkpt lat="46.172224887409484" lon="12.306507303560021"><ele>402.0</ele><time>2026-04-25T10:17:14.999Z</time></trkpt><trkpt lat="46.17232170144881" lon="12.306337463292937"><ele>400.0</ele><time>2026-04-25T10:17:15.999Z</time></trkpt><trkpt lat="46.17241130416629" lon="12.306163909266047"><ele>398.0</ele><time>2026-04-25T10:17:16.999Z</time></trkpt><trkpt lat="46.17249348961541" lon="12.30598698881973"><ele>396.0</ele><time>2026-04-25T10:17:17.999Z</time></trkpt><trkpt lat="46.17257321596497" lon="12.305804779711828"><ele>394.0</ele><time>2026-04-25T10:17:18.999Z</time></trkpt><trkpt lat="46.172649498041345" lon="12.305615738878487"><ele>395.75</ele><time>2026-04-25T10:17:19.999Z</time></trkpt><trkpt lat="46.172725390285414" lon="12.30542870826526"><ele>397.5</ele><time>2026-04-25T10:17:20.999Z</time></trkpt><trkpt lat="46.17280281934335" lon="12.30524510517879"><ele>399.25</ele><time>2026-04-25T10:17:21.999Z</time></trkpt><trkpt lat="46.17288042962318" lon="12.305062531955828"><ele>401.0</ele><time>2026-04-25T10:17:22.999Z</time></trkpt><trkpt lat="46.1729540719464" lon="12.304878132418754"><ele>400.25</ele><time>2026-04-25T10:17:23.999Z</time></trkpt><trkpt lat="46.17302587138164" lon="12.304702887319914"><ele>399.5</ele><time>2026-04-25T10:17:24.999Z</time></trkpt><trkpt lat="46.17310316263842" lon="12.304546736167701"><ele>398.75</ele><time>2026-04-25T10:17:25.999Z</time></trkpt><trkpt lat="46.173188507988556" lon="12.304415090948808"><ele>398.0</ele><time>2026-04-25T10:17:26.999Z</time></trkpt><trkpt lat="46.17328347316146" lon="12.30431390498984"><ele>398.0</ele><time>2026-04-25T10:17:27.999Z</time></trkpt><trkpt lat="46.1733859533788" lon="12.304236020339323"><ele>398.0</ele><time>2026-04-25T10:17:28.999Z</time></trkpt><trkpt lat="46.173484636545524" lon="12.304163477109475"><ele>398.0</ele><time>2026-04-25T10:17:29.999Z</time></trkpt><trkpt lat="46.17357248183391" lon="12.304093639668329"><ele>398.0</ele><time>2026-04-25T10:17:30.999Z</time></trkpt><trkpt lat="46.17365083751487" lon="12.304022529611188"><ele>398.0</ele><time>2026-04-25T10:17:31.999Z</time></trkpt><trkpt lat="46.17371249576827" lon="12.303946631536846"><ele>399.66666666666663</ele><time>2026-04-25T10:17:32.999Z</time></trkpt><trkpt lat="46.17376309903528" lon="12.303870233002892"><ele>401.3333333333333</ele><time>2026-04-25T10:17:33.999Z</time></trkpt><trkpt lat="46.173803821043364" lon="12.30379350943419"><ele>403.0</ele><time>2026-04-25T10:17:34.999Z</time></trkpt><trkpt lat="46.17383867286072" lon="12.30371592964171"><ele>404.66666666666663</ele><time>2026-04-25T10:17:35.999Z</time></trkpt><trkpt lat="46.173894808345366" lon="12.303558336412374"><ele>406.3333333333333</ele><time>2026-04-25T10:17:37.999Z</time></trkpt><trkpt lat="46.17393425497487" lon="12.303390883351119"><ele>408.0</ele><time>2026-04-25T10:17:39.999Z</time></trkpt><trkpt lat="46.17395172014363" lon="12.303295584074538"><ele>408.0</ele><time>2026-04-25T10:17:40.999Z</time></trkpt><trkpt lat="46.17396510886133" lon="12.303192668045542"><ele>408.0</ele><time>2026-04-25T10:17:41.999Z</time></trkpt><trkpt lat="46.17397230090957" lon="12.303082707433061"><ele>408.0</ele><time>2026-04-25T10:17:42.999Z</time></trkpt><trkpt lat="46.173978007209016" lon="12.302972869122842"><ele>408.0</ele><time>2026-04-25T10:17:43.999Z</time></trkpt><trkpt lat="46.1739860484939" lon="12.302864695835364"><ele>408.0</ele><time>2026-04-25T10:17:44.999Z</time></trkpt><trkpt lat="46.17399132878892" lon="12.302752704189164"><ele>408.0</ele><time>2026-04-25T10:17:45.999Z</time></trkpt><trkpt lat="46.17399574307564" lon="12.302635304316956"><ele>408.1666666666667</ele><time>2026-04-25T10:17:46.999Z</time></trkpt><trkpt lat="46.17399987085686" lon="12.302514590422602"><ele>408.33333333333337</ele><time>2026-04-25T10:17:47.999Z</time></trkpt><trkpt lat="46.17400286978324" lon="12.302393376843247"><ele>408.5</ele><time>2026-04-25T10:17:48.999Z</time></trkpt><trkpt lat="46.17400682315728" lon="12.30226861030714"><ele>408.6666666666667</ele><time>2026-04-25T10:17:49.999Z</time></trkpt><trkpt lat="46.17401248707631" lon="12.302139977576697"><ele>408.83333333333337</ele><time>2026-04-25T10:17:51Z</time></trkpt><trkpt lat="46.17401635378666" lon="12.302007797157856"><ele>409.0</ele><time>2026-04-25T10:17:52Z</time></trkpt><trkpt lat="46.17401955683217" lon="12.301875390812622"><ele>405.79999999999995</ele><time>2026-04-25T10:17:53Z</time></trkpt><trkpt lat="46.17402615284268" lon="12.301740145163503"><ele>402.59999999999997</ele><time>2026-04-25T10:17:54Z</time></trkpt><trkpt lat="46.1740325611002" lon="12.301604615037284"><ele>399.4</ele><time>2026-04-25T10:17:55Z</time></trkpt><trkpt lat="46.17403720810617" lon="12.301468976508547"><ele>396.2</ele><time>2026-04-25T10:17:56Z</time></trkpt><trkpt lat="46.1740361627364" lon="12.301335250763277"><ele>393.0</ele><time>2026-04-25T10:17:57Z</time></trkpt><trkpt lat="46.17402866221877" lon="12.301204311639355"><ele>394.5</ele><time>2026-04-25T10:17:58Z</time></trkpt><trkpt lat="46.17401285818154" lon="12.30107513562276"><ele>396.0</ele><time>2026-04-25T10:17:59Z</time></trkpt><trkpt lat="46.173984543282764" lon="12.300957165676378"><ele>397.5</ele><time>2026-04-25T10:18:00Z</time></trkpt><trkpt lat="46.17394754840182" lon="12.300847564563034"><ele>399.0</ele><time>2026-04-25T10:18:01Z</time></trkpt><trkpt lat="46.1739006912522" lon="12.300743066857727"><ele>400.5</ele><time>2026-04-25T10:18:02Z</time></trkpt><trkpt lat="46.173850905402816" lon="12.300646075220786"><ele>402.0</ele><time>2026-04-25T10:18:03Z</time></trkpt><trkpt lat="46.17379236577582" lon="12.300525499832965"><ele>402.0</ele><time>2026-04-25T10:18:04Z</time></trkpt><trkpt lat="46.173744616561166" lon="12.300373566935708"><ele>402.0</ele><time>2026-04-25T10:18:05Z</time></trkpt><trkpt lat="46.173721250929724" lon="12.300161776383952"><ele>402.0</ele><time>2026-04-25T10:18:06Z</time></trkpt><trkpt lat="46.17373657288891" lon="12.299939858676233"><ele>402.0</ele><time>2026-04-25T10:18:07Z</time></trkpt><trkpt lat="46.17377170104401" lon="12.299698233986753"><ele>404.0</ele><time>2026-04-25T10:18:08Z</time></trkpt><trkpt lat="46.173801113971635" lon="12.299474354598654"><ele>406.0</ele><time>2026-04-25T10:18:09Z</time></trkpt><trkpt lat="46.17382854629357" lon="12.299264904333063"><ele>408.0</ele><time>2026-04-25T10:18:10Z</time></trkpt><trkpt lat="46.17386035646356" lon="12.29907126202762"><ele>410.0</ele><time>2026-04-25T10:18:11Z</time></trkpt><trkpt lat="46.17389379721229" lon="12.298880305457555"><ele>410.75</ele><time>2026-04-25T10:18:12Z</time></trkpt><trkpt lat="46.173933964946094" lon="12.298693364653854"><ele>411.5</ele><time>2026-04-25T10:18:13Z</time></trkpt><trkpt lat="46.173984029720884" lon="12.298504666701506"><ele>412.25</ele><time>2026-04-25T10:18:14Z</time></trkpt><trkpt lat="46.17404966820601" lon="12.298313199142207"><ele>413.0</ele><time>2026-04-25T10:18:15Z</time></trkpt><trkpt lat="46.17412897582871" lon="12.29812137016687"><ele>412.0</ele><time>2026-04-25T10:18:16Z</time></trkpt><trkpt lat="46.174220566219745" lon="12.29792853922048"><ele>411.0</ele><time>2026-04-25T10:18:17Z</time></trkpt><trkpt lat="46.17433101976025" lon="12.29774102428986"><ele>410.0</ele><time>2026-04-25T10:18:18Z</time></trkpt><trkpt lat="46.17445131405818" lon="12.297563662668532"><ele>410.0</ele><time>2026-04-25T10:18:19Z</time></trkpt><trkpt lat="46.174577201477106" lon="12.297393810883285"><ele>410.0</ele><time>2026-04-25T10:18:20Z</time></trkpt><trkpt lat="46.174706744850255" lon="12.297227192798347"><ele>410.0</ele><time>2026-04-25T10:18:21Z</time></trkpt><trkpt lat="46.17483183875283" lon="12.297060746711752"><ele>409.3333333333333</ele><time>2026-04-25T10:18:22Z</time></trkpt><trkpt lat="46.17495163047922" lon="12.296899070867962"><ele>408.66666666666663</ele><time>2026-04-25T10:18:23Z</time></trkpt><trkpt lat="46.17506735754249" lon="12.296748568140083"><ele>408.0</ele><time>2026-04-25T10:18:24Z</time></trkpt><trkpt lat="46.17517461113183" lon="12.296600957385307"><ele>408.0</ele><time>2026-04-25T10:18:25Z</time></trkpt><trkpt lat="46.17526800110175" lon="12.2964240870103"><ele>408.0</ele><time>2026-04-25T10:18:26Z</time></trkpt><trkpt lat="46.17534410665296" lon="12.296223410771617"><ele>408.0</ele><time>2026-04-25T10:18:27Z</time></trkpt><trkpt lat="46.17539788637223" lon="12.296003033224721"><ele>408.66666666666663</ele><time>2026-04-25T10:18:28Z</time></trkpt><trkpt lat="46.1754254749525" lon="12.295769742275976"><ele>409.3333333333333</ele><time>2026-04-25T10:18:29Z</time></trkpt><trkpt lat="46.175433045939144" lon="12.295531342558256"><ele>410.0</ele><time>2026-04-25T10:18:30Z</time></trkpt><trkpt lat="46.175409365092285" lon="12.295294375319195"><ele>410.0</ele><time>2026-04-25T10:18:31Z</time></trkpt><trkpt lat="46.17535115230765" lon="12.29506513965823"><ele>410.0</ele><time>2026-04-25T10:18:32Z</time></trkpt><trkpt lat="46.175267593583" lon="12.294842870464803"><ele>410.0</ele><time>2026-04-25T10:18:33Z</time></trkpt><trkpt lat="46.175153286474654" lon="12.294645671256024"><ele>407.66666666666663</ele><time>2026-04-25T10:18:34Z</time></trkpt><trkpt lat="46.17501430821963" lon="12.294479360100743"><ele>405.33333333333337</ele><time>2026-04-25T10:18:35Z</time></trkpt><trkpt lat="46.17484885280955" lon="12.29435592287723"><ele>403.0</ele><time>2026-04-25T10:18:35.999Z</time></trkpt><trkpt lat="46.17468106835364" lon="12.294247553516671"><ele>403.0</ele><time>2026-04-25T10:18:36.999Z</time></trkpt><trkpt lat="46.17451770070305" lon="12.294129119775132"><ele>403.0</ele><time>2026-04-25T10:18:37.999Z</time></trkpt><trkpt lat="46.174360654161326" lon="12.294008747307368"><ele>403.0</ele><time>2026-04-25T10:18:38.999Z</time></trkpt><trkpt lat="46.17420638543076" lon="12.293887251746977"><ele>404.33333333333337</ele><time>2026-04-25T10:18:39.999Z</time></trkpt><trkpt lat="46.1740591145053" lon="12.293743790846126"><ele>405.66666666666663</ele><time>2026-04-25T10:18:40.999Z</time></trkpt><trkpt lat="46.17392013475026" lon="12.293577979258144"><ele>407.0</ele><time>2026-04-25T10:18:41.999Z</time></trkpt><trkpt lat="46.17379161441083" lon="12.293396126824003"><ele>407.0</ele><time>2026-04-25T10:18:42.999Z</time></trkpt><trkpt lat="46.173675674890006" lon="12.29319111153425"><ele>407.0</ele><time>2026-04-25T10:18:43.999Z</time></trkpt><trkpt lat="46.173563107202256" lon="12.292972139064771"><ele>407.0</ele><time>2026-04-25T10:18:44.999Z</time></trkpt><trkpt lat="46.17345564947978" lon="12.292746990759738"><ele>406.0</ele><time>2026-04-25T10:18:45.999Z</time></trkpt><trkpt lat="46.173349055490384" lon="12.292521186300458"><ele>405.0</ele><time>2026-04-25T10:18:46.999Z</time></trkpt><trkpt lat="46.173242476941084" lon="12.292298896614582"><ele>404.0</ele><time>2026-04-25T10:18:47.999Z</time></trkpt><trkpt lat="46.17313949138821" lon="12.292078762164408"><ele>404.0</ele><time>2026-04-25T10:18:48.999Z</time></trkpt><trkpt lat="46.17304623907244" lon="12.291857438292997"><ele>404.0</ele><time>2026-04-25T10:18:49.999Z</time></trkpt><trkpt lat="46.1729606722045" lon="12.291629299979698"><ele>404.0</ele><time>2026-04-25T10:18:50.999Z</time></trkpt><trkpt lat="46.17288667156366" lon="12.291396063283745"><ele>403.66666666666663</ele><time>2026-04-25T10:18:51.999Z</time></trkpt><trkpt lat="46.172828080669035" lon="12.291159594372003"><ele>403.33333333333337</ele><time>2026-04-25T10:18:52.999Z</time></trkpt><trkpt lat="46.17278157820183" lon="12.290921185484763"><ele>403.0</ele><time>2026-04-25T10:18:53.999Z</time></trkpt><trkpt lat="46.17274176396515" lon="12.290682611906277"><ele>402.33333333333337</ele><time>2026-04-25T10:18:54.999Z</time></trkpt><trkpt lat="46.17271191214824" lon="12.290440318671852"><ele>401.66666666666663</ele><time>2026-04-25T10:18:55.999Z</time></trkpt><trkpt lat="46.1726913147371" lon="12.290189827199601"><ele>401.0</ele><time>2026-04-25T10:18:56.999Z</time></trkpt><trkpt lat="46.17267328380102" lon="12.28993722763799"><ele>400.66666666666663</ele><time>2026-04-25T10:18:57.999Z</time></trkpt><trkpt lat="46.1726547110416" lon="12.28968463600724"><ele>400.33333333333337</ele><time>2026-04-25T10:18:58.999Z</time></trkpt><trkpt lat="46.17263254725736" lon="12.289429962921133"><ele>400.0</ele><time>2026-04-25T10:18:59.999Z</time></trkpt><trkpt lat="46.17261354646344" lon="12.289174916578412"><ele>398.6666666666667</ele><time>2026-04-25T10:19:00.999Z</time></trkpt><trkpt lat="46.172592603627976" lon="12.288918156957108"><ele>397.33333333333337</ele><time>2026-04-25T10:19:01.999Z</time></trkpt><trkpt lat="46.172572337751944" lon="12.288658511615694"><ele>396.0</ele><time>2026-04-25T10:19:02.999Z</time></trkpt><trkpt lat="46.172554050976494" lon="12.288398676107079"><ele>396.0</ele><time>2026-04-25T10:19:03.999Z</time></trkpt><trkpt lat="46.17253519316898" lon="12.28813689739041"><ele>396.0</ele><time>2026-04-25T10:19:04.999Z</time></trkpt><trkpt lat="46.17251460894998" lon="12.28787430613611"><ele>396.0</ele><time>2026-04-25T10:19:05.999Z</time></trkpt><trkpt lat="46.1724933542489" lon="12.28761112084233"><ele>395.33333333333337</ele><time>2026-04-25T10:19:06.999Z</time></trkpt><trkpt lat="46.17247287815874" lon="12.287349007076392"><ele>394.6666666666667</ele><time>2026-04-25T10:19:07.999Z</time></trkpt><trkpt lat="46.17245185940426" lon="12.287090343956638"><ele>394.0</ele><time>2026-04-25T10:19:08.999Z</time></trkpt><trkpt lat="46.17243048485808" lon="12.28683322214341"><ele>392.6666666666667</ele><time>2026-04-25T10:19:09.999Z</time></trkpt><trkpt lat="46.172412034997784" lon="12.286578744889058"><ele>391.33333333333337</ele><time>2026-04-25T10:19:10.999Z</time></trkpt><trkpt lat="46.172393546499364" lon="12.28632808514777"><ele>390.0</ele><time>2026-04-25T10:19:11.999Z</time></trkpt><trkpt lat="46.172374699031586" lon="12.286080284296492"><ele>392.33333333333337</ele><time>2026-04-25T10:19:12.999Z</time></trkpt><trkpt lat="46.172355509104285" lon="12.285837942061773"><ele>394.6666666666667</ele><time>2026-04-25T10:19:13.999Z</time></trkpt><trkpt lat="46.17233761157477" lon="12.28559859751946"><ele>397.0</ele><time>2026-04-25T10:19:14.999Z</time></trkpt><trkpt lat="46.1723185721937" lon="12.285366443518898"><ele>397.0</ele><time>2026-04-25T10:19:15.999Z</time></trkpt><trkpt lat="46.17229852260887" lon="12.285140387369713"><ele>397.0</ele><time>2026-04-25T10:19:16.999Z</time></trkpt><trkpt lat="46.17228031592484" lon="12.284920641917072"><ele>397.0</ele><time>2026-04-25T10:19:17.999Z</time></trkpt><trkpt lat="46.17226418272433" lon="12.28471004921509"><ele>396.75</ele><time>2026-04-25T10:19:18.999Z</time></trkpt><trkpt lat="46.17225144195692" lon="12.284514881622739"><ele>396.5</ele><time>2026-04-25T10:19:19.999Z</time></trkpt><trkpt lat="46.17223776244455" lon="12.284336185536565"><ele>396.25</ele><time>2026-04-25T10:19:20.999Z</time></trkpt><trkpt lat="46.17222572552269" lon="12.284172926455444"><ele>396.0</ele><time>2026-04-25T10:19:21.999Z</time></trkpt><trkpt lat="46.17221621460922" lon="12.284027049374652"><ele>395.6666666666667</ele><time>2026-04-25T10:19:22.999Z</time></trkpt><trkpt lat="46.17220657130173" lon="12.283911305275838"><ele>395.33333333333337</ele><time>2026-04-25T10:19:23.999Z</time></trkpt><trkpt lat="46.17219756296467" lon="12.283817743054072"><ele>395.0</ele><time>2026-04-25T10:19:24.999Z</time></trkpt><trkpt lat="46.17218632958734" lon="12.283693852773881"><ele>394.6666666666667</ele><time>2026-04-25T10:19:26.999Z</time></trkpt><trkpt lat="46.172171413760445" lon="12.283579066649962"><ele>394.33333333333337</ele><time>2026-04-25T10:19:29.999Z</time></trkpt><trkpt lat="46.17215839815226" lon="12.283474649038187"><ele>394.0</ele><time>2026-04-25T10:20:00Z</time></trkpt><trkpt lat="46.172243680439145" lon="12.283405936921607"><ele>394.00000000000006</ele><time>2026-04-25T10:20:03Z</time></trkpt><trkpt lat="46.172314841327335" lon="12.283447096314948"><ele>394.0</ele><time>2026-04-25T10:20:04Z</time></trkpt><trkpt lat="46.172387987685454" lon="12.283471216115425"><ele>394.0</ele><time>2026-04-25T10:20:05Z</time></trkpt><trkpt lat="46.17247408005845" lon="12.283448790462993"><ele>394.0</ele><time>2026-04-25T10:20:06Z</time></trkpt><trkpt lat="46.17256016374204" lon="12.283426172192382"><ele>394.00000000000006</ele><time>2026-04-25T10:20:07Z</time></trkpt><trkpt lat="46.172630494095614" lon="12.2834116273963"><ele>394.0</ele><time>2026-04-25T10:20:08Z</time></trkpt><trkpt lat="46.17274548335745" lon="12.283389727704638"><ele>391.1666666666667</ele><time>2026-04-25T10:20:10Z</time></trkpt><trkpt lat="46.172843218569646" lon="12.283375834563271"><ele>388.33333333333337</ele><time>2026-04-25T10:20:12Z</time></trkpt><trkpt lat="46.17292927306626" lon="12.283494788037716"><ele>385.5</ele><time>2026-04-25T10:20:14Z</time></trkpt><trkpt lat="46.17295966257325" lon="12.283598890814005"><ele>382.6666666666667</ele><time>2026-04-25T10:20:15Z</time></trkpt><trkpt lat="46.17299436046996" lon="12.28368849511218"><ele>379.83333333333337</ele><time>2026-04-25T10:20:16Z</time></trkpt><trkpt lat="46.173030763315026" lon="12.283780742400161"><ele>377.0</ele><time>2026-04-25T10:20:17Z</time></trkpt><trkpt lat="46.17306826473004" lon="12.283867741213008"><ele>377.6666666666667</ele><time>2026-04-25T10:20:18Z</time></trkpt><trkpt lat="46.17310516538444" lon="12.28395644824823"><ele>378.33333333333337</ele><time>2026-04-25T10:20:19Z</time></trkpt><trkpt lat="46.17315469131939" lon="12.284040569280002"><ele>379.0</ele><time>2026-04-25T10:20:20Z</time></trkpt><trkpt lat="46.173219494738696" lon="12.284114195608211"><ele>379.6666666666667</ele><time>2026-04-25T10:20:21Z</time></trkpt><trkpt lat="46.17329038715458" lon="12.284171321783374"><ele>380.3333333333333</ele><time>2026-04-25T10:20:22Z</time></trkpt><trkpt lat="46.1733726641539" lon="12.284207259082253"><ele>381.0</ele><time>2026-04-25T10:20:23Z</time></trkpt><trkpt lat="46.17346970719596" lon="12.284172521721613"><ele>381.8</ele><time>2026-04-25T10:20:24Z</time></trkpt><trkpt lat="46.173563938276736" lon="12.284104871312458"><ele>382.6</ele><time>2026-04-25T10:20:25Z</time></trkpt><trkpt lat="46.17362451431079" lon="12.284023705798129"><ele>383.4</ele><time>2026-04-25T10:20:26Z</time></trkpt><trkpt lat="46.17372256959021" lon="12.28393900356696"><ele>384.2</ele><time>2026-04-25T10:20:28Z</time></trkpt><trkpt lat="46.17380270151947" lon="12.28386640177775"><ele>385.0</ele><time>2026-04-25T10:20:30Z</time></trkpt><trkpt lat="46.17387871694624" lon="12.283808988001075"><ele>385.0</ele><time>2026-04-25T10:20:32Z</time></trkpt><trkpt lat="46.173942442106416" lon="12.283780614569688"><ele>385.0</ele><time>2026-04-25T10:20:35.999Z</time></trkpt><trkpt lat="46.17405030889468" lon="12.283706878426313"><ele>385.0</ele><time>2026-04-25T10:20:37.999Z</time></trkpt><trkpt lat="46.17414388549312" lon="12.283666053208934"><ele>385.0</ele><time>2026-04-25T10:20:38.999Z</time></trkpt><trkpt lat="46.174258700572935" lon="12.283634293856135"><ele>385.0</ele><time>2026-04-25T10:20:39.999Z</time></trkpt><trkpt lat="46.17437510145464" lon="12.283626025400185"><ele>387.1666666666667</ele><time>2026-04-25T10:20:40.999Z</time></trkpt><trkpt lat="46.174483200915546" lon="12.283638493234028"><ele>389.33333333333337</ele><time>2026-04-25T10:20:41.999Z</time></trkpt><trkpt lat="46.17457120616908" lon="12.283648473550464"><ele>391.5</ele><time>2026-04-25T10:20:42.999Z</time></trkpt><trkpt lat="46.1746480962165" lon="12.283663037135598"><ele>393.66666666666663</ele><time>2026-04-25T10:20:43.999Z</time></trkpt><trkpt lat="46.174720927435224" lon="12.283677116924641"><ele>395.8333333333333</ele><time>2026-04-25T10:20:44.999Z</time></trkpt><trkpt lat="46.174784977278456" lon="12.283678396021793"><ele>398.0</ele><time>2026-04-25T10:20:45.999Z</time></trkpt><trkpt lat="46.17491406142883" lon="12.2836907582334"><ele>398.3333333333333</ele><time>2026-04-25T10:20:47.999Z</time></trkpt><trkpt lat="46.17498733908024" lon="12.283702654451975"><ele>398.66666666666663</ele><time>2026-04-25T10:20:48.999Z</time></trkpt><trkpt lat="46.17506703160152" lon="12.283701623068682"><ele>399.0</ele><time>2026-04-25T10:20:49.999Z</time></trkpt><trkpt lat="46.17515001285117" lon="12.283683038596838"><ele>399.33333333333337</ele><time>2026-04-25T10:20:50.999Z</time></trkpt><trkpt lat="46.17523693316768" lon="12.283659035533177"><ele>399.6666666666667</ele><time>2026-04-25T10:20:51.999Z</time></trkpt><trkpt lat="46.17533440901133" lon="12.283628853489798"><ele>400.0</ele><time>2026-04-25T10:20:52.999Z</time></trkpt><trkpt lat="46.17544783263233" lon="12.283593859014728"><ele>400.0</ele><time>2026-04-25T10:20:53.999Z</time></trkpt><trkpt lat="46.17557460094547" lon="12.28355157426354"><ele>400.0</ele><time>2026-04-25T10:20:54.999Z</time></trkpt><trkpt lat="46.17570466929273" lon="12.283511939453405"><ele>400.0</ele><time>2026-04-25T10:20:55.999Z</time></trkpt><trkpt lat="46.175838656259195" lon="12.283467966771225"><ele>400.0</ele><time>2026-04-25T10:20:56.999Z</time></trkpt><trkpt lat="46.1759839405516" lon="12.283423155650945"><ele>399.33333333333337</ele><time>2026-04-25T10:20:57.999Z</time></trkpt><trkpt lat="46.176141624235605" lon="12.283378638382064"><ele>398.66666666666663</ele><time>2026-04-25T10:20:58.999Z</time></trkpt><trkpt lat="46.17631205339929" lon="12.283355893686336"><ele>398.0</ele><time>2026-04-25T10:20:59.999Z</time></trkpt><trkpt lat="46.17649643007389" lon="12.283361996816312"><ele>396.0</ele><time>2026-04-25T10:21:00.999Z</time></trkpt><trkpt lat="46.1766756390958" lon="12.283380268271214"><ele>394.0</ele><time>2026-04-25T10:21:01.999Z</time></trkpt><trkpt lat="46.17683419092785" lon="12.283397229126454"><ele>392.0</ele><time>2026-04-25T10:21:02.999Z</time></trkpt><trkpt lat="46.17697389212215" lon="12.283414941500588"><ele>392.0</ele><time>2026-04-25T10:21:03.999Z</time></trkpt><trkpt lat="46.17710365523295" lon="12.28342999419239"><ele>392.0</ele><time>2026-04-25T10:21:04.999Z</time></trkpt><trkpt lat="46.17723618052364" lon="12.283443775143516"><ele>392.0</ele><time>2026-04-25T10:21:05.999Z</time></trkpt><trkpt lat="46.17737405047796" lon="12.283458900468574"><ele>392.0</ele><time>2026-04-25T10:21:06.999Z</time></trkpt><trkpt lat="46.17751430963612" lon="12.28347187110243"><ele>393.75</ele><time>2026-04-25T10:21:07.999Z</time></trkpt><trkpt lat="46.17765541765545" lon="12.283486277442426"><ele>395.5</ele><time>2026-04-25T10:21:08.999Z</time></trkpt><trkpt lat="46.17779809026521" lon="12.283502087474014"><ele>397.25</ele><time>2026-04-25T10:21:09.999Z</time></trkpt><trkpt lat="46.17794157207104" lon="12.283515422397363"><ele>399.0</ele><time>2026-04-25T10:21:10.999Z</time></trkpt><trkpt lat="46.17808296144119" lon="12.283528929415228"><ele>399.0</ele><time>2026-04-25T10:21:11.999Z</time></trkpt><trkpt lat="46.17822112190491" lon="12.283545562314176"><ele>399.0</ele><time>2026-04-25T10:21:12.999Z</time></trkpt><trkpt lat="46.178355541968955" lon="12.28355799919124"><ele>399.0</ele><time>2026-04-25T10:21:13.999Z</time></trkpt><trkpt lat="46.1784875326801" lon="12.28357373791685"><ele>399.0</ele><time>2026-04-25T10:21:14.999Z</time></trkpt><trkpt lat="46.17861604012841" lon="12.283586749145313"><ele>399.0</ele><time>2026-04-25T10:21:15.999Z</time></trkpt><trkpt lat="46.17874088223131" lon="12.283600612528295"><ele>399.0</ele><time>2026-04-25T10:21:16.999Z</time></trkpt><trkpt lat="46.17886404522447" lon="12.283617704216237"><ele>399.0</ele><time>2026-04-25T10:21:17.999Z</time></trkpt><trkpt lat="46.17898422656844" lon="12.283632032741432"><ele>399.0</ele><time>2026-04-25T10:21:18.999Z</time></trkpt><trkpt lat="46.17909068132856" lon="12.28364241680261"><ele>399.3333333333333</ele><time>2026-04-25T10:21:19.999Z</time></trkpt><trkpt lat="46.17917846607099" lon="12.28365141073668"><ele>399.66666666666663</ele><time>2026-04-25T10:21:20.999Z</time></trkpt><trkpt lat="46.17926085109148" lon="12.283663384444612"><ele>400.0</ele><time>2026-04-25T10:21:21.999Z</time></trkpt><trkpt lat="46.179333422293595" lon="12.283673031167508"><ele>400.3333333333333</ele><time>2026-04-25T10:21:22.999Z</time></trkpt><trkpt lat="46.17942324534077" lon="12.283685676388858"><ele>400.66666666666663</ele><time>2026-04-25T10:21:24.999Z</time></trkpt><trkpt lat="46.179522216417524" lon="12.283721165847998"><ele>401.0</ele><time>2026-04-25T10:21:27.999Z</time></trkpt><trkpt lat="46.1795875524019" lon="12.283761784754425"><ele>400.99999999999994</ele><time>2026-04-25T10:21:28.999Z</time></trkpt><trkpt lat="46.17966691290675" lon="12.28378369123192"><ele>401.0</ele><time>2026-04-25T10:21:29.999Z</time></trkpt><trkpt lat="46.17975553628841" lon="12.283783228628673"><ele>401.0</ele><time>2026-04-25T10:21:30.999Z</time></trkpt><trkpt lat="46.1798397327449" lon="12.28379912893679"><ele>401.0</ele><time>2026-04-25T10:21:31.999Z</time></trkpt><trkpt lat="46.17992630496278" lon="12.283825375576438"><ele>400.99999999999994</ele><time>2026-04-25T10:21:32.999Z</time></trkpt><trkpt lat="46.18002096461769" lon="12.28384937554959"><ele>401.0</ele><time>2026-04-25T10:21:33.999Z</time></trkpt><trkpt lat="46.1801208586295" lon="12.283876786551007"><ele>401.0</ele><time>2026-04-25T10:21:34.999Z</time></trkpt><trkpt lat="46.1802308978469" lon="12.283909834336205"><ele>401.0</ele><time>2026-04-25T10:21:35.999Z</time></trkpt><trkpt lat="46.18036118873046" lon="12.283938612660728"><ele>401.0</ele><time>2026-04-25T10:21:36.999Z</time></trkpt><trkpt lat="46.180516519830746" lon="12.28397413432353"><ele>401.0</ele><time>2026-04-25T10:21:37.999Z</time></trkpt><trkpt lat="46.180698844562876" lon="12.28402604412064"><ele>401.0</ele><time>2026-04-25T10:21:38.999Z</time></trkpt><trkpt lat="46.180889371866364" lon="12.284089252749258"><ele>401.0</ele><time>2026-04-25T10:21:39.999Z</time></trkpt><trkpt lat="46.181062778825" lon="12.284144994235955"><ele>401.0</ele><time>2026-04-25T10:21:40.999Z</time></trkpt><trkpt lat="46.18121558503555" lon="12.284195881301565"><ele>401.0</ele><time>2026-04-25T10:21:41.999Z</time></trkpt><trkpt lat="46.18136263837851" lon="12.284243670789465"><ele>401.0</ele><time>2026-04-25T10:21:42.999Z</time></trkpt><trkpt lat="46.181505611010394" lon="12.284292440847397"><ele>401.0</ele><time>2026-04-25T10:21:43.999Z</time></trkpt><trkpt lat="46.18164469701602" lon="12.28433717668433"><ele>401.0</ele><time>2026-04-25T10:21:44.999Z</time></trkpt><trkpt lat="46.18178253009883" lon="12.28437753382042"><ele>401.0</ele><time>2026-04-25T10:21:45.999Z</time></trkpt><trkpt lat="46.18192338536134" lon="12.28441457712807"><ele>401.0</ele><time>2026-04-25T10:21:46.999Z</time></trkpt><trkpt lat="46.18206716223091" lon="12.284451910019937"><ele>401.0</ele><time>2026-04-25T10:21:47.999Z</time></trkpt><trkpt lat="46.18220960372351" lon="12.284494797461553"><ele>401.0</ele><time>2026-04-25T10:21:48.999Z</time></trkpt><trkpt lat="46.18235186776305" lon="12.284536459190967"><ele>401.0</ele><time>2026-04-25T10:21:49.999Z</time></trkpt><trkpt lat="46.182492835085185" lon="12.28458060915769"><ele>401.0</ele><time>2026-04-25T10:21:50.999Z</time></trkpt><trkpt lat="46.18263537200221" lon="12.284625946030946"><ele>401.0</ele><time>2026-04-25T10:21:51.999Z</time></trkpt><trkpt lat="46.1827809917204" lon="12.284668103216589"><ele>401.0</ele><time>2026-04-25T10:21:52.999Z</time></trkpt><trkpt lat="46.18292585958803" lon="12.284711958129298"><ele>401.0</ele><time>2026-04-25T10:21:53.999Z</time></trkpt><trkpt lat="46.183071198112636" lon="12.284755405492788"><ele>401.0</ele><time>2026-04-25T10:21:54.999Z</time></trkpt><trkpt lat="46.183217213384985" lon="12.284797967515185"><ele>401.0</ele><time>2026-04-25T10:21:55.999Z</time></trkpt><trkpt lat="46.18336693197686" lon="12.284843150574122"><ele>402.0</ele><time>2026-04-25T10:21:56.999Z</time></trkpt><trkpt lat="46.18352227346664" lon="12.284887301589034"><ele>403.0</ele><time>2026-04-25T10:21:57.999Z</time></trkpt><trkpt lat="46.18368138053929" lon="12.2849337783826"><ele>404.0</ele><time>2026-04-25T10:21:58.999Z</time></trkpt><trkpt lat="46.18384236918937" lon="12.284983330999165"><ele>404.0</ele><time>2026-04-25T10:21:59.999Z</time></trkpt><trkpt lat="46.184002937259805" lon="12.285030234990659"><ele>404.0</ele><time>2026-04-25T10:22:00.999Z</time></trkpt><trkpt lat="46.184161604480664" lon="12.285074261237614"><ele>404.0</ele><time>2026-04-25T10:22:02Z</time></trkpt><trkpt lat="46.1843211574548" lon="12.285123455679654"><ele>403.3333333333333</ele><time>2026-04-25T10:22:03Z</time></trkpt><trkpt lat="46.184481563798634" lon="12.285172842155268"><ele>402.66666666666663</ele><time>2026-04-25T10:22:04Z</time></trkpt><trkpt lat="46.18464503252066" lon="12.285220565195909"><ele>402.0</ele><time>2026-04-25T10:22:05Z</time></trkpt><trkpt lat="46.18480839717628" lon="12.285271639699411"><ele>402.0</ele><time>2026-04-25T10:22:06Z</time></trkpt><trkpt lat="46.18497162173367" lon="12.285322820996981"><ele>402.0</ele><time>2026-04-25T10:22:07Z</time></trkpt><trkpt lat="46.18513519606069" lon="12.285370449471706"><ele>402.0</ele><time>2026-04-25T10:22:08Z</time></trkpt><trkpt lat="46.185301349904655" lon="12.285421095154808"><ele>402.0</ele><time>2026-04-25T10:22:09Z</time></trkpt><trkpt lat="46.18546681573073" lon="12.285471132080602"><ele>402.0</ele><time>2026-04-25T10:22:10Z</time></trkpt><trkpt lat="46.18563120830698" lon="12.285519681699972"><ele>402.0</ele><time>2026-04-25T10:22:11Z</time></trkpt><trkpt lat="46.18579472337761" lon="12.285569526671804"><ele>402.33333333333337</ele><time>2026-04-25T10:22:12Z</time></trkpt><trkpt lat="46.18595405034474" lon="12.28561670870121"><ele>402.6666666666667</ele><time>2026-04-25T10:22:13Z</time></trkpt><trkpt lat="46.186112563159" lon="12.285665789530244"><ele>403.0</ele><time>2026-04-25T10:22:14Z</time></trkpt><trkpt lat="46.18627083571249" lon="12.28571476148575"><ele>403.0</ele><time>2026-04-25T10:22:15Z</time></trkpt><trkpt lat="46.18642816475151" lon="12.285762251973763"><ele>403.0</ele><time>2026-04-25T10:22:16Z</time></trkpt><trkpt lat="46.186587985306375" lon="12.285807739441932"><ele>403.0</ele><time>2026-04-25T10:22:17Z</time></trkpt><trkpt lat="46.18674824218739" lon="12.285854416750613"><ele>403.33333333333337</ele><time>2026-04-25T10:22:18Z</time></trkpt><trkpt lat="46.18690964611143" lon="12.285902156984928"><ele>403.66666666666663</ele><time>2026-04-25T10:22:19Z</time></trkpt><trkpt lat="46.187067117913855" lon="12.285947333826062"><ele>404.0</ele><time>2026-04-25T10:22:20Z</time></trkpt><trkpt lat="46.187223540787386" lon="12.286001109776263"><ele>404.3333333333333</ele><time>2026-04-25T10:22:21Z</time></trkpt><trkpt lat="46.1873917462278" lon="12.28605357122477"><ele>404.66666666666663</ele><time>2026-04-25T10:22:22Z</time></trkpt><trkpt lat="46.18754994101901" lon="12.286105651223485"><ele>405.0</ele><time>2026-04-25T10:22:23Z</time></trkpt><trkpt lat="46.1877175004676" lon="12.286160410633888"><ele>405.0</ele><time>2026-04-25T10:22:24Z</time></trkpt><trkpt lat="46.18788442634001" lon="12.286210390044161"><ele>405.0</ele><time>2026-04-25T10:22:25Z</time></trkpt><trkpt lat="46.18804845353973" lon="12.286264960856512"><ele>405.0</ele><time>2026-04-25T10:22:26Z</time></trkpt><trkpt lat="46.188208048276095" lon="12.286312531207876"><ele>405.0</ele><time>2026-04-25T10:22:27Z</time></trkpt><trkpt lat="46.188366243891906" lon="12.286363495918179"><ele>405.0</ele><time>2026-04-25T10:22:28Z</time></trkpt><trkpt lat="46.188521516407235" lon="12.286416509064939"><ele>405.0</ele><time>2026-04-25T10:22:29Z</time></trkpt><trkpt lat="46.18867517307339" lon="12.286464457527773"><ele>405.33333333333337</ele><time>2026-04-25T10:22:30Z</time></trkpt><trkpt lat="46.18882713620987" lon="12.286503311100535"><ele>405.6666666666667</ele><time>2026-04-25T10:22:31Z</time></trkpt><trkpt lat="46.188976868266515" lon="12.286539572817292"><ele>406.0</ele><time>2026-04-25T10:22:32Z</time></trkpt><trkpt lat="46.189126053128014" lon="12.286568361854014"><ele>406.0</ele><time>2026-04-25T10:22:33Z</time></trkpt><trkpt lat="46.189274112532296" lon="12.286581245877224"><ele>406.0</ele><time>2026-04-25T10:22:33.999Z</time></trkpt><trkpt lat="46.189421206417656" lon="12.28658462766806"><ele>406.0</ele><time>2026-04-25T10:22:34.999Z</time></trkpt><trkpt lat="46.18956584565852" lon="12.28658567122536"><ele>406.0</ele><time>2026-04-25T10:22:35.999Z</time></trkpt><trkpt lat="46.189708355505935" lon="12.286590708831882"><ele>406.25</ele><time>2026-04-25T10:22:36.999Z</time></trkpt><trkpt lat="46.189852797306564" lon="12.286596675352893"><ele>406.5</ele><time>2026-04-25T10:22:37.999Z</time></trkpt><trkpt lat="46.1899973731317" lon="12.286600315186773"><ele>406.75</ele><time>2026-04-25T10:22:38.999Z</time></trkpt><trkpt lat="46.19014165068845" lon="12.286609713160866"><ele>407.0</ele><time>2026-04-25T10:22:39.999Z</time></trkpt><trkpt lat="46.19028403745723" lon="12.28661794298727"><ele>407.0</ele><time>2026-04-25T10:22:40.999Z</time></trkpt><trkpt lat="46.19042621746423" lon="12.2866242124144"><ele>407.0</ele><time>2026-04-25T10:22:41.999Z</time></trkpt><trkpt lat="46.19057188171587" lon="12.286628331061552"><ele>407.0</ele><time>2026-04-25T10:22:42.999Z</time></trkpt><trkpt lat="46.19071585305452" lon="12.286636105916063"><ele>407.0</ele><time>2026-04-25T10:22:43.999Z</time></trkpt><trkpt lat="46.19086202049571" lon="12.28665216550698"><ele>407.3333333333333</ele><time>2026-04-25T10:22:44.999Z</time></trkpt><trkpt lat="46.19102124430462" lon="12.286666354197072"><ele>407.66666666666663</ele><time>2026-04-25T10:22:45.999Z</time></trkpt><trkpt lat="46.19119239492656" lon="12.286673854902183"><ele>408.0</ele><time>2026-04-25T10:22:46.999Z</time></trkpt><trkpt lat="46.19137075885187" lon="12.286681042630505"><ele>408.33333333333337</ele><time>2026-04-25T10:22:47.999Z</time></trkpt><trkpt lat="46.191551130293426" lon="12.286690952114185"><ele>408.6666666666667</ele><time>2026-04-25T10:22:48.999Z</time></trkpt><trkpt lat="46.19172615809174" lon="12.286703699014385"><ele>409.0</ele><time>2026-04-25T10:22:49.999Z</time></trkpt><trkpt lat="46.19189870630545" lon="12.286712653492573"><ele>409.0</ele><time>2026-04-25T10:22:50.999Z</time></trkpt><trkpt lat="46.192063995158755" lon="12.286719093679762"><ele>409.0</ele><time>2026-04-25T10:22:51.999Z</time></trkpt><trkpt lat="46.192228207761374" lon="12.286726555456964"><ele>409.0</ele><time>2026-04-25T10:22:52.999Z</time></trkpt><trkpt lat="46.19238775214517" lon="12.286729666564778"><ele>409.25</ele><time>2026-04-25T10:22:53.999Z</time></trkpt><trkpt lat="46.19252975647868" lon="12.286736970511255"><ele>409.5</ele><time>2026-04-25T10:22:54.999Z</time></trkpt><trkpt lat="46.19267184779256" lon="12.286747581049678"><ele>409.75</ele><time>2026-04-25T10:22:55.999Z</time></trkpt><trkpt lat="46.19281354529779" lon="12.286755891786974"><ele>410.0</ele><time>2026-04-25T10:22:56.999Z</time></trkpt><trkpt lat="46.19295744494432" lon="12.286764066860163"><ele>410.0</ele><time>2026-04-25T10:22:57.999Z</time></trkpt><trkpt lat="46.19310132655669" lon="12.286776645681007"><ele>410.0</ele><time>2026-04-25T10:22:58.999Z</time></trkpt><trkpt lat="46.19324645375196" lon="12.286793052881766"><ele>410.0</ele><time>2026-04-25T10:22:59.999Z</time></trkpt><trkpt lat="46.193390277759036" lon="12.286804449733319"><ele>410.0</ele><time>2026-04-25T10:23:00.999Z</time></trkpt><trkpt lat="46.193525222793355" lon="12.286816393774972"><ele>410.0</ele><time>2026-04-25T10:23:01.999Z</time></trkpt><trkpt lat="46.193645037035616" lon="12.286828281331154"><ele>410.0</ele><time>2026-04-25T10:23:02.999Z</time></trkpt><trkpt lat="46.193752891577965" lon="12.28683563993776"><ele>410.0</ele><time>2026-04-25T10:23:03.999Z</time></trkpt><trkpt lat="46.19385337486513" lon="12.286846151787142"><ele>410.0</ele><time>2026-04-25T10:23:04.999Z</time></trkpt><trkpt lat="46.19393949011678" lon="12.286867728260457"><ele>410.0</ele><time>2026-04-25T10:23:05.999Z</time></trkpt><trkpt lat="46.194024631860806" lon="12.286896918798304"><ele>410.0</ele><time>2026-04-25T10:23:06.999Z</time></trkpt><trkpt lat="46.19411239904773" lon="12.286895821506587"><ele>410.0</ele><time>2026-04-25T10:23:07.999Z</time></trkpt><trkpt lat="46.19420124163535" lon="12.286861093072657"><ele>410.0</ele><time>2026-04-25T10:23:08.999Z</time></trkpt><trkpt lat="46.19429755516679" lon="12.286840742549073"><ele>410.0</ele><time>2026-04-25T10:23:09.999Z</time></trkpt><trkpt lat="46.194397124009676" lon="12.286848267297293"><ele>410.0</ele><time>2026-04-25T10:23:10.999Z</time></trkpt><trkpt lat="46.194490375029766" lon="12.286851143532846"><ele>410.0</ele><time>2026-04-25T10:23:11.999Z</time></trkpt><trkpt lat="46.19458496346599" lon="12.286858789745711"><ele>410.0</ele><time>2026-04-25T10:23:12.999Z</time></trkpt><trkpt lat="46.19467957406199" lon="12.28686182703185"><ele>410.0</ele><time>2026-04-25T10:23:13.999Z</time></trkpt><trkpt lat="46.1947755447776" lon="12.286862286373065"><ele>410.0</ele><time>2026-04-25T10:23:14.999Z</time></trkpt><trkpt lat="46.1948710091595" lon="12.286871241692221"><ele>410.0</ele><time>2026-04-25T10:23:15.999Z</time></trkpt><trkpt lat="46.19496522030166" lon="12.286874874520281"><ele>410.6</ele><time>2026-04-25T10:23:16.999Z</time></trkpt><trkpt lat="46.19505752195889" lon="12.28687607774673"><ele>411.2</ele><time>2026-04-25T10:23:17.999Z</time></trkpt><trkpt lat="46.195149503995" lon="12.286881645049522"><ele>411.79999999999995</ele><time>2026-04-25T10:23:18.999Z</time></trkpt><trkpt lat="46.19523938058513" lon="12.286886468626063"><ele>412.4</ele><time>2026-04-25T10:23:19.999Z</time></trkpt><trkpt lat="46.1953292669664" lon="12.286887684875838"><ele>413.0</ele><time>2026-04-25T10:23:20.999Z</time></trkpt><trkpt lat="46.195420236410236" lon="12.286889755555592"><ele>412.99999999999994</ele><time>2026-04-25T10:23:21.999Z</time></trkpt><trkpt lat="46.19550786267301" lon="12.286883535104007"><ele>413.0</ele><time>2026-04-25T10:23:22.999Z</time></trkpt><trkpt lat="46.19559528236743" lon="12.28687694210945"><ele>413.0</ele><time>2026-04-25T10:23:23.999Z</time></trkpt><trkpt lat="46.195683018006584" lon="12.286869766951092"><ele>413.0</ele><time>2026-04-25T10:23:24.999Z</time></trkpt><trkpt lat="46.195770811223966" lon="12.286862693907665"><ele>412.99999999999994</ele><time>2026-04-25T10:23:25.999Z</time></trkpt><trkpt lat="46.195859967640956" lon="12.286856255566887"><ele>413.0</ele><time>2026-04-25T10:23:26.999Z</time></trkpt><trkpt lat="46.19595187268485" lon="12.286849122524778"><ele>413.0</ele><time>2026-04-25T10:23:27.999Z</time></trkpt><trkpt lat="46.196047310153325" lon="12.286840880229034"><ele>413.0</ele><time>2026-04-25T10:23:28.999Z</time></trkpt><trkpt lat="46.196147194117614" lon="12.28683553769949"><ele>413.0</ele><time>2026-04-25T10:23:29.999Z</time></trkpt><trkpt lat="46.196252608262974" lon="12.286828438828591"><ele>413.0</ele><time>2026-04-25T10:23:30.999Z</time></trkpt><trkpt lat="46.19637365695188" lon="12.286820741659499"><ele>413.0</ele><time>2026-04-25T10:23:31.999Z</time></trkpt><trkpt lat="46.1965132413326" lon="12.286809086449926"><ele>412.0</ele><time>2026-04-25T10:23:32.999Z</time></trkpt><trkpt lat="46.1966636993443" lon="12.286799573511718"><ele>411.0</ele><time>2026-04-25T10:23:33.999Z</time></trkpt><trkpt lat="46.1968051516589" lon="12.286789397456182"><ele>410.0</ele><time>2026-04-25T10:23:34.999Z</time></trkpt><trkpt lat="46.19694502881801" lon="12.286777520816194"><ele>409.0</ele><time>2026-04-25T10:23:35.999Z</time></trkpt><trkpt lat="46.19708081061728" lon="12.286770263599067"><ele>409.0</ele><time>2026-04-25T10:23:36.999Z</time></trkpt><trkpt lat="46.19720922329431" lon="12.286760167569085"><ele>409.0</ele><time>2026-04-25T10:23:37.999Z</time></trkpt><trkpt lat="46.197334030719404" lon="12.286752627013634"><ele>409.0</ele><time>2026-04-25T10:23:38.999Z</time></trkpt><trkpt lat="46.19745702004745" lon="12.286745918271988"><ele>409.0</ele><time>2026-04-25T10:23:39.999Z</time></trkpt><trkpt lat="46.19757870059431" lon="12.28673662644661"><ele>408.25</ele><time>2026-04-25T10:23:40.999Z</time></trkpt><trkpt lat="46.197699858698165" lon="12.28672928599825"><ele>407.5</ele><time>2026-04-25T10:23:41.999Z</time></trkpt><trkpt lat="46.197822081696685" lon="12.286721830168306"><ele>406.75</ele><time>2026-04-25T10:23:42.999Z</time></trkpt><trkpt lat="46.1979454634302" lon="12.2867110629403"><ele>406.0</ele><time>2026-04-25T10:23:43.999Z</time></trkpt><trkpt lat="46.19807105354221" lon="12.286701297809127"><ele>406.0</ele><time>2026-04-25T10:23:44.999Z</time></trkpt><trkpt lat="46.19819959802535" lon="12.286693074659212"><ele>406.0</ele><time>2026-04-25T10:23:45.999Z</time></trkpt><trkpt lat="46.19833123019997" lon="12.28668315232014"><ele>406.0</ele><time>2026-04-25T10:23:46.999Z</time></trkpt><trkpt lat="46.19846634036055" lon="12.286674902621147"><ele>406.0</ele><time>2026-04-25T10:23:47.999Z</time></trkpt><trkpt lat="46.19861253945777" lon="12.28666497689085"><ele>406.0</ele><time>2026-04-25T10:23:48.999Z</time></trkpt><trkpt lat="46.19876755368577" lon="12.286653546689635"><ele>406.0</ele><time>2026-04-25T10:23:49.999Z</time></trkpt><trkpt lat="46.19891261752042" lon="12.286642884896155"><ele>406.0</ele><time>2026-04-25T10:23:50.999Z</time></trkpt><trkpt lat="46.19905426038029" lon="12.286628970500637"><ele>406.0</ele><time>2026-04-25T10:23:51.999Z</time></trkpt><trkpt lat="46.19919542162923" lon="12.286618421420002"><ele>407.25</ele><time>2026-04-25T10:23:52.999Z</time></trkpt><trkpt lat="46.19933803021191" lon="12.286605806400535"><ele>408.5</ele><time>2026-04-25T10:23:53.999Z</time></trkpt><trkpt lat="46.19947953648227" lon="12.28659660197384"><ele>409.75</ele><time>2026-04-25T10:23:54.999Z</time></trkpt><trkpt lat="46.19961985585866" lon="12.28658755600301"><ele>411.0</ele><time>2026-04-25T10:23:55.999Z</time></trkpt><trkpt lat="46.19975962905958" lon="12.28657621490224"><ele>410.75</ele><time>2026-04-25T10:23:56.999Z</time></trkpt><trkpt lat="46.19990261268426" lon="12.28656375322873"><ele>410.5</ele><time>2026-04-25T10:23:57.999Z</time></trkpt><trkpt lat="46.20005019411917" lon="12.286553342132118"><ele>410.25</ele><time>2026-04-25T10:23:58.999Z</time></trkpt><trkpt lat="46.200199818085025" lon="12.286545582924612"><ele>410.0</ele><time>2026-04-25T10:23:59.999Z</time></trkpt><trkpt lat="46.20035008606007" lon="12.286536870223106"><ele>410.0</ele><time>2026-04-25T10:24:00.999Z</time></trkpt><trkpt lat="46.20050089558919" lon="12.286522968935449"><ele>410.0</ele><time>2026-04-25T10:24:01.999Z</time></trkpt><trkpt lat="46.20064993452327" lon="12.286512780921266"><ele>410.0</ele><time>2026-04-25T10:24:02.999Z</time></trkpt><trkpt lat="46.200792265520676" lon="12.286503929075328"><ele>410.0</ele><time>2026-04-25T10:24:03.999Z</time></trkpt><trkpt lat="46.200931797104396" lon="12.286493889848352"><ele>409.75</ele><time>2026-04-25T10:24:04.999Z</time></trkpt><trkpt lat="46.20106897005096" lon="12.286482467464365"><ele>409.5</ele><time>2026-04-25T10:24:05.999Z</time></trkpt><trkpt lat="46.201205729425645" lon="12.286471565959134"><ele>409.25</ele><time>2026-04-25T10:24:06.999Z</time></trkpt><trkpt lat="46.20134305611624" lon="12.28646147071154"><ele>409.0</ele><time>2026-04-25T10:24:08Z</time></trkpt><trkpt lat="46.201480700609594" lon="12.286450956992349"><ele>409.0</ele><time>2026-04-25T10:24:09Z</time></trkpt><trkpt lat="46.2016201262015" lon="12.286436614887295"><ele>409.0</ele><time>2026-04-25T10:24:10Z</time></trkpt><trkpt lat="46.20176337100278" lon="12.286418460726836"><ele>409.0</ele><time>2026-04-25T10:24:11Z</time></trkpt><trkpt lat="46.2019084998387" lon="12.286389907254955"><ele>409.0</ele><time>2026-04-25T10:24:12Z</time></trkpt><trkpt lat="46.20205748143151" lon="12.286354896139942"><ele>412.33333333333337</ele><time>2026-04-25T10:24:13Z</time></trkpt><trkpt lat="46.20221069216108" lon="12.286317073707034"><ele>415.66666666666663</ele><time>2026-04-25T10:24:14Z</time></trkpt><trkpt lat="46.20236362526184" lon="12.286273451589729"><ele>419.0</ele><time>2026-04-25T10:24:15Z</time></trkpt><trkpt lat="46.20251621976574" lon="12.286224456796075"><ele>419.0</ele><time>2026-04-25T10:24:16Z</time></trkpt><trkpt lat="46.20266825917295" lon="12.286181096897224"><ele>419.0</ele><time>2026-04-25T10:24:17Z</time></trkpt><trkpt lat="46.202816339412024" lon="12.286144314804483"><ele>419.0</ele><time>2026-04-25T10:24:18Z</time></trkpt><trkpt lat="46.202961664106574" lon="12.286107108796747"><ele>419.0</ele><time>2026-04-25T10:24:19Z</time></trkpt><trkpt lat="46.203103877202295" lon="12.286077990125763"><ele>419.0</ele><time>2026-04-25T10:24:20Z</time></trkpt><trkpt lat="46.20324567604105" lon="12.286048207317817"><ele>419.0</ele><time>2026-04-25T10:24:21Z</time></trkpt><trkpt lat="46.20338716369354" lon="12.286025043597995"><ele>419.0</ele><time>2026-04-25T10:24:22Z</time></trkpt><trkpt lat="46.20352764142578" lon="12.286003739721547"><ele>418.75</ele><time>2026-04-25T10:24:23Z</time></trkpt><trkpt lat="46.20366862358937" lon="12.285977117529377"><ele>418.5</ele><time>2026-04-25T10:24:24Z</time></trkpt><trkpt lat="46.20381014974112" lon="12.285960568885994"><ele>418.25</ele><time>2026-04-25T10:24:25Z</time></trkpt><trkpt lat="46.20395138396953" lon="12.285950040042449"><ele>418.0</ele><time>2026-04-25T10:24:26Z</time></trkpt><trkpt lat="46.20409314234618" lon="12.285933247430131"><ele>417.25</ele><time>2026-04-25T10:24:27Z</time></trkpt><trkpt lat="46.20423545800242" lon="12.285921481785055"><ele>416.5</ele><time>2026-04-25T10:24:28Z</time></trkpt><trkpt lat="46.204380392443326" lon="12.285908377220236"><ele>415.75</ele><time>2026-04-25T10:24:29Z</time></trkpt><trkpt lat="46.20452687102426" lon="12.285888641967471"><ele>415.0</ele><time>2026-04-25T10:24:30Z</time></trkpt><trkpt lat="46.20467702327274" lon="12.285873605519003"><ele>415.0</ele><time>2026-04-25T10:24:31Z</time></trkpt><trkpt lat="46.204829149850156" lon="12.28585627584928"><ele>415.0</ele><time>2026-04-25T10:24:32Z</time></trkpt><trkpt lat="46.204984011947325" lon="12.285837019842072"><ele>415.0</ele><time>2026-04-25T10:24:33Z</time></trkpt><trkpt lat="46.20514183701787" lon="12.285821576226894"><ele>415.33333333333337</ele><time>2026-04-25T10:24:33.999Z</time></trkpt><trkpt lat="46.20530079454762" lon="12.285805052296844"><ele>415.66666666666663</ele><time>2026-04-25T10:24:34.999Z</time></trkpt><trkpt lat="46.20546221812319" lon="12.285792390547707"><ele>416.0</ele><time>2026-04-25T10:24:35.999Z</time></trkpt><trkpt lat="46.205625442633" lon="12.285775954028892"><ele>415.0</ele><time>2026-04-25T10:24:36.999Z</time></trkpt><trkpt lat="46.20579015232485" lon="12.285756664605067"><ele>414.0</ele><time>2026-04-25T10:24:37.999Z</time></trkpt><trkpt lat="46.20595404475044" lon="12.285737395600686"><ele>413.0</ele><time>2026-04-25T10:24:38.999Z</time></trkpt><trkpt lat="46.20611798148266" lon="12.2857159026531"><ele>413.0</ele><time>2026-04-25T10:24:39.999Z</time></trkpt><trkpt lat="46.20628219158237" lon="12.285696375609053"><ele>413.0</ele><time>2026-04-25T10:24:40.999Z</time></trkpt><trkpt lat="46.2064468740444" lon="12.285680661546303"><ele>413.0</ele><time>2026-04-25T10:24:41.999Z</time></trkpt><trkpt lat="46.2066113789952" lon="12.285660396587685"><ele>411.66666666666663</ele><time>2026-04-25T10:24:42.999Z</time></trkpt><trkpt lat="46.20677752171596" lon="12.285642529811689"><ele>410.33333333333337</ele><time>2026-04-25T10:24:43.999Z</time></trkpt><trkpt lat="46.20694209526223" lon="12.285624808665482"><ele>409.0</ele><time>2026-04-25T10:24:44.999Z</time></trkpt><trkpt lat="46.207120207182385" lon="12.285615674586287"><ele>409.0</ele><time>2026-04-25T10:24:45.999Z</time></trkpt><trkpt lat="46.20729878103369" lon="12.285617191587576"><ele>409.0</ele><time>2026-04-25T10:24:46.999Z</time></trkpt><trkpt lat="46.20748288243283" lon="12.285622532032093"><ele>409.0</ele><time>2026-04-25T10:24:47.999Z</time></trkpt><trkpt lat="46.20765449323544" lon="12.285629378789823"><ele>407.6666666666667</ele><time>2026-04-25T10:24:48.999Z</time></trkpt><trkpt lat="46.20782061210578" lon="12.285640536075837"><ele>406.33333333333337</ele><time>2026-04-25T10:24:49.999Z</time></trkpt><trkpt lat="46.20798648406591" lon="12.285659190682404"><ele>405.0</ele><time>2026-04-25T10:24:50.999Z</time></trkpt><trkpt lat="46.208150084871804" lon="12.285679870425009"><ele>406.33333333333337</ele><time>2026-04-25T10:24:51.999Z</time></trkpt><trkpt lat="46.2083159268589" lon="12.285701009917155"><ele>407.6666666666667</ele><time>2026-04-25T10:24:52.999Z</time></trkpt><trkpt lat="46.208488527475055" lon="12.285719588598127"><ele>409.0</ele><time>2026-04-25T10:24:53.999Z</time></trkpt><trkpt lat="46.208662594432695" lon="12.285748272738788"><ele>409.0</ele><time>2026-04-25T10:24:54.999Z</time></trkpt><trkpt lat="46.20884197983356" lon="12.285789804865068"><ele>409.0</ele><time>2026-04-25T10:24:55.999Z</time></trkpt><trkpt lat="46.20902872996205" lon="12.285848554998696"><ele>409.0</ele><time>2026-04-25T10:24:56.999Z</time></trkpt><trkpt lat="46.20921858439849" lon="12.285925932317216"><ele>408.0</ele><time>2026-04-25T10:24:57.999Z</time></trkpt><trkpt lat="46.20940636176069" lon="12.286010388630885"><ele>407.0</ele><time>2026-04-25T10:24:58.999Z</time></trkpt><trkpt lat="46.20960068668657" lon="12.286098514371366"><ele>406.0</ele><time>2026-04-25T10:24:59.999Z</time></trkpt><trkpt lat="46.20979216665182" lon="12.286181784556616"><ele>408.33333333333337</ele><time>2026-04-25T10:25:00.999Z</time></trkpt><trkpt lat="46.20997273090308" lon="12.286252161524972"><ele>410.66666666666663</ele><time>2026-04-25T10:25:01.999Z</time></trkpt><trkpt lat="46.210143638247494" lon="12.286318598068755"><ele>413.0</ele><time>2026-04-25T10:25:02.999Z</time></trkpt><trkpt lat="46.210297926729815" lon="12.286384179460732"><ele>411.66666666666663</ele><time>2026-04-25T10:25:03.999Z</time></trkpt><trkpt lat="46.21045314107138" lon="12.286456857139061"><ele>410.33333333333337</ele><time>2026-04-25T10:25:05Z</time></trkpt><trkpt lat="46.21060874943131" lon="12.286521174939262"><ele>409.0</ele><time>2026-04-25T10:25:06Z</time></trkpt><trkpt lat="46.21076200214193" lon="12.286579727629462"><ele>409.0</ele><time>2026-04-25T10:25:07Z</time></trkpt><trkpt lat="46.210910172304516" lon="12.286644523915667"><ele>409.0</ele><time>2026-04-25T10:25:08Z</time></trkpt><trkpt lat="46.21106517416751" lon="12.286707712450996"><ele>409.0</ele><time>2026-04-25T10:25:09Z</time></trkpt><trkpt lat="46.21122839582189" lon="12.28677430763757"><ele>409.0</ele><time>2026-04-25T10:25:10Z</time></trkpt><trkpt lat="46.211394877456506" lon="12.286843682080237"><ele>409.0</ele><time>2026-04-25T10:25:11Z</time></trkpt><trkpt lat="46.21156206773782" lon="12.286910772441141"><ele>409.0</ele><time>2026-04-25T10:25:12Z</time></trkpt><trkpt lat="46.21173009639134" lon="12.286979637080222"><ele>413.33333333333337</ele><time>2026-04-25T10:25:13Z</time></trkpt><trkpt lat="46.211897315000506" lon="12.287051695976272"><ele>417.66666666666663</ele><time>2026-04-25T10:25:14Z</time></trkpt><trkpt lat="46.21206679470651" lon="12.287121847084192"><ele>422.0</ele><time>2026-04-25T10:25:15Z</time></trkpt><trkpt lat="46.21223660459905" lon="12.287189764221267"><ele>426.3333333333333</ele><time>2026-04-25T10:25:16Z</time></trkpt><trkpt lat="46.212407206169985" lon="12.287260404593324"><ele>430.66666666666663</ele><time>2026-04-25T10:25:17Z</time></trkpt><trkpt lat="46.21257869120221" lon="12.287330985099008"><ele>435.0</ele><time>2026-04-25T10:25:18Z</time></trkpt><trkpt lat="46.212752510890795" lon="12.287400670075115"><ele>428.33333333333337</ele><time>2026-04-25T10:25:19Z</time></trkpt><trkpt lat="46.21292724903842" lon="12.287473643265969"><ele>421.6666666666667</ele><time>2026-04-25T10:25:20Z</time></trkpt><trkpt lat="46.21310460608845" lon="12.287546147102177"><ele>415.0</ele><time>2026-04-25T10:25:21Z</time></trkpt><trkpt lat="46.21328375301739" lon="12.287621449431606"><ele>415.0</ele><time>2026-04-25T10:25:22Z</time></trkpt><trkpt lat="46.21346494298782" lon="12.287695041333267"><ele>415.0</ele><time>2026-04-25T10:25:23Z</time></trkpt><trkpt lat="46.213647334989716" lon="12.287768289093252"><ele>415.0</ele><time>2026-04-25T10:25:24Z</time></trkpt><trkpt lat="46.213827191304354" lon="12.287843739193109"><ele>419.0</ele><time>2026-04-25T10:25:25Z</time></trkpt><trkpt lat="46.214005265146085" lon="12.287917371692497"><ele>423.0</ele><time>2026-04-25T10:25:26Z</time></trkpt><trkpt lat="46.21417847567821" lon="12.287987614261002"><ele>427.0</ele><time>2026-04-25T10:25:27Z</time></trkpt><trkpt lat="46.21434768093301" lon="12.288060591718262"><ele>420.0</ele><time>2026-04-25T10:25:28Z</time></trkpt><trkpt lat="46.21451577477095" lon="12.288126168106276"><ele>413.0</ele><time>2026-04-25T10:25:29Z</time></trkpt><trkpt lat="46.21468303199372" lon="12.288185996451515"><ele>406.0</ele><time>2026-04-25T10:25:30Z</time></trkpt><trkpt lat="46.21485059474132" lon="12.288231572573476"><ele>406.0</ele><time>2026-04-25T10:25:31Z</time></trkpt><trkpt lat="46.21501658835465" lon="12.288266350151634"><ele>406.0</ele><time>2026-04-25T10:25:32Z</time></trkpt><trkpt lat="46.21518511214524" lon="12.288288446432613"><ele>406.0</ele><time>2026-04-25T10:25:33Z</time></trkpt><trkpt lat="46.21535486251835" lon="12.288307346061602"><ele>406.0</ele><time>2026-04-25T10:25:34Z</time></trkpt><trkpt lat="46.21553125241347" lon="12.28831677350995"><ele>406.0</ele><time>2026-04-25T10:25:35Z</time></trkpt><trkpt lat="46.21571249853254" lon="12.288312221497197"><ele>406.0</ele><time>2026-04-25T10:25:36Z</time></trkpt><trkpt lat="46.215897775478915" lon="12.28829298748844"><ele>405.33333333333337</ele><time>2026-04-25T10:25:37Z</time></trkpt><trkpt lat="46.216093170140795" lon="12.288255998194177"><ele>404.66666666666663</ele><time>2026-04-25T10:25:38Z</time></trkpt><trkpt lat="46.21629709146969" lon="12.28820132492653"><ele>404.0</ele><time>2026-04-25T10:25:39Z</time></trkpt><trkpt lat="46.21650665786731" lon="12.288131707581593"><ele>413.5</ele><time>2026-04-25T10:25:40Z</time></trkpt><trkpt lat="46.21672129751621" lon="12.288042512676823"><ele>423.0</ele><time>2026-04-25T10:25:41Z</time></trkpt><trkpt lat="46.216942032588285" lon="12.287935625498381"><ele>423.0</ele><time>2026-04-25T10:25:42Z</time></trkpt><trkpt lat="46.217167160360276" lon="12.287813390883366"><ele>423.0</ele><time>2026-04-25T10:25:43Z</time></trkpt><trkpt lat="46.217384678051715" lon="12.287688370668914"><ele>418.0</ele><time>2026-04-25T10:25:44Z</time></trkpt><trkpt lat="46.217583632028756" lon="12.287573950398675"><ele>413.0</ele><time>2026-04-25T10:25:45Z</time></trkpt><trkpt lat="46.217767853878186" lon="12.287469840013536"><ele>408.0</ele><time>2026-04-25T10:25:46Z</time></trkpt><trkpt lat="46.21794987565812" lon="12.287366625099024"><ele>408.0</ele><time>2026-04-25T10:25:47Z</time></trkpt><trkpt lat="46.21812853997703" lon="12.287265763511533"><ele>408.0</ele><time>2026-04-25T10:25:48Z</time></trkpt><trkpt lat="46.218303119555294" lon="12.287167962720336"><ele>408.0</ele><time>2026-04-25T10:25:49Z</time></trkpt><trkpt lat="46.21847668683493" lon="12.287068454198437"><ele>407.0</ele><time>2026-04-25T10:25:50Z</time></trkpt><trkpt lat="46.21865476611122" lon="12.286966867510547"><ele>406.0</ele><time>2026-04-25T10:25:51Z</time></trkpt><trkpt lat="46.21883478029242" lon="12.286861174086619"><ele>405.0</ele><time>2026-04-25T10:25:52Z</time></trkpt><trkpt lat="46.219015776827035" lon="12.286758012674259"><ele>405.0</ele><time>2026-04-25T10:25:53Z</time></trkpt><trkpt lat="46.21919691601334" lon="12.286657011869321"><ele>405.0</ele><time>2026-04-25T10:25:54Z</time></trkpt><trkpt lat="46.21937824888772" lon="12.286562198883397"><ele>405.0</ele><time>2026-04-25T10:25:55Z</time></trkpt><trkpt lat="46.21956513043029" lon="12.286479355821527"><ele>410.33333333333337</ele><time>2026-04-25T10:25:56Z</time></trkpt><trkpt lat="46.21975669080508" lon="12.286400006356269"><ele>415.6666666666667</ele><time>2026-04-25T10:25:57Z</time></trkpt><trkpt lat="46.21995058233065" lon="12.28632717403077"><ele>421.0</ele><time>2026-04-25T10:25:58Z</time></trkpt><trkpt lat="46.220149478021" lon="12.286262391291881"><ele>421.6666666666667</ele><time>2026-04-25T10:25:59Z</time></trkpt><trkpt lat="46.22034700948321" lon="12.286207200064311"><ele>422.33333333333337</ele><time>2026-04-25T10:26:00Z</time></trkpt><trkpt lat="46.22054267930371" lon="12.286157962755986"><ele>423.0</ele><time>2026-04-25T10:26:01Z</time></trkpt><trkpt lat="46.220737328907525" lon="12.286121292724037"><ele>423.0</ele><time>2026-04-25T10:26:02Z</time></trkpt><trkpt lat="46.22093280883006" lon="12.286096505851306"><ele>423.0</ele><time>2026-04-25T10:26:03Z</time></trkpt><trkpt lat="46.2211275683811" lon="12.286070515375407"><ele>423.0</ele><time>2026-04-25T10:26:04Z</time></trkpt><trkpt lat="46.22132114061884" lon="12.286053858896668"><ele>422.0</ele><time>2026-04-25T10:26:05Z</time></trkpt><trkpt lat="46.22151578956911" lon="12.28604554154192"><ele>421.0</ele><time>2026-04-25T10:26:06Z</time></trkpt><trkpt lat="46.221710380188284" lon="12.286038944455116"><ele>420.0</ele><time>2026-04-25T10:26:07Z</time></trkpt><trkpt lat="46.2219045205958" lon="12.28604470363339"><ele>420.0</ele><time>2026-04-25T10:26:08Z</time></trkpt><trkpt lat="46.22209776674781" lon="12.28607075884473"><ele>420.0</ele><time>2026-04-25T10:26:09Z</time></trkpt><trkpt lat="46.22229096832666" lon="12.286094806891313"><ele>420.0</ele><time>2026-04-25T10:26:10Z</time></trkpt><trkpt lat="46.222479642788265" lon="12.286126579865032"><ele>419.0</ele><time>2026-04-25T10:26:11Z</time></trkpt><trkpt lat="46.22266432919891" lon="12.286163526593318"><ele>418.0</ele><time>2026-04-25T10:26:12Z</time></trkpt><trkpt lat="46.22284762331778" lon="12.286208899606534"><ele>417.0</ele><time>2026-04-25T10:26:13.001Z</time></trkpt><trkpt lat="46.223027917660566" lon="12.286258391810923"><ele>416.66666666666663</ele><time>2026-04-25T10:26:14.001Z</time></trkpt><trkpt lat="46.223207206994786" lon="12.28632008780118"><ele>416.3333333333333</ele><time>2026-04-25T10:26:15.001Z</time></trkpt><trkpt lat="46.223382042959244" lon="12.28638440164305"><ele>416.0</ele><time>2026-04-25T10:26:16.001Z</time></trkpt><trkpt lat="46.22354382695753" lon="12.286449170655967"><ele>415.0</ele><time>2026-04-25T10:26:17.001Z</time></trkpt><trkpt lat="46.223688782023395" lon="12.28651507372804"><ele>414.0</ele><time>2026-04-25T10:26:18.001Z</time></trkpt><trkpt lat="46.223821765877815" lon="12.286579176713047"><ele>413.0</ele><time>2026-04-25T10:26:19.001Z</time></trkpt><trkpt lat="46.22394417363197" lon="12.286644327574919"><ele>412.0</ele><time>2026-04-25T10:26:20.001Z</time></trkpt><trkpt lat="46.22406419840406" lon="12.28671214395829"><ele>414.40000000000003</ele><time>2026-04-25T10:26:21.001Z</time></trkpt><trkpt lat="46.22418076929912" lon="12.286760097630943"><ele>416.8</ele><time>2026-04-25T10:26:22.001Z</time></trkpt><trkpt lat="46.2242867962454" lon="12.286791496612326"><ele>419.2</ele><time>2026-04-25T10:26:23.001Z</time></trkpt><trkpt lat="46.224383549662" lon="12.28681490281688"><ele>421.6</ele><time>2026-04-25T10:26:24.001Z</time></trkpt><trkpt lat="46.224464680490165" lon="12.286833857599767"><ele>424.0</ele><time>2026-04-25T10:26:25.001Z</time></trkpt><trkpt lat="46.2245356118052" lon="12.286865746365455"><ele>424.0</ele><time>2026-04-25T10:26:26.001Z</time></trkpt><trkpt lat="46.22460823043166" lon="12.286928267452355"><ele>424.0</ele><time>2026-04-25T10:26:27.001Z</time></trkpt><trkpt lat="46.22468488281598" lon="12.287021105815096"><ele>424.0</ele><time>2026-04-25T10:26:28.001Z</time></trkpt><trkpt lat="46.22478080734968" lon="12.287078969035944"><ele>424.0</ele><time>2026-04-25T10:26:29.001Z</time></trkpt><trkpt lat="46.22491638086171" lon="12.287083883511068"><ele>424.0</ele><time>2026-04-25T10:26:30.001Z</time></trkpt><trkpt lat="46.22506122162185" lon="12.287110985886416"><ele>422.6666666666667</ele><time>2026-04-25T10:26:31.001Z</time></trkpt><trkpt lat="46.22520205089615" lon="12.287189423264605"><ele>421.33333333333337</ele><time>2026-04-25T10:26:32.001Z</time></trkpt><trkpt lat="46.22535465140008" lon="12.287329453129173"><ele>420.0</ele><time>2026-04-25T10:26:33.001Z</time></trkpt><trkpt lat="46.22551207844118" lon="12.287471443592292"><ele>422.5</ele><time>2026-04-25T10:26:34Z</time></trkpt><trkpt lat="46.22565146593727" lon="12.287579385627078"><ele>425.0</ele><time>2026-04-25T10:26:35Z</time></trkpt><trkpt lat="46.22578044165417" lon="12.287665672448146"><ele>427.5</ele><time>2026-04-25T10:26:36Z</time></trkpt><trkpt lat="46.22590346045363" lon="12.287741998402925"><ele>430.0</ele><time>2026-04-25T10:26:37Z</time></trkpt><trkpt lat="46.22602747220229" lon="12.287817115681348"><ele>430.0</ele><time>2026-04-25T10:26:38Z</time></trkpt><trkpt lat="46.22615514609004" lon="12.287889683450727"><ele>430.0</ele><time>2026-04-25T10:26:39Z</time></trkpt><trkpt lat="46.22628569700483" lon="12.287961098662477"><ele>430.0</ele><time>2026-04-25T10:26:40Z</time></trkpt><trkpt lat="46.2264127858338" lon="12.288032233839484"><ele>430.0</ele><time>2026-04-25T10:26:41Z</time></trkpt><trkpt lat="46.2265390746436" lon="12.288097715772693"><ele>428.25</ele><time>2026-04-25T10:26:42Z</time></trkpt><trkpt lat="46.22666519460881" lon="12.288162377677434"><ele>426.5</ele><time>2026-04-25T10:26:43Z</time></trkpt><trkpt lat="46.22679129012029" lon="12.288222901590009"><ele>424.75</ele><time>2026-04-25T10:26:44Z</time></trkpt><trkpt lat="46.22691790774641" lon="12.288276305788449"><ele>423.0</ele><time>2026-04-25T10:26:45Z</time></trkpt><trkpt lat="46.22704103270384" lon="12.288326139862326"><ele>423.0</ele><time>2026-04-25T10:26:46Z</time></trkpt><trkpt lat="46.227160546685816" lon="12.288376779294735"><ele>423.0</ele><time>2026-04-25T10:26:47Z</time></trkpt><trkpt lat="46.22727971372698" lon="12.288422852308528"><ele>423.0</ele><time>2026-04-25T10:26:48Z</time></trkpt><trkpt lat="46.227398403002695" lon="12.288467982972442"><ele>423.0</ele><time>2026-04-25T10:26:49Z</time></trkpt><trkpt lat="46.22751706424359" lon="12.288514550871623"><ele>425.5</ele><time>2026-04-25T10:26:50Z</time></trkpt><trkpt lat="46.22763697117341" lon="12.288560885339301"><ele>428.0</ele><time>2026-04-25T10:26:51Z</time></trkpt><trkpt lat="46.227760132997986" lon="12.288607592144281"><ele>430.5</ele><time>2026-04-25T10:26:52Z</time></trkpt><trkpt lat="46.22789114534836" lon="12.288658494688706"><ele>433.0</ele><time>2026-04-25T10:26:53Z</time></trkpt><trkpt lat="46.228030145204926" lon="12.288709947325689"><ele>433.6666666666667</ele><time>2026-04-25T10:26:54Z</time></trkpt><trkpt lat="46.228174999757485" lon="12.28876828173494"><ele>434.33333333333337</ele><time>2026-04-25T10:26:55Z</time></trkpt><trkpt lat="46.228325872103724" lon="12.288831804889742"><ele>435.0</ele><time>2026-04-25T10:26:56Z</time></trkpt><trkpt lat="46.228481678754015" lon="12.288903510332306"><ele>434.66666666666663</ele><time>2026-04-25T10:26:57Z</time></trkpt><trkpt lat="46.228646903952836" lon="12.288985368093021"><ele>434.3333333333333</ele><time>2026-04-25T10:26:58Z</time></trkpt><trkpt lat="46.22881497322749" lon="12.289069864631458"><ele>434.0</ele><time>2026-04-25T10:26:59Z</time></trkpt><trkpt lat="46.22899190280946" lon="12.289158544257356"><ele>434.0</ele><time>2026-04-25T10:27:00Z</time></trkpt><trkpt lat="46.22916530062388" lon="12.28924556688258"><ele>434.0</ele><time>2026-04-25T10:27:01Z</time></trkpt><trkpt lat="46.22933748531222" lon="12.289331863234594"><ele>434.0</ele><time>2026-04-25T10:27:02Z</time></trkpt><trkpt lat="46.22950989444584" lon="12.289417739007003"><ele>434.0</ele><time>2026-04-25T10:27:03Z</time></trkpt><trkpt lat="46.229680748249756" lon="12.289504673782513"><ele>434.0</ele><time>2026-04-25T10:27:04Z</time></trkpt><trkpt lat="46.22985152317423" lon="12.289591337899532"><ele>434.0</ele><time>2026-04-25T10:27:05Z</time></trkpt><trkpt lat="46.23002525116833" lon="12.289679008474982"><ele>434.3333333333333</ele><time>2026-04-25T10:27:06Z</time></trkpt><trkpt lat="46.230202717171416" lon="12.289766784648124"><ele>434.66666666666663</ele><time>2026-04-25T10:27:07Z</time></trkpt><trkpt lat="46.23037973631074" lon="12.28985907933313"><ele>435.0</ele><time>2026-04-25T10:27:08Z</time></trkpt><trkpt lat="46.230556685308215" lon="12.289966555982955"><ele>435.66666666666663</ele><time>2026-04-25T10:27:09Z</time></trkpt><trkpt lat="46.23073092154658" lon="12.29009593968489"><ele>436.3333333333333</ele><time>2026-04-25T10:27:10Z</time></trkpt><trkpt lat="46.23089584369356" lon="12.29023845237249"><ele>437.0</ele><time>2026-04-25T10:27:11Z</time></trkpt><trkpt lat="46.23105861596361" lon="12.290386853933995"><ele>437.0</ele><time>2026-04-25T10:27:12Z</time></trkpt><trkpt lat="46.23121878043005" lon="12.290536901378626"><ele>437.0</ele><time>2026-04-25T10:27:13Z</time></trkpt><trkpt lat="46.231377230286355" lon="12.290687171078067"><ele>437.0</ele><time>2026-04-25T10:27:14Z</time></trkpt><trkpt lat="46.231534838453506" lon="12.290843522974114"><ele>438.0</ele><time>2026-04-25T10:27:15Z</time></trkpt><trkpt lat="46.23168851387825" lon="12.291015050158407"><ele>439.0</ele><time>2026-04-25T10:27:16Z</time></trkpt><trkpt lat="46.23183309470902" lon="12.291197081836286"><ele>440.0</ele><time>2026-04-25T10:27:17Z</time></trkpt><trkpt lat="46.23196977712936" lon="12.291389111648153"><ele>441.0</ele><time>2026-04-25T10:27:18Z</time></trkpt><trkpt lat="46.23209576195681" lon="12.291588886409862"><ele>442.0</ele><time>2026-04-25T10:27:19Z</time></trkpt><trkpt lat="46.23222217643797" lon="12.291778920226514"><ele>443.0</ele><time>2026-04-25T10:27:20Z</time></trkpt><trkpt lat="46.232357088788056" lon="12.291962735466276"><ele>443.0</ele><time>2026-04-25T10:27:21Z</time></trkpt><trkpt lat="46.2324958424599" lon="12.292141314459625"><ele>443.0</ele><time>2026-04-25T10:27:22Z</time></trkpt><trkpt lat="46.232638551169934" lon="12.292317381585486"><ele>443.0</ele><time>2026-04-25T10:27:23Z</time></trkpt><trkpt lat="46.23278739783214" lon="12.29248940199798"><ele>444.3333333333333</ele><time>2026-04-25T10:27:24Z</time></trkpt><trkpt lat="46.23294534856108" lon="12.29265423982191"><ele>445.66666666666663</ele><time>2026-04-25T10:27:25Z</time></trkpt><trkpt lat="46.23310977299647" lon="12.292817225422546"><ele>447.0</ele><time>2026-04-25T10:27:26Z</time></trkpt><trkpt lat="46.233270538157846" lon="12.292975914098399"><ele>442.66666666666663</ele><time>2026-04-25T10:27:27Z</time></trkpt><trkpt lat="46.233428158417176" lon="12.293131634861348"><ele>438.3333333333333</ele><time>2026-04-25T10:27:28Z</time></trkpt><trkpt lat="46.23358299018268" lon="12.293287860190803"><ele>434.0</ele><time>2026-04-25T10:27:29Z</time></trkpt><trkpt lat="46.23373716410201" lon="12.293445415923571"><ele>434.0</ele><time>2026-04-25T10:27:30Z</time></trkpt><trkpt lat="46.23389390295765" lon="12.29359881049638"><ele>434.0</ele><time>2026-04-25T10:27:31Z</time></trkpt><trkpt lat="46.23405773216055" lon="12.293745010383503"><ele>434.0</ele><time>2026-04-25T10:27:32Z</time></trkpt><trkpt lat="46.234233530783165" lon="12.293873230813958"><ele>433.0</ele><time>2026-04-25T10:27:33Z</time></trkpt><trkpt lat="46.23441244769395" lon="12.293985848727134"><ele>432.0</ele><time>2026-04-25T10:27:34Z</time></trkpt><trkpt lat="46.23459336681294" lon="12.294092064475038"><ele>431.0</ele><time>2026-04-25T10:27:35Z</time></trkpt><trkpt lat="46.23477510882252" lon="12.294189055570014"><ele>434.3333333333333</ele><time>2026-04-25T10:27:36Z</time></trkpt><trkpt lat="46.23495693220919" lon="12.29427270834045"><ele>437.66666666666663</ele><time>2026-04-25T10:27:37Z</time></trkpt><trkpt lat="46.235136958256" lon="12.294349397941774"><ele>441.0</ele><time>2026-04-25T10:27:38Z</time></trkpt><trkpt lat="46.235316235129076" lon="12.294416197780585"><ele>441.0</ele><time>2026-04-25T10:27:39Z</time></trkpt><trkpt lat="46.23549144536368" lon="12.294476624414845"><ele>441.0</ele><time>2026-04-25T10:27:40Z</time></trkpt><trkpt lat="46.23566341487942" lon="12.294537147522433"><ele>441.0</ele><time>2026-04-25T10:27:41Z</time></trkpt><trkpt lat="46.235831870425564" lon="12.294596726504507"><ele>441.0</ele><time>2026-04-25T10:27:42Z</time></trkpt><trkpt lat="46.23599761509007" lon="12.2946562083901"><ele>441.0</ele><time>2026-04-25T10:27:43Z</time></trkpt><trkpt lat="46.23616107225372" lon="12.29471266635809"><ele>441.0</ele><time>2026-04-25T10:27:44Z</time></trkpt><trkpt lat="46.236324846742335" lon="12.294772267994055"><ele>439.0</ele><time>2026-04-25T10:27:45Z</time></trkpt><trkpt lat="46.236488130002805" lon="12.294829305545992"><ele>437.0</ele><time>2026-04-25T10:27:46Z</time></trkpt><trkpt lat="46.236653385554604" lon="12.29488759255584"><ele>435.0</ele><time>2026-04-25T10:27:47Z</time></trkpt><trkpt lat="46.23682020389539" lon="12.29494686554637"><ele>435.0</ele><time>2026-04-25T10:27:48Z</time></trkpt><trkpt lat="46.23699106245031" lon="12.295007700503472"><ele>435.0</ele><time>2026-04-25T10:27:49Z</time></trkpt><trkpt lat="46.237169288565255" lon="12.295069865597466"><ele>435.0</ele><time>2026-04-25T10:27:50Z</time></trkpt><trkpt lat="46.23734869015845" lon="12.29513051881061"><ele>436.0</ele><time>2026-04-25T10:27:51Z</time></trkpt><trkpt lat="46.237530869017085" lon="12.295196499320584"><ele>437.0</ele><time>2026-04-25T10:27:52Z</time></trkpt><trkpt lat="46.237713431623874" lon="12.295265844690192"><ele>438.0</ele><time>2026-04-25T10:27:53Z</time></trkpt><trkpt lat="46.23789639826745" lon="12.29533384239038"><ele>438.0</ele><time>2026-04-25T10:27:54Z</time></trkpt><trkpt lat="46.238080459782296" lon="12.295402383914679"><ele>438.0</ele><time>2026-04-25T10:27:55Z</time></trkpt><trkpt lat="46.23826697401155" lon="12.295467229011818"><ele>438.0</ele><time>2026-04-25T10:27:56Z</time></trkpt><trkpt lat="46.23845481454878" lon="12.29552866619034"><ele>436.66666666666663</ele><time>2026-04-25T10:27:57Z</time></trkpt><trkpt lat="46.238643654980606" lon="12.295578530998172"><ele>435.3333333333333</ele><time>2026-04-25T10:27:58Z</time></trkpt><trkpt lat="46.23883403232684" lon="12.295611421068491"><ele>434.0</ele><time>2026-04-25T10:27:59Z</time></trkpt><trkpt lat="46.23902311279483" lon="12.295625704557345"><ele>434.0</ele><time>2026-04-25T10:28:00Z</time></trkpt><trkpt lat="46.239208432727175" lon="12.295626178723976"><ele>434.0</ele><time>2026-04-25T10:28:01Z</time></trkpt><trkpt lat="46.23939332717821" lon="12.29561407654144"><ele>434.0</ele><time>2026-04-25T10:28:02Z</time></trkpt><trkpt lat="46.23958073338108" lon="12.295582273292766"><ele>435.0</ele><time>2026-04-25T10:28:03Z</time></trkpt><trkpt lat="46.23977053852331" lon="12.295526552132017"><ele>436.0</ele><time>2026-04-25T10:28:04Z</time></trkpt><trkpt lat="46.23996324953105" lon="12.295455446265255"><ele>437.0</ele><time>2026-04-25T10:28:05Z</time></trkpt><trkpt lat="46.24015603651281" lon="12.29537250289209"><ele>437.0</ele><time>2026-04-25T10:28:06Z</time></trkpt><trkpt lat="46.24034953883984" lon="12.295257827459306"><ele>437.0</ele><time>2026-04-25T10:28:07Z</time></trkpt><trkpt lat="46.24054446075269" lon="12.295117040141623"><ele>437.0</ele><time>2026-04-25T10:28:08Z</time></trkpt><trkpt lat="46.24072788911305" lon="12.294972638053142"><ele>436.0</ele><time>2026-04-25T10:28:09Z</time></trkpt><trkpt lat="46.24089921732641" lon="12.294844515698884"><ele>435.0</ele><time>2026-04-25T10:28:10Z</time></trkpt><trkpt lat="46.24107567559033" lon="12.294731595865633"><ele>434.0</ele><time>2026-04-25T10:28:11Z</time></trkpt><trkpt lat="46.24126247441047" lon="12.294643800503541"><ele>438.3333333333333</ele><time>2026-04-25T10:28:12Z</time></trkpt><trkpt lat="46.24145816377374" lon="12.294602868727564"><ele>442.66666666666663</ele><time>2026-04-25T10:28:13Z</time></trkpt><trkpt lat="46.241655477174135" lon="12.294604549188268"><ele>447.0</ele><time>2026-04-25T10:28:14Z</time></trkpt><trkpt lat="46.241832964834884" lon="12.29464274787395"><ele>450.66666666666663</ele><time>2026-04-25T10:28:15Z</time></trkpt><trkpt lat="46.24199546745491" lon="12.294704340184555"><ele>454.3333333333333</ele><time>2026-04-25T10:28:16Z</time></trkpt><trkpt lat="46.24214560053484" lon="12.294793366449571"><ele>458.0</ele><time>2026-04-25T10:28:17Z</time></trkpt><trkpt lat="46.24229048419568" lon="12.294897678905466"><ele>453.3333333333333</ele><time>2026-04-25T10:28:18Z</time></trkpt><trkpt lat="46.24242932199751" lon="12.295011722138854"><ele>448.66666666666663</ele><time>2026-04-25T10:28:19.001Z</time></trkpt><trkpt lat="46.24255924156411" lon="12.29513853925212"><ele>444.0</ele><time>2026-04-25T10:28:20.001Z</time></trkpt><trkpt lat="46.24268214636721" lon="12.295268005867117"><ele>444.0</ele><time>2026-04-25T10:28:21.001Z</time></trkpt><trkpt lat="46.24279681077591" lon="12.295388642516686"><ele>444.0</ele><time>2026-04-25T10:28:22.001Z</time></trkpt><trkpt lat="46.24290543125675" lon="12.295499295781294"><ele>444.0</ele><time>2026-04-25T10:28:23.001Z</time></trkpt><trkpt lat="46.24301002168" lon="12.295605887612785"><ele>444.0</ele><time>2026-04-25T10:28:24.001Z</time></trkpt><trkpt lat="46.24311182929192" lon="12.295711453496756"><ele>443.25</ele><time>2026-04-25T10:28:25.001Z</time></trkpt><trkpt lat="46.243213219768094" lon="12.295814116970282"><ele>442.5</ele><time>2026-04-25T10:28:26.001Z</time></trkpt><trkpt lat="46.24331559799515" lon="12.295917984587772"><ele>441.75</ele><time>2026-04-25T10:28:27.001Z</time></trkpt><trkpt lat="46.2434186578121" lon="12.29602511221835"><ele>441.0</ele><time>2026-04-25T10:28:28.001Z</time></trkpt><trkpt lat="46.243523335584044" lon="12.29613182852363"><ele>441.0</ele><time>2026-04-25T10:28:29.001Z</time></trkpt><trkpt lat="46.243630836600055" lon="12.296239874151174"><ele>441.0</ele><time>2026-04-25T10:28:30.001Z</time></trkpt><trkpt lat="46.24373840642823" lon="12.296347589149125"><ele>441.0</ele><time>2026-04-25T10:28:31.001Z</time></trkpt><trkpt lat="46.24384452553897" lon="12.296459433038338"><ele>441.0</ele><time>2026-04-25T10:28:32.001Z</time></trkpt><trkpt lat="46.24395049198924" lon="12.296569167786071"><ele>440.5</ele><time>2026-04-25T10:28:33Z</time></trkpt><trkpt lat="46.24405863865597" lon="12.296679227506955"><ele>440.0</ele><time>2026-04-25T10:28:34Z</time></trkpt><trkpt lat="46.244169295138896" lon="12.296790211002882"><ele>439.5</ele><time>2026-04-25T10:28:35Z</time></trkpt><trkpt lat="46.24428138889048" lon="12.296902372934634"><ele>439.0</ele><time>2026-04-25T10:28:36Z</time></trkpt><trkpt lat="46.24439385911398" lon="12.297021399743638"><ele>439.0</ele><time>2026-04-25T10:28:37Z</time></trkpt><trkpt lat="46.244508306962665" lon="12.297142148588877"><ele>439.0</ele><time>2026-04-25T10:28:38Z</time></trkpt><trkpt lat="46.24462427334184" lon="12.29726200265833"><ele>439.0</ele><time>2026-04-25T10:28:39Z</time></trkpt><trkpt lat="46.24474128413918" lon="12.29737947360763"><ele>439.0</ele><time>2026-04-25T10:28:40Z</time></trkpt><trkpt lat="46.24485575238145" lon="12.29749558435069"><ele>437.75</ele><time>2026-04-25T10:28:41Z</time></trkpt><trkpt lat="46.24496589587753" lon="12.297613919796017"><ele>436.5</ele><time>2026-04-25T10:28:42Z</time></trkpt><trkpt lat="46.245072044478405" lon="12.297734432885518"><ele>435.25</ele><time>2026-04-25T10:28:43Z</time></trkpt><trkpt lat="46.245178202392" lon="12.297856391679097"><ele>434.0</ele><time>2026-04-25T10:28:44Z</time></trkpt><trkpt lat="46.24528580577609" lon="12.297982208047854"><ele>434.0</ele><time>2026-04-25T10:28:45Z</time></trkpt><trkpt lat="46.245395408817664" lon="12.298111919895616"><ele>434.0</ele><time>2026-04-25T10:28:46Z</time></trkpt><trkpt lat="46.24550512031017" lon="12.298238787026204"><ele>434.0</ele><time>2026-04-25T10:28:47Z</time></trkpt><trkpt lat="46.24561081305619" lon="12.298361574674317"><ele>434.0</ele><time>2026-04-25T10:28:48Z</time></trkpt><trkpt lat="46.24571682195239" lon="12.298480480748358"><ele>434.0</ele><time>2026-04-25T10:28:49Z</time></trkpt><trkpt lat="46.24582548681732" lon="12.298591729812188"><ele>434.0</ele><time>2026-04-25T10:28:50Z</time></trkpt><trkpt lat="46.2459388866276" lon="12.29869083994447"><ele>434.0</ele><time>2026-04-25T10:28:51Z</time></trkpt><trkpt lat="46.2460572849647" lon="12.29878051432845"><ele>434.0</ele><time>2026-04-25T10:28:52Z</time></trkpt><trkpt lat="46.246179846177185" lon="12.298862148601346"><ele>433.0</ele><time>2026-04-25T10:28:53Z</time></trkpt><trkpt lat="46.24630878093396" lon="12.29893106639184"><ele>432.0</ele><time>2026-04-25T10:28:54Z</time></trkpt><trkpt lat="46.24644316512436" lon="12.298987476150321"><ele>431.0</ele><time>2026-04-25T10:28:55Z</time></trkpt><trkpt lat="46.24658258798774" lon="12.299031541523517"><ele>430.0</ele><time>2026-04-25T10:28:56Z</time></trkpt><trkpt lat="46.246726548665315" lon="12.299066723069881"><ele>430.0</ele><time>2026-04-25T10:28:57Z</time></trkpt><trkpt lat="46.24687364687512" lon="12.299089579778345"><ele>430.0</ele><time>2026-04-25T10:28:58Z</time></trkpt><trkpt lat="46.247024428961446" lon="12.299098698317053"><ele>430.0</ele><time>2026-04-25T10:28:59Z</time></trkpt><trkpt lat="46.247178472536106" lon="12.299090849154863"><ele>429.33333333333337</ele><time>2026-04-25T10:29:00Z</time></trkpt><trkpt lat="46.247334884733604" lon="12.299066272946064"><ele>428.66666666666663</ele><time>2026-04-25T10:29:01Z</time></trkpt><trkpt lat="46.247494271182575" lon="12.299028916267138"><ele>428.0</ele><time>2026-04-25T10:29:02Z</time></trkpt><trkpt lat="46.24765461942131" lon="12.298976988861972"><ele>428.0</ele><time>2026-04-25T10:29:03Z</time></trkpt><trkpt lat="46.24781536199097" lon="12.298918395406135"><ele>428.0</ele><time>2026-04-25T10:29:04Z</time></trkpt><trkpt lat="46.24797816740285" lon="12.298858664317876"><ele>428.0</ele><time>2026-04-25T10:29:05Z</time></trkpt><trkpt lat="46.24814352088433" lon="12.298800855278575"><ele>429.66666666666663</ele><time>2026-04-25T10:29:06Z</time></trkpt><trkpt lat="46.248315214580074" lon="12.298748432638257"><ele>431.33333333333337</ele><time>2026-04-25T10:29:07Z</time></trkpt><trkpt lat="46.24849246344361" lon="12.298702623774185"><ele>433.0</ele><time>2026-04-25T10:29:08Z</time></trkpt><trkpt lat="46.248675063741615" lon="12.298662460785572"><ele>433.0</ele><time>2026-04-25T10:29:09Z</time></trkpt><trkpt lat="46.24886027915638" lon="12.298623524373744"><ele>433.0</ele><time>2026-04-25T10:29:10Z</time></trkpt><trkpt lat="46.24904408738999" lon="12.298585797184927"><ele>433.0</ele><time>2026-04-25T10:29:11Z</time></trkpt><trkpt lat="46.24922933194329" lon="12.29854974969079"><ele>433.33333333333337</ele><time>2026-04-25T10:29:12Z</time></trkpt><trkpt lat="46.24941275170427" lon="12.298514351387245"><ele>433.66666666666663</ele><time>2026-04-25T10:29:13Z</time></trkpt><trkpt lat="46.24959485006452" lon="12.298478781905912"><ele>434.0</ele><time>2026-04-25T10:29:14Z</time></trkpt><trkpt lat="46.24977420165006" lon="12.298445959178911"><ele>435.66666666666663</ele><time>2026-04-25T10:29:15Z</time></trkpt><trkpt lat="46.24995179851772" lon="12.29841525890315"><ele>437.33333333333337</ele><time>2026-04-25T10:29:16Z</time></trkpt><trkpt lat="46.25012662302668" lon="12.29838543970449"><ele>439.0</ele><time>2026-04-25T10:29:17Z</time></trkpt><trkpt lat="46.250299206611786" lon="12.298360935163677"><ele>439.0</ele><time>2026-04-25T10:29:18Z</time></trkpt><trkpt lat="46.25047281981856" lon="12.298351184791247"><ele>439.0</ele><time>2026-04-25T10:29:19Z</time></trkpt><trkpt lat="46.250646931714876" lon="12.298354825620315"><ele>439.0</ele><time>2026-04-25T10:29:20Z</time></trkpt><trkpt lat="46.25081993967099" lon="12.298366156684569"><ele>438.33333333333337</ele><time>2026-04-25T10:29:21Z</time></trkpt><trkpt lat="46.25099304998691" lon="12.298384739105622"><ele>437.66666666666663</ele><time>2026-04-25T10:29:22Z</time></trkpt><trkpt lat="46.25116851399599" lon="12.298405174629439"><ele>437.0</ele><time>2026-04-25T10:29:23Z</time></trkpt><trkpt lat="46.25134688709722" lon="12.298424960962768"><ele>439.0</ele><time>2026-04-25T10:29:24Z</time></trkpt><trkpt lat="46.2515267868285" lon="12.298444899653495"><ele>441.0</ele><time>2026-04-25T10:29:25Z</time></trkpt><trkpt lat="46.25170812276305" lon="12.298471769516166"><ele>443.0</ele><time>2026-04-25T10:29:26Z</time></trkpt><trkpt lat="46.25189252054627" lon="12.298505348914775"><ele>443.0</ele><time>2026-04-25T10:29:27Z</time></trkpt><trkpt lat="46.25207805606439" lon="12.298536228350484"><ele>443.0</ele><time>2026-04-25T10:29:28Z</time></trkpt><trkpt lat="46.252265636453345" lon="12.298564928024764"><ele>443.0</ele><time>2026-04-25T10:29:29Z</time></trkpt><trkpt lat="46.252455852374744" lon="12.298590911102457"><ele>446.0</ele><time>2026-04-25T10:29:30Z</time></trkpt><trkpt lat="46.25264703634906" lon="12.298614939224013"><ele>449.0</ele><time>2026-04-25T10:29:31Z</time></trkpt><trkpt lat="46.252837720761555" lon="12.298631286902861"><ele>452.0</ele><time>2026-04-25T10:29:32Z</time></trkpt><trkpt lat="46.25302741457638" lon="12.298645799998026"><ele>451.0</ele><time>2026-04-25T10:29:33Z</time></trkpt><trkpt lat="46.25321269486771" lon="12.298651554673866"><ele>450.0</ele><time>2026-04-25T10:29:34Z</time></trkpt><trkpt lat="46.25339260783759" lon="12.298657304056878"><ele>449.0</ele><time>2026-04-25T10:29:35Z</time></trkpt><trkpt lat="46.253567937652036" lon="12.298663244245418"><ele>449.0</ele><time>2026-04-25T10:29:36Z</time></trkpt><trkpt lat="46.25373768740345" lon="12.298668786693934"><ele>449.0</ele><time>2026-04-25T10:29:37Z</time></trkpt><trkpt lat="46.25390392719149" lon="12.298673206813925"><ele>449.0</ele><time>2026-04-25T10:29:38Z</time></trkpt><trkpt lat="46.25406515765184" lon="12.298678686400438"><ele>448.0</ele><time>2026-04-25T10:29:39Z</time></trkpt><trkpt lat="46.25422210147878" lon="12.298680034699858"><ele>447.0</ele><time>2026-04-25T10:29:40Z</time></trkpt><trkpt lat="46.254376586163936" lon="12.298681622483116"><ele>446.0</ele><time>2026-04-25T10:29:41Z</time></trkpt><trkpt lat="46.254528092866494" lon="12.298684709634681"><ele>446.0</ele><time>2026-04-25T10:29:42Z</time></trkpt><trkpt lat="46.25467827249392" lon="12.29868958414384"><ele>446.0</ele><time>2026-04-25T10:29:43Z</time></trkpt><trkpt lat="46.254827272921965" lon="12.29869253569628"><ele>446.0</ele><time>2026-04-25T10:29:44Z</time></trkpt><trkpt lat="46.25497245423273" lon="12.298698156476803"><ele>446.0</ele><time>2026-04-25T10:29:45Z</time></trkpt><trkpt lat="46.2551122769123" lon="12.298702898576117"><ele>446.5</ele><time>2026-04-25T10:29:46Z</time></trkpt><trkpt lat="46.25525276588398" lon="12.298706369913456"><ele>447.0</ele><time>2026-04-25T10:29:47Z</time></trkpt><trkpt lat="46.25539204379523" lon="12.298715490832382"><ele>447.5</ele><time>2026-04-25T10:29:48Z</time></trkpt><trkpt lat="46.255532195547815" lon="12.298733093654155"><ele>448.0</ele><time>2026-04-25T10:29:49Z</time></trkpt><trkpt lat="46.255669552901274" lon="12.298755926995446"><ele>448.0</ele><time>2026-04-25T10:29:50Z</time></trkpt><trkpt lat="46.255800280258605" lon="12.298783992000732"><ele>448.0</ele><time>2026-04-25T10:29:51Z</time></trkpt><trkpt lat="46.25593332507141" lon="12.298821485768505"><ele>448.0</ele><time>2026-04-25T10:29:52Z</time></trkpt><trkpt lat="46.25607045541092" lon="12.298864626190188"><ele>448.0</ele><time>2026-04-25T10:29:53Z</time></trkpt><trkpt lat="46.256209766605" lon="12.298914197983182"><ele>444.33333333333337</ele><time>2026-04-25T10:29:54Z</time></trkpt><trkpt lat="46.256351211849996" lon="12.298966691387374"><ele>440.66666666666663</ele><time>2026-04-25T10:29:55Z</time></trkpt><trkpt lat="46.256498324473995" lon="12.299025663360398"><ele>437.0</ele><time>2026-04-25T10:29:56Z</time></trkpt><trkpt lat="46.2566493085802" lon="12.299084595610584"><ele>437.0</ele><time>2026-04-25T10:29:57Z</time></trkpt><trkpt lat="46.25679789545929" lon="12.299148115708835"><ele>437.0</ele><time>2026-04-25T10:29:58Z</time></trkpt><trkpt lat="46.256951661302914" lon="12.299221110814818"><ele>437.0</ele><time>2026-04-25T10:29:59Z</time></trkpt><trkpt lat="46.257111758715254" lon="12.299298521033638"><ele>437.0</ele><time>2026-04-25T10:30:00Z</time></trkpt><trkpt lat="46.257276455952194" lon="12.299380901500122"><ele>437.0</ele><time>2026-04-25T10:30:01Z</time></trkpt><trkpt lat="46.25744627019833" lon="12.299469284802889"><ele>437.0</ele><time>2026-04-25T10:30:02Z</time></trkpt><trkpt lat="46.25762350402031" lon="12.299559014889715"><ele>436.3333333333333</ele><time>2026-04-25T10:30:03Z</time></trkpt><trkpt lat="46.2578103301377" lon="12.2996426173036"><ele>435.66666666666663</ele><time>2026-04-25T10:30:04Z</time></trkpt><trkpt lat="46.2580063014266" lon="12.299721816520865"><ele>435.0</ele><time>2026-04-25T10:30:05Z</time></trkpt><trkpt lat="46.25820989378749" lon="12.299789421608926"><ele>435.0</ele><time>2026-04-25T10:30:06Z</time></trkpt><trkpt lat="46.258411025529625" lon="12.29984419502241"><ele>435.0</ele><time>2026-04-25T10:30:07Z</time></trkpt><trkpt lat="46.25860015831639" lon="12.299885809821074"><ele>435.0</ele><time>2026-04-25T10:30:08Z</time></trkpt><trkpt lat="46.25878330153403" lon="12.299923665045323"><ele>436.66666666666663</ele><time>2026-04-25T10:30:09Z</time></trkpt><trkpt lat="46.25895847262039" lon="12.299961324694925"><ele>438.3333333333333</ele><time>2026-04-25T10:30:10Z</time></trkpt><trkpt lat="46.25912914082076" lon="12.300002127803191"><ele>440.0</ele><time>2026-04-25T10:30:11Z</time></trkpt><trkpt lat="46.25929495915567" lon="12.300045185995703"><ele>440.0</ele><time>2026-04-25T10:30:12Z</time></trkpt><trkpt lat="46.25945629254255" lon="12.300097261869203"><ele>440.0</ele><time>2026-04-25T10:30:13Z</time></trkpt><trkpt lat="46.25961027424618" lon="12.300168475022495"><ele>440.0</ele><time>2026-04-25T10:30:14Z</time></trkpt><trkpt lat="46.25975375587862" lon="12.300235571529518"><ele>441.25</ele><time>2026-04-25T10:30:15Z</time></trkpt><trkpt lat="46.25988541382133" lon="12.300293895973777"><ele>442.5</ele><time>2026-04-25T10:30:16Z</time></trkpt><trkpt lat="46.260011601572764" lon="12.300352676409466"><ele>443.75</ele><time>2026-04-25T10:30:17Z</time></trkpt><trkpt lat="46.2601317874314" lon="12.300408328787608"><ele>445.0</ele><time>2026-04-25T10:30:18Z</time></trkpt><trkpt lat="46.260251851013045" lon="12.300465673148498"><ele>445.0</ele><time>2026-04-25T10:30:19Z</time></trkpt><trkpt lat="46.26037213510326" lon="12.300527842916942"><ele>445.0</ele><time>2026-04-25T10:30:20Z</time></trkpt><trkpt lat="46.26048965763122" lon="12.300597813684094"><ele>445.0</ele><time>2026-04-25T10:30:21Z</time></trkpt><trkpt lat="46.26060218438554" lon="12.300688103836421"><ele>445.0</ele><time>2026-04-25T10:30:22Z</time></trkpt><trkpt lat="46.2607190991019" lon="12.300795564681735"><ele>446.5</ele><time>2026-04-25T10:30:22.999Z</time></trkpt><trkpt lat="46.26084240344145" lon="12.30090906932191"><ele>448.0</ele><time>2026-04-25T10:30:24Z</time></trkpt><trkpt lat="46.26096491442422" lon="12.301018182724343"><ele>449.5</ele><time>2026-04-25T10:30:25Z</time></trkpt><trkpt lat="46.26109035120414" lon="12.301122257844044"><ele>451.0</ele><time>2026-04-25T10:30:26Z</time></trkpt><trkpt lat="46.26121791401061" lon="12.301223381392967"><ele>451.0</ele><time>2026-04-25T10:30:27Z</time></trkpt><trkpt lat="46.2613480574608" lon="12.301321571625111"><ele>451.0</ele><time>2026-04-25T10:30:28Z</time></trkpt><trkpt lat="46.26148300588037" lon="12.301418339496143"><ele>451.0</ele><time>2026-04-25T10:30:29Z</time></trkpt><trkpt lat="46.261621016365304" lon="12.301515446373871"><ele>450.5</ele><time>2026-04-25T10:30:30Z</time></trkpt><trkpt lat="46.26175632540986" lon="12.3016111719905"><ele>450.0</ele><time>2026-04-25T10:30:31Z</time></trkpt><trkpt lat="46.261880975034124" lon="12.30169328286965"><ele>449.5</ele><time>2026-04-25T10:30:32Z</time></trkpt><trkpt lat="46.26199384452379" lon="12.301769308197303"><ele>449.0</ele><time>2026-04-25T10:30:33Z</time></trkpt><trkpt lat="46.26210571310072" lon="12.301847902685996"><ele>449.0</ele><time>2026-04-25T10:30:34Z</time></trkpt><trkpt lat="46.262218405700544" lon="12.301923479820937"><ele>449.0</ele><time>2026-04-25T10:30:35Z</time></trkpt><trkpt lat="46.2623290348132" lon="12.3019953209516"><ele>449.0</ele><time>2026-04-25T10:30:36Z</time></trkpt><trkpt lat="46.26243889486479" lon="12.302065077424354"><ele>449.0</ele><time>2026-04-25T10:30:37Z</time></trkpt><trkpt lat="46.262545992666894" lon="12.30213280728748"><ele>448.6</ele><time>2026-04-25T10:30:38Z</time></trkpt><trkpt lat="46.26264541257776" lon="12.302200989121204"><ele>448.2</ele><time>2026-04-25T10:30:39Z</time></trkpt><trkpt lat="46.26274042639321" lon="12.302267742835795"><ele>447.80000000000007</ele><time>2026-04-25T10:30:40Z</time></trkpt><trkpt lat="46.26283780142716" lon="12.302332697308799"><ele>447.40000000000003</ele><time>2026-04-25T10:30:41Z</time></trkpt><trkpt lat="46.26293538684948" lon="12.302400330924288"><ele>447.0</ele><time>2026-04-25T10:30:42Z</time></trkpt><trkpt lat="46.26303303362668" lon="12.302467989424057"><ele>450.8</ele><time>2026-04-25T10:30:43Z</time></trkpt><trkpt lat="46.26313034892667" lon="12.302532612550449"><ele>454.6</ele><time>2026-04-25T10:30:44Z</time></trkpt><trkpt lat="46.263230247222175" lon="12.302598193225599"><ele>458.40000000000003</ele><time>2026-04-25T10:30:45Z</time></trkpt><trkpt lat="46.263332332723245" lon="12.302664218683873"><ele>462.20000000000005</ele><time>2026-04-25T10:30:46Z</time></trkpt><trkpt lat="46.26343633700781" lon="12.30273423449356"><ele>466.0</ele><time>2026-04-25T10:30:47Z</time></trkpt><trkpt lat="46.26354328263603" lon="12.302802185551894"><ele>466.0</ele><time>2026-04-25T10:30:48Z</time></trkpt><trkpt lat="46.26364829516675" lon="12.3028687795348"><ele>466.0</ele><time>2026-04-25T10:30:49Z</time></trkpt><trkpt lat="46.263742609893306" lon="12.30293062847953"><ele>466.0</ele><time>2026-04-25T10:30:50Z</time></trkpt><trkpt lat="46.263830292660884" lon="12.302985145418246"><ele>466.0</ele><time>2026-04-25T10:30:51Z</time></trkpt><trkpt lat="46.26391282363238" lon="12.303032541822137"><ele>466.0</ele><time>2026-04-25T10:30:52Z</time></trkpt><trkpt lat="46.26399970783274" lon="12.303071742586654"><ele>464.83333333333337</ele><time>2026-04-25T10:30:53Z</time></trkpt><trkpt lat="46.264083220168466" lon="12.303093747446066"><ele>463.6666666666667</ele><time>2026-04-25T10:30:54Z</time></trkpt><trkpt lat="46.2641618261246" lon="12.30310335527392"><ele>462.5</ele><time>2026-04-25T10:30:55Z</time></trkpt><trkpt lat="46.26423595625689" lon="12.303106404902282"><ele>461.33333333333337</ele><time>2026-04-25T10:30:56Z</time></trkpt><trkpt lat="46.264307088356695" lon="12.303105800408211"><ele>460.1666666666667</ele><time>2026-04-25T10:30:57Z</time></trkpt><trkpt lat="46.26437703889725" lon="12.303101904256923"><ele>459.0</ele><time>2026-04-25T10:30:58Z</time></trkpt><trkpt lat="46.26445007752256" lon="12.303101248793352"><ele>459.0</ele><time>2026-04-25T10:30:59Z</time></trkpt><trkpt lat="46.2645216477954" lon="12.303101301388754"><ele>459.0</ele><time>2026-04-25T10:31:00Z</time></trkpt><trkpt lat="46.26463072987066" lon="12.303121703558517"><ele>459.0</ele><time>2026-04-25T10:31:02Z</time></trkpt><trkpt lat="46.26470263505251" lon="12.303174501188787"><ele>459.0</ele><time>2026-04-25T10:31:04Z</time></trkpt><trkpt lat="46.264787121055065" lon="12.303189477285757"><ele>459.0</ele><time>2026-04-25T10:37:46Z</time></trkpt><trkpt lat="46.2648887074375" lon="12.303160935390244"><ele>460.4</ele><time>2026-04-25T10:37:49Z</time></trkpt><trkpt lat="46.26502155358647" lon="12.303170144097406"><ele>461.79999999999995</ele><time>2026-04-25T10:37:51Z</time></trkpt><trkpt lat="46.26509631817416" lon="12.30316420964663"><ele>463.20000000000005</ele><time>2026-04-25T10:37:52Z</time></trkpt><trkpt lat="46.265157149624606" lon="12.303135025314281"><ele>464.6</ele><time>2026-04-25T10:37:53Z</time></trkpt><trkpt lat="46.26520131248771" lon="12.303010472581372"><ele>466.0</ele><time>2026-04-25T10:37:55Z</time></trkpt><trkpt lat="46.2651472404778" lon="12.30285105496917"><ele>467.33333333333337</ele><time>2026-04-25T10:37:57Z</time></trkpt><trkpt lat="46.265114303310654" lon="12.30275120280888"><ele>468.6666666666667</ele><time>2026-04-25T10:37:58Z</time></trkpt><trkpt lat="46.26510756052855" lon="12.302637545035182"><ele>470.0</ele><time>2026-04-25T10:37:59Z</time></trkpt><trkpt lat="46.26511673696424" lon="12.302526026617969"><ele>471.33333333333337</ele><time>2026-04-25T10:38:00Z</time></trkpt><trkpt lat="46.26514739186973" lon="12.302421254787186"><ele>472.6666666666667</ele><time>2026-04-25T10:38:01Z</time></trkpt><trkpt lat="46.26520331228759" lon="12.302324881099572"><ele>474.0</ele><time>2026-04-25T10:38:02Z</time></trkpt><trkpt lat="46.26526222240644" lon="12.30222575180599"><ele>473.8333333333333</ele><time>2026-04-25T10:38:03Z</time></trkpt><trkpt lat="46.265319215813626" lon="12.302124467902845"><ele>473.66666666666663</ele><time>2026-04-25T10:38:04Z</time></trkpt><trkpt lat="46.26538012089379" lon="12.30203790156458"><ele>473.5</ele><time>2026-04-25T10:38:05Z</time></trkpt><trkpt lat="46.265436357862335" lon="12.301967776811876"><ele>473.3333333333333</ele><time>2026-04-25T10:38:06Z</time></trkpt><trkpt lat="46.26548978263552" lon="12.301907103208206"><ele>473.16666666666663</ele><time>2026-04-25T10:38:07Z</time></trkpt><trkpt lat="46.26554269145345" lon="12.301850132957426"><ele>473.0</ele><time>2026-04-25T10:38:08Z</time></trkpt><trkpt lat="46.26563692401225" lon="12.301761263708974"><ele>473.0</ele><time>2026-04-25T10:38:10Z</time></trkpt><trkpt lat="46.26569349159172" lon="12.301645262655338"><ele>472.99999999999994</ele><time>2026-04-25T10:38:12Z</time></trkpt><trkpt lat="46.26568214935636" lon="12.301454583019154"><ele>472.99999999999994</ele><time>2026-04-25T10:38:14Z</time></trkpt><trkpt lat="46.26566081448506" lon="12.301325808242883"><ele>473.0</ele><time>2026-04-25T10:38:15Z</time></trkpt><trkpt lat="46.265657353434925" lon="12.301182932118236"><ele>473.0</ele><time>2026-04-25T10:38:16Z</time></trkpt><trkpt lat="46.26567333499574" lon="12.30103781410772"><ele>473.99999999999994</ele><time>2026-04-25T10:38:17Z</time></trkpt><trkpt lat="46.265701943545736" lon="12.300890901413547"><ele>475.0</ele><time>2026-04-25T10:38:18Z</time></trkpt><trkpt lat="46.26572249091419" lon="12.300757062681614"><ele>476.0</ele><time>2026-04-25T10:38:19Z</time></trkpt><trkpt lat="46.265738456225996" lon="12.30065744776201"><ele>477.0</ele><time>2026-04-25T10:38:20Z</time></trkpt><trkpt lat="46.26575091700295" lon="12.300561822493439"><ele>477.99999999999994</ele><time>2026-04-25T10:38:21Z</time></trkpt><trkpt lat="46.265768645509056" lon="12.300460760318181"><ele>479.0</ele><time>2026-04-25T10:38:22Z</time></trkpt><trkpt lat="46.265780342434184" lon="12.300347583024047"><ele>480.0</ele><time>2026-04-25T10:38:23Z</time></trkpt><trkpt lat="46.265779146522334" lon="12.300225164471986"><ele>481.0</ele><time>2026-04-25T10:38:24Z</time></trkpt><trkpt lat="46.26575265545841" lon="12.300104958884436"><ele>482.0</ele><time>2026-04-25T10:38:25Z</time></trkpt><trkpt lat="46.265699742182896" lon="12.299994590241209"><ele>483.0</ele><time>2026-04-25T10:38:26Z</time></trkpt><trkpt lat="46.26561324214483" lon="12.29990341822683"><ele>484.0</ele><time>2026-04-25T10:38:27Z</time></trkpt><trkpt lat="46.265509568010934" lon="12.299866020934681"><ele>485.5</ele><time>2026-04-25T10:38:28Z</time></trkpt><trkpt lat="46.265401608909094" lon="12.299877981046768"><ele>487.0</ele><time>2026-04-25T10:38:29Z</time></trkpt><trkpt lat="46.265293384665014" lon="12.299937005182588"><ele>488.5</ele><time>2026-04-25T10:38:30Z</time></trkpt><trkpt lat="46.26520016897609" lon="12.3000487947198"><ele>490.0</ele><time>2026-04-25T10:38:31Z</time></trkpt><trkpt lat="46.26511582374309" lon="12.300206827340673"><ele>490.0</ele><time>2026-04-25T10:38:31.999Z</time></trkpt><trkpt lat="46.26504059016186" lon="12.300346810607493"><ele>490.0</ele><time>2026-04-25T10:38:32.999Z</time></trkpt><trkpt lat="46.26497286340176" lon="12.300467041805534"><ele>490.0</ele><time>2026-04-25T10:38:33.999Z</time></trkpt><trkpt lat="46.26491650119112" lon="12.300579675646192"><ele>490.0</ele><time>2026-04-25T10:38:34.999Z</time></trkpt><trkpt lat="46.26486037751013" lon="12.300675486838992"><ele>490.0</ele><time>2026-04-25T10:38:35.999Z</time></trkpt><trkpt lat="46.26479695338949" lon="12.300764194150393"><ele>490.2</ele><time>2026-04-25T10:38:36.999Z</time></trkpt><trkpt lat="46.26472315461961" lon="12.300836754608822"><ele>490.4</ele><time>2026-04-25T10:38:37.999Z</time></trkpt><trkpt lat="46.264637272762464" lon="12.300876222275077"><ele>490.6</ele><time>2026-04-25T10:38:38.999Z</time></trkpt><trkpt lat="46.26453546269747" lon="12.300878677043592"><ele>490.8</ele><time>2026-04-25T10:38:39.999Z</time></trkpt><trkpt lat="46.2644429546567" lon="12.300845458538632"><ele>491.0</ele><time>2026-04-25T10:38:40.999Z</time></trkpt><trkpt lat="46.26437237341201" lon="12.300783733096821"><ele>491.0</ele><time>2026-04-25T10:38:41.999Z</time></trkpt><trkpt lat="46.26432224148264" lon="12.30070120266633"><ele>491.0</ele><time>2026-04-25T10:38:42.999Z</time></trkpt><trkpt lat="46.26428085381174" lon="12.30059402502013"><ele>491.0</ele><time>2026-04-25T10:38:43.999Z</time></trkpt><trkpt lat="46.26424603415932" lon="12.300454774984779"><ele>491.0</ele><time>2026-04-25T10:38:44.999Z</time></trkpt><trkpt lat="46.264216266990154" lon="12.300284610642578"><ele>491.0</ele><time>2026-04-25T10:38:45.999Z</time></trkpt><trkpt lat="46.264178850537064" lon="12.300095703222611"><ele>491.25</ele><time>2026-04-25T10:38:47Z</time></trkpt><trkpt lat="46.26415012404836" lon="12.299906006890573"><ele>491.5</ele><time>2026-04-25T10:38:48Z</time></trkpt><trkpt lat="46.264132552046256" lon="12.299740399819102"><ele>491.75</ele><time>2026-04-25T10:38:49Z</time></trkpt><trkpt lat="46.26412167554228" lon="12.299597050706192"><ele>492.0</ele><time>2026-04-25T10:38:50Z</time></trkpt><trkpt lat="46.264107133514116" lon="12.299441668795948"><ele>492.0</ele><time>2026-04-25T10:38:51Z</time></trkpt><trkpt lat="46.264070982792234" lon="12.299283067718374"><ele>492.0</ele><time>2026-04-25T10:38:52Z</time></trkpt><trkpt lat="46.263998388379186" lon="12.299123613372451"><ele>492.0</ele><time>2026-04-25T10:38:53Z</time></trkpt><trkpt lat="46.26390602849752" lon="12.298941308821176"><ele>492.0</ele><time>2026-04-25T10:38:54Z</time></trkpt><trkpt lat="46.26381975266569" lon="12.298736950077723"><ele>490.0</ele><time>2026-04-25T10:38:55Z</time></trkpt><trkpt lat="46.263742310150505" lon="12.29854310686014"><ele>488.0</ele><time>2026-04-25T10:38:56Z</time></trkpt><trkpt lat="46.263675746310795" lon="12.298340894952938"><ele>486.0</ele><time>2026-04-25T10:38:57Z</time></trkpt><trkpt lat="46.26362583199423" lon="12.298130719803874"><ele>495.66666666666663</ele><time>2026-04-25T10:38:58Z</time></trkpt><trkpt lat="46.26359265589633" lon="12.297912241769431"><ele>505.3333333333333</ele><time>2026-04-25T10:38:59Z</time></trkpt><trkpt lat="46.26357744063189" lon="12.297678093472756"><ele>515.0</ele><time>2026-04-25T10:39:00Z</time></trkpt><trkpt lat="46.2635806558556" lon="12.297430366158451"><ele>530.6666666666666</ele><time>2026-04-25T10:39:01Z</time></trkpt><trkpt lat="46.26359507360721" lon="12.297167776217966"><ele>546.3333333333334</ele><time>2026-04-25T10:39:02Z</time></trkpt><trkpt lat="46.26361038971733" lon="12.296883639094027"><ele>562.0</ele><time>2026-04-25T10:39:03Z</time></trkpt><trkpt lat="46.26362445455586" lon="12.296579110558971"><ele>607.5</ele><time>2026-04-25T10:39:04Z</time></trkpt><trkpt lat="46.2636384640823" lon="12.296264220138966"><ele>653.0</ele><time>2026-04-25T10:39:05Z</time></trkpt><trkpt lat="46.26377195428945" lon="12.29363136394588"><ele>648.0</ele><time>2026-04-25T10:39:10.517Z</time></trkpt><trkpt lat="46.26381477766888" lon="12.292855445094954"><ele>647.0</ele><time>2026-04-25T10:39:11.517Z</time></trkpt><trkpt lat="46.26385678799604" lon="12.292079485263562"><ele>647.0</ele><time>2026-04-25T10:39:12.517Z</time></trkpt><trkpt lat="46.26389741092427" lon="12.291303603567972"><ele>603.0</ele><time>2026-04-25T10:39:13.517Z</time></trkpt><trkpt lat="46.26393961636013" lon="12.290527715025727"><ele>620.0</ele><time>2026-04-25T10:39:14.517Z</time></trkpt><trkpt lat="46.263981604642" lon="12.289751844721572"><ele>620.0</ele><time>2026-04-25T10:39:15.517Z</time></trkpt><trkpt lat="46.26402160835232" lon="12.28897571922464"><ele>577.0</ele><time>2026-04-25T10:39:16.517Z</time></trkpt><trkpt lat="46.26406161174314" lon="12.288199599926653"><ele>552.0</ele><time>2026-04-25T10:39:17.517Z</time></trkpt><trkpt lat="46.26410185101764" lon="12.287424322399294"><ele>549.5</ele><time>2026-04-25T10:39:18.516Z</time></trkpt><trkpt lat="46.2641289" lon="12.2869452"><ele>547.0</ele><time>2026-04-25T10:39:19.517Z</time></trkpt><trkpt lat="46.264123146025774" lon="12.28614816469149"><ele>547.0</ele><time>2026-04-25T10:39:40Z</time></trkpt><trkpt lat="46.26407676261296" lon="12.285913568694363"><ele>547.0</ele><time>2026-04-25T10:39:41Z</time></trkpt><trkpt lat="46.26392270011909" lon="12.285753968385949"><ele>547.0</ele><time>2026-04-25T10:39:42Z</time></trkpt><trkpt lat="46.263851080053044" lon="12.285558780526083"><ele>542.0</ele><time>2026-04-25T10:39:43Z</time></trkpt><trkpt lat="46.26374104152789" lon="12.285353465383963"><ele>537.0</ele><time>2026-04-25T10:39:44Z</time></trkpt><trkpt lat="46.263649109097216" lon="12.285166848631423"><ele>532.0</ele><time>2026-04-25T10:39:45Z</time></trkpt><trkpt lat="46.26357970392076" lon="12.284986617044556"><ele>532.0</ele><time>2026-04-25T10:39:46Z</time></trkpt><trkpt lat="46.263519368149765" lon="12.284794000787084"><ele>532.0</ele><time>2026-04-25T10:39:47Z</time></trkpt><trkpt lat="46.26347314201054" lon="12.284581559167378"><ele>532.0</ele><time>2026-04-25T10:39:48Z</time></trkpt><trkpt lat="46.26343797379884" lon="12.284365995979583"><ele>534.75</ele><time>2026-04-25T10:39:49Z</time></trkpt><trkpt lat="46.26339584979064" lon="12.284163180148347"><ele>537.5</ele><time>2026-04-25T10:39:50Z</time></trkpt><trkpt lat="46.26333928869586" lon="12.28397030320348"><ele>540.25</ele><time>2026-04-25T10:39:51Z</time></trkpt><trkpt lat="46.263260219239015" lon="12.28377905955542"><ele>543.0</ele><time>2026-04-25T10:39:52Z</time></trkpt><trkpt lat="46.263176733923785" lon="12.283586933164901"><ele>548.0</ele><time>2026-04-25T10:39:53Z</time></trkpt><trkpt lat="46.26311415115933" lon="12.283380878037278"><ele>553.0</ele><time>2026-04-25T10:39:54Z</time></trkpt><trkpt lat="46.263070929078694" lon="12.283150406871695"><ele>558.0</ele><time>2026-04-25T10:39:55Z</time></trkpt><trkpt lat="46.263046949897394" lon="12.282902619044147"><ele>548.3333333333334</ele><time>2026-04-25T10:39:56Z</time></trkpt><trkpt lat="46.263046157209665" lon="12.282632642275239"><ele>538.6666666666667</ele><time>2026-04-25T10:39:57Z</time></trkpt><trkpt lat="46.26305620484471" lon="12.282345356649344"><ele>529.0</ele><time>2026-04-25T10:39:58Z</time></trkpt><trkpt lat="46.263070891890735" lon="12.282050595232434"><ele>529.0</ele><time>2026-04-25T10:39:59Z</time></trkpt><trkpt lat="46.26309126138122" lon="12.28177161171091"><ele>529.0</ele><time>2026-04-25T10:40:00Z</time></trkpt><trkpt lat="46.26311700191789" lon="12.281497736460283"><ele>529.0</ele><time>2026-04-25T10:40:01Z</time></trkpt><trkpt lat="46.26315120036012" lon="12.281224255103028"><ele>540.6666666666667</ele><time>2026-04-25T10:40:02Z</time></trkpt><trkpt lat="46.263188018730915" lon="12.280949083562467"><ele>552.3333333333334</ele><time>2026-04-25T10:40:03Z</time></trkpt><trkpt lat="46.26321829325974" lon="12.280679931109445"><ele>564.0</ele><time>2026-04-25T10:40:04Z</time></trkpt><trkpt lat="46.26324411373378" lon="12.280410032319347"><ele>564.0</ele><time>2026-04-25T10:40:05Z</time></trkpt><trkpt lat="46.26325778541585" lon="12.280138168495707"><ele>564.0</ele><time>2026-04-25T10:40:06Z</time></trkpt><trkpt lat="46.26325789690625" lon="12.27986636836272"><ele>564.0</ele><time>2026-04-25T10:40:07Z</time></trkpt><trkpt lat="46.26325490647488" lon="12.279598150805942"><ele>564.0</ele><time>2026-04-25T10:40:08Z</time></trkpt><trkpt lat="46.2632509115611" lon="12.279343913097703"><ele>564.0</ele><time>2026-04-25T10:40:09Z</time></trkpt><trkpt lat="46.26324838355427" lon="12.279092640973564"><ele>564.0</ele><time>2026-04-25T10:40:10Z</time></trkpt><trkpt lat="46.26324519785892" lon="12.278843555775119"><ele>564.3333333333334</ele><time>2026-04-25T10:40:11Z</time></trkpt><trkpt lat="46.263242021255344" lon="12.278603275155355"><ele>564.6666666666667</ele><time>2026-04-25T10:40:12Z</time></trkpt><trkpt lat="46.26324147958998" lon="12.278374534323339"><ele>565.0</ele><time>2026-04-25T10:40:13Z</time></trkpt><trkpt lat="46.26324387055073" lon="12.278148820520212"><ele>563.6666666666667</ele><time>2026-04-25T10:40:14Z</time></trkpt><trkpt lat="46.263261988919915" lon="12.277918505702418"><ele>562.3333333333334</ele><time>2026-04-25T10:40:15Z</time></trkpt><trkpt lat="46.263309164726294" lon="12.277688155632111"><ele>561.0</ele><time>2026-04-25T10:40:16Z</time></trkpt><trkpt lat="46.26338209057846" lon="12.277456362209412"><ele>556.0</ele><time>2026-04-25T10:40:17Z</time></trkpt><trkpt lat="46.26347723243805" lon="12.277228625363046"><ele>551.0</ele><time>2026-04-25T10:40:18Z</time></trkpt><trkpt lat="46.26357488540793" lon="12.276999050074613"><ele>546.0</ele><time>2026-04-25T10:40:19Z</time></trkpt><trkpt lat="46.26366313404269" lon="12.276788922784885"><ele>546.0</ele><time>2026-04-25T10:40:20Z</time></trkpt><trkpt lat="46.263748025277245" lon="12.276594621378225"><ele>546.0</ele><time>2026-04-25T10:40:21Z</time></trkpt><trkpt lat="46.26384221373593" lon="12.27640974116563"><ele>546.0</ele><time>2026-04-25T10:40:22Z</time></trkpt><trkpt lat="46.26396350177392" lon="12.276249648764265"><ele>552.0</ele><time>2026-04-25T10:40:23Z</time></trkpt><trkpt lat="46.264115324318745" lon="12.276120495249204"><ele>558.0</ele><time>2026-04-25T10:40:24Z</time></trkpt><trkpt lat="46.264289075193034" lon="12.276021921024032"><ele>564.0</ele><time>2026-04-25T10:40:25Z</time></trkpt><trkpt lat="46.26446408897548" lon="12.275934114405846"><ele>564.0</ele><time>2026-04-25T10:40:26Z</time></trkpt><trkpt lat="46.264621890611856" lon="12.275823440163027"><ele>564.0</ele><time>2026-04-25T10:40:27Z</time></trkpt><trkpt lat="46.26477101596805" lon="12.275685649144075"><ele>564.0</ele><time>2026-04-25T10:40:28Z</time></trkpt><trkpt lat="46.264910416977884" lon="12.275508629434496"><ele>565.6666666666666</ele><time>2026-04-25T10:40:29Z</time></trkpt><trkpt lat="46.26503831557149" lon="12.275299283032606"><ele>567.3333333333333</ele><time>2026-04-25T10:40:30Z</time></trkpt><trkpt lat="46.26516190536209" lon="12.27508211922135"><ele>569.0</ele><time>2026-04-25T10:40:31Z</time></trkpt><trkpt lat="46.26527687885862" lon="12.27487833318042"><ele>570.6666666666666</ele><time>2026-04-25T10:40:32Z</time></trkpt><trkpt lat="46.2653951102881" lon="12.27469651106654"><ele>572.3333333333334</ele><time>2026-04-25T10:40:33Z</time></trkpt><trkpt lat="46.26552411699696" lon="12.274540441968925"><ele>574.0</ele><time>2026-04-25T10:40:34Z</time></trkpt><trkpt lat="46.265661920668585" lon="12.27440646653167"><ele>574.0</ele><time>2026-04-25T10:40:35Z</time></trkpt><trkpt lat="46.26579393482968" lon="12.274307437636866"><ele>574.0</ele><time>2026-04-25T10:40:35.999Z</time></trkpt><trkpt lat="46.26592477344025" lon="12.274256280687624"><ele>574.0</ele><time>2026-04-25T10:40:36.999Z</time></trkpt><trkpt lat="46.266064548539" lon="12.274261177258262"><ele>574.0</ele><time>2026-04-25T10:40:37.999Z</time></trkpt><trkpt lat="46.266211969013376" lon="12.274329659416875"><ele>574.0</ele><time>2026-04-25T10:40:38.999Z</time></trkpt><trkpt lat="46.26631601733988" lon="12.274424497148987"><ele>574.0</ele><time>2026-04-25T10:40:39.999Z</time></trkpt><trkpt lat="46.26637039274215" lon="12.274510253507744"><ele>574.0</ele><time>2026-04-25T10:40:40.999Z</time></trkpt><trkpt lat="46.266400678398455" lon="12.274617060320702"><ele>574.0</ele><time>2026-04-25T10:40:41.999Z</time></trkpt><trkpt lat="46.266429825186975" lon="12.274735580970008"><ele>574.0</ele><time>2026-04-25T10:40:42.999Z</time></trkpt><trkpt lat="46.2664786142763" lon="12.274812445594026"><ele>574.0</ele><time>2026-04-25T10:40:43.999Z</time></trkpt><trkpt lat="46.266610270173075" lon="12.274835975960821"><ele>578.0</ele><time>2026-04-25T10:40:45.999Z</time></trkpt><trkpt lat="46.2666723447353" lon="12.27476425910767"><ele>582.0</ele><time>2026-04-25T10:40:46.999Z</time></trkpt><trkpt lat="46.26671621662442" lon="12.274643546886603"><ele>586.0</ele><time>2026-04-25T10:40:47.999Z</time></trkpt><trkpt lat="46.26677716022571" lon="12.274512356405657"><ele>590.0</ele><time>2026-04-25T10:40:48.999Z</time></trkpt><trkpt lat="46.266857519352044" lon="12.274362957500614"><ele>594.0</ele><time>2026-04-25T10:40:49.999Z</time></trkpt><trkpt lat="46.26690968834549" lon="12.274174307688181"><ele>594.0</ele><time>2026-04-25T10:40:50.999Z</time></trkpt><trkpt lat="46.26693860751316" lon="12.273965548658952"><ele>594.0</ele><time>2026-04-25T10:40:51.999Z</time></trkpt><trkpt lat="46.26696839722199" lon="12.273732682554026"><ele>594.0</ele><time>2026-04-25T10:40:53Z</time></trkpt><trkpt lat="46.26701449904919" lon="12.273513196659957"><ele>594.25</ele><time>2026-04-25T10:40:54Z</time></trkpt><trkpt lat="46.267068621767585" lon="12.273317139837548"><ele>594.5</ele><time>2026-04-25T10:40:55Z</time></trkpt><trkpt lat="46.26712128138328" lon="12.273132663166304"><ele>594.75</ele><time>2026-04-25T10:40:56Z</time></trkpt><trkpt lat="46.267175418697676" lon="12.272954934503655"><ele>595.0</ele><time>2026-04-25T10:40:57Z</time></trkpt><trkpt lat="46.267259233464756" lon="12.272783974927222"><ele>595.3333333333334</ele><time>2026-04-25T10:40:58Z</time></trkpt><trkpt lat="46.26736634628626" lon="12.27262442429876"><ele>595.6666666666666</ele><time>2026-04-25T10:40:59Z</time></trkpt><trkpt lat="46.26746815399409" lon="12.272454442426746"><ele>596.0</ele><time>2026-04-25T10:41:00Z</time></trkpt><trkpt lat="46.267546252222466" lon="12.272271023714298"><ele>596.0</ele><time>2026-04-25T10:41:01Z</time></trkpt><trkpt lat="46.26761794343003" lon="12.27209474419831"><ele>596.0</ele><time>2026-04-25T10:41:02Z</time></trkpt><trkpt lat="46.267707606396506" lon="12.271959439915426"><ele>596.0</ele><time>2026-04-25T10:41:03Z</time></trkpt><trkpt lat="46.267789645175895" lon="12.271815525243325"><ele>596.0</ele><time>2026-04-25T10:41:04Z</time></trkpt><trkpt lat="46.26783289154748" lon="12.27164467428319"><ele>596.0</ele><time>2026-04-25T10:41:05Z</time></trkpt><trkpt lat="46.26783363666905" lon="12.271449591988903"><ele>596.0</ele><time>2026-04-25T10:41:06Z</time></trkpt><trkpt lat="46.26780976545543" lon="12.271245115485991"><ele>596.0</ele><time>2026-04-25T10:41:07Z</time></trkpt><trkpt lat="46.267811167325384" lon="12.27104089992041"><ele>596.0</ele><time>2026-04-25T10:41:08Z</time></trkpt><trkpt lat="46.26785145736723" lon="12.270810870930607"><ele>584.3333333333333</ele><time>2026-04-25T10:41:09Z</time></trkpt><trkpt lat="46.26791080890246" lon="12.270564332432254"><ele>572.6666666666666</ele><time>2026-04-25T10:41:10Z</time></trkpt><trkpt lat="46.267959903230015" lon="12.270324643527603"><ele>561.0</ele><time>2026-04-25T10:41:11Z</time></trkpt><trkpt lat="46.26800474806197" lon="12.270117759350514"><ele>561.0</ele><time>2026-04-25T10:41:12Z</time></trkpt><trkpt lat="46.26805336202922" lon="12.269909707403482"><ele>561.0</ele><time>2026-04-25T10:41:13Z</time></trkpt><trkpt lat="46.268111590375455" lon="12.269702639321132"><ele>561.0</ele><time>2026-04-25T10:41:14Z</time></trkpt><trkpt lat="46.26818805961508" lon="12.269502575495862"><ele>567.0</ele><time>2026-04-25T10:41:15Z</time></trkpt><trkpt lat="46.268267234896236" lon="12.269304683683494"><ele>573.0</ele><time>2026-04-25T10:41:16Z</time></trkpt><trkpt lat="46.268321928552965" lon="12.269099817829401"><ele>579.0</ele><time>2026-04-25T10:41:17Z</time></trkpt><trkpt lat="46.26834923807457" lon="12.268890807438265"><ele>579.0</ele><time>2026-04-25T10:41:18Z</time></trkpt><trkpt lat="46.26837305938434" lon="12.268704321080818"><ele>579.0</ele><time>2026-04-25T10:41:19Z</time></trkpt><trkpt lat="46.268444167857" lon="12.26852652194102"><ele>579.0</ele><time>2026-04-25T10:41:20Z</time></trkpt><trkpt lat="46.26855916182274" lon="12.268358662523545"><ele>579.0</ele><time>2026-04-25T10:41:21Z</time></trkpt><trkpt lat="46.26867831632917" lon="12.268188262391051"><ele>580.3333333333334</ele><time>2026-04-25T10:41:22Z</time></trkpt><trkpt lat="46.26876263085696" lon="12.268003809569135"><ele>581.6666666666667</ele><time>2026-04-25T10:41:23Z</time></trkpt><trkpt lat="46.268811838689146" lon="12.267778319645492"><ele>583.0</ele><time>2026-04-25T10:41:24Z</time></trkpt><trkpt lat="46.26882894356145" lon="12.26752172110013"><ele>583.3333333333334</ele><time>2026-04-25T10:41:25Z</time></trkpt><trkpt lat="46.26883556249607" lon="12.2672538941053"><ele>583.6666666666666</ele><time>2026-04-25T10:41:26Z</time></trkpt><trkpt lat="46.26887336335104" lon="12.267013200406984"><ele>584.0</ele><time>2026-04-25T10:41:27Z</time></trkpt><trkpt lat="46.268917502218486" lon="12.266779102947455"><ele>584.0</ele><time>2026-04-25T10:41:28Z</time></trkpt><trkpt lat="46.268936008028035" lon="12.266547263300897"><ele>584.0</ele><time>2026-04-25T10:41:29Z</time></trkpt><trkpt lat="46.26891443635239" lon="12.266327040580796"><ele>584.0</ele><time>2026-04-25T10:41:30Z</time></trkpt><trkpt lat="46.26888302158757" lon="12.266129407908297"><ele>579.6666666666666</ele><time>2026-04-25T10:41:31Z</time></trkpt><trkpt lat="46.268885026750695" lon="12.26591004144584"><ele>575.3333333333334</ele><time>2026-04-25T10:41:32Z</time></trkpt><trkpt lat="46.268918316597635" lon="12.265681156510395"><ele>571.0</ele><time>2026-04-25T10:41:33Z</time></trkpt><trkpt lat="46.26898449974291" lon="12.26546689342991"><ele>585.5</ele><time>2026-04-25T10:41:34Z</time></trkpt><trkpt lat="46.26904749520455" lon="12.265290666967017"><ele>600.0</ele><time>2026-04-25T10:41:35Z</time></trkpt><trkpt lat="46.26908827563018" lon="12.265099443234197"><ele>614.5</ele><time>2026-04-25T10:41:36Z</time></trkpt><trkpt lat="46.26907552142271" lon="12.264885159320421"><ele>629.0</ele><time>2026-04-25T10:41:37Z</time></trkpt><trkpt lat="46.26903054401212" lon="12.264659049740558"><ele>629.0</ele><time>2026-04-25T10:41:38Z</time></trkpt><trkpt lat="46.26902169025968" lon="12.264437817730945"><ele>629.0</ele><time>2026-04-25T10:41:39Z</time></trkpt><trkpt lat="46.26904751224462" lon="12.264207060316233"><ele>629.0</ele><time>2026-04-25T10:41:40Z</time></trkpt><trkpt lat="46.269057967697435" lon="12.263983951844722"><ele>629.0</ele><time>2026-04-25T10:41:41Z</time></trkpt><trkpt lat="46.26902185870214" lon="12.26376386059467"><ele>629.0</ele><time>2026-04-25T10:41:42Z</time></trkpt><trkpt lat="46.26897098811863" lon="12.263548019325006"><ele>629.0</ele><time>2026-04-25T10:41:43Z</time></trkpt><trkpt lat="46.26895847008732" lon="12.263337649468605"><ele>629.0</ele><time>2026-04-25T10:41:44Z</time></trkpt><trkpt lat="46.268980421637885" lon="12.263128734122784"><ele>629.0</ele><time>2026-04-25T10:41:45Z</time></trkpt><trkpt lat="46.269005141916544" lon="12.262956220959698"><ele>629.0</ele><time>2026-04-25T10:41:46Z</time></trkpt><trkpt lat="46.269027038378425" lon="12.262806261526345"><ele>629.0</ele><time>2026-04-25T10:41:47Z</time></trkpt><trkpt lat="46.2690790109564" lon="12.262669617721853"><ele>624.25</ele><time>2026-04-25T10:41:48Z</time></trkpt><trkpt lat="46.26917052243517" lon="12.262541644704541"><ele>619.5</ele><time>2026-04-25T10:41:49Z</time></trkpt><trkpt lat="46.269282050726076" lon="12.262447577667952"><ele>614.75</ele><time>2026-04-25T10:41:50Z</time></trkpt><trkpt lat="46.26941383003153" lon="12.262373164304853"><ele>610.0</ele><time>2026-04-25T10:41:51Z</time></trkpt><trkpt lat="46.269525179866214" lon="12.262255607861144"><ele>617.5</ele><time>2026-04-25T10:41:52Z</time></trkpt><trkpt lat="46.2696194872085" lon="12.262119733594702"><ele>625.0</ele><time>2026-04-25T10:41:53Z</time></trkpt><trkpt lat="46.26971585948081" lon="12.261990082798373"><ele>632.5</ele><time>2026-04-25T10:41:54Z</time></trkpt><trkpt lat="46.2698088909919" lon="12.261849598150608"><ele>640.0</ele><time>2026-04-25T10:41:55Z</time></trkpt><trkpt lat="46.269889297246806" lon="12.26168442054896"><ele>640.0</ele><time>2026-04-25T10:41:56Z</time></trkpt><trkpt lat="46.26996496947476" lon="12.261503377831103"><ele>640.0</ele><time>2026-04-25T10:41:57Z</time></trkpt><trkpt lat="46.27003847767828" lon="12.2613193803197"><ele>640.0</ele><time>2026-04-25T10:41:58Z</time></trkpt><trkpt lat="46.27011353974827" lon="12.261149353152744"><ele>640.0</ele><time>2026-04-25T10:41:59Z</time></trkpt><trkpt lat="46.270210066963365" lon="12.260991419519101"><ele>630.75</ele><time>2026-04-25T10:42:00Z</time></trkpt><trkpt lat="46.27029494824679" lon="12.26082852418596"><ele>621.5</ele><time>2026-04-25T10:42:01Z</time></trkpt><trkpt lat="46.27033654309846" lon="12.260632724758683"><ele>612.25</ele><time>2026-04-25T10:42:02Z</time></trkpt><trkpt lat="46.27035403779361" lon="12.260401105463346"><ele>603.0</ele><time>2026-04-25T10:42:03Z</time></trkpt><trkpt lat="46.27038747110865" lon="12.26017486450769"><ele>599.5</ele><time>2026-04-25T10:42:04Z</time></trkpt><trkpt lat="46.270432086669324" lon="12.259975356159183"><ele>596.0</ele><time>2026-04-25T10:42:05Z</time></trkpt><trkpt lat="46.27044303706138" lon="12.259762696075475"><ele>592.5</ele><time>2026-04-25T10:42:06Z</time></trkpt><trkpt lat="46.27042892360517" lon="12.259550635488974"><ele>589.0</ele><time>2026-04-25T10:42:07Z</time></trkpt><trkpt lat="46.27043785744757" lon="12.25935098916783"><ele>588.25</ele><time>2026-04-25T10:42:08Z</time></trkpt><trkpt lat="46.27046912407574" lon="12.259160382044328"><ele>587.5</ele><time>2026-04-25T10:42:09Z</time></trkpt><trkpt lat="46.270516647059274" lon="12.25897218974316"><ele>586.75</ele><time>2026-04-25T10:42:10Z</time></trkpt><trkpt lat="46.27054284273775" lon="12.258756978916365"><ele>586.0</ele><time>2026-04-25T10:42:11Z</time></trkpt><trkpt lat="46.270528644568984" lon="12.258517635160457"><ele>586.0</ele><time>2026-04-25T10:42:12Z</time></trkpt><trkpt lat="46.27049963763959" lon="12.258274927304656"><ele>586.0</ele><time>2026-04-25T10:42:13Z</time></trkpt><trkpt lat="46.270496603661826" lon="12.258053124790768"><ele>586.0</ele><time>2026-04-25T10:42:14Z</time></trkpt><trkpt lat="46.27051438003063" lon="12.25783467220051"><ele>590.3333333333334</ele><time>2026-04-25T10:42:15Z</time></trkpt><trkpt lat="46.27055467588586" lon="12.257598130939279"><ele>594.6666666666666</ele><time>2026-04-25T10:42:16Z</time></trkpt><trkpt lat="46.270592210435105" lon="12.25737273999684"><ele>599.0</ele><time>2026-04-25T10:42:17Z</time></trkpt><trkpt lat="46.270625623249856" lon="12.257155603325264"><ele>618.0</ele><time>2026-04-25T10:42:18Z</time></trkpt><trkpt lat="46.27065713614984" lon="12.256942260263349"><ele>637.0</ele><time>2026-04-25T10:42:19Z</time></trkpt><trkpt lat="46.27068346735883" lon="12.256721600487719"><ele>656.0</ele><time>2026-04-25T10:42:20Z</time></trkpt><trkpt lat="46.270700909199235" lon="12.256492569042019"><ele>654.6666666666666</ele><time>2026-04-25T10:42:21Z</time></trkpt><trkpt lat="46.27071246128181" lon="12.256262372746317"><ele>653.3333333333334</ele><time>2026-04-25T10:42:22Z</time></trkpt><trkpt lat="46.270717254178514" lon="12.256036045043578"><ele>652.0</ele><time>2026-04-25T10:42:23Z</time></trkpt><trkpt lat="46.270716736084445" lon="12.255813029390287"><ele>648.6666666666667</ele><time>2026-04-25T10:42:24Z</time></trkpt><trkpt lat="46.27069737569138" lon="12.255594327843953"><ele>645.3333333333334</ele><time>2026-04-25T10:42:25Z</time></trkpt><trkpt lat="46.27066325936944" lon="12.255377197763842"><ele>642.0</ele><time>2026-04-25T10:42:26Z</time></trkpt><trkpt lat="46.27064434076115" lon="12.255154292862303"><ele>642.0</ele><time>2026-04-25T10:42:27Z</time></trkpt><trkpt lat="46.270653489537615" lon="12.254941799642957"><ele>642.0</ele><time>2026-04-25T10:42:28Z</time></trkpt><trkpt lat="46.27066894266816" lon="12.254754856373902"><ele>642.0</ele><time>2026-04-25T10:42:29Z</time></trkpt><trkpt lat="46.27068179139234" lon="12.254571778844642"><ele>642.0</ele><time>2026-04-25T10:42:30Z</time></trkpt><trkpt lat="46.27070755329026" lon="12.254409958093722"><ele>638.4</ele><time>2026-04-25T10:42:31Z</time></trkpt><trkpt lat="46.27075013114765" lon="12.254260987558995"><ele>634.8000000000001</ele><time>2026-04-25T10:42:32Z</time></trkpt><trkpt lat="46.270807979011366" lon="12.25412504197094"><ele>631.2</ele><time>2026-04-25T10:42:33Z</time></trkpt><trkpt lat="46.27088773856771" lon="12.25402062688156"><ele>627.6</ele><time>2026-04-25T10:42:34Z</time></trkpt><trkpt lat="46.270988657936925" lon="12.253960387957187"><ele>624.0</ele><time>2026-04-25T10:42:35Z</time></trkpt><trkpt lat="46.271109733319975" lon="12.253946160967148"><ele>624.0</ele><time>2026-04-25T10:42:36Z</time></trkpt><trkpt lat="46.2712453157418" lon="12.253976020388716"><ele>624.0</ele><time>2026-04-25T10:42:37Z</time></trkpt><trkpt lat="46.271388365561876" lon="12.253980145065876"><ele>624.0</ele><time>2026-04-25T10:42:38Z</time></trkpt><trkpt lat="46.27151728104531" lon="12.253939610456724"><ele>624.0</ele><time>2026-04-25T10:42:38.999Z</time></trkpt><trkpt lat="46.27163287310529" lon="12.253859413231451"><ele>626.5</ele><time>2026-04-25T10:42:39.999Z</time></trkpt><trkpt lat="46.27173012672767" lon="12.253732740342492"><ele>629.0</ele><time>2026-04-25T10:42:40.999Z</time></trkpt><trkpt lat="46.2718047377078" lon="12.253559928013985"><ele>631.5</ele><time>2026-04-25T10:42:41.999Z</time></trkpt><trkpt lat="46.27185818245541" lon="12.253378819319408"><ele>634.0</ele><time>2026-04-25T10:42:42.999Z</time></trkpt><trkpt lat="46.2718911602647" lon="12.253212787790655"><ele>628.25</ele><time>2026-04-25T10:42:43.999Z</time></trkpt><trkpt lat="46.27189471424608" lon="12.253037648291224"><ele>622.5</ele><time>2026-04-25T10:42:44.999Z</time></trkpt><trkpt lat="46.271860826366094" lon="12.25285184446494"><ele>616.75</ele><time>2026-04-25T10:42:45.999Z</time></trkpt><trkpt lat="46.271852340301734" lon="12.252705149214098"><ele>611.0</ele><time>2026-04-25T10:42:46.999Z</time></trkpt><trkpt lat="46.271901255542566" lon="12.252575827645632"><ele>611.0</ele><time>2026-04-25T10:42:47.999Z</time></trkpt><trkpt lat="46.271989886014445" lon="12.252510727953402"><ele>611.0</ele><time>2026-04-25T10:42:48.999Z</time></trkpt><trkpt lat="46.2721025727782" lon="12.252508607289181"><ele>611.0</ele><time>2026-04-25T10:42:49.999Z</time></trkpt><trkpt lat="46.27222925828109" lon="12.252525557921976"><ele>611.0</ele><time>2026-04-25T10:42:50.999Z</time></trkpt><trkpt lat="46.27235178783684" lon="12.252493906384387"><ele>616.8</ele><time>2026-04-25T10:42:51.999Z</time></trkpt><trkpt lat="46.27245259073383" lon="12.252430917462418"><ele>622.6</ele><time>2026-04-25T10:42:52.999Z</time></trkpt><trkpt lat="46.27255284826742" lon="12.252387494677997"><ele>628.4</ele><time>2026-04-25T10:42:53.999Z</time></trkpt><trkpt lat="46.2726620674318" lon="12.25238099921417"><ele>634.2</ele><time>2026-04-25T10:42:54.999Z</time></trkpt><trkpt lat="46.27276597413857" lon="12.252407949695632"><ele>640.0</ele><time>2026-04-25T10:42:55.999Z</time></trkpt><trkpt lat="46.27285979688517" lon="12.252436171466162"><ele>640.0</ele><time>2026-04-25T10:42:56.999Z</time></trkpt><trkpt lat="46.272953320629554" lon="12.252406969284865"><ele>640.0</ele><time>2026-04-25T10:42:57.999Z</time></trkpt><trkpt lat="46.27302812839701" lon="12.25231506775966"><ele>640.0</ele><time>2026-04-25T10:42:59Z</time></trkpt><trkpt lat="46.27308473522163" lon="12.252178543196246"><ele>640.0</ele><time>2026-04-25T10:43:00Z</time></trkpt><trkpt lat="46.27311248061191" lon="12.252008187089517"><ele>640.0</ele><time>2026-04-25T10:43:01Z</time></trkpt><trkpt lat="46.27313904529877" lon="12.251825650493078"><ele>641.0</ele><time>2026-04-25T10:43:02Z</time></trkpt><trkpt lat="46.27320047617187" lon="12.25165743302228"><ele>642.0</ele><time>2026-04-25T10:43:03Z</time></trkpt><trkpt lat="46.27325818865764" lon="12.25150081576487"><ele>643.0</ele><time>2026-04-25T10:43:04Z</time></trkpt><trkpt lat="46.27330161498357" lon="12.251352824895939"><ele>644.0</ele><time>2026-04-25T10:43:05Z</time></trkpt><trkpt lat="46.27332393110666" lon="12.251208895882744"><ele>641.2</ele><time>2026-04-25T10:43:06Z</time></trkpt><trkpt lat="46.27333230886763" lon="12.251060286759694"><ele>638.4000000000001</ele><time>2026-04-25T10:43:07Z</time></trkpt><trkpt lat="46.27332976976118" lon="12.25089406431277"><ele>635.6</ele><time>2026-04-25T10:43:08Z</time></trkpt><trkpt lat="46.273339160392545" lon="12.250728798286616"><ele>632.8</ele><time>2026-04-25T10:43:09Z</time></trkpt><trkpt lat="46.27335119222983" lon="12.250574230478463"><ele>630.0</ele><time>2026-04-25T10:43:10Z</time></trkpt><trkpt lat="46.27335988672286" lon="12.250432829068902"><ele>625.0</ele><time>2026-04-25T10:43:11Z</time></trkpt><trkpt lat="46.27338302418302" lon="12.250304199859016"><ele>620.0</ele><time>2026-04-25T10:43:12Z</time></trkpt><trkpt lat="46.273431736071196" lon="12.2501964921907"><ele>615.0</ele><time>2026-04-25T10:43:13Z</time></trkpt><trkpt lat="46.27350119252386" lon="12.25010257633811"><ele>610.0</ele><time>2026-04-25T10:43:14Z</time></trkpt><trkpt lat="46.27359107847326" lon="12.25002223821758"><ele>605.0</ele><time>2026-04-25T10:43:15Z</time></trkpt><trkpt lat="46.27369222024991" lon="12.249948623339165"><ele>605.0</ele><time>2026-04-25T10:43:16Z</time></trkpt><trkpt lat="46.273795077931574" lon="12.249866766143695"><ele>605.0</ele><time>2026-04-25T10:43:17Z</time></trkpt><trkpt lat="46.273901730830666" lon="12.249791186669363"><ele>605.0</ele><time>2026-04-25T10:43:18Z</time></trkpt><trkpt lat="46.27400884902602" lon="12.249734762449224"><ele>605.0</ele><time>2026-04-25T10:43:19Z</time></trkpt><trkpt lat="46.274102427852846" lon="12.249660001042319"><ele>604.2</ele><time>2026-04-25T10:43:20Z</time></trkpt><trkpt lat="46.27417627167966" lon="12.249551372777189"><ele>603.4</ele><time>2026-04-25T10:43:21Z</time></trkpt><trkpt lat="46.27423304431866" lon="12.249416123287958"><ele>602.6</ele><time>2026-04-25T10:43:22Z</time></trkpt><trkpt lat="46.27430632165437" lon="12.249324073654426"><ele>601.8</ele><time>2026-04-25T10:43:23Z</time></trkpt><trkpt lat="46.27438746321917" lon="12.249294416305077"><ele>601.0</ele><time>2026-04-25T10:43:24Z</time></trkpt><trkpt lat="46.274471163635965" lon="12.249334423827031"><ele>601.0</ele><time>2026-04-25T10:43:25Z</time></trkpt><trkpt lat="46.27455630126216" lon="12.249408491739601"><ele>601.0</ele><time>2026-04-25T10:43:26Z</time></trkpt><trkpt lat="46.274665630217456" lon="12.24944628947366"><ele>601.0</ele><time>2026-04-25T10:43:27Z</time></trkpt><trkpt lat="46.27478946287631" lon="12.249443531457834"><ele>601.0</ele><time>2026-04-25T10:43:28Z</time></trkpt><trkpt lat="46.27492890444886" lon="12.249396193557624"><ele>603.75</ele><time>2026-04-25T10:43:29Z</time></trkpt><trkpt lat="46.27505250364965" lon="12.249367281141797"><ele>606.5</ele><time>2026-04-25T10:43:30Z</time></trkpt><trkpt lat="46.275174540432495" lon="12.249361948086456"><ele>609.25</ele><time>2026-04-25T10:43:31Z</time></trkpt><trkpt lat="46.275297251357074" lon="12.249377284210036"><ele>612.0</ele><time>2026-04-25T10:43:32Z</time></trkpt><trkpt lat="46.275417693195635" lon="12.249394447019169"><ele>612.0</ele><time>2026-04-25T10:43:33Z</time></trkpt><trkpt lat="46.27553663756692" lon="12.249390181659905"><ele>612.0</ele><time>2026-04-25T10:43:34Z</time></trkpt><trkpt lat="46.27565252434287" lon="12.249359640812623"><ele>612.0</ele><time>2026-04-25T10:43:35Z</time></trkpt><trkpt lat="46.27576881678081" lon="12.249315767516523"><ele>612.0</ele><time>2026-04-25T10:43:36Z</time></trkpt><trkpt lat="46.27588194952811" lon="12.249253176690972"><ele>616.5</ele><time>2026-04-25T10:43:37Z</time></trkpt><trkpt lat="46.275983273570695" lon="12.24915003438814"><ele>621.0</ele><time>2026-04-25T10:43:38Z</time></trkpt><trkpt lat="46.27607390199959" lon="12.249004862806423"><ele>625.5</ele><time>2026-04-25T10:43:39Z</time></trkpt><trkpt lat="46.27615456468272" lon="12.248847255786156"><ele>630.0</ele><time>2026-04-25T10:43:40Z</time></trkpt><trkpt lat="46.27625637666413" lon="12.248726165454986"><ele>621.6666666666666</ele><time>2026-04-25T10:43:41Z</time></trkpt><trkpt lat="46.27637625683996" lon="12.248622626155054"><ele>613.3333333333333</ele><time>2026-04-25T10:43:42Z</time></trkpt><trkpt lat="46.276519577705564" lon="12.248527826633588"><ele>605.0</ele><time>2026-04-25T10:43:43Z</time></trkpt><trkpt lat="46.2766694045467" lon="12.248441555410704"><ele>605.0</ele><time>2026-04-25T10:43:44Z</time></trkpt><trkpt lat="46.27681374441612" lon="12.248337292858695"><ele>605.0</ele><time>2026-04-25T10:43:45Z</time></trkpt><trkpt lat="46.27695055208056" lon="12.24819755596303"><ele>605.0</ele><time>2026-04-25T10:43:46Z</time></trkpt><trkpt lat="46.27710045872028" lon="12.248091798528554"><ele>599.0</ele><time>2026-04-25T10:43:47Z</time></trkpt><trkpt lat="46.27725368748232" lon="12.247997084691116"><ele>593.0</ele><time>2026-04-25T10:43:48Z</time></trkpt><trkpt lat="46.27739392638917" lon="12.247848503543828"><ele>587.0</ele><time>2026-04-25T10:43:49Z</time></trkpt><trkpt lat="46.27753116685634" lon="12.24764319659165"><ele>587.0</ele><time>2026-04-25T10:43:50Z</time></trkpt><trkpt lat="46.27766622882925" lon="12.247427361462629"><ele>587.0</ele><time>2026-04-25T10:43:51Z</time></trkpt><trkpt lat="46.27778552498964" lon="12.247233231186803"><ele>587.0</ele><time>2026-04-25T10:43:52Z</time></trkpt><trkpt lat="46.27789940809568" lon="12.247060533794393"><ele>584.0</ele><time>2026-04-25T10:43:53Z</time></trkpt><trkpt lat="46.27800311866385" lon="12.246895242414013"><ele>581.0</ele><time>2026-04-25T10:43:54Z</time></trkpt><trkpt lat="46.27809249414233" lon="12.24672521694675"><ele>578.0</ele><time>2026-04-25T10:43:55Z</time></trkpt><trkpt lat="46.27816814377329" lon="12.24656222554666"><ele>575.0</ele><time>2026-04-25T10:43:56Z</time></trkpt><trkpt lat="46.278237373637054" lon="12.24641015590116"><ele>575.0</ele><time>2026-04-25T10:43:57Z</time></trkpt><trkpt lat="46.27831093699286" lon="12.246281315262936"><ele>575.0</ele><time>2026-04-25T10:43:58Z</time></trkpt><trkpt lat="46.27840717434528" lon="12.24616420960052"><ele>575.0</ele><time>2026-04-25T10:43:59Z</time></trkpt><trkpt lat="46.27853716714781" lon="12.246057683650577"><ele>575.0</ele><time>2026-04-25T10:44:00Z</time></trkpt><trkpt lat="46.278668638015816" lon="12.245954625159023"><ele>575.0</ele><time>2026-04-25T10:44:01Z</time></trkpt><trkpt lat="46.278783661304004" lon="12.245848444596174"><ele>575.0</ele><time>2026-04-25T10:44:02Z</time></trkpt><trkpt lat="46.27889105718857" lon="12.245742986274436"><ele>575.0</ele><time>2026-04-25T10:44:03Z</time></trkpt><trkpt lat="46.27899215510744" lon="12.245623737497214"><ele>575.0</ele><time>2026-04-25T10:44:04Z</time></trkpt><trkpt lat="46.27909028597943" lon="12.245496478101703"><ele>577.25</ele><time>2026-04-25T10:44:05Z</time></trkpt><trkpt lat="46.279189312820726" lon="12.2453630781166"><ele>579.5</ele><time>2026-04-25T10:44:06Z</time></trkpt><trkpt lat="46.2792878886924" lon="12.245221598187905"><ele>581.75</ele><time>2026-04-25T10:44:07Z</time></trkpt><trkpt lat="46.279391827670054" lon="12.245076477263375"><ele>584.0</ele><time>2026-04-25T10:44:08Z</time></trkpt><trkpt lat="46.27949602699146" lon="12.244942175390985"><ele>584.0</ele><time>2026-04-25T10:44:09Z</time></trkpt><trkpt lat="46.279593080114545" lon="12.244832723588427"><ele>584.0</ele><time>2026-04-25T10:44:10Z</time></trkpt><trkpt lat="46.279703099499905" lon="12.244747965787877"><ele>584.0</ele><time>2026-04-25T10:44:11Z</time></trkpt><trkpt lat="46.2798419697182" lon="12.24468637267036"><ele>584.0</ele><time>2026-04-25T10:44:12Z</time></trkpt><trkpt lat="46.2800016550888" lon="12.244648247877793"><ele>579.0</ele><time>2026-04-25T10:44:13Z</time></trkpt><trkpt lat="46.28015137934178" lon="12.244592299136611"><ele>574.0</ele><time>2026-04-25T10:44:14Z</time></trkpt><trkpt lat="46.28030762107671" lon="12.244537846541903"><ele>569.0</ele><time>2026-04-25T10:44:15Z</time></trkpt><trkpt lat="46.28046081230412" lon="12.244507665541903"><ele>570.75</ele><time>2026-04-25T10:44:16Z</time></trkpt><trkpt lat="46.280606510891815" lon="12.244509319535322"><ele>572.5</ele><time>2026-04-25T10:44:17Z</time></trkpt><trkpt lat="46.280735730559286" lon="12.24453445177423"><ele>574.25</ele><time>2026-04-25T10:44:18Z</time></trkpt><trkpt lat="46.280864546687596" lon="12.244537216679449"><ele>576.0</ele><time>2026-04-25T10:44:19Z</time></trkpt><trkpt lat="46.280998285089396" lon="12.244475438975511"><ele>576.0</ele><time>2026-04-25T10:44:20Z</time></trkpt><trkpt lat="46.281125351698506" lon="12.244344526981644"><ele>576.0</ele><time>2026-04-25T10:44:21Z</time></trkpt><trkpt lat="46.28124418032406" lon="12.24415292855876"><ele>576.0</ele><time>2026-04-25T10:44:22Z</time></trkpt><trkpt lat="46.28136993784057" lon="12.243958631425766"><ele>577.0</ele><time>2026-04-25T10:44:23Z</time></trkpt><trkpt lat="46.28148936188101" lon="12.243804794080756"><ele>578.0</ele><time>2026-04-25T10:44:24Z</time></trkpt><trkpt lat="46.281605373371896" lon="12.243652253861246"><ele>579.0</ele><time>2026-04-25T10:44:25Z</time></trkpt><trkpt lat="46.28171751745823" lon="12.243506659715095"><ele>579.0</ele><time>2026-04-25T10:44:26Z</time></trkpt><trkpt lat="46.2818272940953" lon="12.243363459440948"><ele>579.0</ele><time>2026-04-25T10:44:27Z</time></trkpt><trkpt lat="46.28193675541132" lon="12.243219687439964"><ele>579.0</ele><time>2026-04-25T10:44:28Z</time></trkpt><trkpt lat="46.28204913537947" lon="12.24307188987113"><ele>579.0</ele><time>2026-04-25T10:44:29Z</time></trkpt><trkpt lat="46.28216331562329" lon="12.242927360138204"><ele>579.75</ele><time>2026-04-25T10:44:30Z</time></trkpt><trkpt lat="46.28227653667044" lon="12.242782442547268"><ele>580.5</ele><time>2026-04-25T10:44:31Z</time></trkpt><trkpt lat="46.282383009141256" lon="12.242635483781319"><ele>581.25</ele><time>2026-04-25T10:44:32Z</time></trkpt><trkpt lat="46.282486340132344" lon="12.242496791908973"><ele>582.0</ele><time>2026-04-25T10:44:33Z</time></trkpt><trkpt lat="46.28258786618722" lon="12.242368503776538"><ele>576.0</ele><time>2026-04-25T10:44:34Z</time></trkpt><trkpt lat="46.28269027456441" lon="12.24224399211977"><ele>570.0</ele><time>2026-04-25T10:44:35Z</time></trkpt><trkpt lat="46.28279647840244" lon="12.24212648951549"><ele>564.0</ele><time>2026-04-25T10:44:36Z</time></trkpt><trkpt lat="46.28291201871845" lon="12.242017294928637"><ele>558.0</ele><time>2026-04-25T10:44:37Z</time></trkpt><trkpt lat="46.28303708489608" lon="12.24191354506362"><ele>565.25</ele><time>2026-04-25T10:44:38Z</time></trkpt><trkpt lat="46.28315726059117" lon="12.241804470218694"><ele>572.5</ele><time>2026-04-25T10:44:39Z</time></trkpt><trkpt lat="46.28327619199168" lon="12.241691129087453"><ele>579.75</ele><time>2026-04-25T10:44:40Z</time></trkpt><trkpt lat="46.283394904888645" lon="12.241582388970006"><ele>587.0</ele><time>2026-04-25T10:44:41Z</time></trkpt><trkpt lat="46.28351902818141" lon="12.241479615269608"><ele>581.6666666666666</ele><time>2026-04-25T10:44:42Z</time></trkpt><trkpt lat="46.28364912729741" lon="12.241384721531304"><ele>576.3333333333334</ele><time>2026-04-25T10:44:43Z</time></trkpt><trkpt lat="46.28379065009858" lon="12.241311442422132"><ele>571.0</ele><time>2026-04-25T10:44:44Z</time></trkpt><trkpt lat="46.28394861261334" lon="12.24125188637884"><ele>571.0</ele><time>2026-04-25T10:44:45Z</time></trkpt><trkpt lat="46.28411039817273" lon="12.241187933812332"><ele>571.0</ele><time>2026-04-25T10:44:45.999Z</time></trkpt><trkpt lat="46.284266001230904" lon="12.241124508155583"><ele>571.0</ele><time>2026-04-25T10:44:46.999Z</time></trkpt><trkpt lat="46.28441748179771" lon="12.241060068488753"><ele>571.0</ele><time>2026-04-25T10:44:47.999Z</time></trkpt><trkpt lat="46.28456454246064" lon="12.240998009897073"><ele>571.0</ele><time>2026-04-25T10:44:48.999Z</time></trkpt><trkpt lat="46.284700011403004" lon="12.240944015972433"><ele>571.0</ele><time>2026-04-25T10:44:49.999Z</time></trkpt><trkpt lat="46.28483414676811" lon="12.2409040023643"><ele>571.0</ele><time>2026-04-25T10:44:50.999Z</time></trkpt><trkpt lat="46.28497565255764" lon="12.240886197878055"><ele>573.3333333333334</ele><time>2026-04-25T10:44:51.999Z</time></trkpt><trkpt lat="46.285126575729294" lon="12.240905740809932"><ele>575.6666666666666</ele><time>2026-04-25T10:44:52.999Z</time></trkpt><trkpt lat="46.28527920401484" lon="12.240955216212514"><ele>578.0</ele><time>2026-04-25T10:44:53.999Z</time></trkpt><trkpt lat="46.285423551127614" lon="12.240994528453124"><ele>578.0</ele><time>2026-04-25T10:44:54.999Z</time></trkpt><trkpt lat="46.285566260726625" lon="12.241017611459966"><ele>578.0</ele><time>2026-04-25T10:44:55.999Z</time></trkpt><trkpt lat="46.28571571192483" lon="12.24100878871922"><ele>578.0</ele><time>2026-04-25T10:44:56.999Z</time></trkpt><trkpt lat="46.285873071958406" lon="12.240972926778786"><ele>582.0</ele><time>2026-04-25T10:44:57.999Z</time></trkpt><trkpt lat="46.286032825899554" lon="12.240905494953912"><ele>586.0</ele><time>2026-04-25T10:44:58.999Z</time></trkpt><trkpt lat="46.28620039773324" lon="12.240851615448017"><ele>590.0</ele><time>2026-04-25T10:44:59.999Z</time></trkpt><trkpt lat="46.28636920319796" lon="12.240801121131513"><ele>587.0</ele><time>2026-04-25T10:45:00.999Z</time></trkpt><trkpt lat="46.286542815903886" lon="12.240746210382364"><ele>584.0</ele><time>2026-04-25T10:45:01.999Z</time></trkpt><trkpt lat="46.286711002382624" lon="12.240681982386477"><ele>581.0</ele><time>2026-04-25T10:45:02.999Z</time></trkpt><trkpt lat="46.286875211449846" lon="12.240615685177175"><ele>581.0</ele><time>2026-04-25T10:45:03.999Z</time></trkpt><trkpt lat="46.28703395857769" lon="12.240558332453034"><ele>581.0</ele><time>2026-04-25T10:45:05Z</time></trkpt><trkpt lat="46.2871879006493" lon="12.24050178642609"><ele>581.0</ele><time>2026-04-25T10:45:06Z</time></trkpt><trkpt lat="46.287336306147715" lon="12.24044415186087"><ele>582.75</ele><time>2026-04-25T10:45:07Z</time></trkpt><trkpt lat="46.28747589530281" lon="12.240389118334816"><ele>584.5</ele><time>2026-04-25T10:45:08Z</time></trkpt><trkpt lat="46.28761354499957" lon="12.240335952887627"><ele>586.25</ele><time>2026-04-25T10:45:09Z</time></trkpt><trkpt lat="46.287748151354215" lon="12.240287153641852"><ele>588.0</ele><time>2026-04-25T10:45:10Z</time></trkpt><trkpt lat="46.28787774850385" lon="12.240245483116961"><ele>588.0</ele><time>2026-04-25T10:45:11Z</time></trkpt><trkpt lat="46.28801900090182" lon="12.2402393565597"><ele>588.0</ele><time>2026-04-25T10:45:12Z</time></trkpt><trkpt lat="46.28816964382766" lon="12.240265570874795"><ele>588.0</ele><time>2026-04-25T10:45:13Z</time></trkpt><trkpt lat="46.28832721229731" lon="12.24029554027661"><ele>588.6666666666666</ele><time>2026-04-25T10:45:14Z</time></trkpt><trkpt lat="46.28847604314813" lon="12.240315477799182"><ele>589.3333333333333</ele><time>2026-04-25T10:45:15Z</time></trkpt><trkpt lat="46.28862564860119" lon="12.240329119855632"><ele>590.0</ele><time>2026-04-25T10:45:16Z</time></trkpt><trkpt lat="46.28878718800294" lon="12.240329541689023"><ele>591.0</ele><time>2026-04-25T10:45:17Z</time></trkpt><trkpt lat="46.28896315508025" lon="12.24030728818572"><ele>592.0</ele><time>2026-04-25T10:45:18Z</time></trkpt><trkpt lat="46.289151984791815" lon="12.240279100556682"><ele>593.0</ele><time>2026-04-25T10:45:19Z</time></trkpt><trkpt lat="46.289325579882025" lon="12.240245331299189"><ele>593.0</ele><time>2026-04-25T10:45:20Z</time></trkpt><trkpt lat="46.28952241349746" lon="12.240191963437004"><ele>593.0</ele><time>2026-04-25T10:45:21Z</time></trkpt><trkpt lat="46.2897057875286" lon="12.240162828457416"><ele>593.0</ele><time>2026-04-25T10:45:22Z</time></trkpt><trkpt lat="46.28988436411916" lon="12.2401202411721"><ele>591.6666666666666</ele><time>2026-04-25T10:45:23Z</time></trkpt><trkpt lat="46.29005808127046" lon="12.24008742785564"><ele>590.3333333333334</ele><time>2026-04-25T10:45:24Z</time></trkpt><trkpt lat="46.29022345691824" lon="12.240056367959115"><ele>589.0</ele><time>2026-04-25T10:45:25Z</time></trkpt><trkpt lat="46.29038436055453" lon="12.240038672298855"><ele>589.0</ele><time>2026-04-25T10:45:26Z</time></trkpt><trkpt lat="46.290558424250754" lon="12.24004302650641"><ele>589.0</ele><time>2026-04-25T10:45:27Z</time></trkpt><trkpt lat="46.290746611178015" lon="12.240093357581806"><ele>589.0</ele><time>2026-04-25T10:45:28Z</time></trkpt><trkpt lat="46.290979872652436" lon="12.240136852718953"><ele>590.5</ele><time>2026-04-25T10:45:29Z</time></trkpt><trkpt lat="46.291254027513475" lon="12.240150577019653"><ele>592.0</ele><time>2026-04-25T10:45:30Z</time></trkpt><trkpt lat="46.29153156837761" lon="12.240151747294204"><ele>592.0</ele><time>2026-04-25T10:45:31Z</time></trkpt><trkpt lat="46.29178631621988" lon="12.240132762226315"><ele>592.0</ele><time>2026-04-25T10:45:32Z</time></trkpt><trkpt lat="46.29201063343778" lon="12.240137230687258"><ele>592.0</ele><time>2026-04-25T10:45:33Z</time></trkpt><trkpt lat="46.292216365033156" lon="12.240139561826057"><ele>592.0</ele><time>2026-04-25T10:45:34Z</time></trkpt><trkpt lat="46.292409775725126" lon="12.240146030178847"><ele>592.0</ele><time>2026-04-25T10:45:35Z</time></trkpt><trkpt lat="46.29258774717115" lon="12.240149979788885"><ele>593.0</ele><time>2026-04-25T10:45:36Z</time></trkpt><trkpt lat="46.29275954497737" lon="12.240155417056938"><ele>594.0</ele><time>2026-04-25T10:45:37Z</time></trkpt><trkpt lat="46.29292981161271" lon="12.240161530676927"><ele>595.0</ele><time>2026-04-25T10:45:38Z</time></trkpt><trkpt lat="46.293101335523204" lon="12.240169070133753"><ele>597.6666666666667</ele><time>2026-04-25T10:45:39Z</time></trkpt><trkpt lat="46.29327168036327" lon="12.240175026412887"><ele>600.3333333333334</ele><time>2026-04-25T10:45:40Z</time></trkpt><trkpt lat="46.29343404862939" lon="12.240180696478003"><ele>603.0</ele><time>2026-04-25T10:45:41Z</time></trkpt><trkpt lat="46.29359913911354" lon="12.240188652752169"><ele>603.0</ele><time>2026-04-25T10:45:42Z</time></trkpt><trkpt lat="46.2937578631149" lon="12.24018808011566"><ele>603.0</ele><time>2026-04-25T10:45:43Z</time></trkpt><trkpt lat="46.29391824858802" lon="12.240155627796156"><ele>603.0</ele><time>2026-04-25T10:45:44Z</time></trkpt><trkpt lat="46.29406910424796" lon="12.240059885260992"><ele>601.3333333333334</ele><time>2026-04-25T10:45:45Z</time></trkpt><trkpt lat="46.29422129662111" lon="12.2399023740914"><ele>599.6666666666667</ele><time>2026-04-25T10:45:46Z</time></trkpt><trkpt lat="46.29439085880081" lon="12.23973198765304"><ele>598.0</ele><time>2026-04-25T10:45:47Z</time></trkpt><trkpt lat="46.294560167302116" lon="12.239606305027268"><ele>598.0</ele><time>2026-04-25T10:45:48Z</time></trkpt><trkpt lat="46.294720526781944" lon="12.239510251924548"><ele>598.0</ele><time>2026-04-25T10:45:49Z</time></trkpt><trkpt lat="46.29486627323919" lon="12.23939839381822"><ele>598.0</ele><time>2026-04-25T10:45:50Z</time></trkpt><trkpt lat="46.29500159638135" lon="12.239241306005288"><ele>599.0</ele><time>2026-04-25T10:45:51Z</time></trkpt><trkpt lat="46.295108077231504" lon="12.239045884671581"><ele>600.0</ele><time>2026-04-25T10:45:52Z</time></trkpt><trkpt lat="46.29519698968449" lon="12.23886674702886"><ele>601.0</ele><time>2026-04-25T10:45:53Z</time></trkpt><trkpt lat="46.29529786154146" lon="12.23873157421837"><ele>601.0</ele><time>2026-04-25T10:45:54Z</time></trkpt><trkpt lat="46.29539827694837" lon="12.238630290066599"><ele>601.0</ele><time>2026-04-25T10:45:55Z</time></trkpt><trkpt lat="46.29550406873617" lon="12.238552076541243"><ele>601.0</ele><time>2026-04-25T10:45:56Z</time></trkpt><trkpt lat="46.295606248002485" lon="12.23847806102203"><ele>601.0</ele><time>2026-04-25T10:45:57Z</time></trkpt><trkpt lat="46.29567765913563" lon="12.238356681652256"><ele>603.75</ele><time>2026-04-25T10:45:58Z</time></trkpt><trkpt lat="46.29570130666047" lon="12.238204262358577"><ele>606.5</ele><time>2026-04-25T10:45:59Z</time></trkpt><trkpt lat="46.29567609750771" lon="12.238041838328483"><ele>609.25</ele><time>2026-04-25T10:46:00Z</time></trkpt><trkpt lat="46.29559461510086" lon="12.237887411342436"><ele>612.0</ele><time>2026-04-25T10:46:01Z</time></trkpt><trkpt lat="46.29548205736403" lon="12.237748462435015"><ele>612.0</ele><time>2026-04-25T10:46:02Z</time></trkpt><trkpt lat="46.29537372215419" lon="12.237589919304309"><ele>612.0</ele><time>2026-04-25T10:46:03Z</time></trkpt><trkpt lat="46.29530228469275" lon="12.237387747574436"><ele>612.0</ele><time>2026-04-25T10:46:04Z</time></trkpt><trkpt lat="46.29525339825263" lon="12.23718942574469"><ele>615.25</ele><time>2026-04-25T10:46:05Z</time></trkpt><trkpt lat="46.29521782361224" lon="12.237021914308345"><ele>618.5</ele><time>2026-04-25T10:46:06Z</time></trkpt><trkpt lat="46.29517255968545" lon="12.236863131402055"><ele>621.75</ele><time>2026-04-25T10:46:07Z</time></trkpt><trkpt lat="46.295148408132796" lon="12.236706210215202"><ele>625.0</ele><time>2026-04-25T10:46:08Z</time></trkpt><trkpt lat="46.29515317289364" lon="12.236551563590387"><ele>624.75</ele><time>2026-04-25T10:46:09Z</time></trkpt><trkpt lat="46.29518800321285" lon="12.236403673607981"><ele>624.5</ele><time>2026-04-25T10:46:10Z</time></trkpt><trkpt lat="46.29526354987943" lon="12.236273760053475"><ele>624.25</ele><time>2026-04-25T10:46:11Z</time></trkpt><trkpt lat="46.295381262349665" lon="12.236164142732445"><ele>624.0</ele><time>2026-04-25T10:46:12Z</time></trkpt><trkpt lat="46.29549878293346" lon="12.236031093695"><ele>626.3333333333334</ele><time>2026-04-25T10:46:13Z</time></trkpt><trkpt lat="46.29562744916351" lon="12.235891320920215"><ele>628.6666666666667</ele><time>2026-04-25T10:46:14Z</time></trkpt><trkpt lat="46.29576072921538" lon="12.235762118491575"><ele>631.0</ele><time>2026-04-25T10:46:15Z</time></trkpt><trkpt lat="46.295895237599495" lon="12.235630063136105"><ele>625.0</ele><time>2026-04-25T10:46:16Z</time></trkpt><trkpt lat="46.296022399327455" lon="12.235487731448854"><ele>619.0</ele><time>2026-04-25T10:46:17Z</time></trkpt><trkpt lat="46.29613297789755" lon="12.235327736777922"><ele>613.0</ele><time>2026-04-25T10:46:18Z</time></trkpt><trkpt lat="46.29622918127821" lon="12.235138491413661"><ele>613.0</ele><time>2026-04-25T10:46:19Z</time></trkpt><trkpt lat="46.29631898577586" lon="12.234922804879448"><ele>613.0</ele><time>2026-04-25T10:46:20Z</time></trkpt><trkpt lat="46.29640904360673" lon="12.234695206388862"><ele>613.0</ele><time>2026-04-25T10:46:21Z</time></trkpt><trkpt lat="46.296504142026656" lon="12.234469940462596"><ele>615.6666666666667</ele><time>2026-04-25T10:46:22Z</time></trkpt><trkpt lat="46.29659780438869" lon="12.234231636794384"><ele>618.3333333333334</ele><time>2026-04-25T10:46:23Z</time></trkpt><trkpt lat="46.296689095598985" lon="12.233983248336134"><ele>621.0</ele><time>2026-04-25T10:46:24Z</time></trkpt><trkpt lat="46.29677134616812" lon="12.23374314611972"><ele>621.0</ele><time>2026-04-25T10:46:25Z</time></trkpt><trkpt lat="46.29684472453091" lon="12.233508265117536"><ele>621.0</ele><time>2026-04-25T10:46:26Z</time></trkpt><trkpt lat="46.29690928825893" lon="12.233292436437242"><ele>621.0</ele><time>2026-04-25T10:46:27Z</time></trkpt><trkpt lat="46.29696876646352" lon="12.233096853907464"><ele>618.5</ele><time>2026-04-25T10:46:28Z</time></trkpt><trkpt lat="46.29702587346578" lon="12.23291039159464"><ele>616.0</ele><time>2026-04-25T10:46:29Z</time></trkpt><trkpt lat="46.297090027353086" lon="12.232736580732515"><ele>613.5</ele><time>2026-04-25T10:46:30Z</time></trkpt><trkpt lat="46.29717362615591" lon="12.232589614298258"><ele>611.0</ele><time>2026-04-25T10:46:31Z</time></trkpt><trkpt lat="46.297294800221984" lon="12.232483920361295"><ele>618.6666666666666</ele><time>2026-04-25T10:46:32Z</time></trkpt><trkpt lat="46.2974379142002" lon="12.232422933108854"><ele>626.3333333333334</ele><time>2026-04-25T10:46:33Z</time></trkpt><trkpt lat="46.29760135352584" lon="12.23241558401462"><ele>634.0</ele><time>2026-04-25T10:46:34Z</time></trkpt><trkpt lat="46.29778898644387" lon="12.232394737289614"><ele>634.0</ele><time>2026-04-25T10:46:35Z</time></trkpt><trkpt lat="46.297990758233404" lon="12.23233675560413"><ele>634.0</ele><time>2026-04-25T10:46:36Z</time></trkpt><trkpt lat="46.29819432977419" lon="12.232266622063884"><ele>634.0</ele><time>2026-04-25T10:46:37Z</time></trkpt><trkpt lat="46.29838385792433" lon="12.2321912300817"><ele>628.3333333333334</ele><time>2026-04-25T10:46:38Z</time></trkpt><trkpt lat="46.29856464107306" lon="12.232126973307821"><ele>622.6666666666666</ele><time>2026-04-25T10:46:39Z</time></trkpt><trkpt lat="46.29874432471006" lon="12.232076566957813"><ele>617.0</ele><time>2026-04-25T10:46:40Z</time></trkpt><trkpt lat="46.29891664303645" lon="12.232043587820218"><ele>615.3333333333333</ele><time>2026-04-25T10:46:41Z</time></trkpt><trkpt lat="46.2990819782752" lon="12.232042614576264"><ele>613.6666666666666</ele><time>2026-04-25T10:46:42Z</time></trkpt><trkpt lat="46.299233543277296" lon="12.23203695372587"><ele>612.0</ele><time>2026-04-25T10:46:43Z</time></trkpt><trkpt lat="46.29937844680268" lon="12.232005973315669"><ele>612.0</ele><time>2026-04-25T10:46:44Z</time></trkpt><trkpt lat="46.29951565594337" lon="12.231920177326975"><ele>612.0</ele><time>2026-04-25T10:46:45Z</time></trkpt><trkpt lat="46.29963738832721" lon="12.231769390000705"><ele>612.0</ele><time>2026-04-25T10:46:46Z</time></trkpt><trkpt lat="46.299726451716715" lon="12.23161569546501"><ele>612.0</ele><time>2026-04-25T10:46:47Z</time></trkpt><trkpt lat="46.29981553402191" lon="12.2314931137583"><ele>612.5</ele><time>2026-04-25T10:46:48Z</time></trkpt><trkpt lat="46.299926868458094" lon="12.23141742675866"><ele>613.0</ele><time>2026-04-25T10:46:49Z</time></trkpt><trkpt lat="46.30005560938558" lon="12.231412942857293"><ele>613.5</ele><time>2026-04-25T10:46:50Z</time></trkpt><trkpt lat="46.30020186381" lon="12.23139898150673"><ele>614.0</ele><time>2026-04-25T10:46:51Z</time></trkpt><trkpt lat="46.30035326242423" lon="12.231430127349059"><ele>614.0</ele><time>2026-04-25T10:46:51.999Z</time></trkpt><trkpt lat="46.30047518261587" lon="12.231440347856259"><ele>614.0</ele><time>2026-04-25T10:46:52.999Z</time></trkpt><trkpt lat="46.300590130394724" lon="12.231455732605891"><ele>614.0</ele><time>2026-04-25T10:46:53.999Z</time></trkpt><trkpt lat="46.3006988719831" lon="12.231463164402289"><ele>614.0</ele><time>2026-04-25T10:46:54.999Z</time></trkpt><trkpt lat="46.30081668114555" lon="12.231426001135446"><ele>616.6666666666666</ele><time>2026-04-25T10:46:55.999Z</time></trkpt><trkpt lat="46.30093896650779" lon="12.231331810363473"><ele>619.3333333333334</ele><time>2026-04-25T10:46:56.999Z</time></trkpt><trkpt lat="46.30105792695163" lon="12.231171313340056"><ele>622.0</ele><time>2026-04-25T10:46:57.999Z</time></trkpt><trkpt lat="46.30118375578157" lon="12.231022408177232"><ele>622.0</ele><time>2026-04-25T10:46:58.999Z</time></trkpt><trkpt lat="46.30129873919819" lon="12.23088260004256"><ele>622.0</ele><time>2026-04-25T10:46:59.999Z</time></trkpt><trkpt lat="46.30140692964978" lon="12.230734073386675"><ele>622.0</ele><time>2026-04-25T10:47:00.999Z</time></trkpt><trkpt lat="46.30149496203761" lon="12.230531685388202"><ele>626.0</ele><time>2026-04-25T10:47:01.999Z</time></trkpt><trkpt lat="46.30156877915108" lon="12.230276342421687"><ele>630.0</ele><time>2026-04-25T10:47:02.999Z</time></trkpt><trkpt lat="46.301648882153245" lon="12.230054653681979"><ele>634.0</ele><time>2026-04-25T10:47:03.999Z</time></trkpt><trkpt lat="46.30171727523388" lon="12.229833116672166"><ele>630.75</ele><time>2026-04-25T10:47:04.999Z</time></trkpt><trkpt lat="46.301772760188555" lon="12.229622599729412"><ele>627.5</ele><time>2026-04-25T10:47:05.999Z</time></trkpt><trkpt lat="46.30182145725717" lon="12.229429289817054"><ele>624.25</ele><time>2026-04-25T10:47:06.999Z</time></trkpt><trkpt lat="46.30185866303963" lon="12.229254272853652"><ele>621.0</ele><time>2026-04-25T10:47:07.999Z</time></trkpt><trkpt lat="46.301892380757394" lon="12.229093176167387"><ele>622.5</ele><time>2026-04-25T10:47:08.999Z</time></trkpt><trkpt lat="46.301929717016506" lon="12.228932772763464"><ele>624.0</ele><time>2026-04-25T10:47:09.999Z</time></trkpt><trkpt lat="46.301967253422525" lon="12.228767002747283"><ele>625.5</ele><time>2026-04-25T10:47:11Z</time></trkpt><trkpt lat="46.302015515663236" lon="12.228606687834718"><ele>627.0</ele><time>2026-04-25T10:47:12Z</time></trkpt><trkpt lat="46.30208375766376" lon="12.22846112112329"><ele>627.0</ele><time>2026-04-25T10:47:13Z</time></trkpt><trkpt lat="46.30217043075548" lon="12.228329840311751"><ele>627.0</ele><time>2026-04-25T10:47:14Z</time></trkpt><trkpt lat="46.30229831531167" lon="12.228227616568535"><ele>627.0</ele><time>2026-04-25T10:47:15Z</time></trkpt><trkpt lat="46.302451503534655" lon="12.228145101505536"><ele>627.0</ele><time>2026-04-25T10:47:16Z</time></trkpt><trkpt lat="46.30261801242225" lon="12.228058605355093"><ele>627.6666666666666</ele><time>2026-04-25T10:47:17Z</time></trkpt><trkpt lat="46.30278297837867" lon="12.227957177358594"><ele>628.3333333333333</ele><time>2026-04-25T10:47:18Z</time></trkpt><trkpt lat="46.302936432284675" lon="12.227842692705746"><ele>629.0</ele><time>2026-04-25T10:47:19Z</time></trkpt><trkpt lat="46.30307717224698" lon="12.227714369776114"><ele>633.0</ele><time>2026-04-25T10:47:20Z</time></trkpt><trkpt lat="46.303206388014495" lon="12.227563853831658"><ele>637.0</ele><time>2026-04-25T10:47:21Z</time></trkpt><trkpt lat="46.30332382846259" lon="12.22739023867542"><ele>641.0</ele><time>2026-04-25T10:47:22Z</time></trkpt><trkpt lat="46.303429702539596" lon="12.227190483790341"><ele>641.0</ele><time>2026-04-25T10:47:23Z</time></trkpt><trkpt lat="46.30351843498956" lon="12.226967255561462"><ele>641.0</ele><time>2026-04-25T10:47:24Z</time></trkpt><trkpt lat="46.30359430068248" lon="12.226720754041128"><ele>641.0</ele><time>2026-04-25T10:47:25Z</time></trkpt><trkpt lat="46.30365327597382" lon="12.226446664295437"><ele>641.6666666666666</ele><time>2026-04-25T10:47:26Z</time></trkpt><trkpt lat="46.30370955015051" lon="12.226170245707895"><ele>642.3333333333334</ele><time>2026-04-25T10:47:27Z</time></trkpt><trkpt lat="46.303768049626036" lon="12.225897151775204"><ele>643.0</ele><time>2026-04-25T10:47:28Z</time></trkpt><trkpt lat="46.30382481673316" lon="12.225638365594484"><ele>643.0</ele><time>2026-04-25T10:47:29Z</time></trkpt><trkpt lat="46.303874488073276" lon="12.225388205902425"><ele>643.0</ele><time>2026-04-25T10:47:30Z</time></trkpt><trkpt lat="46.303920224768056" lon="12.225154269326525"><ele>643.0</ele><time>2026-04-25T10:47:31Z</time></trkpt><trkpt lat="46.30396476008357" lon="12.224932088820582"><ele>643.75</ele><time>2026-04-25T10:47:32Z</time></trkpt><trkpt lat="46.304010631493114" lon="12.224721601367529"><ele>644.5</ele><time>2026-04-25T10:47:33Z</time></trkpt><trkpt lat="46.30406867083169" lon="12.22452718815508"><ele>645.25</ele><time>2026-04-25T10:47:34Z</time></trkpt><trkpt lat="46.30414186577453" lon="12.224367511746422"><ele>646.0</ele><time>2026-04-25T10:47:35Z</time></trkpt><trkpt lat="46.30423417946799" lon="12.22423243690218"><ele>646.0</ele><time>2026-04-25T10:47:36Z</time></trkpt><trkpt lat="46.304373904917824" lon="12.224129996392275"><ele>646.0</ele><time>2026-04-25T10:47:37Z</time></trkpt><trkpt lat="46.30454173062373" lon="12.22405290832091"><ele>646.0</ele><time>2026-04-25T10:47:38Z</time></trkpt><trkpt lat="46.30470740805569" lon="12.223983994906426"><ele>643.6666666666667</ele><time>2026-04-25T10:47:39Z</time></trkpt><trkpt lat="46.3048684835629" lon="12.223942243556971"><ele>641.3333333333334</ele><time>2026-04-25T10:47:40Z</time></trkpt><trkpt lat="46.30504646805639" lon="12.223956932304885"><ele>639.0</ele><time>2026-04-25T10:47:41Z</time></trkpt><trkpt lat="46.30523832182263" lon="12.223985738943723"><ele>637.3333333333334</ele><time>2026-04-25T10:47:42Z</time></trkpt><trkpt lat="46.30544341674888" lon="12.223994747316244"><ele>635.6666666666667</ele><time>2026-04-25T10:47:43Z</time></trkpt><trkpt lat="46.3056315963034" lon="12.2239350302348"><ele>634.0</ele><time>2026-04-25T10:47:44Z</time></trkpt><trkpt lat="46.30581741668173" lon="12.223927120378208"><ele>634.0</ele><time>2026-04-25T10:47:45Z</time></trkpt><trkpt lat="46.30598722314262" lon="12.223946286386006"><ele>634.0</ele><time>2026-04-25T10:47:46Z</time></trkpt><trkpt lat="46.30615911634334" lon="12.223972011465474"><ele>634.0</ele><time>2026-04-25T10:47:47Z</time></trkpt><trkpt lat="46.3063203896637" lon="12.224002842157788"><ele>636.75</ele><time>2026-04-25T10:47:48Z</time></trkpt><trkpt lat="46.30646611960799" lon="12.224035175492954"><ele>639.5</ele><time>2026-04-25T10:47:49Z</time></trkpt><trkpt lat="46.306609859551344" lon="12.22408491229017"><ele>642.25</ele><time>2026-04-25T10:47:50Z</time></trkpt><trkpt lat="46.306749432326306" lon="12.224140816494646"><ele>645.0</ele><time>2026-04-25T10:47:51Z</time></trkpt><trkpt lat="46.30689191976824" lon="12.224186179241636"><ele>645.0</ele><time>2026-04-25T10:47:52Z</time></trkpt><trkpt lat="46.307039509976015" lon="12.224223636640637"><ele>645.0</ele><time>2026-04-25T10:47:53Z</time></trkpt><trkpt lat="46.307192370940506" lon="12.224248318734237"><ele>645.0</ele><time>2026-04-25T10:47:54Z</time></trkpt><trkpt lat="46.30735267183381" lon="12.224263962725095"><ele>643.3333333333334</ele><time>2026-04-25T10:47:55Z</time></trkpt><trkpt lat="46.307514184820235" lon="12.224275449951254"><ele>641.6666666666667</ele><time>2026-04-25T10:47:56Z</time></trkpt><trkpt lat="46.30767033730863" lon="12.22429005227695"><ele>640.0</ele><time>2026-04-25T10:47:57Z</time></trkpt><trkpt lat="46.30782120757966" lon="12.224305642363428"><ele>640.0</ele><time>2026-04-25T10:47:58Z</time></trkpt><trkpt lat="46.30796912259574" lon="12.22432995584768"><ele>640.0</ele><time>2026-04-25T10:47:59Z</time></trkpt><trkpt lat="46.308116231690924" lon="12.224372876509369"><ele>640.0</ele><time>2026-04-25T10:48:00Z</time></trkpt><trkpt lat="46.308259680822786" lon="12.224438308034888"><ele>640.0</ele><time>2026-04-25T10:48:01Z</time></trkpt><trkpt lat="46.308402678297035" lon="12.224522818341981"><ele>636.3333333333334</ele><time>2026-04-25T10:48:02Z</time></trkpt><trkpt lat="46.30855144513447" lon="12.224605270191164"><ele>632.6666666666666</ele><time>2026-04-25T10:48:03Z</time></trkpt><trkpt lat="46.30871018605606" lon="12.224667614054319"><ele>629.0</ele><time>2026-04-25T10:48:04Z</time></trkpt><trkpt lat="46.30887455417551" lon="12.22470296869301"><ele>628.0</ele><time>2026-04-25T10:48:05Z</time></trkpt><trkpt lat="46.309040831222" lon="12.224720541603377"><ele>627.0</ele><time>2026-04-25T10:48:06Z</time></trkpt><trkpt lat="46.30919815781397" lon="12.224730704774558"><ele>626.0</ele><time>2026-04-25T10:48:07Z</time></trkpt><trkpt lat="46.30935258947138" lon="12.224785863215503"><ele>628.3333333333333</ele><time>2026-04-25T10:48:08Z</time></trkpt><trkpt lat="46.30950443828741" lon="12.22487565460889"><ele>630.6666666666666</ele><time>2026-04-25T10:48:09Z</time></trkpt><trkpt lat="46.3096459098004" lon="12.224992729073449"><ele>633.0</ele><time>2026-04-25T10:48:10Z</time></trkpt><trkpt lat="46.30977710669828" lon="12.225147226613933"><ele>633.0</ele><time>2026-04-25T10:48:11Z</time></trkpt><trkpt lat="46.309891889068915" lon="12.225317568768356"><ele>633.0</ele><time>2026-04-25T10:48:12Z</time></trkpt><trkpt lat="46.30999895328386" lon="12.225498185728584"><ele>633.0</ele><time>2026-04-25T10:48:13Z</time></trkpt><trkpt lat="46.3100983613117" lon="12.225686423784172"><ele>641.6666666666666</ele><time>2026-04-25T10:48:14Z</time></trkpt><trkpt lat="46.310191800999156" lon="12.225886437937314"><ele>650.3333333333333</ele><time>2026-04-25T10:48:15Z</time></trkpt><trkpt lat="46.310294820145884" lon="12.226076195148515"><ele>659.0</ele><time>2026-04-25T10:48:16Z</time></trkpt><trkpt lat="46.31040612493552" lon="12.226261495886515"><ele>659.0</ele><time>2026-04-25T10:48:17Z</time></trkpt><trkpt lat="46.31053027406651" lon="12.226431603437664"><ele>659.0</ele><time>2026-04-25T10:48:18Z</time></trkpt><trkpt lat="46.3106712011763" lon="12.226575686874902"><ele>659.0</ele><time>2026-04-25T10:48:19Z</time></trkpt><trkpt lat="46.31082213848419" lon="12.226698503777726"><ele>655.3333333333333</ele><time>2026-04-25T10:48:20Z</time></trkpt><trkpt lat="46.31097832792972" lon="12.22680435006184"><ele>651.6666666666666</ele><time>2026-04-25T10:48:21Z</time></trkpt><trkpt lat="46.31112977542125" lon="12.226889501663571"><ele>648.0</ele><time>2026-04-25T10:48:22Z</time></trkpt><trkpt lat="46.31128314683889" lon="12.226950535597796"><ele>644.6666666666666</ele><time>2026-04-25T10:48:23Z</time></trkpt><trkpt lat="46.31144277411809" lon="12.226976259105198"><ele>641.3333333333333</ele><time>2026-04-25T10:48:24Z</time></trkpt><trkpt lat="46.31160680237992" lon="12.226955932016187"><ele>638.0</ele><time>2026-04-25T10:48:25Z</time></trkpt><trkpt lat="46.31177324572172" lon="12.226897121440748"><ele>638.0</ele><time>2026-04-25T10:48:26Z</time></trkpt><trkpt lat="46.31193885271075" lon="12.226831991879477"><ele>638.0</ele><time>2026-04-25T10:48:27Z</time></trkpt><trkpt lat="46.31209914506238" lon="12.226806164008853"><ele>638.0</ele><time>2026-04-25T10:48:28Z</time></trkpt><trkpt lat="46.312252063247755" lon="12.22681412287977"><ele>639.0</ele><time>2026-04-25T10:48:29Z</time></trkpt><trkpt lat="46.312404295835364" lon="12.226876994045679"><ele>640.0</ele><time>2026-04-25T10:48:30Z</time></trkpt><trkpt lat="46.312561183225135" lon="12.226983328701913"><ele>641.0</ele><time>2026-04-25T10:48:31Z</time></trkpt><trkpt lat="46.31273269184088" lon="12.227096807373215"><ele>641.0</ele><time>2026-04-25T10:48:32Z</time></trkpt><trkpt lat="46.31290350162681" lon="12.22721386556303"><ele>641.0</ele><time>2026-04-25T10:48:33Z</time></trkpt><trkpt lat="46.31307916277688" lon="12.22733013998248"><ele>641.0</ele><time>2026-04-25T10:48:34Z</time></trkpt><trkpt lat="46.31325634799359" lon="12.227436233070932"><ele>644.3333333333333</ele><time>2026-04-25T10:48:35Z</time></trkpt><trkpt lat="46.31343399341468" lon="12.227532853517928"><ele>647.6666666666666</ele><time>2026-04-25T10:48:36Z</time></trkpt><trkpt lat="46.31362006992906" lon="12.227607247929097"><ele>651.0</ele><time>2026-04-25T10:48:37Z</time></trkpt><trkpt lat="46.31381047857466" lon="12.2276642606596"><ele>648.6666666666666</ele><time>2026-04-25T10:48:38Z</time></trkpt><trkpt lat="46.31400039895382" lon="12.227712289838943"><ele>646.3333333333333</ele><time>2026-04-25T10:48:39Z</time></trkpt><trkpt lat="46.31418252895383" lon="12.2277590270935"><ele>644.0</ele><time>2026-04-25T10:48:40Z</time></trkpt><trkpt lat="46.3143589084831" lon="12.227808946301982"><ele>644.0</ele><time>2026-04-25T10:48:41Z</time></trkpt><trkpt lat="46.31453099914577" lon="12.227864676631974"><ele>644.0</ele><time>2026-04-25T10:48:42Z</time></trkpt><trkpt lat="46.31470427786535" lon="12.227943897493704"><ele>644.0</ele><time>2026-04-25T10:48:43Z</time></trkpt><trkpt lat="46.31487665589121" lon="12.228040863189868"><ele>648.3333333333333</ele><time>2026-04-25T10:48:44Z</time></trkpt><trkpt lat="46.31503972271509" lon="12.228162307846798"><ele>652.6666666666666</ele><time>2026-04-25T10:48:45Z</time></trkpt><trkpt lat="46.31518889369403" lon="12.228306402695189"><ele>657.0</ele><time>2026-04-25T10:48:46Z</time></trkpt><trkpt lat="46.31532170019325" lon="12.228476076337452"><ele>657.0</ele><time>2026-04-25T10:48:47Z</time></trkpt><trkpt lat="46.31545559886056" lon="12.228660811652983"><ele>657.0</ele><time>2026-04-25T10:48:48Z</time></trkpt><trkpt lat="46.31559718954175" lon="12.22884163430801"><ele>657.0</ele><time>2026-04-25T10:48:49Z</time></trkpt><trkpt lat="46.31574838548331" lon="12.229028761559078"><ele>659.6666666666666</ele><time>2026-04-25T10:48:49.999Z</time></trkpt><trkpt lat="46.315902886392685" lon="12.229212055846123"><ele>662.3333333333333</ele><time>2026-04-25T10:48:50.999Z</time></trkpt><trkpt lat="46.31605293057012" lon="12.229384407350286"><ele>665.0</ele><time>2026-04-25T10:48:51.999Z</time></trkpt><trkpt lat="46.31620480330935" lon="12.229543757805393"><ele>665.0</ele><time>2026-04-25T10:48:52.999Z</time></trkpt><trkpt lat="46.31636137638966" lon="12.229682946642415"><ele>665.0</ele><time>2026-04-25T10:48:53.999Z</time></trkpt><trkpt lat="46.3165365600839" lon="12.229802860951184"><ele>665.0</ele><time>2026-04-25T10:48:54.999Z</time></trkpt><trkpt lat="46.316718489980595" lon="12.229923651501805"><ele>666.6666666666666</ele><time>2026-04-25T10:48:55.999Z</time></trkpt><trkpt lat="46.31689940123576" lon="12.230045574421368"><ele>668.3333333333334</ele><time>2026-04-25T10:48:56.999Z</time></trkpt><trkpt lat="46.31707690864759" lon="12.230160965971077"><ele>670.0</ele><time>2026-04-25T10:48:57.999Z</time></trkpt><trkpt lat="46.31724821302681" lon="12.230273001087426"><ele>666.3333333333334</ele><time>2026-04-25T10:48:58.999Z</time></trkpt><trkpt lat="46.317416510915436" lon="12.230382273208141"><ele>662.6666666666666</ele><time>2026-04-25T10:48:59.999Z</time></trkpt><trkpt lat="46.31757803885824" lon="12.230486097998709"><ele>659.0</ele><time>2026-04-25T10:49:00.999Z</time></trkpt><trkpt lat="46.31774043514879" lon="12.230593205314568"><ele>659.6666666666666</ele><time>2026-04-25T10:49:01.999Z</time></trkpt><trkpt lat="46.31790105937783" lon="12.230721708715226"><ele>660.3333333333334</ele><time>2026-04-25T10:49:02.999Z</time></trkpt><trkpt lat="46.31805255532355" lon="12.230875068161453"><ele>661.0</ele><time>2026-04-25T10:49:03.999Z</time></trkpt><trkpt lat="46.31819812046258" lon="12.231044864473564"><ele>661.0</ele><time>2026-04-25T10:49:04.999Z</time></trkpt><trkpt lat="46.318347882198836" lon="12.231220046747747"><ele>661.0</ele><time>2026-04-25T10:49:05.999Z</time></trkpt><trkpt lat="46.318492049538264" lon="12.231401210874434"><ele>661.0</ele><time>2026-04-25T10:49:06.999Z</time></trkpt><trkpt lat="46.31862511677447" lon="12.231603376725236"><ele>658.6666666666667</ele><time>2026-04-25T10:49:07.999Z</time></trkpt><trkpt lat="46.31874905708347" lon="12.231810644992185"><ele>656.3333333333334</ele><time>2026-04-25T10:49:08.999Z</time></trkpt><trkpt lat="46.31886222356184" lon="12.23199945283694"><ele>654.0</ele><time>2026-04-25T10:49:09.999Z</time></trkpt><trkpt lat="46.3189689123138" lon="12.232199385106716"><ele>658.3333333333334</ele><time>2026-04-25T10:49:10.999Z</time></trkpt><trkpt lat="46.31906517652392" lon="12.232419605142418"><ele>662.6666666666667</ele><time>2026-04-25T10:49:11.999Z</time></trkpt><trkpt lat="46.31915484751068" lon="12.232655150331553"><ele>667.0</ele><time>2026-04-25T10:49:12.999Z</time></trkpt><trkpt lat="46.31924150625331" lon="12.232888857698109"><ele>667.0</ele><time>2026-04-25T10:49:13.999Z</time></trkpt><trkpt lat="46.319339604721094" lon="12.23311581541472"><ele>667.0</ele><time>2026-04-25T10:49:14.999Z</time></trkpt><trkpt lat="46.31944969286442" lon="12.233333622592378"><ele>667.0</ele><time>2026-04-25T10:49:15.999Z</time></trkpt><trkpt lat="46.31957528405955" lon="12.233532566878537"><ele>662.0</ele><time>2026-04-25T10:49:17Z</time></trkpt><trkpt lat="46.31971002401364" lon="12.233719002346783"><ele>657.0</ele><time>2026-04-25T10:49:18Z</time></trkpt><trkpt lat="46.319848697477894" lon="12.233886313134423"><ele>652.0</ele><time>2026-04-25T10:49:19Z</time></trkpt><trkpt lat="46.31999703677891" lon="12.234023314226507"><ele>663.0</ele><time>2026-04-25T10:49:20Z</time></trkpt><trkpt lat="46.32015460945904" lon="12.234130691636047"><ele>674.0</ele><time>2026-04-25T10:49:21Z</time></trkpt><trkpt lat="46.32032392087926" lon="12.234202810485083"><ele>685.0</ele><time>2026-04-25T10:49:22Z</time></trkpt><trkpt lat="46.32050109877057" lon="12.234270048944632"><ele>680.0</ele><time>2026-04-25T10:49:23Z</time></trkpt><trkpt lat="46.320679417440864" lon="12.234331201595495"><ele>675.0</ele><time>2026-04-25T10:49:24Z</time></trkpt><trkpt lat="46.320850534853236" lon="12.234373678390979"><ele>670.0</ele><time>2026-04-25T10:49:25Z</time></trkpt><trkpt lat="46.321022541355" lon="12.234372975929789"><ele>670.0</ele><time>2026-04-25T10:49:26Z</time></trkpt><trkpt lat="46.3212132739511" lon="12.234308745734637"><ele>670.0</ele><time>2026-04-25T10:49:27Z</time></trkpt><trkpt lat="46.32142824838711" lon="12.234215840247384"><ele>670.0</ele><time>2026-04-25T10:49:28Z</time></trkpt><trkpt lat="46.321653180963565" lon="12.2341577723177"><ele>674.6666666666667</ele><time>2026-04-25T10:49:29Z</time></trkpt><trkpt lat="46.32187362870276" lon="12.23412570017403"><ele>679.3333333333334</ele><time>2026-04-25T10:49:30Z</time></trkpt><trkpt lat="46.32208228127304" lon="12.23412393917122"><ele>684.0</ele><time>2026-04-25T10:49:31Z</time></trkpt><trkpt lat="46.32227981125894" lon="12.234104181407874"><ele>682.3333333333334</ele><time>2026-04-25T10:49:32Z</time></trkpt><trkpt lat="46.322459911950865" lon="12.234062760285502"><ele>680.6666666666667</ele><time>2026-04-25T10:49:33Z</time></trkpt><trkpt lat="46.32263388039563" lon="12.233982322665868"><ele>679.0</ele><time>2026-04-25T10:49:34Z</time></trkpt><trkpt lat="46.32280635598141" lon="12.233854807785741"><ele>679.0</ele><time>2026-04-25T10:49:35Z</time></trkpt><trkpt lat="46.32297284210514" lon="12.233682928621016"><ele>679.0</ele><time>2026-04-25T10:49:36Z</time></trkpt><trkpt lat="46.32313989376385" lon="12.23351219811015"><ele>679.0</ele><time>2026-04-25T10:49:37Z</time></trkpt><trkpt lat="46.32329039335503" lon="12.233357196267384"><ele>682.6666666666667</ele><time>2026-04-25T10:49:38Z</time></trkpt><trkpt lat="46.323431064382845" lon="12.233188301184185"><ele>686.3333333333334</ele><time>2026-04-25T10:49:39Z</time></trkpt><trkpt lat="46.323556635423735" lon="12.232992811921196"><ele>690.0</ele><time>2026-04-25T10:49:40Z</time></trkpt><trkpt lat="46.323681979444636" lon="12.232794698298063"><ele>690.0</ele><time>2026-04-25T10:49:41Z</time></trkpt><trkpt lat="46.3238184335004" lon="12.232613137726608"><ele>690.0</ele><time>2026-04-25T10:49:42Z</time></trkpt><trkpt lat="46.323971871599866" lon="12.232444123673664"><ele>690.0</ele><time>2026-04-25T10:49:43Z</time></trkpt><trkpt lat="46.324138060416686" lon="12.232305208814736"><ele>691.6666666666666</ele><time>2026-04-25T10:49:44Z</time></trkpt><trkpt lat="46.32431874045923" lon="12.23219372473243"><ele>693.3333333333333</ele><time>2026-04-25T10:49:45Z</time></trkpt><trkpt lat="46.324496205594166" lon="12.232097308181395"><ele>695.0</ele><time>2026-04-25T10:49:46Z</time></trkpt><trkpt lat="46.32464946127403" lon="12.232009790092482"><ele>697.25</ele><time>2026-04-25T10:49:47Z</time></trkpt><trkpt lat="46.32478435052853" lon="12.231929854891565"><ele>699.5</ele><time>2026-04-25T10:49:48Z</time></trkpt><trkpt lat="46.32490060511183" lon="12.231880868645355"><ele>701.75</ele><time>2026-04-25T10:49:49Z</time></trkpt><trkpt lat="46.32503209597038" lon="12.231870942248158"><ele>704.0</ele><time>2026-04-25T10:49:50Z</time></trkpt><trkpt lat="46.325173222927226" lon="12.23192519535945"><ele>704.0</ele><time>2026-04-25T10:49:51Z</time></trkpt><trkpt lat="46.32531368614482" lon="12.23202295944073"><ele>704.0</ele><time>2026-04-25T10:49:52Z</time></trkpt><trkpt lat="46.32545148634954" lon="12.23216681901119"><ele>704.0</ele><time>2026-04-25T10:49:53Z</time></trkpt><trkpt lat="46.32558478220629" lon="12.23235065013365"><ele>708.0</ele><time>2026-04-25T10:49:54Z</time></trkpt><trkpt lat="46.32572555614552" lon="12.232572994124466"><ele>712.0</ele><time>2026-04-25T10:49:55Z</time></trkpt><trkpt lat="46.325880608224004" lon="12.232812344391746"><ele>716.0</ele><time>2026-04-25T10:49:56Z</time></trkpt><trkpt lat="46.32603143714568" lon="12.233008893533318"><ele>718.3333333333333</ele><time>2026-04-25T10:49:57Z</time></trkpt><trkpt lat="46.32618077113116" lon="12.233182263397554"><ele>720.6666666666666</ele><time>2026-04-25T10:49:58Z</time></trkpt><trkpt lat="46.32632587814684" lon="12.233344893553694"><ele>723.0</ele><time>2026-04-25T10:49:59Z</time></trkpt><trkpt lat="46.32646180091722" lon="12.233492730479085"><ele>723.0</ele><time>2026-04-25T10:50:00Z</time></trkpt><trkpt lat="46.32659684582303" lon="12.233613209855928"><ele>723.0</ele><time>2026-04-25T10:50:01Z</time></trkpt><trkpt lat="46.32674667304139" lon="12.233703301291476"><ele>723.0</ele><time>2026-04-25T10:50:02Z</time></trkpt><trkpt lat="46.32691357541425" lon="12.233741333940559"><ele>723.0</ele><time>2026-04-25T10:50:03Z</time></trkpt><trkpt lat="46.327106912927235" lon="12.233745845127022"><ele>723.0</ele><time>2026-04-25T10:50:04Z</time></trkpt><trkpt lat="46.327302568255384" lon="12.23374368611908"><ele>723.0</ele><time>2026-04-25T10:50:05Z</time></trkpt><trkpt lat="46.327490186435895" lon="12.233729091202214"><ele>721.6666666666666</ele><time>2026-04-25T10:50:06Z</time></trkpt><trkpt lat="46.32769006795231" lon="12.233691185868235"><ele>720.3333333333333</ele><time>2026-04-25T10:50:07Z</time></trkpt><trkpt lat="46.32790067026282" lon="12.233627958462982"><ele>719.0</ele><time>2026-04-25T10:50:08Z</time></trkpt><trkpt lat="46.32810783593714" lon="12.233533051623942"><ele>724.0</ele><time>2026-04-25T10:50:09Z</time></trkpt><trkpt lat="46.32828510117762" lon="12.233422753458317"><ele>729.0</ele><time>2026-04-25T10:50:10Z</time></trkpt><trkpt lat="46.32843564717893" lon="12.233319995350906"><ele>734.0</ele><time>2026-04-25T10:50:11Z</time></trkpt><trkpt lat="46.32860391598505" lon="12.23324696294299"><ele>734.0</ele><time>2026-04-25T10:50:12Z</time></trkpt><trkpt lat="46.32879517023441" lon="12.233207467003641"><ele>734.0</ele><time>2026-04-25T10:50:13Z</time></trkpt><trkpt lat="46.328974388618306" lon="12.233187361305236"><ele>734.0</ele><time>2026-04-25T10:50:14Z</time></trkpt><trkpt lat="46.32914128805981" lon="12.233188480197509"><ele>741.3333333333333</ele><time>2026-04-25T10:50:15Z</time></trkpt><trkpt lat="46.3293170671271" lon="12.233247440989794"><ele>748.6666666666666</ele><time>2026-04-25T10:50:16Z</time></trkpt><trkpt lat="46.329495180611694" lon="12.233336765528598"><ele>756.0</ele><time>2026-04-25T10:50:17Z</time></trkpt><trkpt lat="46.329672241509805" lon="12.233379812642537"><ele>754.6666666666666</ele><time>2026-04-25T10:50:18Z</time></trkpt><trkpt lat="46.32984842190436" lon="12.233384593772065"><ele>753.3333333333333</ele><time>2026-04-25T10:50:19Z</time></trkpt><trkpt lat="46.33002500037644" lon="12.233360637053783"><ele>752.0</ele><time>2026-04-25T10:50:20Z</time></trkpt><trkpt lat="46.330212431478" lon="12.233267995603862"><ele>746.5</ele><time>2026-04-25T10:50:21Z</time></trkpt><trkpt lat="46.3304415280311" lon="12.233113218912926"><ele>741.0</ele><time>2026-04-25T10:50:22Z</time></trkpt><trkpt lat="46.33069308764715" lon="12.232977342227676"><ele>741.0</ele><time>2026-04-25T10:50:23Z</time></trkpt><trkpt lat="46.33092337929934" lon="12.232880876685766"><ele>741.0</ele><time>2026-04-25T10:50:24Z</time></trkpt><trkpt lat="46.33110889881333" lon="12.232786165725575"><ele>741.0</ele><time>2026-04-25T10:50:25Z</time></trkpt><trkpt lat="46.33125767318813" lon="12.232686312886813"><ele>741.0</ele><time>2026-04-25T10:50:26Z</time></trkpt><trkpt lat="46.331381849475434" lon="12.232603839730162"><ele>741.0</ele><time>2026-04-25T10:50:27Z</time></trkpt><trkpt lat="46.33151056405294" lon="12.232579791794581"><ele>741.0</ele><time>2026-04-25T10:50:28Z</time></trkpt><trkpt lat="46.33165687192283" lon="12.232612305312594"><ele>741.0</ele><time>2026-04-25T10:50:29Z</time></trkpt><trkpt lat="46.331828287912955" lon="12.232682080058476"><ele>745.25</ele><time>2026-04-25T10:50:30Z</time></trkpt><trkpt lat="46.33199155642305" lon="12.23272351535237"><ele>749.5</ele><time>2026-04-25T10:50:31Z</time></trkpt><trkpt lat="46.33213200013011" lon="12.232723637042165"><ele>753.75</ele><time>2026-04-25T10:50:32Z</time></trkpt><trkpt lat="46.33226474950699" lon="12.232702273288602"><ele>758.0</ele><time>2026-04-25T10:50:33Z</time></trkpt><trkpt lat="46.33238948026293" lon="12.232628127506514"><ele>760.0</ele><time>2026-04-25T10:50:34Z</time></trkpt><trkpt lat="46.332502029178265" lon="12.232494886572297"><ele>762.0</ele><time>2026-04-25T10:50:35Z</time></trkpt><trkpt lat="46.33260316381689" lon="12.232323348851972"><ele>764.0</ele><time>2026-04-25T10:50:36Z</time></trkpt><trkpt lat="46.332678579466354" lon="12.232126601892212"><ele>764.0</ele><time>2026-04-25T10:50:37Z</time></trkpt><trkpt lat="46.33275464049416" lon="12.231941358028998"><ele>764.0</ele><time>2026-04-25T10:50:38Z</time></trkpt><trkpt lat="46.33277761181068" lon="12.231715957656643"><ele>764.0</ele><time>2026-04-25T10:50:39Z</time></trkpt><trkpt lat="46.332763594836834" lon="12.231492564753141"><ele>758.25</ele><time>2026-04-25T10:50:39.999Z</time></trkpt><trkpt lat="46.33275444099932" lon="12.231328194575685"><ele>752.5</ele><time>2026-04-25T10:50:40.999Z</time></trkpt><trkpt lat="46.332748385608696" lon="12.231167892758236"><ele>746.75</ele><time>2026-04-25T10:50:41.999Z</time></trkpt><trkpt lat="46.33280772087944" lon="12.231028865446728"><ele>741.0</ele><time>2026-04-25T10:50:42.999Z</time></trkpt><trkpt lat="46.332908575557816" lon="12.230909133959436"><ele>741.0</ele><time>2026-04-25T10:50:43.999Z</time></trkpt><trkpt lat="46.333038517125864" lon="12.23081962042214"><ele>741.0</ele><time>2026-04-25T10:50:44.999Z</time></trkpt><trkpt lat="46.33318361948905" lon="12.23073075483984"><ele>741.0</ele><time>2026-04-25T10:50:45.999Z</time></trkpt><trkpt lat="46.33328546872084" lon="12.230635894670517"><ele>741.0</ele><time>2026-04-25T10:50:46.999Z</time></trkpt><trkpt lat="46.33338207346292" lon="12.230557603307751"><ele>743.0</ele><time>2026-04-25T10:50:47.999Z</time></trkpt><trkpt lat="46.33347339733585" lon="12.230457449004929"><ele>745.0</ele><time>2026-04-25T10:50:48.999Z</time></trkpt><trkpt lat="46.333559552603425" lon="12.230344465558384"><ele>747.0</ele><time>2026-04-25T10:50:49.999Z</time></trkpt><trkpt lat="46.3336604100688" lon="12.230251367331865"><ele>749.0</ele><time>2026-04-25T10:50:50.999Z</time></trkpt><trkpt lat="46.33379125539632" lon="12.230196566176799"><ele>761.25</ele><time>2026-04-25T10:50:51.999Z</time></trkpt><trkpt lat="46.33393944940639" lon="12.23017688740376"><ele>773.5</ele><time>2026-04-25T10:50:52.999Z</time></trkpt><trkpt lat="46.334082386364294" lon="12.23018558354525"><ele>785.75</ele><time>2026-04-25T10:50:53.999Z</time></trkpt><trkpt lat="46.33421861721116" lon="12.230176191739169"><ele>798.0</ele><time>2026-04-25T10:50:54.999Z</time></trkpt><trkpt lat="46.33435122607759" lon="12.230129878106393"><ele>798.0</ele><time>2026-04-25T10:50:55.999Z</time></trkpt><trkpt lat="46.33447305211394" lon="12.230040072637916"><ele>798.0</ele><time>2026-04-25T10:50:56.999Z</time></trkpt><trkpt lat="46.334572329599325" lon="12.229921787458673"><ele>798.0</ele><time>2026-04-25T10:50:57.999Z</time></trkpt><trkpt lat="46.33462439876456" lon="12.229710435793102"><ele>798.0</ele><time>2026-04-25T10:50:58.999Z</time></trkpt><trkpt lat="46.334665491987785" lon="12.229480115590004"><ele>799.6666666666667</ele><time>2026-04-25T10:50:59.999Z</time></trkpt><trkpt lat="46.33477329376092" lon="12.22931857218039"><ele>801.3333333333334</ele><time>2026-04-25T10:51:00.999Z</time></trkpt><trkpt lat="46.33488339305214" lon="12.229125831301488"><ele>803.0</ele><time>2026-04-25T10:51:01.999Z</time></trkpt><trkpt lat="46.335005073148686" lon="12.228959960509806"><ele>788.75</ele><time>2026-04-25T10:51:02.999Z</time></trkpt><trkpt lat="46.335140971627396" lon="12.228818099114294"><ele>774.5</ele><time>2026-04-25T10:51:03.999Z</time></trkpt><trkpt lat="46.335256306069" lon="12.228705614812307"><ele>760.25</ele><time>2026-04-25T10:51:04.999Z</time></trkpt><trkpt lat="46.33536570349017" lon="12.228615085143765"><ele>746.0</ele><time>2026-04-25T10:51:05.999Z</time></trkpt><trkpt lat="46.33548262582909" lon="12.228546674990914"><ele>757.75</ele><time>2026-04-25T10:51:06.999Z</time></trkpt><trkpt lat="46.335611539083175" lon="12.228484507616662"><ele>769.5</ele><time>2026-04-25T10:51:07.999Z</time></trkpt><trkpt lat="46.33574750179104" lon="12.228445553621135"><ele>781.25</ele><time>2026-04-25T10:51:08.999Z</time></trkpt><trkpt lat="46.33587852104722" lon="12.228416292365507"><ele>793.0</ele><time>2026-04-25T10:51:09.999Z</time></trkpt><trkpt lat="46.3360164838797" lon="12.22840490245502"><ele>793.0</ele><time>2026-04-25T10:51:10.999Z</time></trkpt><trkpt lat="46.33615169595758" lon="12.228390385566414"><ele>793.0</ele><time>2026-04-25T10:51:11.999Z</time></trkpt><trkpt lat="46.3362925497595" lon="12.228382857232152"><ele>793.0</ele><time>2026-04-25T10:51:12.999Z</time></trkpt><trkpt lat="46.33643567545172" lon="12.22837271738246"><ele>793.0</ele><time>2026-04-25T10:51:13.999Z</time></trkpt><trkpt lat="46.33658175478071" lon="12.228361496474228"><ele>800.5</ele><time>2026-04-25T10:51:14.999Z</time></trkpt><trkpt lat="46.33672853412369" lon="12.228346236854"><ele>808.0</ele><time>2026-04-25T10:51:15.999Z</time></trkpt><trkpt lat="46.33686785868652" lon="12.22833470984834"><ele>815.5</ele><time>2026-04-25T10:51:17.061Z</time></trkpt><trkpt lat="46.33699052360215" lon="12.22835025759791"><ele>823.0</ele><time>2026-04-25T10:51:18.054Z</time></trkpt><trkpt lat="46.33710577860652" lon="12.228320894070135"><ele>815.6666666666666</ele><time>2026-04-25T10:51:19.051Z</time></trkpt><trkpt lat="46.33735531909762" lon="12.22814263973311"><ele>808.3333333333333</ele><time>2026-04-25T10:51:20.999Z</time></trkpt><trkpt lat="46.33746491914215" lon="12.228043546677087"><ele>801.0</ele><time>2026-04-25T10:51:21.999Z</time></trkpt><trkpt lat="46.33753579492329" lon="12.227886768044659"><ele>801.0</ele><time>2026-04-25T10:51:22.999Z</time></trkpt><trkpt lat="46.33763042420527" lon="12.22775976803179"><ele>801.0</ele><time>2026-04-25T10:51:23.999Z</time></trkpt><trkpt lat="46.337714609164784" lon="12.227609331098789"><ele>801.0</ele><time>2026-04-25T10:51:24.999Z</time></trkpt><trkpt lat="46.33776728714101" lon="12.227425347980999"><ele>801.0</ele><time>2026-04-25T10:51:25.999Z</time></trkpt><trkpt lat="46.33782244688181" lon="12.227230339318726"><ele>798.0</ele><time>2026-04-25T10:51:27Z</time></trkpt><trkpt lat="46.33788141419769" lon="12.22704579840542"><ele>795.0</ele><time>2026-04-25T10:51:28Z</time></trkpt><trkpt lat="46.33795078385009" lon="12.226872422276273"><ele>792.0</ele><time>2026-04-25T10:51:29Z</time></trkpt><trkpt lat="46.33802548903525" lon="12.226701673274317"><ele>789.0</ele><time>2026-04-25T10:51:30Z</time></trkpt><trkpt lat="46.3381060683968" lon="12.22652951307343"><ele>793.3333333333333</ele><time>2026-04-25T10:51:31Z</time></trkpt><trkpt lat="46.33820869778726" lon="12.226361308251366"><ele>797.6666666666666</ele><time>2026-04-25T10:51:32Z</time></trkpt><trkpt lat="46.33831036927022" lon="12.22619245485147"><ele>802.0</ele><time>2026-04-25T10:51:33Z</time></trkpt><trkpt lat="46.33841972533724" lon="12.226039802532856"><ele>802.0</ele><time>2026-04-25T10:51:34Z</time></trkpt><trkpt lat="46.33855932716453" lon="12.225905353737932"><ele>802.0</ele><time>2026-04-25T10:51:35Z</time></trkpt><trkpt lat="46.338682334110665" lon="12.225788445227543"><ele>802.0</ele><time>2026-04-25T10:51:36Z</time></trkpt><trkpt lat="46.33879063742754" lon="12.225695213264414"><ele>802.0</ele><time>2026-04-25T10:51:37Z</time></trkpt><trkpt lat="46.33887913360445" lon="12.225597507233564"><ele>807.5</ele><time>2026-04-25T10:51:38Z</time></trkpt><trkpt lat="46.338942005206015" lon="12.225457623841905"><ele>813.0</ele><time>2026-04-25T10:51:39Z</time></trkpt><trkpt lat="46.33897835209401" lon="12.225275046633616"><ele>818.5</ele><time>2026-04-25T10:51:40Z</time></trkpt><trkpt lat="46.33898119379442" lon="12.225095716691598"><ele>824.0</ele><time>2026-04-25T10:51:41Z</time></trkpt><trkpt lat="46.33900113865509" lon="12.224943150912004"><ele>821.5</ele><time>2026-04-25T10:51:42Z</time></trkpt><trkpt lat="46.3390737063453" lon="12.224791417666834"><ele>819.0</ele><time>2026-04-25T10:51:43Z</time></trkpt><trkpt lat="46.3391949457349" lon="12.2246767198041"><ele>816.5</ele><time>2026-04-25T10:51:44Z</time></trkpt><trkpt lat="46.33933693603365" lon="12.224598784273661"><ele>814.0</ele><time>2026-04-25T10:51:45Z</time></trkpt><trkpt lat="46.33945256063463" lon="12.224471295706046"><ele>814.0</ele><time>2026-04-25T10:51:46Z</time></trkpt><trkpt lat="46.33955662277136" lon="12.224290068510289"><ele>814.0</ele><time>2026-04-25T10:51:47Z</time></trkpt><trkpt lat="46.33962285551212" lon="12.224058165887378"><ele>814.0</ele><time>2026-04-25T10:51:48Z</time></trkpt><trkpt lat="46.33967421106223" lon="12.223795320970568"><ele>816.3333333333333</ele><time>2026-04-25T10:51:49Z</time></trkpt><trkpt lat="46.339711300155265" lon="12.223493205219652"><ele>818.6666666666667</ele><time>2026-04-25T10:51:50Z</time></trkpt><trkpt lat="46.33973708660658" lon="12.223169035802158"><ele>821.0</ele><time>2026-04-25T10:51:51Z</time></trkpt><trkpt lat="46.33975743898959" lon="12.222833154413904"><ele>825.0</ele><time>2026-04-25T10:51:52Z</time></trkpt><trkpt lat="46.339780607401316" lon="12.222505906314312"><ele>829.0</ele><time>2026-04-25T10:51:53Z</time></trkpt><trkpt lat="46.339805526476" lon="12.222186914956554"><ele>833.0</ele><time>2026-04-25T10:51:54Z</time></trkpt><trkpt lat="46.33982584080393" lon="12.221877167735824"><ele>833.0</ele><time>2026-04-25T10:51:55Z</time></trkpt><trkpt lat="46.339843326673616" lon="12.221573806258638"><ele>833.0</ele><time>2026-04-25T10:51:56Z</time></trkpt><trkpt lat="46.33985840094093" lon="12.221278665128018"><ele>833.0</ele><time>2026-04-25T10:51:57Z</time></trkpt><trkpt lat="46.33987421813936" lon="12.220997160684359"><ele>835.0</ele><time>2026-04-25T10:51:58Z</time></trkpt><trkpt lat="46.339887388500024" lon="12.220743960081954"><ele>837.0</ele><time>2026-04-25T10:51:59Z</time></trkpt><trkpt lat="46.33989764519527" lon="12.220514000470045"><ele>839.0</ele><time>2026-04-25T10:52:00Z</time></trkpt><trkpt lat="46.339908115209425" lon="12.220299658136012"><ele>839.6666666666667</ele><time>2026-04-25T10:52:01Z</time></trkpt><trkpt lat="46.33992659043435" lon="12.220095542292169"><ele>840.3333333333333</ele><time>2026-04-25T10:52:02Z</time></trkpt><trkpt lat="46.339963510306525" lon="12.219888467516443"><ele>841.0</ele><time>2026-04-25T10:52:03Z</time></trkpt><trkpt lat="46.34001729440473" lon="12.219668683707404"><ele>839.6666666666666</ele><time>2026-04-25T10:52:04Z</time></trkpt><trkpt lat="46.34008848409536" lon="12.219438295246226"><ele>838.3333333333333</ele><time>2026-04-25T10:52:05Z</time></trkpt><trkpt lat="46.34017238952563" lon="12.21919787861366"><ele>837.0</ele><time>2026-04-25T10:52:06Z</time></trkpt><trkpt lat="46.34025303535891" lon="12.218955099530811"><ele>832.0</ele><time>2026-04-25T10:52:07Z</time></trkpt><trkpt lat="46.340334737568945" lon="12.21871286952687"><ele>827.0</ele><time>2026-04-25T10:52:08Z</time></trkpt><trkpt lat="46.34041510797453" lon="12.218476069499694"><ele>822.0</ele><time>2026-04-25T10:52:09Z</time></trkpt><trkpt lat="46.34047601310976" lon="12.218234835191618"><ele>818.6666666666667</ele><time>2026-04-25T10:52:10Z</time></trkpt><trkpt lat="46.34051395006262" lon="12.217978484734658"><ele>815.3333333333334</ele><time>2026-04-25T10:52:11Z</time></trkpt><trkpt lat="46.34053132419668" lon="12.217703608056317"><ele>812.0</ele><time>2026-04-25T10:52:12Z</time></trkpt><trkpt lat="46.34052910680168" lon="12.217404656077491"><ele>810.0</ele><time>2026-04-25T10:52:13Z</time></trkpt><trkpt lat="46.340527003885235" lon="12.217074291604163"><ele>808.0</ele><time>2026-04-25T10:52:14Z</time></trkpt><trkpt lat="46.34053137692591" lon="12.216727416730981"><ele>807.3333333333333</ele><time>2026-04-25T10:52:15Z</time></trkpt><trkpt lat="46.34053489544799" lon="12.216401959309751"><ele>806.6666666666667</ele><time>2026-04-25T10:52:16Z</time></trkpt><trkpt lat="46.34053649982434" lon="12.2161054039266"><ele>806.0</ele><time>2026-04-25T10:52:17Z</time></trkpt><trkpt lat="46.34053863295273" lon="12.21582690427456"><ele>806.3333333333334</ele><time>2026-04-25T10:52:18Z</time></trkpt><trkpt lat="46.34054002820989" lon="12.215566460234518"><ele>806.6666666666667</ele><time>2026-04-25T10:52:19Z</time></trkpt><trkpt lat="46.340540274739915" lon="12.215309528103194"><ele>807.0</ele><time>2026-04-25T10:52:20Z</time></trkpt><trkpt lat="46.34054159644416" lon="12.215056638295643"><ele>805.0</ele><time>2026-04-25T10:52:21Z</time></trkpt><trkpt lat="46.34054405316397" lon="12.214799577819898"><ele>803.0</ele><time>2026-04-25T10:52:22Z</time></trkpt><trkpt lat="46.34054651840836" lon="12.21454032273934"><ele>801.0</ele><time>2026-04-25T10:52:23Z</time></trkpt><trkpt lat="46.34054465683989" lon="12.21429750091086"><ele>801.0</ele><time>2026-04-25T10:52:24Z</time></trkpt><trkpt lat="46.34053705763028" lon="12.214070449417028"><ele>801.0</ele><time>2026-04-25T10:52:25Z</time></trkpt><trkpt lat="46.34052692606252" lon="12.213862597568973"><ele>801.0</ele><time>2026-04-25T10:52:26Z</time></trkpt><trkpt lat="46.34052751863717" lon="12.213658918060387"><ele>801.0</ele><time>2026-04-25T10:52:27Z</time></trkpt><trkpt lat="46.34056622192175" lon="12.213436988287171"><ele>808.3333333333333</ele><time>2026-04-25T10:52:28Z</time></trkpt><trkpt lat="46.34064915811364" lon="12.213193359906764"><ele>815.6666666666666</ele><time>2026-04-25T10:52:29Z</time></trkpt><trkpt lat="46.340731419463815" lon="12.212931804203857"><ele>823.0</ele><time>2026-04-25T10:52:30Z</time></trkpt><trkpt lat="46.340788729447866" lon="12.212687333843165"><ele>823.0</ele><time>2026-04-25T10:52:31Z</time></trkpt><trkpt lat="46.340823958601106" lon="12.212433952994093"><ele>823.0</ele><time>2026-04-25T10:52:32Z</time></trkpt><trkpt lat="46.34082325841176" lon="12.212146591571207"><ele>823.0</ele><time>2026-04-25T10:52:33Z</time></trkpt><trkpt lat="46.34081334757613" lon="12.211867683873159"><ele>821.6666666666666</ele><time>2026-04-25T10:52:34Z</time></trkpt><trkpt lat="46.34081102352574" lon="12.21162336580304"><ele>820.3333333333333</ele><time>2026-04-25T10:52:35Z</time></trkpt><trkpt lat="46.34079598694472" lon="12.211387955720678"><ele>819.0</ele><time>2026-04-25T10:52:36Z</time></trkpt><trkpt lat="46.34074567369579" lon="12.211140165717445"><ele>822.0</ele><time>2026-04-25T10:52:37Z</time></trkpt><trkpt lat="46.34065801660858" lon="12.210894135787079"><ele>825.0</ele><time>2026-04-25T10:52:38Z</time></trkpt><trkpt lat="46.3405548005696" lon="12.210699657940324"><ele>828.0</ele><time>2026-04-25T10:52:39Z</time></trkpt><trkpt lat="46.3404770066696" lon="12.210522356982125"><ele>820.0</ele><time>2026-04-25T10:52:40Z</time></trkpt><trkpt lat="46.340418325144555" lon="12.210359651664243"><ele>812.0</ele><time>2026-04-25T10:52:41Z</time></trkpt><trkpt lat="46.34038397469988" lon="12.21020627577823"><ele>804.0</ele><time>2026-04-25T10:52:42Z</time></trkpt><trkpt lat="46.34038969406063" lon="12.21001676210754"><ele>796.0</ele><time>2026-04-25T10:52:43Z</time></trkpt><trkpt lat="46.340439168681236" lon="12.209782498751801"><ele>796.0</ele><time>2026-04-25T10:52:44Z</time></trkpt><trkpt lat="46.340489925802025" lon="12.209497725644939"><ele>796.0</ele><time>2026-04-25T10:52:45Z</time></trkpt><trkpt lat="46.34054096329266" lon="12.20918941491692"><ele>796.0</ele><time>2026-04-25T10:52:46Z</time></trkpt><trkpt lat="46.34058687140482" lon="12.20890934902861"><ele>799.0</ele><time>2026-04-25T10:52:47Z</time></trkpt><trkpt lat="46.34064718363769" lon="12.208637159596273"><ele>802.0</ele><time>2026-04-25T10:52:48Z</time></trkpt><trkpt lat="46.340710766765284" lon="12.208375707188418"><ele>805.0</ele><time>2026-04-25T10:52:49Z</time></trkpt><trkpt lat="46.340773779679125" lon="12.208121257022778"><ele>805.0</ele><time>2026-04-25T10:52:50Z</time></trkpt><trkpt lat="46.34083009214177" lon="12.207873958513796"><ele>805.0</ele><time>2026-04-25T10:52:51Z</time></trkpt><trkpt lat="46.34088372591991" lon="12.20762278541176"><ele>805.0</ele><time>2026-04-25T10:52:52Z</time></trkpt><trkpt lat="46.34093053474443" lon="12.207369492414776"><ele>805.3333333333333</ele><time>2026-04-25T10:52:53Z</time></trkpt><trkpt lat="46.340973708790045" lon="12.207114848552084"><ele>805.6666666666667</ele><time>2026-04-25T10:52:54Z</time></trkpt><trkpt lat="46.3410212416259" lon="12.206854472757266"><ele>806.0</ele><time>2026-04-25T10:52:54.999Z</time></trkpt><trkpt lat="46.34107074785851" lon="12.206598886957718"><ele>807.3333333333334</ele><time>2026-04-25T10:52:55.999Z</time></trkpt><trkpt lat="46.34111842738697" lon="12.206353304925843"><ele>808.6666666666667</ele><time>2026-04-25T10:52:56.999Z</time></trkpt><trkpt lat="46.3411684423569" lon="12.206119223618934"><ele>810.0</ele><time>2026-04-25T10:52:57.999Z</time></trkpt><trkpt lat="46.34122761201536" lon="12.205889662866689"><ele>812.3333333333333</ele><time>2026-04-25T10:52:58.999Z</time></trkpt><trkpt lat="46.34129474026138" lon="12.20566097305208"><ele>814.6666666666666</ele><time>2026-04-25T10:52:59.999Z</time></trkpt><trkpt lat="46.34136113147935" lon="12.205427956736065"><ele>817.0</ele><time>2026-04-25T10:53:00.999Z</time></trkpt><trkpt lat="46.341429600465524" lon="12.205190922516854"><ele>837.0</ele><time>2026-04-25T10:53:01.999Z</time></trkpt><trkpt lat="46.341497141122076" lon="12.204943830339461"><ele>857.0</ele><time>2026-04-25T10:53:02.999Z</time></trkpt><trkpt lat="46.341588693122546" lon="12.204678194908999"><ele>877.0</ele><time>2026-04-25T10:53:04.07Z</time></trkpt><trkpt lat="46.34166033359899" lon="12.204426572070028"><ele>882.0</ele><time>2026-04-25T10:53:05.06Z</time></trkpt><trkpt lat="46.34173585003644" lon="12.204165320014813"><ele>887.0</ele><time>2026-04-25T10:53:06.056Z</time></trkpt><trkpt lat="46.34181312330416" lon="12.203895483391504"><ele>892.0</ele><time>2026-04-25T10:53:07.058Z</time></trkpt><trkpt lat="46.3418889921411" lon="12.203626637968277"><ele>809.0</ele><time>2026-04-25T10:53:08.053Z</time></trkpt><trkpt lat="46.34282291068856" lon="12.200050063754393"><ele>801.0</ele><time>2026-04-25T10:53:12.507Z</time></trkpt><trkpt lat="46.342829016275545" lon="12.199162950096756"><ele>804.6666666666667</ele><time>2026-04-25T10:53:24.999Z</time></trkpt><trkpt lat="46.342868339876446" lon="12.198943269554933"><ele>808.3333333333334</ele><time>2026-04-25T10:53:25.999Z</time></trkpt><trkpt lat="46.34301608088188" lon="12.198815184053526"><ele>812.0</ele><time>2026-04-25T10:53:26.999Z</time></trkpt><trkpt lat="46.3431341077557" lon="12.198671075688452"><ele>812.0</ele><time>2026-04-25T10:53:27.999Z</time></trkpt><trkpt lat="46.34328607396043" lon="12.198500463379581"><ele>812.0</ele><time>2026-04-25T10:53:28.999Z</time></trkpt><trkpt lat="46.343435400464585" lon="12.198324223087035"><ele>812.0</ele><time>2026-04-25T10:53:29.999Z</time></trkpt><trkpt lat="46.34358518014885" lon="12.19812022953979"><ele>813.6666666666667</ele><time>2026-04-25T10:53:30.999Z</time></trkpt><trkpt lat="46.34372846752052" lon="12.197900018772094"><ele>815.3333333333333</ele><time>2026-04-25T10:53:31.999Z</time></trkpt><trkpt lat="46.34387111179819" lon="12.197655265065746"><ele>817.0</ele><time>2026-04-25T10:53:33Z</time></trkpt><trkpt lat="46.34401627042483" lon="12.197395469317456"><ele>813.5</ele><time>2026-04-25T10:53:34Z</time></trkpt><trkpt lat="46.34415473935225" lon="12.197115287304"><ele>810.0</ele><time>2026-04-25T10:53:35Z</time></trkpt><trkpt lat="46.34428754345326" lon="12.196841254273242"><ele>810.0</ele><time>2026-04-25T10:53:36Z</time></trkpt><trkpt lat="46.344422641589105" lon="12.196587435733315"><ele>810.0</ele><time>2026-04-25T10:53:37Z</time></trkpt><trkpt lat="46.344554271449354" lon="12.19635626088063"><ele>810.0</ele><time>2026-04-25T10:53:38Z</time></trkpt><trkpt lat="46.34467105427544" lon="12.196141100532284"><ele>811.3333333333333</ele><time>2026-04-25T10:53:39Z</time></trkpt><trkpt lat="46.344782984407274" lon="12.195932827093543"><ele>812.6666666666666</ele><time>2026-04-25T10:53:40Z</time></trkpt><trkpt lat="46.34489328991617" lon="12.195729567380926"><ele>814.0</ele><time>2026-04-25T10:53:41Z</time></trkpt><trkpt lat="46.34500374688044" lon="12.195528516521698"><ele>810.3333333333333</ele><time>2026-04-25T10:53:42Z</time></trkpt><trkpt lat="46.34511457923174" lon="12.195323518558498"><ele>806.6666666666667</ele><time>2026-04-25T10:53:43Z</time></trkpt><trkpt lat="46.34522134651657" lon="12.195114708295986"><ele>803.0</ele><time>2026-04-25T10:53:44Z</time></trkpt><trkpt lat="46.34532336957025" lon="12.194902152022301"><ele>803.3333333333334</ele><time>2026-04-25T10:53:45Z</time></trkpt><trkpt lat="46.34542173030253" lon="12.194681743792412"><ele>803.6666666666667</ele><time>2026-04-25T10:53:46Z</time></trkpt><trkpt lat="46.3455141777765" lon="12.194449083707697"><ele>804.0</ele><time>2026-04-25T10:53:47Z</time></trkpt><trkpt lat="46.3455959237992" lon="12.194207718240236"><ele>807.3333333333333</ele><time>2026-04-25T10:53:48Z</time></trkpt><trkpt lat="46.34566751478103" lon="12.193974725069035"><ele>810.6666666666666</ele><time>2026-04-25T10:53:49Z</time></trkpt><trkpt lat="46.3457322710433" lon="12.193758516798553"><ele>814.0</ele><time>2026-04-25T10:53:50Z</time></trkpt><trkpt lat="46.34578998647659" lon="12.19354093276373"><ele>814.0</ele><time>2026-04-25T10:53:51Z</time></trkpt><trkpt lat="46.345838644715876" lon="12.193320049411671"><ele>814.0</ele><time>2026-04-25T10:53:52Z</time></trkpt><trkpt lat="46.3458613227172" lon="12.19308575585908"><ele>814.0</ele><time>2026-04-25T10:53:53Z</time></trkpt><trkpt lat="46.345854681786236" lon="12.192820705304726"><ele>812.3333333333333</ele><time>2026-04-25T10:53:54Z</time></trkpt><trkpt lat="46.345826372793745" lon="12.192519374413141"><ele>810.6666666666667</ele><time>2026-04-25T10:53:55Z</time></trkpt><trkpt lat="46.34579043248597" lon="12.192194773582548"><ele>809.0</ele><time>2026-04-25T10:53:56Z</time></trkpt><trkpt lat="46.3457581519597" lon="12.191888884603808"><ele>809.0</ele><time>2026-04-25T10:53:57Z</time></trkpt><trkpt lat="46.345729476366635" lon="12.191606707063787"><ele>809.0</ele><time>2026-04-25T10:53:58Z</time></trkpt><trkpt lat="46.34570125323914" lon="12.191338892675024"><ele>809.0</ele><time>2026-04-25T10:53:59Z</time></trkpt><trkpt lat="46.34567201475335" lon="12.191079790310122"><ele>812.0</ele><time>2026-04-25T10:54:00Z</time></trkpt><trkpt lat="46.34564562351136" lon="12.190826945370151"><ele>815.0</ele><time>2026-04-25T10:54:01Z</time></trkpt><trkpt lat="46.34561753283263" lon="12.190572185005347"><ele>818.0</ele><time>2026-04-25T10:54:02Z</time></trkpt><trkpt lat="46.34559087471336" lon="12.19032152240202"><ele>819.0</ele><time>2026-04-25T10:54:03Z</time></trkpt><trkpt lat="46.34556713843711" lon="12.190077759063195"><ele>820.0</ele><time>2026-04-25T10:54:04Z</time></trkpt><trkpt lat="46.345548032628116" lon="12.189836439306339"><ele>821.0</ele><time>2026-04-25T10:54:05Z</time></trkpt><trkpt lat="46.34553722240914" lon="12.189585967692015"><ele>821.3333333333334</ele><time>2026-04-25T10:54:06Z</time></trkpt><trkpt lat="46.34553982584002" lon="12.189323694925466"><ele>821.6666666666667</ele><time>2026-04-25T10:54:07Z</time></trkpt><trkpt lat="46.345558214345935" lon="12.18905208410633"><ele>822.0</ele><time>2026-04-25T10:54:08Z</time></trkpt><trkpt lat="46.34558898084864" lon="12.188769438877602"><ele>822.6666666666667</ele><time>2026-04-25T10:54:09Z</time></trkpt><trkpt lat="46.345618683476545" lon="12.188480833712354"><ele>823.3333333333334</ele><time>2026-04-25T10:54:10Z</time></trkpt><trkpt lat="46.34564342479239" lon="12.188202940668516"><ele>824.0</ele><time>2026-04-25T10:54:11Z</time></trkpt><trkpt lat="46.34566882703817" lon="12.187932049023969"><ele>824.3333333333334</ele><time>2026-04-25T10:54:12Z</time></trkpt><trkpt lat="46.3456973192928" lon="12.187676477493968"><ele>824.6666666666667</ele><time>2026-04-25T10:54:13Z</time></trkpt><trkpt lat="46.34572567447607" lon="12.187429832700184"><ele>825.0</ele><time>2026-04-25T10:54:14Z</time></trkpt><trkpt lat="46.34574090805545" lon="12.187188906873377"><ele>826.3333333333333</ele><time>2026-04-25T10:54:15Z</time></trkpt><trkpt lat="46.34573763007056" lon="12.186953335761743"><ele>827.6666666666666</ele><time>2026-04-25T10:54:16Z</time></trkpt><trkpt lat="46.34571566166625" lon="12.18672529746711"><ele>829.0</ele><time>2026-04-25T10:54:17Z</time></trkpt><trkpt lat="46.345681363606026" lon="12.18651958823961"><ele>831.0</ele><time>2026-04-25T10:54:18Z</time></trkpt><trkpt lat="46.345638851191964" lon="12.186327026043713"><ele>833.0</ele><time>2026-04-25T10:54:19Z</time></trkpt><trkpt lat="46.34557505549202" lon="12.18614024786131"><ele>835.0</ele><time>2026-04-25T10:54:20Z</time></trkpt><trkpt lat="46.345497028117016" lon="12.185971481977575"><ele>837.0</ele><time>2026-04-25T10:54:21Z</time></trkpt><trkpt lat="46.3454286612189" lon="12.18582588688629"><ele>834.75</ele><time>2026-04-25T10:54:22Z</time></trkpt><trkpt lat="46.34536142346917" lon="12.185679716510894"><ele>832.5</ele><time>2026-04-25T10:54:23Z</time></trkpt><trkpt lat="46.345289940373576" lon="12.185528120438004"><ele>830.25</ele><time>2026-04-25T10:54:24Z</time></trkpt><trkpt lat="46.3452177002168" lon="12.185368944303718"><ele>828.0</ele><time>2026-04-25T10:54:25Z</time></trkpt><trkpt lat="46.345145630933615" lon="12.185206028687734"><ele>828.0</ele><time>2026-04-25T10:54:26Z</time></trkpt><trkpt lat="46.34507277926167" lon="12.185037577389902"><ele>828.0</ele><time>2026-04-25T10:54:27Z</time></trkpt><trkpt lat="46.345000787246526" lon="12.184872793224015"><ele>828.0</ele><time>2026-04-25T10:54:28Z</time></trkpt><trkpt lat="46.34493105231711" lon="12.18471043596046"><ele>828.0</ele><time>2026-04-25T10:54:29Z</time></trkpt><trkpt lat="46.34485977907136" lon="12.184543979492748"><ele>828.75</ele><time>2026-04-25T10:54:30Z</time></trkpt><trkpt lat="46.34478944713459" lon="12.184381786718111"><ele>829.5</ele><time>2026-04-25T10:54:31Z</time></trkpt><trkpt lat="46.344722116778684" lon="12.184217908103554"><ele>830.25</ele><time>2026-04-25T10:54:32Z</time></trkpt><trkpt lat="46.34465881007408" lon="12.184069931540645"><ele>831.0</ele><time>2026-04-25T10:54:33Z</time></trkpt><trkpt lat="46.34460384341343" lon="12.183938136046045"><ele>833.0</ele><time>2026-04-25T10:54:34Z</time></trkpt><trkpt lat="46.34455837046681" lon="12.183813354839716"><ele>835.0</ele><time>2026-04-25T10:54:35Z</time></trkpt><trkpt lat="46.34451626433872" lon="12.18368815149841"><ele>837.0</ele><time>2026-04-25T10:54:36Z</time></trkpt><trkpt lat="46.34450169450453" lon="12.183558128328322"><ele>839.0</ele><time>2026-04-25T10:54:37Z</time></trkpt><trkpt lat="46.34452354529659" lon="12.183429479989945"><ele>841.0</ele><time>2026-04-25T10:54:38Z</time></trkpt><trkpt lat="46.34456952430228" lon="12.18331543749977"><ele>841.0</ele><time>2026-04-25T10:54:39Z</time></trkpt><trkpt lat="46.34463879179599" lon="12.183219062238322"><ele>841.0</ele><time>2026-04-25T10:54:40Z</time></trkpt><trkpt lat="46.34472537457157" lon="12.183138754085173"><ele>841.0</ele><time>2026-04-25T10:54:41Z</time></trkpt><trkpt lat="46.34482232028109" lon="12.183048308644791"><ele>841.0</ele><time>2026-04-25T10:54:42Z</time></trkpt><trkpt lat="46.344913037803394" lon="12.182941345237932"><ele>841.0</ele><time>2026-04-25T10:54:43Z</time></trkpt><trkpt lat="46.34500600320716" lon="12.182831826095377"><ele>839.0</ele><time>2026-04-25T10:54:44Z</time></trkpt><trkpt lat="46.34510066692036" lon="12.182725753858753"><ele>837.0</ele><time>2026-04-25T10:54:45Z</time></trkpt><trkpt lat="46.345197639654536" lon="12.18261101492946"><ele>835.0</ele><time>2026-04-25T10:54:46Z</time></trkpt><trkpt lat="46.34529632639002" lon="12.182482997703882"><ele>833.0</ele><time>2026-04-25T10:54:47Z</time></trkpt><trkpt lat="46.34540396849797" lon="12.182354490273996"><ele>832.75</ele><time>2026-04-25T10:54:48Z</time></trkpt><trkpt lat="46.34551813308605" lon="12.182223656061504"><ele>832.5</ele><time>2026-04-25T10:54:49Z</time></trkpt><trkpt lat="46.345631625802135" lon="12.182099521138051"><ele>832.25</ele><time>2026-04-25T10:54:50Z</time></trkpt><trkpt lat="46.34574730127955" lon="12.181978592439934"><ele>832.0</ele><time>2026-04-25T10:54:51Z</time></trkpt><trkpt lat="46.34586149758072" lon="12.181858659793601"><ele>832.0</ele><time>2026-04-25T10:54:52Z</time></trkpt><trkpt lat="46.34596981629099" lon="12.181735983302142"><ele>832.0</ele><time>2026-04-25T10:54:53Z</time></trkpt><trkpt lat="46.34606860134671" lon="12.181604561530536"><ele>832.0</ele><time>2026-04-25T10:54:54Z</time></trkpt><trkpt lat="46.346154116728925" lon="12.181478171043567"><ele>832.0</ele><time>2026-04-25T10:54:55Z</time></trkpt><trkpt lat="46.346230799125564" lon="12.181361756628085"><ele>832.0</ele><time>2026-04-25T10:54:56Z</time></trkpt><trkpt lat="46.34630467674877" lon="12.181244057474203"><ele>832.0</ele><time>2026-04-25T10:54:57Z</time></trkpt><trkpt lat="46.346372532204" lon="12.181118763614853"><ele>832.0</ele><time>2026-04-25T10:54:58Z</time></trkpt><trkpt lat="46.34641817100672" lon="12.180972311792493"><ele>832.0</ele><time>2026-04-25T10:54:59Z</time></trkpt><trkpt lat="46.34643607022223" lon="12.180790263037817"><ele>832.3333333333333</ele><time>2026-04-25T10:55:00Z</time></trkpt><trkpt lat="46.346417786199204" lon="12.180583575670637"><ele>832.6666666666667</ele><time>2026-04-25T10:55:01Z</time></trkpt><trkpt lat="46.34637752807428" lon="12.18036447514237"><ele>833.0</ele><time>2026-04-25T10:55:02Z</time></trkpt><trkpt lat="46.34633067284034" lon="12.180146679532223"><ele>833.0</ele><time>2026-04-25T10:55:03Z</time></trkpt><trkpt lat="46.34629689175293" lon="12.179953342201978"><ele>833.0</ele><time>2026-04-25T10:55:04Z</time></trkpt><trkpt lat="46.34626399752726" lon="12.179758907027649"><ele>833.0</ele><time>2026-04-25T10:55:05Z</time></trkpt><trkpt lat="46.34622640291614" lon="12.17956476901104"><ele>833.0</ele><time>2026-04-25T10:55:06Z</time></trkpt><trkpt lat="46.34618895763783" lon="12.179371552051641"><ele>834.25</ele><time>2026-04-25T10:55:07Z</time></trkpt><trkpt lat="46.346154021556664" lon="12.179176703519365"><ele>835.5</ele><time>2026-04-25T10:55:08Z</time></trkpt><trkpt lat="46.34611844277033" lon="12.178984867100969"><ele>836.75</ele><time>2026-04-25T10:55:09Z</time></trkpt><trkpt lat="46.346082214347895" lon="12.178796762893151"><ele>838.0</ele><time>2026-04-25T10:55:10Z</time></trkpt><trkpt lat="46.346048145267474" lon="12.178617554973771"><ele>838.0</ele><time>2026-04-25T10:55:11Z</time></trkpt><trkpt lat="46.34602244889688" lon="12.178443866090586"><ele>838.0</ele><time>2026-04-25T10:55:12Z</time></trkpt><trkpt lat="46.34600189106811" lon="12.17827786702673"><ele>838.0</ele><time>2026-04-25T10:55:13Z</time></trkpt><trkpt lat="46.345979212587025" lon="12.178116619169254"><ele>838.0</ele><time>2026-04-25T10:55:13.999Z</time></trkpt><trkpt lat="46.34596393090385" lon="12.177951972689435"><ele>838.0</ele><time>2026-04-25T10:55:14.999Z</time></trkpt><trkpt lat="46.345949694759156" lon="12.17777750421765"><ele>838.0</ele><time>2026-04-25T10:55:15.999Z</time></trkpt><trkpt lat="46.345935140708235" lon="12.17759367289623"><ele>838.0</ele><time>2026-04-25T10:55:16.999Z</time></trkpt><trkpt lat="46.345927847727665" lon="12.17741307385385"><ele>838.0</ele><time>2026-04-25T10:55:17.999Z</time></trkpt><trkpt lat="46.345921100761174" lon="12.177234637296644"><ele>838.5</ele><time>2026-04-25T10:55:18.999Z</time></trkpt><trkpt lat="46.3459236081985" lon="12.177062663713311"><ele>839.0</ele><time>2026-04-25T10:55:19.999Z</time></trkpt><trkpt lat="46.34593446562803" lon="12.176887939057067"><ele>839.5</ele><time>2026-04-25T10:55:20.999Z</time></trkpt><trkpt lat="46.3459537431688" lon="12.176711744491913"><ele>840.0</ele><time>2026-04-25T10:55:21.999Z</time></trkpt><trkpt lat="46.3459783991412" lon="12.176535073502862"><ele>840.75</ele><time>2026-04-25T10:55:22.999Z</time></trkpt><trkpt lat="46.34601361782499" lon="12.176344014036127"><ele>841.5</ele><time>2026-04-25T10:55:23.999Z</time></trkpt><trkpt lat="46.34604611076824" lon="12.17614987538667"><ele>842.25</ele><time>2026-04-25T10:55:24.999Z</time></trkpt><trkpt lat="46.346074442828275" lon="12.175962559501155"><ele>843.0</ele><time>2026-04-25T10:55:25.999Z</time></trkpt><trkpt lat="46.34609968017443" lon="12.175768857945098"><ele>843.5</ele><time>2026-04-25T10:55:26.999Z</time></trkpt><trkpt lat="46.34612384469099" lon="12.175577160618243"><ele>844.0</ele><time>2026-04-25T10:55:27.999Z</time></trkpt><trkpt lat="46.34614159988549" lon="12.175382984443386"><ele>844.5</ele><time>2026-04-25T10:55:28.999Z</time></trkpt><trkpt lat="46.34615099630984" lon="12.175173889342606"><ele>845.0</ele><time>2026-04-25T10:55:29.999Z</time></trkpt><trkpt lat="46.346150489175464" lon="12.174955747806434"><ele>846.5</ele><time>2026-04-25T10:55:30.999Z</time></trkpt><trkpt lat="46.346131457101094" lon="12.174741983583337"><ele>848.0</ele><time>2026-04-25T10:55:31.999Z</time></trkpt><trkpt lat="46.346103178482" lon="12.174536819931431"><ele>849.5</ele><time>2026-04-25T10:55:32.999Z</time></trkpt><trkpt lat="46.34608154876062" lon="12.174340158663876"><ele>851.0</ele><time>2026-04-25T10:55:33.999Z</time></trkpt><trkpt lat="46.34607271673852" lon="12.174153636746167"><ele>852.0</ele><time>2026-04-25T10:55:34.999Z</time></trkpt><trkpt lat="46.346076027417375" lon="12.173967454049238"><ele>853.0</ele><time>2026-04-25T10:55:35.999Z</time></trkpt><trkpt lat="46.34608740670877" lon="12.17377435825612"><ele>854.0</ele><time>2026-04-25T10:55:36.999Z</time></trkpt><trkpt lat="46.34609820135273" lon="12.173576138997609"><ele>855.0</ele><time>2026-04-25T10:55:38Z</time></trkpt><trkpt lat="46.34611412026772" lon="12.173373574008819"><ele>855.3333333333333</ele><time>2026-04-25T10:55:39Z</time></trkpt><trkpt lat="46.346131352836295" lon="12.173163944675595"><ele>855.6666666666666</ele><time>2026-04-25T10:55:40Z</time></trkpt><trkpt lat="46.34614747394191" lon="12.172946532760738"><ele>856.0</ele><time>2026-04-25T10:55:41Z</time></trkpt><trkpt lat="46.346165928291974" lon="12.172721466499189"><ele>856.0</ele><time>2026-04-25T10:55:42Z</time></trkpt><trkpt lat="46.3461832379861" lon="12.172493073764556"><ele>856.0</ele><time>2026-04-25T10:55:43Z</time></trkpt><trkpt lat="46.346201882720926" lon="12.172261199428977"><ele>856.0</ele><time>2026-04-25T10:55:44Z</time></trkpt><trkpt lat="46.346216814941364" lon="12.172032406853324"><ele>856.0</ele><time>2026-04-25T10:55:45Z</time></trkpt><trkpt lat="46.3462305888993" lon="12.171812686552917"><ele>856.0</ele><time>2026-04-25T10:55:46Z</time></trkpt><trkpt lat="46.34624745380908" lon="12.171608289206125"><ele>856.0</ele><time>2026-04-25T10:55:47Z</time></trkpt><trkpt lat="46.346262778222545" lon="12.171401649435467"><ele>856.0</ele><time>2026-04-25T10:55:48Z</time></trkpt><trkpt lat="46.346291899033254" lon="12.171202545274992"><ele>855.75</ele><time>2026-04-25T10:55:49Z</time></trkpt><trkpt lat="46.34633375705539" lon="12.17100031933132"><ele>855.5</ele><time>2026-04-25T10:55:50Z</time></trkpt><trkpt lat="46.346379143945114" lon="12.170796713313072"><ele>855.25</ele><time>2026-04-25T10:55:51Z</time></trkpt><trkpt lat="46.34643276328895" lon="12.170616786809461"><ele>855.0</ele><time>2026-04-25T10:55:52Z</time></trkpt><trkpt lat="46.34649129026043" lon="12.170452922125985"><ele>856.8</ele><time>2026-04-25T10:55:53Z</time></trkpt><trkpt lat="46.346544132991184" lon="12.170299995177377"><ele>858.6</ele><time>2026-04-25T10:55:54Z</time></trkpt><trkpt lat="46.34657961524007" lon="12.170173715275814"><ele>860.4000000000001</ele><time>2026-04-25T10:55:55Z</time></trkpt><trkpt lat="46.34662354064561" lon="12.170063856059443"><ele>862.2</ele><time>2026-04-25T10:55:56Z</time></trkpt><trkpt lat="46.34669198174998" lon="12.169967603009747"><ele>864.0</ele><time>2026-04-25T10:55:57Z</time></trkpt><trkpt lat="46.34679882230139" lon="12.169902229907459"><ele>865.25</ele><time>2026-04-25T10:55:58Z</time></trkpt><trkpt lat="46.346936432729514" lon="12.169849067737125"><ele>866.5</ele><time>2026-04-25T10:55:59Z</time></trkpt><trkpt lat="46.34707868148811" lon="12.169757880778922"><ele>867.75</ele><time>2026-04-25T10:56:00Z</time></trkpt><trkpt lat="46.3472060783991" lon="12.169648111177244"><ele>869.0</ele><time>2026-04-25T10:56:01Z</time></trkpt><trkpt lat="46.34734112149091" lon="12.16955644408701"><ele>869.0</ele><time>2026-04-25T10:56:02Z</time></trkpt><trkpt lat="46.347476338784034" lon="12.169458816657338"><ele>869.0</ele><time>2026-04-25T10:56:03Z</time></trkpt><trkpt lat="46.3476106487873" lon="12.169356056130676"><ele>869.0</ele><time>2026-04-25T10:56:04Z</time></trkpt><trkpt lat="46.34774558602108" lon="12.169241469767236"><ele>869.0</ele><time>2026-04-25T10:56:05Z</time></trkpt><trkpt lat="46.34786900885351" lon="12.169106970947091"><ele>869.0</ele><time>2026-04-25T10:56:06Z</time></trkpt><trkpt lat="46.347982871406174" lon="12.168956812450578"><ele>869.0</ele><time>2026-04-25T10:56:07Z</time></trkpt><trkpt lat="46.34808588792633" lon="12.168785768777482"><ele>875.3333333333334</ele><time>2026-04-25T10:56:08Z</time></trkpt><trkpt lat="46.34815529635764" lon="12.168584723359505"><ele>881.6666666666667</ele><time>2026-04-25T10:56:09Z</time></trkpt><trkpt lat="46.348209799299596" lon="12.168343551830144"><ele>888.0</ele><time>2026-04-25T10:56:10Z</time></trkpt><trkpt lat="46.34824789134355" lon="12.16808105910366"><ele>888.0</ele><time>2026-04-25T10:56:11Z</time></trkpt><trkpt lat="46.348269684945876" lon="12.167832427665685"><ele>888.0</ele><time>2026-04-25T10:56:12Z</time></trkpt><trkpt lat="46.34830129353369" lon="12.167592048937575"><ele>888.0</ele><time>2026-04-25T10:56:13Z</time></trkpt><trkpt lat="46.34835051214813" lon="12.167358978730087"><ele>885.0</ele><time>2026-04-25T10:56:14Z</time></trkpt><trkpt lat="46.34839947298001" lon="12.167128633238145"><ele>882.0</ele><time>2026-04-25T10:56:15Z</time></trkpt><trkpt lat="46.34845175718475" lon="12.166899237346373"><ele>879.0</ele><time>2026-04-25T10:56:16Z</time></trkpt><trkpt lat="46.34850449733626" lon="12.166665792799256"><ele>879.0</ele><time>2026-04-25T10:56:17Z</time></trkpt><trkpt lat="46.34855929004362" lon="12.166423543392984"><ele>879.0</ele><time>2026-04-25T10:56:18Z</time></trkpt><trkpt lat="46.348619798947894" lon="12.166168242236965"><ele>879.0</ele><time>2026-04-25T10:56:19Z</time></trkpt><trkpt lat="46.34869154984915" lon="12.165914293936167"><ele>881.6666666666667</ele><time>2026-04-25T10:56:20Z</time></trkpt><trkpt lat="46.34876975355761" lon="12.16567213101772"><ele>884.3333333333334</ele><time>2026-04-25T10:56:21Z</time></trkpt><trkpt lat="46.34884273549106" lon="12.165454781440612"><ele>887.0</ele><time>2026-04-25T10:56:22Z</time></trkpt><trkpt lat="46.34890920330823" lon="12.165261604148748"><ele>887.3333333333334</ele><time>2026-04-25T10:56:23Z</time></trkpt><trkpt lat="46.348978412582035" lon="12.165073380987078"><ele>887.6666666666667</ele><time>2026-04-25T10:56:24Z</time></trkpt><trkpt lat="46.34905820790568" lon="12.164885285873204"><ele>888.0</ele><time>2026-04-25T10:56:25Z</time></trkpt><trkpt lat="46.349160819319636" lon="12.164693491695308"><ele>888.0</ele><time>2026-04-25T10:56:26Z</time></trkpt><trkpt lat="46.34927815224162" lon="12.16450156863888"><ele>888.0</ele><time>2026-04-25T10:56:27Z</time></trkpt><trkpt lat="46.3494111681767" lon="12.164312728950563"><ele>888.0</ele><time>2026-04-25T10:56:28Z</time></trkpt><trkpt lat="46.349564719917865" lon="12.164137066625262"><ele>893.6666666666667</ele><time>2026-04-25T10:56:29Z</time></trkpt><trkpt lat="46.34972771351868" lon="12.163961072644463"><ele>899.3333333333334</ele><time>2026-04-25T10:56:30Z</time></trkpt><trkpt lat="46.34989489786527" lon="12.163785324998774"><ele>905.0</ele><time>2026-04-25T10:56:31Z</time></trkpt><trkpt lat="46.35005490601807" lon="12.16359612417497"><ele>905.0</ele><time>2026-04-25T10:56:32Z</time></trkpt><trkpt lat="46.35019789712424" lon="12.163381130978506"><ele>905.0</ele><time>2026-04-25T10:56:33Z</time></trkpt><trkpt lat="46.350329383860284" lon="12.16316165573085"><ele>905.0</ele><time>2026-04-25T10:56:34Z</time></trkpt><trkpt lat="46.35046000356638" lon="12.162955167272504"><ele>907.0</ele><time>2026-04-25T10:56:35Z</time></trkpt><trkpt lat="46.350579771584194" lon="12.162772937052884"><ele>909.0</ele><time>2026-04-25T10:56:36Z</time></trkpt><trkpt lat="46.350681579076394" lon="12.16258972802554"><ele>911.0</ele><time>2026-04-25T10:56:37Z</time></trkpt><trkpt lat="46.350758876815995" lon="12.162390707083006"><ele>907.6666666666667</ele><time>2026-04-25T10:56:38Z</time></trkpt><trkpt lat="46.350808598517006" lon="12.162162634157415"><ele>904.3333333333333</ele><time>2026-04-25T10:56:39Z</time></trkpt><trkpt lat="46.35081971324343" lon="12.161908128464768"><ele>901.0</ele><time>2026-04-25T10:56:40Z</time></trkpt><trkpt lat="46.35079966380314" lon="12.16164924618371"><ele>902.6666666666666</ele><time>2026-04-25T10:56:41Z</time></trkpt><trkpt lat="46.350766115734494" lon="12.161403147646137"><ele>904.3333333333333</ele><time>2026-04-25T10:56:42Z</time></trkpt><trkpt lat="46.35074974534519" lon="12.161170132091243"><ele>906.0</ele><time>2026-04-25T10:56:43Z</time></trkpt><trkpt lat="46.35076473141149" lon="12.160945615058468"><ele>906.0</ele><time>2026-04-25T10:56:44Z</time></trkpt><trkpt lat="46.350815709391384" lon="12.160717902102611"><ele>906.0</ele><time>2026-04-25T10:56:45Z</time></trkpt><trkpt lat="46.350899788832734" lon="12.160487010507387"><ele>906.0</ele><time>2026-04-25T10:56:46Z</time></trkpt><trkpt lat="46.350992232794404" lon="12.16025787955786"><ele>907.3333333333333</ele><time>2026-04-25T10:56:47Z</time></trkpt><trkpt lat="46.351077886702214" lon="12.160038219680493"><ele>908.6666666666666</ele><time>2026-04-25T10:56:48Z</time></trkpt><trkpt lat="46.35115772063634" lon="12.15982350819445"><ele>910.0</ele><time>2026-04-25T10:56:49Z</time></trkpt><trkpt lat="46.35124148298081" lon="12.159616740573604"><ele>914.6666666666666</ele><time>2026-04-25T10:56:50Z</time></trkpt><trkpt lat="46.351328225877204" lon="12.15942254574689"><ele>919.3333333333333</ele><time>2026-04-25T10:56:51Z</time></trkpt><trkpt lat="46.351413978767276" lon="12.159229624329562"><ele>924.0</ele><time>2026-04-25T10:56:52Z</time></trkpt><trkpt lat="46.3514898817588" lon="12.159037896327037"><ele>923.3333333333333</ele><time>2026-04-25T10:56:53Z</time></trkpt><trkpt lat="46.35154364273155" lon="12.158838117697544"><ele>922.6666666666666</ele><time>2026-04-25T10:56:54Z</time></trkpt><trkpt lat="46.35156313513143" lon="12.158619330665367"><ele>922.0</ele><time>2026-04-25T10:56:55Z</time></trkpt><trkpt lat="46.35153751238959" lon="12.15838625330235"><ele>923.25</ele><time>2026-04-25T10:56:56Z</time></trkpt><trkpt lat="46.351488302624894" lon="12.158149857363814"><ele>924.5</ele><time>2026-04-25T10:56:57Z</time></trkpt><trkpt lat="46.3514583438936" lon="12.157951008082442"><ele>925.75</ele><time>2026-04-25T10:56:58Z</time></trkpt><trkpt lat="46.351452223519736" lon="12.157773693652576"><ele>927.0</ele><time>2026-04-25T10:56:59Z</time></trkpt><trkpt lat="46.3514804256608" lon="12.157605230556241"><ele>927.0</ele><time>2026-04-25T10:57:00Z</time></trkpt><trkpt lat="46.3515531160872" lon="12.157417239020464"><ele>927.0</ele><time>2026-04-25T10:57:01Z</time></trkpt><trkpt lat="46.351661455567786" lon="12.157245668328555"><ele>927.0</ele><time>2026-04-25T10:57:02Z</time></trkpt><trkpt lat="46.3517974927344" lon="12.15711022346343"><ele>926.75</ele><time>2026-04-25T10:57:03Z</time></trkpt><trkpt lat="46.3519274509484" lon="12.156999498885302"><ele>926.5</ele><time>2026-04-25T10:57:04Z</time></trkpt><trkpt lat="46.35204503893307" lon="12.156888659754618"><ele>926.25</ele><time>2026-04-25T10:57:05Z</time></trkpt><trkpt lat="46.35214355987323" lon="12.156753644975646"><ele>926.0</ele><time>2026-04-25T10:57:06Z</time></trkpt><trkpt lat="46.35222267459383" lon="12.156591185250955"><ele>925.3333333333334</ele><time>2026-04-25T10:57:07Z</time></trkpt><trkpt lat="46.352277869241966" lon="12.156404510438673"><ele>924.6666666666667</ele><time>2026-04-25T10:57:08Z</time></trkpt><trkpt lat="46.35231633679827" lon="12.156191785507861"><ele>924.0</ele><time>2026-04-25T10:57:09Z</time></trkpt><trkpt lat="46.35233513046716" lon="12.155961155469255"><ele>924.0</ele><time>2026-04-25T10:57:10Z</time></trkpt><trkpt lat="46.35234774292677" lon="12.155722649589622"><ele>924.0</ele><time>2026-04-25T10:57:11Z</time></trkpt><trkpt lat="46.35235056299063" lon="12.155475822631175"><ele>924.0</ele><time>2026-04-25T10:57:12Z</time></trkpt><trkpt lat="46.35234001780528" lon="12.155241642565267"><ele>926.6666666666667</ele><time>2026-04-25T10:57:13Z</time></trkpt><trkpt lat="46.352312423421154" lon="12.155014183420004"><ele>929.3333333333334</ele><time>2026-04-25T10:57:14Z</time></trkpt><trkpt lat="46.352266310885874" lon="12.1547941364229"><ele>932.0</ele><time>2026-04-25T10:57:15Z</time></trkpt><trkpt lat="46.35221724884161" lon="12.154577900361001"><ele>930.0</ele><time>2026-04-25T10:57:16Z</time></trkpt><trkpt lat="46.35218874190434" lon="12.154379936947814"><ele>928.0</ele><time>2026-04-25T10:57:17Z</time></trkpt><trkpt lat="46.352185160192576" lon="12.15418733743104"><ele>926.0</ele><time>2026-04-25T10:57:18Z</time></trkpt><trkpt lat="46.35222063804482" lon="12.154007426854431"><ele>924.0</ele><time>2026-04-25T10:57:19Z</time></trkpt><trkpt lat="46.35230669058748" lon="12.153836863033227"><ele>924.0</ele><time>2026-04-25T10:57:20Z</time></trkpt><trkpt lat="46.352432502690576" lon="12.153681452123926"><ele>924.0</ele><time>2026-04-25T10:57:20.999Z</time></trkpt><trkpt lat="46.35254642602414" lon="12.153532064879126"><ele>924.0</ele><time>2026-04-25T10:57:21.999Z</time></trkpt><trkpt lat="46.352655109870035" lon="12.153390219206251"><ele>924.0</ele><time>2026-04-25T10:57:22.999Z</time></trkpt><trkpt lat="46.35276289963744" lon="12.153240857231829"><ele>924.0</ele><time>2026-04-25T10:57:23.999Z</time></trkpt><trkpt lat="46.352860724594315" lon="12.153090136385865"><ele>924.0</ele><time>2026-04-25T10:57:24.999Z</time></trkpt><trkpt lat="46.35295560972682" lon="12.152932851440672"><ele>924.0</ele><time>2026-04-25T10:57:25.999Z</time></trkpt><trkpt lat="46.35303941034991" lon="12.152762344360223"><ele>929.0</ele><time>2026-04-25T10:57:26.999Z</time></trkpt><trkpt lat="46.35310826743973" lon="12.152572546743839"><ele>934.0</ele><time>2026-04-25T10:57:27.999Z</time></trkpt><trkpt lat="46.35315774038365" lon="12.152363283232134"><ele>939.0</ele><time>2026-04-25T10:57:28.999Z</time></trkpt><trkpt lat="46.35320021883441" lon="12.152142163644378"><ele>939.0</ele><time>2026-04-25T10:57:29.999Z</time></trkpt><trkpt lat="46.35323197122609" lon="12.151910785740727"><ele>939.0</ele><time>2026-04-25T10:57:30.999Z</time></trkpt><trkpt lat="46.35325160014477" lon="12.151672028560172"><ele>939.0</ele><time>2026-04-25T10:57:31.999Z</time></trkpt><trkpt lat="46.35327091275166" lon="12.15143385968373"><ele>938.3333333333333</ele><time>2026-04-25T10:57:32.999Z</time></trkpt><trkpt lat="46.35329020664318" lon="12.151208974643104"><ele>937.6666666666666</ele><time>2026-04-25T10:57:33.999Z</time></trkpt><trkpt lat="46.3533111739124" lon="12.150996426681624"><ele>937.0</ele><time>2026-04-25T10:57:34.999Z</time></trkpt><trkpt lat="46.353335530561345" lon="12.150783634156195"><ele>935.75</ele><time>2026-04-25T10:57:35.999Z</time></trkpt><trkpt lat="46.35336557070378" lon="12.150576227631399"><ele>934.5</ele><time>2026-04-25T10:57:36.999Z</time></trkpt><trkpt lat="46.3534003326994" lon="12.150371647344544"><ele>933.25</ele><time>2026-04-25T10:57:37.999Z</time></trkpt><trkpt lat="46.35343785507997" lon="12.150156405422447"><ele>932.0</ele><time>2026-04-25T10:57:38.999Z</time></trkpt><trkpt lat="46.35347627818026" lon="12.149933243302446"><ele>933.0</ele><time>2026-04-25T10:57:39.999Z</time></trkpt><trkpt lat="46.35350681882831" lon="12.149732068139176"><ele>934.0</ele><time>2026-04-25T10:57:40.999Z</time></trkpt><trkpt lat="46.35351755888773" lon="12.149546481338508"><ele>935.0</ele><time>2026-04-25T10:57:41.999Z</time></trkpt><trkpt lat="46.35350107757093" lon="12.149354218611117"><ele>936.0</ele><time>2026-04-25T10:57:42.999Z</time></trkpt><trkpt lat="46.35344400189369" lon="12.149167252428974"><ele>936.75</ele><time>2026-04-25T10:57:44Z</time></trkpt><trkpt lat="46.35334834369657" lon="12.14898073112043"><ele>937.5</ele><time>2026-04-25T10:57:45Z</time></trkpt><trkpt lat="46.35329821608793" lon="12.14878532464616"><ele>938.25</ele><time>2026-04-25T10:57:46Z</time></trkpt><trkpt lat="46.35324384605751" lon="12.148600696132155"><ele>939.0</ele><time>2026-04-25T10:57:47Z</time></trkpt><trkpt lat="46.35327504133372" lon="12.14838286208044"><ele>936.5</ele><time>2026-04-25T10:57:48Z</time></trkpt><trkpt lat="46.353305381887516" lon="12.148148070374823"><ele>934.0</ele><time>2026-04-25T10:57:49Z</time></trkpt><trkpt lat="46.35336446389984" lon="12.147953054525486"><ele>931.5</ele><time>2026-04-25T10:57:50Z</time></trkpt><trkpt lat="46.35341698633629" lon="12.147784655579361"><ele>929.0</ele><time>2026-04-25T10:57:51Z</time></trkpt><trkpt lat="46.35347552649101" lon="12.147642494579273"><ele>929.0</ele><time>2026-04-25T10:57:52Z</time></trkpt><trkpt lat="46.353542670059355" lon="12.147506031776603"><ele>929.0</ele><time>2026-04-25T10:57:53Z</time></trkpt><trkpt lat="46.35360747667123" lon="12.147370921984255"><ele>929.0</ele><time>2026-04-25T10:57:54Z</time></trkpt><trkpt lat="46.3536759556128" lon="12.147224720188017"><ele>929.0</ele><time>2026-04-25T10:57:55Z</time></trkpt><trkpt lat="46.35375543476009" lon="12.147083980354493"><ele>928.5</ele><time>2026-04-25T10:57:56Z</time></trkpt><trkpt lat="46.35384373639209" lon="12.146932219895715"><ele>928.0</ele><time>2026-04-25T10:57:57Z</time></trkpt><trkpt lat="46.353939632851294" lon="12.146768585746146"><ele>927.5</ele><time>2026-04-25T10:57:58Z</time></trkpt><trkpt lat="46.354047289106475" lon="12.146595602038602"><ele>927.0</ele><time>2026-04-25T10:57:59Z</time></trkpt><trkpt lat="46.35416176900423" lon="12.14640136396057"><ele>927.0</ele><time>2026-04-25T10:58:00Z</time></trkpt><trkpt lat="46.35428318901087" lon="12.14619005454889"><ele>927.0</ele><time>2026-04-25T10:58:01Z</time></trkpt><trkpt lat="46.35439998925789" lon="12.145990163072986"><ele>927.0</ele><time>2026-04-25T10:58:02Z</time></trkpt><trkpt lat="46.35450314844108" lon="12.145812390649791"><ele>928.5</ele><time>2026-04-25T10:58:03Z</time></trkpt><trkpt lat="46.354598998351406" lon="12.145653579236678"><ele>930.0</ele><time>2026-04-25T10:58:04Z</time></trkpt><trkpt lat="46.354683705586844" lon="12.145509002295924"><ele>931.5</ele><time>2026-04-25T10:58:05Z</time></trkpt><trkpt lat="46.35477653859263" lon="12.145355396674407"><ele>933.0</ele><time>2026-04-25T10:58:06Z</time></trkpt><trkpt lat="46.354882295983685" lon="12.145207550721365"><ele>934.3333333333333</ele><time>2026-04-25T10:58:07Z</time></trkpt><trkpt lat="46.355000568086" lon="12.145079164254689"><ele>935.6666666666666</ele><time>2026-04-25T10:58:08Z</time></trkpt><trkpt lat="46.3551338922506" lon="12.144973201592798"><ele>937.0</ele><time>2026-04-25T10:58:09Z</time></trkpt><trkpt lat="46.355280890615" lon="12.144894589409104"><ele>938.6666666666666</ele><time>2026-04-25T10:58:10Z</time></trkpt><trkpt lat="46.35543844300656" lon="12.144853420512598"><ele>940.3333333333333</ele><time>2026-04-25T10:58:11Z</time></trkpt><trkpt lat="46.355607220958035" lon="12.144825471715018"><ele>942.0</ele><time>2026-04-25T10:58:12Z</time></trkpt><trkpt lat="46.35578200627301" lon="12.144799551264718"><ele>942.0</ele><time>2026-04-25T10:58:13Z</time></trkpt><trkpt lat="46.35596126975359" lon="12.144775352992047"><ele>942.0</ele><time>2026-04-25T10:58:14Z</time></trkpt><trkpt lat="46.356145657240994" lon="12.144750329604642"><ele>942.0</ele><time>2026-04-25T10:58:15Z</time></trkpt><trkpt lat="46.3563341065232" lon="12.14472433659049"><ele>943.6666666666667</ele><time>2026-04-25T10:58:16Z</time></trkpt><trkpt lat="46.356530675016394" lon="12.144705595344009"><ele>945.3333333333334</ele><time>2026-04-25T10:58:17Z</time></trkpt><trkpt lat="46.35673285759372" lon="12.144716600209046"><ele>947.0</ele><time>2026-04-25T10:58:18Z</time></trkpt><trkpt lat="46.356938923814056" lon="12.144762188233207"><ele>947.0</ele><time>2026-04-25T10:58:19Z</time></trkpt><trkpt lat="46.35712905613972" lon="12.144791965580866"><ele>947.0</ele><time>2026-04-25T10:58:20Z</time></trkpt><trkpt lat="46.35729226422266" lon="12.144806554864406"><ele>947.0</ele><time>2026-04-25T10:58:21Z</time></trkpt><trkpt lat="46.357434372811966" lon="12.144820078486575"><ele>948.0</ele><time>2026-04-25T10:58:22Z</time></trkpt><trkpt lat="46.35756499773655" lon="12.144811975616715"><ele>949.0</ele><time>2026-04-25T10:58:23Z</time></trkpt><trkpt lat="46.357673522876134" lon="12.144760927301961"><ele>950.0</ele><time>2026-04-25T10:58:24Z</time></trkpt><trkpt lat="46.357757761717046" lon="12.144653808026229"><ele>951.0</ele><time>2026-04-25T10:58:25Z</time></trkpt><trkpt lat="46.3578138912771" lon="12.144483251659132"><ele>951.0</ele><time>2026-04-25T10:58:26Z</time></trkpt><trkpt lat="46.35783165752784" lon="12.14427256104114"><ele>951.0</ele><time>2026-04-25T10:58:27Z</time></trkpt><trkpt lat="46.35783194498733" lon="12.14403891605885"><ele>951.0</ele><time>2026-04-25T10:58:28Z</time></trkpt><trkpt lat="46.35784386749682" lon="12.14383111780567"><ele>954.5</ele><time>2026-04-25T10:58:29Z</time></trkpt><trkpt lat="46.35785943099168" lon="12.143645803655401"><ele>958.0</ele><time>2026-04-25T10:58:30Z</time></trkpt><trkpt lat="46.35789486817141" lon="12.143474186202937"><ele>961.5</ele><time>2026-04-25T10:58:31Z</time></trkpt><trkpt lat="46.35795971782784" lon="12.143315578541802"><ele>965.0</ele><time>2026-04-25T10:58:32Z</time></trkpt><trkpt lat="46.35805179185993" lon="12.14317368341596"><ele>967.25</ele><time>2026-04-25T10:58:33Z</time></trkpt><trkpt lat="46.35816706023331" lon="12.143048162387874"><ele>969.5</ele><time>2026-04-25T10:58:34Z</time></trkpt><trkpt lat="46.35828604077921" lon="12.14292324109889"><ele>971.75</ele><time>2026-04-25T10:58:35Z</time></trkpt><trkpt lat="46.35840514037502" lon="12.142796067111464"><ele>974.0</ele><time>2026-04-25T10:58:36Z</time></trkpt><trkpt lat="46.358513086146644" lon="12.142658573199933"><ele>974.0</ele><time>2026-04-25T10:58:37Z</time></trkpt><trkpt lat="46.35861544643212" lon="12.142525538129934"><ele>974.0</ele><time>2026-04-25T10:58:38Z</time></trkpt><trkpt lat="46.35872869903941" lon="12.142413075452778"><ele>974.0</ele><time>2026-04-25T10:58:39Z</time></trkpt><trkpt lat="46.35885427593195" lon="12.142320186273437"><ele>974.0</ele><time>2026-04-25T10:58:40Z</time></trkpt><trkpt lat="46.35899320679378" lon="12.142256796643238"><ele>973.0</ele><time>2026-04-25T10:58:41Z</time></trkpt><trkpt lat="46.35914261576108" lon="12.142213797781215"><ele>972.0</ele><time>2026-04-25T10:58:42Z</time></trkpt><trkpt lat="46.359297740529165" lon="12.142160920049514"><ele>971.0</ele><time>2026-04-25T10:58:43Z</time></trkpt><trkpt lat="46.35943353498763" lon="12.14208625780624"><ele>971.0</ele><time>2026-04-25T10:58:44Z</time></trkpt><trkpt lat="46.359555751660814" lon="12.141980439932732"><ele>971.0</ele><time>2026-04-25T10:58:45Z</time></trkpt><trkpt lat="46.35966833580865" lon="12.141831390151735"><ele>971.0</ele><time>2026-04-25T10:58:46Z</time></trkpt><trkpt lat="46.35977807220021" lon="12.141660538718535"><ele>972.25</ele><time>2026-04-25T10:58:47Z</time></trkpt><trkpt lat="46.359888472988516" lon="12.141501401346988"><ele>973.5</ele><time>2026-04-25T10:58:48Z</time></trkpt><trkpt lat="46.35998771195328" lon="12.14134669708463"><ele>974.75</ele><time>2026-04-25T10:58:49Z</time></trkpt><trkpt lat="46.36007361764772" lon="12.141190975604063"><ele>976.0</ele><time>2026-04-25T10:58:50Z</time></trkpt><trkpt lat="46.36015914574807" lon="12.141053521781402"><ele>976.0</ele><time>2026-04-25T10:58:51Z</time></trkpt><trkpt lat="46.36026078565895" lon="12.140951714960135"><ele>976.0</ele><time>2026-04-25T10:58:52Z</time></trkpt><trkpt lat="46.36038648165222" lon="12.140904208691088"><ele>976.0</ele><time>2026-04-25T10:58:53Z</time></trkpt><trkpt lat="46.360527817549276" lon="12.140905406655817"><ele>976.0</ele><time>2026-04-25T10:58:54Z</time></trkpt><trkpt lat="46.360678656693345" lon="12.140914566688345"><ele>980.6666666666666</ele><time>2026-04-25T10:58:55Z</time></trkpt><trkpt lat="46.3608209463461" lon="12.14085207347336"><ele>985.3333333333333</ele><time>2026-04-25T10:58:56Z</time></trkpt><trkpt lat="46.360959703344044" lon="12.14071911628853"><ele>990.0</ele><time>2026-04-25T10:58:57Z</time></trkpt><trkpt lat="46.36107319989599" lon="12.140556755381406"><ele>990.0</ele><time>2026-04-25T10:58:58Z</time></trkpt><trkpt lat="46.361173018504275" lon="12.14040812516858"><ele>990.0</ele><time>2026-04-25T10:58:59Z</time></trkpt><trkpt lat="46.36126684607404" lon="12.140265531981267"><ele>990.0</ele><time>2026-04-25T10:59:00Z</time></trkpt><trkpt lat="46.361338540812255" lon="12.140105739328297"><ele>990.0</ele><time>2026-04-25T10:59:01Z</time></trkpt><trkpt lat="46.3614073903136" lon="12.139953517664637"><ele>992.75</ele><time>2026-04-25T10:59:02Z</time></trkpt><trkpt lat="46.36150453076111" lon="12.139836949388446"><ele>995.5</ele><time>2026-04-25T10:59:03Z</time></trkpt><trkpt lat="46.36163617042403" lon="12.13977973897252"><ele>998.25</ele><time>2026-04-25T10:59:04Z</time></trkpt><trkpt lat="46.36178258653904" lon="12.139748362698846"><ele>1001.0</ele><time>2026-04-25T10:59:05Z</time></trkpt><trkpt lat="46.36193642735457" lon="12.13970752653947"><ele>1001.0</ele><time>2026-04-25T10:59:06Z</time></trkpt><trkpt lat="46.362067756640656" lon="12.13962259182474"><ele>1001.0</ele><time>2026-04-25T10:59:07Z</time></trkpt><trkpt lat="46.36219603966937" lon="12.139557377215038"><ele>1001.0</ele><time>2026-04-25T10:59:08Z</time></trkpt><trkpt lat="46.362338432912395" lon="12.139585606988021"><ele>1001.0</ele><time>2026-04-25T10:59:09Z</time></trkpt><trkpt lat="46.36247050160929" lon="12.139679445237745"><ele>1004.3333333333334</ele><time>2026-04-25T10:59:10Z</time></trkpt><trkpt lat="46.362617836608656" lon="12.139751562126792"><ele>1007.6666666666667</ele><time>2026-04-25T10:59:11Z</time></trkpt><trkpt lat="46.36277581952622" lon="12.139778279899339"><ele>1011.0</ele><time>2026-04-25T10:59:12Z</time></trkpt><trkpt lat="46.36293007365134" lon="12.13977183831999"><ele>1011.0</ele><time>2026-04-25T10:59:13Z</time></trkpt><trkpt lat="46.363070236479224" lon="12.139789966447948"><ele>1011.0</ele><time>2026-04-25T10:59:14Z</time></trkpt><trkpt lat="46.363214715715465" lon="12.139885037672261"><ele>1011.0</ele><time>2026-04-25T10:59:15Z</time></trkpt><trkpt lat="46.36335886831241" lon="12.140009800077504"><ele>1017.6666666666667</ele><time>2026-04-25T10:59:16Z</time></trkpt><trkpt lat="46.363502521034086" lon="12.140099028862753"><ele>1024.3333333333335</ele><time>2026-04-25T10:59:17Z</time></trkpt><trkpt lat="46.36364636001465" lon="12.140156359069598"><ele>1031.0</ele><time>2026-04-25T10:59:18Z</time></trkpt><trkpt lat="46.36379033947835" lon="12.140180888156749"><ele>1028.3333333333335</ele><time>2026-04-25T10:59:19Z</time></trkpt><trkpt lat="46.36394019176611" lon="12.140172419385857"><ele>1025.6666666666667</ele><time>2026-04-25T10:59:19.999Z</time></trkpt><trkpt lat="46.36408915198153" lon="12.140147897202958"><ele>1023.0</ele><time>2026-04-25T10:59:20.999Z</time></trkpt><trkpt lat="46.36424039986878" lon="12.140120699128934"><ele>1023.0</ele><time>2026-04-25T10:59:21.999Z</time></trkpt><trkpt lat="46.364392553978796" lon="12.140097019398233"><ele>1023.0</ele><time>2026-04-25T10:59:22.999Z</time></trkpt><trkpt lat="46.36454329780941" lon="12.14006987663213"><ele>1023.0</ele><time>2026-04-25T10:59:23.999Z</time></trkpt><trkpt lat="46.364682500567405" lon="12.140045529215284"><ele>1023.0</ele><time>2026-04-25T10:59:24.999Z</time></trkpt><trkpt lat="46.364813479518126" lon="12.140051112241089"><ele>1024.2</ele><time>2026-04-25T10:59:25.999Z</time></trkpt><trkpt lat="46.36495222065485" lon="12.140111209577768"><ele>1025.4</ele><time>2026-04-25T10:59:26.999Z</time></trkpt><trkpt lat="46.365060084700275" lon="12.140178390595924"><ele>1026.6000000000001</ele><time>2026-04-25T10:59:27.999Z</time></trkpt><trkpt lat="46.36514744316635" lon="12.140231669504292"><ele>1027.8</ele><time>2026-04-25T10:59:28.999Z</time></trkpt><trkpt lat="46.36522942107171" lon="12.140288339541652"><ele>1029.0</ele><time>2026-04-25T10:59:29.999Z</time></trkpt><trkpt lat="46.36529692655736" lon="12.14037796538594"><ele>1029.0</ele><time>2026-04-25T10:59:30.999Z</time></trkpt><trkpt lat="46.36531465906903" lon="12.1405015045816"><ele>1029.0</ele><time>2026-04-25T10:59:31.999Z</time></trkpt><trkpt lat="46.365272870092944" lon="12.140620029847563"><ele>1029.0</ele><time>2026-04-25T10:59:32.999Z</time></trkpt><trkpt lat="46.365182105037306" lon="12.140694612127907"><ele>1029.0</ele><time>2026-04-25T10:59:33.999Z</time></trkpt><trkpt lat="46.365058587954515" lon="12.140725673056123"><ele>1029.0</ele><time>2026-04-25T10:59:34.999Z</time></trkpt><trkpt lat="46.36492060573774" lon="12.140761246452604"><ele>1031.4</ele><time>2026-04-25T10:59:35.999Z</time></trkpt><trkpt lat="46.364819575376636" lon="12.140816668630134"><ele>1033.8000000000002</ele><time>2026-04-25T10:59:36.999Z</time></trkpt><trkpt lat="46.36474285209124" lon="12.140910798587937"><ele>1036.1999999999998</ele><time>2026-04-25T10:59:37.999Z</time></trkpt><trkpt lat="46.364704777203464" lon="12.141040000955826"><ele>1038.6</ele><time>2026-04-25T10:59:38.999Z</time></trkpt><trkpt lat="46.36471772201041" lon="12.141185111511911"><ele>1041.0</ele><time>2026-04-25T10:59:39.999Z</time></trkpt><trkpt lat="46.36477122842694" lon="12.141320941712916"><ele>1041.0</ele><time>2026-04-25T10:59:40.999Z</time></trkpt><trkpt lat="46.364863670136415" lon="12.141415524395358"><ele>1041.0</ele><time>2026-04-25T10:59:41.999Z</time></trkpt><trkpt lat="46.364977712614554" lon="12.141444260330491"><ele>1041.0</ele><time>2026-04-25T10:59:42.999Z</time></trkpt><trkpt lat="46.3651144650996" lon="12.141410589524055"><ele>1041.0</ele><time>2026-04-25T10:59:43.999Z</time></trkpt><trkpt lat="46.3652442953409" lon="12.141339617277607"><ele>1041.0</ele><time>2026-04-25T10:59:44.999Z</time></trkpt><trkpt lat="46.365353834084495" lon="12.141293747421312"><ele>1041.0</ele><time>2026-04-25T10:59:45.999Z</time></trkpt><trkpt lat="46.365474617463" lon="12.14125271534889"><ele>1041.0</ele><time>2026-04-25T10:59:46.999Z</time></trkpt><trkpt lat="46.36560175250416" lon="12.141208547943522"><ele>1041.0</ele><time>2026-04-25T10:59:47.999Z</time></trkpt><trkpt lat="46.365735903595464" lon="12.141156771386152"><ele>1044.75</ele><time>2026-04-25T10:59:49Z</time></trkpt><trkpt lat="46.36587474787963" lon="12.14110684668635"><ele>1048.5</ele><time>2026-04-25T10:59:50Z</time></trkpt><trkpt lat="46.36601119639712" lon="12.141064374793823"><ele>1052.25</ele><time>2026-04-25T10:59:51Z</time></trkpt><trkpt lat="46.366147189188275" lon="12.141028476557766"><ele>1056.0</ele><time>2026-04-25T10:59:52Z</time></trkpt><trkpt lat="46.366283141318945" lon="12.141012726679438"><ele>1058.0</ele><time>2026-04-25T10:59:53Z</time></trkpt><trkpt lat="46.3664247972114" lon="12.14103716641358"><ele>1060.0</ele><time>2026-04-25T10:59:54Z</time></trkpt><trkpt lat="46.36656511039521" lon="12.14109977502757"><ele>1062.0</ele><time>2026-04-25T10:59:55Z</time></trkpt><trkpt lat="46.36670954689433" lon="12.141181283909372"><ele>1064.0</ele><time>2026-04-25T10:59:56Z</time></trkpt><trkpt lat="46.36685067325182" lon="12.141242661172546"><ele>1064.0</ele><time>2026-04-25T10:59:57Z</time></trkpt><trkpt lat="46.36698967318891" lon="12.141287977749641"><ele>1064.0</ele><time>2026-04-25T10:59:58Z</time></trkpt><trkpt lat="46.36713108435778" lon="12.141296673113585"><ele>1064.0</ele><time>2026-04-25T10:59:59Z</time></trkpt><trkpt lat="46.3672818204689" lon="12.14126000838188"><ele>1064.0</ele><time>2026-04-25T11:00:00Z</time></trkpt><trkpt lat="46.36743350489413" lon="12.141216684264013"><ele>1063.25</ele><time>2026-04-25T11:00:01Z</time></trkpt><trkpt lat="46.36757507040283" lon="12.141183099416667"><ele>1062.5</ele><time>2026-04-25T11:00:02Z</time></trkpt><trkpt lat="46.36770822959733" lon="12.14114749754417"><ele>1061.75</ele><time>2026-04-25T11:00:03Z</time></trkpt><trkpt lat="46.36783183960993" lon="12.141108900379674"><ele>1061.0</ele><time>2026-04-25T11:00:04Z</time></trkpt><trkpt lat="46.36794997751477" lon="12.141080750811534"><ele>1064.75</ele><time>2026-04-25T11:00:05Z</time></trkpt><trkpt lat="46.368064264599205" lon="12.14106362809567"><ele>1068.5</ele><time>2026-04-25T11:00:06Z</time></trkpt><trkpt lat="46.36817900912322" lon="12.141070881726515"><ele>1072.25</ele><time>2026-04-25T11:00:07Z</time></trkpt><trkpt lat="46.3682854542495" lon="12.141114070576098"><ele>1076.0</ele><time>2026-04-25T11:00:08Z</time></trkpt><trkpt lat="46.36839364458411" lon="12.141136650886448"><ele>1076.0</ele><time>2026-04-25T11:00:09Z</time></trkpt><trkpt lat="46.36850454178673" lon="12.141111810507553"><ele>1076.0</ele><time>2026-04-25T11:00:10Z</time></trkpt><trkpt lat="46.368616629160044" lon="12.141042562315455"><ele>1076.0</ele><time>2026-04-25T11:00:11Z</time></trkpt><trkpt lat="46.368725006922965" lon="12.140934158223056"><ele>1076.0</ele><time>2026-04-25T11:00:12Z</time></trkpt><trkpt lat="46.36884079989217" lon="12.14081485844351"><ele>1081.0</ele><time>2026-04-25T11:00:13Z</time></trkpt><trkpt lat="46.36897324021366" lon="12.14069669613654"><ele>1086.0</ele><time>2026-04-25T11:00:14Z</time></trkpt><trkpt lat="46.36910473723884" lon="12.140580213769715"><ele>1091.0</ele><time>2026-04-25T11:00:15Z</time></trkpt><trkpt lat="46.3692143421369" lon="12.14043742456452"><ele>1091.0</ele><time>2026-04-25T11:00:16Z</time></trkpt><trkpt lat="46.36928493895328" lon="12.1402566180774"><ele>1091.0</ele><time>2026-04-25T11:00:17Z</time></trkpt><trkpt lat="46.36933390339641" lon="12.140081842601068"><ele>1091.0</ele><time>2026-04-25T11:00:18Z</time></trkpt><trkpt lat="46.36937893929535" lon="12.139916046767222"><ele>1091.0</ele><time>2026-04-25T11:00:19Z</time></trkpt><trkpt lat="46.36942745102242" lon="12.139758007885353"><ele>1088.75</ele><time>2026-04-25T11:00:20Z</time></trkpt><trkpt lat="46.36949701014572" lon="12.139617719645816"><ele>1086.5</ele><time>2026-04-25T11:00:21Z</time></trkpt><trkpt lat="46.369594654840604" lon="12.139488147136984"><ele>1084.25</ele><time>2026-04-25T11:00:22Z</time></trkpt><trkpt lat="46.3697070272623" lon="12.1393555508598"><ele>1082.0</ele><time>2026-04-25T11:00:23Z</time></trkpt><trkpt lat="46.369814638221406" lon="12.139196173297654"><ele>1089.0</ele><time>2026-04-25T11:00:24Z</time></trkpt><trkpt lat="46.36993144632811" lon="12.139039340119583"><ele>1096.0</ele><time>2026-04-25T11:00:25Z</time></trkpt><trkpt lat="46.370068573173256" lon="12.138911527477907"><ele>1103.0</ele><time>2026-04-25T11:00:26Z</time></trkpt><trkpt lat="46.37021186388295" lon="12.138802084493783"><ele>1103.0</ele><time>2026-04-25T11:00:27Z</time></trkpt><trkpt lat="46.370346268288095" lon="12.13867890404643"><ele>1103.0</ele><time>2026-04-25T11:00:28Z</time></trkpt><trkpt lat="46.370474663785615" lon="12.13852778913057"><ele>1103.0</ele><time>2026-04-25T11:00:29Z</time></trkpt><trkpt lat="46.37061062110223" lon="12.138374456236518"><ele>1107.3333333333335</ele><time>2026-04-25T11:00:30Z</time></trkpt><trkpt lat="46.37075479889154" lon="12.138236849873133"><ele>1111.6666666666667</ele><time>2026-04-25T11:00:31Z</time></trkpt><trkpt lat="46.370886715829194" lon="12.138116148628104"><ele>1116.0</ele><time>2026-04-25T11:00:32Z</time></trkpt><trkpt lat="46.37099356099639" lon="12.138017577121502"><ele>1116.0</ele><time>2026-04-25T11:00:33Z</time></trkpt><trkpt lat="46.37109395640324" lon="12.137925561885302"><ele>1116.0</ele><time>2026-04-25T11:00:34Z</time></trkpt><trkpt lat="46.371197866856484" lon="12.137828998194925"><ele>1116.0</ele><time>2026-04-25T11:00:35Z</time></trkpt><trkpt lat="46.3713028876077" lon="12.137738305294222"><ele>1116.0</ele><time>2026-04-25T11:00:36Z</time></trkpt><trkpt lat="46.37142546692136" lon="12.137685096724976"><ele>1119.6666666666667</ele><time>2026-04-25T11:00:37Z</time></trkpt><trkpt lat="46.37156430429221" lon="12.137687320961229"><ele>1123.3333333333335</ele><time>2026-04-25T11:00:38Z</time></trkpt><trkpt lat="46.37170723188937" lon="12.137739827572386"><ele>1127.0</ele><time>2026-04-25T11:00:39Z</time></trkpt><trkpt lat="46.37186333878846" lon="12.137821661812342"><ele>1127.0</ele><time>2026-04-25T11:00:40Z</time></trkpt><trkpt lat="46.372001981562875" lon="12.13789709039725"><ele>1127.0</ele><time>2026-04-25T11:00:41Z</time></trkpt><trkpt lat="46.372114246529414" lon="12.137963951626983"><ele>1127.0</ele><time>2026-04-25T11:00:42Z</time></trkpt><trkpt lat="46.372214135106155" lon="12.13802388107295"><ele>1127.0</ele><time>2026-04-25T11:00:43Z</time></trkpt><trkpt lat="46.37231645427204" lon="12.138084791617956"><ele>1129.25</ele><time>2026-04-25T11:00:44Z</time></trkpt><trkpt lat="46.37240904657933" lon="12.138109465436335"><ele>1131.5</ele><time>2026-04-25T11:00:45Z</time></trkpt><trkpt lat="46.37250525901469" lon="12.138071160564854"><ele>1133.75</ele><time>2026-04-25T11:00:46Z</time></trkpt><trkpt lat="46.372595605932744" lon="12.137963396061446"><ele>1136.0</ele><time>2026-04-25T11:00:47Z</time></trkpt><trkpt lat="46.37268328530312" lon="12.137805059198307"><ele>1136.0</ele><time>2026-04-25T11:00:48Z</time></trkpt><trkpt lat="46.37278620710201" lon="12.137632938237711"><ele>1136.0</ele><time>2026-04-25T11:00:49Z</time></trkpt><trkpt lat="46.372887686146676" lon="12.137468339217005"><ele>1136.0</ele><time>2026-04-25T11:00:50Z</time></trkpt><trkpt lat="46.37298049172093" lon="12.13732488356897"><ele>1136.0</ele><time>2026-04-25T11:00:51Z</time></trkpt><trkpt lat="46.373066714750905" lon="12.137192909038076"><ele>1140.75</ele><time>2026-04-25T11:00:52Z</time></trkpt><trkpt lat="46.37314473580857" lon="12.137061280953066"><ele>1145.5</ele><time>2026-04-25T11:00:53Z</time></trkpt><trkpt lat="46.37321559324239" lon="12.136928752780179"><ele>1150.25</ele><time>2026-04-25T11:00:54Z</time></trkpt><trkpt lat="46.373251396678626" lon="12.136779161536118"><ele>1155.0</ele><time>2026-04-25T11:00:55Z</time></trkpt><trkpt lat="46.37323180801958" lon="12.136612790940818"><ele>1158.0</ele><time>2026-04-25T11:00:56Z</time></trkpt><trkpt lat="46.373165244942925" lon="12.136443394381079"><ele>1161.0</ele><time>2026-04-25T11:00:57Z</time></trkpt><trkpt lat="46.373074312493394" lon="12.136286470612953"><ele>1164.0</ele><time>2026-04-25T11:00:58Z</time></trkpt><trkpt lat="46.37299961731979" lon="12.136171437500645"><ele>1167.0</ele><time>2026-04-25T11:00:59Z</time></trkpt><trkpt lat="46.37293676805178" lon="12.13606054490774"><ele>1158.75</ele><time>2026-04-25T11:01:00Z</time></trkpt><trkpt lat="46.3728919869121" lon="12.135926132306393"><ele>1150.5</ele><time>2026-04-25T11:01:01Z</time></trkpt><trkpt lat="46.37287892088556" lon="12.13576437981436"><ele>1142.25</ele><time>2026-04-25T11:01:02Z</time></trkpt><trkpt lat="46.37291072681845" lon="12.135589972079424"><ele>1134.0</ele><time>2026-04-25T11:01:03Z</time></trkpt><trkpt lat="46.37296625646104" lon="12.135397027058788"><ele>1131.25</ele><time>2026-04-25T11:01:04Z</time></trkpt><trkpt lat="46.37301289796603" lon="12.135225154283297"><ele>1128.5</ele><time>2026-04-25T11:01:05Z</time></trkpt><trkpt lat="46.373064373439675" lon="12.135093154768075"><ele>1125.75</ele><time>2026-04-25T11:01:06Z</time></trkpt><trkpt lat="46.37313641643691" lon="12.134987796384149"><ele>1123.0</ele><time>2026-04-25T11:01:07Z</time></trkpt><trkpt lat="46.373203942146" lon="12.13484345603971"><ele>1132.5</ele><time>2026-04-25T11:01:08Z</time></trkpt><trkpt lat="46.37324316220666" lon="12.134670431490763"><ele>1142.0</ele><time>2026-04-25T11:01:09Z</time></trkpt><trkpt lat="46.37327595207565" lon="12.13449687833274"><ele>1151.5</ele><time>2026-04-25T11:01:10Z</time></trkpt><trkpt lat="46.37329114561152" lon="12.134326061338482"><ele>1161.0</ele><time>2026-04-25T11:01:11Z</time></trkpt><trkpt lat="46.37330883062878" lon="12.134180001533494"><ele>1162.0</ele><time>2026-04-25T11:01:12Z</time></trkpt><trkpt lat="46.373311785127456" lon="12.134023912988951"><ele>1163.0</ele><time>2026-04-25T11:01:13Z</time></trkpt><trkpt lat="46.37331482212105" lon="12.133863310513819"><ele>1164.0</ele><time>2026-04-25T11:01:14Z</time></trkpt><trkpt lat="46.373310265514114" lon="12.133684616448367"><ele>1165.0</ele><time>2026-04-25T11:01:15Z</time></trkpt><trkpt lat="46.373314398655005" lon="12.133489249875849"><ele>1165.0</ele><time>2026-04-25T11:01:16Z</time></trkpt><trkpt lat="46.37331173867095" lon="12.133284068150964"><ele>1165.0</ele><time>2026-04-25T11:01:17Z</time></trkpt><trkpt lat="46.37330557628765" lon="12.133077803759283"><ele>1165.0</ele><time>2026-04-25T11:01:17.999Z</time></trkpt><trkpt lat="46.37328902379966" lon="12.13287446691549"><ele>1165.0</ele><time>2026-04-25T11:01:18.999Z</time></trkpt><trkpt lat="46.37325988170016" lon="12.132666166058884"><ele>1165.5</ele><time>2026-04-25T11:01:19.999Z</time></trkpt><trkpt lat="46.37323438089771" lon="12.132466144476364"><ele>1166.0</ele><time>2026-04-25T11:01:20.999Z</time></trkpt><trkpt lat="46.37323474940582" lon="12.132265452283091"><ele>1166.5</ele><time>2026-04-25T11:01:21.999Z</time></trkpt><trkpt lat="46.37324313497979" lon="12.132036185906655"><ele>1167.0</ele><time>2026-04-25T11:01:22.999Z</time></trkpt><trkpt lat="46.37329124284479" lon="12.131807792541657"><ele>1167.0</ele><time>2026-04-25T11:01:23.999Z</time></trkpt><trkpt lat="46.373391261691935" lon="12.131620671183041"><ele>1167.0</ele><time>2026-04-25T11:01:24.999Z</time></trkpt><trkpt lat="46.3734715395561" lon="12.131418761237653"><ele>1167.0</ele><time>2026-04-25T11:01:25.999Z</time></trkpt><trkpt lat="46.373557622038305" lon="12.13121282845589"><ele>1162.3333333333333</ele><time>2026-04-25T11:01:26.999Z</time></trkpt><trkpt lat="46.37364147861982" lon="12.131037292929648"><ele>1157.6666666666665</ele><time>2026-04-25T11:01:27.999Z</time></trkpt><trkpt lat="46.37374849126825" lon="12.13088929658449"><ele>1153.0</ele><time>2026-04-25T11:01:28.999Z</time></trkpt><trkpt lat="46.373877707557675" lon="12.130762650042186"><ele>1158.75</ele><time>2026-04-25T11:01:29.999Z</time></trkpt><trkpt lat="46.37400143853197" lon="12.130637026931621"><ele>1164.5</ele><time>2026-04-25T11:01:30.999Z</time></trkpt><trkpt lat="46.37410707979899" lon="12.130496251960347"><ele>1170.25</ele><time>2026-04-25T11:01:31.999Z</time></trkpt><trkpt lat="46.37418399651591" lon="12.130321808359689"><ele>1176.0</ele><time>2026-04-25T11:01:32.999Z</time></trkpt><trkpt lat="46.37423695264988" lon="12.13011701943321"><ele>1176.0</ele><time>2026-04-25T11:01:33.999Z</time></trkpt><trkpt lat="46.374270083899525" lon="12.129911573430592"><ele>1176.0</ele><time>2026-04-25T11:01:34.999Z</time></trkpt><trkpt lat="46.374281719579734" lon="12.129709500489106"><ele>1176.0</ele><time>2026-04-25T11:01:35.999Z</time></trkpt><trkpt lat="46.37426554954492" lon="12.129529272502902"><ele>1176.0</ele><time>2026-04-25T11:01:36.999Z</time></trkpt><trkpt lat="46.37421046516489" lon="12.129335209415308"><ele>1176.5</ele><time>2026-04-25T11:01:37.999Z</time></trkpt><trkpt lat="46.37412587869387" lon="12.12915093282206"><ele>1177.0</ele><time>2026-04-25T11:01:38.999Z</time></trkpt><trkpt lat="46.37404651495765" lon="12.128984223338684"><ele>1177.5</ele><time>2026-04-25T11:01:39.999Z</time></trkpt><trkpt lat="46.37397668105897" lon="12.128828767768601"><ele>1178.0</ele><time>2026-04-25T11:01:40.999Z</time></trkpt><trkpt lat="46.373893044580875" lon="12.128678589136454"><ele>1172.75</ele><time>2026-04-25T11:01:41.999Z</time></trkpt><trkpt lat="46.37378697206362" lon="12.128559490679937"><ele>1167.5</ele><time>2026-04-25T11:01:42.999Z</time></trkpt><trkpt lat="46.37367976542767" lon="12.128459500272664"><ele>1162.25</ele><time>2026-04-25T11:01:43.999Z</time></trkpt><trkpt lat="46.37359667739804" lon="12.128360095272733"><ele>1157.0</ele><time>2026-04-25T11:01:44.999Z</time></trkpt><trkpt lat="46.373544763383784" lon="12.128247752779082"><ele>1156.2</ele><time>2026-04-25T11:01:45.999Z</time></trkpt><trkpt lat="46.373533930313386" lon="12.128116637614223"><ele>1155.4</ele><time>2026-04-25T11:01:46.999Z</time></trkpt><trkpt lat="46.37356894722675" lon="12.127978109826474"><ele>1154.6</ele><time>2026-04-25T11:01:47.999Z</time></trkpt><trkpt lat="46.37365039653362" lon="12.127877144217985"><ele>1153.8</ele><time>2026-04-25T11:01:48.999Z</time></trkpt><trkpt lat="46.37376838051486" lon="12.127823746603227"><ele>1153.0</ele><time>2026-04-25T11:01:49.999Z</time></trkpt><trkpt lat="46.373890665872636" lon="12.127781507962986"><ele>1158.0</ele><time>2026-04-25T11:01:50.999Z</time></trkpt><trkpt lat="46.37401586533364" lon="12.127737227010844"><ele>1163.0</ele><time>2026-04-25T11:01:51.999Z</time></trkpt><trkpt lat="46.37412794433967" lon="12.127694170586926"><ele>1168.0</ele><time>2026-04-25T11:01:52.999Z</time></trkpt><trkpt lat="46.37423947480297" lon="12.12765125535323"><ele>1173.0</ele><time>2026-04-25T11:01:53.999Z</time></trkpt><trkpt lat="46.37435720633507" lon="12.127607445796103"><ele>1173.0</ele><time>2026-04-25T11:01:55Z</time></trkpt><trkpt lat="46.37447917789435" lon="12.127557964610753"><ele>1173.0</ele><time>2026-04-25T11:01:56Z</time></trkpt><trkpt lat="46.37460798429286" lon="12.127508636884489"><ele>1173.0</ele><time>2026-04-25T11:01:57Z</time></trkpt><trkpt lat="46.37473975184951" lon="12.127465441269848"><ele>1173.0</ele><time>2026-04-25T11:01:58Z</time></trkpt><trkpt lat="46.374870990373665" lon="12.127421652153718"><ele>1175.5</ele><time>2026-04-25T11:01:59Z</time></trkpt><trkpt lat="46.375003490507076" lon="12.127368678148038"><ele>1178.0</ele><time>2026-04-25T11:02:00Z</time></trkpt><trkpt lat="46.37512949854936" lon="12.127321366711906"><ele>1180.5</ele><time>2026-04-25T11:02:01Z</time></trkpt><trkpt lat="46.37525680023224" lon="12.127272542814527"><ele>1183.0</ele><time>2026-04-25T11:02:02Z</time></trkpt><trkpt lat="46.375379527007944" lon="12.127210879267475"><ele>1183.0</ele><time>2026-04-25T11:02:03Z</time></trkpt><trkpt lat="46.375484490107915" lon="12.127124474925616"><ele>1183.0</ele><time>2026-04-25T11:02:04Z</time></trkpt><trkpt lat="46.37557066187525" lon="12.127004551000939"><ele>1183.0</ele><time>2026-04-25T11:02:05Z</time></trkpt><trkpt lat="46.37562881094314" lon="12.126851420950631"><ele>1183.0</ele><time>2026-04-25T11:02:06Z</time></trkpt><trkpt lat="46.37564874229471" lon="12.12667759812734"><ele>1186.25</ele><time>2026-04-25T11:02:07Z</time></trkpt><trkpt lat="46.37564234318827" lon="12.126485173526449"><ele>1189.5</ele><time>2026-04-25T11:02:08Z</time></trkpt><trkpt lat="46.37562902684757" lon="12.126284248561626"><ele>1192.75</ele><time>2026-04-25T11:02:09Z</time></trkpt><trkpt lat="46.37562690652842" lon="12.126103359948019"><ele>1196.0</ele><time>2026-04-25T11:02:10Z</time></trkpt><trkpt lat="46.37562073066653" lon="12.125925368930142"><ele>1196.0</ele><time>2026-04-25T11:02:11Z</time></trkpt><trkpt lat="46.37561291260257" lon="12.125747536647541"><ele>1196.0</ele><time>2026-04-25T11:02:12Z</time></trkpt><trkpt lat="46.37560796818135" lon="12.125571774156723"><ele>1196.0</ele><time>2026-04-25T11:02:13Z</time></trkpt><trkpt lat="46.375605523891856" lon="12.1253944947308"><ele>1196.0</ele><time>2026-04-25T11:02:14Z</time></trkpt><trkpt lat="46.375599670905615" lon="12.125212856716503"><ele>1196.25</ele><time>2026-04-25T11:02:15Z</time></trkpt><trkpt lat="46.37559695879101" lon="12.125037339148573"><ele>1196.5</ele><time>2026-04-25T11:02:16Z</time></trkpt><trkpt lat="46.3756113028267" lon="12.12486158665667"><ele>1196.75</ele><time>2026-04-25T11:02:17Z</time></trkpt><trkpt lat="46.375657897878" lon="12.124684069804495"><ele>1197.0</ele><time>2026-04-25T11:02:18Z</time></trkpt><trkpt lat="46.37573568987146" lon="12.124528839678087"><ele>1197.5</ele><time>2026-04-25T11:02:19Z</time></trkpt><trkpt lat="46.375846431107725" lon="12.124417783469486"><ele>1198.0</ele><time>2026-04-25T11:02:20Z</time></trkpt><trkpt lat="46.37598019025186" lon="12.124357212141176"><ele>1198.5</ele><time>2026-04-25T11:02:21Z</time></trkpt><trkpt lat="46.37612561473411" lon="12.124343416923407"><ele>1199.0</ele><time>2026-04-25T11:02:22Z</time></trkpt><trkpt lat="46.37627599205525" lon="12.124346723150373"><ele>1201.25</ele><time>2026-04-25T11:02:23Z</time></trkpt><trkpt lat="46.376417002558554" lon="12.124355983414917"><ele>1203.5</ele><time>2026-04-25T11:02:24Z</time></trkpt><trkpt lat="46.376550597808816" lon="12.124358437636086"><ele>1205.75</ele><time>2026-04-25T11:02:25Z</time></trkpt><trkpt lat="46.376677897731355" lon="12.124362202609623"><ele>1208.0</ele><time>2026-04-25T11:02:26Z</time></trkpt><trkpt lat="46.37680332744203" lon="12.124369890153751"><ele>1208.0</ele><time>2026-04-25T11:02:27Z</time></trkpt><trkpt lat="46.376926337976464" lon="12.12437462976871"><ele>1208.0</ele><time>2026-04-25T11:02:28Z</time></trkpt><trkpt lat="46.377053939654175" lon="12.12437735780785"><ele>1208.0</ele><time>2026-04-25T11:02:29Z</time></trkpt><trkpt lat="46.37718287694434" lon="12.124382788091289"><ele>1208.0</ele><time>2026-04-25T11:02:30Z</time></trkpt><trkpt lat="46.37731426252156" lon="12.124389378180616"><ele>1211.0</ele><time>2026-04-25T11:02:31Z</time></trkpt><trkpt lat="46.377444255341935" lon="12.12439551981024"><ele>1214.0</ele><time>2026-04-25T11:02:32Z</time></trkpt><trkpt lat="46.3775716774097" lon="12.124407154846867"><ele>1217.0</ele><time>2026-04-25T11:02:33Z</time></trkpt><trkpt lat="46.37769890847538" lon="12.124435891526057"><ele>1220.0</ele><time>2026-04-25T11:02:34Z</time></trkpt><trkpt lat="46.377821656315504" lon="12.124501254073744"><ele>1220.0</ele><time>2026-04-25T11:02:35Z</time></trkpt><trkpt lat="46.37793196538251" lon="12.12460515857341"><ele>1220.0</ele><time>2026-04-25T11:02:36Z</time></trkpt><trkpt lat="46.378027142397954" lon="12.124730699161063"><ele>1220.0</ele><time>2026-04-25T11:02:37Z</time></trkpt><trkpt lat="46.37811297505833" lon="12.124853164263898"><ele>1220.0</ele><time>2026-04-25T11:02:38Z</time></trkpt><trkpt lat="46.37819930865919" lon="12.124960987587192"><ele>1221.25</ele><time>2026-04-25T11:02:39Z</time></trkpt><trkpt lat="46.378299158082065" lon="12.12502613191223"><ele>1222.5</ele><time>2026-04-25T11:02:40Z</time></trkpt><trkpt lat="46.3784123642231" lon="12.125034805789076"><ele>1223.75</ele><time>2026-04-25T11:02:41Z</time></trkpt><trkpt lat="46.37853309080174" lon="12.125003003159817"><ele>1225.0</ele><time>2026-04-25T11:02:42Z</time></trkpt><trkpt lat="46.378656411738554" lon="12.124972333474792"><ele>1225.0</ele><time>2026-04-25T11:02:43Z</time></trkpt><trkpt lat="46.37877796894279" lon="12.12495004669767"><ele>1225.0</ele><time>2026-04-25T11:02:44Z</time></trkpt><trkpt lat="46.37889713449394" lon="12.124915429430878"><ele>1225.0</ele><time>2026-04-25T11:02:45Z</time></trkpt><trkpt lat="46.3790072529953" lon="12.124846740352904"><ele>1225.0</ele><time>2026-04-25T11:02:46Z</time></trkpt><trkpt lat="46.379096231431745" lon="12.1247322041527"><ele>1228.0</ele><time>2026-04-25T11:02:47Z</time></trkpt><trkpt lat="46.37915849897188" lon="12.124576773686869"><ele>1231.0</ele><time>2026-04-25T11:02:48Z</time></trkpt><trkpt lat="46.379185992579366" lon="12.124398460340679"><ele>1234.0</ele><time>2026-04-25T11:02:49Z</time></trkpt><trkpt lat="46.37921248831184" lon="12.124223600785923"><ele>1237.0</ele><time>2026-04-25T11:02:50Z</time></trkpt><trkpt lat="46.37923861912997" lon="12.12403415133655"><ele>1237.0</ele><time>2026-04-25T11:02:51Z</time></trkpt><trkpt lat="46.37927040229378" lon="12.123843080060846"><ele>1237.0</ele><time>2026-04-25T11:02:52Z</time></trkpt><trkpt lat="46.379302492372055" lon="12.123652972512192"><ele>1237.0</ele><time>2026-04-25T11:02:53Z</time></trkpt><trkpt lat="46.379329215716034" lon="12.123467019155733"><ele>1237.0</ele><time>2026-04-25T11:02:54Z</time></trkpt><trkpt lat="46.37935409229684" lon="12.123288295355506"><ele>1237.25</ele><time>2026-04-25T11:02:55Z</time></trkpt><trkpt lat="46.379382756108505" lon="12.12310995564518"><ele>1237.5</ele><time>2026-04-25T11:02:56Z</time></trkpt><trkpt lat="46.3794091170435" lon="12.122934506208809"><ele>1237.75</ele><time>2026-04-25T11:02:57Z</time></trkpt><trkpt lat="46.37943334989338" lon="12.122758060502123"><ele>1238.0</ele><time>2026-04-25T11:02:58Z</time></trkpt><trkpt lat="46.37946190429445" lon="12.122573330034779"><ele>1238.0</ele><time>2026-04-25T11:02:59Z</time></trkpt><trkpt lat="46.37949796046496" lon="12.122391653269725"><ele>1238.0</ele><time>2026-04-25T11:03:00Z</time></trkpt><trkpt lat="46.37954719812517" lon="12.122225554532037"><ele>1238.0</ele><time>2026-04-25T11:03:01Z</time></trkpt><trkpt lat="46.37961647102102" lon="12.12208329904642"><ele>1238.0</ele><time>2026-04-25T11:03:02Z</time></trkpt><trkpt lat="46.37972465658201" lon="12.121985080136698"><ele>1241.75</ele><time>2026-04-25T11:03:03Z</time></trkpt><trkpt lat="46.379859530740966" lon="12.121939116110045"><ele>1245.5</ele><time>2026-04-25T11:03:04Z</time></trkpt><trkpt lat="46.38000143458482" lon="12.12191388533282"><ele>1249.25</ele><time>2026-04-25T11:03:05Z</time></trkpt><trkpt lat="46.38013558625135" lon="12.121887914357867"><ele>1253.0</ele><time>2026-04-25T11:03:06Z</time></trkpt><trkpt lat="46.380269199931526" lon="12.12185702434891"><ele>1253.0</ele><time>2026-04-25T11:03:07Z</time></trkpt><trkpt lat="46.38040488962698" lon="12.121816065883616"><ele>1253.0</ele><time>2026-04-25T11:03:08Z</time></trkpt><trkpt lat="46.38053710149911" lon="12.12177860808153"><ele>1253.0</ele><time>2026-04-25T11:03:09Z</time></trkpt><trkpt lat="46.38066532429394" lon="12.121750140870873"><ele>1253.0</ele><time>2026-04-25T11:03:10Z</time></trkpt><trkpt lat="46.380776477242755" lon="12.121721627752626"><ele>1254.8333333333335</ele><time>2026-04-25T11:03:11Z</time></trkpt><trkpt lat="46.380865722860015" lon="12.121696804779505"><ele>1256.6666666666667</ele><time>2026-04-25T11:03:12Z</time></trkpt><trkpt lat="46.380947723884" lon="12.121680135229434"><ele>1258.5</ele><time>2026-04-25T11:03:13Z</time></trkpt><trkpt lat="46.381023711138766" lon="12.121668148764472"><ele>1260.3333333333333</ele><time>2026-04-25T11:03:14Z</time></trkpt><trkpt lat="46.38108816962694" lon="12.121667571778703"><ele>1262.1666666666665</ele><time>2026-04-25T11:03:15Z</time></trkpt><trkpt lat="46.38115830721333" lon="12.121689255520476"><ele>1264.0</ele><time>2026-04-25T11:03:16Z</time></trkpt><trkpt lat="46.38122870465953" lon="12.121740531690339"><ele>1264.0</ele><time>2026-04-25T11:03:17Z</time></trkpt><trkpt lat="46.38129105452226" lon="12.121830673902455"><ele>1264.0</ele><time>2026-04-25T11:03:18Z</time></trkpt><trkpt lat="46.38133786007818" lon="12.121955914745419"><ele>1264.0</ele><time>2026-04-25T11:03:19Z</time></trkpt><trkpt lat="46.381373813294495" lon="12.122084620618715"><ele>1264.0</ele><time>2026-04-25T11:03:20Z</time></trkpt><trkpt lat="46.381410534198544" lon="12.122204580913339"><ele>1264.0</ele><time>2026-04-25T11:03:21Z</time></trkpt><trkpt lat="46.38145476841605" lon="12.122316553418267"><ele>1265.5</ele><time>2026-04-25T11:03:22Z</time></trkpt><trkpt lat="46.38149485114935" lon="12.122411195856408"><ele>1267.0</ele><time>2026-04-25T11:03:23Z</time></trkpt><trkpt lat="46.38154145686158" lon="12.12247783490357"><ele>1268.5</ele><time>2026-04-25T11:03:23.999Z</time></trkpt><trkpt lat="46.381612319981436" lon="12.122503331079114"><ele>1270.0</ele><time>2026-04-25T11:03:24.999Z</time></trkpt><trkpt lat="46.381690624850584" lon="12.122466621079395"><ele>1271.5</ele><time>2026-04-25T11:03:25.999Z</time></trkpt><trkpt lat="46.381763437571784" lon="12.122364348175203"><ele>1273.0</ele><time>2026-04-25T11:03:26.999Z</time></trkpt><trkpt lat="46.38183131747877" lon="12.122252296712798"><ele>1273.0</ele><time>2026-04-25T11:03:27.999Z</time></trkpt><trkpt lat="46.381897810335325" lon="12.122137054887125"><ele>1273.0</ele><time>2026-04-25T11:03:28.999Z</time></trkpt><trkpt lat="46.381953449685604" lon="12.122046640201484"><ele>1273.0</ele><time>2026-04-25T11:03:29.999Z</time></trkpt><trkpt lat="46.382016548772334" lon="12.121955617433198"><ele>1273.0</ele><time>2026-04-25T11:03:30.999Z</time></trkpt><trkpt lat="46.382078282302516" lon="12.121851242633177"><ele>1273.0</ele><time>2026-04-25T11:03:31.999Z</time></trkpt><trkpt lat="46.38213594619801" lon="12.121738159181735"><ele>1273.0</ele><time>2026-04-25T11:03:32.999Z</time></trkpt><trkpt lat="46.3821768449396" lon="12.121617432955372"><ele>1273.0</ele><time>2026-04-25T11:03:33.999Z</time></trkpt><trkpt lat="46.38219890323445" lon="12.121478148660415"><ele>1273.0</ele><time>2026-04-25T11:03:34.999Z</time></trkpt><trkpt lat="46.38220590556661" lon="12.121319927820748"><ele>1273.0</ele><time>2026-04-25T11:03:35.999Z</time></trkpt><trkpt lat="46.382201829847155" lon="12.121162964259554"><ele>1273.0</ele><time>2026-04-25T11:03:36.999Z</time></trkpt><trkpt lat="46.38220277747073" lon="12.121016619791483"><ele>1277.25</ele><time>2026-04-25T11:03:37.999Z</time></trkpt><trkpt lat="46.38221748945984" lon="12.12086571271925"><ele>1281.5</ele><time>2026-04-25T11:03:38.999Z</time></trkpt><trkpt lat="46.382243349732775" lon="12.12071384374938"><ele>1285.75</ele><time>2026-04-25T11:03:39.999Z</time></trkpt><trkpt lat="46.38228951363965" lon="12.120559474376465"><ele>1290.0</ele><time>2026-04-25T11:03:40.999Z</time></trkpt><trkpt lat="46.38237488206613" lon="12.120424762479034"><ele>1290.0</ele><time>2026-04-25T11:03:41.999Z</time></trkpt><trkpt lat="46.38246077068391" lon="12.120274208758902"><ele>1290.0</ele><time>2026-04-25T11:03:42.999Z</time></trkpt><trkpt lat="46.38257583692625" lon="12.120142004472898"><ele>1290.0</ele><time>2026-04-25T11:03:43.999Z</time></trkpt><trkpt lat="46.382692681187535" lon="12.11999582685219"><ele>1290.0</ele><time>2026-04-25T11:03:44.999Z</time></trkpt><trkpt lat="46.382810375223464" lon="12.119841728069597"><ele>1292.6666666666667</ele><time>2026-04-25T11:03:45.999Z</time></trkpt><trkpt lat="46.38292698348605" lon="12.119691776488235"><ele>1295.3333333333335</ele><time>2026-04-25T11:03:46.999Z</time></trkpt><trkpt lat="46.3830462773876" lon="12.119542926194363"><ele>1298.0</ele><time>2026-04-25T11:03:47.999Z</time></trkpt><trkpt lat="46.38316666896418" lon="12.11939437891249"><ele>1298.0</ele><time>2026-04-25T11:03:48.999Z</time></trkpt><trkpt lat="46.38328184427884" lon="12.119247616782701"><ele>1298.0</ele><time>2026-04-25T11:03:49.999Z</time></trkpt><trkpt lat="46.38339212899199" lon="12.119106450641608"><ele>1298.0</ele><time>2026-04-25T11:03:50.999Z</time></trkpt><trkpt lat="46.38349827684326" lon="12.118971339136493"><ele>1298.0</ele><time>2026-04-25T11:03:51.999Z</time></trkpt><trkpt lat="46.38360171908884" lon="12.11883941855874"><ele>1298.25</ele><time>2026-04-25T11:03:52.999Z</time></trkpt><trkpt lat="46.383707755396436" lon="12.118705372302728"><ele>1298.5</ele><time>2026-04-25T11:03:53.999Z</time></trkpt><trkpt lat="46.383816661471556" lon="12.118564377923375"><ele>1298.75</ele><time>2026-04-25T11:03:54.999Z</time></trkpt><trkpt lat="46.38392404875123" lon="12.118426288481649"><ele>1299.0</ele><time>2026-04-25T11:03:55.999Z</time></trkpt><trkpt lat="46.38402542753998" lon="12.118293368522423"><ele>1303.75</ele><time>2026-04-25T11:03:56.999Z</time></trkpt><trkpt lat="46.384121174444616" lon="12.11815439723859"><ele>1308.5</ele><time>2026-04-25T11:03:57.999Z</time></trkpt><trkpt lat="46.3842092836369" lon="12.118003427203114"><ele>1313.25</ele><time>2026-04-25T11:03:58.999Z</time></trkpt><trkpt lat="46.384289742415575" lon="12.117840908082027"><ele>1318.0</ele><time>2026-04-25T11:03:59.999Z</time></trkpt><trkpt lat="46.38435317634877" lon="12.117681550095941"><ele>1318.0</ele><time>2026-04-25T11:04:01Z</time></trkpt><trkpt lat="46.38438982222541" lon="12.117551377715936"><ele>1318.0</ele><time>2026-04-25T11:04:02Z</time></trkpt><trkpt lat="46.38442148886442" lon="12.11743897649491"><ele>1318.0</ele><time>2026-04-25T11:04:03Z</time></trkpt><trkpt lat="46.384452247082535" lon="12.11733971981406"><ele>1318.0</ele><time>2026-04-25T11:04:04Z</time></trkpt><trkpt lat="46.38448741710341" lon="12.117244771335754"><ele>1318.0</ele><time>2026-04-25T11:04:05Z</time></trkpt><trkpt lat="46.384520175579176" lon="12.117146855812061"><ele>1318.0</ele><time>2026-04-25T11:04:06Z</time></trkpt><trkpt lat="46.38454621486865" lon="12.117031617776082"><ele>1319.4</ele><time>2026-04-25T11:04:07Z</time></trkpt><trkpt lat="46.384581006622554" lon="12.116901049609547"><ele>1320.8000000000002</ele><time>2026-04-25T11:04:08Z</time></trkpt><trkpt lat="46.384626046979186" lon="12.116755227704521"><ele>1322.2</ele><time>2026-04-25T11:04:09Z</time></trkpt><trkpt lat="46.384670052414926" lon="12.116594984183145"><ele>1323.6</ele><time>2026-04-25T11:04:10Z</time></trkpt><trkpt lat="46.38471336921303" lon="12.116439664023202"><ele>1325.0</ele><time>2026-04-25T11:04:11Z</time></trkpt><trkpt lat="46.38475835335476" lon="12.116287690075792"><ele>1325.0</ele><time>2026-04-25T11:04:12Z</time></trkpt><trkpt lat="46.3848041391491" lon="12.11613044360822"><ele>1325.0</ele><time>2026-04-25T11:04:13Z</time></trkpt><trkpt lat="46.38484165806939" lon="12.11595396300933"><ele>1325.0</ele><time>2026-04-25T11:04:14Z</time></trkpt><trkpt lat="46.38489626813558" lon="12.115793390847664"><ele>1325.0</ele><time>2026-04-25T11:04:15Z</time></trkpt><trkpt lat="46.38492434512305" lon="12.115635459539243"><ele>1322.75</ele><time>2026-04-25T11:04:16Z</time></trkpt><trkpt lat="46.384978253222506" lon="12.115490454871406"><ele>1320.5</ele><time>2026-04-25T11:04:17Z</time></trkpt><trkpt lat="46.3850474642896" lon="12.115342851102229"><ele>1318.25</ele><time>2026-04-25T11:04:18Z</time></trkpt><trkpt lat="46.38512725264834" lon="12.115204934950043"><ele>1316.0</ele><time>2026-04-25T11:04:19Z</time></trkpt><trkpt lat="46.38522177694752" lon="12.115080261738443"><ele>1316.0</ele><time>2026-04-25T11:04:20Z</time></trkpt><trkpt lat="46.38532143411466" lon="12.114960565017316"><ele>1316.0</ele><time>2026-04-25T11:04:21Z</time></trkpt><trkpt lat="46.385427811474614" lon="12.114835352995986"><ele>1316.0</ele><time>2026-04-25T11:04:22Z</time></trkpt><trkpt lat="46.38554949841083" lon="12.114712439333887"><ele>1316.0</ele><time>2026-04-25T11:04:23Z</time></trkpt><trkpt lat="46.385683710442386" lon="12.114594856593964"><ele>1318.0</ele><time>2026-04-25T11:04:24Z</time></trkpt><trkpt lat="46.385809396624516" lon="12.114488489572906"><ele>1320.0</ele><time>2026-04-25T11:04:25Z</time></trkpt><trkpt lat="46.385927817858985" lon="12.114386444996061"><ele>1322.0</ele><time>2026-04-25T11:04:26Z</time></trkpt><trkpt lat="46.38604087066733" lon="12.114290621937442"><ele>1324.0</ele><time>2026-04-25T11:04:27Z</time></trkpt><trkpt lat="46.38615721080117" lon="12.114199920152016"><ele>1324.0</ele><time>2026-04-25T11:04:28Z</time></trkpt><trkpt lat="46.3862805427196" lon="12.114118369084155"><ele>1324.0</ele><time>2026-04-25T11:04:29Z</time></trkpt><trkpt lat="46.38640853656391" lon="12.114047777366268"><ele>1324.0</ele><time>2026-04-25T11:04:30Z</time></trkpt><trkpt lat="46.38654203938707" lon="12.113998733576171"><ele>1324.0</ele><time>2026-04-25T11:04:31Z</time></trkpt><trkpt lat="46.38667341116248" lon="12.11396801027295"><ele>1328.0</ele><time>2026-04-25T11:04:32Z</time></trkpt><trkpt lat="46.38681305870323" lon="12.113934886802076"><ele>1332.0</ele><time>2026-04-25T11:04:33Z</time></trkpt><trkpt lat="46.38696596699919" lon="12.113925809622305"><ele>1336.0</ele><time>2026-04-25T11:04:34Z</time></trkpt><trkpt lat="46.38713383743476" lon="12.113898426647275"><ele>1335.6666666666665</ele><time>2026-04-25T11:04:35Z</time></trkpt><trkpt lat="46.38731640908424" lon="12.11387202894218"><ele>1335.3333333333333</ele><time>2026-04-25T11:04:36Z</time></trkpt><trkpt lat="46.3875029383325" lon="12.113833407630883"><ele>1335.0</ele><time>2026-04-25T11:04:37Z</time></trkpt><trkpt lat="46.38767399250427" lon="12.113805252997608"><ele>1335.0</ele><time>2026-04-25T11:04:38Z</time></trkpt><trkpt lat="46.38783558956835" lon="12.113749289174637"><ele>1335.0</ele><time>2026-04-25T11:04:39Z</time></trkpt><trkpt lat="46.387996849570996" lon="12.113662282914936"><ele>1335.0</ele><time>2026-04-25T11:04:40Z</time></trkpt><trkpt lat="46.388152534776495" lon="12.113536410755746"><ele>1336.0</ele><time>2026-04-25T11:04:41Z</time></trkpt><trkpt lat="46.38830379102043" lon="12.11338312353531"><ele>1337.0</ele><time>2026-04-25T11:04:42Z</time></trkpt><trkpt lat="46.38845605263208" lon="12.113233934924422"><ele>1338.0</ele><time>2026-04-25T11:04:43Z</time></trkpt><trkpt lat="46.38860646501617" lon="12.113093877886314"><ele>1338.0</ele><time>2026-04-25T11:04:44Z</time></trkpt><trkpt lat="46.388759134219804" lon="12.112950608032232"><ele>1338.0</ele><time>2026-04-25T11:04:45Z</time></trkpt><trkpt lat="46.38891072792913" lon="12.112802972119972"><ele>1338.0</ele><time>2026-04-25T11:04:46Z</time></trkpt><trkpt lat="46.3890640138914" lon="12.112654905112281"><ele>1339.6666666666667</ele><time>2026-04-25T11:04:47Z</time></trkpt><trkpt lat="46.38921844666856" lon="12.112507083436233"><ele>1341.3333333333335</ele><time>2026-04-25T11:04:48Z</time></trkpt><trkpt lat="46.38937083595809" lon="12.11236275773379"><ele>1343.0</ele><time>2026-04-25T11:04:49Z</time></trkpt><trkpt lat="46.38952426897694" lon="12.112222796285803"><ele>1344.3333333333335</ele><time>2026-04-25T11:04:50Z</time></trkpt><trkpt lat="46.38968131378986" lon="12.112075704867246"><ele>1345.6666666666667</ele><time>2026-04-25T11:04:51Z</time></trkpt><trkpt lat="46.38984137426134" lon="12.111920096970556"><ele>1347.0</ele><time>2026-04-25T11:04:52Z</time></trkpt><trkpt lat="46.38999760772032" lon="12.111761129266116"><ele>1344.6666666666667</ele><time>2026-04-25T11:04:53Z</time></trkpt><trkpt lat="46.39014966072832" lon="12.111560688652943"><ele>1342.3333333333335</ele><time>2026-04-25T11:04:54Z</time></trkpt><trkpt lat="46.39028883080257" lon="12.111315369562789"><ele>1340.0</ele><time>2026-04-25T11:04:55Z</time></trkpt><trkpt lat="46.39042956906621" lon="12.111055562387902"><ele>1340.5</ele><time>2026-04-25T11:04:56Z</time></trkpt><trkpt lat="46.3905801371312" lon="12.110793786705155"><ele>1341.0</ele><time>2026-04-25T11:04:57Z</time></trkpt><trkpt lat="46.39073119066015" lon="12.110534372481741"><ele>1341.0</ele><time>2026-04-25T11:04:58Z</time></trkpt><trkpt lat="46.390872823700995" lon="12.110283749508982"><ele>1341.0</ele><time>2026-04-25T11:04:59Z</time></trkpt><trkpt lat="46.391006789076144" lon="12.110047185177075"><ele>1341.0</ele><time>2026-04-25T11:05:00Z</time></trkpt><trkpt lat="46.391125603727865" lon="12.109825370165618"><ele>1341.3333333333333</ele><time>2026-04-25T11:05:01Z</time></trkpt><trkpt lat="46.39122347996406" lon="12.109607783258834"><ele>1341.6666666666665</ele><time>2026-04-25T11:05:02Z</time></trkpt><trkpt lat="46.39129592982733" lon="12.109389201890842"><ele>1342.0</ele><time>2026-04-25T11:05:03Z</time></trkpt><trkpt lat="46.391344039387654" lon="12.109144249909093"><ele>1342.3333333333333</ele><time>2026-04-25T11:05:04Z</time></trkpt><trkpt lat="46.39136940632258" lon="12.108874487908198"><ele>1342.6666666666667</ele><time>2026-04-25T11:05:05Z</time></trkpt><trkpt lat="46.391371583588025" lon="12.108589526937962"><ele>1343.0</ele><time>2026-04-25T11:05:06Z</time></trkpt><trkpt lat="46.39137529064225" lon="12.108291116579565"><ele>1343.6666666666667</ele><time>2026-04-25T11:05:07Z</time></trkpt><trkpt lat="46.391384573958554" lon="12.107999490655939"><ele>1344.3333333333333</ele><time>2026-04-25T11:05:08Z</time></trkpt><trkpt lat="46.39139419621187" lon="12.107709001083322"><ele>1345.0</ele><time>2026-04-25T11:05:09Z</time></trkpt><trkpt lat="46.39140456967838" lon="12.107428225859255"><ele>1348.0</ele><time>2026-04-25T11:05:10Z</time></trkpt><trkpt lat="46.39141450113846" lon="12.107149182780107"><ele>1351.0</ele><time>2026-04-25T11:05:11Z</time></trkpt><trkpt lat="46.39142254384148" lon="12.106877168422404"><ele>1354.0</ele><time>2026-04-25T11:05:12Z</time></trkpt><trkpt lat="46.39142902838465" lon="12.106608194462513"><ele>1356.3333333333333</ele><time>2026-04-25T11:05:13Z</time></trkpt><trkpt lat="46.39143559209206" lon="12.106351508472995"><ele>1358.6666666666667</ele><time>2026-04-25T11:05:14Z</time></trkpt><trkpt lat="46.39145908071903" lon="12.10611793674158"><ele>1361.0</ele><time>2026-04-25T11:05:15Z</time></trkpt><trkpt lat="46.39144563955723" lon="12.105915243575991"><ele>1361.75</ele><time>2026-04-25T11:05:16Z</time></trkpt><trkpt lat="46.391445740981496" lon="12.105722109898956"><ele>1362.5</ele><time>2026-04-25T11:05:17Z</time></trkpt><trkpt lat="46.391452831899535" lon="12.105525369381759"><ele>1363.25</ele><time>2026-04-25T11:05:18Z</time></trkpt><trkpt lat="46.39147913855696" lon="12.10533732978457"><ele>1364.0</ele><time>2026-04-25T11:05:19Z</time></trkpt><trkpt lat="46.3915448770026" lon="12.10514905857831"><ele>1364.0</ele><time>2026-04-25T11:05:20Z</time></trkpt><trkpt lat="46.3916512089997" lon="12.104956952465928"><ele>1364.0</ele><time>2026-04-25T11:05:21Z</time></trkpt><trkpt lat="46.39176403858751" lon="12.104766940058017"><ele>1364.0</ele><time>2026-04-25T11:05:22Z</time></trkpt><trkpt lat="46.39186589097879" lon="12.104586489713627"><ele>1364.3333333333335</ele><time>2026-04-25T11:05:22.999Z</time></trkpt><trkpt lat="46.391967504981956" lon="12.10440259945649"><ele>1364.6666666666667</ele><time>2026-04-25T11:05:23.999Z</time></trkpt><trkpt lat="46.39207112308089" lon="12.104216317682003"><ele>1365.0</ele><time>2026-04-25T11:05:24.999Z</time></trkpt><trkpt lat="46.39217406403982" lon="12.104033134785777"><ele>1370.0</ele><time>2026-04-25T11:05:25.999Z</time></trkpt><trkpt lat="46.392275881626084" lon="12.10385645747119"><ele>1375.0</ele><time>2026-04-25T11:05:26.999Z</time></trkpt><trkpt lat="46.39237648558834" lon="12.103682444294325"><ele>1380.0</ele><time>2026-04-25T11:05:27.999Z</time></trkpt><trkpt lat="46.392475602999376" lon="12.103500905251458"><ele>1380.0</ele><time>2026-04-25T11:05:28.999Z</time></trkpt><trkpt lat="46.39257928089423" lon="12.103321929694966"><ele>1380.0</ele><time>2026-04-25T11:05:29.999Z</time></trkpt><trkpt lat="46.39268270359607" lon="12.10314422634312"><ele>1380.0</ele><time>2026-04-25T11:05:30.999Z</time></trkpt><trkpt lat="46.39278165912731" lon="12.10296879320389"><ele>1380.0</ele><time>2026-04-25T11:05:31.999Z</time></trkpt><trkpt lat="46.392874283878605" lon="12.102795746615934"><ele>1380.0</ele><time>2026-04-25T11:05:32.999Z</time></trkpt><trkpt lat="46.39296995429688" lon="12.102626394744764"><ele>1380.0</ele><time>2026-04-25T11:05:33.999Z</time></trkpt><trkpt lat="46.393060843795524" lon="12.102466493341751"><ele>1380.0</ele><time>2026-04-25T11:05:34.999Z</time></trkpt><trkpt lat="46.39315338897999" lon="12.102326363378443"><ele>1380.0</ele><time>2026-04-25T11:05:35.999Z</time></trkpt><trkpt lat="46.39326391785552" lon="12.102222283102751"><ele>1380.0</ele><time>2026-04-25T11:05:36.999Z</time></trkpt><trkpt lat="46.39339518848821" lon="12.102163766961187"><ele>1380.0</ele><time>2026-04-25T11:05:37.999Z</time></trkpt><trkpt lat="46.39350652426162" lon="12.10214719892934"><ele>1380.0</ele><time>2026-04-25T11:05:38.999Z</time></trkpt><trkpt lat="46.39359987999669" lon="12.102177611052356"><ele>1380.0</ele><time>2026-04-25T11:05:39.999Z</time></trkpt><trkpt lat="46.39367589897902" lon="12.102279157322737"><ele>1380.0</ele><time>2026-04-25T11:05:40.999Z</time></trkpt><trkpt lat="46.393724773771474" lon="12.102451056158811"><ele>1380.0</ele><time>2026-04-25T11:05:41.999Z</time></trkpt><trkpt lat="46.393782395224314" lon="12.102661328148736"><ele>1380.0</ele><time>2026-04-25T11:05:42.999Z</time></trkpt><trkpt lat="46.39386699380878" lon="12.10289571668742"><ele>1384.3333333333333</ele><time>2026-04-25T11:05:43.999Z</time></trkpt><trkpt lat="46.39395165843976" lon="12.103136917388476"><ele>1388.6666666666665</ele><time>2026-04-25T11:05:44.999Z</time></trkpt><trkpt lat="46.39402411347282" lon="12.103358194309084"><ele>1393.0</ele><time>2026-04-25T11:05:45.999Z</time></trkpt><trkpt lat="46.3940844873951" lon="12.103558945929429"><ele>1394.5</ele><time>2026-04-25T11:05:46.999Z</time></trkpt><trkpt lat="46.39413626491767" lon="12.10371489427116"><ele>1396.0</ele><time>2026-04-25T11:05:47.999Z</time></trkpt><trkpt lat="46.39419787671924" lon="12.103853172865378"><ele>1397.5</ele><time>2026-04-25T11:05:48.999Z</time></trkpt><trkpt lat="46.394292061656905" lon="12.103970069560503"><ele>1399.0</ele><time>2026-04-25T11:05:49.999Z</time></trkpt><trkpt lat="46.394405607128284" lon="12.104026111844513"><ele>1399.0</ele><time>2026-04-25T11:05:50.999Z</time></trkpt><trkpt lat="46.394534966888905" lon="12.104028506032831"><ele>1399.0</ele><time>2026-04-25T11:05:51.999Z</time></trkpt><trkpt lat="46.3946268294202" lon="12.104010073003732"><ele>1399.0</ele><time>2026-04-25T11:05:52.999Z</time></trkpt><trkpt lat="46.394713717968116" lon="12.103978607245795"><ele>1399.0</ele><time>2026-04-25T11:05:53.999Z</time></trkpt><trkpt lat="46.39480312831829" lon="12.103935328789529"><ele>1399.0</ele><time>2026-04-25T11:05:54.999Z</time></trkpt><trkpt lat="46.39488827523193" lon="12.10388831991311"><ele>1401.8000000000002</ele><time>2026-04-25T11:05:55.999Z</time></trkpt><trkpt lat="46.39497639417956" lon="12.10382967611399"><ele>1404.6000000000001</ele><time>2026-04-25T11:05:56.999Z</time></trkpt><trkpt lat="46.395068230378826" lon="12.103768923030275"><ele>1407.4</ele><time>2026-04-25T11:05:57.999Z</time></trkpt><trkpt lat="46.395168242278004" lon="12.103712081641463"><ele>1410.2</ele><time>2026-04-25T11:05:58.999Z</time></trkpt><trkpt lat="46.39526581827166" lon="12.103664006043251"><ele>1413.0</ele><time>2026-04-25T11:05:59.999Z</time></trkpt><trkpt lat="46.395364157624414" lon="12.103661931930468"><ele>1413.0</ele><time>2026-04-25T11:06:00.999Z</time></trkpt><trkpt lat="46.39543404608898" lon="12.103721177605669"><ele>1413.0</ele><time>2026-04-25T11:06:01.999Z</time></trkpt><trkpt lat="46.39546509964628" lon="12.103834779078772"><ele>1413.0</ele><time>2026-04-25T11:06:02.999Z</time></trkpt><trkpt lat="46.395461231878386" lon="12.10398215042404"><ele>1413.0</ele><time>2026-04-25T11:06:03.999Z</time></trkpt><trkpt lat="46.395470959399375" lon="12.104125831185865"><ele>1413.0</ele><time>2026-04-25T11:06:04.999Z</time></trkpt><trkpt lat="46.39549865571703" lon="12.104235080045346"><ele>1413.0</ele><time>2026-04-25T11:06:05.999Z</time></trkpt><trkpt lat="46.39556149297531" lon="12.104312709281759"><ele>1415.6000000000001</ele><time>2026-04-25T11:06:07Z</time></trkpt><trkpt lat="46.39564531924168" lon="12.104325188826875"><ele>1418.2</ele><time>2026-04-25T11:06:08Z</time></trkpt><trkpt lat="46.39571851569554" lon="12.104262308775159"><ele>1420.8</ele><time>2026-04-25T11:06:09Z</time></trkpt><trkpt lat="46.39574874080936" lon="12.104147182875094"><ele>1423.4</ele><time>2026-04-25T11:06:10Z</time></trkpt><trkpt lat="46.39574133511041" lon="12.103975593528501"><ele>1426.0</ele><time>2026-04-25T11:06:11Z</time></trkpt><trkpt lat="46.395722692712965" lon="12.103815731397383"><ele>1429.1666666666665</ele><time>2026-04-25T11:06:12Z</time></trkpt><trkpt lat="46.395718811877636" lon="12.10369829927732"><ele>1432.3333333333333</ele><time>2026-04-25T11:06:13Z</time></trkpt><trkpt lat="46.39574885016501" lon="12.103606905636987"><ele>1435.5</ele><time>2026-04-25T11:06:14Z</time></trkpt><trkpt lat="46.39580893614417" lon="12.103560853424355"><ele>1438.6666666666667</ele><time>2026-04-25T11:06:15Z</time></trkpt><trkpt lat="46.39588305543915" lon="12.10358870587592"><ele>1441.8333333333335</ele><time>2026-04-25T11:06:16Z</time></trkpt><trkpt lat="46.39591951367777" lon="12.103688207489363"><ele>1445.0</ele><time>2026-04-25T11:06:17Z</time></trkpt><trkpt lat="46.39590761846245" lon="12.103854893492299"><ele>1445.0</ele><time>2026-04-25T11:06:18Z</time></trkpt><trkpt lat="46.39593229471878" lon="12.10405100719669"><ele>1445.0</ele><time>2026-04-25T11:06:19Z</time></trkpt><trkpt lat="46.39594766506065" lon="12.10427567883301"><ele>1445.0</ele><time>2026-04-25T11:06:20Z</time></trkpt><trkpt lat="46.395964249979194" lon="12.10446163508141"><ele>1445.0</ele><time>2026-04-25T11:06:21Z</time></trkpt><trkpt lat="46.39599014193993" lon="12.10460496610089"><ele>1444.2</ele><time>2026-04-25T11:06:22Z</time></trkpt><trkpt lat="46.39604003334896" lon="12.10471814334925"><ele>1443.4</ele><time>2026-04-25T11:06:23Z</time></trkpt><trkpt lat="46.39612340168765" lon="12.104781389518553"><ele>1442.6</ele><time>2026-04-25T11:06:24Z</time></trkpt><trkpt lat="46.396217729512166" lon="12.104786973186089"><ele>1441.8</ele><time>2026-04-25T11:06:25Z</time></trkpt><trkpt lat="46.396318743879625" lon="12.10475919579433"><ele>1441.0</ele><time>2026-04-25T11:06:26Z</time></trkpt><trkpt lat="46.39638188136998" lon="12.104612527314913"><ele>1441.0</ele><time>2026-04-25T11:06:27Z</time></trkpt><trkpt lat="46.39641882519438" lon="12.104455799301677"><ele>1441.0</ele><time>2026-04-25T11:06:28Z</time></trkpt><trkpt lat="46.39640710546355" lon="12.104276433811755"><ele>1441.0</ele><time>2026-04-25T11:06:29Z</time></trkpt><trkpt lat="46.39635807432334" lon="12.104097278176381"><ele>1441.0</ele><time>2026-04-25T11:06:30Z</time></trkpt><trkpt lat="46.39630361134813" lon="12.10396892943059"><ele>1441.8</ele><time>2026-04-25T11:06:31Z</time></trkpt><trkpt lat="46.39627282881612" lon="12.103862415608573"><ele>1442.6</ele><time>2026-04-25T11:06:32Z</time></trkpt><trkpt lat="46.39623414196372" lon="12.10378967285929"><ele>1443.4</ele><time>2026-04-25T11:06:33Z</time></trkpt><trkpt lat="46.396310306800174" lon="12.103649198732903"><ele>1444.2</ele><time>2026-04-25T11:06:35Z</time></trkpt><trkpt lat="46.396394741317685" lon="12.103675561373482"><ele>1445.0</ele><time>2026-04-25T11:06:36Z</time></trkpt><trkpt lat="46.39646838135232" lon="12.10379379593578"><ele>1444.2</ele><time>2026-04-25T11:06:37Z</time></trkpt><trkpt lat="46.39655218350457" lon="12.103929637940677"><ele>1443.4</ele><time>2026-04-25T11:06:38Z</time></trkpt><trkpt lat="46.396617395731255" lon="12.104041574804963"><ele>1442.6</ele><time>2026-04-25T11:06:39Z</time></trkpt><trkpt lat="46.39667497498814" lon="12.10413796468314"><ele>1441.8</ele><time>2026-04-25T11:06:40Z</time></trkpt><trkpt lat="46.396746579774735" lon="12.104179844243761"><ele>1441.0</ele><time>2026-04-25T11:06:41Z</time></trkpt><trkpt lat="46.396828541026146" lon="12.104153671321601"><ele>1444.6</ele><time>2026-04-25T11:06:42Z</time></trkpt><trkpt lat="46.3968982431722" lon="12.104062919557597"><ele>1448.1999999999998</ele><time>2026-04-25T11:06:43Z</time></trkpt><trkpt lat="46.39693730997311" lon="12.103918692584795"><ele>1451.8000000000002</ele><time>2026-04-25T11:06:44Z</time></trkpt><trkpt lat="46.39694912126124" lon="12.103769354742688"><ele>1455.4</ele><time>2026-04-25T11:06:45Z</time></trkpt><trkpt lat="46.39692948424205" lon="12.103620329710765"><ele>1459.0</ele><time>2026-04-25T11:06:46Z</time></trkpt><trkpt lat="46.39689391173409" lon="12.103487739560014"><ele>1459.0</ele><time>2026-04-25T11:06:47Z</time></trkpt><trkpt lat="46.39680786000761" lon="12.103394267533684"><ele>1459.0</ele><time>2026-04-25T11:06:48Z</time></trkpt><trkpt lat="46.396680072340075" lon="12.10341556593787"><ele>1459.0</ele><time>2026-04-25T11:06:49Z</time></trkpt><trkpt lat="46.396595209068884" lon="12.10346421855759"><ele>1459.0</ele><time>2026-04-25T11:06:50Z</time></trkpt><trkpt lat="46.39653047944025" lon="12.103463616621243"><ele>1459.0</ele><time>2026-04-25T11:06:51Z</time></trkpt><trkpt lat="46.39645387727328" lon="12.103372150823711"><ele>1459.0</ele><time>2026-04-25T11:06:53Z</time></trkpt><trkpt lat="46.39648423682686" lon="12.103281765585718"><ele>1459.0</ele><time>2026-04-25T11:06:54Z</time></trkpt><trkpt lat="46.396559077068815" lon="12.103240384843717"><ele>1459.0</ele><time>2026-04-25T11:06:55Z</time></trkpt><trkpt lat="46.396673848121694" lon="12.10322468760439"><ele>1459.0</ele><time>2026-04-25T11:06:56Z</time></trkpt><trkpt lat="46.39678388771633" lon="12.10311702842045"><ele>1459.0</ele><time>2026-04-25T11:06:57Z</time></trkpt><trkpt lat="46.396904044002596" lon="12.102969423157191"><ele>1464.5</ele><time>2026-04-25T11:06:58Z</time></trkpt><trkpt lat="46.39702719104032" lon="12.102875602507911"><ele>1470.0</ele><time>2026-04-25T11:06:59Z</time></trkpt><trkpt lat="46.39716582242974" lon="12.102847426909362"><ele>1475.5</ele><time>2026-04-25T11:07:00Z</time></trkpt><trkpt lat="46.39730965359823" lon="12.102891477021585"><ele>1481.0</ele><time>2026-04-25T11:07:01Z</time></trkpt><trkpt lat="46.39746546833874" lon="12.102985900523207"><ele>1481.0</ele><time>2026-04-25T11:07:02Z</time></trkpt><trkpt lat="46.3976347154952" lon="12.103087371116981"><ele>1481.0</ele><time>2026-04-25T11:07:03Z</time></trkpt><trkpt lat="46.39778542479538" lon="12.103166949803375"><ele>1481.0</ele><time>2026-04-25T11:07:04Z</time></trkpt><trkpt lat="46.39791039235909" lon="12.103225782914713"><ele>1480.3333333333335</ele><time>2026-04-25T11:07:05Z</time></trkpt><trkpt lat="46.398017439698805" lon="12.103282652701886"><ele>1479.6666666666667</ele><time>2026-04-25T11:07:06Z</time></trkpt><trkpt lat="46.39811095074671" lon="12.10334014753213"><ele>1479.0</ele><time>2026-04-25T11:07:07Z</time></trkpt><trkpt lat="46.398185656460804" lon="12.103380484807982"><ele>1478.3333333333333</ele><time>2026-04-25T11:07:08Z</time></trkpt><trkpt lat="46.398249417057826" lon="12.103378804477401"><ele>1477.6666666666665</ele><time>2026-04-25T11:07:09Z</time></trkpt><trkpt lat="46.39830405783255" lon="12.103329699235093"><ele>1477.0</ele><time>2026-04-25T11:07:10Z</time></trkpt><trkpt lat="46.398319498655724" lon="12.103229938674119"><ele>1478.0</ele><time>2026-04-25T11:07:11Z</time></trkpt><trkpt lat="46.398282451123" lon="12.103120702177648"><ele>1479.0</ele><time>2026-04-25T11:07:12Z</time></trkpt><trkpt lat="46.3981879902068" lon="12.10302704855401"><ele>1480.0</ele><time>2026-04-25T11:07:13Z</time></trkpt><trkpt lat="46.398064371449415" lon="12.102912310863918"><ele>1481.0</ele><time>2026-04-25T11:07:14Z</time></trkpt><trkpt lat="46.39790099179242" lon="12.102751241828921"><ele>1481.0</ele><time>2026-04-25T11:07:15Z</time></trkpt><trkpt lat="46.39773093404987" lon="12.10256995967897"><ele>1481.0</ele><time>2026-04-25T11:07:16Z</time></trkpt><trkpt lat="46.39759792601643" lon="12.102435044995964"><ele>1481.0</ele><time>2026-04-25T11:07:17Z</time></trkpt><trkpt lat="46.3974715587391" lon="12.10232792513083"><ele>1488.0</ele><time>2026-04-25T11:07:18Z</time></trkpt><trkpt lat="46.397353649563115" lon="12.102237710095855"><ele>1495.0</ele><time>2026-04-25T11:07:19Z</time></trkpt><trkpt lat="46.39724906182658" lon="12.102185107736286"><ele>1502.0</ele><time>2026-04-25T11:07:20Z</time></trkpt><trkpt lat="46.39715165097997" lon="12.102173349438504"><ele>1509.0</ele><time>2026-04-25T11:07:21Z</time></trkpt><trkpt lat="46.3970750126731" lon="12.102142260761024"><ele>1516.0</ele><time>2026-04-25T11:07:22Z</time></trkpt><trkpt lat="46.397009840419166" lon="12.102139513895775"><ele>1516.0</ele><time>2026-04-25T11:07:23Z</time></trkpt><trkpt lat="46.39700028845757" lon="12.101988786281913"><ele>1516.0</ele><time>2026-04-25T11:07:24.999Z</time></trkpt><trkpt lat="46.39706368655326" lon="12.101931648626866"><ele>1516.0</ele><time>2026-04-25T11:07:25.999Z</time></trkpt><trkpt lat="46.397171372587906" lon="12.101946852489828"><ele>1516.0</ele><time>2026-04-25T11:07:26.999Z</time></trkpt><trkpt lat="46.39729831614042" lon="12.101996297562602"><ele>1516.0</ele><time>2026-04-25T11:07:27.999Z</time></trkpt><trkpt lat="46.3974486364876" lon="12.10205987340216"><ele>1516.0</ele><time>2026-04-25T11:07:28.999Z</time></trkpt><trkpt lat="46.397611300479646" lon="12.10213540755508"><ele>1516.0</ele><time>2026-04-25T11:07:29.999Z</time></trkpt><trkpt lat="46.397778569370516" lon="12.10222542725731"><ele>1516.0</ele><time>2026-04-25T11:07:30.999Z</time></trkpt><trkpt lat="46.397930169394066" lon="12.102334793511048"><ele>1511.6666666666665</ele><time>2026-04-25T11:07:31.999Z</time></trkpt><trkpt lat="46.398072108269936" lon="12.102439917500256"><ele>1507.3333333333333</ele><time>2026-04-25T11:07:32.999Z</time></trkpt><trkpt lat="46.39820446600428" lon="12.102544106079147"><ele>1503.0</ele><time>2026-04-25T11:07:33.999Z</time></trkpt><trkpt lat="46.39833207922339" lon="12.102659083629156"><ele>1503.0</ele><time>2026-04-25T11:07:34.999Z</time></trkpt><trkpt lat="46.39846374867364" lon="12.102786767802193"><ele>1503.0</ele><time>2026-04-25T11:07:35.999Z</time></trkpt><trkpt lat="46.39860531150958" lon="12.102904262330238"><ele>1503.0</ele><time>2026-04-25T11:07:36.999Z</time></trkpt><trkpt lat="46.39876093101329" lon="12.10298946055122"><ele>1507.0</ele><time>2026-04-25T11:07:37.999Z</time></trkpt><trkpt lat="46.39892102414923" lon="12.103045694784587"><ele>1511.0</ele><time>2026-04-25T11:07:38.999Z</time></trkpt><trkpt lat="46.399080592539235" lon="12.103097252434539"><ele>1515.0</ele><time>2026-04-25T11:07:39.999Z</time></trkpt><trkpt lat="46.39922571092071" lon="12.103146942184399"><ele>1515.0</ele><time>2026-04-25T11:07:40.999Z</time></trkpt><trkpt lat="46.39935533905244" lon="12.103194947347461"><ele>1515.0</ele><time>2026-04-25T11:07:41.999Z</time></trkpt><trkpt lat="46.39947102155205" lon="12.103226981000034"><ele>1515.0</ele><time>2026-04-25T11:07:42.999Z</time></trkpt><trkpt lat="46.39959004546824" lon="12.10320679644031"><ele>1515.0</ele><time>2026-04-25T11:07:43.999Z</time></trkpt><trkpt lat="46.399698937644054" lon="12.103114337773464"><ele>1516.0</ele><time>2026-04-25T11:07:44.999Z</time></trkpt><trkpt lat="46.39979765858337" lon="12.102955104157287"><ele>1517.0</ele><time>2026-04-25T11:07:45.999Z</time></trkpt><trkpt lat="46.39989581866588" lon="12.10280364141871"><ele>1518.0</ele><time>2026-04-25T11:07:46.999Z</time></trkpt><trkpt lat="46.400036855620094" lon="12.102727396668172"><ele>1519.0</ele><time>2026-04-25T11:07:47.999Z</time></trkpt><trkpt lat="46.400183074966364" lon="12.102711289166706"><ele>1519.0</ele><time>2026-04-25T11:07:48.999Z</time></trkpt><trkpt lat="46.400312436412804" lon="12.102668811982868"><ele>1519.0</ele><time>2026-04-25T11:07:49.999Z</time></trkpt><trkpt lat="46.40044751945459" lon="12.102545902005344"><ele>1519.0</ele><time>2026-04-25T11:07:50.999Z</time></trkpt><trkpt lat="46.40057201360306" lon="12.102366966115909"><ele>1519.0</ele><time>2026-04-25T11:07:51.999Z</time></trkpt><trkpt lat="46.40068455393659" lon="12.102163884026673"><ele>1519.0</ele><time>2026-04-25T11:07:52.999Z</time></trkpt><trkpt lat="46.40080303154153" lon="12.102005700675125"><ele>1519.0</ele><time>2026-04-25T11:07:53.999Z</time></trkpt><trkpt lat="46.40093130286951" lon="12.101891183813144"><ele>1519.0</ele><time>2026-04-25T11:07:54.999Z</time></trkpt><trkpt lat="46.401063920084844" lon="12.101805851290091"><ele>1519.0</ele><time>2026-04-25T11:07:55.999Z</time></trkpt><trkpt lat="46.40119929278247" lon="12.101753621232595"><ele>1519.0</ele><time>2026-04-25T11:07:56.999Z</time></trkpt><trkpt lat="46.401339138997606" lon="12.101739183940667"><ele>1519.0</ele><time>2026-04-25T11:07:57.999Z</time></trkpt><trkpt lat="46.40147941709302" lon="12.101748682992772"><ele>1518.0</ele><time>2026-04-25T11:07:58.999Z</time></trkpt><trkpt lat="46.40161817156381" lon="12.10177317605986"><ele>1517.0</ele><time>2026-04-25T11:07:59.999Z</time></trkpt><trkpt lat="46.4017545777711" lon="12.101800140803814"><ele>1516.0</ele><time>2026-04-25T11:08:00.999Z</time></trkpt><trkpt lat="46.40187241435716" lon="12.101825900156546"><ele>1515.0</ele><time>2026-04-25T11:08:01.999Z</time></trkpt><trkpt lat="46.40198019685572" lon="12.101847532555661"><ele>1515.0</ele><time>2026-04-25T11:08:02.999Z</time></trkpt><trkpt lat="46.40208639028851" lon="12.101866440252415"><ele>1515.0</ele><time>2026-04-25T11:08:03.999Z</time></trkpt><trkpt lat="46.40219373640197" lon="12.101887753384128"><ele>1515.0</ele><time>2026-04-25T11:08:04.999Z</time></trkpt><trkpt lat="46.4023001961324" lon="12.101907566554925"><ele>1515.0</ele><time>2026-04-25T11:08:05.999Z</time></trkpt><trkpt lat="46.40240648882127" lon="12.101917442680254"><ele>1515.0</ele><time>2026-04-25T11:08:06.999Z</time></trkpt><trkpt lat="46.40251349798413" lon="12.101922536158968"><ele>1515.0</ele><time>2026-04-25T11:08:07.999Z</time></trkpt><trkpt lat="46.4026213762337" lon="12.101912505020058"><ele>1515.0</ele><time>2026-04-25T11:08:08.999Z</time></trkpt><trkpt lat="46.402730680116285" lon="12.10188975611278"><ele>1515.0</ele><time>2026-04-25T11:08:09.999Z</time></trkpt><trkpt lat="46.40284184927647" lon="12.101869277626987"><ele>1515.0</ele><time>2026-04-25T11:08:10.999Z</time></trkpt><trkpt lat="46.40295472173953" lon="12.101854756656923"><ele>1515.0</ele><time>2026-04-25T11:08:12Z</time></trkpt><trkpt lat="46.40305867809953" lon="12.10183037027502"><ele>1516.6</ele><time>2026-04-25T11:08:13Z</time></trkpt><trkpt lat="46.40316434640522" lon="12.1018051012764"><ele>1518.2</ele><time>2026-04-25T11:08:14Z</time></trkpt><trkpt lat="46.40327311761896" lon="12.101783004594827"><ele>1519.8000000000002</ele><time>2026-04-25T11:08:15Z</time></trkpt><trkpt lat="46.403385149376845" lon="12.10176015504697"><ele>1521.4</ele><time>2026-04-25T11:08:16Z</time></trkpt><trkpt lat="46.403501584338365" lon="12.101737754594115"><ele>1523.0</ele><time>2026-04-25T11:08:17Z</time></trkpt><trkpt lat="46.403624495817844" lon="12.10171318459338"><ele>1523.0</ele><time>2026-04-25T11:08:18Z</time></trkpt><trkpt lat="46.40374810511091" lon="12.101693141541183"><ele>1523.0</ele><time>2026-04-25T11:08:19Z</time></trkpt><trkpt lat="46.40387246668548" lon="12.101668752914017"><ele>1523.0</ele><time>2026-04-25T11:08:20Z</time></trkpt><trkpt lat="46.40399320378933" lon="12.101630842720247"><ele>1523.0</ele><time>2026-04-25T11:08:21Z</time></trkpt><trkpt lat="46.40411058712506" lon="12.101581698702736"><ele>1522.25</ele><time>2026-04-25T11:08:22Z</time></trkpt><trkpt lat="46.40422447305869" lon="12.101522708361399"><ele>1521.5</ele><time>2026-04-25T11:08:23Z</time></trkpt><trkpt lat="46.404336070427156" lon="12.101455210152357"><ele>1520.75</ele><time>2026-04-25T11:08:24Z</time></trkpt><trkpt lat="46.404443237980914" lon="12.101388466037633"><ele>1520.0</ele><time>2026-04-25T11:08:25Z</time></trkpt><trkpt lat="46.404550536481864" lon="12.101322401928137"><ele>1520.0</ele><time>2026-04-25T11:08:26Z</time></trkpt><trkpt lat="46.40466058012618" lon="12.101256460337309"><ele>1520.0</ele><time>2026-04-25T11:08:27Z</time></trkpt><trkpt lat="46.40477309900753" lon="12.101183203512317"><ele>1520.0</ele><time>2026-04-25T11:08:28Z</time></trkpt><trkpt lat="46.40489117337683" lon="12.101111783298869"><ele>1520.0</ele><time>2026-04-25T11:08:29Z</time></trkpt><trkpt lat="46.405010281771744" lon="12.101040290301377"><ele>1521.0</ele><time>2026-04-25T11:08:30Z</time></trkpt><trkpt lat="46.405129815249644" lon="12.100962760169775"><ele>1522.0</ele><time>2026-04-25T11:08:31Z</time></trkpt><trkpt lat="46.40524647996747" lon="12.100879433787073"><ele>1523.0</ele><time>2026-04-25T11:08:32Z</time></trkpt><trkpt lat="46.40536622780352" lon="12.100802197461633"><ele>1524.0</ele><time>2026-04-25T11:08:33Z</time></trkpt><trkpt lat="46.405488131646486" lon="12.100731597036063"><ele>1526.75</ele><time>2026-04-25T11:08:34Z</time></trkpt><trkpt lat="46.40560717911517" lon="12.100663728412451"><ele>1529.5</ele><time>2026-04-25T11:08:35Z</time></trkpt><trkpt lat="46.405730575835655" lon="12.100599883969856"><ele>1532.25</ele><time>2026-04-25T11:08:36Z</time></trkpt><trkpt lat="46.40586085279346" lon="12.1005430354128"><ele>1535.0</ele><time>2026-04-25T11:08:37Z</time></trkpt><trkpt lat="46.40600055117724" lon="12.100497342634613"><ele>1535.0</ele><time>2026-04-25T11:08:38Z</time></trkpt><trkpt lat="46.406142021739505" lon="12.10045586997521"><ele>1535.0</ele><time>2026-04-25T11:08:39Z</time></trkpt><trkpt lat="46.40627023257648" lon="12.10041563856151"><ele>1535.0</ele><time>2026-04-25T11:08:40Z</time></trkpt><trkpt lat="46.4063746033996" lon="12.100384743791103"><ele>1535.0</ele><time>2026-04-25T11:08:41Z</time></trkpt><trkpt lat="46.40647187070725" lon="12.10036250167868"><ele>1537.0</ele><time>2026-04-25T11:08:42Z</time></trkpt><trkpt lat="46.40656758449178" lon="12.100364831844898"><ele>1539.0</ele><time>2026-04-25T11:08:43Z</time></trkpt><trkpt lat="46.40665308754908" lon="12.100430496223868"><ele>1541.0</ele><time>2026-04-25T11:08:44Z</time></trkpt><trkpt lat="46.40670732132176" lon="12.100550483683115"><ele>1543.0</ele><time>2026-04-25T11:08:45Z</time></trkpt><trkpt lat="46.406713165582524" lon="12.100697601825384"><ele>1545.0</ele><time>2026-04-25T11:08:46Z</time></trkpt><trkpt lat="46.40667102126581" lon="12.10084982262101"><ele>1547.5</ele><time>2026-04-25T11:08:47Z</time></trkpt><trkpt lat="46.40658410862502" lon="12.100994546061534"><ele>1550.0</ele><time>2026-04-25T11:08:48Z</time></trkpt><trkpt lat="46.40648811984338" lon="12.101152062076665"><ele>1552.5</ele><time>2026-04-25T11:08:49Z</time></trkpt><trkpt lat="46.406413999749304" lon="12.10127001405976"><ele>1555.0</ele><time>2026-04-25T11:08:50Z</time></trkpt><trkpt lat="46.40634802701882" lon="12.101375759127679"><ele>1554.6666666666667</ele><time>2026-04-25T11:08:51Z</time></trkpt><trkpt lat="46.406292522677916" lon="12.101467362505312"><ele>1554.3333333333335</ele><time>2026-04-25T11:08:52Z</time></trkpt><trkpt lat="46.40624979683973" lon="12.101577495473155"><ele>1554.0</ele><time>2026-04-25T11:08:53Z</time></trkpt><trkpt lat="46.406241064848786" lon="12.101705226759169"><ele>1553.6666666666665</ele><time>2026-04-25T11:08:54Z</time></trkpt><trkpt lat="46.40627543549797" lon="12.101828375838114"><ele>1553.3333333333333</ele><time>2026-04-25T11:08:55Z</time></trkpt><trkpt lat="46.40635371976503" lon="12.101912913326737"><ele>1553.0</ele><time>2026-04-25T11:08:56Z</time></trkpt><trkpt lat="46.4064599290765" lon="12.101935116112594"><ele>1553.4</ele><time>2026-04-25T11:08:57Z</time></trkpt><trkpt lat="46.40656888719199" lon="12.101888874294426"><ele>1553.8000000000002</ele><time>2026-04-25T11:08:58Z</time></trkpt><trkpt lat="46.40667224852586" lon="12.101785233467924"><ele>1554.2</ele><time>2026-04-25T11:08:59Z</time></trkpt><trkpt lat="46.40675614204558" lon="12.101709982336457"><ele>1554.6</ele><time>2026-04-25T11:09:00Z</time></trkpt><trkpt lat="46.40684344229549" lon="12.101643345744654"><ele>1555.0</ele><time>2026-04-25T11:09:01Z</time></trkpt><trkpt lat="46.40693063533617" lon="12.101581766193595"><ele>1555.0</ele><time>2026-04-25T11:09:02Z</time></trkpt><trkpt lat="46.40702613288122" lon="12.101509468292255"><ele>1555.0</ele><time>2026-04-25T11:09:03Z</time></trkpt><trkpt lat="46.4071132514493" lon="12.10143308790119"><ele>1555.0</ele><time>2026-04-25T11:09:04Z</time></trkpt><trkpt lat="46.40720165411153" lon="12.101368579717178"><ele>1555.0</ele><time>2026-04-25T11:09:05Z</time></trkpt><trkpt lat="46.4072908180516" lon="12.101300331346412"><ele>1555.0</ele><time>2026-04-25T11:09:06Z</time></trkpt><trkpt lat="46.40738348402183" lon="12.101230223759295"><ele>1558.0</ele><time>2026-04-25T11:09:07Z</time></trkpt><trkpt lat="46.407472381759135" lon="12.101161966813613"><ele>1561.0</ele><time>2026-04-25T11:09:08Z</time></trkpt><trkpt lat="46.407556824759084" lon="12.101090829430435"><ele>1564.0</ele><time>2026-04-25T11:09:09Z</time></trkpt><trkpt lat="46.4076466494925" lon="12.10101992080529"><ele>1567.0</ele><time>2026-04-25T11:09:10Z</time></trkpt><trkpt lat="46.40773456506886" lon="12.100956273558204"><ele>1570.0</ele><time>2026-04-25T11:09:11Z</time></trkpt><trkpt lat="46.40782285965699" lon="12.100884500758582"><ele>1570.0</ele><time>2026-04-25T11:09:12Z</time></trkpt><trkpt lat="46.40791377139627" lon="12.100809722379699"><ele>1570.0</ele><time>2026-04-25T11:09:13Z</time></trkpt><trkpt lat="46.40800191279624" lon="12.100725026696283"><ele>1570.0</ele><time>2026-04-25T11:09:14Z</time></trkpt><trkpt lat="46.40807464117146" lon="12.1006008477602"><ele>1570.0</ele><time>2026-04-25T11:09:15Z</time></trkpt><trkpt lat="46.408136613392436" lon="12.100453002888798"><ele>1570.0</ele><time>2026-04-25T11:09:16Z</time></trkpt><trkpt lat="46.40818438293116" lon="12.100297794986878"><ele>1570.8</ele><time>2026-04-25T11:09:17Z</time></trkpt><trkpt lat="46.408223825199734" lon="12.100142368628475"><ele>1571.6</ele><time>2026-04-25T11:09:18Z</time></trkpt><trkpt lat="46.40825779992963" lon="12.099987559637924"><ele>1572.4</ele><time>2026-04-25T11:09:19Z</time></trkpt><trkpt lat="46.40829598478583" lon="12.099835595116977"><ele>1573.2</ele><time>2026-04-25T11:09:20Z</time></trkpt><trkpt lat="46.408343264526906" lon="12.099689264194284"><ele>1574.0</ele><time>2026-04-25T11:09:21Z</time></trkpt><trkpt lat="46.40840425426382" lon="12.099555835455254"><ele>1574.0</ele><time>2026-04-25T11:09:22Z</time></trkpt><trkpt lat="46.40848065171243" lon="12.099439167442098"><ele>1574.0</ele><time>2026-04-25T11:09:23Z</time></trkpt><trkpt lat="46.40858156649283" lon="12.099362717011726"><ele>1574.0</ele><time>2026-04-25T11:09:24Z</time></trkpt><trkpt lat="46.4086736401507" lon="12.099304555073566"><ele>1574.0</ele><time>2026-04-25T11:09:24.999Z</time></trkpt><trkpt lat="46.408756299059284" lon="12.099282222024318"><ele>1574.0</ele><time>2026-04-25T11:09:25.999Z</time></trkpt><trkpt lat="46.40884554536756" lon="12.09931407877655"><ele>1576.2</ele><time>2026-04-25T11:09:26.999Z</time></trkpt><trkpt lat="46.408923859448294" lon="12.099397670671893"><ele>1578.4</ele><time>2026-04-25T11:09:27.999Z</time></trkpt><trkpt lat="46.408984960467436" lon="12.09952459070549"><ele>1580.6</ele><time>2026-04-25T11:09:28.999Z</time></trkpt><trkpt lat="46.40901596911133" lon="12.099685582056878"><ele>1582.8</ele><time>2026-04-25T11:09:29.999Z</time></trkpt><trkpt lat="46.40900470216205" lon="12.099872375905989"><ele>1585.0</ele><time>2026-04-25T11:09:30.999Z</time></trkpt><trkpt lat="46.4089476592198" lon="12.100055892715849"><ele>1584.25</ele><time>2026-04-25T11:09:31.999Z</time></trkpt><trkpt lat="46.40888730328095" lon="12.100256195991344"><ele>1583.5</ele><time>2026-04-25T11:09:32.999Z</time></trkpt><trkpt lat="46.40880325926913" lon="12.100447244019087"><ele>1582.75</ele><time>2026-04-25T11:09:33.999Z</time></trkpt><trkpt lat="46.40873465575351" lon="12.100617488796017"><ele>1582.0</ele><time>2026-04-25T11:09:34.999Z</time></trkpt><trkpt lat="46.40867147121457" lon="12.100776770105226"><ele>1583.5</ele><time>2026-04-25T11:09:35.999Z</time></trkpt><trkpt lat="46.40861204998221" lon="12.10093212343911"><ele>1585.0</ele><time>2026-04-25T11:09:36.999Z</time></trkpt><trkpt lat="46.40856162451581" lon="12.101102469349758"><ele>1586.5</ele><time>2026-04-25T11:09:37.999Z</time></trkpt><trkpt lat="46.408537369706444" lon="12.101305386039751"><ele>1588.0</ele><time>2026-04-25T11:09:38.999Z</time></trkpt><trkpt lat="46.40851540720196" lon="12.101512375831275"><ele>1590.0</ele><time>2026-04-25T11:09:39.999Z</time></trkpt><trkpt lat="46.40849313825658" lon="12.10167539077545"><ele>1592.0</ele><time>2026-04-25T11:09:40.999Z</time></trkpt><trkpt lat="46.408487830180256" lon="12.101808847071263"><ele>1594.0</ele><time>2026-04-25T11:09:41.999Z</time></trkpt><trkpt lat="46.40851331302673" lon="12.101924749444931"><ele>1596.0</ele><time>2026-04-25T11:09:42.999Z</time></trkpt><trkpt lat="46.40857869924361" lon="12.102006448813473"><ele>1598.0</ele><time>2026-04-25T11:09:43.999Z</time></trkpt><trkpt lat="46.408662016591904" lon="12.102051329067084"><ele>1598.0</ele><time>2026-04-25T11:09:44.999Z</time></trkpt><trkpt lat="46.40875189115102" lon="12.10203949180613"><ele>1598.0</ele><time>2026-04-25T11:09:45.999Z</time></trkpt><trkpt lat="46.40882862670927" lon="12.101956097662875"><ele>1598.0</ele><time>2026-04-25T11:09:46.999Z</time></trkpt><trkpt lat="46.40886415161218" lon="12.101822983437652"><ele>1598.0</ele><time>2026-04-25T11:09:47.999Z</time></trkpt><trkpt lat="46.40886086623564" lon="12.10167232730729"><ele>1598.0</ele><time>2026-04-25T11:09:48.999Z</time></trkpt><trkpt lat="46.408837634307424" lon="12.101509590202854"><ele>1600.25</ele><time>2026-04-25T11:09:49.999Z</time></trkpt><trkpt lat="46.4088368514738" lon="12.10136525014518"><ele>1602.5</ele><time>2026-04-25T11:09:50.999Z</time></trkpt><trkpt lat="46.40888136699915" lon="12.101236904592067"><ele>1604.75</ele><time>2026-04-25T11:09:51.999Z</time></trkpt><trkpt lat="46.40896934692199" lon="12.101115528815662"><ele>1607.0</ele><time>2026-04-25T11:09:52.999Z</time></trkpt><trkpt lat="46.40910290670202" lon="12.101013970269777"><ele>1607.0</ele><time>2026-04-25T11:09:53.999Z</time></trkpt><trkpt lat="46.40926291706523" lon="12.100884759153283"><ele>1607.0</ele><time>2026-04-25T11:09:54.999Z</time></trkpt><trkpt lat="46.4094420568463" lon="12.100728925867223"><ele>1607.0</ele><time>2026-04-25T11:09:55.999Z</time></trkpt><trkpt lat="46.40960523726372" lon="12.100612950097489"><ele>1608.0</ele><time>2026-04-25T11:09:56.999Z</time></trkpt><trkpt lat="46.40974180437582" lon="12.100503760592327"><ele>1609.0</ele><time>2026-04-25T11:09:57.999Z</time></trkpt><trkpt lat="46.4098713273726" lon="12.100425039941255"><ele>1610.0</ele><time>2026-04-25T11:09:58.999Z</time></trkpt><trkpt lat="46.41002894475705" lon="12.100407374166679"><ele>1610.0</ele><time>2026-04-25T11:09:59.999Z</time></trkpt><trkpt lat="46.41021862943718" lon="12.100432572591078"><ele>1610.0</ele><time>2026-04-25T11:10:00.999Z</time></trkpt><trkpt lat="46.410390018543225" lon="12.100447219672116"><ele>1610.0</ele><time>2026-04-25T11:10:01.999Z</time></trkpt><trkpt lat="46.41053081665289" lon="12.100462250208327"><ele>1612.25</ele><time>2026-04-25T11:10:02.999Z</time></trkpt><trkpt lat="46.41066549906576" lon="12.100473402125973"><ele>1614.5</ele><time>2026-04-25T11:10:03.999Z</time></trkpt><trkpt lat="46.41080030317099" lon="12.100457538474693"><ele>1616.75</ele><time>2026-04-25T11:10:04.999Z</time></trkpt><trkpt lat="46.41093741882338" lon="12.100411082177063"><ele>1619.0</ele><time>2026-04-25T11:10:05.999Z</time></trkpt><trkpt lat="46.411067375473195" lon="12.100308705002416"><ele>1619.0</ele><time>2026-04-25T11:10:06.999Z</time></trkpt><trkpt lat="46.41119566326749" lon="12.100227710891634"><ele>1619.0</ele><time>2026-04-25T11:10:07.999Z</time></trkpt><trkpt lat="46.411347657473335" lon="12.100183618858924"><ele>1619.0</ele><time>2026-04-25T11:10:08.999Z</time></trkpt><trkpt lat="46.41149307547889" lon="12.100145637561026"><ele>1619.0</ele><time>2026-04-25T11:10:09.999Z</time></trkpt><trkpt lat="46.41163425243147" lon="12.10013612899786"><ele>1622.5</ele><time>2026-04-25T11:10:10.999Z</time></trkpt><trkpt lat="46.41178549727125" lon="12.100168914597287"><ele>1626.0</ele><time>2026-04-25T11:10:11.999Z</time></trkpt><trkpt lat="46.411932245476955" lon="12.100208583293206"><ele>1629.5</ele><time>2026-04-25T11:10:12.999Z</time></trkpt><trkpt lat="46.412061831005225" lon="12.100221471064796"><ele>1633.0</ele><time>2026-04-25T11:10:13.999Z</time></trkpt><trkpt lat="46.41218062173082" lon="12.100225159360647"><ele>1636.0</ele><time>2026-04-25T11:10:14.999Z</time></trkpt><trkpt lat="46.41229264827031" lon="12.10019034133251"><ele>1639.0</ele><time>2026-04-25T11:10:15.999Z</time></trkpt><trkpt lat="46.412390243033784" lon="12.10010429252812"><ele>1642.0</ele><time>2026-04-25T11:10:16.999Z</time></trkpt><trkpt lat="46.41246151290063" lon="12.09996512969427"><ele>1645.0</ele><time>2026-04-25T11:10:18Z</time></trkpt><trkpt lat="46.412491579687206" lon="12.099777202530184"><ele>1645.0</ele><time>2026-04-25T11:10:19Z</time></trkpt><trkpt lat="46.41251413716811" lon="12.09959185539557"><ele>1645.0</ele><time>2026-04-25T11:10:20Z</time></trkpt><trkpt lat="46.412583483120564" lon="12.09943655303922"><ele>1645.0</ele><time>2026-04-25T11:10:21Z</time></trkpt><trkpt lat="46.412697603720304" lon="12.09930512869608"><ele>1645.0</ele><time>2026-04-25T11:10:22Z</time></trkpt><trkpt lat="46.4128517146226" lon="12.099211247363778"><ele>1643.6666666666667</ele><time>2026-04-25T11:10:23Z</time></trkpt><trkpt lat="46.413029622633516" lon="12.09914149132054"><ele>1642.3333333333335</ele><time>2026-04-25T11:10:24Z</time></trkpt><trkpt lat="46.4132268125409" lon="12.099102738910881"><ele>1641.0</ele><time>2026-04-25T11:10:25Z</time></trkpt><trkpt lat="46.413398961879146" lon="12.099064523432277"><ele>1641.0</ele><time>2026-04-25T11:10:26Z</time></trkpt><trkpt lat="46.41355431834804" lon="12.09903156252001"><ele>1641.0</ele><time>2026-04-25T11:10:27Z</time></trkpt><trkpt lat="46.41368361760412" lon="12.098990965304274"><ele>1641.0</ele><time>2026-04-25T11:10:28Z</time></trkpt><trkpt lat="46.41381152823888" lon="12.098938855218234"><ele>1641.0</ele><time>2026-04-25T11:10:29Z</time></trkpt><trkpt lat="46.413942016628944" lon="12.098859606004165"><ele>1646.0</ele><time>2026-04-25T11:10:30Z</time></trkpt><trkpt lat="46.414065676396916" lon="12.098740659710813"><ele>1651.0</ele><time>2026-04-25T11:10:31Z</time></trkpt><trkpt lat="46.41419493588949" lon="12.098600105945811"><ele>1656.0</ele><time>2026-04-25T11:10:32Z</time></trkpt><trkpt lat="46.41434672875497" lon="12.098494049124415"><ele>1656.0</ele><time>2026-04-25T11:10:33Z</time></trkpt><trkpt lat="46.41448622103871" lon="12.098392814109966"><ele>1656.0</ele><time>2026-04-25T11:10:34Z</time></trkpt><trkpt lat="46.414620783639926" lon="12.098309332528144"><ele>1656.0</ele><time>2026-04-25T11:10:35Z</time></trkpt><trkpt lat="46.41477703853906" lon="12.098274977398225"><ele>1658.25</ele><time>2026-04-25T11:10:36Z</time></trkpt><trkpt lat="46.414926048427624" lon="12.098272532627869"><ele>1660.5</ele><time>2026-04-25T11:10:37Z</time></trkpt><trkpt lat="46.415071142078546" lon="12.098308692922672"><ele>1662.75</ele><time>2026-04-25T11:10:38Z</time></trkpt><trkpt lat="46.41520790138705" lon="12.098377440922404"><ele>1665.0</ele><time>2026-04-25T11:10:39Z</time></trkpt><trkpt lat="46.41532538096187" lon="12.098487386063377"><ele>1665.0</ele><time>2026-04-25T11:10:40Z</time></trkpt><trkpt lat="46.41542897229618" lon="12.09866530307221"><ele>1665.0</ele><time>2026-04-25T11:10:41Z</time></trkpt><trkpt lat="46.41552348425693" lon="12.098896807626291"><ele>1665.0</ele><time>2026-04-25T11:10:42Z</time></trkpt><trkpt lat="46.415621528366366" lon="12.099133270249384"><ele>1666.0</ele><time>2026-04-25T11:10:43Z</time></trkpt><trkpt lat="46.415707447957494" lon="12.099332860735144"><ele>1667.0</ele><time>2026-04-25T11:10:44Z</time></trkpt><trkpt lat="46.415803837437245" lon="12.099516325309507"><ele>1668.0</ele><time>2026-04-25T11:10:45Z</time></trkpt><trkpt lat="46.41592352503127" lon="12.099676976988158"><ele>1668.0</ele><time>2026-04-25T11:10:46Z</time></trkpt><trkpt lat="46.41606991460648" lon="12.099821666399386"><ele>1668.0</ele><time>2026-04-25T11:10:47Z</time></trkpt><trkpt lat="46.416243694968244" lon="12.099946928447833"><ele>1668.0</ele><time>2026-04-25T11:10:48Z</time></trkpt><trkpt lat="46.41642382393498" lon="12.1000656560113"><ele>1670.6666666666665</ele><time>2026-04-25T11:10:49Z</time></trkpt><trkpt lat="46.41660369357182" lon="12.10018665798709"><ele>1673.3333333333333</ele><time>2026-04-25T11:10:50Z</time></trkpt><trkpt lat="46.416775491045726" lon="12.100306967974229"><ele>1676.0</ele><time>2026-04-25T11:10:51Z</time></trkpt><trkpt lat="46.41693726673686" lon="12.100418188608518"><ele>1676.0</ele><time>2026-04-25T11:10:52Z</time></trkpt><trkpt lat="46.41708616976979" lon="12.100525388605597"><ele>1676.0</ele><time>2026-04-25T11:10:53Z</time></trkpt><trkpt lat="46.417219367652834" lon="12.100625920080414"><ele>1676.0</ele><time>2026-04-25T11:10:54Z</time></trkpt><trkpt lat="46.41734924740104" lon="12.100708348142087"><ele>1676.25</ele><time>2026-04-25T11:10:55Z</time></trkpt><trkpt lat="46.417483306357" lon="12.100749043659018"><ele>1676.5</ele><time>2026-04-25T11:10:56Z</time></trkpt><trkpt lat="46.41762275629482" lon="12.100730711457569"><ele>1676.75</ele><time>2026-04-25T11:10:57Z</time></trkpt><trkpt lat="46.41775799264436" lon="12.10064458788982"><ele>1677.0</ele><time>2026-04-25T11:10:58Z</time></trkpt><trkpt lat="46.4178783586257" lon="12.1004981659531"><ele>1677.0</ele><time>2026-04-25T11:10:59Z</time></trkpt><trkpt lat="46.41796844332541" lon="12.100298693992212"><ele>1677.0</ele><time>2026-04-25T11:11:00Z</time></trkpt><trkpt lat="46.418036069603424" lon="12.100086344340795"><ele>1677.0</ele><time>2026-04-25T11:11:01Z</time></trkpt><trkpt lat="46.418094493712076" lon="12.099917128167842"><ele>1684.0</ele><time>2026-04-25T11:11:02Z</time></trkpt><trkpt lat="46.41816028278376" lon="12.099767220904202"><ele>1691.0</ele><time>2026-04-25T11:11:03Z</time></trkpt><trkpt lat="46.41822531300959" lon="12.09959105309306"><ele>1698.0</ele><time>2026-04-25T11:11:04Z</time></trkpt><trkpt lat="46.41826254141018" lon="12.099386121965997"><ele>1705.0</ele><time>2026-04-25T11:11:05Z</time></trkpt><trkpt lat="46.41826719945433" lon="12.099151662614881"><ele>1706.6666666666667</ele><time>2026-04-25T11:11:06Z</time></trkpt><trkpt lat="46.41823543768149" lon="12.098889583105771"><ele>1708.3333333333335</ele><time>2026-04-25T11:11:07Z</time></trkpt><trkpt lat="46.41821452707317" lon="12.09859956967942"><ele>1710.0</ele><time>2026-04-25T11:11:08Z</time></trkpt><trkpt lat="46.4181943789939" lon="12.098310296777319"><ele>1710.3333333333335</ele><time>2026-04-25T11:11:09Z</time></trkpt><trkpt lat="46.41817296472389" lon="12.098022431872867"><ele>1710.6666666666667</ele><time>2026-04-25T11:11:10Z</time></trkpt><trkpt lat="46.41818289638603" lon="12.097760432082032"><ele>1711.0</ele><time>2026-04-25T11:11:11Z</time></trkpt><trkpt lat="46.418203701911665" lon="12.097520604113495"><ele>1712.6666666666667</ele><time>2026-04-25T11:11:12Z</time></trkpt><trkpt lat="46.41823186987372" lon="12.09728761981449"><ele>1714.3333333333335</ele><time>2026-04-25T11:11:13Z</time></trkpt><trkpt lat="46.41826322697151" lon="12.09705849783882"><ele>1716.0</ele><time>2026-04-25T11:11:14Z</time></trkpt><trkpt lat="46.41829116401737" lon="12.096823601514638"><ele>1717.0</ele><time>2026-04-25T11:11:15Z</time></trkpt><trkpt lat="46.418306146242884" lon="12.096584488519552"><ele>1718.0</ele><time>2026-04-25T11:11:16Z</time></trkpt><trkpt lat="46.41830827658692" lon="12.096350099120091"><ele>1719.0</ele><time>2026-04-25T11:11:17Z</time></trkpt><trkpt lat="46.41829631340677" lon="12.096144015919748"><ele>1719.0</ele><time>2026-04-25T11:11:18Z</time></trkpt><trkpt lat="46.41827587277563" lon="12.095948737917908"><ele>1719.0</ele><time>2026-04-25T11:11:19Z</time></trkpt><trkpt lat="46.41825269455302" lon="12.09574494903913"><ele>1719.0</ele><time>2026-04-25T11:11:20Z</time></trkpt><trkpt lat="46.41824571882804" lon="12.095538262638092"><ele>1719.0</ele><time>2026-04-25T11:11:21Z</time></trkpt><trkpt lat="46.418280235175814" lon="12.095329211308343"><ele>1718.0</ele><time>2026-04-25T11:11:22Z</time></trkpt><trkpt lat="46.41834467340519" lon="12.095118632663526"><ele>1717.0</ele><time>2026-04-25T11:11:23Z</time></trkpt><trkpt lat="46.41840367304426" lon="12.09494611636346"><ele>1716.0</ele><time>2026-04-25T11:11:24Z</time></trkpt><trkpt lat="46.41844877564482" lon="12.094806624051248"><ele>1715.0</ele><time>2026-04-25T11:11:25Z</time></trkpt><trkpt lat="46.418484001123666" lon="12.094685555734381"><ele>1714.9999999999998</ele><time>2026-04-25T11:11:26Z</time></trkpt><trkpt lat="46.41853350138289" lon="12.094599941706816"><ele>1715.0</ele><time>2026-04-25T11:11:27Z</time></trkpt><trkpt lat="46.41860154572228" lon="12.094588326928218"><ele>1715.0</ele><time>2026-04-25T11:11:28Z</time></trkpt><trkpt lat="46.418655686426874" lon="12.094644465118765"><ele>1715.0</ele><time>2026-04-25T11:11:29Z</time></trkpt><trkpt lat="46.41866381757534" lon="12.094745216532921"><ele>1714.9999999999998</ele><time>2026-04-25T11:11:29.999Z</time></trkpt><trkpt lat="46.41861039920329" lon="12.094869806389275"><ele>1715.0</ele><time>2026-04-25T11:11:30.999Z</time></trkpt><trkpt lat="46.418556836795936" lon="12.095014548816378"><ele>1715.0</ele><time>2026-04-25T11:11:31.999Z</time></trkpt><trkpt lat="46.41853132764119" lon="12.095183861143468"><ele>1715.0</ele><time>2026-04-25T11:11:32.999Z</time></trkpt><trkpt lat="46.41851378861791" lon="12.095351674119307"><ele>1715.0</ele><time>2026-04-25T11:11:33.999Z</time></trkpt><trkpt lat="46.41850954895161" lon="12.095520254994728"><ele>1715.0</ele><time>2026-04-25T11:11:34.999Z</time></trkpt><trkpt lat="46.41852040114804" lon="12.095696555195902"><ele>1716.0</ele><time>2026-04-25T11:11:35.999Z</time></trkpt><trkpt lat="46.41854379592677" lon="12.095881701424027"><ele>1717.0</ele><time>2026-04-25T11:11:36.999Z</time></trkpt><trkpt lat="46.41856436731191" lon="12.096081014933251"><ele>1718.0</ele><time>2026-04-25T11:11:37.999Z</time></trkpt><trkpt lat="46.4185756301948" lon="12.096280961639579"><ele>1719.0</ele><time>2026-04-25T11:11:38.999Z</time></trkpt><trkpt lat="46.418588346399915" lon="12.096478968969077"><ele>1718.25</ele><time>2026-04-25T11:11:39.999Z</time></trkpt><trkpt lat="46.418592909069076" lon="12.096678532876922"><ele>1717.5</ele><time>2026-04-25T11:11:40.999Z</time></trkpt><trkpt lat="46.41860427734056" lon="12.096872491944502"><ele>1716.75</ele><time>2026-04-25T11:11:41.999Z</time></trkpt><trkpt lat="46.418629825028795" lon="12.09705287617751"><ele>1716.0</ele><time>2026-04-25T11:11:42.999Z</time></trkpt><trkpt lat="46.418694113148014" lon="12.097221607058298"><ele>1716.0</ele><time>2026-04-25T11:11:43.999Z</time></trkpt><trkpt lat="46.41880450147486" lon="12.097392247387948"><ele>1716.0</ele><time>2026-04-25T11:11:44.999Z</time></trkpt><trkpt lat="46.4189096473586" lon="12.097596771222756"><ele>1716.0</ele><time>2026-04-25T11:11:45.999Z</time></trkpt><trkpt lat="46.41897812800427" lon="12.097823644600542"><ele>1729.0</ele><time>2026-04-25T11:11:46.999Z</time></trkpt><trkpt lat="46.41901014012347" lon="12.098058143731844"><ele>1742.0</ele><time>2026-04-25T11:11:47.999Z</time></trkpt><trkpt lat="46.41902287916712" lon="12.098329355813595"><ele>1755.0</ele><time>2026-04-25T11:11:48.999Z</time></trkpt><trkpt lat="46.41904972343259" lon="12.098614645913724"><ele>1754.0</ele><time>2026-04-25T11:11:49.999Z</time></trkpt><trkpt lat="46.41909293277274" lon="12.09889132117136"><ele>1753.0</ele><time>2026-04-25T11:11:50.999Z</time></trkpt><trkpt lat="46.41913883055278" lon="12.09914396373353"><ele>1752.0</ele><time>2026-04-25T11:11:51.999Z</time></trkpt><trkpt lat="46.419192191020855" lon="12.09937321046965"><ele>1752.0</ele><time>2026-04-25T11:11:52.999Z</time></trkpt><trkpt lat="46.41924742369888" lon="12.099582917037427"><ele>1752.0</ele><time>2026-04-25T11:11:53.999Z</time></trkpt><trkpt lat="46.41930114180217" lon="12.099784184548012"><ele>1752.0</ele><time>2026-04-25T11:11:54.999Z</time></trkpt><trkpt lat="46.41934541617294" lon="12.09997554519707"><ele>1752.0</ele><time>2026-04-25T11:11:55.999Z</time></trkpt><trkpt lat="46.41937638543625" lon="12.100173676005655"><ele>1749.0</ele><time>2026-04-25T11:11:56.999Z</time></trkpt><trkpt lat="46.41940630216711" lon="12.100367618951385"><ele>1746.0</ele><time>2026-04-25T11:11:57.999Z</time></trkpt><trkpt lat="46.4194391648308" lon="12.100564582165168"><ele>1743.0</ele><time>2026-04-25T11:11:58.999Z</time></trkpt><trkpt lat="46.41948395787777" lon="12.100768091832755"><ele>1740.0</ele><time>2026-04-25T11:11:59.999Z</time></trkpt><trkpt lat="46.41954542172213" lon="12.100967306624062"><ele>1739.0</ele><time>2026-04-25T11:12:00.999Z</time></trkpt><trkpt lat="46.419622486286116" lon="12.10115803654929"><ele>1738.0</ele><time>2026-04-25T11:12:01.999Z</time></trkpt><trkpt lat="46.419708800814035" lon="12.101348125599749"><ele>1737.0</ele><time>2026-04-25T11:12:02.999Z</time></trkpt><trkpt lat="46.41979548123928" lon="12.101540417025735"><ele>1748.6666666666665</ele><time>2026-04-25T11:12:03.999Z</time></trkpt><trkpt lat="46.41987259298052" lon="12.101745170920545"><ele>1760.3333333333333</ele><time>2026-04-25T11:12:04.999Z</time></trkpt><trkpt lat="46.419950476655515" lon="12.10195204939848"><ele>1772.0</ele><time>2026-04-25T11:12:05.999Z</time></trkpt><trkpt lat="46.4200205697546" lon="12.102161703012463"><ele>1772.0</ele><time>2026-04-25T11:12:06.999Z</time></trkpt><trkpt lat="46.420075690497086" lon="12.102374108889519"><ele>1772.0</ele><time>2026-04-25T11:12:07.999Z</time></trkpt><trkpt lat="46.42012665062711" lon="12.10258160025489"><ele>1772.0</ele><time>2026-04-25T11:12:08.999Z</time></trkpt><trkpt lat="46.420180720249704" lon="12.102785205707143"><ele>1772.25</ele><time>2026-04-25T11:12:09.999Z</time></trkpt><trkpt lat="46.42023357839356" lon="12.102979857419783"><ele>1772.5</ele><time>2026-04-25T11:12:10.999Z</time></trkpt><trkpt lat="46.42029198765084" lon="12.103175921947631"><ele>1772.75</ele><time>2026-04-25T11:12:11.999Z</time></trkpt><trkpt lat="46.42035543730762" lon="12.103356401892727"><ele>1773.0</ele><time>2026-04-25T11:12:12.999Z</time></trkpt><trkpt lat="46.420414739582306" lon="12.103520415423407"><ele>1773.0</ele><time>2026-04-25T11:12:13.999Z</time></trkpt><trkpt lat="46.42046096554792" lon="12.103671460686808"><ele>1773.0000000000002</ele><time>2026-04-25T11:12:14.999Z</time></trkpt><trkpt lat="46.420498412448026" lon="12.103798708399568"><ele>1773.0000000000002</ele><time>2026-04-25T11:12:15.999Z</time></trkpt><trkpt lat="46.420532718800814" lon="12.103915796947616"><ele>1773.0</ele><time>2026-04-25T11:12:16.999Z</time></trkpt><trkpt lat="46.42056812058826" lon="12.104034039985155"><ele>1773.0</ele><time>2026-04-25T11:12:17.999Z</time></trkpt><trkpt lat="46.42059772275141" lon="12.104136918471875"><ele>1773.1666666666667</ele><time>2026-04-25T11:12:18.999Z</time></trkpt><trkpt lat="46.42062315755567" lon="12.104239683554079"><ele>1773.3333333333335</ele><time>2026-04-25T11:12:19.999Z</time></trkpt><trkpt lat="46.4206527868107" lon="12.104348941123988"><ele>1773.5</ele><time>2026-04-25T11:12:20.999Z</time></trkpt><trkpt lat="46.42068548717047" lon="12.104453410990015"><ele>1773.6666666666667</ele><time>2026-04-25T11:12:21.999Z</time></trkpt><trkpt lat="46.42070861426366" lon="12.104547646557169"><ele>1773.8333333333335</ele><time>2026-04-25T11:12:23Z</time></trkpt><trkpt lat="46.420736188250814" lon="12.10470406015092"><ele>1774.0</ele><time>2026-04-25T11:12:25Z</time></trkpt><trkpt lat="46.42075538454979" lon="12.10481239016133"><ele>1774.0000000000002</ele><time>2026-04-25T11:12:27Z</time></trkpt><trkpt lat="46.42077890387331" lon="12.104911815043986"><ele>1774.0</ele><time>2026-04-25T11:12:29Z</time></trkpt><trkpt lat="46.42078156151562" lon="12.1050174471186"><ele>1774.0</ele><time>2026-04-25T11:12:32Z</time></trkpt><trkpt lat="46.420802285131735" lon="12.1051038786872"><ele>1774.0</ele><time>2026-04-25T11:14:43Z</time></trkpt><trkpt lat="46.42085565838816" lon="12.10523690620998"><ele>1774.0000000000002</ele><time>2026-04-25T11:14:46Z</time></trkpt><trkpt lat="46.420904895727105" lon="12.105378392581997"><ele>1774.0</ele><time>2026-04-25T11:14:48Z</time></trkpt><trkpt lat="46.42096407674389" lon="12.10554869925116"><ele>1773.4</ele><time>2026-04-25T11:14:50Z</time></trkpt><trkpt lat="46.42102100906515" lon="12.105638764906931"><ele>1772.8000000000002</ele><time>2026-04-25T11:14:51Z</time></trkpt><trkpt lat="46.42110919700214" lon="12.105720640716978"><ele>1772.1999999999998</ele><time>2026-04-25T11:14:52Z</time></trkpt><trkpt lat="46.42122209703722" lon="12.105800197743916"><ele>1771.6</ele><time>2026-04-25T11:14:53Z</time></trkpt><trkpt lat="46.42134553542821" lon="12.105874387040554"><ele>1771.0</ele><time>2026-04-25T11:14:54Z</time></trkpt><trkpt lat="46.42145271850748" lon="12.105937097888694"><ele>1771.0</ele><time>2026-04-25T11:14:55Z</time></trkpt><trkpt lat="46.42155520022106" lon="12.105999658191738"><ele>1771.0</ele><time>2026-04-25T11:14:56Z</time></trkpt><trkpt lat="46.421659409742354" lon="12.106066041355984"><ele>1771.0</ele><time>2026-04-25T11:14:57Z</time></trkpt><trkpt lat="46.42176676967132" lon="12.106137236470438"><ele>1771.0</ele><time>2026-04-25T11:14:58Z</time></trkpt><trkpt lat="46.421880630507296" lon="12.106207116887592"><ele>1771.0</ele><time>2026-04-25T11:14:59Z</time></trkpt><trkpt lat="46.42200400461413" lon="12.106281980347225"><ele>1771.0</ele><time>2026-04-25T11:15:00Z</time></trkpt><trkpt lat="46.42212294104676" lon="12.106360991430856"><ele>1771.0</ele><time>2026-04-25T11:15:01Z</time></trkpt><trkpt lat="46.422248757920826" lon="12.10643143205954"><ele>1771.0</ele><time>2026-04-25T11:15:02Z</time></trkpt><trkpt lat="46.42237473685388" lon="12.106496974528437"><ele>1773.5</ele><time>2026-04-25T11:15:03Z</time></trkpt><trkpt lat="46.42248954204567" lon="12.10655061760444"><ele>1776.0</ele><time>2026-04-25T11:15:04Z</time></trkpt><trkpt lat="46.42260212456018" lon="12.106595859812726"><ele>1778.5</ele><time>2026-04-25T11:15:05Z</time></trkpt><trkpt lat="46.42271648514335" lon="12.106624015757708"><ele>1781.0</ele><time>2026-04-25T11:15:06Z</time></trkpt><trkpt lat="46.42283359335828" lon="12.106640871832438"><ele>1774.75</ele><time>2026-04-25T11:15:07Z</time></trkpt><trkpt lat="46.42294822717357" lon="12.106662532382467"><ele>1768.5</ele><time>2026-04-25T11:15:08Z</time></trkpt><trkpt lat="46.423065174234864" lon="12.106681958850043"><ele>1762.25</ele><time>2026-04-25T11:15:09Z</time></trkpt><trkpt lat="46.423189589651926" lon="12.106696804503587"><ele>1756.0</ele><time>2026-04-25T11:15:10Z</time></trkpt><trkpt lat="46.423321858398744" lon="12.106719382360101"><ele>1755.75</ele><time>2026-04-25T11:15:11Z</time></trkpt><trkpt lat="46.42345896575396" lon="12.106742287473104"><ele>1755.5</ele><time>2026-04-25T11:15:12Z</time></trkpt><trkpt lat="46.42359301444048" lon="12.106766241404173"><ele>1755.25</ele><time>2026-04-25T11:15:12.999Z</time></trkpt><trkpt lat="46.423721623007175" lon="12.106798957434425"><ele>1755.0</ele><time>2026-04-25T11:15:13.999Z</time></trkpt><trkpt lat="46.42384920456707" lon="12.106856085179286"><ele>1757.25</ele><time>2026-04-25T11:15:14.999Z</time></trkpt><trkpt lat="46.42397478909554" lon="12.106941744917115"><ele>1759.5</ele><time>2026-04-25T11:15:15.999Z</time></trkpt><trkpt lat="46.42409200789466" lon="12.107043059707944"><ele>1761.75</ele><time>2026-04-25T11:15:16.999Z</time></trkpt><trkpt lat="46.42419718336628" lon="12.107151744447563"><ele>1764.0</ele><time>2026-04-25T11:15:17.999Z</time></trkpt><trkpt lat="46.424302323006685" lon="12.107252685090266"><ele>1764.0</ele><time>2026-04-25T11:15:18.999Z</time></trkpt><trkpt lat="46.42441581336967" lon="12.107342029278634"><ele>1764.0</ele><time>2026-04-25T11:15:19.999Z</time></trkpt><trkpt lat="46.42453394811839" lon="12.107423604219266"><ele>1764.0</ele><time>2026-04-25T11:15:20.999Z</time></trkpt><trkpt lat="46.42465706155954" lon="12.107496832032696"><ele>1764.0</ele><time>2026-04-25T11:15:21.999Z</time></trkpt><trkpt lat="46.424808443202004" lon="12.107557620078731"><ele>1755.0</ele><time>2026-04-25T11:15:22.999Z</time></trkpt><trkpt lat="46.424966455623036" lon="12.107543958579022"><ele>1746.0</ele><time>2026-04-25T11:15:23.999Z</time></trkpt><trkpt lat="46.42512996254829" lon="12.107568556486461"><ele>1737.0</ele><time>2026-04-25T11:15:24.999Z</time></trkpt><trkpt lat="46.4252810704591" lon="12.107601895429394"><ele>1737.0</ele><time>2026-04-25T11:15:25.999Z</time></trkpt><trkpt lat="46.425419033828824" lon="12.107632260731126"><ele>1737.0</ele><time>2026-04-25T11:15:26.999Z</time></trkpt><trkpt lat="46.42555686746022" lon="12.107659665664814"><ele>1737.0</ele><time>2026-04-25T11:15:27.999Z</time></trkpt><trkpt lat="46.425700529081126" lon="12.107683007233423"><ele>1737.0</ele><time>2026-04-25T11:15:28.999Z</time></trkpt><trkpt lat="46.425835349460165" lon="12.107709652449048"><ele>1737.5</ele><time>2026-04-25T11:15:29.999Z</time></trkpt><trkpt lat="46.425957092240154" lon="12.107725623318835"><ele>1738.0</ele><time>2026-04-25T11:15:30.999Z</time></trkpt><trkpt lat="46.42607224294855" lon="12.10771960959748"><ele>1738.5</ele><time>2026-04-25T11:15:31.999Z</time></trkpt><trkpt lat="46.426183966492914" lon="12.107681834220998"><ele>1739.0</ele><time>2026-04-25T11:15:32.999Z</time></trkpt><trkpt lat="46.42628836267862" lon="12.107632922603205"><ele>1737.6666666666665</ele><time>2026-04-25T11:15:33.999Z</time></trkpt><trkpt lat="46.42639168058403" lon="12.107592169620407"><ele>1736.3333333333333</ele><time>2026-04-25T11:15:34.999Z</time></trkpt><trkpt lat="46.426490643958076" lon="12.107560530003761"><ele>1735.0</ele><time>2026-04-25T11:15:35.999Z</time></trkpt><trkpt lat="46.426567049031846" lon="12.10753432351931"><ele>1733.6666666666665</ele><time>2026-04-25T11:15:36.999Z</time></trkpt><trkpt lat="46.42663790754639" lon="12.107562743960496"><ele>1732.3333333333333</ele><time>2026-04-25T11:15:37.999Z</time></trkpt><trkpt lat="46.42668144852059" lon="12.107650527835618"><ele>1731.0</ele><time>2026-04-25T11:15:38.999Z</time></trkpt><trkpt lat="46.42667707700463" lon="12.107771058640886"><ele>1731.0</ele><time>2026-04-25T11:15:39.999Z</time></trkpt><trkpt lat="46.42662591417233" lon="12.107882185399175"><ele>1731.0</ele><time>2026-04-25T11:15:40.999Z</time></trkpt><trkpt lat="46.426523688367055" lon="12.10795996492464"><ele>1731.0</ele><time>2026-04-25T11:15:41.999Z</time></trkpt><trkpt lat="46.42639231182715" lon="12.108019860833766"><ele>1731.0</ele><time>2026-04-25T11:15:42.999Z</time></trkpt><trkpt lat="46.42628961202382" lon="12.10809164516446"><ele>1729.8</ele><time>2026-04-25T11:15:43.999Z</time></trkpt><trkpt lat="46.42620302680333" lon="12.108172562839366"><ele>1728.6</ele><time>2026-04-25T11:15:44.999Z</time></trkpt><trkpt lat="46.42612547613838" lon="12.108261851868322"><ele>1727.4</ele><time>2026-04-25T11:15:45.999Z</time></trkpt><trkpt lat="46.42605394534115" lon="12.108369804096512"><ele>1726.2</ele><time>2026-04-25T11:15:46.999Z</time></trkpt><trkpt lat="46.425982535545636" lon="12.108486904269007"><ele>1725.0</ele><time>2026-04-25T11:15:47.999Z</time></trkpt><trkpt lat="46.42590389644561" lon="12.10860073941947"><ele>1725.0</ele><time>2026-04-25T11:15:48.999Z</time></trkpt><trkpt lat="46.425824817723495" lon="12.108717580330373"><ele>1725.0</ele><time>2026-04-25T11:15:49.999Z</time></trkpt><trkpt lat="46.42575056271767" lon="12.10882687857015"><ele>1725.0</ele><time>2026-04-25T11:15:50.999Z</time></trkpt><trkpt lat="46.425684162307036" lon="12.108927272002417"><ele>1725.0</ele><time>2026-04-25T11:15:51.999Z</time></trkpt><trkpt lat="46.42563210618686" lon="12.109027116740238"><ele>1725.0</ele><time>2026-04-25T11:15:52.999Z</time></trkpt><trkpt lat="46.425610476462225" lon="12.109148764930346"><ele>1722.4</ele><time>2026-04-25T11:15:53.999Z</time></trkpt><trkpt lat="46.425633383442786" lon="12.109277070864028"><ele>1719.8</ele><time>2026-04-25T11:15:54.999Z</time></trkpt><trkpt lat="46.42569469193047" lon="12.109374631106741"><ele>1717.1999999999998</ele><time>2026-04-25T11:15:55.999Z</time></trkpt><trkpt lat="46.425785031566086" lon="12.109428114823931"><ele>1714.6</ele><time>2026-04-25T11:15:56.999Z</time></trkpt><trkpt lat="46.42590469419349" lon="12.109421803313154"><ele>1712.0</ele><time>2026-04-25T11:15:57.999Z</time></trkpt><trkpt lat="46.42604362681952" lon="12.109364477746347"><ele>1712.0</ele><time>2026-04-25T11:15:58.999Z</time></trkpt><trkpt lat="46.42618195350116" lon="12.109319046908375"><ele>1712.0</ele><time>2026-04-25T11:15:59.999Z</time></trkpt><trkpt lat="46.42632320045127" lon="12.109290558864448"><ele>1712.0</ele><time>2026-04-25T11:16:00.999Z</time></trkpt><trkpt lat="46.426460455565504" lon="12.109286567263284"><ele>1712.0</ele><time>2026-04-25T11:16:01.999Z</time></trkpt><trkpt lat="46.42658446326755" lon="12.109293869910479"><ele>1710.5</ele><time>2026-04-25T11:16:02.999Z</time></trkpt><trkpt lat="46.426705880244484" lon="12.109308992952217"><ele>1709.0</ele><time>2026-04-25T11:16:03.999Z</time></trkpt><trkpt lat="46.426828348372126" lon="12.10933764473486"><ele>1707.5</ele><time>2026-04-25T11:16:04.999Z</time></trkpt><trkpt lat="46.426944828113534" lon="12.109366459955371"><ele>1706.0</ele><time>2026-04-25T11:16:05.999Z</time></trkpt><trkpt lat="46.42704925407916" lon="12.109388525556511"><ele>1704.8</ele><time>2026-04-25T11:16:06.999Z</time></trkpt><trkpt lat="46.42714569842924" lon="12.109420001276757"><ele>1703.6</ele><time>2026-04-25T11:16:07.999Z</time></trkpt><trkpt lat="46.42723433823979" lon="12.109487705309922"><ele>1702.4</ele><time>2026-04-25T11:16:08.999Z</time></trkpt><trkpt lat="46.42731518874674" lon="12.109609003152908"><ele>1701.2</ele><time>2026-04-25T11:16:09.999Z</time></trkpt><trkpt lat="46.4273530541734" lon="12.109774825078427"><ele>1700.0</ele><time>2026-04-25T11:16:10.999Z</time></trkpt><trkpt lat="46.4273557282914" lon="12.10996253618663"><ele>1697.3333333333333</ele><time>2026-04-25T11:16:11.999Z</time></trkpt><trkpt lat="46.4273224475989" lon="12.11016753949979"><ele>1694.6666666666665</ele><time>2026-04-25T11:16:12.999Z</time></trkpt><trkpt lat="46.427274286758916" lon="12.110384229940065"><ele>1692.0</ele><time>2026-04-25T11:16:13.999Z</time></trkpt><trkpt lat="46.4272451280265" lon="12.110600331019167"><ele>1690.5</ele><time>2026-04-25T11:16:14.999Z</time></trkpt><trkpt lat="46.42723543750011" lon="12.11079870528013"><ele>1689.0</ele><time>2026-04-25T11:16:15.999Z</time></trkpt><trkpt lat="46.42724331421605" lon="12.110983685589897"><ele>1687.5</ele><time>2026-04-25T11:16:16.999Z</time></trkpt><trkpt lat="46.42724723655053" lon="12.111162921117977"><ele>1686.0</ele><time>2026-04-25T11:16:17.999Z</time></trkpt><trkpt lat="46.42722058256011" lon="12.111346046337168"><ele>1686.0</ele><time>2026-04-25T11:16:18.999Z</time></trkpt><trkpt lat="46.427162561665774" lon="12.111512494982495"><ele>1686.0</ele><time>2026-04-25T11:16:19.999Z</time></trkpt><trkpt lat="46.427092511714015" lon="12.111662751149252"><ele>1686.0</ele><time>2026-04-25T11:16:20.999Z</time></trkpt><trkpt lat="46.42703045597094" lon="12.111807784183087"><ele>1686.0</ele><time>2026-04-25T11:16:21.999Z</time></trkpt><trkpt lat="46.42698472295201" lon="12.11196345672951"><ele>1690.25</ele><time>2026-04-25T11:16:22.999Z</time></trkpt><trkpt lat="46.42696366989209" lon="12.112134221971695"><ele>1694.5</ele><time>2026-04-25T11:16:23.999Z</time></trkpt><trkpt lat="46.42697292255017" lon="12.112315825683266"><ele>1698.75</ele><time>2026-04-25T11:16:24.999Z</time></trkpt><trkpt lat="46.42700154291697" lon="12.112479674874436"><ele>1703.0</ele><time>2026-04-25T11:16:25.999Z</time></trkpt><trkpt lat="46.42701441303969" lon="12.112626835903777"><ele>1703.4999999999998</ele><time>2026-04-25T11:16:26.999Z</time></trkpt><trkpt lat="46.42702340022114" lon="12.112758673468186"><ele>1704.0</ele><time>2026-04-25T11:16:27.999Z</time></trkpt><trkpt lat="46.42705325502025" lon="12.112865682791101"><ele>1704.5</ele><time>2026-04-25T11:16:28.999Z</time></trkpt><trkpt lat="46.42711726296593" lon="12.11293504904115"><ele>1705.0</ele><time>2026-04-25T11:16:29.999Z</time></trkpt><trkpt lat="46.427192383678985" lon="12.112962552724902"><ele>1705.4999999999998</ele><time>2026-04-25T11:16:30.999Z</time></trkpt><trkpt lat="46.42727137983837" lon="12.112923429476005"><ele>1706.0</ele><time>2026-04-25T11:16:31.999Z</time></trkpt><trkpt lat="46.427343978689294" lon="12.112823011630603"><ele>1699.8</ele><time>2026-04-25T11:16:32.999Z</time></trkpt><trkpt lat="46.427415336527176" lon="12.112733769781784"><ele>1693.6</ele><time>2026-04-25T11:16:33.999Z</time></trkpt><trkpt lat="46.42749111630843" lon="12.112675867531367"><ele>1687.4</ele><time>2026-04-25T11:16:34.999Z</time></trkpt><trkpt lat="46.42757994136698" lon="12.112669151470039"><ele>1681.2</ele><time>2026-04-25T11:16:35.999Z</time></trkpt><trkpt lat="46.427669006412145" lon="12.112725285719634"><ele>1675.0</ele><time>2026-04-25T11:16:36.999Z</time></trkpt><trkpt lat="46.427733285124" lon="12.112868904227039"><ele>1675.0</ele><time>2026-04-25T11:16:37.999Z</time></trkpt><trkpt lat="46.42782046736426" lon="12.112982586409045"><ele>1675.0</ele><time>2026-04-25T11:16:39Z</time></trkpt><trkpt lat="46.42788620931264" lon="12.11311296094061"><ele>1675.0</ele><time>2026-04-25T11:16:40Z</time></trkpt><trkpt lat="46.42795483343453" lon="12.113227502077157"><ele>1675.0</ele><time>2026-04-25T11:16:41Z</time></trkpt><trkpt lat="46.428018473493644" lon="12.113334405298954"><ele>1675.0</ele><time>2026-04-25T11:16:42Z</time></trkpt><trkpt lat="46.42807785536038" lon="12.113436455604065"><ele>1672.8333333333335</ele><time>2026-04-25T11:16:43Z</time></trkpt><trkpt lat="46.428132657220864" lon="12.113534930368964"><ele>1670.6666666666667</ele><time>2026-04-25T11:16:44Z</time></trkpt><trkpt lat="46.42818673016683" lon="12.11362434800312"><ele>1668.5</ele><time>2026-04-25T11:16:45Z</time></trkpt><trkpt lat="46.42824056289023" lon="12.113704912654795"><ele>1666.3333333333335</ele><time>2026-04-25T11:16:46Z</time></trkpt><trkpt lat="46.428293145129715" lon="12.113774111271377"><ele>1664.1666666666667</ele><time>2026-04-25T11:16:47Z</time></trkpt><trkpt lat="46.42835459899847" lon="12.113814782482743"><ele>1662.0</ele><time>2026-04-25T11:16:48Z</time></trkpt><trkpt lat="46.42842339473609" lon="12.113812860447137"><ele>1662.0</ele><time>2026-04-25T11:16:49Z</time></trkpt><trkpt lat="46.428489706012286" lon="12.113741139309095"><ele>1662.0</ele><time>2026-04-25T11:16:50Z</time></trkpt><trkpt lat="46.42852639529211" lon="12.113613213109717"><ele>1662.0</ele><time>2026-04-25T11:16:51Z</time></trkpt><trkpt lat="46.428529488534636" lon="12.11346931921042"><ele>1662.0</ele><time>2026-04-25T11:16:52Z</time></trkpt><trkpt lat="46.42851604851481" lon="12.11331040896102"><ele>1662.0</ele><time>2026-04-25T11:16:53Z</time></trkpt><trkpt lat="46.42850367592177" lon="12.113136733167321"><ele>1661.0</ele><time>2026-04-25T11:16:54Z</time></trkpt><trkpt lat="46.42850283345413" lon="12.112956128842905"><ele>1660.0</ele><time>2026-04-25T11:16:55Z</time></trkpt><trkpt lat="46.428500405108394" lon="12.11276461549752"><ele>1659.0</ele><time>2026-04-25T11:16:56Z</time></trkpt><trkpt lat="46.42849225348563" lon="12.11256572917849"><ele>1658.0</ele><time>2026-04-25T11:16:57Z</time></trkpt><trkpt lat="46.428485922647646" lon="12.112361629941136"><ele>1657.75</ele><time>2026-04-25T11:16:58Z</time></trkpt><trkpt lat="46.4284810241301" lon="12.112154205585899"><ele>1657.5</ele><time>2026-04-25T11:16:59Z</time></trkpt><trkpt lat="46.428474505415295" lon="12.111949392401538"><ele>1657.25</ele><time>2026-04-25T11:17:00Z</time></trkpt><trkpt lat="46.42847057371066" lon="12.111749941758605"><ele>1657.0</ele><time>2026-04-25T11:17:01Z</time></trkpt><trkpt lat="46.428471538247166" lon="12.111558592303988"><ele>1657.0</ele><time>2026-04-25T11:17:02Z</time></trkpt><trkpt lat="46.42849066021017" lon="12.11137396146218"><ele>1657.0</ele><time>2026-04-25T11:17:03Z</time></trkpt><trkpt lat="46.42852685574956" lon="12.11119669725128"><ele>1657.0</ele><time>2026-04-25T11:17:04Z</time></trkpt><trkpt lat="46.428559327884415" lon="12.111022239649104"><ele>1657.0</ele><time>2026-04-25T11:17:05Z</time></trkpt><trkpt lat="46.428561612022555" lon="12.110846936769233"><ele>1658.6666666666667</ele><time>2026-04-25T11:17:06Z</time></trkpt><trkpt lat="46.42853653750772" lon="12.110685551857419"><ele>1660.3333333333335</ele><time>2026-04-25T11:17:07Z</time></trkpt><trkpt lat="46.42851740262946" lon="12.110544318238668"><ele>1662.0</ele><time>2026-04-25T11:17:08Z</time></trkpt><trkpt lat="46.428506895306285" lon="12.110432866571665"><ele>1663.6666666666665</ele><time>2026-04-25T11:17:09Z</time></trkpt><trkpt lat="46.42851282745609" lon="12.11033678670303"><ele>1665.3333333333333</ele><time>2026-04-25T11:17:10Z</time></trkpt><trkpt lat="46.42855174719104" lon="12.11026272365955"><ele>1667.0</ele><time>2026-04-25T11:17:11Z</time></trkpt><trkpt lat="46.428620780882085" lon="12.110250045341013"><ele>1667.0</ele><time>2026-04-25T11:17:12Z</time></trkpt><trkpt lat="46.428676088830414" lon="12.110322353005754"><ele>1667.0</ele><time>2026-04-25T11:17:13Z</time></trkpt><trkpt lat="46.42867666345014" lon="12.11046697385252"><ele>1667.0</ele><time>2026-04-25T11:17:13.999Z</time></trkpt><trkpt lat="46.428684016363086" lon="12.11062870532025"><ele>1667.0</ele><time>2026-04-25T11:17:14.999Z</time></trkpt><trkpt lat="46.428725839048326" lon="12.110806666137824"><ele>1667.0</ele><time>2026-04-25T11:17:15.999Z</time></trkpt><trkpt lat="46.42876085912091" lon="12.110986564604746"><ele>1665.0</ele><time>2026-04-25T11:17:16.999Z</time></trkpt><trkpt lat="46.42880073838665" lon="12.111140478452723"><ele>1663.0</ele><time>2026-04-25T11:17:17.999Z</time></trkpt><trkpt lat="46.42883190363576" lon="12.11129533779838"><ele>1661.0</ele><time>2026-04-25T11:17:18.999Z</time></trkpt><trkpt lat="46.42886536541001" lon="12.111449919114856"><ele>1659.0</ele><time>2026-04-25T11:17:19.999Z</time></trkpt><trkpt lat="46.428897010417614" lon="12.111587036828556"><ele>1657.0</ele><time>2026-04-25T11:17:20.999Z</time></trkpt><trkpt lat="46.42892663420053" lon="12.111718528425978"><ele>1653.3333333333335</ele><time>2026-04-25T11:17:21.999Z</time></trkpt><trkpt lat="46.42895277556367" lon="12.111843760891881"><ele>1649.6666666666667</ele><time>2026-04-25T11:17:22.999Z</time></trkpt><trkpt lat="46.428983629163106" lon="12.11195243815569"><ele>1646.0</ele><time>2026-04-25T11:17:23.999Z</time></trkpt><trkpt lat="46.42903155285803" lon="12.11202476547303"><ele>1642.3333333333335</ele><time>2026-04-25T11:17:24.999Z</time></trkpt><trkpt lat="46.429101466010266" lon="12.112049229560116"><ele>1638.6666666666667</ele><time>2026-04-25T11:17:25.999Z</time></trkpt><trkpt lat="46.42916871003088" lon="12.111994215775063"><ele>1635.0</ele><time>2026-04-25T11:17:26.999Z</time></trkpt><trkpt lat="46.429201066379335" lon="12.111883038922732"><ele>1635.0</ele><time>2026-04-25T11:17:27.999Z</time></trkpt><trkpt lat="46.429190301608976" lon="12.111741572980623"><ele>1635.0</ele><time>2026-04-25T11:17:28.999Z</time></trkpt><trkpt lat="46.42913142370083" lon="12.11157265573184"><ele>1635.0</ele><time>2026-04-25T11:17:29.999Z</time></trkpt><trkpt lat="46.429060657953485" lon="12.111374378724413"><ele>1635.0</ele><time>2026-04-25T11:17:30.999Z</time></trkpt><trkpt lat="46.42901084497472" lon="12.111159180347626"><ele>1633.75</ele><time>2026-04-25T11:17:31.999Z</time></trkpt><trkpt lat="46.42897887540893" lon="12.110977101626446"><ele>1632.5</ele><time>2026-04-25T11:17:32.999Z</time></trkpt><trkpt lat="46.428962745963744" lon="12.110791871188855"><ele>1631.25</ele><time>2026-04-25T11:17:33.999Z</time></trkpt><trkpt lat="46.42898070967779" lon="12.110593381466037"><ele>1630.0</ele><time>2026-04-25T11:17:34.999Z</time></trkpt><trkpt lat="46.429027551368826" lon="12.110378892045977"><ele>1630.0</ele><time>2026-04-25T11:17:35.999Z</time></trkpt><trkpt lat="46.42908325559737" lon="12.110168306290712"><ele>1630.0</ele><time>2026-04-25T11:17:36.999Z</time></trkpt><trkpt lat="46.4291339516629" lon="12.109962990532448"><ele>1630.0</ele><time>2026-04-25T11:17:37.999Z</time></trkpt><trkpt lat="46.42918344321928" lon="12.109759644059476"><ele>1631.3333333333335</ele><time>2026-04-25T11:17:38.999Z</time></trkpt><trkpt lat="46.42923218225562" lon="12.109552189928989"><ele>1632.6666666666665</ele><time>2026-04-25T11:17:39.999Z</time></trkpt><trkpt lat="46.429287959127095" lon="12.109341527544254"><ele>1634.0</ele><time>2026-04-25T11:17:40.999Z</time></trkpt><trkpt lat="46.42935137595415" lon="12.109152834792011"><ele>1635.0</ele><time>2026-04-25T11:17:41.999Z</time></trkpt><trkpt lat="46.42941755082583" lon="12.10898778229476"><ele>1636.0</ele><time>2026-04-25T11:17:42.999Z</time></trkpt><trkpt lat="46.42949371568399" lon="12.108828710687858"><ele>1637.0</ele><time>2026-04-25T11:17:43.999Z</time></trkpt><trkpt lat="46.42957448517492" lon="12.108670822421953"><ele>1638.0</ele><time>2026-04-25T11:17:44.999Z</time></trkpt><trkpt lat="46.42965537244948" lon="12.108515779218388"><ele>1631.0</ele><time>2026-04-25T11:17:45.999Z</time></trkpt><trkpt lat="46.429733790867466" lon="12.108358291644024"><ele>1624.0</ele><time>2026-04-25T11:17:46.999Z</time></trkpt><trkpt lat="46.429808913269106" lon="12.108197142737264"><ele>1617.0</ele><time>2026-04-25T11:17:47.999Z</time></trkpt><trkpt lat="46.42988777505704" lon="12.108040760548953"><ele>1610.0</ele><time>2026-04-25T11:17:48.999Z</time></trkpt><trkpt lat="46.429969361552835" lon="12.107888325601452"><ele>1608.75</ele><time>2026-04-25T11:17:49.999Z</time></trkpt><trkpt lat="46.43004777102759" lon="12.107737831579307"><ele>1607.5</ele><time>2026-04-25T11:17:50.999Z</time></trkpt><trkpt lat="46.43012672554694" lon="12.10759096726348"><ele>1606.25</ele><time>2026-04-25T11:17:51.999Z</time></trkpt><trkpt lat="46.430202477848354" lon="12.107443097524188"><ele>1605.0</ele><time>2026-04-25T11:17:52.999Z</time></trkpt><trkpt lat="46.43027943737087" lon="12.107289119428634"><ele>1604.75</ele><time>2026-04-25T11:17:53.999Z</time></trkpt><trkpt lat="46.43036133866115" lon="12.107131936814374"><ele>1604.5</ele><time>2026-04-25T11:17:54.999Z</time></trkpt><trkpt lat="46.43044913230308" lon="12.106973197335108"><ele>1604.25</ele><time>2026-04-25T11:17:55.999Z</time></trkpt><trkpt lat="46.43053783079883" lon="12.106813238173952"><ele>1604.0</ele><time>2026-04-25T11:17:56.999Z</time></trkpt><trkpt lat="46.43062677907334" lon="12.106650177091009"><ele>1603.6666666666665</ele><time>2026-04-25T11:17:57.999Z</time></trkpt><trkpt lat="46.43071963919223" lon="12.1064769738745"><ele>1603.3333333333335</ele><time>2026-04-25T11:17:58.999Z</time></trkpt><trkpt lat="46.43082381845952" lon="12.10628635122242"><ele>1603.0</ele><time>2026-04-25T11:17:59.999Z</time></trkpt><trkpt lat="46.4309396437489" lon="12.106088673406203"><ele>1603.0</ele><time>2026-04-25T11:18:00.999Z</time></trkpt><trkpt lat="46.43105947068069" lon="12.105879858337472"><ele>1603.0</ele><time>2026-04-25T11:18:01.999Z</time></trkpt><trkpt lat="46.43117475816081" lon="12.105672008740322"><ele>1603.0</ele><time>2026-04-25T11:18:02.999Z</time></trkpt><trkpt lat="46.431281156223406" lon="12.105478652033037"><ele>1598.3333333333335</ele><time>2026-04-25T11:18:03.999Z</time></trkpt><trkpt lat="46.431378997733574" lon="12.105297259807017"><ele>1593.6666666666665</ele><time>2026-04-25T11:18:04.999Z</time></trkpt><trkpt lat="46.43147341453101" lon="12.105118551995439"><ele>1589.0</ele><time>2026-04-25T11:18:05.999Z</time></trkpt><trkpt lat="46.43156402941603" lon="12.104938525302329"><ele>1590.3333333333333</ele><time>2026-04-25T11:18:06.999Z</time></trkpt><trkpt lat="46.431637920921034" lon="12.104734306181811"><ele>1591.6666666666665</ele><time>2026-04-25T11:18:07.999Z</time></trkpt><trkpt lat="46.431708261821264" lon="12.104509117531867"><ele>1593.0</ele><time>2026-04-25T11:18:08.999Z</time></trkpt><trkpt lat="46.43176705499183" lon="12.104264591455049"><ele>1593.3333333333335</ele><time>2026-04-25T11:18:09.999Z</time></trkpt><trkpt lat="46.431832333120056" lon="12.104018837865185"><ele>1593.6666666666667</ele><time>2026-04-25T11:18:10.999Z</time></trkpt><trkpt lat="46.43191301042797" lon="12.103774487617375"><ele>1594.0</ele><time>2026-04-25T11:18:11.999Z</time></trkpt><trkpt lat="46.43202000517543" lon="12.103529220161168"><ele>1589.3333333333335</ele><time>2026-04-25T11:18:12.999Z</time></trkpt><trkpt lat="46.43214260933677" lon="12.103286872357865"><ele>1584.6666666666665</ele><time>2026-04-25T11:18:13.999Z</time></trkpt><trkpt lat="46.43225786088772" lon="12.103055680797329"><ele>1580.0</ele><time>2026-04-25T11:18:14.999Z</time></trkpt><trkpt lat="46.43236050576217" lon="12.102822512480845"><ele>1579.6666666666665</ele><time>2026-04-25T11:18:15.999Z</time></trkpt><trkpt lat="46.43245184275957" lon="12.102596779994364"><ele>1579.3333333333335</ele><time>2026-04-25T11:18:16.999Z</time></trkpt><trkpt lat="46.432537271492805" lon="12.10238869856072"><ele>1579.0</ele><time>2026-04-25T11:18:17.999Z</time></trkpt><trkpt lat="46.43262111369444" lon="12.10219513370524"><ele>1580.6666666666667</ele><time>2026-04-25T11:18:18.999Z</time></trkpt><trkpt lat="46.432703336104346" lon="12.102009603558914"><ele>1582.3333333333335</ele><time>2026-04-25T11:18:19.999Z</time></trkpt><trkpt lat="46.43278341440385" lon="12.101820488262096"><ele>1584.0</ele><time>2026-04-25T11:18:20.999Z</time></trkpt><trkpt lat="46.432860953239995" lon="12.101631758312314"><ele>1586.75</ele><time>2026-04-25T11:18:21.999Z</time></trkpt><trkpt lat="46.43293701722165" lon="12.1014547914478"><ele>1589.5</ele><time>2026-04-25T11:18:22.999Z</time></trkpt><trkpt lat="46.43300510649219" lon="12.101292130201099"><ele>1592.25</ele><time>2026-04-25T11:18:23.999Z</time></trkpt><trkpt lat="46.43306941551355" lon="12.101134884198336"><ele>1595.0</ele><time>2026-04-25T11:18:24.999Z</time></trkpt><trkpt lat="46.43312881984463" lon="12.100979944150184"><ele>1589.0</ele><time>2026-04-25T11:18:25.999Z</time></trkpt><trkpt lat="46.433183016454166" lon="12.10082002030724"><ele>1583.0</ele><time>2026-04-25T11:18:26.999Z</time></trkpt><trkpt lat="46.433241572576556" lon="12.100643773077287"><ele>1577.0</ele><time>2026-04-25T11:18:27.999Z</time></trkpt><trkpt lat="46.43329787826078" lon="12.100449564607905"><ele>1571.0</ele><time>2026-04-25T11:18:28.999Z</time></trkpt><trkpt lat="46.4333538054162" lon="12.100233500455966"><ele>1570.6666666666665</ele><time>2026-04-25T11:18:29.999Z</time></trkpt><trkpt lat="46.4334174899439" lon="12.100005143276839"><ele>1570.3333333333335</ele><time>2026-04-25T11:18:30.999Z</time></trkpt><trkpt lat="46.43348084355045" lon="12.09978541069048"><ele>1570.0</ele><time>2026-04-25T11:18:31.999Z</time></trkpt><trkpt lat="46.433551394945994" lon="12.099581973238356"><ele>1569.5</ele><time>2026-04-25T11:18:32.999Z</time></trkpt><trkpt lat="46.43363478048763" lon="12.09939795457987"><ele>1569.0</ele><time>2026-04-25T11:18:33.999Z</time></trkpt><trkpt lat="46.433721573137305" lon="12.099226154922489"><ele>1568.5</ele><time>2026-04-25T11:18:34.999Z</time></trkpt><trkpt lat="46.43380035257956" lon="12.099061951397207"><ele>1568.0</ele><time>2026-04-25T11:18:35.999Z</time></trkpt><trkpt lat="46.43387892490118" lon="12.098897613559227"><ele>1565.5</ele><time>2026-04-25T11:18:36.999Z</time></trkpt><trkpt lat="46.43395678687879" lon="12.09873280487654"><ele>1563.0</ele><time>2026-04-25T11:18:37.999Z</time></trkpt><trkpt lat="46.43403141815522" lon="12.098551772395009"><ele>1560.5</ele><time>2026-04-25T11:18:38.999Z</time></trkpt><trkpt lat="46.43409119484622" lon="12.098351712525384"><ele>1558.0</ele><time>2026-04-25T11:18:39.999Z</time></trkpt><trkpt lat="46.4341356811533" lon="12.098136200090384"><ele>1555.6666666666667</ele><time>2026-04-25T11:18:41Z</time></trkpt><trkpt lat="46.43417161263713" lon="12.097912102339672"><ele>1553.3333333333335</ele><time>2026-04-25T11:18:42Z</time></trkpt><trkpt lat="46.43420963834202" lon="12.097683825184266"><ele>1551.0</ele><time>2026-04-25T11:18:43Z</time></trkpt><trkpt lat="46.434240698895124" lon="12.097452435162815"><ele>1551.0</ele><time>2026-04-25T11:18:44Z</time></trkpt><trkpt lat="46.434265842353156" lon="12.097211423217827"><ele>1551.0</ele><time>2026-04-25T11:18:45Z</time></trkpt><trkpt lat="46.43429621563467" lon="12.09696778536611"><ele>1551.0</ele><time>2026-04-25T11:18:46Z</time></trkpt><trkpt lat="46.43433562292022" lon="12.096725794571075"><ele>1551.3333333333335</ele><time>2026-04-25T11:18:47Z</time></trkpt><trkpt lat="46.434394060924205" lon="12.096491264577852"><ele>1551.6666666666667</ele><time>2026-04-25T11:18:48Z</time></trkpt><trkpt lat="46.43447269522238" lon="12.096257085002371"><ele>1552.0</ele><time>2026-04-25T11:18:49Z</time></trkpt><trkpt lat="46.43457198136564" lon="12.096016911492468"><ele>1549.3333333333335</ele><time>2026-04-25T11:18:50Z</time></trkpt><trkpt lat="46.43468001164675" lon="12.095768601059655"><ele>1546.6666666666665</ele><time>2026-04-25T11:18:51Z</time></trkpt><trkpt lat="46.434784634385245" lon="12.095527039530388"><ele>1544.0</ele><time>2026-04-25T11:18:52Z</time></trkpt><trkpt lat="46.43487913443774" lon="12.095296887836014"><ele>1543.3333333333333</ele><time>2026-04-25T11:18:53Z</time></trkpt><trkpt lat="46.434957305230775" lon="12.095060753791754"><ele>1542.6666666666665</ele><time>2026-04-25T11:18:54Z</time></trkpt><trkpt lat="46.43502242865481" lon="12.094823061643902"><ele>1542.0</ele><time>2026-04-25T11:18:55Z</time></trkpt><trkpt lat="46.435065646045274" lon="12.094581411255582"><ele>1541.0</ele><time>2026-04-25T11:18:56Z</time></trkpt><trkpt lat="46.43508835607576" lon="12.094322856316063"><ele>1540.0</ele><time>2026-04-25T11:18:57Z</time></trkpt><trkpt lat="46.435097598333115" lon="12.09407587551309"><ele>1539.0</ele><time>2026-04-25T11:18:58Z</time></trkpt><trkpt lat="46.43510821353265" lon="12.093862982871897"><ele>1538.75</ele><time>2026-04-25T11:18:59Z</time></trkpt><trkpt lat="46.43511960825803" lon="12.093680059458006"><ele>1538.5</ele><time>2026-04-25T11:19:00Z</time></trkpt><trkpt lat="46.4351311827673" lon="12.093508046621935"><ele>1538.25</ele><time>2026-04-25T11:19:01Z</time></trkpt><trkpt lat="46.43514074300244" lon="12.093343213122264"><ele>1538.0</ele><time>2026-04-25T11:19:02Z</time></trkpt><trkpt lat="46.43514716011019" lon="12.093184190961596"><ele>1538.0</ele><time>2026-04-25T11:19:03Z</time></trkpt><trkpt lat="46.435160847020526" lon="12.093023327637033"><ele>1538.0</ele><time>2026-04-25T11:19:04Z</time></trkpt><trkpt lat="46.43517547564335" lon="12.092873610124874"><ele>1538.0</ele><time>2026-04-25T11:19:05Z</time></trkpt><trkpt lat="46.435190950451016" lon="12.092733716631308"><ele>1538.0</ele><time>2026-04-25T11:19:06Z</time></trkpt><trkpt lat="46.43521399248205" lon="12.09260764050663"><ele>1538.0</ele><time>2026-04-25T11:19:07Z</time></trkpt><trkpt lat="46.43523583067637" lon="12.09250291580185"><ele>1538.0</ele><time>2026-04-25T11:19:08Z</time></trkpt><trkpt lat="46.43525213156532" lon="12.092412561572097"><ele>1537.0</ele><time>2026-04-25T11:19:09Z</time></trkpt><trkpt lat="46.435277505733964" lon="12.092308899186857"><ele>1537.0</ele><time>2026-04-25T11:19:11Z</time></trkpt><trkpt lat="46.43532867696805" lon="12.092250482615553"><ele>1537.0</ele><time>2026-04-25T11:19:13Z</time></trkpt><trkpt lat="46.4353651906538" lon="12.09217513268057"><ele>1537.0</ele><time>2026-04-25T11:19:19Z</time></trkpt><trkpt lat="46.435442847690155" lon="12.092158656143457"><ele>1537.0</ele><time>2026-04-25T11:20:22.999Z</time></trkpt></trkseg><trkseg><trkpt lat="46.43538799987009" lon="12.092118529052724"><ele>1537.0000000000002</ele><time>2026-04-25T12:28:10.999Z</time></trkpt><trkpt lat="46.43532653556507" lon="12.092095933885426"><ele>1537.0</ele><time>2026-04-25T12:28:22.999Z</time></trkpt><trkpt lat="46.43529247978484" lon="12.091997535601818"><ele>1537.0</ele><time>2026-04-25T12:28:25.999Z</time></trkpt><trkpt lat="46.43530432688416" lon="12.091906988166784"><ele>1537.0</ele><time>2026-04-25T12:28:26.999Z</time></trkpt><trkpt lat="46.43534190276225" lon="12.091721790809295"><ele>1537.0000000000002</ele><time>2026-04-25T12:28:28.999Z</time></trkpt><trkpt lat="46.43536577974302" lon="12.091609332463284"><ele>1537.0</ele><time>2026-04-25T12:28:30Z</time></trkpt><trkpt lat="46.435386857324445" lon="12.09148779770043"><ele>1536.1666666666667</ele><time>2026-04-25T12:28:31Z</time></trkpt><trkpt lat="46.435407369276646" lon="12.091371614132273"><ele>1535.3333333333335</ele><time>2026-04-25T12:28:32Z</time></trkpt><trkpt lat="46.43542714762532" lon="12.091267183044678"><ele>1534.5</ele><time>2026-04-25T12:28:33Z</time></trkpt><trkpt lat="46.43544462939473" lon="12.091161145005907"><ele>1533.6666666666667</ele><time>2026-04-25T12:28:34Z</time></trkpt><trkpt lat="46.43546240115049" lon="12.09105506466332"><ele>1532.8333333333335</ele><time>2026-04-25T12:28:35Z</time></trkpt><trkpt lat="46.43548486882344" lon="12.090950328924599"><ele>1532.0</ele><time>2026-04-25T12:28:36Z</time></trkpt><trkpt lat="46.435507170555404" lon="12.090844747417275"><ele>1529.8333333333335</ele><time>2026-04-25T12:28:37Z</time></trkpt><trkpt lat="46.43552813294223" lon="12.090738165471869"><ele>1527.6666666666667</ele><time>2026-04-25T12:28:38Z</time></trkpt><trkpt lat="46.4355467081753" lon="12.090632272544642"><ele>1525.5</ele><time>2026-04-25T12:28:39Z</time></trkpt><trkpt lat="46.43556720880584" lon="12.090528544729993"><ele>1523.3333333333333</ele><time>2026-04-25T12:28:40Z</time></trkpt><trkpt lat="46.435589504409215" lon="12.090422686479187"><ele>1521.1666666666665</ele><time>2026-04-25T12:28:41Z</time></trkpt><trkpt lat="46.43560690864474" lon="12.090313681579687"><ele>1519.0</ele><time>2026-04-25T12:28:42Z</time></trkpt><trkpt lat="46.43564528326552" lon="12.090206694712755"><ele>1519.0</ele><time>2026-04-25T12:28:43Z</time></trkpt><trkpt lat="46.43565637698367" lon="12.090090315495852"><ele>1519.0</ele><time>2026-04-25T12:28:44Z</time></trkpt><trkpt lat="46.43563626713203" lon="12.08996792748883"><ele>1519.0</ele><time>2026-04-25T12:28:45Z</time></trkpt><trkpt lat="46.43563401890318" lon="12.089848738522129"><ele>1519.0</ele><time>2026-04-25T12:28:46Z</time></trkpt><trkpt lat="46.43562660067249" lon="12.089728921885392"><ele>1519.0</ele><time>2026-04-25T12:28:47Z</time></trkpt><trkpt lat="46.43563804112243" lon="12.089602334637217"><ele>1519.0</ele><time>2026-04-25T12:28:48Z</time></trkpt><trkpt lat="46.43562207217668" lon="12.08949074312739"><ele>1518.8333333333333</ele><time>2026-04-25T12:28:49Z</time></trkpt><trkpt lat="46.435606175860094" lon="12.08938886307179"><ele>1518.6666666666665</ele><time>2026-04-25T12:28:50Z</time></trkpt><trkpt lat="46.43559054341479" lon="12.089297771511534"><ele>1518.5</ele><time>2026-04-25T12:28:51Z</time></trkpt><trkpt lat="46.43556017271919" lon="12.089134476557705"><ele>1518.3333333333333</ele><time>2026-04-25T12:28:52.999Z</time></trkpt><trkpt lat="46.43553600554917" lon="12.089004536286177"><ele>1518.1666666666667</ele><time>2026-04-25T12:28:54.999Z</time></trkpt><trkpt lat="46.435515240459246" lon="12.0888928880649"><ele>1518.0</ele><time>2026-04-25T12:28:56.999Z</time></trkpt><trkpt lat="46.43549421256897" lon="12.088780050295677"><ele>1517.5</ele><time>2026-04-25T12:28:58.999Z</time></trkpt><trkpt lat="46.43547754195768" lon="12.0886906613547"><ele>1517.0</ele><time>2026-04-25T12:29:00.999Z</time></trkpt><trkpt lat="46.43545746314251" lon="12.088582997371468"><ele>1516.5</ele><time>2026-04-25T12:29:03.999Z</time></trkpt><trkpt lat="46.43543653614154" lon="12.088472025202522"><ele>1516.0</ele><time>2026-04-25T12:29:07.999Z</time></trkpt><trkpt lat="46.43541243202184" lon="12.088346056263692"><ele>1515.5</ele><time>2026-04-25T12:29:10.999Z</time></trkpt><trkpt lat="46.43539160683034" lon="12.088237223128031"><ele>1515.0</ele><time>2026-04-25T12:29:12.999Z</time></trkpt><trkpt lat="46.43536936811104" lon="12.088121002811542"><ele>1514.0</ele><time>2026-04-25T12:29:14.999Z</time></trkpt><trkpt lat="46.43534227586725" lon="12.087979417832416"><ele>1513.0</ele><time>2026-04-25T12:29:16.999Z</time></trkpt><trkpt lat="46.43531345123793" lon="12.087827503021337"><ele>1512.0</ele><time>2026-04-25T12:29:18.999Z</time></trkpt><trkpt lat="46.43528428444127" lon="12.087673063286168"><ele>1511.0</ele><time>2026-04-25T12:29:20.999Z</time></trkpt><trkpt lat="46.435262214041025" lon="12.087556199296476"><ele>1510.0</ele><time>2026-04-25T12:29:22.999Z</time></trkpt><trkpt lat="46.435242096568594" lon="12.087449676098617"><ele>1509.4</ele><time>2026-04-25T12:29:24.999Z</time></trkpt><trkpt lat="46.43520348412094" lon="12.0873350983355"><ele>1508.8</ele><time>2026-04-25T12:29:26.999Z</time></trkpt><trkpt lat="46.435181297756095" lon="12.087200508681144"><ele>1508.1999999999998</ele><time>2026-04-25T12:29:28.999Z</time></trkpt><trkpt lat="46.43517470504928" lon="12.087047167967182"><ele>1507.6</ele><time>2026-04-25T12:29:30.999Z</time></trkpt><trkpt lat="46.435156767838876" lon="12.086887165322565"><ele>1507.0</ele><time>2026-04-25T12:29:32.999Z</time></trkpt><trkpt lat="46.43512991170886" lon="12.086724651121944"><ele>1506.75</ele><time>2026-04-25T12:29:34.999Z</time></trkpt><trkpt lat="46.43514393877548" lon="12.086548891543647"><ele>1506.5</ele><time>2026-04-25T12:29:36.999Z</time></trkpt><trkpt lat="46.43513200655506" lon="12.086378778037576"><ele>1506.25</ele><time>2026-04-25T12:29:38.999Z</time></trkpt><trkpt lat="46.43514974295565" lon="12.086196788891458"><ele>1506.0</ele><time>2026-04-25T12:29:40.999Z</time></trkpt><trkpt lat="46.435153392716096" lon="12.086020612250685"><ele>1506.0</ele><time>2026-04-25T12:29:42.999Z</time></trkpt><trkpt lat="46.43515714608939" lon="12.085839434405885"><ele>1506.0</ele><time>2026-04-25T12:29:44.999Z</time></trkpt><trkpt lat="46.4351590532178" lon="12.085747375889488"><ele>1506.0</ele><time>2026-04-25T12:29:45.999Z</time></trkpt><trkpt lat="46.43516099912563" lon="12.085653445821967"><ele>1506.0</ele><time>2026-04-25T12:29:46.999Z</time></trkpt><trkpt lat="46.43514820283215" lon="12.085487189002878"><ele>1506.0</ele><time>2026-04-25T12:29:48.999Z</time></trkpt><trkpt lat="46.43516710306331" lon="12.085358804420515"><ele>1505.6666666666667</ele><time>2026-04-25T12:29:50.999Z</time></trkpt><trkpt lat="46.435157326689925" lon="12.085243172728793"><ele>1505.3333333333333</ele><time>2026-04-25T12:29:52.999Z</time></trkpt><trkpt lat="46.43517409773497" lon="12.08512197146375"><ele>1505.0</ele><time>2026-04-25T12:29:55.999Z</time></trkpt><trkpt lat="46.4351640017352" lon="12.085009755537108"><ele>1504.6666666666665</ele><time>2026-04-25T12:32:06.999Z</time></trkpt><trkpt lat="46.435169345414444" lon="12.084857831952517"><ele>1504.3333333333333</ele><time>2026-04-25T12:32:08.999Z</time></trkpt><trkpt lat="46.43517273333488" lon="12.084764384904219"><ele>1504.0</ele><time>2026-04-25T12:32:09.999Z</time></trkpt><trkpt lat="46.4351734341132" lon="12.084656360281052"><ele>1504.0</ele><time>2026-04-25T12:32:10.999Z</time></trkpt><trkpt lat="46.43517345487283" lon="12.084536077527215"><ele>1504.0</ele><time>2026-04-25T12:32:11.999Z</time></trkpt><trkpt lat="46.43519321861145" lon="12.08440547797798"><ele>1504.0</ele><time>2026-04-25T12:32:12.999Z</time></trkpt><trkpt lat="46.43519705704968" lon="12.08426277345648"><ele>1504.0</ele><time>2026-04-25T12:32:13.999Z</time></trkpt><trkpt lat="46.435203034799954" lon="12.084113766557236"><ele>1504.0</ele><time>2026-04-25T12:32:14.999Z</time></trkpt><trkpt lat="46.43521143660198" lon="12.083959147376094"><ele>1503.0</ele><time>2026-04-25T12:32:15.999Z</time></trkpt><trkpt lat="46.43522352816888" lon="12.083801895327385"><ele>1502.0</ele><time>2026-04-25T12:32:16.999Z</time></trkpt><trkpt lat="46.43523692436319" lon="12.083647283729695"><ele>1501.0</ele><time>2026-04-25T12:32:17.999Z</time></trkpt><trkpt lat="46.43525200844859" lon="12.083495022783989"><ele>1500.0</ele><time>2026-04-25T12:32:18.999Z</time></trkpt><trkpt lat="46.43526890143081" lon="12.083346814348078"><ele>1499.0</ele><time>2026-04-25T12:32:19.999Z</time></trkpt><trkpt lat="46.43528637568656" lon="12.083202620306071"><ele>1497.2</ele><time>2026-04-25T12:32:20.999Z</time></trkpt><trkpt lat="46.43530382198983" lon="12.083053869146523"><ele>1495.4</ele><time>2026-04-25T12:32:21.999Z</time></trkpt><trkpt lat="46.4353215937558" lon="12.082900011089093"><ele>1493.6</ele><time>2026-04-25T12:32:22.999Z</time></trkpt><trkpt lat="46.435338975720185" lon="12.082741917340186"><ele>1491.8</ele><time>2026-04-25T12:32:23.999Z</time></trkpt><trkpt lat="46.43535828076334" lon="12.082566332673373"><ele>1490.0</ele><time>2026-04-25T12:32:24.999Z</time></trkpt><trkpt lat="46.4353793376506" lon="12.082374814335347"><ele>1488.8</ele><time>2026-04-25T12:32:25.999Z</time></trkpt><trkpt lat="46.43539974501365" lon="12.082189203713313"><ele>1487.6</ele><time>2026-04-25T12:32:26.999Z</time></trkpt><trkpt lat="46.4354176730045" lon="12.082026143568827"><ele>1486.4</ele><time>2026-04-25T12:32:27.999Z</time></trkpt><trkpt lat="46.43543434001365" lon="12.081874552567314"><ele>1485.2</ele><time>2026-04-25T12:32:28.999Z</time></trkpt><trkpt lat="46.43544910727634" lon="12.081736066537736"><ele>1484.0</ele><time>2026-04-25T12:32:29.999Z</time></trkpt><trkpt lat="46.43546504097109" lon="12.081586133244553"><ele>1485.4</ele><time>2026-04-25T12:32:30.999Z</time></trkpt><trkpt lat="46.4354816425479" lon="12.081421776867021"><ele>1486.8000000000002</ele><time>2026-04-25T12:32:31.999Z</time></trkpt><trkpt lat="46.435497812566226" lon="12.081261011195345"><ele>1488.1999999999998</ele><time>2026-04-25T12:32:32.999Z</time></trkpt><trkpt lat="46.435511466458365" lon="12.081105540994526"><ele>1489.6</ele><time>2026-04-25T12:32:33.999Z</time></trkpt><trkpt lat="46.43551884780727" lon="12.080951879787651"><ele>1491.0</ele><time>2026-04-25T12:32:34.999Z</time></trkpt><trkpt lat="46.43551519685366" lon="12.080787820500468"><ele>1488.75</ele><time>2026-04-25T12:32:35.999Z</time></trkpt><trkpt lat="46.4355024516443" lon="12.080619234908353"><ele>1486.5</ele><time>2026-04-25T12:32:36.999Z</time></trkpt><trkpt lat="46.435487106324764" lon="12.08044117749696"><ele>1484.25</ele><time>2026-04-25T12:32:37.999Z</time></trkpt><trkpt lat="46.435469672422364" lon="12.080247203726673"><ele>1482.0</ele><time>2026-04-25T12:32:38.999Z</time></trkpt><trkpt lat="46.43545199439846" lon="12.08005051408165"><ele>1479.0</ele><time>2026-04-25T12:32:39.999Z</time></trkpt><trkpt lat="46.43543616123562" lon="12.07987755447073"><ele>1476.0</ele><time>2026-04-25T12:32:40.999Z</time></trkpt><trkpt lat="46.435399967006916" lon="12.07972360699806"><ele>1473.0</ele><time>2026-04-25T12:32:42Z</time></trkpt><trkpt lat="46.43536441152083" lon="12.079575034541337"><ele>1470.0</ele><time>2026-04-25T12:32:43Z</time></trkpt><trkpt lat="46.43530937884098" lon="12.07943754111367"><ele>1470.0</ele><time>2026-04-25T12:32:44Z</time></trkpt><trkpt lat="46.43523155471238" lon="12.079320554728229"><ele>1470.0</ele><time>2026-04-25T12:32:45Z</time></trkpt><trkpt lat="46.43513304074571" lon="12.079226886971364"><ele>1470.0</ele><time>2026-04-25T12:32:46Z</time></trkpt><trkpt lat="46.4350225037444" lon="12.079137734531939"><ele>1470.0</ele><time>2026-04-25T12:32:47Z</time></trkpt><trkpt lat="46.43490470978571" lon="12.079047354572044"><ele>1468.25</ele><time>2026-04-25T12:32:48Z</time></trkpt><trkpt lat="46.434772997839836" lon="12.078946348485706"><ele>1466.5</ele><time>2026-04-25T12:32:49Z</time></trkpt><trkpt lat="46.43463171942761" lon="12.078840287781455"><ele>1464.75</ele><time>2026-04-25T12:32:50Z</time></trkpt><trkpt lat="46.434508840064275" lon="12.07875295450101"><ele>1463.0</ele><time>2026-04-25T12:32:51Z</time></trkpt><trkpt lat="46.434401060851975" lon="12.078672669361374"><ele>1461.25</ele><time>2026-04-25T12:32:52Z</time></trkpt><trkpt lat="46.43431504056155" lon="12.078591339390108"><ele>1459.5</ele><time>2026-04-25T12:32:53Z</time></trkpt><trkpt lat="46.434242186732234" lon="12.078465809258732"><ele>1457.75</ele><time>2026-04-25T12:32:54Z</time></trkpt><trkpt lat="46.43420828324879" lon="12.078277696161587"><ele>1456.0</ele><time>2026-04-25T12:32:55Z</time></trkpt><trkpt lat="46.43420463701971" lon="12.078058599177222"><ele>1455.6666666666665</ele><time>2026-04-25T12:32:56Z</time></trkpt><trkpt lat="46.434213406866256" lon="12.077787769312247"><ele>1455.3333333333333</ele><time>2026-04-25T12:32:57Z</time></trkpt><trkpt lat="46.43422417737908" lon="12.07751054090582"><ele>1455.0</ele><time>2026-04-25T12:32:58Z</time></trkpt><trkpt lat="46.43422664718378" lon="12.077264361954333"><ele>1453.0</ele><time>2026-04-25T12:32:59Z</time></trkpt><trkpt lat="46.4342207899743" lon="12.077033014488373"><ele>1451.0</ele><time>2026-04-25T12:33:00Z</time></trkpt><trkpt lat="46.434242868718385" lon="12.076806764415878"><ele>1449.0</ele><time>2026-04-25T12:33:01Z</time></trkpt><trkpt lat="46.434279967930756" lon="12.076577991383584"><ele>1448.3333333333333</ele><time>2026-04-25T12:33:02Z</time></trkpt><trkpt lat="46.434336420847515" lon="12.07635454599657"><ele>1447.6666666666665</ele><time>2026-04-25T12:33:03Z</time></trkpt><trkpt lat="46.434396425293606" lon="12.076137630299295"><ele>1447.0</ele><time>2026-04-25T12:33:04Z</time></trkpt><trkpt lat="46.43445399173639" lon="12.075919658975327"><ele>1447.0</ele><time>2026-04-25T12:33:05Z</time></trkpt><trkpt lat="46.434504419648505" lon="12.075695709270555"><ele>1447.0</ele><time>2026-04-25T12:33:06Z</time></trkpt><trkpt lat="46.43456267850819" lon="12.075471803435594"><ele>1447.0</ele><time>2026-04-25T12:33:07Z</time></trkpt><trkpt lat="46.43460378660847" lon="12.075244894648609"><ele>1443.75</ele><time>2026-04-25T12:33:08Z</time></trkpt><trkpt lat="46.4346427199406" lon="12.075027442491153"><ele>1440.5</ele><time>2026-04-25T12:33:09Z</time></trkpt><trkpt lat="46.43467756779385" lon="12.074826331270097"><ele>1437.25</ele><time>2026-04-25T12:33:09.999Z</time></trkpt><trkpt lat="46.43470857419592" lon="12.074655583512824"><ele>1434.0</ele><time>2026-04-25T12:33:10.999Z</time></trkpt><trkpt lat="46.434741671312196" lon="12.074486506019468"><ele>1434.0</ele><time>2026-04-25T12:33:11.999Z</time></trkpt><trkpt lat="46.43482471133772" lon="12.07434706585006"><ele>1434.0</ele><time>2026-04-25T12:33:12.999Z</time></trkpt><trkpt lat="46.434939093789" lon="12.074238751051213"><ele>1434.0</ele><time>2026-04-25T12:33:13.999Z</time></trkpt><trkpt lat="46.435087226388525" lon="12.074164982556283"><ele>1434.0</ele><time>2026-04-25T12:33:14.999Z</time></trkpt><trkpt lat="46.43525050391222" lon="12.074105642727092"><ele>1437.0</ele><time>2026-04-25T12:33:15.999Z</time></trkpt><trkpt lat="46.43540724941935" lon="12.074037830454877"><ele>1440.0</ele><time>2026-04-25T12:33:16.999Z</time></trkpt><trkpt lat="46.43555339958946" lon="12.073972131177198"><ele>1443.0</ele><time>2026-04-25T12:33:17.999Z</time></trkpt><trkpt lat="46.43569364081878" lon="12.073906616259057"><ele>1438.0</ele><time>2026-04-25T12:33:18.999Z</time></trkpt><trkpt lat="46.435827007956924" lon="12.073833887840502"><ele>1433.0</ele><time>2026-04-25T12:33:19.999Z</time></trkpt><trkpt lat="46.43595443133049" lon="12.073753693052595"><ele>1428.0</ele><time>2026-04-25T12:33:20.999Z</time></trkpt><trkpt lat="46.43607437338846" lon="12.073662549825828"><ele>1423.0</ele><time>2026-04-25T12:33:21.999Z</time></trkpt><trkpt lat="46.43618789371579" lon="12.073552139654451"><ele>1423.0</ele><time>2026-04-25T12:33:22.999Z</time></trkpt><trkpt lat="46.4362955616071" lon="12.073416292653551"><ele>1423.0</ele><time>2026-04-25T12:33:23.999Z</time></trkpt><trkpt lat="46.436398348702845" lon="12.073267815365629"><ele>1423.0</ele><time>2026-04-25T12:33:24.999Z</time></trkpt><trkpt lat="46.43649763415855" lon="12.073116566764591"><ele>1423.0</ele><time>2026-04-25T12:33:25.999Z</time></trkpt><trkpt lat="46.4365882620582" lon="12.072966282578038"><ele>1421.8000000000002</ele><time>2026-04-25T12:33:26.999Z</time></trkpt><trkpt lat="46.43667389350341" lon="12.0728339681437"><ele>1420.6</ele><time>2026-04-25T12:33:27.999Z</time></trkpt><trkpt lat="46.4367571113159" lon="12.072717314842258"><ele>1419.4</ele><time>2026-04-25T12:33:28.999Z</time></trkpt><trkpt lat="46.43682534259349" lon="12.072611590389155"><ele>1418.1999999999998</ele><time>2026-04-25T12:33:29.999Z</time></trkpt><trkpt lat="46.43689455457917" lon="12.07251710014912"><ele>1417.0</ele><time>2026-04-25T12:33:30.999Z</time></trkpt><trkpt lat="46.43693551244943" lon="12.072395561378197"><ele>1416.0</ele><time>2026-04-25T12:33:31.999Z</time></trkpt><trkpt lat="46.43693025692189" lon="12.072235742014518"><ele>1415.0</ele><time>2026-04-25T12:33:32.999Z</time></trkpt><trkpt lat="46.43692575837928" lon="12.072071659167701"><ele>1414.0</ele><time>2026-04-25T12:33:33.999Z</time></trkpt><trkpt lat="46.43692779771744" lon="12.071896180346652"><ele>1413.0</ele><time>2026-04-25T12:33:34.999Z</time></trkpt><trkpt lat="46.43694092257758" lon="12.07173916534567"><ele>1413.0</ele><time>2026-04-25T12:33:35.999Z</time></trkpt><trkpt lat="46.436982520616546" lon="12.07160756946942"><ele>1413.0</ele><time>2026-04-25T12:33:36.999Z</time></trkpt><trkpt lat="46.43704415349877" lon="12.071483561889199"><ele>1413.0</ele><time>2026-04-25T12:33:37.999Z</time></trkpt><trkpt lat="46.43710525461047" lon="12.07134848317655"><ele>1413.0</ele><time>2026-04-25T12:33:38.999Z</time></trkpt><trkpt lat="46.437176451189835" lon="12.071225149378991"><ele>1413.0</ele><time>2026-04-25T12:33:39.999Z</time></trkpt><trkpt lat="46.43724773927379" lon="12.071104579903881"><ele>1413.5</ele><time>2026-04-25T12:33:40.999Z</time></trkpt><trkpt lat="46.437308761881106" lon="12.070976125414992"><ele>1414.0</ele><time>2026-04-25T12:33:41.999Z</time></trkpt><trkpt lat="46.43737214326572" lon="12.070831183226751"><ele>1414.5</ele><time>2026-04-25T12:33:42.999Z</time></trkpt><trkpt lat="46.437394897383406" lon="12.070655892177175"><ele>1415.0</ele><time>2026-04-25T12:33:43.999Z</time></trkpt><trkpt lat="46.437417120184996" lon="12.070507011949955"><ele>1415.0</ele><time>2026-04-25T12:33:44.999Z</time></trkpt><trkpt lat="46.437453033775355" lon="12.070365919871026"><ele>1415.0</ele><time>2026-04-25T12:33:45.999Z</time></trkpt><trkpt lat="46.437497471936936" lon="12.070222048173314"><ele>1415.0</ele><time>2026-04-25T12:33:46.999Z</time></trkpt><trkpt lat="46.43754448729831" lon="12.07008324946501"><ele>1415.0</ele><time>2026-04-25T12:33:47.999Z</time></trkpt><trkpt lat="46.437582177889674" lon="12.069938531362341"><ele>1415.0</ele><time>2026-04-25T12:33:48.999Z</time></trkpt><trkpt lat="46.43764157759702" lon="12.06980562931226"><ele>1415.2</ele><time>2026-04-25T12:33:49.999Z</time></trkpt><trkpt lat="46.43770084577381" lon="12.069674998074271"><ele>1415.4</ele><time>2026-04-25T12:33:50.999Z</time></trkpt><trkpt lat="46.43776668220564" lon="12.069549474717483"><ele>1415.6</ele><time>2026-04-25T12:33:51.999Z</time></trkpt><trkpt lat="46.437837538047084" lon="12.069422087602774"><ele>1415.8</ele><time>2026-04-25T12:33:52.999Z</time></trkpt><trkpt lat="46.437921646204394" lon="12.069306043576045"><ele>1416.0</ele><time>2026-04-25T12:33:53.999Z</time></trkpt><trkpt lat="46.4380214904676" lon="12.069209340178721"><ele>1416.0</ele><time>2026-04-25T12:33:54.999Z</time></trkpt><trkpt lat="46.438128068554995" lon="12.069118447984719"><ele>1416.0</ele><time>2026-04-25T12:33:55.999Z</time></trkpt><trkpt lat="46.43823927030673" lon="12.069028470287504"><ele>1416.0</ele><time>2026-04-25T12:33:56.999Z</time></trkpt><trkpt lat="46.43835049773801" lon="12.068934078956012"><ele>1416.0</ele><time>2026-04-25T12:33:57.999Z</time></trkpt><trkpt lat="46.43846317572199" lon="12.068837797364958"><ele>1415.25</ele><time>2026-04-25T12:33:58.999Z</time></trkpt><trkpt lat="46.438573444777965" lon="12.068734410244367"><ele>1414.5</ele><time>2026-04-25T12:33:59.999Z</time></trkpt><trkpt lat="46.43868188171766" lon="12.068616526968597"><ele>1413.75</ele><time>2026-04-25T12:34:00.999Z</time></trkpt><trkpt lat="46.43880061196944" lon="12.068500922731861"><ele>1413.0</ele><time>2026-04-25T12:34:01.999Z</time></trkpt><trkpt lat="46.43890490141795" lon="12.068349774778769"><ele>1415.25</ele><time>2026-04-25T12:34:02.999Z</time></trkpt><trkpt lat="46.4390072626852" lon="12.068196611866316"><ele>1417.5</ele><time>2026-04-25T12:34:03.999Z</time></trkpt><trkpt lat="46.439105591573885" lon="12.068048091460248"><ele>1419.75</ele><time>2026-04-25T12:34:04.999Z</time></trkpt><trkpt lat="46.43920263553223" lon="12.067907342205642"><ele>1422.0</ele><time>2026-04-25T12:34:05.999Z</time></trkpt><trkpt lat="46.43929629413431" lon="12.067771503427485"><ele>1422.0</ele><time>2026-04-25T12:34:06.999Z</time></trkpt><trkpt lat="46.43938541836688" lon="12.067642145713004"><ele>1422.0</ele><time>2026-04-25T12:34:07.999Z</time></trkpt><trkpt lat="46.43946941113592" lon="12.067520245825996"><ele>1422.0</ele><time>2026-04-25T12:34:08.999Z</time></trkpt><trkpt lat="46.439555524023426" lon="12.067393873273923"><ele>1422.0</ele><time>2026-04-25T12:34:09.999Z</time></trkpt><trkpt lat="46.43964645961777" lon="12.067261399419635"><ele>1423.25</ele><time>2026-04-25T12:34:10.999Z</time></trkpt><trkpt lat="46.43974206073917" lon="12.06712662855075"><ele>1424.5</ele><time>2026-04-25T12:34:11.999Z</time></trkpt><trkpt lat="46.4398424378066" lon="12.066989381461745"><ele>1425.75</ele><time>2026-04-25T12:34:12.999Z</time></trkpt><trkpt lat="46.43994842352546" lon="12.066856233769311"><ele>1427.0</ele><time>2026-04-25T12:34:13.999Z</time></trkpt><trkpt lat="46.44005667317185" lon="12.06670912098663"><ele>1426.25</ele><time>2026-04-25T12:34:14.999Z</time></trkpt><trkpt lat="46.440179745236236" lon="12.066593011602953"><ele>1425.5</ele><time>2026-04-25T12:34:15.999Z</time></trkpt><trkpt lat="46.44030985137968" lon="12.066502465759369"><ele>1424.75</ele><time>2026-04-25T12:34:16.999Z</time></trkpt><trkpt lat="46.44044499504322" lon="12.06643819761061"><ele>1424.0</ele><time>2026-04-25T12:34:17.999Z</time></trkpt><trkpt lat="46.44057699243733" lon="12.066402047328971"><ele>1424.0</ele><time>2026-04-25T12:34:18.999Z</time></trkpt><trkpt lat="46.440707198497726" lon="12.066414072541729"><ele>1424.0</ele><time>2026-04-25T12:34:19.999Z</time></trkpt><trkpt lat="46.4408201508528" lon="12.066454827049208"><ele>1424.0</ele><time>2026-04-25T12:34:20.999Z</time></trkpt><trkpt lat="46.4409242905375" lon="12.066485645219888"><ele>1424.0</ele><time>2026-04-25T12:34:21.999Z</time></trkpt><trkpt lat="46.44102618311453" lon="12.066479368270048"><ele>1424.0</ele><time>2026-04-25T12:34:22.999Z</time></trkpt><trkpt lat="46.4411199352569" lon="12.066419120672192"><ele>1424.0</ele><time>2026-04-25T12:34:23.999Z</time></trkpt><trkpt lat="46.441200045925676" lon="12.066314064007516"><ele>1424.0</ele><time>2026-04-25T12:34:24.999Z</time></trkpt><trkpt lat="46.441275558832" lon="12.06619378366848"><ele>1424.0</ele><time>2026-04-25T12:34:25.999Z</time></trkpt><trkpt lat="46.44130310646602" lon="12.066023943574026"><ele>1424.0</ele><time>2026-04-25T12:34:26.999Z</time></trkpt><trkpt lat="46.441332678224136" lon="12.065870932845462"><ele>1425.6</ele><time>2026-04-25T12:34:27.999Z</time></trkpt><trkpt lat="46.44137172605855" lon="12.06572336280265"><ele>1427.2</ele><time>2026-04-25T12:34:28.999Z</time></trkpt><trkpt lat="46.441417804728275" lon="12.065597585718042"><ele>1428.8</ele><time>2026-04-25T12:34:29.999Z</time></trkpt><trkpt lat="46.44147064792532" lon="12.065482373767814"><ele>1430.3999999999999</ele><time>2026-04-25T12:34:30.999Z</time></trkpt><trkpt lat="46.44152570744079" lon="12.06537504587381"><ele>1432.0</ele><time>2026-04-25T12:34:31.999Z</time></trkpt><trkpt lat="46.44156548892228" lon="12.065260484230091"><ele>1432.0</ele><time>2026-04-25T12:34:32.999Z</time></trkpt><trkpt lat="46.44163637288109" lon="12.065170658958724"><ele>1432.0</ele><time>2026-04-25T12:34:33.999Z</time></trkpt><trkpt lat="46.441696224731814" lon="12.065061098973306"><ele>1432.0</ele><time>2026-04-25T12:34:34.999Z</time></trkpt><trkpt lat="46.44175772141499" lon="12.064948528017036"><ele>1432.0</ele><time>2026-04-25T12:34:35.999Z</time></trkpt><trkpt lat="46.44181982271846" lon="12.06483419271441"><ele>1432.0</ele><time>2026-04-25T12:34:36.999Z</time></trkpt><trkpt lat="46.441879775227044" lon="12.064718597725523"><ele>1433.25</ele><time>2026-04-25T12:34:37.999Z</time></trkpt><trkpt lat="46.44194775408014" lon="12.064587527106047"><ele>1434.5</ele><time>2026-04-25T12:34:38.999Z</time></trkpt><trkpt lat="46.442026994554254" lon="12.064425008792474"><ele>1435.75</ele><time>2026-04-25T12:34:39.999Z</time></trkpt><trkpt lat="46.44210913949589" lon="12.064214998687971"><ele>1437.0</ele><time>2026-04-25T12:34:40.999Z</time></trkpt><trkpt lat="46.44217936298051" lon="12.063952142257493"><ele>1437.0</ele><time>2026-04-25T12:34:41.999Z</time></trkpt><trkpt lat="46.44224013333533" lon="12.063697219296815"><ele>1437.0</ele><time>2026-04-25T12:34:42.999Z</time></trkpt><trkpt lat="46.44226608483063" lon="12.063476391111124"><ele>1437.0</ele><time>2026-04-25T12:34:43.999Z</time></trkpt><trkpt lat="46.44231069772167" lon="12.063284115439954"><ele>1435.25</ele><time>2026-04-25T12:34:44.999Z</time></trkpt><trkpt lat="46.44235012562951" lon="12.063106184116023"><ele>1433.5</ele><time>2026-04-25T12:34:45.999Z</time></trkpt><trkpt lat="46.442396688584246" lon="12.062948740761168"><ele>1431.75</ele><time>2026-04-25T12:34:46.999Z</time></trkpt><trkpt lat="46.4424826817648" lon="12.0628217808704"><ele>1430.0</ele><time>2026-04-25T12:34:48Z</time></trkpt><trkpt lat="46.442559542996115" lon="12.062691436258932"><ele>1430.0</ele><time>2026-04-25T12:34:49Z</time></trkpt><trkpt lat="46.442633891195904" lon="12.062566917398343"><ele>1430.0</ele><time>2026-04-25T12:34:50Z</time></trkpt><trkpt lat="46.44273177779316" lon="12.062499806260352"><ele>1430.0</ele><time>2026-04-25T12:34:51Z</time></trkpt><trkpt lat="46.442844644702106" lon="12.062475535726868"><ele>1430.0</ele><time>2026-04-25T12:34:52Z</time></trkpt><trkpt lat="46.442966579989545" lon="12.062483506628919"><ele>1429.8</ele><time>2026-04-25T12:34:53Z</time></trkpt><trkpt lat="46.443086852240775" lon="12.062476612730416"><ele>1429.6</ele><time>2026-04-25T12:34:54Z</time></trkpt><trkpt lat="46.44319808534421" lon="12.06245721321619"><ele>1429.4</ele><time>2026-04-25T12:34:55Z</time></trkpt><trkpt lat="46.443296006914274" lon="12.062418818665451"><ele>1429.2</ele><time>2026-04-25T12:34:56Z</time></trkpt><trkpt lat="46.44338092390939" lon="12.062362886035531"><ele>1429.0</ele><time>2026-04-25T12:34:57Z</time></trkpt><trkpt lat="46.443466603652304" lon="12.062297001549213"><ele>1426.75</ele><time>2026-04-25T12:34:58Z</time></trkpt><trkpt lat="46.443532746196645" lon="12.0621629222195"><ele>1424.5</ele><time>2026-04-25T12:34:59Z</time></trkpt><trkpt lat="46.443593777517556" lon="12.062024749036004"><ele>1422.25</ele><time>2026-04-25T12:35:00Z</time></trkpt><trkpt lat="46.44365605658164" lon="12.06187532184003"><ele>1420.0</ele><time>2026-04-25T12:35:01Z</time></trkpt><trkpt lat="46.443715839829274" lon="12.061726251339152"><ele>1418.5</ele><time>2026-04-25T12:35:02Z</time></trkpt><trkpt lat="46.44377888298335" lon="12.061588005866602"><ele>1417.0</ele><time>2026-04-25T12:35:03Z</time></trkpt><trkpt lat="46.443850386349254" lon="12.061459546504107"><ele>1415.5</ele><time>2026-04-25T12:35:04Z</time></trkpt><trkpt lat="46.44392786093458" lon="12.06134362374431"><ele>1414.0</ele><time>2026-04-25T12:35:05Z</time></trkpt><trkpt lat="46.444004590986395" lon="12.061200229685294"><ele>1414.0</ele><time>2026-04-25T12:35:06Z</time></trkpt><trkpt lat="46.444107289912836" lon="12.061065617195458"><ele>1414.0</ele><time>2026-04-25T12:35:07Z</time></trkpt><trkpt lat="46.44421639430482" lon="12.060927173192388"><ele>1414.0</ele><time>2026-04-25T12:35:08Z</time></trkpt><trkpt lat="46.44432747213704" lon="12.060784589120379"><ele>1414.0</ele><time>2026-04-25T12:35:09Z</time></trkpt><trkpt lat="46.444444162517" lon="12.060674594246082"><ele>1414.0</ele><time>2026-04-25T12:35:10Z</time></trkpt><trkpt lat="46.44454785298295" lon="12.060561740091412"><ele>1414.0</ele><time>2026-04-25T12:35:11Z</time></trkpt><trkpt lat="46.44465012817135" lon="12.060459877292478"><ele>1414.0</ele><time>2026-04-25T12:35:12Z</time></trkpt><trkpt lat="46.44475062694939" lon="12.060365186419677"><ele>1414.0</ele><time>2026-04-25T12:35:12.999Z</time></trkpt><trkpt lat="46.44484762965472" lon="12.060275155213667"><ele>1414.0</ele><time>2026-04-25T12:35:13.999Z</time></trkpt><trkpt lat="46.444935465843876" lon="12.060167397255269"><ele>1414.0</ele><time>2026-04-25T12:35:14.999Z</time></trkpt><trkpt lat="46.44503421887855" lon="12.060079596341355"><ele>1414.0</ele><time>2026-04-25T12:35:15.999Z</time></trkpt><trkpt lat="46.44513622039621" lon="12.059993987521196"><ele>1414.0</ele><time>2026-04-25T12:35:16.999Z</time></trkpt><trkpt lat="46.44523575088195" lon="12.059915847891292"><ele>1412.5</ele><time>2026-04-25T12:35:17.999Z</time></trkpt><trkpt lat="46.445340340460895" lon="12.059847260347347"><ele>1411.0</ele><time>2026-04-25T12:35:18.999Z</time></trkpt><trkpt lat="46.44545454118243" lon="12.05977901544425"><ele>1409.5</ele><time>2026-04-25T12:35:19.999Z</time></trkpt><trkpt lat="46.44557086804618" lon="12.059703518698115"><ele>1408.0</ele><time>2026-04-25T12:35:20.999Z</time></trkpt><trkpt lat="46.445684668029536" lon="12.059637169634755"><ele>1408.0</ele><time>2026-04-25T12:35:21.999Z</time></trkpt><trkpt lat="46.44579378287521" lon="12.059561485912214"><ele>1408.0</ele><time>2026-04-25T12:35:22.999Z</time></trkpt><trkpt lat="46.44588837667011" lon="12.05946162472191"><ele>1408.0</ele><time>2026-04-25T12:35:23.999Z</time></trkpt><trkpt lat="46.44597108334495" lon="12.059328466336108"><ele>1408.0</ele><time>2026-04-25T12:35:24.999Z</time></trkpt><trkpt lat="46.44604406453729" lon="12.059159350941954"><ele>1407.3333333333333</ele><time>2026-04-25T12:35:25.999Z</time></trkpt><trkpt lat="46.44610579120922" lon="12.058969849749257"><ele>1406.6666666666667</ele><time>2026-04-25T12:35:26.999Z</time></trkpt><trkpt lat="46.446178757677046" lon="12.058776254848208"><ele>1406.0</ele><time>2026-04-25T12:35:27.999Z</time></trkpt><trkpt lat="46.44624118832728" lon="12.05856129320997"><ele>1409.0</ele><time>2026-04-25T12:35:28.999Z</time></trkpt><trkpt lat="46.446305933445686" lon="12.058338705228639"><ele>1412.0</ele><time>2026-04-25T12:35:29.999Z</time></trkpt><trkpt lat="46.44637127161227" lon="12.058114078368815"><ele>1415.0</ele><time>2026-04-25T12:35:30.999Z</time></trkpt><trkpt lat="46.446437189441944" lon="12.057887082660246"><ele>1415.0</ele><time>2026-04-25T12:35:31.999Z</time></trkpt><trkpt lat="46.44650319937159" lon="12.057660883159937"><ele>1415.0</ele><time>2026-04-25T12:35:32.999Z</time></trkpt><trkpt lat="46.44656802106815" lon="12.057441106525896"><ele>1415.0</ele><time>2026-04-25T12:35:33.999Z</time></trkpt><trkpt lat="46.446626509691704" lon="12.057229297718537"><ele>1414.25</ele><time>2026-04-25T12:35:34.999Z</time></trkpt><trkpt lat="46.44666817617184" lon="12.05703406076256"><ele>1413.5</ele><time>2026-04-25T12:35:35.999Z</time></trkpt><trkpt lat="46.446692830180574" lon="12.056850078780903"><ele>1412.75</ele><time>2026-04-25T12:35:36.999Z</time></trkpt><trkpt lat="46.4467087337246" lon="12.05668836283113"><ele>1412.0</ele><time>2026-04-25T12:35:37.999Z</time></trkpt><trkpt lat="46.446722457591186" lon="12.056534998597654"><ele>1411.5</ele><time>2026-04-25T12:35:38.999Z</time></trkpt><trkpt lat="46.446737141465135" lon="12.056370467952597"><ele>1411.0</ele><time>2026-04-25T12:35:39.999Z</time></trkpt><trkpt lat="46.446749721645666" lon="12.056204772540196"><ele>1410.5</ele><time>2026-04-25T12:35:40.999Z</time></trkpt><trkpt lat="46.44676135107603" lon="12.056039816217213"><ele>1410.0</ele><time>2026-04-25T12:35:41.999Z</time></trkpt><trkpt lat="46.44675445014544" lon="12.0558750370954"><ele>1409.0</ele><time>2026-04-25T12:35:42.999Z</time></trkpt><trkpt lat="46.4467691163511" lon="12.05571968601965"><ele>1408.0</ele><time>2026-04-25T12:35:43.999Z</time></trkpt><trkpt lat="46.44678784846959" lon="12.055573906275793"><ele>1407.0</ele><time>2026-04-25T12:35:44.999Z</time></trkpt><trkpt lat="46.44682996630927" lon="12.055431177491482"><ele>1406.0</ele><time>2026-04-25T12:35:45.999Z</time></trkpt><trkpt lat="46.44689065882522" lon="12.055294009649433"><ele>1405.0</ele><time>2026-04-25T12:35:46.999Z</time></trkpt><trkpt lat="46.446970601868266" lon="12.055158031486508"><ele>1405.0</ele><time>2026-04-25T12:35:47.999Z</time></trkpt><trkpt lat="46.44705633745777" lon="12.055019031337466"><ele>1405.0</ele><time>2026-04-25T12:35:48.999Z</time></trkpt><trkpt lat="46.44714245042781" lon="12.054877151939984"><ele>1405.0</ele><time>2026-04-25T12:35:49.999Z</time></trkpt><trkpt lat="46.44722691323988" lon="12.054736168665803"><ele>1405.0</ele><time>2026-04-25T12:35:50.999Z</time></trkpt><trkpt lat="46.447327388560794" lon="12.054615483585431"><ele>1406.0</ele><time>2026-04-25T12:35:51.999Z</time></trkpt><trkpt lat="46.44741661988134" lon="12.054473058564737"><ele>1407.0</ele><time>2026-04-25T12:35:52.999Z</time></trkpt><trkpt lat="46.44750699539072" lon="12.054328807336889"><ele>1408.0</ele><time>2026-04-25T12:35:53.999Z</time></trkpt><trkpt lat="46.44759536254248" lon="12.054184960232286"><ele>1409.0</ele><time>2026-04-25T12:35:54.999Z</time></trkpt><trkpt lat="46.44767035067168" lon="12.054028021728206"><ele>1410.5</ele><time>2026-04-25T12:35:55.999Z</time></trkpt><trkpt lat="46.44776983637239" lon="12.053919150959596"><ele>1412.0</ele><time>2026-04-25T12:35:57Z</time></trkpt><trkpt lat="46.44784823337842" lon="12.053793712319667"><ele>1413.5</ele><time>2026-04-25T12:35:58Z</time></trkpt><trkpt lat="46.44794361289408" lon="12.05369902186728"><ele>1415.0</ele><time>2026-04-25T12:35:59Z</time></trkpt><trkpt lat="46.44802591799969" lon="12.053577739800948"><ele>1415.0</ele><time>2026-04-25T12:36:00Z</time></trkpt><trkpt lat="46.44808867294545" lon="12.053427426330048"><ele>1415.0</ele><time>2026-04-25T12:36:01Z</time></trkpt><trkpt lat="46.44812077886625" lon="12.053256927634063"><ele>1415.0</ele><time>2026-04-25T12:36:02Z</time></trkpt><trkpt lat="46.44810995240531" lon="12.053075633837063"><ele>1415.0</ele><time>2026-04-25T12:36:03Z</time></trkpt><trkpt lat="46.44808582273774" lon="12.052893135699287"><ele>1413.5</ele><time>2026-04-25T12:36:04Z</time></trkpt><trkpt lat="46.44799974715706" lon="12.052741860483998"><ele>1412.0</ele><time>2026-04-25T12:36:05Z</time></trkpt><trkpt lat="46.44787061088951" lon="12.05265527434918"><ele>1410.5</ele><time>2026-04-25T12:36:06Z</time></trkpt><trkpt lat="46.44773418714102" lon="12.052560763001487"><ele>1409.0</ele><time>2026-04-25T12:36:07Z</time></trkpt><trkpt lat="46.44759677175154" lon="12.052457397893004"><ele>1412.5</ele><time>2026-04-25T12:36:08Z</time></trkpt><trkpt lat="46.44747085124764" lon="12.052365475301059"><ele>1416.0</ele><time>2026-04-25T12:36:09Z</time></trkpt><trkpt lat="46.447363863067416" lon="12.052281498146929"><ele>1419.5</ele><time>2026-04-25T12:36:10Z</time></trkpt><trkpt lat="46.44727007069437" lon="12.0522078229676"><ele>1423.0</ele><time>2026-04-25T12:36:11Z</time></trkpt><trkpt lat="46.447187229211465" lon="12.05214140977974"><ele>1419.6000000000001</ele><time>2026-04-25T12:36:12Z</time></trkpt><trkpt lat="46.4471152537224" lon="12.052063501388862"><ele>1416.2</ele><time>2026-04-25T12:36:13Z</time></trkpt><trkpt lat="46.447060893923265" lon="12.051948899038749"><ele>1412.8</ele><time>2026-04-25T12:36:14Z</time></trkpt><trkpt lat="46.44703264101094" lon="12.051818757613393"><ele>1409.4</ele><time>2026-04-25T12:36:15Z</time></trkpt><trkpt lat="46.447042938964714" lon="12.051679644080489"><ele>1406.0</ele><time>2026-04-25T12:36:16Z</time></trkpt><trkpt lat="46.44705765574957" lon="12.051533232840326"><ele>1404.75</ele><time>2026-04-25T12:36:17Z</time></trkpt><trkpt lat="46.44709738074319" lon="12.051368120961557"><ele>1403.5</ele><time>2026-04-25T12:36:18Z</time></trkpt><trkpt lat="46.447132585080816" lon="12.051200187228611"><ele>1402.25</ele><time>2026-04-25T12:36:19Z</time></trkpt><trkpt lat="46.447166713068604" lon="12.051035445980018"><ele>1401.0</ele><time>2026-04-25T12:36:20Z</time></trkpt><trkpt lat="46.44718083415206" lon="12.050870387954053"><ele>1405.5</ele><time>2026-04-25T12:36:21Z</time></trkpt><trkpt lat="46.44721202411472" lon="12.050714339448575"><ele>1410.0</ele><time>2026-04-25T12:36:22Z</time></trkpt><trkpt lat="46.44724698871271" lon="12.050547485130714"><ele>1414.5</ele><time>2026-04-25T12:36:23Z</time></trkpt><trkpt lat="46.4472815962728" lon="12.050370828849703"><ele>1419.0</ele><time>2026-04-25T12:36:24Z</time></trkpt><trkpt lat="46.44731629285639" lon="12.05018644402197"><ele>1419.0</ele><time>2026-04-25T12:36:25Z</time></trkpt><trkpt lat="46.44735496952735" lon="12.049997110391422"><ele>1419.0</ele><time>2026-04-25T12:36:26Z</time></trkpt><trkpt lat="46.44741410023864" lon="12.049812834504364"><ele>1419.0</ele><time>2026-04-25T12:36:27Z</time></trkpt><trkpt lat="46.447453214222136" lon="12.049623035463483"><ele>1419.0</ele><time>2026-04-25T12:36:28Z</time></trkpt><trkpt lat="46.447491959266" lon="12.049440280216256"><ele>1415.75</ele><time>2026-04-25T12:36:29Z</time></trkpt><trkpt lat="46.447537978695394" lon="12.049268676012147"><ele>1412.5</ele><time>2026-04-25T12:36:30Z</time></trkpt><trkpt lat="46.447594723503144" lon="12.049106834519634"><ele>1409.25</ele><time>2026-04-25T12:36:31Z</time></trkpt><trkpt lat="46.44766394713295" lon="12.048961104213834"><ele>1406.0</ele><time>2026-04-25T12:36:32Z</time></trkpt><trkpt lat="46.44774001451183" lon="12.048824406793678"><ele>1404.0</ele><time>2026-04-25T12:36:33Z</time></trkpt><trkpt lat="46.447821568246894" lon="12.048693298501325"><ele>1402.0</ele><time>2026-04-25T12:36:34Z</time></trkpt><trkpt lat="46.44790815685276" lon="12.048553496119087"><ele>1400.0</ele><time>2026-04-25T12:36:35Z</time></trkpt><trkpt lat="46.44799795144201" lon="12.04840615419959"><ele>1398.0</ele><time>2026-04-25T12:36:36Z</time></trkpt><trkpt lat="46.448082865273896" lon="12.048231853842953"><ele>1398.0</ele><time>2026-04-25T12:36:37Z</time></trkpt><trkpt lat="46.44818587360801" lon="12.048066698533942"><ele>1398.0</ele><time>2026-04-25T12:36:38Z</time></trkpt><trkpt lat="46.448293716316535" lon="12.0478939125903"><ele>1398.0</ele><time>2026-04-25T12:36:39Z</time></trkpt><trkpt lat="46.448400905603876" lon="12.04771682259149"><ele>1398.0</ele><time>2026-04-25T12:36:40Z</time></trkpt><trkpt lat="46.44851610579464" lon="12.047555990611821"><ele>1398.0</ele><time>2026-04-25T12:36:41Z</time></trkpt><trkpt lat="46.44860739565405" lon="12.04737336402008"><ele>1398.0</ele><time>2026-04-25T12:36:42Z</time></trkpt><trkpt lat="46.448683787475815" lon="12.047186519703928"><ele>1397.75</ele><time>2026-04-25T12:36:43Z</time></trkpt><trkpt lat="46.448752747165486" lon="12.047003107829854"><ele>1397.5</ele><time>2026-04-25T12:36:44Z</time></trkpt><trkpt lat="46.44881984835171" lon="12.04682351032634"><ele>1397.25</ele><time>2026-04-25T12:36:45Z</time></trkpt><trkpt lat="46.44888453337999" lon="12.0466484683664"><ele>1397.0</ele><time>2026-04-25T12:36:46Z</time></trkpt><trkpt lat="46.44895241606063" lon="12.046484359636041"><ele>1397.0</ele><time>2026-04-25T12:36:47Z</time></trkpt><trkpt lat="46.44902169945058" lon="12.046324670744607"><ele>1397.0</ele><time>2026-04-25T12:36:48Z</time></trkpt><trkpt lat="46.44909611368811" lon="12.046170730943047"><ele>1397.0</ele><time>2026-04-25T12:36:49Z</time></trkpt><trkpt lat="46.44917222169778" lon="12.046019214595685"><ele>1397.0</ele><time>2026-04-25T12:36:50Z</time></trkpt><trkpt lat="46.44927017143302" lon="12.045895143832242"><ele>1398.25</ele><time>2026-04-25T12:36:51Z</time></trkpt><trkpt lat="46.44937324646355" lon="12.045785801570245"><ele>1399.5</ele><time>2026-04-25T12:36:52Z</time></trkpt><trkpt lat="46.44948680539748" lon="12.045701143609657"><ele>1400.75</ele><time>2026-04-25T12:36:53Z</time></trkpt><trkpt lat="46.44960070249521" lon="12.045628177178038"><ele>1402.0</ele><time>2026-04-25T12:36:54.001Z</time></trkpt><trkpt lat="46.44971195981324" lon="12.045543504365234"><ele>1402.0</ele><time>2026-04-25T12:36:55.001Z</time></trkpt><trkpt lat="46.44981895514571" lon="12.045447215815917"><ele>1402.0</ele><time>2026-04-25T12:36:56.001Z</time></trkpt><trkpt lat="46.449923595983684" lon="12.045342142984307"><ele>1402.0</ele><time>2026-04-25T12:36:57.001Z</time></trkpt><trkpt lat="46.4499836322393" lon="12.045183010666987"><ele>1402.0</ele><time>2026-04-25T12:36:58.001Z</time></trkpt><trkpt lat="46.450030372824536" lon="12.045021133641399"><ele>1399.6</ele><time>2026-04-25T12:36:59.001Z</time></trkpt><trkpt lat="46.45008627640881" lon="12.044875815011071"><ele>1397.1999999999998</ele><time>2026-04-25T12:37:00.001Z</time></trkpt><trkpt lat="46.450125060285544" lon="12.044729674999338"><ele>1394.8</ele><time>2026-04-25T12:37:01.001Z</time></trkpt><trkpt lat="46.45016196589884" lon="12.044585643321698"><ele>1392.4</ele><time>2026-04-25T12:37:02.001Z</time></trkpt><trkpt lat="46.4501976927257" lon="12.044446211781855"><ele>1390.0</ele><time>2026-04-25T12:37:03.001Z</time></trkpt><trkpt lat="46.45023293751117" lon="12.044309510682007"><ele>1390.0</ele><time>2026-04-25T12:37:04.001Z</time></trkpt><trkpt lat="46.45027087957954" lon="12.044167212116465"><ele>1390.0</ele><time>2026-04-25T12:37:05.001Z</time></trkpt><trkpt lat="46.45031176299247" lon="12.044017520296611"><ele>1390.0</ele><time>2026-04-25T12:37:06.001Z</time></trkpt><trkpt lat="46.450354960348676" lon="12.043865028884909"><ele>1390.0</ele><time>2026-04-25T12:37:07.001Z</time></trkpt><trkpt lat="46.45039768206899" lon="12.043718561023866"><ele>1390.0</ele><time>2026-04-25T12:37:08.001Z</time></trkpt><trkpt lat="46.45043879458584" lon="12.043577610938026"><ele>1390.6</ele><time>2026-04-25T12:37:09.001Z</time></trkpt><trkpt lat="46.450478586212434" lon="12.043442670383008"><ele>1391.2</ele><time>2026-04-25T12:37:10.001Z</time></trkpt><trkpt lat="46.450517214400605" lon="12.043311451216198"><ele>1391.8000000000002</ele><time>2026-04-25T12:37:11.001Z</time></trkpt><trkpt lat="46.45055552667721" lon="12.043181305055564"><ele>1392.4</ele><time>2026-04-25T12:37:12.001Z</time></trkpt><trkpt lat="46.450593612241896" lon="12.043052486718674"><ele>1393.0</ele><time>2026-04-25T12:37:13.001Z</time></trkpt><trkpt lat="46.45063199412917" lon="12.042924282838"><ele>1393.0</ele><time>2026-04-25T12:37:14.001Z</time></trkpt><trkpt lat="46.45067042257531" lon="12.042795924033186"><ele>1393.0</ele><time>2026-04-25T12:37:15.001Z</time></trkpt><trkpt lat="46.45068677436729" lon="12.04265460541301"><ele>1393.0</ele><time>2026-04-25T12:37:16.001Z</time></trkpt><trkpt lat="46.45072801656543" lon="12.042525530013371"><ele>1393.0</ele><time>2026-04-25T12:37:17Z</time></trkpt><trkpt lat="46.450744530392555" lon="12.042375451290125"><ele>1393.0</ele><time>2026-04-25T12:37:18Z</time></trkpt><trkpt lat="46.450752107609944" lon="12.04221835253438"><ele>1392.0</ele><time>2026-04-25T12:37:19Z</time></trkpt><trkpt lat="46.450748012366944" lon="12.042043518789765"><ele>1391.0</ele><time>2026-04-25T12:37:20Z</time></trkpt><trkpt lat="46.450727536759835" lon="12.041857995350641"><ele>1390.0</ele><time>2026-04-25T12:37:21Z</time></trkpt><trkpt lat="46.4507184379534" lon="12.041662435649041"><ele>1389.0</ele><time>2026-04-25T12:37:22Z</time></trkpt><trkpt lat="46.45072775482015" lon="12.04146582555095"><ele>1387.0</ele><time>2026-04-25T12:37:23Z</time></trkpt><trkpt lat="46.45072817188378" lon="12.041273535218085"><ele>1385.0</ele><time>2026-04-25T12:37:24Z</time></trkpt><trkpt lat="46.450731833921495" lon="12.041079713695668"><ele>1383.0</ele><time>2026-04-25T12:37:25Z</time></trkpt><trkpt lat="46.450740071058675" lon="12.040892721935101"><ele>1381.0</ele><time>2026-04-25T12:37:26Z</time></trkpt><trkpt lat="46.45075079166534" lon="12.040710003941204"><ele>1378.5</ele><time>2026-04-25T12:37:27Z</time></trkpt><trkpt lat="46.4507653292831" lon="12.040530918421847"><ele>1376.0</ele><time>2026-04-25T12:37:28Z</time></trkpt><trkpt lat="46.45078325800096" lon="12.040351891930042"><ele>1373.5</ele><time>2026-04-25T12:37:29Z</time></trkpt><trkpt lat="46.45080468179936" lon="12.040170415970415"><ele>1371.0</ele><time>2026-04-25T12:37:30Z</time></trkpt><trkpt lat="46.4508266080343" lon="12.039988961135096"><ele>1370.0</ele><time>2026-04-25T12:37:31Z</time></trkpt><trkpt lat="46.45084881780506" lon="12.039809075297978"><ele>1369.0</ele><time>2026-04-25T12:37:32Z</time></trkpt><trkpt lat="46.450870856164634" lon="12.03963057771648"><ele>1368.0</ele><time>2026-04-25T12:37:33Z</time></trkpt><trkpt lat="46.45089281370155" lon="12.039452783028318"><ele>1367.0</ele><time>2026-04-25T12:37:34Z</time></trkpt><trkpt lat="46.45089868828057" lon="12.03927265702242"><ele>1364.25</ele><time>2026-04-25T12:37:35Z</time></trkpt><trkpt lat="46.45093598048313" lon="12.039103359962915"><ele>1361.5</ele><time>2026-04-25T12:37:36Z</time></trkpt><trkpt lat="46.45094160223853" lon="12.038926621702833"><ele>1358.75</ele><time>2026-04-25T12:37:37Z</time></trkpt><trkpt lat="46.45096458128068" lon="12.038754739208654"><ele>1356.0</ele><time>2026-04-25T12:37:38Z</time></trkpt><trkpt lat="46.45098682859842" lon="12.038580782628367"><ele>1356.0</ele><time>2026-04-25T12:37:39Z</time></trkpt><trkpt lat="46.45100964123759" lon="12.03840498898395"><ele>1356.0</ele><time>2026-04-25T12:37:40Z</time></trkpt><trkpt lat="46.45103210222826" lon="12.038226177294431"><ele>1356.0</ele><time>2026-04-25T12:37:41Z</time></trkpt><trkpt lat="46.45105619728818" lon="12.038044588229479"><ele>1356.0</ele><time>2026-04-25T12:37:42Z</time></trkpt><trkpt lat="46.45108381364589" lon="12.03785912528159"><ele>1353.5</ele><time>2026-04-25T12:37:43Z</time></trkpt><trkpt lat="46.451107937363496" lon="12.03767062136325"><ele>1351.0</ele><time>2026-04-25T12:37:44Z</time></trkpt><trkpt lat="46.451131794622135" lon="12.03747879429594"><ele>1348.5</ele><time>2026-04-25T12:37:45Z</time></trkpt><trkpt lat="46.45115358769139" lon="12.037283992468899"><ele>1346.0</ele><time>2026-04-25T12:37:46Z</time></trkpt><trkpt lat="46.4511742617928" lon="12.037090043420216"><ele>1343.25</ele><time>2026-04-25T12:37:47Z</time></trkpt><trkpt lat="46.45119426186618" lon="12.036900157085322"><ele>1340.5</ele><time>2026-04-25T12:37:48Z</time></trkpt><trkpt lat="46.45121491310984" lon="12.03671035564037"><ele>1337.75</ele><time>2026-04-25T12:37:49Z</time></trkpt><trkpt lat="46.45125065663142" lon="12.036524002457886"><ele>1335.0</ele><time>2026-04-25T12:37:50Z</time></trkpt><trkpt lat="46.451269181883525" lon="12.036334149032186"><ele>1334.5</ele><time>2026-04-25T12:37:51Z</time></trkpt><trkpt lat="46.45128365085979" lon="12.036143194738587"><ele>1334.0</ele><time>2026-04-25T12:37:52Z</time></trkpt><trkpt lat="46.45129565965315" lon="12.035952890935445"><ele>1333.5</ele><time>2026-04-25T12:37:53Z</time></trkpt><trkpt lat="46.45130689477817" lon="12.03576480084152"><ele>1333.0</ele><time>2026-04-25T12:37:54Z</time></trkpt><trkpt lat="46.451318427214915" lon="12.035578518452999"><ele>1333.75</ele><time>2026-04-25T12:37:55Z</time></trkpt><trkpt lat="46.451331742086246" lon="12.035393850318911"><ele>1334.5</ele><time>2026-04-25T12:37:56Z</time></trkpt><trkpt lat="46.45134668164943" lon="12.035216860994911"><ele>1335.25</ele><time>2026-04-25T12:37:57Z</time></trkpt><trkpt lat="46.45134794525997" lon="12.03504277462488"><ele>1336.0</ele><time>2026-04-25T12:37:58Z</time></trkpt><trkpt lat="46.45137100638654" lon="12.03488348308106"><ele>1336.0</ele><time>2026-04-25T12:37:59Z</time></trkpt><trkpt lat="46.451419651305635" lon="12.034743282140068"><ele>1336.0</ele><time>2026-04-25T12:38:00Z</time></trkpt><trkpt lat="46.451464282663316" lon="12.03461211213403"><ele>1336.0</ele><time>2026-04-25T12:38:01Z</time></trkpt><trkpt lat="46.45152004553814" lon="12.034493343699298"><ele>1336.0</ele><time>2026-04-25T12:38:02Z</time></trkpt><trkpt lat="46.451585970645915" lon="12.034376050972913"><ele>1336.0</ele><time>2026-04-25T12:38:03Z</time></trkpt><trkpt lat="46.45166122557821" lon="12.034264334522101"><ele>1336.0</ele><time>2026-04-25T12:38:04Z</time></trkpt><trkpt lat="46.45174782690354" lon="12.034141053310583"><ele>1336.0</ele><time>2026-04-25T12:38:05Z</time></trkpt><trkpt lat="46.4518624047014" lon="12.034059025748027"><ele>1336.0</ele><time>2026-04-25T12:38:06Z</time></trkpt><trkpt lat="46.452001055544436" lon="12.033992230070028"><ele>1336.0</ele><time>2026-04-25T12:38:07Z</time></trkpt><trkpt lat="46.45215913920114" lon="12.033954430925277"><ele>1331.3333333333333</ele><time>2026-04-25T12:38:08Z</time></trkpt><trkpt lat="46.45231828947809" lon="12.03390062892689"><ele>1326.6666666666667</ele><time>2026-04-25T12:38:09Z</time></trkpt><trkpt lat="46.45247338433436" lon="12.033843722796925"><ele>1322.0</ele><time>2026-04-25T12:38:10Z</time></trkpt><trkpt lat="46.45262960499126" lon="12.033785813929693"><ele>1322.0</ele><time>2026-04-25T12:38:11Z</time></trkpt><trkpt lat="46.45278135167753" lon="12.033719663063911"><ele>1322.0</ele><time>2026-04-25T12:38:12Z</time></trkpt><trkpt lat="46.45292962825175" lon="12.033645744378127"><ele>1322.0</ele><time>2026-04-25T12:38:13Z</time></trkpt><trkpt lat="46.453079064253444" lon="12.033592385975322"><ele>1323.6666666666667</ele><time>2026-04-25T12:38:14Z</time></trkpt><trkpt lat="46.45322324357338" lon="12.03351202567483"><ele>1325.3333333333333</ele><time>2026-04-25T12:38:15Z</time></trkpt><trkpt lat="46.453364972483286" lon="12.033428974857431"><ele>1327.0</ele><time>2026-04-25T12:38:16Z</time></trkpt><trkpt lat="46.453503806319965" lon="12.033346508911956"><ele>1322.75</ele><time>2026-04-25T12:38:17Z</time></trkpt><trkpt lat="46.453640628052405" lon="12.033265238679506"><ele>1318.5</ele><time>2026-04-25T12:38:18Z</time></trkpt><trkpt lat="46.45377140590422" lon="12.03316565974054"><ele>1314.25</ele><time>2026-04-25T12:38:19Z</time></trkpt><trkpt lat="46.453909775786904" lon="12.03308666233288"><ele>1310.0</ele><time>2026-04-25T12:38:20Z</time></trkpt><trkpt lat="46.45404865523356" lon="12.033007570062045"><ele>1310.0</ele><time>2026-04-25T12:38:21Z</time></trkpt><trkpt lat="46.454190645807955" lon="12.032925364137101"><ele>1310.0</ele><time>2026-04-25T12:38:22Z</time></trkpt><trkpt lat="46.454336872449254" lon="12.032840907175006"><ele>1310.0</ele><time>2026-04-25T12:38:23Z</time></trkpt><trkpt lat="46.454485015999666" lon="12.032753135260263"><ele>1314.3333333333335</ele><time>2026-04-25T12:38:24Z</time></trkpt><trkpt lat="46.454636368988794" lon="12.032663003385832"><ele>1318.6666666666667</ele><time>2026-04-25T12:38:25Z</time></trkpt><trkpt lat="46.454793784188375" lon="12.032571854504866"><ele>1323.0</ele><time>2026-04-25T12:38:26Z</time></trkpt><trkpt lat="46.45495518590618" lon="12.032473601546966"><ele>1318.3333333333333</ele><time>2026-04-25T12:38:27Z</time></trkpt><trkpt lat="46.455122465537634" lon="12.03237462474481"><ele>1313.6666666666665</ele><time>2026-04-25T12:38:28Z</time></trkpt><trkpt lat="46.455288228573885" lon="12.032274397739101"><ele>1309.0</ele><time>2026-04-25T12:38:29Z</time></trkpt><trkpt lat="46.455459453453024" lon="12.032197996356377"><ele>1309.0</ele><time>2026-04-25T12:38:30Z</time></trkpt><trkpt lat="46.45561986607268" lon="12.032105511075633"><ele>1309.0</ele><time>2026-04-25T12:38:31Z</time></trkpt><trkpt lat="46.455763119176" lon="12.03200051330041"><ele>1309.0</ele><time>2026-04-25T12:38:32Z</time></trkpt><trkpt lat="46.45590919987903" lon="12.031925293051945"><ele>1309.0</ele><time>2026-04-25T12:38:33Z</time></trkpt><trkpt lat="46.45605758227006" lon="12.031847917354844"><ele>1309.0</ele><time>2026-04-25T12:38:34Z</time></trkpt><trkpt lat="46.45621005143486" lon="12.03176443887113"><ele>1309.0</ele><time>2026-04-25T12:38:35Z</time></trkpt><trkpt lat="46.456358952493645" lon="12.031671779798351"><ele>1313.6666666666665</ele><time>2026-04-25T12:38:36Z</time></trkpt><trkpt lat="46.456506152969375" lon="12.031589428760991"><ele>1318.3333333333333</ele><time>2026-04-25T12:38:37Z</time></trkpt><trkpt lat="46.45665104256017" lon="12.031537023284995"><ele>1323.0</ele><time>2026-04-25T12:38:38Z</time></trkpt><trkpt lat="46.45679515830368" lon="12.031521983260804"><ele>1323.0</ele><time>2026-04-25T12:38:39Z</time></trkpt><trkpt lat="46.45695126951662" lon="12.031542654447792"><ele>1323.0</ele><time>2026-04-25T12:38:40Z</time></trkpt><trkpt lat="46.45711374850462" lon="12.031573079290215"><ele>1323.0</ele><time>2026-04-25T12:38:41Z</time></trkpt><trkpt lat="46.457274010310016" lon="12.031618764792984"><ele>1325.3333333333333</ele><time>2026-04-25T12:38:42Z</time></trkpt><trkpt lat="46.457426181759274" lon="12.03167096580206"><ele>1327.6666666666665</ele><time>2026-04-25T12:38:43Z</time></trkpt><trkpt lat="46.4575759791976" lon="12.031733902300441"><ele>1330.0</ele><time>2026-04-25T12:38:44Z</time></trkpt><trkpt lat="46.457716470006595" lon="12.031802903853702"><ele>1330.0</ele><time>2026-04-25T12:38:45Z</time></trkpt><trkpt lat="46.45785840692366" lon="12.031864302219923"><ele>1330.0</ele><time>2026-04-25T12:38:46Z</time></trkpt><trkpt lat="46.45800162988117" lon="12.031907820359352"><ele>1330.0</ele><time>2026-04-25T12:38:47Z</time></trkpt><trkpt lat="46.45814733121798" lon="12.031938407033676"><ele>1330.0</ele><time>2026-04-25T12:38:48Z</time></trkpt><trkpt lat="46.45828862454027" lon="12.031977719621608"><ele>1331.0</ele><time>2026-04-25T12:38:49Z</time></trkpt><trkpt lat="46.45842483149416" lon="12.032018387441491"><ele>1332.0</ele><time>2026-04-25T12:38:50Z</time></trkpt><trkpt lat="46.45855224987699" lon="12.032054613377372"><ele>1333.0</ele><time>2026-04-25T12:38:51Z</time></trkpt><trkpt lat="46.45866426071968" lon="12.032057410281999"><ele>1334.0</ele><time>2026-04-25T12:38:52Z</time></trkpt><trkpt lat="46.45876197366641" lon="12.03200501382505"><ele>1338.2</ele><time>2026-04-25T12:38:53Z</time></trkpt><trkpt lat="46.45884015813885" lon="12.031898746629377"><ele>1342.4</ele><time>2026-04-25T12:38:54Z</time></trkpt><trkpt lat="46.45891217583762" lon="12.03177638171506"><ele>1346.6</ele><time>2026-04-25T12:38:55Z</time></trkpt><trkpt lat="46.45896370297155" lon="12.031662762979604"><ele>1350.8</ele><time>2026-04-25T12:38:56Z</time></trkpt><trkpt lat="46.45901997669158" lon="12.031553572928317"><ele>1355.0</ele><time>2026-04-25T12:38:57Z</time></trkpt><trkpt lat="46.45912435642886" lon="12.031544890872711"><ele>1355.0</ele><time>2026-04-25T12:38:58Z</time></trkpt><trkpt lat="46.459250047280115" lon="12.031605760474648"><ele>1355.0</ele><time>2026-04-25T12:38:59.001Z</time></trkpt><trkpt lat="46.45939237215647" lon="12.031658047723061"><ele>1355.0</ele><time>2026-04-25T12:39:00.001Z</time></trkpt><trkpt lat="46.45954582817407" lon="12.031677516073682"><ele>1355.0</ele><time>2026-04-25T12:39:01.001Z</time></trkpt><trkpt lat="46.459687085378896" lon="12.031676209538633"><ele>1358.5</ele><time>2026-04-25T12:39:02.001Z</time></trkpt><trkpt lat="46.45981727323932" lon="12.031671711278799"><ele>1362.0</ele><time>2026-04-25T12:39:03.001Z</time></trkpt><trkpt lat="46.45993672450646" lon="12.031663350023669"><ele>1365.5</ele><time>2026-04-25T12:39:04.001Z</time></trkpt><trkpt lat="46.46006338250337" lon="12.031684707276165"><ele>1369.0</ele><time>2026-04-25T12:39:05.001Z</time></trkpt><trkpt lat="46.46018305772748" lon="12.031757711776462"><ele>1369.0</ele><time>2026-04-25T12:39:06.001Z</time></trkpt><trkpt lat="46.46029719329057" lon="12.031860456364612"><ele>1369.0</ele><time>2026-04-25T12:39:07.001Z</time></trkpt><trkpt lat="46.460395751214605" lon="12.03195015057498"><ele>1369.0</ele><time>2026-04-25T12:39:08.001Z</time></trkpt><trkpt lat="46.46049693774763" lon="12.03200308150064"><ele>1369.0</ele><time>2026-04-25T12:39:09.001Z</time></trkpt><trkpt lat="46.460606899710285" lon="12.032000279989003"><ele>1371.75</ele><time>2026-04-25T12:39:10.001Z</time></trkpt><trkpt lat="46.4607202130709" lon="12.031942168227284"><ele>1374.5</ele><time>2026-04-25T12:39:11.001Z</time></trkpt><trkpt lat="46.4608435456437" lon="12.031854359009534"><ele>1377.25</ele><time>2026-04-25T12:39:12.001Z</time></trkpt><trkpt lat="46.4609827100737" lon="12.031782478071415"><ele>1380.0</ele><time>2026-04-25T12:39:13.001Z</time></trkpt><trkpt lat="46.461138049179176" lon="12.031747452075905"><ele>1381.3333333333333</ele><time>2026-04-25T12:39:14.001Z</time></trkpt><trkpt lat="46.46128888734098" lon="12.031743606456601"><ele>1382.6666666666665</ele><time>2026-04-25T12:39:15.001Z</time></trkpt><trkpt lat="46.461441247699696" lon="12.031783472596096"><ele>1384.0</ele><time>2026-04-25T12:39:16.001Z</time></trkpt><trkpt lat="46.461587704814285" lon="12.031837732401948"><ele>1384.0</ele><time>2026-04-25T12:39:17.001Z</time></trkpt><trkpt lat="46.46172872245946" lon="12.031849279406847"><ele>1384.0</ele><time>2026-04-25T12:39:18Z</time></trkpt><trkpt lat="46.46186326410501" lon="12.03179517742603"><ele>1384.0</ele><time>2026-04-25T12:39:19Z</time></trkpt><trkpt lat="46.461997033968" lon="12.031702039584783"><ele>1384.0</ele><time>2026-04-25T12:39:20Z</time></trkpt><trkpt lat="46.462142609179196" lon="12.03160811212735"><ele>1391.6666666666665</ele><time>2026-04-25T12:39:21Z</time></trkpt><trkpt lat="46.462288137042215" lon="12.031521100810115"><ele>1399.3333333333333</ele><time>2026-04-25T12:39:22Z</time></trkpt><trkpt lat="46.46243029706572" lon="12.031443241306713"><ele>1407.0</ele><time>2026-04-25T12:39:23Z</time></trkpt><trkpt lat="46.46257266167021" lon="12.031366410165303"><ele>1407.0</ele><time>2026-04-25T12:39:24Z</time></trkpt><trkpt lat="46.46272376446022" lon="12.03129821681134"><ele>1407.0</ele><time>2026-04-25T12:39:25Z</time></trkpt><trkpt lat="46.4628787945651" lon="12.031235435400768"><ele>1407.0</ele><time>2026-04-25T12:39:26Z</time></trkpt><trkpt lat="46.463040565256925" lon="12.031178179068574"><ele>1409.6666666666667</ele><time>2026-04-25T12:39:27Z</time></trkpt><trkpt lat="46.46320541790094" lon="12.031125535535036"><ele>1412.3333333333335</ele><time>2026-04-25T12:39:28Z</time></trkpt><trkpt lat="46.463370681836864" lon="12.031073753335681"><ele>1415.0</ele><time>2026-04-25T12:39:29Z</time></trkpt><trkpt lat="46.46353497962632" lon="12.031023312055732"><ele>1415.0</ele><time>2026-04-25T12:39:30Z</time></trkpt><trkpt lat="46.46368848472439" lon="12.030980053784438"><ele>1415.0</ele><time>2026-04-25T12:39:31Z</time></trkpt><trkpt lat="46.46383575130658" lon="12.03093533217131"><ele>1415.0</ele><time>2026-04-25T12:39:32Z</time></trkpt><trkpt lat="46.46398428865239" lon="12.030877430950868"><ele>1427.6666666666667</ele><time>2026-04-25T12:39:33Z</time></trkpt><trkpt lat="46.464134953465106" lon="12.030802883742346"><ele>1440.3333333333333</ele><time>2026-04-25T12:39:34Z</time></trkpt><trkpt lat="46.46428195708862" lon="12.030708232779556"><ele>1453.0</ele><time>2026-04-25T12:39:35Z</time></trkpt><trkpt lat="46.4644206923394" lon="12.030599037797169"><ele>1453.0</ele><time>2026-04-25T12:39:36Z</time></trkpt><trkpt lat="46.46455955558505" lon="12.03049943611098"><ele>1453.0</ele><time>2026-04-25T12:39:37Z</time></trkpt><trkpt lat="46.4647019067462" lon="12.030420229452814"><ele>1453.0</ele><time>2026-04-25T12:39:38Z</time></trkpt><trkpt lat="46.464854218348954" lon="12.030357810127605"><ele>1451.3333333333333</ele><time>2026-04-25T12:39:39Z</time></trkpt><trkpt lat="46.465017936429234" lon="12.03031558883988"><ele>1449.6666666666667</ele><time>2026-04-25T12:39:40Z</time></trkpt><trkpt lat="46.46518566522986" lon="12.030283824675607"><ele>1448.0</ele><time>2026-04-25T12:39:41Z</time></trkpt><trkpt lat="46.46534324874935" lon="12.030240754396369"><ele>1446.5</ele><time>2026-04-25T12:39:42Z</time></trkpt><trkpt lat="46.46548075565383" lon="12.030160816241889"><ele>1445.0</ele><time>2026-04-25T12:39:43Z</time></trkpt><trkpt lat="46.465609170373966" lon="12.030093377432788"><ele>1443.5</ele><time>2026-04-25T12:39:44Z</time></trkpt><trkpt lat="46.465710190896246" lon="12.030016909973083"><ele>1442.0</ele><time>2026-04-25T12:39:45Z</time></trkpt><trkpt lat="46.46580729192589" lon="12.03000353983906"><ele>1442.0</ele><time>2026-04-25T12:39:46Z</time></trkpt><trkpt lat="46.46590943320537" lon="12.030044505134722"><ele>1442.0</ele><time>2026-04-25T12:39:47Z</time></trkpt><trkpt lat="46.46600709078189" lon="12.030152485991573"><ele>1442.0</ele><time>2026-04-25T12:39:48Z</time></trkpt><trkpt lat="46.46609686861265" lon="12.030248510612477"><ele>1442.0</ele><time>2026-04-25T12:39:49Z</time></trkpt><trkpt lat="46.46618224059862" lon="12.030319197230302"><ele>1442.0</ele><time>2026-04-25T12:39:50Z</time></trkpt><trkpt lat="46.46625530382432" lon="12.030366128100304"><ele>1443.3333333333335</ele><time>2026-04-25T12:39:51Z</time></trkpt><trkpt lat="46.466320078085246" lon="12.030383293374035"><ele>1444.6666666666667</ele><time>2026-04-25T12:39:52Z</time></trkpt><trkpt lat="46.466386423609926" lon="12.030363813983733"><ele>1446.0</ele><time>2026-04-25T12:39:53Z</time></trkpt><trkpt lat="46.466439325871384" lon="12.030300097665583"><ele>1447.3333333333333</ele><time>2026-04-25T12:39:54Z</time></trkpt><trkpt lat="46.466445749897645" lon="12.030161796190136"><ele>1448.6666666666665</ele><time>2026-04-25T12:39:55Z</time></trkpt><trkpt lat="46.46635889260014" lon="12.03005411287869"><ele>1450.0</ele><time>2026-04-25T12:39:56Z</time></trkpt><trkpt lat="46.46632878831828" lon="12.029971744750949"><ele>1450.0</ele><time>2026-04-25T12:39:57Z</time></trkpt><trkpt lat="46.46633303940733" lon="12.029825485438112"><ele>1450.0</ele><time>2026-04-25T12:39:59Z</time></trkpt><trkpt lat="46.466439284887734" lon="12.029804164793926"><ele>1450.0</ele><time>2026-04-25T12:40:01Z</time></trkpt><trkpt lat="46.466497623772966" lon="12.029895498741535"><ele>1450.0</ele><time>2026-04-25T12:40:02Z</time></trkpt><trkpt lat="46.46657445652142" lon="12.0299670680302"><ele>1450.0</ele><time>2026-04-25T12:40:03Z</time></trkpt><trkpt lat="46.46667671973654" lon="12.030017556310394"><ele>1450.0</ele><time>2026-04-25T12:40:04Z</time></trkpt><trkpt lat="46.466780402321355" lon="12.03003511205529"><ele>1450.0</ele><time>2026-04-25T12:40:05Z</time></trkpt><trkpt lat="46.466872062061576" lon="12.030011524568364"><ele>1450.0</ele><time>2026-04-25T12:40:06Z</time></trkpt><trkpt lat="46.46697043488617" lon="12.02999878347034"><ele>1450.0</ele><time>2026-04-25T12:40:07Z</time></trkpt><trkpt lat="46.46706832190713" lon="12.029952280043544"><ele>1450.0</ele><time>2026-04-25T12:40:08Z</time></trkpt><trkpt lat="46.46716896812912" lon="12.02993382331524"><ele>1453.3333333333333</ele><time>2026-04-25T12:40:09Z</time></trkpt><trkpt lat="46.46726166560588" lon="12.029906318237515"><ele>1456.6666666666665</ele><time>2026-04-25T12:40:10Z</time></trkpt><trkpt lat="46.4673445629492" lon="12.029919020331935"><ele>1460.0</ele><time>2026-04-25T12:40:11Z</time></trkpt><trkpt lat="46.4674148680359" lon="12.029964440493961"><ele>1463.3333333333333</ele><time>2026-04-25T12:40:12Z</time></trkpt><trkpt lat="46.467471445412784" lon="12.030041510447422"><ele>1466.6666666666667</ele><time>2026-04-25T12:40:13Z</time></trkpt><trkpt lat="46.46750961890239" lon="12.030154353042334"><ele>1470.0</ele><time>2026-04-25T12:40:14Z</time></trkpt><trkpt lat="46.467530591274816" lon="12.030288224823824"><ele>1470.0</ele><time>2026-04-25T12:40:15Z</time></trkpt><trkpt lat="46.467542876995445" lon="12.03044441087844"><ele>1470.0</ele><time>2026-04-25T12:40:16Z</time></trkpt><trkpt lat="46.46754675666339" lon="12.030577829172136"><ele>1470.0</ele><time>2026-04-25T12:40:17Z</time></trkpt><trkpt lat="46.46751739295726" lon="12.030705281962456"><ele>1470.0</ele><time>2026-04-25T12:40:18Z</time></trkpt><trkpt lat="46.467441385082296" lon="12.030806592392015"><ele>1470.0</ele><time>2026-04-25T12:40:19Z</time></trkpt><trkpt lat="46.46733663225679" lon="12.030884635752674"><ele>1468.5</ele><time>2026-04-25T12:40:20Z</time></trkpt><trkpt lat="46.46723728128828" lon="12.03098701573436"><ele>1467.0</ele><time>2026-04-25T12:40:21Z</time></trkpt><trkpt lat="46.46714274375199" lon="12.031118481730605"><ele>1465.5</ele><time>2026-04-25T12:40:22Z</time></trkpt><trkpt lat="46.467053477825424" lon="12.031281228038203"><ele>1464.0</ele><time>2026-04-25T12:40:23Z</time></trkpt><trkpt lat="46.46695351634273" lon="12.031461147688544"><ele>1463.6</ele><time>2026-04-25T12:40:24Z</time></trkpt><trkpt lat="46.46686710027611" lon="12.031610014988912"><ele>1463.2</ele><time>2026-04-25T12:40:25Z</time></trkpt><trkpt lat="46.46679344571206" lon="12.031730650662897"><ele>1462.8</ele><time>2026-04-25T12:40:26Z</time></trkpt><trkpt lat="46.466727704789456" lon="12.031836593703044"><ele>1462.3999999999999</ele><time>2026-04-25T12:40:27Z</time></trkpt><trkpt lat="46.46668195366497" lon="12.03194465250852"><ele>1462.0</ele><time>2026-04-25T12:40:28Z</time></trkpt><trkpt lat="46.466669046102965" lon="12.032051901610776"><ele>1462.0</ele><time>2026-04-25T12:40:29Z</time></trkpt><trkpt lat="46.466698211306436" lon="12.032156112916436"><ele>1462.0</ele><time>2026-04-25T12:40:30Z</time></trkpt><trkpt lat="46.46675924803462" lon="12.032227724934847"><ele>1462.0</ele><time>2026-04-25T12:40:31Z</time></trkpt><trkpt lat="46.46684922219303" lon="12.032245242034708"><ele>1462.0</ele><time>2026-04-25T12:40:32Z</time></trkpt><trkpt lat="46.466963366103435" lon="12.032187992550531"><ele>1462.0</ele><time>2026-04-25T12:40:33Z</time></trkpt><trkpt lat="46.46711393082465" lon="12.032102077334315"><ele>1467.0</ele><time>2026-04-25T12:40:34Z</time></trkpt><trkpt lat="46.46729069683453" lon="12.031962365420672"><ele>1472.0</ele><time>2026-04-25T12:40:35Z</time></trkpt><trkpt lat="46.4674490098911" lon="12.031841135136693"><ele>1477.0</ele><time>2026-04-25T12:40:36Z</time></trkpt><trkpt lat="46.46759881185945" lon="12.031738287306702"><ele>1477.0</ele><time>2026-04-25T12:40:37Z</time></trkpt><trkpt lat="46.46776030771116" lon="12.03164673502887"><ele>1477.0</ele><time>2026-04-25T12:40:38Z</time></trkpt><trkpt lat="46.46792307922769" lon="12.03160754863916"><ele>1477.0</ele><time>2026-04-25T12:40:39Z</time></trkpt><trkpt lat="46.46807696632807" lon="12.031586265510454"><ele>1476.3333333333333</ele><time>2026-04-25T12:40:40Z</time></trkpt><trkpt lat="46.468234424441754" lon="12.031576038906284"><ele>1475.6666666666667</ele><time>2026-04-25T12:40:41Z</time></trkpt><trkpt lat="46.468387029598325" lon="12.031565151120882"><ele>1475.0</ele><time>2026-04-25T12:40:42Z</time></trkpt><trkpt lat="46.46853467854195" lon="12.031555506587742"><ele>1475.0</ele><time>2026-04-25T12:40:43Z</time></trkpt><trkpt lat="46.468683424575154" lon="12.031589496145285"><ele>1475.0</ele><time>2026-04-25T12:40:44Z</time></trkpt><trkpt lat="46.46883754470201" lon="12.03167225514324"><ele>1475.0</ele><time>2026-04-25T12:40:45Z</time></trkpt><trkpt lat="46.468992633257955" lon="12.031768557843279"><ele>1486.0</ele><time>2026-04-25T12:40:46Z</time></trkpt><trkpt lat="46.46914777684459" lon="12.031826762674749"><ele>1497.0</ele><time>2026-04-25T12:40:47Z</time></trkpt><trkpt lat="46.46930336528824" lon="12.031834042843563"><ele>1508.0</ele><time>2026-04-25T12:40:48Z</time></trkpt><trkpt lat="46.46944908554489" lon="12.031835064306364"><ele>1508.0</ele><time>2026-04-25T12:40:49Z</time></trkpt><trkpt lat="46.46957810045286" lon="12.031842957938503"><ele>1508.0</ele><time>2026-04-25T12:40:50Z</time></trkpt><trkpt lat="46.46970327291314" lon="12.031899545561489"><ele>1508.0</ele><time>2026-04-25T12:40:51Z</time></trkpt><trkpt lat="46.46981429387913" lon="12.032019086003153"><ele>1508.0</ele><time>2026-04-25T12:40:52Z</time></trkpt><trkpt lat="46.4698886652508" lon="12.03212393788618"><ele>1507.2</ele><time>2026-04-25T12:40:53Z</time></trkpt><trkpt lat="46.46995970714362" lon="12.032205253506488"><ele>1506.4</ele><time>2026-04-25T12:40:54Z</time></trkpt><trkpt lat="46.47004603552725" lon="12.032232751233098"><ele>1505.6000000000001</ele><time>2026-04-25T12:40:55Z</time></trkpt><trkpt lat="46.47015029809966" lon="12.032202068252877"><ele>1504.8000000000002</ele><time>2026-04-25T12:40:56Z</time></trkpt><trkpt lat="46.47027521719715" lon="12.032178543629863"><ele>1504.0</ele><time>2026-04-25T12:40:57Z</time></trkpt><trkpt lat="46.47039438473727" lon="12.032113813467873"><ele>1509.0</ele><time>2026-04-25T12:40:58Z</time></trkpt><trkpt lat="46.470494245751915" lon="12.032010667186757"><ele>1514.0</ele><time>2026-04-25T12:40:59Z</time></trkpt><trkpt lat="46.47055523417901" lon="12.031846577024979"><ele>1519.0</ele><time>2026-04-25T12:41:00Z</time></trkpt><trkpt lat="46.47058307727085" lon="12.031705251829983"><ele>1524.0</ele><time>2026-04-25T12:41:01Z</time></trkpt><trkpt lat="46.47059414131274" lon="12.031581206942294"><ele>1529.0</ele><time>2026-04-25T12:41:02Z</time></trkpt><trkpt lat="46.47060346754539" lon="12.031485753215337"><ele>1529.0</ele><time>2026-04-25T12:41:03Z</time></trkpt><trkpt lat="46.470622158010066" lon="12.031341900092713"><ele>1529.0</ele><time>2026-04-25T12:41:05.001Z</time></trkpt><trkpt lat="46.4706630982664" lon="12.031246852997398"><ele>1529.0</ele><time>2026-04-25T12:41:07.001Z</time></trkpt><trkpt lat="46.47071490898356" lon="12.031300395377324"><ele>1529.0</ele><time>2026-04-25T12:41:08.001Z</time></trkpt><trkpt lat="46.470727294039214" lon="12.031418436541063"><ele>1529.0</ele><time>2026-04-25T12:41:09.001Z</time></trkpt><trkpt lat="46.47071751142386" lon="12.03153843263747"><ele>1529.0</ele><time>2026-04-25T12:41:10.001Z</time></trkpt><trkpt lat="46.47070977271437" lon="12.031666885707665"><ele>1529.0</ele><time>2026-04-25T12:41:11.001Z</time></trkpt><trkpt lat="46.47070469781691" lon="12.031801390042004"><ele>1529.0</ele><time>2026-04-25T12:41:12.001Z</time></trkpt><trkpt lat="46.47069184510741" lon="12.031938149606404"><ele>1529.0</ele><time>2026-04-25T12:41:13.001Z</time></trkpt><trkpt lat="46.470660562215045" lon="12.032050816518332"><ele>1529.0</ele><time>2026-04-25T12:41:14.001Z</time></trkpt><trkpt lat="46.47062086922872" lon="12.032145272993528"><ele>1529.0</ele><time>2026-04-25T12:41:15.001Z</time></trkpt><trkpt lat="46.470610580799594" lon="12.032246884850876"><ele>1529.0</ele><time>2026-04-25T12:41:16.001Z</time></trkpt><trkpt lat="46.47062956600011" lon="12.032346217155258"><ele>1529.0</ele><time>2026-04-25T12:41:17.001Z</time></trkpt><trkpt lat="46.47068068989322" lon="12.032427259684694"><ele>1529.0</ele><time>2026-04-25T12:41:18.001Z</time></trkpt><trkpt lat="46.470738599136816" lon="12.032492107357012"><ele>1529.0</ele><time>2026-04-25T12:41:19.001Z</time></trkpt><trkpt lat="46.47078684449479" lon="12.03255286955052"><ele>1529.0</ele><time>2026-04-25T12:41:20.001Z</time></trkpt><trkpt lat="46.47088166047718" lon="12.03265550928348"><ele>1529.0</ele><time>2026-04-25T12:41:22Z</time></trkpt><trkpt lat="46.470997520521315" lon="12.032660414192799"><ele>1529.0</ele><time>2026-04-25T12:41:24Z</time></trkpt><trkpt lat="46.471070306423776" lon="12.032618321127307"><ele>1529.0</ele><time>2026-04-25T12:41:25Z</time></trkpt><trkpt lat="46.47106940602752" lon="12.03246792726158"><ele>1529.0</ele><time>2026-04-25T12:41:26Z</time></trkpt><trkpt lat="46.47096362400382" lon="12.032387050465976"><ele>1529.0</ele><time>2026-04-25T12:41:27Z</time></trkpt><trkpt lat="46.470913680159285" lon="12.03229355533869"><ele>1529.0</ele><time>2026-04-25T12:41:28Z</time></trkpt><trkpt lat="46.47088875986945" lon="12.032209293879445"><ele>1529.0</ele><time>2026-04-25T12:41:29Z</time></trkpt><trkpt lat="46.470915467260824" lon="12.03212480300359"><ele>1529.0</ele><time>2026-04-25T12:41:30Z</time></trkpt><trkpt lat="46.47097241012397" lon="12.03202454276074"><ele>1529.0</ele><time>2026-04-25T12:41:31Z</time></trkpt><trkpt lat="46.47101687874554" lon="12.031868421941114"><ele>1529.0</ele><time>2026-04-25T12:41:32Z</time></trkpt><trkpt lat="46.47109068610133" lon="12.03172116539961"><ele>1529.0</ele><time>2026-04-25T12:41:33Z</time></trkpt><trkpt lat="46.47114437292485" lon="12.0315643775132"><ele>1529.0</ele><time>2026-04-25T12:41:34Z</time></trkpt><trkpt lat="46.471188162298525" lon="12.031408897906017"><ele>1532.0</ele><time>2026-04-25T12:41:35Z</time></trkpt><trkpt lat="46.47121682404657" lon="12.031249506208523"><ele>1535.0</ele><time>2026-04-25T12:41:36Z</time></trkpt><trkpt lat="46.4712236025107" lon="12.031075774046846"><ele>1538.0</ele><time>2026-04-25T12:41:37Z</time></trkpt><trkpt lat="46.47119916572207" lon="12.030902819549386"><ele>1541.0</ele><time>2026-04-25T12:41:38Z</time></trkpt><trkpt lat="46.47112928911356" lon="12.030747364094246"><ele>1549.0</ele><time>2026-04-25T12:41:39Z</time></trkpt><trkpt lat="46.47102116360576" lon="12.03060876532971"><ele>1557.0</ele><time>2026-04-25T12:41:40Z</time></trkpt><trkpt lat="46.47091039764153" lon="12.030421313357012"><ele>1565.0</ele><time>2026-04-25T12:41:41Z</time></trkpt><trkpt lat="46.47077741185139" lon="12.030190988898594"><ele>1565.0</ele><time>2026-04-25T12:41:42Z</time></trkpt><trkpt lat="46.470633836531384" lon="12.03007280628088"><ele>1565.0</ele><time>2026-04-25T12:41:43Z</time></trkpt><trkpt lat="46.470528310762596" lon="12.029990287978006"><ele>1565.0</ele><time>2026-04-25T12:41:44Z</time></trkpt><trkpt lat="46.470465454031014" lon="12.02993690166984"><ele>1565.0</ele><time>2026-04-25T12:41:45Z</time></trkpt><trkpt lat="46.470468836243064" lon="12.029806202295738"><ele>1565.0</ele><time>2026-04-25T12:41:47Z</time></trkpt><trkpt lat="46.47060726611807" lon="12.02985187049121"><ele>1565.0</ele><time>2026-04-25T12:41:49Z</time></trkpt><trkpt lat="46.47070799462294" lon="12.029969425426279"><ele>1565.0</ele><time>2026-04-25T12:41:50Z</time></trkpt><trkpt lat="46.4708731531122" lon="12.03005624149581"><ele>1565.0</ele><time>2026-04-25T12:41:51Z</time></trkpt><trkpt lat="46.47108448871142" lon="12.030168054474915"><ele>1565.0</ele><time>2026-04-25T12:41:52Z</time></trkpt><trkpt lat="46.47126582999777" lon="12.030288772851891"><ele>1565.0</ele><time>2026-04-25T12:41:53Z</time></trkpt><trkpt lat="46.47139720793347" lon="12.03040884008301"><ele>1565.0</ele><time>2026-04-25T12:41:54Z</time></trkpt><trkpt lat="46.471486525012985" lon="12.030549194034842"><ele>1570.3333333333333</ele><time>2026-04-25T12:41:55Z</time></trkpt><trkpt lat="46.47154431322101" lon="12.030735376052219"><ele>1575.6666666666665</ele><time>2026-04-25T12:41:56Z</time></trkpt><trkpt lat="46.47157292539318" lon="12.030969997356747"><ele>1581.0</ele><time>2026-04-25T12:41:57Z</time></trkpt><trkpt lat="46.47160055829061" lon="12.03120078583045"><ele>1581.0</ele><time>2026-04-25T12:41:58Z</time></trkpt><trkpt lat="46.47163012552855" lon="12.031369738267175"><ele>1581.0</ele><time>2026-04-25T12:41:59Z</time></trkpt><trkpt lat="46.47164523693967" lon="12.031506882110738"><ele>1581.0</ele><time>2026-04-25T12:42:00Z</time></trkpt><trkpt lat="46.471655501720505" lon="12.03162248465853"><ele>1581.0</ele><time>2026-04-25T12:42:01Z</time></trkpt><trkpt lat="46.47175282311113" lon="12.031729649288717"><ele>1581.0</ele><time>2026-04-25T12:42:03Z</time></trkpt><trkpt lat="46.471833149064466" lon="12.031680529783353"><ele>1581.0</ele><time>2026-04-25T12:42:04Z</time></trkpt><trkpt lat="46.47190465011944" lon="12.031559923570162"><ele>1581.0</ele><time>2026-04-25T12:42:05Z</time></trkpt><trkpt lat="46.472001376549365" lon="12.031405979353567"><ele>1581.0</ele><time>2026-04-25T12:42:06Z</time></trkpt><trkpt lat="46.47212454543035" lon="12.031261337277911"><ele>1581.0</ele><time>2026-04-25T12:42:07Z</time></trkpt><trkpt lat="46.4722823375917" lon="12.031153166525474"><ele>1589.3333333333335</ele><time>2026-04-25T12:42:08Z</time></trkpt><trkpt lat="46.47247482234301" lon="12.031055136857326"><ele>1597.6666666666667</ele><time>2026-04-25T12:42:09Z</time></trkpt><trkpt lat="46.472708809234916" lon="12.031009061091646"><ele>1606.0</ele><time>2026-04-25T12:42:10Z</time></trkpt><trkpt lat="46.47297910299707" lon="12.030963583805356"><ele>1606.5</ele><time>2026-04-25T12:42:11Z</time></trkpt><trkpt lat="46.473270404073496" lon="12.030929252427619"><ele>1607.0</ele><time>2026-04-25T12:42:12Z</time></trkpt><trkpt lat="46.473570144034014" lon="12.03087237747872"><ele>1609.5</ele><time>2026-04-25T12:42:13Z</time></trkpt><trkpt lat="46.47383362018156" lon="12.030821714787788"><ele>1612.0</ele><time>2026-04-25T12:42:14Z</time></trkpt><trkpt lat="46.47404902178418" lon="12.030779721175133"><ele>1619.75</ele><time>2026-04-25T12:42:15Z</time></trkpt><trkpt lat="46.47421744842148" lon="12.03074688557503"><ele>1627.5</ele><time>2026-04-25T12:42:16Z</time></trkpt><trkpt lat="46.47434649959736" lon="12.030700615911385"><ele>1635.25</ele><time>2026-04-25T12:42:17Z</time></trkpt><trkpt lat="46.47446030852196" lon="12.030697276747452"><ele>1643.0</ele><time>2026-04-25T12:42:18Z</time></trkpt><trkpt lat="46.47454616519251" lon="12.030732317967155"><ele>1639.4</ele><time>2026-04-25T12:42:19Z</time></trkpt><trkpt lat="46.47461089811234" lon="12.030826434371512"><ele>1635.8000000000002</ele><time>2026-04-25T12:42:20Z</time></trkpt><trkpt lat="46.47465689675652" lon="12.03096766393784"><ele>1632.2</ele><time>2026-04-25T12:42:21Z</time></trkpt><trkpt lat="46.47469537898825" lon="12.03113194608895"><ele>1628.6</ele><time>2026-04-25T12:42:22Z</time></trkpt><trkpt lat="46.474742209415155" lon="12.031295766912926"><ele>1625.0</ele><time>2026-04-25T12:42:23Z</time></trkpt><trkpt lat="46.474772004482745" lon="12.03144245810798"><ele>1624.9999999999998</ele><time>2026-04-25T12:42:24Z</time></trkpt><trkpt lat="46.4747638232313" lon="12.031596180942277"><ele>1625.0</ele><time>2026-04-25T12:42:25Z</time></trkpt><trkpt lat="46.47472172826763" lon="12.031736600172275"><ele>1625.0</ele><time>2026-04-25T12:42:26Z</time></trkpt><trkpt lat="46.47470068944142" lon="12.031845749357233"><ele>1625.0</ele><time>2026-04-25T12:42:27Z</time></trkpt><trkpt lat="46.47472566606463" lon="12.031933718259138"><ele>1624.9999999999998</ele><time>2026-04-25T12:42:28Z</time></trkpt><trkpt lat="46.47478355830589" lon="12.031993420368574"><ele>1625.0</ele><time>2026-04-25T12:42:29Z</time></trkpt><trkpt lat="46.47486576740741" lon="12.03200162545471"><ele>1625.0</ele><time>2026-04-25T12:42:30Z</time></trkpt><trkpt lat="46.47496122214645" lon="12.031945485981703"><ele>1625.0</ele><time>2026-04-25T12:42:31Z</time></trkpt><trkpt lat="46.47503971660574" lon="12.031783683107925"><ele>1625.0</ele><time>2026-04-25T12:42:32Z</time></trkpt><trkpt lat="46.475129790981555" lon="12.031588984204987"><ele>1625.0</ele><time>2026-04-25T12:42:33Z</time></trkpt><trkpt lat="46.475211938062635" lon="12.031378815227397"><ele>1624.9999999999998</ele><time>2026-04-25T12:42:34Z</time></trkpt><trkpt lat="46.475258619816394" lon="12.031228938609297"><ele>1625.0</ele><time>2026-04-25T12:42:35Z</time></trkpt><trkpt lat="46.47529013708712" lon="12.031120478409283"><ele>1625.0</ele><time>2026-04-25T12:42:36Z</time></trkpt><trkpt lat="46.47534569382142" lon="12.031037346472933"><ele>1625.0</ele><time>2026-04-25T12:42:38Z</time></trkpt><trkpt lat="46.47539788671363" lon="12.031095525277715"><ele>1624.9999999999998</ele><time>2026-04-25T12:42:39Z</time></trkpt><trkpt lat="46.47541223982403" lon="12.031222538458882"><ele>1625.0</ele><time>2026-04-25T12:42:40Z</time></trkpt><trkpt lat="46.475376008086265" lon="12.031376221438537"><ele>1625.0</ele><time>2026-04-25T12:42:41Z</time></trkpt><trkpt lat="46.475331499727865" lon="12.031562730713569"><ele>1625.0</ele><time>2026-04-25T12:42:42Z</time></trkpt><trkpt lat="46.475295051766714" lon="12.031777531100113"><ele>1625.0</ele><time>2026-04-25T12:42:43Z</time></trkpt><trkpt lat="46.475264074523416" lon="12.032039995198907"><ele>1626.6666666666665</ele><time>2026-04-25T12:42:44Z</time></trkpt><trkpt lat="46.47523515713912" lon="12.03232234338234"><ele>1628.3333333333335</ele><time>2026-04-25T12:42:45Z</time></trkpt><trkpt lat="46.475209039154" lon="12.032563886594973"><ele>1630.0</ele><time>2026-04-25T12:42:46Z</time></trkpt><trkpt lat="46.47518875229593" lon="12.032759933801795"><ele>1633.2</ele><time>2026-04-25T12:42:47Z</time></trkpt><trkpt lat="46.475153555759825" lon="12.03291800035031"><ele>1636.4</ele><time>2026-04-25T12:42:48Z</time></trkpt><trkpt lat="46.47511516172226" lon="12.033001405595268"><ele>1639.6</ele><time>2026-04-25T12:42:49Z</time></trkpt><trkpt lat="46.475019279765" lon="12.033035502128314"><ele>1642.8</ele><time>2026-04-25T12:42:50Z</time></trkpt><trkpt lat="46.47491609308284" lon="12.03304730668608"><ele>1646.0</ele><time>2026-04-25T12:42:51Z</time></trkpt><trkpt lat="46.47480548190934" lon="12.03304026919587"><ele>1646.0</ele><time>2026-04-25T12:42:52Z</time></trkpt><trkpt lat="46.474707640972966" lon="12.033051560248033"><ele>1646.0</ele><time>2026-04-25T12:42:53Z</time></trkpt><trkpt lat="46.474640751263316" lon="12.033126065921028"><ele>1646.0</ele><time>2026-04-25T12:42:54Z</time></trkpt><trkpt lat="46.47459199354419" lon="12.033246636510139"><ele>1646.0</ele><time>2026-04-25T12:42:55Z</time></trkpt><trkpt lat="46.47457978665768" lon="12.033423538131704"><ele>1646.0</ele><time>2026-04-25T12:42:56Z</time></trkpt><trkpt lat="46.47456591407681" lon="12.033627567299076"><ele>1645.0</ele><time>2026-04-25T12:42:57Z</time></trkpt><trkpt lat="46.47455374499234" lon="12.033805029616214"><ele>1644.0</ele><time>2026-04-25T12:42:58Z</time></trkpt><trkpt lat="46.47456424293078" lon="12.033953563123163"><ele>1643.0</ele><time>2026-04-25T12:42:59Z</time></trkpt><trkpt lat="46.47462665626229" lon="12.03409435241627"><ele>1642.0</ele><time>2026-04-25T12:43:00Z</time></trkpt><trkpt lat="46.47472904107485" lon="12.0342263997372"><ele>1650.5</ele><time>2026-04-25T12:43:01Z</time></trkpt><trkpt lat="46.47486094198482" lon="12.034345551677392"><ele>1659.0</ele><time>2026-04-25T12:43:02Z</time></trkpt><trkpt lat="46.47498998260416" lon="12.034446794353496"><ele>1667.5</ele><time>2026-04-25T12:43:03Z</time></trkpt><trkpt lat="46.475091345267586" lon="12.034559302439655"><ele>1676.0</ele><time>2026-04-25T12:43:04Z</time></trkpt><trkpt lat="46.47516615158611" lon="12.034725376399583"><ele>1676.0</ele><time>2026-04-25T12:43:05Z</time></trkpt><trkpt lat="46.47520897044036" lon="12.034914369838805"><ele>1676.0</ele><time>2026-04-25T12:43:06Z</time></trkpt><trkpt lat="46.4752207018557" lon="12.035125477945913"><ele>1676.0</ele><time>2026-04-25T12:43:07Z</time></trkpt><trkpt lat="46.47522554756607" lon="12.035353737445735"><ele>1676.0</ele><time>2026-04-25T12:43:08Z</time></trkpt><trkpt lat="46.47520570349317" lon="12.03555942458645"><ele>1674.75</ele><time>2026-04-25T12:43:09Z</time></trkpt><trkpt lat="46.47513675470328" lon="12.035736373076015"><ele>1673.5</ele><time>2026-04-25T12:43:09.999Z</time></trkpt><trkpt lat="46.47507145501879" lon="12.03591846800439"><ele>1672.25</ele><time>2026-04-25T12:43:11.001Z</time></trkpt><trkpt lat="46.475039414303005" lon="12.036101544406776"><ele>1671.0</ele><time>2026-04-25T12:43:12.001Z</time></trkpt><trkpt lat="46.475035371391826" lon="12.036277549096962"><ele>1673.5</ele><time>2026-04-25T12:43:13.001Z</time></trkpt><trkpt lat="46.4750691118173" lon="12.036453800190921"><ele>1676.0</ele><time>2026-04-25T12:43:14.001Z</time></trkpt><trkpt lat="46.47514395472705" lon="12.036638141912713"><ele>1678.5</ele><time>2026-04-25T12:43:15.001Z</time></trkpt><trkpt lat="46.475192090795154" lon="12.036857330371383"><ele>1681.0</ele><time>2026-04-25T12:43:16.001Z</time></trkpt><trkpt lat="46.47520149802001" lon="12.037111776391628"><ele>1681.0</ele><time>2026-04-25T12:43:17.001Z</time></trkpt><trkpt lat="46.47520179521208" lon="12.037390185489816"><ele>1681.0</ele><time>2026-04-25T12:43:18.001Z</time></trkpt><trkpt lat="46.47521307854223" lon="12.037680670464855"><ele>1681.0</ele><time>2026-04-25T12:43:19.001Z</time></trkpt><trkpt lat="46.475212864118774" lon="12.037974268987192"><ele>1681.0</ele><time>2026-04-25T12:43:20.001Z</time></trkpt><trkpt lat="46.47520498454703" lon="12.038242659129658"><ele>1681.0</ele><time>2026-04-25T12:43:21.001Z</time></trkpt><trkpt lat="46.47519413450125" lon="12.038472673119342"><ele>1681.0</ele><time>2026-04-25T12:43:22.001Z</time></trkpt><trkpt lat="46.47518339812619" lon="12.038680790651712"><ele>1681.8</ele><time>2026-04-25T12:43:23.001Z</time></trkpt><trkpt lat="46.47515965162187" lon="12.038858377396819"><ele>1682.6</ele><time>2026-04-25T12:43:24.001Z</time></trkpt><trkpt lat="46.47513306344531" lon="12.039012858708384"><ele>1683.4</ele><time>2026-04-25T12:43:25.001Z</time></trkpt><trkpt lat="46.47512278702926" lon="12.039136616331811"><ele>1684.2</ele><time>2026-04-25T12:43:26.001Z</time></trkpt><trkpt lat="46.47513963438004" lon="12.0392532258755"><ele>1685.0</ele><time>2026-04-25T12:43:27Z</time></trkpt><trkpt lat="46.47519179407701" lon="12.039340714052639"><ele>1685.0</ele><time>2026-04-25T12:43:28Z</time></trkpt><trkpt lat="46.475271093616676" lon="12.039356062598435"><ele>1685.0</ele><time>2026-04-25T12:43:29Z</time></trkpt><trkpt lat="46.47534366888072" lon="12.039283136354234"><ele>1685.0</ele><time>2026-04-25T12:43:30Z</time></trkpt><trkpt lat="46.47538258026414" lon="12.039154304736261"><ele>1685.0</ele><time>2026-04-25T12:43:31Z</time></trkpt><trkpt lat="46.47541779709655" lon="12.038982279309995"><ele>1685.0</ele><time>2026-04-25T12:43:32Z</time></trkpt><trkpt lat="46.475457917734744" lon="12.038754126428545"><ele>1700.6666666666665</ele><time>2026-04-25T12:43:33Z</time></trkpt><trkpt lat="46.47550587432257" lon="12.038478661973814"><ele>1716.3333333333335</ele><time>2026-04-25T12:43:34Z</time></trkpt><trkpt lat="46.47555557210746" lon="12.038154577701093"><ele>1732.0</ele><time>2026-04-25T12:43:35Z</time></trkpt><trkpt lat="46.47562719259372" lon="12.037812396345588"><ele>1732.0</ele><time>2026-04-25T12:43:36Z</time></trkpt><trkpt lat="46.475690716954304" lon="12.037482309914054"><ele>1732.0</ele><time>2026-04-25T12:43:37Z</time></trkpt><trkpt lat="46.47573105632566" lon="12.037173891521629"><ele>1732.0</ele><time>2026-04-25T12:43:38Z</time></trkpt><trkpt lat="46.475770472399795" lon="12.036897150593608"><ele>1732.0</ele><time>2026-04-25T12:43:39Z</time></trkpt><trkpt lat="46.47579521189069" lon="12.036633658804877"><ele>1732.0</ele><time>2026-04-25T12:43:40Z</time></trkpt><trkpt lat="46.47581855908565" lon="12.036405183205845"><ele>1731.3333333333335</ele><time>2026-04-25T12:43:41Z</time></trkpt><trkpt lat="46.475847327043226" lon="12.036210937321641"><ele>1730.6666666666665</ele><time>2026-04-25T12:43:42Z</time></trkpt><trkpt lat="46.47591066980328" lon="12.036010901951101"><ele>1730.0</ele><time>2026-04-25T12:43:43Z</time></trkpt><trkpt lat="46.47599573581937" lon="12.035776550012704"><ele>1727.0</ele><time>2026-04-25T12:43:44Z</time></trkpt><trkpt lat="46.47606666196278" lon="12.035502084238102"><ele>1724.0</ele><time>2026-04-25T12:43:45Z</time></trkpt><trkpt lat="46.476125380640944" lon="12.035233958424964"><ele>1721.0</ele><time>2026-04-25T12:43:46Z</time></trkpt><trkpt lat="46.476216745797686" lon="12.035026856444018"><ele>1720.3333333333333</ele><time>2026-04-25T12:43:47Z</time></trkpt><trkpt lat="46.4762682815972" lon="12.034785868585534"><ele>1719.6666666666665</ele><time>2026-04-25T12:43:48Z</time></trkpt><trkpt lat="46.47625038171615" lon="12.034530152875526"><ele>1719.0</ele><time>2026-04-25T12:43:49Z</time></trkpt><trkpt lat="46.476260530801255" lon="12.034322293296901"><ele>1732.0</ele><time>2026-04-25T12:43:50Z</time></trkpt><trkpt lat="46.47630974693846" lon="12.034122255305302"><ele>1745.0</ele><time>2026-04-25T12:43:51Z</time></trkpt><trkpt lat="46.47636205433365" lon="12.033888728974416"><ele>1758.0</ele><time>2026-04-25T12:43:52Z</time></trkpt><trkpt lat="46.476369770304224" lon="12.033661939767908"><ele>1758.0</ele><time>2026-04-25T12:43:53Z</time></trkpt><trkpt lat="46.47638531132948" lon="12.03348783091446"><ele>1758.0</ele><time>2026-04-25T12:43:54Z</time></trkpt><trkpt lat="46.47642455942131" lon="12.033344968852136"><ele>1758.0</ele><time>2026-04-25T12:43:55Z</time></trkpt><trkpt lat="46.476483017120216" lon="12.03321914392367"><ele>1758.0</ele><time>2026-04-25T12:43:56Z</time></trkpt><trkpt lat="46.476590294637525" lon="12.033137518570767"><ele>1760.75</ele><time>2026-04-25T12:43:57Z</time></trkpt><trkpt lat="46.47671847908919" lon="12.033086472896878"><ele>1763.5</ele><time>2026-04-25T12:43:58Z</time></trkpt><trkpt lat="46.476856956124315" lon="12.033050498587633"><ele>1766.25</ele><time>2026-04-25T12:43:59Z</time></trkpt><trkpt lat="46.47699148075854" lon="12.03297804468286"><ele>1769.0</ele><time>2026-04-25T12:44:00Z</time></trkpt><trkpt lat="46.47711151082744" lon="12.032864230845217"><ele>1769.0</ele><time>2026-04-25T12:44:01Z</time></trkpt><trkpt lat="46.47721821334772" lon="12.032698270418162"><ele>1769.0</ele><time>2026-04-25T12:44:02Z</time></trkpt><trkpt lat="46.47728301283916" lon="12.032531191405761"><ele>1769.0</ele><time>2026-04-25T12:44:03Z</time></trkpt><trkpt lat="46.47733507938961" lon="12.03239857815781"><ele>1769.0</ele><time>2026-04-25T12:44:04Z</time></trkpt><trkpt lat="46.47738408032884" lon="12.0322755983264"><ele>1765.2</ele><time>2026-04-25T12:44:05Z</time></trkpt><trkpt lat="46.477476805715185" lon="12.032200353542633"><ele>1761.4</ele><time>2026-04-25T12:44:06Z</time></trkpt><trkpt lat="46.47756847931718" lon="12.03212097081502"><ele>1757.6</ele><time>2026-04-25T12:44:07Z</time></trkpt><trkpt lat="46.477642714547855" lon="12.032028410835778"><ele>1753.8</ele><time>2026-04-25T12:44:08Z</time></trkpt><trkpt lat="46.47771911924843" lon="12.03194011555352"><ele>1750.0</ele><time>2026-04-25T12:44:09Z</time></trkpt><trkpt lat="46.47777464363509" lon="12.031828146448955"><ele>1750.0000000000002</ele><time>2026-04-25T12:44:10Z</time></trkpt><trkpt lat="46.47782155475853" lon="12.031718144511244"><ele>1750.0</ele><time>2026-04-25T12:44:11Z</time></trkpt><trkpt lat="46.477864643627285" lon="12.031616244090339"><ele>1750.0</ele><time>2026-04-25T12:44:12Z</time></trkpt><trkpt lat="46.47791101822489" lon="12.031530617450999"><ele>1750.0</ele><time>2026-04-25T12:44:13Z</time></trkpt><trkpt lat="46.47795690320456" lon="12.031436834418686"><ele>1750.0000000000002</ele><time>2026-04-25T12:44:14Z</time></trkpt><trkpt lat="46.47803670613994" lon="12.03137296017036"><ele>1750.0</ele><time>2026-04-25T12:44:15Z</time></trkpt><trkpt lat="46.478114054596716" lon="12.031291538012024"><ele>1750.0</ele><time>2026-04-25T12:44:16Z</time></trkpt><trkpt lat="46.47818882039113" lon="12.03122134320131"><ele>1750.0</ele><time>2026-04-25T12:44:17Z</time></trkpt><trkpt lat="46.47826228557415" lon="12.031171571884707"><ele>1750.0</ele><time>2026-04-25T12:44:18Z</time></trkpt><trkpt lat="46.47834486029437" lon="12.031204830513381"><ele>1750.0</ele><time>2026-04-25T12:44:19Z</time></trkpt><trkpt lat="46.47841241998484" lon="12.031311360131301"><ele>1750.0</ele><time>2026-04-25T12:44:20Z</time></trkpt><trkpt lat="46.47846687327595" lon="12.03146099311239"><ele>1750.0</ele><time>2026-04-25T12:44:21Z</time></trkpt><trkpt lat="46.47853258638865" lon="12.0315850047388"><ele>1750.0</ele><time>2026-04-25T12:44:22Z</time></trkpt><trkpt lat="46.478618263209476" lon="12.031679284134418"><ele>1750.0</ele><time>2026-04-25T12:44:23Z</time></trkpt><trkpt lat="46.478706979188324" lon="12.03176617365567"><ele>1750.0</ele><time>2026-04-25T12:44:24Z</time></trkpt><trkpt lat="46.478777559340735" lon="12.031820320776283"><ele>1750.0</ele><time>2026-04-25T12:44:25Z</time></trkpt><trkpt lat="46.47884255927303" lon="12.031866823877179"><ele>1753.3333333333335</ele><time>2026-04-25T12:44:26Z</time></trkpt><trkpt lat="46.47889253276384" lon="12.031936159855734"><ele>1756.6666666666667</ele><time>2026-04-25T12:44:27Z</time></trkpt><trkpt lat="46.478899009570235" lon="12.032030978740808"><ele>1760.0</ele><time>2026-04-25T12:44:28Z</time></trkpt><trkpt lat="46.47885939925245" lon="12.032104736538619"><ele>1763.3333333333335</ele><time>2026-04-25T12:44:29Z</time></trkpt><trkpt lat="46.47878004982981" lon="12.032112490009997"><ele>1766.6666666666667</ele><time>2026-04-25T12:44:30Z</time></trkpt><trkpt lat="46.47867840124407" lon="12.032004292365686"><ele>1770.0</ele><time>2026-04-25T12:44:31Z</time></trkpt><trkpt lat="46.47855758318252" lon="12.031938060590829"><ele>1770.0</ele><time>2026-04-25T12:44:32Z</time></trkpt><trkpt lat="46.47844471014683" lon="12.03186588848325"><ele>1770.0</ele><time>2026-04-25T12:44:33Z</time></trkpt><trkpt lat="46.47836115256998" lon="12.031815353187888"><ele>1770.0</ele><time>2026-04-25T12:44:34Z</time></trkpt><trkpt lat="46.47827948788318" lon="12.031796820810385"><ele>1770.0</ele><time>2026-04-25T12:44:35Z</time></trkpt><trkpt lat="46.47819973559319" lon="12.03184053147022"><ele>1770.0</ele><time>2026-04-25T12:44:36Z</time></trkpt><trkpt lat="46.47815579544718" lon="12.031943581174993"><ele>1770.0</ele><time>2026-04-25T12:44:37Z</time></trkpt><trkpt lat="46.478168270689224" lon="12.032067445603191"><ele>1770.0</ele><time>2026-04-25T12:44:38Z</time></trkpt><trkpt lat="46.478236649881836" lon="12.032161484476134"><ele>1770.0</ele><time>2026-04-25T12:44:39Z</time></trkpt><trkpt lat="46.47834964053388" lon="12.03220835565071"><ele>1770.0</ele><time>2026-04-25T12:44:40Z</time></trkpt><trkpt lat="46.47848588360147" lon="12.032265449663265"><ele>1770.0</ele><time>2026-04-25T12:44:41Z</time></trkpt><trkpt lat="46.47861897413062" lon="12.032356917288306"><ele>1770.0</ele><time>2026-04-25T12:44:42Z</time></trkpt><trkpt lat="46.478742246362415" lon="12.032450019941813"><ele>1770.0</ele><time>2026-04-25T12:44:43Z</time></trkpt><trkpt lat="46.47886213695877" lon="12.032514851637755"><ele>1770.0</ele><time>2026-04-25T12:44:44Z</time></trkpt><trkpt lat="46.47899592604988" lon="12.032549011112918"><ele>1770.0</ele><time>2026-04-25T12:44:45Z</time></trkpt><trkpt lat="46.479111098939384" lon="12.032614321060366"><ele>1775.6</ele><time>2026-04-25T12:44:46Z</time></trkpt><trkpt lat="46.47921226143144" lon="12.032720189443564"><ele>1781.2</ele><time>2026-04-25T12:44:47Z</time></trkpt><trkpt lat="46.4793002428305" lon="12.03281378522264"><ele>1786.8000000000002</ele><time>2026-04-25T12:44:48Z</time></trkpt><trkpt lat="46.47938759143093" lon="12.032885061492305"><ele>1792.4</ele><time>2026-04-25T12:44:49Z</time></trkpt><trkpt lat="46.47948357475611" lon="12.03293159851926"><ele>1798.0</ele><time>2026-04-25T12:44:50Z</time></trkpt><trkpt lat="46.47958617688485" lon="12.03292809524896"><ele>1800.2</ele><time>2026-04-25T12:44:51Z</time></trkpt><trkpt lat="46.479685398309265" lon="12.032882234737372"><ele>1802.4</ele><time>2026-04-25T12:44:52Z</time></trkpt><trkpt lat="46.47977814515545" lon="12.032792745676666"><ele>1804.6000000000001</ele><time>2026-04-25T12:44:53Z</time></trkpt><trkpt lat="46.4798652865809" lon="12.032718333115623"><ele>1806.8000000000002</ele><time>2026-04-25T12:44:54Z</time></trkpt><trkpt lat="46.47995696655763" lon="12.03270438681021"><ele>1809.0</ele><time>2026-04-25T12:44:55Z</time></trkpt><trkpt lat="46.48006013869981" lon="12.032731839538554"><ele>1809.0</ele><time>2026-04-25T12:44:56Z</time></trkpt><trkpt lat="46.480178693333485" lon="12.032744010090994"><ele>1809.0</ele><time>2026-04-25T12:44:57Z</time></trkpt><trkpt lat="46.480290023727484" lon="12.032697167077366"><ele>1809.0</ele><time>2026-04-25T12:44:58Z</time></trkpt><trkpt lat="46.48038152807983" lon="12.032591087290347"><ele>1809.0</ele><time>2026-04-25T12:44:59Z</time></trkpt><trkpt lat="46.48043280108237" lon="12.032514274629678"><ele>1809.0</ele><time>2026-04-25T12:45:00Z</time></trkpt><trkpt lat="46.48051675012622" lon="12.03250829857215"><ele>1809.0</ele><time>2026-04-25T12:45:02Z</time></trkpt><trkpt lat="46.48047149444172" lon="12.032730527771518"><ele>1809.0</ele><time>2026-04-25T12:45:04Z</time></trkpt><trkpt lat="46.48038353953472" lon="12.032876923519458"><ele>1809.0</ele><time>2026-04-25T12:45:05Z</time></trkpt><trkpt lat="46.48032122635969" lon="12.032991266368455"><ele>1809.0</ele><time>2026-04-25T12:45:06Z</time></trkpt><trkpt lat="46.480259210443855" lon="12.033097072103775"><ele>1809.0</ele><time>2026-04-25T12:45:07Z</time></trkpt><trkpt lat="46.480183383459405" lon="12.033181120081931"><ele>1809.0</ele><time>2026-04-25T12:45:08Z</time></trkpt><trkpt lat="46.48009103166813" lon="12.033212551355184"><ele>1809.0</ele><time>2026-04-25T12:45:09Z</time></trkpt><trkpt lat="46.480003641086526" lon="12.033230685350867"><ele>1809.0</ele><time>2026-04-25T12:45:10Z</time></trkpt><trkpt lat="46.479951540680425" lon="12.033282792938197"><ele>1809.0</ele><time>2026-04-25T12:45:11Z</time></trkpt><trkpt lat="46.47993586253555" lon="12.033452304624127"><ele>1813.2</ele><time>2026-04-25T12:45:13Z</time></trkpt><trkpt lat="46.48000313791176" lon="12.033513838032409"><ele>1817.4</ele><time>2026-04-25T12:45:13.999Z</time></trkpt><trkpt lat="46.48009983267188" lon="12.033524945007962"><ele>1821.6</ele><time>2026-04-25T12:45:14.999Z</time></trkpt><trkpt lat="46.48022046153286" lon="12.03348204080915"><ele>1825.8</ele><time>2026-04-25T12:45:15.999Z</time></trkpt><trkpt lat="46.48036067865439" lon="12.033426499218272"><ele>1830.0</ele><time>2026-04-25T12:45:17Z</time></trkpt><trkpt lat="46.48050885524894" lon="12.033391210727487"><ele>1831.8</ele><time>2026-04-25T12:45:18Z</time></trkpt><trkpt lat="46.48064537405727" lon="12.033351332273977"><ele>1833.6</ele><time>2026-04-25T12:45:19Z</time></trkpt><trkpt lat="46.48076038133796" lon="12.033319612597936"><ele>1835.4</ele><time>2026-04-25T12:45:20Z</time></trkpt><trkpt lat="46.4808579170496" lon="12.0332912171407"><ele>1837.2</ele><time>2026-04-25T12:45:21Z</time></trkpt><trkpt lat="46.480949417706654" lon="12.033264176501605"><ele>1839.0</ele><time>2026-04-25T12:45:22Z</time></trkpt><trkpt lat="46.48101640441016" lon="12.033253802914517"><ele>1839.0</ele><time>2026-04-25T12:45:23Z</time></trkpt><trkpt lat="46.48108378579181" lon="12.033271658675057"><ele>1839.0</ele><time>2026-04-25T12:45:24Z</time></trkpt><trkpt lat="46.481136707907474" lon="12.033333130009948"><ele>1839.0</ele><time>2026-04-25T12:45:25Z</time></trkpt><trkpt lat="46.481151556178034" lon="12.033433609670412"><ele>1839.0</ele><time>2026-04-25T12:45:26Z</time></trkpt><trkpt lat="46.48109083836603" lon="12.033540998686803"><ele>1839.0</ele><time>2026-04-25T12:45:27Z</time></trkpt><trkpt lat="46.480994644251744" lon="12.033597387342473"><ele>1839.0</ele><time>2026-04-25T12:45:28Z</time></trkpt><trkpt lat="46.48086528831804" lon="12.033648324184346"><ele>1839.0</ele><time>2026-04-25T12:45:29Z</time></trkpt><trkpt lat="46.48072756372861" lon="12.033679748453809"><ele>1839.0</ele><time>2026-04-25T12:45:30Z</time></trkpt><trkpt lat="46.480624279273314" lon="12.033686935900597"><ele>1839.0</ele><time>2026-04-25T12:45:31Z</time></trkpt><trkpt lat="46.48054351116544" lon="12.033709042964379"><ele>1839.0</ele><time>2026-04-25T12:45:32Z</time></trkpt><trkpt lat="46.48048706813888" lon="12.033764045462407"><ele>1839.0</ele><time>2026-04-25T12:45:33Z</time></trkpt><trkpt lat="46.480459677859066" lon="12.033858605646273"><ele>1839.0</ele><time>2026-04-25T12:45:34Z</time></trkpt><trkpt lat="46.48048003115866" lon="12.033956413462654"><ele>1839.0</ele><time>2026-04-25T12:45:35Z</time></trkpt><trkpt lat="46.480548846380906" lon="12.034017337460192"><ele>1839.0</ele><time>2026-04-25T12:45:36Z</time></trkpt><trkpt lat="46.480653428428134" lon="12.034030316006605"><ele>1839.0</ele><time>2026-04-25T12:45:37Z</time></trkpt><trkpt lat="46.480787170572675" lon="12.034024911637104"><ele>1839.0</ele><time>2026-04-25T12:45:38Z</time></trkpt><trkpt lat="46.48093943633467" lon="12.034026302176398"><ele>1839.0</ele><time>2026-04-25T12:45:39Z</time></trkpt><trkpt lat="46.48109256605169" lon="12.034044774854317"><ele>1839.0</ele><time>2026-04-25T12:45:40Z</time></trkpt><trkpt lat="46.48123726190142" lon="12.034075696627145"><ele>1839.0</ele><time>2026-04-25T12:45:41Z</time></trkpt><trkpt lat="46.48137098537969" lon="12.03411759915098"><ele>1839.0</ele><time>2026-04-25T12:45:42Z</time></trkpt><trkpt lat="46.481505464427855" lon="12.034145312996799"><ele>1845.0</ele><time>2026-04-25T12:45:43Z</time></trkpt><trkpt lat="46.481640038082" lon="12.034173872145434"><ele>1851.0</ele><time>2026-04-25T12:45:44Z</time></trkpt><trkpt lat="46.48177065038275" lon="12.034209957550702"><ele>1857.0</ele><time>2026-04-25T12:45:45Z</time></trkpt><trkpt lat="46.481900938385564" lon="12.034240371316853"><ele>1863.0</ele><time>2026-04-25T12:45:46Z</time></trkpt><trkpt lat="46.48202519183446" lon="12.034274045279803"><ele>1863.75</ele><time>2026-04-25T12:45:47Z</time></trkpt><trkpt lat="46.482149581890944" lon="12.034321318194475"><ele>1864.5</ele><time>2026-04-25T12:45:48Z</time></trkpt><trkpt lat="46.48227016462042" lon="12.034352374426183"><ele>1865.25</ele><time>2026-04-25T12:45:49Z</time></trkpt><trkpt lat="46.48238159039572" lon="12.034414687941302"><ele>1866.0</ele><time>2026-04-25T12:45:50Z</time></trkpt><trkpt lat="46.48249390445994" lon="12.034448140099098"><ele>1866.0</ele><time>2026-04-25T12:45:51Z</time></trkpt><trkpt lat="46.48260470995013" lon="12.034493425350245"><ele>1866.0</ele><time>2026-04-25T12:45:52Z</time></trkpt><trkpt lat="46.482716195132845" lon="12.034535957592938"><ele>1866.0</ele><time>2026-04-25T12:45:53Z</time></trkpt><trkpt lat="46.482825906373066" lon="12.034574423077641"><ele>1866.0</ele><time>2026-04-25T12:45:54.042Z</time></trkpt><trkpt lat="46.48293024208931" lon="12.034606728803974"><ele>1868.5</ele><time>2026-04-25T12:45:55.043Z</time></trkpt><trkpt lat="46.48327170667998" lon="12.034713291933647"><ele>1871.0</ele><time>2026-04-25T12:45:57Z</time></trkpt><trkpt lat="46.48339539593542" lon="12.034597318106824"><ele>1870.9999999999998</ele><time>2026-04-25T12:45:59Z</time></trkpt><trkpt lat="46.48346537181059" lon="12.03460112676663"><ele>1871.0</ele><time>2026-04-25T12:46:00Z</time></trkpt><trkpt lat="46.48354263067464" lon="12.034586998423196"><ele>1871.0</ele><time>2026-04-25T12:46:01Z</time></trkpt><trkpt lat="46.48365154885462" lon="12.034583943715445"><ele>1871.0</ele><time>2026-04-25T12:46:03Z</time></trkpt><trkpt lat="46.48369337409493" lon="12.034714031077261"><ele>1870.9999999999998</ele><time>2026-04-25T12:46:05Z</time></trkpt><trkpt lat="46.48364287448808" lon="12.034792936089076"><ele>1871.0</ele><time>2026-04-25T12:46:06Z</time></trkpt><trkpt lat="46.48354619348044" lon="12.03478285867775"><ele>1871.0</ele><time>2026-04-25T12:46:07Z</time></trkpt><trkpt lat="46.48345602571247" lon="12.034834408127475"><ele>1871.0</ele><time>2026-04-25T12:46:08Z</time></trkpt><trkpt lat="46.483345463791544" lon="12.034873719192428"><ele>1871.0</ele><time>2026-04-25T12:46:09Z</time></trkpt><trkpt lat="46.48322787422941" lon="12.034894165125692"><ele>1871.0</ele><time>2026-04-25T12:46:10Z</time></trkpt><trkpt lat="46.48312357785602" lon="12.034953092829133"><ele>1871.0</ele><time>2026-04-25T12:46:11Z</time></trkpt><trkpt lat="46.48302063796246" lon="12.034976542568097"><ele>1874.9999999999998</ele><time>2026-04-25T12:46:12Z</time></trkpt><trkpt lat="46.4829254690675" lon="12.035003482986566"><ele>1879.0</ele><time>2026-04-25T12:46:13Z</time></trkpt><trkpt lat="46.48285850911916" lon="12.03502998035639"><ele>1883.0</ele><time>2026-04-25T12:46:14Z</time></trkpt><trkpt lat="46.482773679454844" lon="12.035036002839123"><ele>1887.0</ele><time>2026-04-25T12:46:16Z</time></trkpt><trkpt lat="46.482707462191016" lon="12.035050499998926"><ele>1890.9999999999998</ele><time>2026-04-25T12:46:19Z</time></trkpt><trkpt lat="46.482583497612126" lon="12.035093972393966"><ele>1895.0</ele><time>2026-04-25T12:47:13Z</time></trkpt><trkpt lat="46.48248323046378" lon="12.035120959629346"><ele>1895.0</ele><time>2026-04-25T12:47:13.999Z</time></trkpt><trkpt lat="46.48236938551045" lon="12.03514824203603"><ele>1895.0</ele><time>2026-04-25T12:47:14.999Z</time></trkpt><trkpt lat="46.48226428336705" lon="12.035176956184062"><ele>1895.0</ele><time>2026-04-25T12:47:15.999Z</time></trkpt><trkpt lat="46.482184546441914" lon="12.035195816842869"><ele>1895.0</ele><time>2026-04-25T12:47:16.999Z</time></trkpt><trkpt lat="46.48212017281952" lon="12.035200776511495"><ele>1895.0</ele><time>2026-04-25T12:47:17.999Z</time></trkpt><trkpt lat="46.48202515114576" lon="12.035208616067576"><ele>1894.1666666666665</ele><time>2026-04-25T12:47:19.999Z</time></trkpt><trkpt lat="46.48193903066068" lon="12.035211967886434"><ele>1893.3333333333333</ele><time>2026-04-25T12:47:21.999Z</time></trkpt><trkpt lat="46.48184398093165" lon="12.035214610107063"><ele>1892.5</ele><time>2026-04-25T12:47:24Z</time></trkpt><trkpt lat="46.48176756775935" lon="12.035243594485003"><ele>1891.6666666666665</ele><time>2026-04-25T12:47:26Z</time></trkpt><trkpt lat="46.48169179218553" lon="12.035260151626161"><ele>1890.8333333333333</ele><time>2026-04-25T12:48:04Z</time></trkpt><trkpt lat="46.4816964018368" lon="12.035383779324935"><ele>1890.0</ele><time>2026-04-25T12:48:08Z</time></trkpt><trkpt lat="46.481739496608974" lon="12.03545870371838"><ele>1890.0</ele><time>2026-04-25T12:48:11Z</time></trkpt><trkpt lat="46.48178254303726" lon="12.035535263489777"><ele>1890.0</ele><time>2026-04-25T12:48:13Z</time></trkpt><trkpt lat="46.48198941036651" lon="12.035536962387027"><ele>1890.0</ele><time>2026-04-25T12:48:14Z</time></trkpt><trkpt lat="46.482101110372554" lon="12.035538486907399"><ele>1890.0</ele><time>2026-04-25T12:48:15Z</time></trkpt><trkpt lat="46.48220389349749" lon="12.035539213258346"><ele>1891.0</ele><time>2026-04-25T12:48:16Z</time></trkpt><trkpt lat="46.48231047670884" lon="12.035545450745778"><ele>1892.0</ele><time>2026-04-25T12:48:17Z</time></trkpt><trkpt lat="46.48241129891903" lon="12.035553997142735"><ele>1893.0</ele><time>2026-04-25T12:48:18Z</time></trkpt><trkpt lat="46.48251423638352" lon="12.035559872134302"><ele>1894.0</ele><time>2026-04-25T12:48:19Z</time></trkpt><trkpt lat="46.48262123496552" lon="12.035564017908191"><ele>1895.0</ele><time>2026-04-25T12:48:20Z</time></trkpt><trkpt lat="46.482730299347544" lon="12.035575482410595"><ele>1895.0</ele><time>2026-04-25T12:48:21Z</time></trkpt><trkpt lat="46.482843205901474" lon="12.035584123691669"><ele>1895.0</ele><time>2026-04-25T12:48:22Z</time></trkpt><trkpt lat="46.48296166655202" lon="12.03558742103004"><ele>1895.0</ele><time>2026-04-25T12:48:23Z</time></trkpt><trkpt lat="46.48308103376984" lon="12.035594811531498"><ele>1895.0</ele><time>2026-04-25T12:48:24Z</time></trkpt><trkpt lat="46.48319744032339" lon="12.035605633723458"><ele>1896.5</ele><time>2026-04-25T12:48:25Z</time></trkpt><trkpt lat="46.483315056889055" lon="12.035625855455724"><ele>1898.0</ele><time>2026-04-25T12:48:26Z</time></trkpt><trkpt lat="46.48343603705118" lon="12.035646865919928"><ele>1899.5</ele><time>2026-04-25T12:48:27Z</time></trkpt><trkpt lat="46.48355933895109" lon="12.03566029352817"><ele>1901.0</ele><time>2026-04-25T12:48:28Z</time></trkpt><trkpt lat="46.48368116563397" lon="12.035666840129858"><ele>1903.5</ele><time>2026-04-25T12:48:29Z</time></trkpt><trkpt lat="46.483799528249904" lon="12.03566889275531"><ele>1906.0</ele><time>2026-04-25T12:48:30Z</time></trkpt><trkpt lat="46.48391802594789" lon="12.035659380974526"><ele>1908.5</ele><time>2026-04-25T12:48:31Z</time></trkpt><trkpt lat="46.48404244680887" lon="12.035630716521496"><ele>1911.0</ele><time>2026-04-25T12:48:32Z</time></trkpt><trkpt lat="46.48417433176696" lon="12.035615171136529"><ele>1911.0</ele><time>2026-04-25T12:48:33Z</time></trkpt><trkpt lat="46.48430035235601" lon="12.0355523339534"><ele>1911.0</ele><time>2026-04-25T12:48:34Z</time></trkpt><trkpt lat="46.484424224313024" lon="12.035505542925602"><ele>1911.0</ele><time>2026-04-25T12:48:35Z</time></trkpt><trkpt lat="46.48453891102848" lon="12.03545369767827"><ele>1911.0</ele><time>2026-04-25T12:48:36Z</time></trkpt><trkpt lat="46.484644299136484" lon="12.035400292696412"><ele>1914.0</ele><time>2026-04-25T12:48:37Z</time></trkpt><trkpt lat="46.48474440922573" lon="12.035352973101082"><ele>1917.0</ele><time>2026-04-25T12:48:38Z</time></trkpt><trkpt lat="46.48483280990296" lon="12.035315708206388"><ele>1920.0</ele><time>2026-04-25T12:48:39Z</time></trkpt><trkpt lat="46.4849005742308" lon="12.035283769974551"><ele>1923.0</ele><time>2026-04-25T12:48:40Z</time></trkpt><trkpt lat="46.4850049271389" lon="12.035314993912788"><ele>1926.0</ele><time>2026-04-25T12:48:42Z</time></trkpt><trkpt lat="46.484997506851535" lon="12.035499522110205"><ele>1926.0</ele><time>2026-04-25T12:48:44Z</time></trkpt><trkpt lat="46.484906115746526" lon="12.035590376999096"><ele>1926.0</ele><time>2026-04-25T12:48:45Z</time></trkpt><trkpt lat="46.48481309541079" lon="12.035672151181073"><ele>1926.0</ele><time>2026-04-25T12:48:46Z</time></trkpt><trkpt lat="46.48471924244617" lon="12.035740038129223"><ele>1926.0</ele><time>2026-04-25T12:48:47Z</time></trkpt><trkpt lat="46.484636026897746" lon="12.035789861078781"><ele>1926.0</ele><time>2026-04-25T12:48:48Z</time></trkpt><trkpt lat="46.484554389484884" lon="12.035834954766013"><ele>1929.1666666666667</ele><time>2026-04-25T12:48:49Z</time></trkpt><trkpt lat="46.484474620173565" lon="12.035861559209156"><ele>1932.3333333333335</ele><time>2026-04-25T12:48:50Z</time></trkpt><trkpt lat="46.48441240618365" lon="12.035881756684331"><ele>1935.5</ele><time>2026-04-25T12:48:51Z</time></trkpt><trkpt lat="46.48433280412415" lon="12.035978232903856"><ele>1938.6666666666667</ele><time>2026-04-25T12:48:53Z</time></trkpt><trkpt lat="46.48437938388518" lon="12.036130894949693"><ele>1941.8333333333335</ele><time>2026-04-25T12:48:55Z</time></trkpt><trkpt lat="46.48445688618906" lon="12.03615624556645"><ele>1945.0</ele><time>2026-04-25T12:48:56Z</time></trkpt><trkpt lat="46.48456001187485" lon="12.036132252357724"><ele>1948.0</ele><time>2026-04-25T12:48:57Z</time></trkpt><trkpt lat="46.484675468156944" lon="12.036102764917596"><ele>1951.0</ele><time>2026-04-25T12:48:58Z</time></trkpt><trkpt lat="46.484797413010526" lon="12.036057527195743"><ele>1954.0</ele><time>2026-04-25T12:48:59Z</time></trkpt><trkpt lat="46.48490721757151" lon="12.036013963515325"><ele>1957.0</ele><time>2026-04-25T12:49:00Z</time></trkpt><trkpt lat="46.48501644592145" lon="12.035999218518471"><ele>1957.0</ele><time>2026-04-25T12:49:01Z</time></trkpt><trkpt lat="46.485129236661656" lon="12.036011102456252"><ele>1957.0</ele><time>2026-04-25T12:49:02Z</time></trkpt><trkpt lat="46.48524122002685" lon="12.036017326974484"><ele>1957.0</ele><time>2026-04-25T12:49:03Z</time></trkpt><trkpt lat="46.48535319885661" lon="12.036003086803243"><ele>1957.0</ele><time>2026-04-25T12:49:04Z</time></trkpt><trkpt lat="46.48546226750248" lon="12.03596289580695"><ele>1959.25</ele><time>2026-04-25T12:49:05Z</time></trkpt><trkpt lat="46.48557230473005" lon="12.035917217752862"><ele>1961.5</ele><time>2026-04-25T12:49:06Z</time></trkpt><trkpt lat="46.48568556160383" lon="12.035899086820358"><ele>1963.75</ele><time>2026-04-25T12:49:06.999Z</time></trkpt><trkpt lat="46.48580667120365" lon="12.035897774080269"><ele>1966.0</ele><time>2026-04-25T12:49:07.999Z</time></trkpt><trkpt lat="46.48592921831035" lon="12.035901544763968"><ele>1966.0</ele><time>2026-04-25T12:49:08.999Z</time></trkpt><trkpt lat="46.48604363657558" lon="12.035907487896353"><ele>1966.0</ele><time>2026-04-25T12:49:09.999Z</time></trkpt><trkpt lat="46.486163607896145" lon="12.035909562452447"><ele>1966.0</ele><time>2026-04-25T12:49:10.999Z</time></trkpt><trkpt lat="46.486285695378854" lon="12.035907515936326"><ele>1966.0</ele><time>2026-04-25T12:49:11.999Z</time></trkpt><trkpt lat="46.48640814821219" lon="12.035907789851061"><ele>1969.1999999999998</ele><time>2026-04-25T12:49:12.999Z</time></trkpt><trkpt lat="46.48652284866774" lon="12.035907403450262"><ele>1972.3999999999999</ele><time>2026-04-25T12:49:13.999Z</time></trkpt><trkpt lat="46.486624838245284" lon="12.035908423993396"><ele>1975.6</ele><time>2026-04-25T12:49:14.999Z</time></trkpt><trkpt lat="46.48671201729245" lon="12.035902708183382"><ele>1978.8</ele><time>2026-04-25T12:49:15.999Z</time></trkpt><trkpt lat="46.48680047263458" lon="12.035876127451319"><ele>1982.0</ele><time>2026-04-25T12:49:16.999Z</time></trkpt><trkpt lat="46.48687766636833" lon="12.035812754409212"><ele>1980.6</ele><time>2026-04-25T12:49:17.999Z</time></trkpt><trkpt lat="46.48693694385425" lon="12.035713312605031"><ele>1979.1999999999998</ele><time>2026-04-25T12:49:18.999Z</time></trkpt><trkpt lat="46.48698510308046" lon="12.035582815466874"><ele>1977.8</ele><time>2026-04-25T12:49:19.999Z</time></trkpt><trkpt lat="46.48699203736946" lon="12.03542116056703"><ele>1976.4</ele><time>2026-04-25T12:49:20.999Z</time></trkpt><trkpt lat="46.486923012453204" lon="12.035290430733436"><ele>1975.0</ele><time>2026-04-25T12:49:21.999Z</time></trkpt><trkpt lat="46.486893949301276" lon="12.035172977608623"><ele>1975.0</ele><time>2026-04-25T12:49:22.999Z</time></trkpt><trkpt lat="46.48687083894399" lon="12.035006251792463"><ele>1975.0</ele><time>2026-04-25T12:49:24.999Z</time></trkpt><trkpt lat="46.48693089839083" lon="12.03493891506318"><ele>1975.0</ele><time>2026-04-25T12:49:25.999Z</time></trkpt><trkpt lat="46.487021439091905" lon="12.034908141311837"><ele>1975.0</ele><time>2026-04-25T12:49:26.999Z</time></trkpt><trkpt lat="46.48710780242291" lon="12.034921104869532"><ele>1975.0</ele><time>2026-04-25T12:49:27.999Z</time></trkpt><trkpt lat="46.48718304349491" lon="12.035000902853563"><ele>1980.5</ele><time>2026-04-25T12:49:29Z</time></trkpt><trkpt lat="46.48724837891855" lon="12.035134812536555"><ele>1986.0</ele><time>2026-04-25T12:49:30Z</time></trkpt><trkpt lat="46.48731519950343" lon="12.035303766418858"><ele>1991.5</ele><time>2026-04-25T12:49:31Z</time></trkpt><trkpt lat="46.487387894379545" lon="12.035468332094528"><ele>1997.0</ele><time>2026-04-25T12:49:32Z</time></trkpt><trkpt lat="46.48744780327224" lon="12.035593455955444"><ele>1996.9999999999998</ele><time>2026-04-25T12:49:33Z</time></trkpt><trkpt lat="46.48749739227534" lon="12.03570507317384"><ele>1997.0</ele><time>2026-04-25T12:49:34Z</time></trkpt><trkpt lat="46.48753353482102" lon="12.035814069598517"><ele>1997.0</ele><time>2026-04-25T12:49:35Z</time></trkpt><trkpt lat="46.487548234440084" lon="12.03593406810778"><ele>1997.0</ele><time>2026-04-25T12:49:36Z</time></trkpt><trkpt lat="46.4875259718891" lon="12.036059475355877"><ele>1996.9999999999998</ele><time>2026-04-25T12:49:37Z</time></trkpt><trkpt lat="46.48746287000313" lon="12.036167915882425"><ele>1997.0</ele><time>2026-04-25T12:49:38Z</time></trkpt><trkpt lat="46.487364890514826" lon="12.036244738891483"><ele>1997.75</ele><time>2026-04-25T12:49:39Z</time></trkpt><trkpt lat="46.48723670754176" lon="12.03630134504936"><ele>1998.5</ele><time>2026-04-25T12:49:40Z</time></trkpt><trkpt lat="46.48710185687128" lon="12.036400660425663"><ele>1999.25</ele><time>2026-04-25T12:49:41Z</time></trkpt><trkpt lat="46.486982468650986" lon="12.036537706109478"><ele>2000.0</ele><time>2026-04-25T12:49:42Z</time></trkpt><trkpt lat="46.48687928509411" lon="12.036681253511047"><ele>2000.2</ele><time>2026-04-25T12:49:43Z</time></trkpt><trkpt lat="46.486788945639944" lon="12.036793935918881"><ele>2000.4</ele><time>2026-04-25T12:49:44Z</time></trkpt><trkpt lat="46.48669878143736" lon="12.036891659715138"><ele>2000.6</ele><time>2026-04-25T12:49:45Z</time></trkpt><trkpt lat="46.486617713596594" lon="12.036969191211869"><ele>2000.8</ele><time>2026-04-25T12:49:46Z</time></trkpt><trkpt lat="46.486545974793316" lon="12.037023262057659"><ele>2001.0</ele><time>2026-04-25T12:49:47Z</time></trkpt><trkpt lat="46.48647791147713" lon="12.03707341292245"><ele>2000.9999999999998</ele><time>2026-04-25T12:49:48Z</time></trkpt><trkpt lat="46.48641614138486" lon="12.037129745361137"><ele>2001.0</ele><time>2026-04-25T12:49:49Z</time></trkpt><trkpt lat="46.48636331098229" lon="12.03719670436066"><ele>2000.9999999999998</ele><time>2026-04-25T12:49:50Z</time></trkpt><trkpt lat="46.48632522542076" lon="12.037283008256136"><ele>2000.9999999999998</ele><time>2026-04-25T12:49:51Z</time></trkpt><trkpt lat="46.48631223859823" lon="12.037387804171182"><ele>2001.0</ele><time>2026-04-25T12:49:52Z</time></trkpt><trkpt lat="46.48632740582096" lon="12.03749620068819"><ele>2000.9999999999998</ele><time>2026-04-25T12:49:53Z</time></trkpt><trkpt lat="46.4863709576659" lon="12.03758963935757"><ele>2000.9999999999998</ele><time>2026-04-25T12:49:54Z</time></trkpt><trkpt lat="46.48644290859674" lon="12.037650612359897"><ele>2001.0</ele><time>2026-04-25T12:49:55Z</time></trkpt><trkpt lat="46.486544399185895" lon="12.037678489555482"><ele>2001.0</ele><time>2026-04-25T12:49:56Z</time></trkpt><trkpt lat="46.48668162418624" lon="12.037613259081127"><ele>2001.0</ele><time>2026-04-25T12:49:57Z</time></trkpt><trkpt lat="46.486827035524946" lon="12.037505968664927"><ele>2001.0</ele><time>2026-04-25T12:49:58Z</time></trkpt><trkpt lat="46.486995848934015" lon="12.037389174129942"><ele>2003.5</ele><time>2026-04-25T12:49:59Z</time></trkpt><trkpt lat="46.48713047589432" lon="12.037296936022233"><ele>2006.0</ele><time>2026-04-25T12:50:00Z</time></trkpt><trkpt lat="46.48724551736361" lon="12.03719255097401"><ele>2008.5</ele><time>2026-04-25T12:50:01Z</time></trkpt><trkpt lat="46.48735544954199" lon="12.037125379040662"><ele>2011.0</ele><time>2026-04-25T12:50:02Z</time></trkpt><trkpt lat="46.48745015948021" lon="12.03706411058559"><ele>2011.0000000000002</ele><time>2026-04-25T12:50:03Z</time></trkpt><trkpt lat="46.48752952875877" lon="12.037016261615559"><ele>2011.0</ele><time>2026-04-25T12:50:04Z</time></trkpt><trkpt lat="46.487604276893286" lon="12.037009189777846"><ele>2011.0</ele><time>2026-04-25T12:50:05Z</time></trkpt><trkpt lat="46.487679870897544" lon="12.037052624328064"><ele>2011.0</ele><time>2026-04-25T12:50:06Z</time></trkpt><trkpt lat="46.48773476101327" lon="12.037142147007438"><ele>2011.0000000000002</ele><time>2026-04-25T12:50:07Z</time></trkpt><trkpt lat="46.487746060188975" lon="12.037269079181499"><ele>2011.0</ele><time>2026-04-25T12:50:08Z</time></trkpt><trkpt lat="46.48771287226891" lon="12.03740186313394"><ele>2016.0</ele><time>2026-04-25T12:50:09Z</time></trkpt><trkpt lat="46.487640818298324" lon="12.037509916729181"><ele>2021.0</ele><time>2026-04-25T12:50:10Z</time></trkpt><trkpt lat="46.48753359660777" lon="12.037585690703816"><ele>2026.0</ele><time>2026-04-25T12:50:11Z</time></trkpt><trkpt lat="46.48740218804292" lon="12.037659095536338"><ele>2031.0</ele><time>2026-04-25T12:50:12Z</time></trkpt><trkpt lat="46.48727118759362" lon="12.03775912406144"><ele>2031.0</ele><time>2026-04-25T12:50:13Z</time></trkpt><trkpt lat="46.48714398015044" lon="12.037866060686738"><ele>2031.0</ele><time>2026-04-25T12:50:14Z</time></trkpt><trkpt lat="46.487014452909996" lon="12.03796704086985"><ele>2031.0</ele><time>2026-04-25T12:50:15Z</time></trkpt><trkpt lat="46.486892943899534" lon="12.038067360887242"><ele>2031.0</ele><time>2026-04-25T12:50:16Z</time></trkpt><trkpt lat="46.48677142403478" lon="12.038174334702054"><ele>2028.0</ele><time>2026-04-25T12:50:17Z</time></trkpt><trkpt lat="46.48664840625243" lon="12.038284825051296"><ele>2025.0</ele><time>2026-04-25T12:50:18Z</time></trkpt><trkpt lat="46.48652599415683" lon="12.038389684837613"><ele>2022.0</ele><time>2026-04-25T12:50:19Z</time></trkpt><trkpt lat="46.48640561804192" lon="12.038482745389466"><ele>2019.0</ele><time>2026-04-25T12:50:20Z</time></trkpt><trkpt lat="46.486285749601166" lon="12.038568273772754"><ele>2023.75</ele><time>2026-04-25T12:50:21Z</time></trkpt><trkpt lat="46.486164405440846" lon="12.038647882742719"><ele>2028.5</ele><time>2026-04-25T12:50:22Z</time></trkpt><trkpt lat="46.48603560489013" lon="12.0387274681013"><ele>2033.25</ele><time>2026-04-25T12:50:23Z</time></trkpt><trkpt lat="46.4858970757619" lon="12.038815860969198"><ele>2038.0</ele><time>2026-04-25T12:50:24Z</time></trkpt><trkpt lat="46.48575450231179" lon="12.038911625913599"><ele>2038.0</ele><time>2026-04-25T12:50:25Z</time></trkpt><trkpt lat="46.485614112069456" lon="12.039016712984685"><ele>2038.0</ele><time>2026-04-25T12:50:26Z</time></trkpt><trkpt lat="46.48548656521787" lon="12.039152418982798"><ele>2038.0</ele><time>2026-04-25T12:50:27Z</time></trkpt><trkpt lat="46.485376647786936" lon="12.039311507097679"><ele>2040.75</ele><time>2026-04-25T12:50:28Z</time></trkpt><trkpt lat="46.48526662269954" lon="12.039458401349968"><ele>2043.5</ele><time>2026-04-25T12:50:29Z</time></trkpt><trkpt lat="46.48514258595868" lon="12.039561705202555"><ele>2046.25</ele><time>2026-04-25T12:50:30Z</time></trkpt><trkpt lat="46.48500037746374" lon="12.039599118666077"><ele>2049.0</ele><time>2026-04-25T12:50:31Z</time></trkpt><trkpt lat="46.4848555487745" lon="12.03961503027136"><ele>2049.0</ele><time>2026-04-25T12:50:32Z</time></trkpt><trkpt lat="46.484700378482266" lon="12.039643161735944"><ele>2049.0</ele><time>2026-04-25T12:50:33Z</time></trkpt><trkpt lat="46.48455967323001" lon="12.039656566982623"><ele>2049.0</ele><time>2026-04-25T12:50:34Z</time></trkpt><trkpt lat="46.484450247828484" lon="12.039668575543915"><ele>2049.0</ele><time>2026-04-25T12:50:35Z</time></trkpt><trkpt lat="46.48435622761152" lon="12.039677229037562"><ele>2049.1666666666665</ele><time>2026-04-25T12:50:36Z</time></trkpt><trkpt lat="46.48427960277539" lon="12.039702636101595"><ele>2049.3333333333335</ele><time>2026-04-25T12:50:37Z</time></trkpt><trkpt lat="46.48421572735009" lon="12.03976872287384"><ele>2049.5</ele><time>2026-04-25T12:50:38Z</time></trkpt><trkpt lat="46.48417893986999" lon="12.039874857946446"><ele>2049.666666666667</ele><time>2026-04-25T12:50:39Z</time></trkpt><trkpt lat="46.48418926876639" lon="12.03999476000961"><ele>2049.8333333333335</ele><time>2026-04-25T12:50:40Z</time></trkpt><trkpt lat="46.48424254563231" lon="12.04008648912608"><ele>2050.0</ele><time>2026-04-25T12:50:41Z</time></trkpt><trkpt lat="46.48433202144421" lon="12.040127772599204"><ele>2054.5</ele><time>2026-04-25T12:50:42Z</time></trkpt><trkpt lat="46.484462349509656" lon="12.040113073675764"><ele>2059.0</ele><time>2026-04-25T12:50:43Z</time></trkpt><trkpt lat="46.48461163639975" lon="12.040085331723285"><ele>2063.5</ele><time>2026-04-25T12:50:44Z</time></trkpt><trkpt lat="46.48476239417919" lon="12.040068426709588"><ele>2068.0</ele><time>2026-04-25T12:50:45Z</time></trkpt><trkpt lat="46.48490844454713" lon="12.04007980562658"><ele>2069.0</ele><time>2026-04-25T12:50:46Z</time></trkpt><trkpt lat="46.4850565962476" lon="12.040104093762606"><ele>2070.0</ele><time>2026-04-25T12:50:47Z</time></trkpt><trkpt lat="46.485199813933555" lon="12.040144361794663"><ele>2071.0</ele><time>2026-04-25T12:50:48Z</time></trkpt><trkpt lat="46.48533310679725" lon="12.04020743570472"><ele>2072.0</ele><time>2026-04-25T12:50:49Z</time></trkpt><trkpt lat="46.485453507064655" lon="12.04027816252687"><ele>2073.833333333333</ele><time>2026-04-25T12:50:50Z</time></trkpt><trkpt lat="46.48555872251713" lon="12.040344783344676"><ele>2075.6666666666665</ele><time>2026-04-25T12:50:51Z</time></trkpt><trkpt lat="46.485641723126804" lon="12.040388376746918"><ele>2077.5</ele><time>2026-04-25T12:50:52Z</time></trkpt><trkpt lat="46.48570286614121" lon="12.040444500201195"><ele>2079.3333333333335</ele><time>2026-04-25T12:50:53Z</time></trkpt><trkpt lat="46.48573412330681" lon="12.040542725593147"><ele>2081.166666666667</ele><time>2026-04-25T12:50:54Z</time></trkpt><trkpt lat="46.485741419509935" lon="12.04068269015818"><ele>2083.0</ele><time>2026-04-25T12:50:55Z</time></trkpt><trkpt lat="46.485709498205146" lon="12.040837621755033"><ele>2084.8</ele><time>2026-04-25T12:50:56Z</time></trkpt><trkpt lat="46.48566840234619" lon="12.041012053265801"><ele>2086.6000000000004</ele><time>2026-04-25T12:50:57Z</time></trkpt><trkpt lat="46.48563484428832" lon="12.041157237810937"><ele>2088.3999999999996</ele><time>2026-04-25T12:50:58Z</time></trkpt><trkpt lat="46.485610394697" lon="12.041286318288854"><ele>2090.2</ele><time>2026-04-25T12:50:59Z</time></trkpt><trkpt lat="46.485602872121525" lon="12.04141247795685"><ele>2092.0</ele><time>2026-04-25T12:51:00Z</time></trkpt><trkpt lat="46.485619141883845" lon="12.041535277979609"><ele>2093.0</ele><time>2026-04-25T12:51:01Z</time></trkpt><trkpt lat="46.485672520842996" lon="12.041647561871898"><ele>2094.0</ele><time>2026-04-25T12:51:02Z</time></trkpt><trkpt lat="46.48575718803843" lon="12.04173168382509"><ele>2095.0</ele><time>2026-04-25T12:51:03Z</time></trkpt><trkpt lat="46.48587714934254" lon="12.041759061203745"><ele>2096.0</ele><time>2026-04-25T12:51:04Z</time></trkpt><trkpt lat="46.48602038971525" lon="12.041740189786541"><ele>2096.0</ele><time>2026-04-25T12:51:05Z</time></trkpt><trkpt lat="46.486175949198675" lon="12.041698396491865"><ele>2096.0</ele><time>2026-04-25T12:51:06Z</time></trkpt><trkpt lat="46.48629537966358" lon="12.041691655062007"><ele>2096.0</ele><time>2026-04-25T12:51:07Z</time></trkpt><trkpt lat="46.48639134757026" lon="12.041657651518598"><ele>2096.0</ele><time>2026-04-25T12:51:08Z</time></trkpt><trkpt lat="46.486477210081" lon="12.041673390774365"><ele>2099.4</ele><time>2026-04-25T12:51:09Z</time></trkpt><trkpt lat="46.48655793252159" lon="12.041736134123477"><ele>2102.8</ele><time>2026-04-25T12:51:10Z</time></trkpt><trkpt lat="46.48660929792654" lon="12.041859596957812"><ele>2106.2000000000003</ele><time>2026-04-25T12:51:11Z</time></trkpt><trkpt lat="46.48661668724338" lon="12.042014996721575"><ele>2109.6</ele><time>2026-04-25T12:51:12Z</time></trkpt><trkpt lat="46.48657836113192" lon="12.04218793341518"><ele>2113.0</ele><time>2026-04-25T12:51:13Z</time></trkpt><trkpt lat="46.486520349974995" lon="12.04238267330622"><ele>2115.666666666667</ele><time>2026-04-25T12:51:14Z</time></trkpt><trkpt lat="46.48646846590594" lon="12.042598495464404"><ele>2118.3333333333335</ele><time>2026-04-25T12:51:14.999Z</time></trkpt><trkpt lat="46.48641550346207" lon="12.042813126193524"><ele>2121.0</ele><time>2026-04-25T12:51:15.999Z</time></trkpt><trkpt lat="46.48636880906555" lon="12.042997704999546"><ele>2121.0</ele><time>2026-04-25T12:51:16.999Z</time></trkpt><trkpt lat="46.486326641123995" lon="12.04317157074573"><ele>2121.0</ele><time>2026-04-25T12:51:17.999Z</time></trkpt><trkpt lat="46.48628352397678" lon="12.043338620322709"><ele>2121.0</ele><time>2026-04-25T12:51:18.999Z</time></trkpt><trkpt lat="46.486241028864335" lon="12.043507126883823"><ele>2121.0</ele><time>2026-04-25T12:51:19.999Z</time></trkpt><trkpt lat="46.48619958744795" lon="12.043681068882018"><ele>2119.75</ele><time>2026-04-25T12:51:20.999Z</time></trkpt><trkpt lat="46.48615099506623" lon="12.043844494406454"><ele>2118.5</ele><time>2026-04-25T12:51:21.999Z</time></trkpt><trkpt lat="46.48608829220085" lon="12.043984968620062"><ele>2117.25</ele><time>2026-04-25T12:51:22.999Z</time></trkpt><trkpt lat="46.4860166779111" lon="12.044117931079708"><ele>2116.0</ele><time>2026-04-25T12:51:23.999Z</time></trkpt><trkpt lat="46.485936635166105" lon="12.044249005351343"><ele>2118.2</ele><time>2026-04-25T12:51:24.999Z</time></trkpt><trkpt lat="46.485856552776205" lon="12.044379490874947"><ele>2120.3999999999996</ele><time>2026-04-25T12:51:25.999Z</time></trkpt><trkpt lat="46.48578570267141" lon="12.044502771984218"><ele>2122.6</ele><time>2026-04-25T12:51:26.999Z</time></trkpt><trkpt lat="46.48571826136625" lon="12.044619322457372"><ele>2124.7999999999997</ele><time>2026-04-25T12:51:27.999Z</time></trkpt><trkpt lat="46.48565160473291" lon="12.044733961729014"><ele>2127.0</ele><time>2026-04-25T12:51:28.999Z</time></trkpt><trkpt lat="46.485589344610936" lon="12.044850539656657"><ele>2127.7999999999997</ele><time>2026-04-25T12:51:29.999Z</time></trkpt><trkpt lat="46.48552607054825" lon="12.044970915098677"><ele>2128.6</ele><time>2026-04-25T12:51:30.999Z</time></trkpt><trkpt lat="46.485457611154665" lon="12.045089277150602"><ele>2129.3999999999996</ele><time>2026-04-25T12:51:31.999Z</time></trkpt><trkpt lat="46.48538638912991" lon="12.045210557255313"><ele>2130.2</ele><time>2026-04-25T12:51:32.999Z</time></trkpt><trkpt lat="46.485311031762876" lon="12.045338934730339"><ele>2131.0</ele><time>2026-04-25T12:51:33.999Z</time></trkpt><trkpt lat="46.48522167025599" lon="12.045457201157713"><ele>2131.0</ele><time>2026-04-25T12:51:35Z</time></trkpt><trkpt lat="46.48511497572555" lon="12.045559064504443"><ele>2131.0</ele><time>2026-04-25T12:51:36Z</time></trkpt><trkpt lat="46.4850027441985" lon="12.045650230806663"><ele>2131.0</ele><time>2026-04-25T12:51:37Z</time></trkpt><trkpt lat="46.48489580656331" lon="12.04573424171983"><ele>2131.0</ele><time>2026-04-25T12:51:38Z</time></trkpt><trkpt lat="46.484800580485114" lon="12.045820615961507"><ele>2133.6</ele><time>2026-04-25T12:51:39Z</time></trkpt><trkpt lat="46.48471780322645" lon="12.04591278358609"><ele>2136.2</ele><time>2026-04-25T12:51:40Z</time></trkpt><trkpt lat="46.484658087105096" lon="12.046022511442498"><ele>2138.8</ele><time>2026-04-25T12:51:41Z</time></trkpt><trkpt lat="46.48462272746023" lon="12.046166898067204"><ele>2141.4</ele><time>2026-04-25T12:51:42Z</time></trkpt><trkpt lat="46.484615208719376" lon="12.046325316837574"><ele>2144.0</ele><time>2026-04-25T12:51:43Z</time></trkpt><trkpt lat="46.4846370725365" lon="12.046487037163716"><ele>2146.75</ele><time>2026-04-25T12:51:44Z</time></trkpt><trkpt lat="46.484648154895986" lon="12.046642734721221"><ele>2149.5</ele><time>2026-04-25T12:51:45Z</time></trkpt><trkpt lat="46.484657767620796" lon="12.04680736141055"><ele>2152.25</ele><time>2026-04-25T12:51:46Z</time></trkpt><trkpt lat="46.48466733195457" lon="12.046981623691902"><ele>2155.0</ele><time>2026-04-25T12:51:47Z</time></trkpt><trkpt lat="46.48467721470305" lon="12.047162775621693"><ele>2155.0</ele><time>2026-04-25T12:51:48Z</time></trkpt><trkpt lat="46.48469072169131" lon="12.047332681743033"><ele>2155.0</ele><time>2026-04-25T12:51:49Z</time></trkpt><trkpt lat="46.48470564988919" lon="12.047461642847184"><ele>2155.0</ele><time>2026-04-25T12:51:50Z</time></trkpt><trkpt lat="46.48471869922127" lon="12.04757453420233"><ele>2155.0</ele><time>2026-04-25T12:51:51Z</time></trkpt><trkpt lat="46.48471556108952" lon="12.04769084367083"><ele>2155.0</ele><time>2026-04-25T12:51:52Z</time></trkpt><trkpt lat="46.484681508348785" lon="12.04779973168536"><ele>2155.0</ele><time>2026-04-25T12:51:53Z</time></trkpt><trkpt lat="46.48461271798755" lon="12.047883866935543"><ele>2156.0</ele><time>2026-04-25T12:51:54Z</time></trkpt><trkpt lat="46.48451159781211" lon="12.047925537808938"><ele>2157.0</ele><time>2026-04-25T12:51:55Z</time></trkpt><trkpt lat="46.484387519437306" lon="12.04792948478246"><ele>2158.0</ele><time>2026-04-25T12:51:56Z</time></trkpt><trkpt lat="46.48424958636839" lon="12.047932535934738"><ele>2159.0</ele><time>2026-04-25T12:51:57Z</time></trkpt><trkpt lat="46.48411270394614" lon="12.047944706736155"><ele>2159.0</ele><time>2026-04-25T12:51:58Z</time></trkpt><trkpt lat="46.48401048005554" lon="12.047959605188295"><ele>2159.0</ele><time>2026-04-25T12:51:59Z</time></trkpt><trkpt lat="46.483920716467864" lon="12.04797636447496"><ele>2159.0</ele><time>2026-04-25T12:52:00Z</time></trkpt><trkpt lat="46.48384136088899" lon="12.048003503764848"><ele>2159.0</ele><time>2026-04-25T12:52:01Z</time></trkpt><trkpt lat="46.48377251505987" lon="12.04806484431167"><ele>2159.0</ele><time>2026-04-25T12:52:02Z</time></trkpt><trkpt lat="46.483721175078585" lon="12.048158033730994"><ele>2159.0</ele><time>2026-04-25T12:52:03Z</time></trkpt><trkpt lat="46.48370423580609" lon="12.048287510228057"><ele>2161.25</ele><time>2026-04-25T12:52:04Z</time></trkpt><trkpt lat="46.48373076866851" lon="12.04843584459878"><ele>2163.5</ele><time>2026-04-25T12:52:05Z</time></trkpt><trkpt lat="46.48379207995693" lon="12.048592158453816"><ele>2165.75</ele><time>2026-04-25T12:52:06Z</time></trkpt><trkpt lat="46.48385803660618" lon="12.048757706464256"><ele>2168.0</ele><time>2026-04-25T12:52:07Z</time></trkpt><trkpt lat="46.48392387295873" lon="12.048914642156895"><ele>2168.0</ele><time>2026-04-25T12:52:08Z</time></trkpt><trkpt lat="46.4840077661471" lon="12.049039212518487"><ele>2168.0</ele><time>2026-04-25T12:52:09Z</time></trkpt><trkpt lat="46.48411247617155" lon="12.049110153515743"><ele>2168.0</ele><time>2026-04-25T12:52:10Z</time></trkpt><trkpt lat="46.48422623079057" lon="12.049120317344114"><ele>2168.0</ele><time>2026-04-25T12:52:11Z</time></trkpt><trkpt lat="46.48431882451039" lon="12.049134709466623"><ele>2168.0</ele><time>2026-04-25T12:52:12Z</time></trkpt><trkpt lat="46.484387244641646" lon="12.049200439156314"><ele>2170.2000000000003</ele><time>2026-04-25T12:52:13Z</time></trkpt><trkpt lat="46.4844296413802" lon="12.049309149294867"><ele>2172.4</ele><time>2026-04-25T12:52:14Z</time></trkpt><trkpt lat="46.484429860500896" lon="12.049432408390393"><ele>2174.6000000000004</ele><time>2026-04-25T12:52:15Z</time></trkpt><trkpt lat="46.48438249816144" lon="12.049535719582549"><ele>2176.8</ele><time>2026-04-25T12:52:16Z</time></trkpt><trkpt lat="46.484283674381025" lon="12.04959194526801"><ele>2179.0</ele><time>2026-04-25T12:52:17Z</time></trkpt><trkpt lat="46.484149949866115" lon="12.049595559635707"><ele>2179.0</ele><time>2026-04-25T12:52:18Z</time></trkpt><trkpt lat="46.48401486856909" lon="12.049599637262762"><ele>2179.0</ele><time>2026-04-25T12:52:19Z</time></trkpt><trkpt lat="46.48391154359777" lon="12.049664028396801"><ele>2179.0</ele><time>2026-04-25T12:52:20Z</time></trkpt><trkpt lat="46.48383708768127" lon="12.049757495399081"><ele>2179.0</ele><time>2026-04-25T12:52:21Z</time></trkpt><trkpt lat="46.483789841376755" lon="12.049885307170834"><ele>2179.0</ele><time>2026-04-25T12:52:22Z</time></trkpt><trkpt lat="46.48377662150664" lon="12.050041269277052"><ele>2181.0</ele><time>2026-04-25T12:52:23Z</time></trkpt><trkpt lat="46.48380243505938" lon="12.050198878542385"><ele>2183.0</ele><time>2026-04-25T12:52:24Z</time></trkpt><trkpt lat="46.483867684287034" lon="12.050339373243748"><ele>2185.0</ele><time>2026-04-25T12:52:25Z</time></trkpt><trkpt lat="46.483975737404386" lon="12.050440489876076"><ele>2187.0</ele><time>2026-04-25T12:52:26Z</time></trkpt><trkpt lat="46.484117381542" lon="12.050505666694203"><ele>2187.0</ele><time>2026-04-25T12:52:27Z</time></trkpt><trkpt lat="46.48426494176835" lon="12.050571128847801"><ele>2187.0</ele><time>2026-04-25T12:52:28Z</time></trkpt><trkpt lat="46.48437938541993" lon="12.050631235637649"><ele>2187.0</ele><time>2026-04-25T12:52:29Z</time></trkpt><trkpt lat="46.4844755292" lon="12.050703484290741"><ele>2187.0</ele><time>2026-04-25T12:52:30Z</time></trkpt><trkpt lat="46.48454352056808" lon="12.050813706496601"><ele>2189.5</ele><time>2026-04-25T12:52:31Z</time></trkpt><trkpt lat="46.48457121879514" lon="12.050960500247314"><ele>2192.0</ele><time>2026-04-25T12:52:32Z</time></trkpt><trkpt lat="46.484546407129756" lon="12.051117865092738"><ele>2194.5</ele><time>2026-04-25T12:52:33Z</time></trkpt><trkpt lat="46.484466796445055" lon="12.051246761703391"><ele>2197.0</ele><time>2026-04-25T12:52:34Z</time></trkpt><trkpt lat="46.48434551333599" lon="12.051355695246086"><ele>2197.0</ele><time>2026-04-25T12:52:35Z</time></trkpt><trkpt lat="46.484219895922735" lon="12.051491319760903"><ele>2197.0</ele><time>2026-04-25T12:52:36Z</time></trkpt><trkpt lat="46.484091928129864" lon="12.051675550350009"><ele>2197.0</ele><time>2026-04-25T12:52:37Z</time></trkpt><trkpt lat="46.48398542869611" lon="12.051886510075022"><ele>2201.0</ele><time>2026-04-25T12:52:38Z</time></trkpt><trkpt lat="46.48389782134058" lon="12.052117290347649"><ele>2205.0</ele><time>2026-04-25T12:52:39Z</time></trkpt><trkpt lat="46.48383398802658" lon="12.052338264894487"><ele>2209.0</ele><time>2026-04-25T12:52:40Z</time></trkpt><trkpt lat="46.48377575049708" lon="12.052522497276454"><ele>2211.5</ele><time>2026-04-25T12:52:41Z</time></trkpt><trkpt lat="46.48371757839812" lon="12.052681518497764"><ele>2214.0</ele><time>2026-04-25T12:52:42Z</time></trkpt><trkpt lat="46.48365115947753" lon="12.05281751457054"><ele>2216.5</ele><time>2026-04-25T12:52:43Z</time></trkpt><trkpt lat="46.48357251852488" lon="12.05291444254839"><ele>2219.0</ele><time>2026-04-25T12:52:44Z</time></trkpt><trkpt lat="46.48346063295788" lon="12.052964193168389"><ele>2219.0</ele><time>2026-04-25T12:52:45Z</time></trkpt><trkpt lat="46.48332900724192" lon="12.052982697424472"><ele>2219.0</ele><time>2026-04-25T12:52:46Z</time></trkpt><trkpt lat="46.48319356585789" lon="12.052995332608269"><ele>2219.0</ele><time>2026-04-25T12:52:47Z</time></trkpt><trkpt lat="46.483072635554684" lon="12.0530102100897"><ele>2219.0</ele><time>2026-04-25T12:52:48Z</time></trkpt><trkpt lat="46.482975056406595" lon="12.053028912651971"><ele>2219.6</ele><time>2026-04-25T12:52:49Z</time></trkpt><trkpt lat="46.482886368121505" lon="12.053048094688798"><ele>2220.2</ele><time>2026-04-25T12:52:50Z</time></trkpt><trkpt lat="46.48280542673295" lon="12.05306654007204"><ele>2220.7999999999997</ele><time>2026-04-25T12:52:51Z</time></trkpt><trkpt lat="46.48274110096909" lon="12.053083927000758"><ele>2221.4</ele><time>2026-04-25T12:52:52Z</time></trkpt><trkpt lat="46.482627170135636" lon="12.053137421034103"><ele>2222.0</ele><time>2026-04-25T12:52:54Z</time></trkpt><trkpt lat="46.48252254819993" lon="12.053226049331883"><ele>2223.333333333333</ele><time>2026-04-25T12:52:56Z</time></trkpt><trkpt lat="46.48250985248903" lon="12.053337760755431"><ele>2224.6666666666665</ele><time>2026-04-25T12:52:57Z</time></trkpt><trkpt lat="46.48249296402308" lon="12.053447147232724"><ele>2226.0</ele><time>2026-04-25T12:52:59Z</time></trkpt><trkpt lat="46.48249396292056" lon="12.053538897902511"><ele>2227.3333333333335</ele><time>2026-04-25T12:53:01Z</time></trkpt><trkpt lat="46.48248994028948" lon="12.053638234686895"><ele>2228.666666666667</ele><time>2026-04-25T12:53:03Z</time></trkpt><trkpt lat="46.482488801597405" lon="12.053750471871876"><ele>2230.0</ele><time>2026-04-25T12:53:06Z</time></trkpt><trkpt lat="46.48257246250815" lon="12.053782776744056"><ele>2230.0</ele><time>2026-04-25T12:53:31.999Z</time></trkpt><trkpt lat="46.4826471881483" lon="12.053710780087563"><ele>2230.0</ele><time>2026-04-25T12:53:33.999Z</time></trkpt><trkpt lat="46.48270360269037" lon="12.053774695429192"><ele>2230.0</ele><time>2026-04-25T12:55:04Z</time></trkpt><trkpt lat="46.482682700498636" lon="12.053684492604816"><ele>2230.0</ele><time>2026-04-25T12:55:20Z</time></trkpt><trkpt lat="46.48262074300578" lon="12.053714290642281"><ele>2230.0</ele><time>2026-04-25T13:04:59Z</time></trkpt><trkpt lat="46.48257719911074" lon="12.053636297386358"><ele>2230.0</ele><time>2026-04-25T13:05:40Z</time></trkpt><trkpt lat="46.48269504006893" lon="12.053675700340722"><ele>2230.0</ele><time>2026-04-25T13:11:49Z</time></trkpt><trkpt lat="46.48279784067629" lon="12.053687887073147"><ele>2230.0</ele><time>2026-04-25T13:12:13.999Z</time></trkpt><trkpt lat="46.482861439586586" lon="12.053680719588343"><ele>2230.0</ele><time>2026-04-25T13:12:20.999Z</time></trkpt><trkpt lat="46.48290204957673" lon="12.0536034273488"><ele>2230.0</ele><time>2026-04-25T13:12:30.999Z</time></trkpt><trkpt lat="46.48290156036496" lon="12.053510907107473"><ele>2230.0</ele><time>2026-04-25T13:12:42Z</time></trkpt><trkpt lat="46.48288748075953" lon="12.053419504028035"><ele>2230.0</ele><time>2026-04-25T13:12:51Z</time></trkpt><trkpt lat="46.48273460207862" lon="12.053326513166684"><ele>2230.0</ele><time>2026-04-25T13:13:36.47Z</time></trkpt><trkpt lat="46.48281798497342" lon="12.053368730468588"><ele>2230.0</ele><time>2026-04-25T13:17:14.598Z</time></trkpt><trkpt lat="46.48274911710293" lon="12.053333478755828"><ele>2230.0</ele><time>2026-04-25T13:28:07.64Z</time></trkpt><trkpt lat="46.48265197096443" lon="12.053273773164083"><ele>2230.0</ele><time>2026-04-25T13:28:08.845Z</time></trkpt><trkpt lat="46.48273587044738" lon="12.053327324341447"><ele>2230.0</ele><time>2026-04-25T13:29:31.82Z</time></trkpt><trkpt lat="46.48289127526379" lon="12.053260302893417"><ele>2230.0</ele><time>2026-04-25T13:30:55.017Z</time></trkpt><trkpt lat="46.48286906944113" lon="12.053394458169661"><ele>2230.0</ele><time>2026-04-25T13:30:56.014Z</time></trkpt><trkpt lat="46.48281554402591" lon="12.05362504535455"><ele>2230.0</ele><time>2026-04-25T13:30:57.993Z</time></trkpt><trkpt lat="46.48281705114287" lon="12.053758270879511"><ele>2230.0</ele><time>2026-04-25T13:30:59.993Z</time></trkpt><trkpt lat="46.48276571815796" lon="12.053702579288561"><ele>2230.0</ele><time>2026-04-25T13:31:22Z</time></trkpt><trkpt lat="46.482703122580425" lon="12.053679328041369"><ele>2230.0</ele><time>2026-04-25T13:31:32Z</time></trkpt><trkpt lat="46.48263353152856" lon="12.05370605633547"><ele>2230.0</ele><time>2026-04-25T13:35:19Z</time></trkpt><trkpt lat="46.482572978264855" lon="12.053743571446384"><ele>2230.0</ele><time>2026-04-25T13:35:23Z</time></trkpt><trkpt lat="46.4825109792038" lon="12.053839466566142"><ele>2230.0</ele><time>2026-04-25T13:37:25Z</time></trkpt><trkpt lat="46.482499045934304" lon="12.053986617726215"><ele>2230.0</ele><time>2026-04-25T13:37:27Z</time></trkpt><trkpt lat="46.48250234370489" lon="12.054078311482394"><ele>2230.0</ele><time>2026-04-25T13:37:28Z</time></trkpt><trkpt lat="46.482516589812846" lon="12.05423459091248"><ele>2230.4</ele><time>2026-04-25T13:37:30Z</time></trkpt><trkpt lat="46.48251752536696" lon="12.05440838845513"><ele>2230.8</ele><time>2026-04-25T13:37:32Z</time></trkpt><trkpt lat="46.48251253007858" lon="12.054500487660176"><ele>2231.2</ele><time>2026-04-25T13:37:33Z</time></trkpt><trkpt lat="46.482475822691015" lon="12.054688187660233"><ele>2231.6</ele><time>2026-04-25T13:37:35Z</time></trkpt><trkpt lat="46.48242980728756" lon="12.054791130019899"><ele>2232.0</ele><time>2026-04-25T13:37:36Z</time></trkpt><trkpt lat="46.48238297935584" lon="12.054883757793979"><ele>2230.7999999999997</ele><time>2026-04-25T13:37:37Z</time></trkpt><trkpt lat="46.48233577046327" lon="12.054976560561538"><ele>2229.6</ele><time>2026-04-25T13:37:38Z</time></trkpt><trkpt lat="46.48228207367995" lon="12.055068395096976"><ele>2228.3999999999996</ele><time>2026-04-25T13:37:39Z</time></trkpt><trkpt lat="46.482225132995104" lon="12.055174662565268"><ele>2227.2</ele><time>2026-04-25T13:37:40Z</time></trkpt><trkpt lat="46.482164150251236" lon="12.055290773962467"><ele>2226.0</ele><time>2026-04-25T13:37:41Z</time></trkpt><trkpt lat="46.48210003228008" lon="12.055414398416834"><ele>2225.6</ele><time>2026-04-25T13:37:42Z</time></trkpt><trkpt lat="46.48203340536803" lon="12.055538330648156"><ele>2225.2</ele><time>2026-04-25T13:37:43Z</time></trkpt><trkpt lat="46.481965772169715" lon="12.055664727512301"><ele>2224.8</ele><time>2026-04-25T13:37:44Z</time></trkpt><trkpt lat="46.481898293090154" lon="12.05579196364002"><ele>2224.4</ele><time>2026-04-25T13:37:45Z</time></trkpt><trkpt lat="46.48183271843119" lon="12.055917335715138"><ele>2224.0</ele><time>2026-04-25T13:37:46Z</time></trkpt><trkpt lat="46.48176651426951" lon="12.05604278950851"><ele>2224.0</ele><time>2026-04-25T13:37:47Z</time></trkpt><trkpt lat="46.48170693236556" lon="12.056164878725037"><ele>2224.0</ele><time>2026-04-25T13:37:48Z</time></trkpt><trkpt lat="46.48165821647418" lon="12.05629119834143"><ele>2224.0</ele><time>2026-04-25T13:37:49Z</time></trkpt><trkpt lat="46.4816150913615" lon="12.056419248066295"><ele>2224.0</ele><time>2026-04-25T13:37:50Z</time></trkpt><trkpt lat="46.481578158076246" lon="12.056550721472252"><ele>2224.0</ele><time>2026-04-25T13:37:51Z</time></trkpt><trkpt lat="46.48153984316479" lon="12.05668267648688"><ele>2221.4</ele><time>2026-04-25T13:37:52Z</time></trkpt><trkpt lat="46.48150614798344" lon="12.056812339378888"><ele>2218.8</ele><time>2026-04-25T13:37:53Z</time></trkpt><trkpt lat="46.48148134205032" lon="12.056938423822038"><ele>2216.2</ele><time>2026-04-25T13:37:54Z</time></trkpt><trkpt lat="46.48147367340787" lon="12.057067056535288"><ele>2213.6</ele><time>2026-04-25T13:37:55Z</time></trkpt><trkpt lat="46.48149555229373" lon="12.057195322022338"><ele>2211.0</ele><time>2026-04-25T13:37:56Z</time></trkpt><trkpt lat="46.48155595807343" lon="12.057316077116983"><ele>2211.0</ele><time>2026-04-25T13:37:57Z</time></trkpt><trkpt lat="46.48164444199844" lon="12.057396589981638"><ele>2211.0</ele><time>2026-04-25T13:37:58Z</time></trkpt><trkpt lat="46.48174953112691" lon="12.057418206553121"><ele>2211.0</ele><time>2026-04-25T13:37:59Z</time></trkpt><trkpt lat="46.48185614904575" lon="12.057379631553577"><ele>2211.0</ele><time>2026-04-25T13:38:00Z</time></trkpt><trkpt lat="46.48195540868419" lon="12.057280350607266"><ele>2211.0</ele><time>2026-04-25T13:38:01Z</time></trkpt><trkpt lat="46.48205812457693" lon="12.057145573587752"><ele>2208.25</ele><time>2026-04-25T13:38:02Z</time></trkpt><trkpt lat="46.482173455915415" lon="12.057029530645103"><ele>2205.5</ele><time>2026-04-25T13:38:03Z</time></trkpt><trkpt lat="46.48227117526871" lon="12.056909008696852"><ele>2202.75</ele><time>2026-04-25T13:38:04Z</time></trkpt><trkpt lat="46.48236038971204" lon="12.056799833003621"><ele>2200.0</ele><time>2026-04-25T13:38:05Z</time></trkpt><trkpt lat="46.48243987787059" lon="12.056703181895767"><ele>2200.0</ele><time>2026-04-25T13:38:06Z</time></trkpt><trkpt lat="46.48251045311732" lon="12.056624029331958"><ele>2200.0</ele><time>2026-04-25T13:38:07Z</time></trkpt><trkpt lat="46.4825786397675" lon="12.056556785257037"><ele>2200.0</ele><time>2026-04-25T13:38:08Z</time></trkpt><trkpt lat="46.48266162849035" lon="12.0565781003874"><ele>2200.0</ele><time>2026-04-25T13:38:09Z</time></trkpt><trkpt lat="46.48273168903501" lon="12.05665573804595"><ele>2200.0</ele><time>2026-04-25T13:38:10Z</time></trkpt><trkpt lat="46.48275678938751" lon="12.0567986816793"><ele>2200.0</ele><time>2026-04-25T13:38:11Z</time></trkpt><trkpt lat="46.482761179957045" lon="12.056976137619673"><ele>2200.0</ele><time>2026-04-25T13:38:12Z</time></trkpt><trkpt lat="46.48276117083222" lon="12.057136309197586"><ele>2200.0</ele><time>2026-04-25T13:38:13Z</time></trkpt><trkpt lat="46.48276152813367" lon="12.057289423483805"><ele>2200.0</ele><time>2026-04-25T13:38:14Z</time></trkpt><trkpt lat="46.482758731004516" lon="12.057451984952895"><ele>2200.0</ele><time>2026-04-25T13:38:15Z</time></trkpt><trkpt lat="46.48276032409031" lon="12.05763176715617"><ele>2198.0</ele><time>2026-04-25T13:38:16Z</time></trkpt><trkpt lat="46.48276243823264" lon="12.05781287961626"><ele>2196.0</ele><time>2026-04-25T13:38:17Z</time></trkpt><trkpt lat="46.48276297757706" lon="12.058001230254959"><ele>2194.0</ele><time>2026-04-25T13:38:18Z</time></trkpt><trkpt lat="46.48276430785585" lon="12.058195353621857"><ele>2192.0</ele><time>2026-04-25T13:38:19Z</time></trkpt><trkpt lat="46.48276356450204" lon="12.05839669054563"><ele>2190.75</ele><time>2026-04-25T13:38:20Z</time></trkpt><trkpt lat="46.48276322265774" lon="12.058598407962608"><ele>2189.5</ele><time>2026-04-25T13:38:21Z</time></trkpt><trkpt lat="46.48276561000884" lon="12.058796122276224"><ele>2188.25</ele><time>2026-04-25T13:38:22Z</time></trkpt><trkpt lat="46.48277195046534" lon="12.05897366145122"><ele>2187.0</ele><time>2026-04-25T13:38:23Z</time></trkpt><trkpt lat="46.48276880555676" lon="12.059151440911078"><ele>2186.6</ele><time>2026-04-25T13:38:24Z</time></trkpt><trkpt lat="46.48276797541811" lon="12.059324024105889"><ele>2186.2</ele><time>2026-04-25T13:38:25Z</time></trkpt><trkpt lat="46.48277679072525" lon="12.059482888458072"><ele>2185.8</ele><time>2026-04-25T13:38:26Z</time></trkpt><trkpt lat="46.48280972618326" lon="12.059637184018001"><ele>2185.4</ele><time>2026-04-25T13:38:27Z</time></trkpt><trkpt lat="46.482865995649405" lon="12.059773903101854"><ele>2185.0</ele><time>2026-04-25T13:38:28Z</time></trkpt><trkpt lat="46.48295177929063" lon="12.05987765490798"><ele>2183.25</ele><time>2026-04-25T13:38:29Z</time></trkpt><trkpt lat="46.483055648185626" lon="12.059942238683224"><ele>2181.5</ele><time>2026-04-25T13:38:30Z</time></trkpt><trkpt lat="46.483168279700614" lon="12.059972583429332"><ele>2179.75</ele><time>2026-04-25T13:38:31Z</time></trkpt><trkpt lat="46.48329032940446" lon="12.059957605405947"><ele>2178.0</ele><time>2026-04-25T13:38:32Z</time></trkpt><trkpt lat="46.483416487260136" lon="12.059894930720622"><ele>2178.0</ele><time>2026-04-25T13:38:32.999Z</time></trkpt><trkpt lat="46.48354482997708" lon="12.059799869280221"><ele>2178.0</ele><time>2026-04-25T13:38:33.999Z</time></trkpt><trkpt lat="46.48368853428678" lon="12.059723163761092"><ele>2178.0</ele><time>2026-04-25T13:38:34.999Z</time></trkpt><trkpt lat="46.483838704719325" lon="12.059624576341982"><ele>2174.0</ele><time>2026-04-25T13:38:35.999Z</time></trkpt><trkpt lat="46.48401481802441" lon="12.059510343366467"><ele>2170.0</ele><time>2026-04-25T13:38:36.999Z</time></trkpt><trkpt lat="46.484207558799746" lon="12.059364956753159"><ele>2166.0</ele><time>2026-04-25T13:38:37.999Z</time></trkpt><trkpt lat="46.48438318854293" lon="12.059260340469274"><ele>2166.0</ele><time>2026-04-25T13:38:38.999Z</time></trkpt><trkpt lat="46.48454648504977" lon="12.05916570285228"><ele>2166.0</ele><time>2026-04-25T13:38:39.999Z</time></trkpt><trkpt lat="46.48469656410622" lon="12.059083085138681"><ele>2166.0</ele><time>2026-04-25T13:38:40.999Z</time></trkpt><trkpt lat="46.48483514774765" lon="12.059001922653882"><ele>2163.75</ele><time>2026-04-25T13:38:41.999Z</time></trkpt><trkpt lat="46.484963138643955" lon="12.058926902360875"><ele>2161.5</ele><time>2026-04-25T13:38:42.999Z</time></trkpt><trkpt lat="46.48508451414739" lon="12.058855684680045"><ele>2159.25</ele><time>2026-04-25T13:38:43.999Z</time></trkpt><trkpt lat="46.485199558411104" lon="12.058766140494354"><ele>2157.0</ele><time>2026-04-25T13:38:44.999Z</time></trkpt><trkpt lat="46.485297080472776" lon="12.058642262320722"><ele>2157.0</ele><time>2026-04-25T13:38:45.999Z</time></trkpt><trkpt lat="46.48539976911712" lon="12.058491286330655"><ele>2157.0</ele><time>2026-04-25T13:38:46.999Z</time></trkpt><trkpt lat="46.48549342457586" lon="12.058294497275257"><ele>2157.0</ele><time>2026-04-25T13:38:47.999Z</time></trkpt><trkpt lat="46.48558840824522" lon="12.058084835038276"><ele>2155.0</ele><time>2026-04-25T13:38:48.999Z</time></trkpt><trkpt lat="46.48567093209241" lon="12.057900361107588"><ele>2153.0</ele><time>2026-04-25T13:38:49.999Z</time></trkpt><trkpt lat="46.48573176285824" lon="12.057727334698244"><ele>2151.0</ele><time>2026-04-25T13:38:50.999Z</time></trkpt><trkpt lat="46.48581374621781" lon="12.05759946955483"><ele>2149.0</ele><time>2026-04-25T13:38:51.999Z</time></trkpt><trkpt lat="46.485872561663605" lon="12.057469308927866"><ele>2147.0</ele><time>2026-04-25T13:38:52.999Z</time></trkpt><trkpt lat="46.485963487050704" lon="12.05739107819241"><ele>2145.0</ele><time>2026-04-25T13:38:53.999Z</time></trkpt><trkpt lat="46.486070301588256" lon="12.057374731472581"><ele>2143.0</ele><time>2026-04-25T13:38:54.999Z</time></trkpt><trkpt lat="46.48619704585289" lon="12.057417943603408"><ele>2141.0</ele><time>2026-04-25T13:38:55.999Z</time></trkpt><trkpt lat="46.48633156961742" lon="12.057511487997301"><ele>2141.0</ele><time>2026-04-25T13:38:56.999Z</time></trkpt><trkpt lat="46.48647291170693" lon="12.057596385929477"><ele>2141.0</ele><time>2026-04-25T13:38:57.999Z</time></trkpt><trkpt lat="46.48661030554731" lon="12.057655088311323"><ele>2141.0</ele><time>2026-04-25T13:38:58.999Z</time></trkpt><trkpt lat="46.486743269184686" lon="12.057675610709314"><ele>2141.0</ele><time>2026-04-25T13:38:59.999Z</time></trkpt><trkpt lat="46.486878137156616" lon="12.057638124719835"><ele>2141.0</ele><time>2026-04-25T13:39:00.999Z</time></trkpt><trkpt lat="46.487029708277035" lon="12.057559734552468"><ele>2141.0</ele><time>2026-04-25T13:39:01.999Z</time></trkpt><trkpt lat="46.48718886382596" lon="12.057482377397086"><ele>2141.0</ele><time>2026-04-25T13:39:02.999Z</time></trkpt><trkpt lat="46.487324064291684" lon="12.057423513325789"><ele>2140.0</ele><time>2026-04-25T13:39:03.999Z</time></trkpt><trkpt lat="46.48744596097309" lon="12.057387058723222"><ele>2139.0</ele><time>2026-04-25T13:39:04.999Z</time></trkpt><trkpt lat="46.4875615694083" lon="12.05738516551047"><ele>2138.0</ele><time>2026-04-25T13:39:05.999Z</time></trkpt><trkpt lat="46.48767552795416" lon="12.057424552080983"><ele>2137.0</ele><time>2026-04-25T13:39:06.999Z</time></trkpt><trkpt lat="46.48780804091794" lon="12.057509309139512"><ele>2140.0</ele><time>2026-04-25T13:39:07.999Z</time></trkpt><trkpt lat="46.48794312877309" lon="12.057617669166616"><ele>2143.0</ele><time>2026-04-25T13:39:08.999Z</time></trkpt><trkpt lat="46.48807989566367" lon="12.057741827111968"><ele>2146.0</ele><time>2026-04-25T13:39:09.999Z</time></trkpt><trkpt lat="46.488208516727255" lon="12.057872745695864"><ele>2146.0</ele><time>2026-04-25T13:39:10.999Z</time></trkpt><trkpt lat="46.48832520058735" lon="12.058028788938763"><ele>2146.0</ele><time>2026-04-25T13:39:11.999Z</time></trkpt><trkpt lat="46.48842541260258" lon="12.058233531335125"><ele>2146.0</ele><time>2026-04-25T13:39:12.999Z</time></trkpt><trkpt lat="46.48851520040754" lon="12.058468786212618"><ele>2139.666666666667</ele><time>2026-04-25T13:39:13.999Z</time></trkpt><trkpt lat="46.488604821251386" lon="12.058701720951023"><ele>2133.3333333333335</ele><time>2026-04-25T13:39:14.999Z</time></trkpt><trkpt lat="46.48869057268055" lon="12.058923256272676"><ele>2127.0</ele><time>2026-04-25T13:39:15.999Z</time></trkpt><trkpt lat="46.488771057498035" lon="12.059123536952582"><ele>2126.5</ele><time>2026-04-25T13:39:16.999Z</time></trkpt><trkpt lat="46.48883217676466" lon="12.059308774216959"><ele>2126.0</ele><time>2026-04-25T13:39:17.999Z</time></trkpt><trkpt lat="46.488862603331285" lon="12.059485414951851"><ele>2125.5</ele><time>2026-04-25T13:39:18.999Z</time></trkpt><trkpt lat="46.48887559155605" lon="12.059657307749271"><ele>2125.0</ele><time>2026-04-25T13:39:19.999Z</time></trkpt><trkpt lat="46.48890108981754" lon="12.059813631011314"><ele>2125.0</ele><time>2026-04-25T13:39:20.999Z</time></trkpt><trkpt lat="46.48896864137053" lon="12.05994345662689"><ele>2125.0</ele><time>2026-04-25T13:39:21.999Z</time></trkpt><trkpt lat="46.489076723534644" lon="12.060062866107257"><ele>2125.0</ele><time>2026-04-25T13:39:22.999Z</time></trkpt><trkpt lat="46.489215669745455" lon="12.060196620775518"><ele>2125.0</ele><time>2026-04-25T13:39:23.999Z</time></trkpt><trkpt lat="46.48936614868247" lon="12.060354597084478"><ele>2122.0</ele><time>2026-04-25T13:39:24.999Z</time></trkpt><trkpt lat="46.48952439252882" lon="12.060531613533744"><ele>2119.0</ele><time>2026-04-25T13:39:26Z</time></trkpt><trkpt lat="46.48968295128038" lon="12.060714654812614"><ele>2116.0</ele><time>2026-04-25T13:39:27Z</time></trkpt><trkpt lat="46.48983472322544" lon="12.060890551535913"><ele>2109.666666666667</ele><time>2026-04-25T13:39:28Z</time></trkpt><trkpt lat="46.48997670292449" lon="12.061056172134654"><ele>2103.3333333333335</ele><time>2026-04-25T13:39:29Z</time></trkpt><trkpt lat="46.490108238069105" lon="12.06120924066826"><ele>2097.0</ele><time>2026-04-25T13:39:30Z</time></trkpt><trkpt lat="46.49022892934952" lon="12.061351707631907"><ele>2097.0</ele><time>2026-04-25T13:39:31Z</time></trkpt><trkpt lat="46.4903296189957" lon="12.061466966646462"><ele>2097.0</ele><time>2026-04-25T13:39:32Z</time></trkpt><trkpt lat="46.490430451770685" lon="12.061567747741977"><ele>2097.0</ele><time>2026-04-25T13:39:33Z</time></trkpt><trkpt lat="46.490544061772376" lon="12.061646557407968"><ele>2097.0</ele><time>2026-04-25T13:39:34Z</time></trkpt><trkpt lat="46.49067515650001" lon="12.06169064664755"><ele>2095.0</ele><time>2026-04-25T13:39:35Z</time></trkpt><trkpt lat="46.49081955323955" lon="12.061694497643293"><ele>2093.0</ele><time>2026-04-25T13:39:36Z</time></trkpt><trkpt lat="46.490967752904936" lon="12.061669295856465"><ele>2091.0</ele><time>2026-04-25T13:39:37Z</time></trkpt><trkpt lat="46.49112479135112" lon="12.061656027915797"><ele>2089.0</ele><time>2026-04-25T13:39:38Z</time></trkpt><trkpt lat="46.49128730725969" lon="12.061682506785687"><ele>2087.0</ele><time>2026-04-25T13:39:39Z</time></trkpt><trkpt lat="46.49145183490265" lon="12.061727695590285"><ele>2085.0</ele><time>2026-04-25T13:39:40Z</time></trkpt><trkpt lat="46.491601567729866" lon="12.061754515776395"><ele>2085.0</ele><time>2026-04-25T13:39:41Z</time></trkpt><trkpt lat="46.49174109005057" lon="12.061753422896016"><ele>2085.0</ele><time>2026-04-25T13:39:42Z</time></trkpt><trkpt lat="46.491868593503916" lon="12.061711224890058"><ele>2085.0</ele><time>2026-04-25T13:39:43Z</time></trkpt><trkpt lat="46.49197928586695" lon="12.061637790716327"><ele>2085.0</ele><time>2026-04-25T13:39:44Z</time></trkpt><trkpt lat="46.492088848886844" lon="12.06158075794882"><ele>2085.6666666666665</ele><time>2026-04-25T13:39:45Z</time></trkpt><trkpt lat="46.492168511805474" lon="12.061501078829142"><ele>2086.3333333333335</ele><time>2026-04-25T13:39:46Z</time></trkpt><trkpt lat="46.4922423650134" lon="12.06147935149742"><ele>2087.0</ele><time>2026-04-25T13:39:47Z</time></trkpt><trkpt lat="46.49231270137312" lon="12.061517909326362"><ele>2087.666666666667</ele><time>2026-04-25T13:39:48Z</time></trkpt><trkpt lat="46.49235249344228" lon="12.06161249223681"><ele>2088.3333333333335</ele><time>2026-04-25T13:39:49Z</time></trkpt><trkpt lat="46.492343018832834" lon="12.061722110422286"><ele>2089.0</ele><time>2026-04-25T13:39:50Z</time></trkpt><trkpt lat="46.49227577005933" lon="12.06178991547446"><ele>2088.2</ele><time>2026-04-25T13:39:51Z</time></trkpt><trkpt lat="46.49219901338383" lon="12.061870080557338"><ele>2087.4</ele><time>2026-04-25T13:39:52Z</time></trkpt><trkpt lat="46.49211143866208" lon="12.061961925600759"><ele>2086.6</ele><time>2026-04-25T13:39:53Z</time></trkpt><trkpt lat="46.492026575686566" lon="12.062090537665933"><ele>2085.8</ele><time>2026-04-25T13:39:54Z</time></trkpt><trkpt lat="46.49194879770355" lon="12.062228873522493"><ele>2085.0</ele><time>2026-04-25T13:39:55Z</time></trkpt><trkpt lat="46.49188274089267" lon="12.062357129064598"><ele>2081.8</ele><time>2026-04-25T13:39:56Z</time></trkpt><trkpt lat="46.49182210224293" lon="12.062475926944696"><ele>2078.6</ele><time>2026-04-25T13:39:57Z</time></trkpt><trkpt lat="46.49176253963986" lon="12.062585760174867"><ele>2075.4</ele><time>2026-04-25T13:39:58Z</time></trkpt><trkpt lat="46.49170257232565" lon="12.062691965678397"><ele>2072.2</ele><time>2026-04-25T13:39:59Z</time></trkpt><trkpt lat="46.491638750630386" lon="12.062780586006944"><ele>2069.0</ele><time>2026-04-25T13:40:00Z</time></trkpt><trkpt lat="46.49156037768363" lon="12.062835784170337"><ele>2069.0</ele><time>2026-04-25T13:40:01Z</time></trkpt><trkpt lat="46.491473422401484" lon="12.062848792475409"><ele>2069.0</ele><time>2026-04-25T13:40:02Z</time></trkpt><trkpt lat="46.49138032886256" lon="12.062833900638628"><ele>2069.0</ele><time>2026-04-25T13:40:03Z</time></trkpt><trkpt lat="46.49129517340244" lon="12.06281621791918"><ele>2069.0</ele><time>2026-04-25T13:40:04Z</time></trkpt><trkpt lat="46.49121667580713" lon="12.062795292134316"><ele>2069.0</ele><time>2026-04-25T13:40:05Z</time></trkpt><trkpt lat="46.4911424820375" lon="12.062778139279024"><ele>2069.0</ele><time>2026-04-25T13:40:06Z</time></trkpt><trkpt lat="46.491075666209746" lon="12.062789124495938"><ele>2069.0</ele><time>2026-04-25T13:40:07Z</time></trkpt><trkpt lat="46.49102284290637" lon="12.06284184407354"><ele>2069.0</ele><time>2026-04-25T13:40:08Z</time></trkpt><trkpt lat="46.49099733789026" lon="12.062925965731436"><ele>2069.0</ele><time>2026-04-25T13:40:09Z</time></trkpt><trkpt lat="46.49100123274568" lon="12.063023228170522"><ele>2069.0</ele><time>2026-04-25T13:40:10Z</time></trkpt><trkpt lat="46.49104162018707" lon="12.063115284288813"><ele>2069.0</ele><time>2026-04-25T13:40:11Z</time></trkpt><trkpt lat="46.491107521135305" lon="12.063176752831032"><ele>2069.0</ele><time>2026-04-25T13:40:12Z</time></trkpt><trkpt lat="46.49118956703022" lon="12.063200292961724"><ele>2069.0</ele><time>2026-04-25T13:40:13Z</time></trkpt><trkpt lat="46.49127821828382" lon="12.063209693994342"><ele>2069.0</ele><time>2026-04-25T13:40:14Z</time></trkpt><trkpt lat="46.49136697648083" lon="12.063220515439607"><ele>2069.0</ele><time>2026-04-25T13:40:15Z</time></trkpt><trkpt lat="46.49145732315952" lon="12.063238124607835"><ele>2069.0</ele><time>2026-04-25T13:40:16Z</time></trkpt><trkpt lat="46.49154302581099" lon="12.063261734297619"><ele>2069.0</ele><time>2026-04-25T13:40:17Z</time></trkpt><trkpt lat="46.491623862734926" lon="12.063280829989234"><ele>2069.0</ele><time>2026-04-25T13:40:18Z</time></trkpt><trkpt lat="46.49170270218577" lon="12.06329413405366"><ele>2069.0</ele><time>2026-04-25T13:40:19Z</time></trkpt><trkpt lat="46.49177956676589" lon="12.063298159427797"><ele>2065.833333333333</ele><time>2026-04-25T13:40:20Z</time></trkpt><trkpt lat="46.49185370068245" lon="12.063308948556875"><ele>2062.6666666666665</ele><time>2026-04-25T13:40:21Z</time></trkpt><trkpt lat="46.491921838648885" lon="12.063343709969187"><ele>2059.5</ele><time>2026-04-25T13:40:22Z</time></trkpt><trkpt lat="46.49197572077559" lon="12.063411433536364"><ele>2056.3333333333335</ele><time>2026-04-25T13:40:23Z</time></trkpt><trkpt lat="46.49200569181078" lon="12.063512290232607"><ele>2053.166666666667</ele><time>2026-04-25T13:40:24Z</time></trkpt><trkpt lat="46.49200024073711" lon="12.063632495951037"><ele>2050.0</ele><time>2026-04-25T13:40:25Z</time></trkpt><trkpt lat="46.491955184075586" lon="12.063746182591615"><ele>2050.0</ele><time>2026-04-25T13:40:26Z</time></trkpt><trkpt lat="46.49187959007974" lon="12.06381532257024"><ele>2050.0</ele><time>2026-04-25T13:40:27Z</time></trkpt><trkpt lat="46.49179274158408" lon="12.063806609896595"><ele>2050.0</ele><time>2026-04-25T13:40:28Z</time></trkpt><trkpt lat="46.49170578806542" lon="12.063828869305382"><ele>2050.0</ele><time>2026-04-25T13:40:29Z</time></trkpt><trkpt lat="46.49159938103527" lon="12.063835105085094"><ele>2050.0</ele><time>2026-04-25T13:40:30Z</time></trkpt><trkpt lat="46.49146936732652" lon="12.06379305652446"><ele>2050.0</ele><time>2026-04-25T13:40:31Z</time></trkpt><trkpt lat="46.49131714809652" lon="12.063759761474746"><ele>2050.0</ele><time>2026-04-25T13:40:31.999Z</time></trkpt><trkpt lat="46.491142714459144" lon="12.06371511902727"><ele>2050.0</ele><time>2026-04-25T13:40:32.999Z</time></trkpt><trkpt lat="46.49095551679491" lon="12.063666413547834"><ele>2048.0</ele><time>2026-04-25T13:40:33.999Z</time></trkpt><trkpt lat="46.49077316318134" lon="12.063648624644728"><ele>2046.0</ele><time>2026-04-25T13:40:34.999Z</time></trkpt><trkpt lat="46.49060649439751" lon="12.063598878856983"><ele>2044.0</ele><time>2026-04-25T13:40:35.999Z</time></trkpt><trkpt lat="46.49043920772948" lon="12.063625781822406"><ele>2043.0</ele><time>2026-04-25T13:40:36.999Z</time></trkpt><trkpt lat="46.490263076801156" lon="12.063668987689226"><ele>2042.0</ele><time>2026-04-25T13:40:37.999Z</time></trkpt><trkpt lat="46.49008288725119" lon="12.06374674742379"><ele>2041.0</ele><time>2026-04-25T13:40:38.999Z</time></trkpt><trkpt lat="46.489899042063925" lon="12.063793111545708"><ele>2041.0</ele><time>2026-04-25T13:40:39.999Z</time></trkpt><trkpt lat="46.48971778427204" lon="12.063868694750193"><ele>2041.0</ele><time>2026-04-25T13:40:40.999Z</time></trkpt><trkpt lat="46.48951193831955" lon="12.063892515063072"><ele>2041.0</ele><time>2026-04-25T13:40:41.999Z</time></trkpt><trkpt lat="46.48929414220106" lon="12.063896763148609"><ele>2037.3333333333335</ele><time>2026-04-25T13:40:42.999Z</time></trkpt><trkpt lat="46.48908932831799" lon="12.063899501116465"><ele>2033.6666666666665</ele><time>2026-04-25T13:40:43.999Z</time></trkpt><trkpt lat="46.48890262947772" lon="12.06390265185502"><ele>2030.0</ele><time>2026-04-25T13:40:44.999Z</time></trkpt><trkpt lat="46.48872624076491" lon="12.063908860002567"><ele>2029.0</ele><time>2026-04-25T13:40:45.999Z</time></trkpt><trkpt lat="46.48857413544631" lon="12.063915220382759"><ele>2028.0</ele><time>2026-04-25T13:40:46.999Z</time></trkpt><trkpt lat="46.488451240006576" lon="12.063915484638255"><ele>2027.0</ele><time>2026-04-25T13:40:47.999Z</time></trkpt><trkpt lat="46.488347690812205" lon="12.063910986078271"><ele>2026.0</ele><time>2026-04-25T13:40:48.999Z</time></trkpt><trkpt lat="46.48826434464226" lon="12.063928678998176"><ele>2026.0</ele><time>2026-04-25T13:40:49.999Z</time></trkpt><trkpt lat="46.48820651809672" lon="12.064000108307505"><ele>2026.0</ele><time>2026-04-25T13:40:50.999Z</time></trkpt><trkpt lat="46.48818996486418" lon="12.064114331103076"><ele>2026.0</ele><time>2026-04-25T13:40:51.999Z</time></trkpt><trkpt lat="46.48822352010282" lon="12.064231912749602"><ele>2026.0</ele><time>2026-04-25T13:40:52.999Z</time></trkpt><trkpt lat="46.488300389438116" lon="12.064341632348809"><ele>2026.0</ele><time>2026-04-25T13:40:53.999Z</time></trkpt><trkpt lat="46.48841712877133" lon="12.064450159819986"><ele>2021.6666666666667</ele><time>2026-04-25T13:40:54.999Z</time></trkpt><trkpt lat="46.48855158993762" lon="12.064591727597985"><ele>2017.3333333333335</ele><time>2026-04-25T13:40:55.999Z</time></trkpt><trkpt lat="46.48867552675616" lon="12.06475974702409"><ele>2013.0</ele><time>2026-04-25T13:40:56.999Z</time></trkpt><trkpt lat="46.48877384685053" lon="12.064938466414516"><ele>2010.75</ele><time>2026-04-25T13:40:57.999Z</time></trkpt><trkpt lat="46.48884086559274" lon="12.065137291533466"><ele>2008.5</ele><time>2026-04-25T13:40:58.999Z</time></trkpt><trkpt lat="46.48887352999763" lon="12.065339061838785"><ele>2006.25</ele><time>2026-04-25T13:40:59.999Z</time></trkpt><trkpt lat="46.48890538044425" lon="12.06552653314173"><ele>2004.0</ele><time>2026-04-25T13:41:00.999Z</time></trkpt><trkpt lat="46.48896520205863" lon="12.06569793183964"><ele>2001.0</ele><time>2026-04-25T13:41:01.999Z</time></trkpt><trkpt lat="46.48905226810097" lon="12.065858489084318"><ele>1998.0</ele><time>2026-04-25T13:41:02.999Z</time></trkpt><trkpt lat="46.489151677365" lon="12.065989816754266"><ele>1995.0</ele><time>2026-04-25T13:41:03.999Z</time></trkpt><trkpt lat="46.48923544680782" lon="12.066112668188437"><ele>1992.0</ele><time>2026-04-25T13:41:04.999Z</time></trkpt><trkpt lat="46.489304522109705" lon="12.06622315536793"><ele>1992.0</ele><time>2026-04-25T13:41:05.999Z</time></trkpt><trkpt lat="46.48936444362225" lon="12.066317317496143"><ele>1992.0</ele><time>2026-04-25T13:41:06.999Z</time></trkpt><trkpt lat="46.48942322168144" lon="12.066399371749348"><ele>1992.0</ele><time>2026-04-25T13:41:07.999Z</time></trkpt><trkpt lat="46.489487409979986" lon="12.066460598288494"><ele>1992.0</ele><time>2026-04-25T13:41:08.999Z</time></trkpt><trkpt lat="46.48955285372398" lon="12.066495063895657"><ele>1992.0</ele><time>2026-04-25T13:41:09.999Z</time></trkpt><trkpt lat="46.48965588945722" lon="12.066541577435002"><ele>1992.0</ele><time>2026-04-25T13:41:11.999Z</time></trkpt><trkpt lat="46.48971250558024" lon="12.06666287644391"><ele>1989.8333333333333</ele><time>2026-04-25T13:41:13.999Z</time></trkpt><trkpt lat="46.48966477472383" lon="12.06681862278636"><ele>1987.6666666666665</ele><time>2026-04-25T13:41:15.999Z</time></trkpt><trkpt lat="46.48959799505792" lon="12.066862354913594"><ele>1985.5</ele><time>2026-04-25T13:41:16.999Z</time></trkpt><trkpt lat="46.48951834467685" lon="12.066837718127854"><ele>1983.3333333333333</ele><time>2026-04-25T13:41:17.999Z</time></trkpt><trkpt lat="46.489441072464466" lon="12.06684840010728"><ele>1981.1666666666665</ele><time>2026-04-25T13:41:18.999Z</time></trkpt><trkpt lat="46.48935713145212" lon="12.066843867973335"><ele>1979.0</ele><time>2026-04-25T13:41:19.999Z</time></trkpt><trkpt lat="46.48925170703308" lon="12.066811599748027"><ele>1977.25</ele><time>2026-04-25T13:41:20.999Z</time></trkpt><trkpt lat="46.48911957707488" lon="12.066803327643393"><ele>1975.5</ele><time>2026-04-25T13:41:21.999Z</time></trkpt><trkpt lat="46.4889817276283" lon="12.066791172531646"><ele>1973.75</ele><time>2026-04-25T13:41:22.999Z</time></trkpt><trkpt lat="46.488864482411614" lon="12.066796260156142"><ele>1972.0</ele><time>2026-04-25T13:41:23.999Z</time></trkpt><trkpt lat="46.48876913648021" lon="12.066782765316342"><ele>1972.0000000000002</ele><time>2026-04-25T13:41:24.999Z</time></trkpt><trkpt lat="46.488695081511395" lon="12.066805947948987"><ele>1972.0</ele><time>2026-04-25T13:41:25.999Z</time></trkpt><trkpt lat="46.48864916032748" lon="12.06688735035867"><ele>1972.0</ele><time>2026-04-25T13:41:26.999Z</time></trkpt><trkpt lat="46.488641681726385" lon="12.067002316079861"><ele>1972.0</ele><time>2026-04-25T13:41:27.999Z</time></trkpt><trkpt lat="46.488683930451316" lon="12.067114314397443"><ele>1972.0000000000002</ele><time>2026-04-25T13:41:28.999Z</time></trkpt><trkpt lat="46.48877074383841" lon="12.06719017450251"><ele>1972.0</ele><time>2026-04-25T13:41:29.999Z</time></trkpt><trkpt lat="46.48889641285649" lon="12.067235781610433"><ele>1972.0</ele><time>2026-04-25T13:41:30.999Z</time></trkpt><trkpt lat="46.489047529294304" lon="12.067298885268778"><ele>1972.0</ele><time>2026-04-25T13:41:32Z</time></trkpt><trkpt lat="46.48917378640271" lon="12.06737484118861"><ele>1972.0</ele><time>2026-04-25T13:41:33Z</time></trkpt><trkpt lat="46.48929789735864" lon="12.067467106288351"><ele>1972.0</ele><time>2026-04-25T13:41:34Z</time></trkpt><trkpt lat="46.48942318938188" lon="12.067561742839212"><ele>1971.0</ele><time>2026-04-25T13:41:35Z</time></trkpt><trkpt lat="46.48954117165831" lon="12.067659617153527"><ele>1970.0</ele><time>2026-04-25T13:41:36Z</time></trkpt><trkpt lat="46.489657516318964" lon="12.067749667633509"><ele>1969.0</ele><time>2026-04-25T13:41:37Z</time></trkpt><trkpt lat="46.48976505854819" lon="12.067831180667179"><ele>1968.0</ele><time>2026-04-25T13:41:38Z</time></trkpt><trkpt lat="46.48986374890741" lon="12.067931782395064"><ele>1968.0</ele><time>2026-04-25T13:41:39Z</time></trkpt><trkpt lat="46.48994691550555" lon="12.068059679801257"><ele>1968.0</ele><time>2026-04-25T13:41:40Z</time></trkpt><trkpt lat="46.49001741056666" lon="12.068219788872783"><ele>1968.0</ele><time>2026-04-25T13:41:41Z</time></trkpt><trkpt lat="46.49007924252374" lon="12.068383266138527"><ele>1968.0</ele><time>2026-04-25T13:41:42Z</time></trkpt><trkpt lat="46.49013170360996" lon="12.06852733980691"><ele>1965.5</ele><time>2026-04-25T13:41:43Z</time></trkpt><trkpt lat="46.49017262514584" lon="12.068683605367625"><ele>1963.0</ele><time>2026-04-25T13:41:44Z</time></trkpt><trkpt lat="46.490195018354534" lon="12.068851452801013"><ele>1960.5</ele><time>2026-04-25T13:41:45Z</time></trkpt><trkpt lat="46.49021645840217" lon="12.069005334838666"><ele>1958.0</ele><time>2026-04-25T13:41:46Z</time></trkpt><trkpt lat="46.49026322903216" lon="12.069152525590018"><ele>1955.5</ele><time>2026-04-25T13:41:47Z</time></trkpt><trkpt lat="46.490349204707925" lon="12.06929114938591"><ele>1953.0</ele><time>2026-04-25T13:41:48Z</time></trkpt><trkpt lat="46.49045203713604" lon="12.069427563459863"><ele>1950.5</ele><time>2026-04-25T13:41:49Z</time></trkpt><trkpt lat="46.490527228832825" lon="12.069587473765509"><ele>1948.0</ele><time>2026-04-25T13:41:50Z</time></trkpt><trkpt lat="46.490576364204394" lon="12.06978556148713"><ele>1945.8000000000002</ele><time>2026-04-25T13:41:51Z</time></trkpt><trkpt lat="46.49060992275172" lon="12.069970550623522"><ele>1943.6000000000001</ele><time>2026-04-25T13:41:52Z</time></trkpt><trkpt lat="46.49063727731092" lon="12.070119664345958"><ele>1941.3999999999999</ele><time>2026-04-25T13:41:53Z</time></trkpt><trkpt lat="46.4906608173622" lon="12.070252065947486"><ele>1939.1999999999998</ele><time>2026-04-25T13:41:54Z</time></trkpt><trkpt lat="46.4906991563171" lon="12.070369563486526"><ele>1937.0</ele><time>2026-04-25T13:41:55Z</time></trkpt><trkpt lat="46.49077221677049" lon="12.07045045644215"><ele>1937.0</ele><time>2026-04-25T13:41:56Z</time></trkpt><trkpt lat="46.49088181267803" lon="12.070472671508394"><ele>1937.0</ele><time>2026-04-25T13:41:57Z</time></trkpt><trkpt lat="46.49100221412382" lon="12.070428491767377"><ele>1937.0</ele><time>2026-04-25T13:41:58Z</time></trkpt><trkpt lat="46.4911205218733" lon="12.070380819919599"><ele>1937.0</ele><time>2026-04-25T13:41:59Z</time></trkpt><trkpt lat="46.4912361195807" lon="12.070391256721003"><ele>1934.3333333333333</ele><time>2026-04-25T13:42:00Z</time></trkpt><trkpt lat="46.49136983759562" lon="12.070459700894913"><ele>1931.6666666666665</ele><time>2026-04-25T13:42:01Z</time></trkpt><trkpt lat="46.49149545726602" lon="12.070587603921739"><ele>1929.0</ele><time>2026-04-25T13:42:02Z</time></trkpt><trkpt lat="46.49160932098123" lon="12.070747610963842"><ele>1927.0</ele><time>2026-04-25T13:42:03Z</time></trkpt><trkpt lat="46.491715287777694" lon="12.070889282442709"><ele>1925.0</ele><time>2026-04-25T13:42:04Z</time></trkpt><trkpt lat="46.49181317437275" lon="12.071018690508504"><ele>1923.0</ele><time>2026-04-25T13:42:05Z</time></trkpt><trkpt lat="46.49190243329738" lon="12.07115660863984"><ele>1921.0</ele><time>2026-04-25T13:42:06Z</time></trkpt><trkpt lat="46.49198123480511" lon="12.071301753704772"><ele>1921.0</ele><time>2026-04-25T13:42:07Z</time></trkpt><trkpt lat="46.492051819274174" lon="12.071445412600035"><ele>1921.0</ele><time>2026-04-25T13:42:08Z</time></trkpt><trkpt lat="46.492134407586335" lon="12.071577770232762"><ele>1921.0</ele><time>2026-04-25T13:42:09Z</time></trkpt><trkpt lat="46.49223705903219" lon="12.071680148768236"><ele>1921.0</ele><time>2026-04-25T13:42:10Z</time></trkpt><trkpt lat="46.49234828550763" lon="12.071758033272257"><ele>1919.8</ele><time>2026-04-25T13:42:11Z</time></trkpt><trkpt lat="46.49245713355127" lon="12.071824691689844"><ele>1918.6</ele><time>2026-04-25T13:42:12Z</time></trkpt><trkpt lat="46.49256031353198" lon="12.071883818202792"><ele>1917.4</ele><time>2026-04-25T13:42:13Z</time></trkpt><trkpt lat="46.492652446898205" lon="12.071934148335055"><ele>1916.2</ele><time>2026-04-25T13:42:14Z</time></trkpt><trkpt lat="46.49271356985449" lon="12.071997534240552"><ele>1915.0</ele><time>2026-04-25T13:42:15Z</time></trkpt><trkpt lat="46.49274138727325" lon="12.07209651176253"><ele>1915.0</ele><time>2026-04-25T13:42:16Z</time></trkpt><trkpt lat="46.49272361432248" lon="12.07220504363072"><ele>1915.0</ele><time>2026-04-25T13:42:17Z</time></trkpt><trkpt lat="46.492656004031765" lon="12.072271975731347"><ele>1915.0</ele><time>2026-04-25T13:42:18Z</time></trkpt><trkpt lat="46.49256325852818" lon="12.072253269088757"><ele>1915.0</ele><time>2026-04-25T13:42:19Z</time></trkpt><trkpt lat="46.49246189411463" lon="12.07216328849673"><ele>1915.0</ele><time>2026-04-25T13:42:20Z</time></trkpt><trkpt lat="46.49234681560284" lon="12.072059573280034"><ele>1915.0000000000002</ele><time>2026-04-25T13:42:21Z</time></trkpt><trkpt lat="46.4922597358524" lon="12.071994510701336"><ele>1915.0</ele><time>2026-04-25T13:42:22Z</time></trkpt><trkpt lat="46.49218539472509" lon="12.071965379489788"><ele>1915.0</ele><time>2026-04-25T13:42:23Z</time></trkpt><trkpt lat="46.49211565355621" lon="12.072002934541253"><ele>1915.0</ele><time>2026-04-25T13:42:24Z</time></trkpt><trkpt lat="46.492064294695005" lon="12.072105226851498"><ele>1915.0000000000002</ele><time>2026-04-25T13:42:25Z</time></trkpt><trkpt lat="46.49206651597115" lon="12.07224400774204"><ele>1915.0</ele><time>2026-04-25T13:42:26Z</time></trkpt><trkpt lat="46.49211995580307" lon="12.072393362945455"><ele>1910.5</ele><time>2026-04-25T13:42:27Z</time></trkpt><trkpt lat="46.49221100452881" lon="12.072560417186807"><ele>1906.0</ele><time>2026-04-25T13:42:28Z</time></trkpt><trkpt lat="46.492287218992466" lon="12.072725583650747"><ele>1901.5</ele><time>2026-04-25T13:42:29Z</time></trkpt><trkpt lat="46.49234812360051" lon="12.07285898969469"><ele>1897.0</ele><time>2026-04-25T13:42:30Z</time></trkpt><trkpt lat="46.492421622367765" lon="12.07296277726885"><ele>1897.0</ele><time>2026-04-25T13:42:31Z</time></trkpt><trkpt lat="46.492522525148935" lon="12.073017861802098"><ele>1896.9999999999998</ele><time>2026-04-25T13:42:32Z</time></trkpt><trkpt lat="46.492640726688116" lon="12.072997892102729"><ele>1896.9999999999998</ele><time>2026-04-25T13:42:33Z</time></trkpt><trkpt lat="46.49275061475604" lon="12.072935745543768"><ele>1897.0</ele><time>2026-04-25T13:42:34Z</time></trkpt><trkpt lat="46.49285354605209" lon="12.072925751164265"><ele>1897.0</ele><time>2026-04-25T13:42:35Z</time></trkpt><trkpt lat="46.492967629188215" lon="12.07296326579561"><ele>1897.5000000000002</ele><time>2026-04-25T13:42:36Z</time></trkpt><trkpt lat="46.493059463213" lon="12.073029746833145"><ele>1898.0</ele><time>2026-04-25T13:42:36.999Z</time></trkpt><trkpt lat="46.49314728681817" lon="12.073081222930014"><ele>1898.5</ele><time>2026-04-25T13:42:37.999Z</time></trkpt><trkpt lat="46.49321328754053" lon="12.073122912689204"><ele>1899.0</ele><time>2026-04-25T13:42:38.999Z</time></trkpt><trkpt lat="46.49326012624337" lon="12.073189949391354"><ele>1899.5000000000002</ele><time>2026-04-25T13:42:39.999Z</time></trkpt><trkpt lat="46.49326760950691" lon="12.073298386806137"><ele>1900.0</ele><time>2026-04-25T13:42:40.999Z</time></trkpt><trkpt lat="46.49322586094596" lon="12.073391101504676"><ele>1897.5000000000002</ele><time>2026-04-25T13:42:41.999Z</time></trkpt><trkpt lat="46.49314829906411" lon="12.073438387990386"><ele>1895.0</ele><time>2026-04-25T13:42:42.999Z</time></trkpt><trkpt lat="46.49305036978937" lon="12.07344329255561"><ele>1892.5</ele><time>2026-04-25T13:42:43.999Z</time></trkpt><trkpt lat="46.492962131200414" lon="12.073455397117751"><ele>1890.0</ele><time>2026-04-25T13:42:44.999Z</time></trkpt><trkpt lat="46.49289710894668" lon="12.07350777811286"><ele>1887.5000000000002</ele><time>2026-04-25T13:42:45.999Z</time></trkpt><trkpt lat="46.49286033059221" lon="12.07360016756055"><ele>1885.0</ele><time>2026-04-25T13:42:46.999Z</time></trkpt><trkpt lat="46.492870118798095" lon="12.073722113579747"><ele>1885.0</ele><time>2026-04-25T13:42:47.999Z</time></trkpt><trkpt lat="46.49292668463" lon="12.073831501952448"><ele>1885.0</ele><time>2026-04-25T13:42:48.999Z</time></trkpt><trkpt lat="46.493020803719034" lon="12.073896886767123"><ele>1885.0</ele><time>2026-04-25T13:42:49.999Z</time></trkpt><trkpt lat="46.49314964896103" lon="12.073928106463164"><ele>1885.0</ele><time>2026-04-25T13:42:50.999Z</time></trkpt><trkpt lat="46.493292487311315" lon="12.073971647984227"><ele>1885.0</ele><time>2026-04-25T13:42:51.999Z</time></trkpt><trkpt lat="46.49342757414971" lon="12.07405008375637"><ele>1885.0</ele><time>2026-04-25T13:42:52.999Z</time></trkpt><trkpt lat="46.493548894385086" lon="12.074154173836169"><ele>1885.0</ele><time>2026-04-25T13:42:53.999Z</time></trkpt><trkpt lat="46.49364933634132" lon="12.074296925609525"><ele>1885.0</ele><time>2026-04-25T13:42:54.999Z</time></trkpt><trkpt lat="46.49374014052806" lon="12.074479250148784"><ele>1882.75</ele><time>2026-04-25T13:42:55.999Z</time></trkpt><trkpt lat="46.493826254336305" lon="12.07463448295128"><ele>1880.5</ele><time>2026-04-25T13:42:56.999Z</time></trkpt><trkpt lat="46.493911735479585" lon="12.074773763330473"><ele>1878.25</ele><time>2026-04-25T13:42:57.999Z</time></trkpt><trkpt lat="46.49399080468379" lon="12.074909984662616"><ele>1876.0</ele><time>2026-04-25T13:42:58.999Z</time></trkpt><trkpt lat="46.49406258192286" lon="12.075046598674643"><ele>1873.1999999999998</ele><time>2026-04-25T13:42:59.999Z</time></trkpt><trkpt lat="46.49413231625856" lon="12.075180433593143"><ele>1870.3999999999999</ele><time>2026-04-25T13:43:00.999Z</time></trkpt><trkpt lat="46.494201827176916" lon="12.075310723237278"><ele>1867.6</ele><time>2026-04-25T13:43:01.999Z</time></trkpt><trkpt lat="46.494273640128625" lon="12.075430684593456"><ele>1864.8</ele><time>2026-04-25T13:43:02.999Z</time></trkpt><trkpt lat="46.49434949877341" lon="12.075537698846345"><ele>1862.0</ele><time>2026-04-25T13:43:03.999Z</time></trkpt><trkpt lat="46.49443907779524" lon="12.07562307123422"><ele>1862.0</ele><time>2026-04-25T13:43:04.999Z</time></trkpt><trkpt lat="46.494543955482015" lon="12.075662144422651"><ele>1862.0</ele><time>2026-04-25T13:43:05.999Z</time></trkpt><trkpt lat="46.49465913524529" lon="12.075658384735016"><ele>1862.0</ele><time>2026-04-25T13:43:06.999Z</time></trkpt><trkpt lat="46.49479402183304" lon="12.075605360164214"><ele>1862.0</ele><time>2026-04-25T13:43:07.999Z</time></trkpt><trkpt lat="46.49492862213087" lon="12.075525463533358"><ele>1862.0</ele><time>2026-04-25T13:43:08.999Z</time></trkpt><trkpt lat="46.49505480841828" lon="12.075481417321495"><ele>1861.9999999999998</ele><time>2026-04-25T13:43:09.999Z</time></trkpt><trkpt lat="46.49514906825266" lon="12.075411601530003"><ele>1861.9999999999998</ele><time>2026-04-25T13:43:10.999Z</time></trkpt><trkpt lat="46.49523849232339" lon="12.07537235855115"><ele>1862.0</ele><time>2026-04-25T13:43:11.999Z</time></trkpt><trkpt lat="46.495309616500556" lon="12.075349802958081"><ele>1862.0</ele><time>2026-04-25T13:43:12.999Z</time></trkpt><trkpt lat="46.49537022576337" lon="12.075381547393862"><ele>1861.9999999999998</ele><time>2026-04-25T13:43:13.999Z</time></trkpt><trkpt lat="46.49540377138475" lon="12.075475495847842"><ele>1862.0</ele><time>2026-04-25T13:43:14.999Z</time></trkpt><trkpt lat="46.49539285794" lon="12.075585227372995"><ele>1862.0</ele><time>2026-04-25T13:43:15.999Z</time></trkpt><trkpt lat="46.49532445289043" lon="12.075662539388734"><ele>1862.0</ele><time>2026-04-25T13:43:16.999Z</time></trkpt><trkpt lat="46.49523643182815" lon="12.075687969940862"><ele>1861.9999999999998</ele><time>2026-04-25T13:43:17.999Z</time></trkpt><trkpt lat="46.49515953185126" lon="12.075675707606168"><ele>1862.0</ele><time>2026-04-25T13:43:18.999Z</time></trkpt><trkpt lat="46.495100555804655" lon="12.075727904667383"><ele>1858.1999999999998</ele><time>2026-04-25T13:43:19.999Z</time></trkpt><trkpt lat="46.4950824943374" lon="12.075850840569363"><ele>1854.3999999999999</ele><time>2026-04-25T13:43:20.999Z</time></trkpt><trkpt lat="46.495114993418085" lon="12.075957143167393"><ele>1850.6000000000001</ele><time>2026-04-25T13:43:21.999Z</time></trkpt><trkpt lat="46.495187613537624" lon="12.076027613823944"><ele>1846.8000000000002</ele><time>2026-04-25T13:43:22.999Z</time></trkpt><trkpt lat="46.49528854507062" lon="12.0760422694237"><ele>1843.0</ele><time>2026-04-25T13:43:23.999Z</time></trkpt><trkpt lat="46.49540233816842" lon="12.076035594368195"><ele>1840.8000000000002</ele><time>2026-04-25T13:43:24.999Z</time></trkpt><trkpt lat="46.49550574185029" lon="12.076056495855177"><ele>1838.6000000000001</ele><time>2026-04-25T13:43:25.999Z</time></trkpt><trkpt lat="46.49559630885633" lon="12.076095339741393"><ele>1836.3999999999999</ele><time>2026-04-25T13:43:26.999Z</time></trkpt><trkpt lat="46.4956804277454" lon="12.076143993156688"><ele>1834.1999999999998</ele><time>2026-04-25T13:43:27.999Z</time></trkpt><trkpt lat="46.495760627450586" lon="12.07618536550015"><ele>1832.0</ele><time>2026-04-25T13:43:28.999Z</time></trkpt><trkpt lat="46.495834191976456" lon="12.076228962163652"><ele>1831.9999999999998</ele><time>2026-04-25T13:43:29.999Z</time></trkpt><trkpt lat="46.49590948360018" lon="12.07624670242174"><ele>1832.0</ele><time>2026-04-25T13:43:30.999Z</time></trkpt><trkpt lat="46.49598154899858" lon="12.076204870382645"><ele>1832.0</ele><time>2026-04-25T13:43:31.999Z</time></trkpt><trkpt lat="46.496031670999095" lon="12.076097085971048"><ele>1832.0</ele><time>2026-04-25T13:43:32.999Z</time></trkpt><trkpt lat="46.49604214134733" lon="12.075952279299587"><ele>1831.9999999999998</ele><time>2026-04-25T13:43:33.999Z</time></trkpt><trkpt lat="46.496047828692774" lon="12.075810764215147"><ele>1832.0</ele><time>2026-04-25T13:43:34.999Z</time></trkpt><trkpt lat="46.49603799969922" lon="12.075685723747679"><ele>1832.4999999999998</ele><time>2026-04-25T13:43:35.999Z</time></trkpt><trkpt lat="46.49603189370771" lon="12.07558399009188"><ele>1833.0</ele><time>2026-04-25T13:43:36.999Z</time></trkpt><trkpt lat="46.49607263462637" lon="12.07549505556537"><ele>1833.5</ele><time>2026-04-25T13:43:38Z</time></trkpt><trkpt lat="46.49614459490892" lon="12.075455510177324"><ele>1834.0</ele><time>2026-04-25T13:43:39Z</time></trkpt><trkpt lat="46.4962400919908" lon="12.075472265353184"><ele>1834.4999999999998</ele><time>2026-04-25T13:43:40Z</time></trkpt><trkpt lat="46.49635120429547" lon="12.0755531420789"><ele>1835.0</ele><time>2026-04-25T13:43:41Z</time></trkpt><trkpt lat="46.49645323926971" lon="12.075621755945615"><ele>1835.0</ele><time>2026-04-25T13:43:42Z</time></trkpt><trkpt lat="46.49655885515418" lon="12.075678961007021"><ele>1835.0</ele><time>2026-04-25T13:43:43Z</time></trkpt><trkpt lat="46.49666031511038" lon="12.075736615403327"><ele>1835.0</ele><time>2026-04-25T13:43:44Z</time></trkpt><trkpt lat="46.496759806216176" lon="12.075798872397371"><ele>1835.0</ele><time>2026-04-25T13:43:45Z</time></trkpt><trkpt lat="46.496855086379696" lon="12.07585389342011"><ele>1835.0</ele><time>2026-04-25T13:43:46Z</time></trkpt><trkpt lat="46.4969493954338" lon="12.075909515319308"><ele>1831.6</ele><time>2026-04-25T13:43:47Z</time></trkpt><trkpt lat="46.49703995074958" lon="12.075967347923697"><ele>1828.2</ele><time>2026-04-25T13:43:48Z</time></trkpt><trkpt lat="46.49713026783495" lon="12.07601976749876"><ele>1824.8000000000002</ele><time>2026-04-25T13:43:49Z</time></trkpt><trkpt lat="46.497219695651175" lon="12.076066352467782"><ele>1821.4</ele><time>2026-04-25T13:43:50Z</time></trkpt><trkpt lat="46.49730990903706" lon="12.076086112680942"><ele>1818.0</ele><time>2026-04-25T13:43:51Z</time></trkpt><trkpt lat="46.497400193892894" lon="12.076086696112599"><ele>1817.0</ele><time>2026-04-25T13:43:52Z</time></trkpt><trkpt lat="46.49748801867623" lon="12.076070404121312"><ele>1816.0</ele><time>2026-04-25T13:43:53Z</time></trkpt><trkpt lat="46.4975788841764" lon="12.076043753817551"><ele>1815.0</ele><time>2026-04-25T13:43:54Z</time></trkpt><trkpt lat="46.49766603589373" lon="12.07601242855978"><ele>1814.0</ele><time>2026-04-25T13:43:55Z</time></trkpt><trkpt lat="46.49775013831935" lon="12.075986346929259"><ele>1813.0</ele><time>2026-04-25T13:43:56Z</time></trkpt><trkpt lat="46.49783136604556" lon="12.075958918791876"><ele>1812.0</ele><time>2026-04-25T13:43:57Z</time></trkpt><trkpt lat="46.49790884716721" lon="12.075929100294818"><ele>1811.0</ele><time>2026-04-25T13:43:58Z</time></trkpt><trkpt lat="46.4979845573811" lon="12.075893037423178"><ele>1810.0</ele><time>2026-04-25T13:43:59Z</time></trkpt><trkpt lat="46.498058415525016" lon="12.075854736716675"><ele>1809.0</ele><time>2026-04-25T13:44:00Z</time></trkpt><trkpt lat="46.49813200917798" lon="12.075815035808002"><ele>1808.0</ele><time>2026-04-25T13:44:01Z</time></trkpt><trkpt lat="46.49820977539471" lon="12.075785509232876"><ele>1807.0</ele><time>2026-04-25T13:44:02Z</time></trkpt><trkpt lat="46.4982973983271" lon="12.075756694477146"><ele>1806.0</ele><time>2026-04-25T13:44:03Z</time></trkpt><trkpt lat="46.49838726493355" lon="12.075746777872444"><ele>1808.6</ele><time>2026-04-25T13:44:04Z</time></trkpt><trkpt lat="46.49848264704585" lon="12.075735556116802"><ele>1811.1999999999998</ele><time>2026-04-25T13:44:05Z</time></trkpt><trkpt lat="46.49858056064228" lon="12.075726773096358"><ele>1813.8000000000002</ele><time>2026-04-25T13:44:06Z</time></trkpt><trkpt lat="46.49868143512405" lon="12.075720115043"><ele>1816.4</ele><time>2026-04-25T13:44:07Z</time></trkpt><trkpt lat="46.49878637810161" lon="12.075708361374497"><ele>1819.0</ele><time>2026-04-25T13:44:08Z</time></trkpt><trkpt lat="46.49889072276257" lon="12.075694616625649"><ele>1819.0</ele><time>2026-04-25T13:44:09Z</time></trkpt><trkpt lat="46.49899790887851" lon="12.075676861464212"><ele>1819.0</ele><time>2026-04-25T13:44:10Z</time></trkpt><trkpt lat="46.49910568099456" lon="12.075660655114163"><ele>1819.0</ele><time>2026-04-25T13:44:11Z</time></trkpt><trkpt lat="46.49921437528855" lon="12.075645663011459"><ele>1819.0</ele><time>2026-04-25T13:44:12Z</time></trkpt><trkpt lat="46.49932426149925" lon="12.075625181169487"><ele>1819.0</ele><time>2026-04-25T13:44:13Z</time></trkpt><trkpt lat="46.49943451815149" lon="12.075607205175492"><ele>1819.0</ele><time>2026-04-25T13:44:14Z</time></trkpt><trkpt lat="46.49954688356378" lon="12.075591934417925"><ele>1819.0</ele><time>2026-04-25T13:44:15Z</time></trkpt><trkpt lat="46.4996589509058" lon="12.075576875639857"><ele>1819.0</ele><time>2026-04-25T13:44:16Z</time></trkpt><trkpt lat="46.49977249463733" lon="12.075568052218868"><ele>1819.0</ele><time>2026-04-25T13:44:17Z</time></trkpt><trkpt lat="46.49988522605233" lon="12.075557603726057"><ele>1816.2</ele><time>2026-04-25T13:44:18Z</time></trkpt><trkpt lat="46.499996546243025" lon="12.075554800169622"><ele>1813.4</ele><time>2026-04-25T13:44:19Z</time></trkpt><trkpt lat="46.50010138054595" lon="12.075547357089537"><ele>1810.6</ele><time>2026-04-25T13:44:20Z</time></trkpt><trkpt lat="46.50020042383385" lon="12.075547389514815"><ele>1807.8</ele><time>2026-04-25T13:44:21Z</time></trkpt><trkpt lat="46.50029259561588" lon="12.075545386461588"><ele>1805.0</ele><time>2026-04-25T13:44:22Z</time></trkpt><trkpt lat="46.50037837066447" lon="12.075548802780785"><ele>1802.9999999999998</ele><time>2026-04-25T13:44:23Z</time></trkpt><trkpt lat="46.50045716816598" lon="12.075553280156837"><ele>1801.0</ele><time>2026-04-25T13:44:24Z</time></trkpt><trkpt lat="46.50053755678909" lon="12.075554919496833"><ele>1799.0</ele><time>2026-04-25T13:44:25Z</time></trkpt><trkpt lat="46.50061955740954" lon="12.075561489580265"><ele>1797.0</ele><time>2026-04-25T13:44:26Z</time></trkpt><trkpt lat="46.50070112885178" lon="12.075570041230975"><ele>1794.9999999999998</ele><time>2026-04-25T13:44:27Z</time></trkpt><trkpt lat="46.50078418875557" lon="12.075579939222973"><ele>1793.0</ele><time>2026-04-25T13:44:28Z</time></trkpt><trkpt lat="46.500867402057054" lon="12.075581472525828"><ele>1792.9999999999998</ele><time>2026-04-25T13:44:29Z</time></trkpt><trkpt lat="46.50095150692239" lon="12.075575866968205"><ele>1793.0</ele><time>2026-04-25T13:44:30Z</time></trkpt><trkpt lat="46.50103106955248" lon="12.075579702664847"><ele>1793.0</ele><time>2026-04-25T13:44:31Z</time></trkpt><trkpt lat="46.50112219192459" lon="12.075570689059917"><ele>1793.0</ele><time>2026-04-25T13:44:32Z</time></trkpt><trkpt lat="46.501203285862665" lon="12.075541584288088"><ele>1792.9999999999998</ele><time>2026-04-25T13:44:33Z</time></trkpt><trkpt lat="46.501283348555624" lon="12.075484538464533"><ele>1793.0</ele><time>2026-04-25T13:44:34Z</time></trkpt><trkpt lat="46.50135490560154" lon="12.07540175339485"><ele>1789.8000000000002</ele><time>2026-04-25T13:44:35Z</time></trkpt><trkpt lat="46.50142080952277" lon="12.075300235191108"><ele>1786.6000000000001</ele><time>2026-04-25T13:44:36Z</time></trkpt><trkpt lat="46.50149924485714" lon="12.075226640235455"><ele>1783.3999999999999</ele><time>2026-04-25T13:44:37Z</time></trkpt><trkpt lat="46.501588132328145" lon="12.075187844412554"><ele>1780.1999999999998</ele><time>2026-04-25T13:44:38Z</time></trkpt><trkpt lat="46.501674195430496" lon="12.0751663602192"><ele>1777.0</ele><time>2026-04-25T13:44:39Z</time></trkpt><trkpt lat="46.50175625677654" lon="12.075145275700537"><ele>1777.0000000000002</ele><time>2026-04-25T13:44:40Z</time></trkpt><trkpt lat="46.501835880917945" lon="12.075126346328524"><ele>1777.0</ele><time>2026-04-25T13:44:41Z</time></trkpt><trkpt lat="46.50190642783197" lon="12.07511748057951"><ele>1777.0</ele><time>2026-04-25T13:44:42Z</time></trkpt><trkpt lat="46.50196907332235" lon="12.075139810883842"><ele>1777.0</ele><time>2026-04-25T13:44:43Z</time></trkpt><trkpt lat="46.50200607639333" lon="12.075225991833687"><ele>1777.0000000000002</ele><time>2026-04-25T13:44:43.999Z</time></trkpt><trkpt lat="46.50200337291024" lon="12.075341236296437"><ele>1777.0</ele><time>2026-04-25T13:44:44.999Z</time></trkpt><trkpt lat="46.50193351933933" lon="12.075409908649613"><ele>1777.0000000000002</ele><time>2026-04-25T13:44:45.999Z</time></trkpt><trkpt lat="46.50185859127519" lon="12.07542042924216"><ele>1777.0</ele><time>2026-04-25T13:44:46.999Z</time></trkpt><trkpt lat="46.50177312761359" lon="12.07543771958359"><ele>1777.0</ele><time>2026-04-25T13:44:47.999Z</time></trkpt><trkpt lat="46.50169022279035" lon="12.07542932326972"><ele>1777.0</ele><time>2026-04-25T13:44:48.999Z</time></trkpt><trkpt lat="46.501623155667275" lon="12.075463857203356"><ele>1777.0000000000002</ele><time>2026-04-25T13:44:49.999Z</time></trkpt><trkpt lat="46.5015778582648" lon="12.075537841196548"><ele>1777.0</ele><time>2026-04-25T13:44:50.999Z</time></trkpt><trkpt lat="46.50156120640311" lon="12.075645706310736"><ele>1777.0</ele><time>2026-04-25T13:44:51.999Z</time></trkpt><trkpt lat="46.501593357221594" lon="12.075758425364171"><ele>1776.9999999999998</ele><time>2026-04-25T13:44:52.999Z</time></trkpt><trkpt lat="46.5016617828251" lon="12.075825485699363"><ele>1776.9999999999998</ele><time>2026-04-25T13:44:53.999Z</time></trkpt><trkpt lat="46.501754765777626" lon="12.075826854319947"><ele>1777.0</ele><time>2026-04-25T13:44:54.999Z</time></trkpt><trkpt lat="46.50185614948394" lon="12.075757046798548"><ele>1777.0</ele><time>2026-04-25T13:44:55.999Z</time></trkpt><trkpt lat="46.50194615896375" lon="12.075685615688181"><ele>1777.0000000000002</ele><time>2026-04-25T13:44:56.999Z</time></trkpt><trkpt lat="46.50203472634447" lon="12.075632046783584"><ele>1777.0</ele><time>2026-04-25T13:44:57.999Z</time></trkpt><trkpt lat="46.502118712441096" lon="12.075578810162789"><ele>1777.0</ele><time>2026-04-25T13:44:58.999Z</time></trkpt><trkpt lat="46.502198185659665" lon="12.075527808715032"><ele>1777.0</ele><time>2026-04-25T13:44:59.999Z</time></trkpt><trkpt lat="46.50226316757356" lon="12.075501889152875"><ele>1777.0000000000002</ele><time>2026-04-25T13:45:00.999Z</time></trkpt><trkpt lat="46.50232862122585" lon="12.075531338668164"><ele>1777.0</ele><time>2026-04-25T13:45:01.999Z</time></trkpt><trkpt lat="46.502371506256814" lon="12.075623472926525"><ele>1775.7142857142858</ele><time>2026-04-25T13:45:02.999Z</time></trkpt><trkpt lat="46.502366463834214" lon="12.075730167340184"><ele>1774.4285714285713</ele><time>2026-04-25T13:45:03.999Z</time></trkpt><trkpt lat="46.50231514588951" lon="12.075800683436011"><ele>1773.1428571428573</ele><time>2026-04-25T13:45:04.999Z</time></trkpt><trkpt lat="46.50224234492243" lon="12.075827487904592"><ele>1771.857142857143</ele><time>2026-04-25T13:45:05.999Z</time></trkpt><trkpt lat="46.50216496005039" lon="12.0758245502215"><ele>1770.5714285714287</ele><time>2026-04-25T13:45:06.999Z</time></trkpt><trkpt lat="46.502094918172496" lon="12.075838520435733"><ele>1769.2857142857144</ele><time>2026-04-25T13:45:07.999Z</time></trkpt><trkpt lat="46.502044945432665" lon="12.075912842837006"><ele>1768.0</ele><time>2026-04-25T13:45:08.999Z</time></trkpt><trkpt lat="46.50203612737436" lon="12.076033777158347"><ele>1766.8333333333335</ele><time>2026-04-25T13:45:09.999Z</time></trkpt><trkpt lat="46.502076370723316" lon="12.076132820998057"><ele>1765.6666666666667</ele><time>2026-04-25T13:45:10.999Z</time></trkpt><trkpt lat="46.502152780213" lon="12.07619444488683"><ele>1764.5</ele><time>2026-04-25T13:45:11.999Z</time></trkpt><trkpt lat="46.50224611188697" lon="12.076199163749965"><ele>1763.3333333333335</ele><time>2026-04-25T13:45:12.999Z</time></trkpt><trkpt lat="46.50233821475219" lon="12.076172063549018"><ele>1762.1666666666667</ele><time>2026-04-25T13:45:13.999Z</time></trkpt><trkpt lat="46.502425671443895" lon="12.076148463101191"><ele>1761.0</ele><time>2026-04-25T13:45:14.999Z</time></trkpt><trkpt lat="46.50251233588706" lon="12.076126776827195"><ele>1762.1666666666667</ele><time>2026-04-25T13:45:15.999Z</time></trkpt><trkpt lat="46.502585261296844" lon="12.07607464876266"><ele>1763.3333333333335</ele><time>2026-04-25T13:45:16.999Z</time></trkpt><trkpt lat="46.50263634996367" lon="12.0759839522821"><ele>1764.5</ele><time>2026-04-25T13:45:17.999Z</time></trkpt><trkpt lat="46.50268041232701" lon="12.07588812857196"><ele>1765.6666666666667</ele><time>2026-04-25T13:45:18.999Z</time></trkpt><trkpt lat="46.502693228288415" lon="12.075781451902264"><ele>1766.8333333333335</ele><time>2026-04-25T13:45:19.999Z</time></trkpt><trkpt lat="46.5027259946488" lon="12.075605587138451"><ele>1768.0</ele><time>2026-04-25T13:45:21.999Z</time></trkpt><trkpt lat="46.50278508444369" lon="12.07555776051624"><ele>1768.0000000000002</ele><time>2026-04-25T13:45:22.999Z</time></trkpt><trkpt lat="46.50285759860044" lon="12.075559177826229"><ele>1768.0</ele><time>2026-04-25T13:45:23.999Z</time></trkpt><trkpt lat="46.50292551255358" lon="12.0756288077023"><ele>1768.0</ele><time>2026-04-25T13:45:24.999Z</time></trkpt><trkpt lat="46.50295415325397" lon="12.075745958925323"><ele>1768.0</ele><time>2026-04-25T13:45:25.999Z</time></trkpt><trkpt lat="46.50295064049164" lon="12.075868491517827"><ele>1768.0000000000002</ele><time>2026-04-25T13:45:26.999Z</time></trkpt><trkpt lat="46.502940684856576" lon="12.075994363091013"><ele>1768.0</ele><time>2026-04-25T13:45:27.999Z</time></trkpt><trkpt lat="46.50293643008793" lon="12.076127803688967"><ele>1763.0000000000002</ele><time>2026-04-25T13:45:28.999Z</time></trkpt><trkpt lat="46.50293532159795" lon="12.076265031951628"><ele>1758.0</ele><time>2026-04-25T13:45:29.999Z</time></trkpt><trkpt lat="46.50293609139746" lon="12.076392878378858"><ele>1753.0</ele><time>2026-04-25T13:45:30.999Z</time></trkpt><trkpt lat="46.502957716974365" lon="12.076501643776732"><ele>1748.0</ele><time>2026-04-25T13:45:31.999Z</time></trkpt><trkpt lat="46.503020569030774" lon="12.076568513060538"><ele>1743.0000000000002</ele><time>2026-04-25T13:45:32.999Z</time></trkpt><trkpt lat="46.503108190273686" lon="12.076572589171066"><ele>1738.0</ele><time>2026-04-25T13:45:33.999Z</time></trkpt><trkpt lat="46.50320367098221" lon="12.076519906822126"><ele>1738.0</ele><time>2026-04-25T13:45:34.999Z</time></trkpt><trkpt lat="46.503294779688716" lon="12.076439144797531"><ele>1738.0000000000002</ele><time>2026-04-25T13:45:35.999Z</time></trkpt><trkpt lat="46.5033859221701" lon="12.076404147535287"><ele>1738.0000000000002</ele><time>2026-04-25T13:45:36.999Z</time></trkpt><trkpt lat="46.503473545700786" lon="12.076359192751013"><ele>1738.0</ele><time>2026-04-25T13:45:37.999Z</time></trkpt><trkpt lat="46.50357130632664" lon="12.07637228951939"><ele>1738.0</ele><time>2026-04-25T13:45:38.999Z</time></trkpt><trkpt lat="46.50366987244072" lon="12.076427682570307"><ele>1737.6000000000001</ele><time>2026-04-25T13:45:39.999Z</time></trkpt><trkpt lat="46.50375913796791" lon="12.076526481840796"><ele>1737.2000000000003</ele><time>2026-04-25T13:45:40.999Z</time></trkpt><trkpt lat="46.503837660902164" lon="12.07661762868647"><ele>1736.8</ele><time>2026-04-25T13:45:41.999Z</time></trkpt><trkpt lat="46.503915565756095" lon="12.076690765621208"><ele>1736.4</ele><time>2026-04-25T13:45:42.999Z</time></trkpt><trkpt lat="46.503980249528645" lon="12.076779316061204"><ele>1736.0</ele><time>2026-04-25T13:45:44Z</time></trkpt><trkpt lat="46.50405183593227" lon="12.076846077103669"><ele>1733.6</ele><time>2026-04-25T13:45:45Z</time></trkpt><trkpt lat="46.50412225266072" lon="12.076917265089044"><ele>1731.1999999999998</ele><time>2026-04-25T13:45:46Z</time></trkpt><trkpt lat="46.50419744357546" lon="12.076977849236176"><ele>1728.8000000000002</ele><time>2026-04-25T13:45:47Z</time></trkpt><trkpt lat="46.50429009603407" lon="12.077023180462012"><ele>1726.4</ele><time>2026-04-25T13:45:48Z</time></trkpt><trkpt lat="46.504386048041496" lon="12.0770502664312"><ele>1724.0</ele><time>2026-04-25T13:45:49Z</time></trkpt><trkpt lat="46.50448224038509" lon="12.077047693891588"><ele>1723.9999999999998</ele><time>2026-04-25T13:45:50Z</time></trkpt><trkpt lat="46.504577629133514" lon="12.07704851996955"><ele>1724.0</ele><time>2026-04-25T13:45:51Z</time></trkpt><trkpt lat="46.5046625059607" lon="12.077055211041564"><ele>1724.0</ele><time>2026-04-25T13:45:52Z</time></trkpt><trkpt lat="46.50473732006867" lon="12.077056313748585"><ele>1724.0</ele><time>2026-04-25T13:45:53Z</time></trkpt><trkpt lat="46.50480635159981" lon="12.077047628645577"><ele>1723.9999999999998</ele><time>2026-04-25T13:45:54Z</time></trkpt><trkpt lat="46.504874129575015" lon="12.07702938674103"><ele>1724.0</ele><time>2026-04-25T13:45:55Z</time></trkpt><trkpt lat="46.50493674508888" lon="12.076992532073437"><ele>1723.142857142857</ele><time>2026-04-25T13:45:56Z</time></trkpt><trkpt lat="46.50499691301595" lon="12.076940404546145"><ele>1722.2857142857142</ele><time>2026-04-25T13:45:57Z</time></trkpt><trkpt lat="46.50505585446844" lon="12.076882232990723"><ele>1721.4285714285713</ele><time>2026-04-25T13:45:58Z</time></trkpt><trkpt lat="46.50511223642933" lon="12.076826385040713"><ele>1720.5714285714284</ele><time>2026-04-25T13:45:59Z</time></trkpt><trkpt lat="46.505172565258455" lon="12.076785541584051"><ele>1719.7142857142858</ele><time>2026-04-25T13:46:00Z</time></trkpt><trkpt lat="46.50523684680433" lon="12.07678370093096"><ele>1718.8571428571427</ele><time>2026-04-25T13:46:01Z</time></trkpt><trkpt lat="46.505302049545406" lon="12.076832162313515"><ele>1718.0</ele><time>2026-04-25T13:46:02Z</time></trkpt><trkpt lat="46.50534932249468" lon="12.07692364225035"><ele>1717.9999999999998</ele><time>2026-04-25T13:46:03Z</time></trkpt><trkpt lat="46.505379752360824" lon="12.077028820448538"><ele>1718.0</ele><time>2026-04-25T13:46:04Z</time></trkpt><trkpt lat="46.505414638300955" lon="12.077126632561397"><ele>1718.0</ele><time>2026-04-25T13:46:05Z</time></trkpt><trkpt lat="46.5054556176582" lon="12.077224627184732"><ele>1718.0</ele><time>2026-04-25T13:46:06Z</time></trkpt><trkpt lat="46.505497092969186" lon="12.07732619326137"><ele>1717.9999999999998</ele><time>2026-04-25T13:46:07Z</time></trkpt><trkpt lat="46.505537687072994" lon="12.077427856644722"><ele>1718.0</ele><time>2026-04-25T13:46:08Z</time></trkpt><trkpt lat="46.50557448480667" lon="12.077535221873209"><ele>1717.1666666666665</ele><time>2026-04-25T13:46:09Z</time></trkpt><trkpt lat="46.50560335174723" lon="12.077648644787011"><ele>1716.3333333333333</ele><time>2026-04-25T13:46:10Z</time></trkpt><trkpt lat="46.50563262222006" lon="12.077761193283909"><ele>1715.5</ele><time>2026-04-25T13:46:11Z</time></trkpt><trkpt lat="46.50566045136532" lon="12.07787727842631"><ele>1714.6666666666665</ele><time>2026-04-25T13:46:12Z</time></trkpt><trkpt lat="46.50568671270661" lon="12.077985932243934"><ele>1713.8333333333333</ele><time>2026-04-25T13:46:13Z</time></trkpt><trkpt lat="46.50571075676412" lon="12.078092385507937"><ele>1713.0</ele><time>2026-04-25T13:46:14Z</time></trkpt><trkpt lat="46.505731244554056" lon="12.078197941931935"><ele>1712.0</ele><time>2026-04-25T13:46:15Z</time></trkpt><trkpt lat="46.50575416484909" lon="12.078297774190169"><ele>1711.0</ele><time>2026-04-25T13:46:16Z</time></trkpt><trkpt lat="46.50577660368862" lon="12.07839662081944"><ele>1710.0</ele><time>2026-04-25T13:46:17Z</time></trkpt><trkpt lat="46.50580258133231" lon="12.078490907546794"><ele>1709.0</ele><time>2026-04-25T13:46:18Z</time></trkpt><trkpt lat="46.505827573083664" lon="12.078582991468348"><ele>1708.0</ele><time>2026-04-25T13:46:19Z</time></trkpt><trkpt lat="46.505850653757754" lon="12.078675799289284"><ele>1707.0</ele><time>2026-04-25T13:46:20Z</time></trkpt><trkpt lat="46.50587651560716" lon="12.078764671877693"><ele>1706.0</ele><time>2026-04-25T13:46:21Z</time></trkpt><trkpt lat="46.50590453216895" lon="12.078854297916955"><ele>1706.0</ele><time>2026-04-25T13:46:22Z</time></trkpt><trkpt lat="46.50592650644567" lon="12.078944401118738"><ele>1706.0</ele><time>2026-04-25T13:46:23Z</time></trkpt><trkpt lat="46.50594793195698" lon="12.079035261124497"><ele>1706.0</ele><time>2026-04-25T13:46:24Z</time></trkpt><trkpt lat="46.5059778610226" lon="12.079124282045719"><ele>1706.0</ele><time>2026-04-25T13:46:25Z</time></trkpt><trkpt lat="46.50600704967099" lon="12.079218708760694"><ele>1706.0</ele><time>2026-04-25T13:46:26Z</time></trkpt><trkpt lat="46.506040127803324" lon="12.079313311993234"><ele>1706.0</ele><time>2026-04-25T13:46:27Z</time></trkpt><trkpt lat="46.506072042101096" lon="12.079414078267735"><ele>1706.0</ele><time>2026-04-25T13:46:28Z</time></trkpt><trkpt lat="46.50610504403206" lon="12.079515131942768"><ele>1706.142857142857</ele><time>2026-04-25T13:46:29Z</time></trkpt><trkpt lat="46.50613809961393" lon="12.07961577826566"><ele>1706.2857142857144</ele><time>2026-04-25T13:46:30Z</time></trkpt><trkpt lat="46.5061807794983" lon="12.079708173730051"><ele>1706.4285714285716</ele><time>2026-04-25T13:46:31Z</time></trkpt><trkpt lat="46.50622372200912" lon="12.07979602268506"><ele>1706.5714285714284</ele><time>2026-04-25T13:46:32Z</time></trkpt><trkpt lat="46.5062680816011" lon="12.079872843940683"><ele>1706.7142857142858</ele><time>2026-04-25T13:46:33Z</time></trkpt><trkpt lat="46.50631974233307" lon="12.079939032373355"><ele>1706.857142857143</ele><time>2026-04-25T13:46:34Z</time></trkpt><trkpt lat="46.50636509972832" lon="12.08000739181153"><ele>1707.0</ele><time>2026-04-25T13:46:35Z</time></trkpt><trkpt lat="46.506416409478646" lon="12.080080736660772"><ele>1704.6</ele><time>2026-04-25T13:46:36Z</time></trkpt><trkpt lat="46.50648084965141" lon="12.080167886103231"><ele>1702.1999999999998</ele><time>2026-04-25T13:46:37Z</time></trkpt><trkpt lat="46.50654850744717" lon="12.080264375554743"><ele>1699.8</ele><time>2026-04-25T13:46:38Z</time></trkpt><trkpt lat="46.506614897360436" lon="12.080358700552676"><ele>1697.4</ele><time>2026-04-25T13:46:39Z</time></trkpt><trkpt lat="46.506686464242584" lon="12.080450236085985"><ele>1695.0</ele><time>2026-04-25T13:46:40Z</time></trkpt><trkpt lat="46.50676251127964" lon="12.080546034300442"><ele>1695.0</ele><time>2026-04-25T13:46:41Z</time></trkpt><trkpt lat="46.506834184546186" lon="12.080652562342749"><ele>1695.0</ele><time>2026-04-25T13:46:42Z</time></trkpt><trkpt lat="46.50691137773853" lon="12.080758718956888"><ele>1695.0</ele><time>2026-04-25T13:46:43Z</time></trkpt><trkpt lat="46.50699017947287" lon="12.080868930872814"><ele>1695.0</ele><time>2026-04-25T13:46:43.999Z</time></trkpt><trkpt lat="46.50707284740454" lon="12.080979653017199"><ele>1695.0</ele><time>2026-04-25T13:46:44.999Z</time></trkpt><trkpt lat="46.50715355413986" lon="12.081097325767212"><ele>1694.0</ele><time>2026-04-25T13:46:45.999Z</time></trkpt><trkpt lat="46.507236677387006" lon="12.081216606605896"><ele>1693.0</ele><time>2026-04-25T13:46:46.999Z</time></trkpt><trkpt lat="46.50732248743093" lon="12.081333711425067"><ele>1692.0</ele><time>2026-04-25T13:46:47.999Z</time></trkpt><trkpt lat="46.507411070006604" lon="12.081456598535405"><ele>1691.0</ele><time>2026-04-25T13:46:48.999Z</time></trkpt><trkpt lat="46.50749849906552" lon="12.081578708822263"><ele>1690.75</ele><time>2026-04-25T13:46:49.999Z</time></trkpt><trkpt lat="46.50758389349914" lon="12.081712291714334"><ele>1690.5</ele><time>2026-04-25T13:46:50.999Z</time></trkpt><trkpt lat="46.50767247521535" lon="12.081829788122363"><ele>1690.25</ele><time>2026-04-25T13:46:51.999Z</time></trkpt><trkpt lat="46.50775820896487" lon="12.0819515221911"><ele>1690.0</ele><time>2026-04-25T13:46:52.999Z</time></trkpt><trkpt lat="46.5078419168691" lon="12.082071354016977"><ele>1689.5</ele><time>2026-04-25T13:46:53.999Z</time></trkpt><trkpt lat="46.50792860796342" lon="12.08218766647838"><ele>1689.0</ele><time>2026-04-25T13:46:54.999Z</time></trkpt><trkpt lat="46.508012861709595" lon="12.082306815048794"><ele>1688.5</ele><time>2026-04-25T13:46:55.999Z</time></trkpt><trkpt lat="46.508097052460066" lon="12.082427426598917"><ele>1688.0</ele><time>2026-04-25T13:46:56.999Z</time></trkpt><trkpt lat="46.50818078081563" lon="12.08256058165294"><ele>1684.75</ele><time>2026-04-25T13:46:57.999Z</time></trkpt><trkpt lat="46.508250446676655" lon="12.0827170507189"><ele>1681.5</ele><time>2026-04-25T13:46:58.999Z</time></trkpt><trkpt lat="46.508308807670474" lon="12.082880348387546"><ele>1678.25</ele><time>2026-04-25T13:46:59.999Z</time></trkpt><trkpt lat="46.508363188368115" lon="12.083044645119205"><ele>1675.0</ele><time>2026-04-25T13:47:00.999Z</time></trkpt><trkpt lat="46.508417644032015" lon="12.083200030522207"><ele>1673.75</ele><time>2026-04-25T13:47:01.999Z</time></trkpt><trkpt lat="46.50848827630589" lon="12.083344172558379"><ele>1672.5</ele><time>2026-04-25T13:47:02.999Z</time></trkpt><trkpt lat="46.50859056326986" lon="12.083454358957198"><ele>1671.25</ele><time>2026-04-25T13:47:03.999Z</time></trkpt><trkpt lat="46.508729812000894" lon="12.083543857295581"><ele>1670.0</ele><time>2026-04-25T13:47:04.999Z</time></trkpt><trkpt lat="46.50887387085168" lon="12.083611629665743"><ele>1670.0</ele><time>2026-04-25T13:47:05.999Z</time></trkpt><trkpt lat="46.50899689766384" lon="12.083682757894938"><ele>1670.0</ele><time>2026-04-25T13:47:06.999Z</time></trkpt><trkpt lat="46.50911698649704" lon="12.083762259805109"><ele>1670.0</ele><time>2026-04-25T13:47:07.999Z</time></trkpt><trkpt lat="46.509221329501436" lon="12.083858327265352"><ele>1670.0</ele><time>2026-04-25T13:47:08.999Z</time></trkpt><trkpt lat="46.50931215311416" lon="12.083971966027832"><ele>1670.2</ele><time>2026-04-25T13:47:09.999Z</time></trkpt><trkpt lat="46.50940033985204" lon="12.084097774396561"><ele>1670.4</ele><time>2026-04-25T13:47:10.999Z</time></trkpt><trkpt lat="46.50948270591404" lon="12.08421633508348"><ele>1670.6</ele><time>2026-04-25T13:47:11.999Z</time></trkpt><trkpt lat="46.50955949186142" lon="12.084315286723424"><ele>1670.8</ele><time>2026-04-25T13:47:12.999Z</time></trkpt><trkpt lat="46.509644921166725" lon="12.084394943793104"><ele>1671.0</ele><time>2026-04-25T13:47:13.999Z</time></trkpt><trkpt lat="46.50974597530629" lon="12.08444126117868"><ele>1671.0</ele><time>2026-04-25T13:47:14.999Z</time></trkpt><trkpt lat="46.50986060572008" lon="12.08444745819051"><ele>1671.0</ele><time>2026-04-25T13:47:15.999Z</time></trkpt><trkpt lat="46.509981266209685" lon="12.084419461478523"><ele>1671.0</ele><time>2026-04-25T13:47:16.999Z</time></trkpt><trkpt lat="46.510105760690095" lon="12.084367471455195"><ele>1671.0</ele><time>2026-04-25T13:47:17.999Z</time></trkpt><trkpt lat="46.510229006986386" lon="12.084322304362177"><ele>1671.0</ele><time>2026-04-25T13:47:18.999Z</time></trkpt><trkpt lat="46.51034692058579" lon="12.084284461125327"><ele>1671.0</ele><time>2026-04-25T13:47:19.999Z</time></trkpt><trkpt lat="46.51045728582421" lon="12.084247180149557"><ele>1671.0</ele><time>2026-04-25T13:47:20.999Z</time></trkpt><trkpt lat="46.510568073099755" lon="12.084224717751896"><ele>1671.0</ele><time>2026-04-25T13:47:21.999Z</time></trkpt><trkpt lat="46.51068491783346" lon="12.084251534831193"><ele>1671.5</ele><time>2026-04-25T13:47:22.999Z</time></trkpt><trkpt lat="46.510794480811256" lon="12.084343040107354"><ele>1672.0</ele><time>2026-04-25T13:47:23.999Z</time></trkpt><trkpt lat="46.51089359162785" lon="12.084503758741768"><ele>1672.5</ele><time>2026-04-25T13:47:24.999Z</time></trkpt><trkpt lat="46.51099341460293" lon="12.084644968435361"><ele>1673.0</ele><time>2026-04-25T13:47:25.999Z</time></trkpt><trkpt lat="46.51108746762625" lon="12.08476511765438"><ele>1673.0</ele><time>2026-04-25T13:47:26.999Z</time></trkpt><trkpt lat="46.51118139979593" lon="12.084870932093173"><ele>1673.0</ele><time>2026-04-25T13:47:27.999Z</time></trkpt><trkpt lat="46.51127937908531" lon="12.084937402151525"><ele>1673.0</ele><time>2026-04-25T13:47:28.999Z</time></trkpt><trkpt lat="46.51137671266143" lon="12.0849685974907"><ele>1673.0</ele><time>2026-04-25T13:47:29.999Z</time></trkpt><trkpt lat="46.511454790190236" lon="12.084992520864072"><ele>1673.0</ele><time>2026-04-25T13:47:30.999Z</time></trkpt><trkpt lat="46.51150296058818" lon="12.085051768047887"><ele>1670.3333333333333</ele><time>2026-04-25T13:47:31.999Z</time></trkpt><trkpt lat="46.51152174980185" lon="12.085144117385376"><ele>1667.6666666666665</ele><time>2026-04-25T13:47:32.999Z</time></trkpt><trkpt lat="46.51148910503244" lon="12.085240965175899"><ele>1665.0</ele><time>2026-04-25T13:47:33.999Z</time></trkpt><trkpt lat="46.51141289041569" lon="12.085290077604668"><ele>1662.3333333333335</ele><time>2026-04-25T13:47:34.999Z</time></trkpt><trkpt lat="46.51132621781253" lon="12.08527300506785"><ele>1659.6666666666667</ele><time>2026-04-25T13:47:35.999Z</time></trkpt><trkpt lat="46.51124238758616" lon="12.085252767038316"><ele>1657.0</ele><time>2026-04-25T13:47:36.999Z</time></trkpt><trkpt lat="46.511163826916665" lon="12.085284939850386"><ele>1657.0000000000002</ele><time>2026-04-25T13:47:37.999Z</time></trkpt><trkpt lat="46.511114995561954" lon="12.085380047827499"><ele>1657.0</ele><time>2026-04-25T13:47:38.999Z</time></trkpt><trkpt lat="46.51111047288092" lon="12.085490209752535"><ele>1657.0</ele><time>2026-04-25T13:47:39.999Z</time></trkpt><trkpt lat="46.51114306492318" lon="12.085591274888499"><ele>1657.0</ele><time>2026-04-25T13:47:40.999Z</time></trkpt><trkpt lat="46.51122074988283" lon="12.085658596521425"><ele>1657.0000000000002</ele><time>2026-04-25T13:47:41.999Z</time></trkpt><trkpt lat="46.51131651480669" lon="12.085670487629015"><ele>1657.0</ele><time>2026-04-25T13:47:42.999Z</time></trkpt><trkpt lat="46.51141025705719" lon="12.085692904397968"><ele>1656.5</ele><time>2026-04-25T13:47:43.999Z</time></trkpt><trkpt lat="46.511500389392076" lon="12.085727429346358"><ele>1656.0</ele><time>2026-04-25T13:47:44.999Z</time></trkpt><trkpt lat="46.511574880056294" lon="12.085852711756509"><ele>1655.5</ele><time>2026-04-25T13:47:45.999Z</time></trkpt><trkpt lat="46.511635454168164" lon="12.086018513626053"><ele>1655.0</ele><time>2026-04-25T13:47:46.999Z</time></trkpt><trkpt lat="46.5116806140407" lon="12.086179524704802"><ele>1652.2</ele><time>2026-04-25T13:47:47.999Z</time></trkpt><trkpt lat="46.511731780133395" lon="12.086312506613417"><ele>1649.4</ele><time>2026-04-25T13:47:48.999Z</time></trkpt><trkpt lat="46.51179157610565" lon="12.08644869663045"><ele>1646.6</ele><time>2026-04-25T13:47:50Z</time></trkpt><trkpt lat="46.51185437480132" lon="12.086593486318936"><ele>1643.8</ele><time>2026-04-25T13:47:51Z</time></trkpt><trkpt lat="46.511904286047155" lon="12.086735864321325"><ele>1641.0</ele><time>2026-04-25T13:47:52Z</time></trkpt><trkpt lat="46.51194073777033" lon="12.086874713594044"><ele>1639.0</ele><time>2026-04-25T13:47:53Z</time></trkpt><trkpt lat="46.51195166159383" lon="12.087015547823944"><ele>1637.0</ele><time>2026-04-25T13:47:54Z</time></trkpt><trkpt lat="46.511918757643" lon="12.087164248838484"><ele>1635.0</ele><time>2026-04-25T13:47:55Z</time></trkpt><trkpt lat="46.511837844070946" lon="12.08730468028987"><ele>1633.0</ele><time>2026-04-25T13:47:56Z</time></trkpt><trkpt lat="46.511734494797146" lon="12.087422227555543"><ele>1631.0</ele><time>2026-04-25T13:47:57Z</time></trkpt><trkpt lat="46.51166289884628" lon="12.087531915152917"><ele>1629.0</ele><time>2026-04-25T13:47:58Z</time></trkpt><trkpt lat="46.51159460650106" lon="12.087633766862057"><ele>1627.0</ele><time>2026-04-25T13:47:59Z</time></trkpt><trkpt lat="46.511541474510544" lon="12.087738444926025"><ele>1625.0</ele><time>2026-04-25T13:48:00Z</time></trkpt><trkpt lat="46.511513347636416" lon="12.087863638133731"><ele>1623.0</ele><time>2026-04-25T13:48:01Z</time></trkpt><trkpt lat="46.511523669026396" lon="12.087997909529335"><ele>1623.0</ele><time>2026-04-25T13:48:02Z</time></trkpt><trkpt lat="46.51157218205273" lon="12.088122879325873"><ele>1623.0</ele><time>2026-04-25T13:48:03Z</time></trkpt><trkpt lat="46.51165649503038" lon="12.088216060628291"><ele>1623.0</ele><time>2026-04-25T13:48:04Z</time></trkpt><trkpt lat="46.511758195132" lon="12.088259243006114"><ele>1623.0</ele><time>2026-04-25T13:48:05Z</time></trkpt><trkpt lat="46.511856674271684" lon="12.088295204625704"><ele>1623.0</ele><time>2026-04-25T13:48:06Z</time></trkpt><trkpt lat="46.511934529739136" lon="12.088320687901433"><ele>1621.5</ele><time>2026-04-25T13:48:07Z</time></trkpt><trkpt lat="46.5119942329219" lon="12.088357156505072"><ele>1620.0</ele><time>2026-04-25T13:48:08Z</time></trkpt><trkpt lat="46.512021280395146" lon="12.08845524449002"><ele>1618.5</ele><time>2026-04-25T13:48:09Z</time></trkpt><trkpt lat="46.51200362341988" lon="12.088562532424307"><ele>1617.0</ele><time>2026-04-25T13:48:10Z</time></trkpt><trkpt lat="46.51194270967594" lon="12.088644363255044"><ele>1615.5</ele><time>2026-04-25T13:48:11Z</time></trkpt><trkpt lat="46.51184813378785" lon="12.088612919769979"><ele>1614.0</ele><time>2026-04-25T13:48:12Z</time></trkpt><trkpt lat="46.511770080413704" lon="12.088521329872119"><ele>1614.0</ele><time>2026-04-25T13:48:13Z</time></trkpt><trkpt lat="46.5116718046729" lon="12.088454229835106"><ele>1614.0</ele><time>2026-04-25T13:48:14Z</time></trkpt><trkpt lat="46.51160248812375" lon="12.088407110276174"><ele>1614.0</ele><time>2026-04-25T13:48:15Z</time></trkpt><trkpt lat="46.51153206060645" lon="12.088406491010243"><ele>1614.0</ele><time>2026-04-25T13:48:16Z</time></trkpt><trkpt lat="46.51147547005406" lon="12.088476684411471"><ele>1614.0</ele><time>2026-04-25T13:48:17Z</time></trkpt><trkpt lat="46.5114553480964" lon="12.088590147948656"><ele>1614.0</ele><time>2026-04-25T13:48:18Z</time></trkpt><trkpt lat="46.51149209925094" lon="12.088709520576675"><ele>1614.0</ele><time>2026-04-25T13:48:19Z</time></trkpt><trkpt lat="46.51156583486054" lon="12.088792115374249"><ele>1614.0</ele><time>2026-04-25T13:48:20Z</time></trkpt><trkpt lat="46.51166318572341" lon="12.08883508357658"><ele>1614.0</ele><time>2026-04-25T13:48:21Z</time></trkpt><trkpt lat="46.51177538894854" lon="12.088888839262289"><ele>1614.0</ele><time>2026-04-25T13:48:22Z</time></trkpt><trkpt lat="46.51187981368155" lon="12.088907817137944"><ele>1614.0</ele><time>2026-04-25T13:48:23Z</time></trkpt><trkpt lat="46.51198582354512" lon="12.08894514916842"><ele>1613.0</ele><time>2026-04-25T13:48:24Z</time></trkpt><trkpt lat="46.51210198504586" lon="12.088974632737749"><ele>1612.0</ele><time>2026-04-25T13:48:25Z</time></trkpt><trkpt lat="46.51222984897461" lon="12.088987551576068"><ele>1611.0</ele><time>2026-04-25T13:48:26Z</time></trkpt><trkpt lat="46.512352727000106" lon="12.089001699232645"><ele>1610.0</ele><time>2026-04-25T13:48:27Z</time></trkpt><trkpt lat="46.51246990257521" lon="12.08901260624815"><ele>1610.0</ele><time>2026-04-25T13:48:28Z</time></trkpt><trkpt lat="46.51258746039933" lon="12.088996792604208"><ele>1610.0</ele><time>2026-04-25T13:48:29Z</time></trkpt><trkpt lat="46.51270349546081" lon="12.088946274875333"><ele>1610.0</ele><time>2026-04-25T13:48:30Z</time></trkpt><trkpt lat="46.51282128591131" lon="12.08888273820276"><ele>1610.0</ele><time>2026-04-25T13:48:31Z</time></trkpt><trkpt lat="46.512937625115775" lon="12.088804388936934"><ele>1606.6</ele><time>2026-04-25T13:48:32Z</time></trkpt><trkpt lat="46.513050220372165" lon="12.088730075115839"><ele>1603.2</ele><time>2026-04-25T13:48:33Z</time></trkpt><trkpt lat="46.513156805675074" lon="12.088666252588665"><ele>1599.8000000000002</ele><time>2026-04-25T13:48:34Z</time></trkpt><trkpt lat="46.51325540081452" lon="12.088613995719914"><ele>1596.4</ele><time>2026-04-25T13:48:35Z</time></trkpt><trkpt lat="46.51334385487095" lon="12.088557254364781"><ele>1593.0</ele><time>2026-04-25T13:48:36Z</time></trkpt><trkpt lat="46.51342503383249" lon="12.088508298716167"><ele>1593.0</ele><time>2026-04-25T13:48:37Z</time></trkpt><trkpt lat="46.51350077976081" lon="12.08849653961279"><ele>1593.0</ele><time>2026-04-25T13:48:38Z</time></trkpt><trkpt lat="46.51357058893674" lon="12.088535614395601"><ele>1593.0</ele><time>2026-04-25T13:48:39Z</time></trkpt><trkpt lat="46.513620014393794" lon="12.088629565556912"><ele>1593.0</ele><time>2026-04-25T13:48:40Z</time></trkpt><trkpt lat="46.51362568086191" lon="12.088757231264596"><ele>1593.0</ele><time>2026-04-25T13:48:40.999Z</time></trkpt><trkpt lat="46.51357103825787" lon="12.088873167028693"><ele>1593.0</ele><time>2026-04-25T13:48:41.999Z</time></trkpt><trkpt lat="46.51347465096484" lon="12.088913222251417"><ele>1593.0</ele><time>2026-04-25T13:48:42.999Z</time></trkpt><trkpt lat="46.51336527505892" lon="12.088966734512404"><ele>1593.0</ele><time>2026-04-25T13:48:43.999Z</time></trkpt><trkpt lat="46.513264238751916" lon="12.0890392482239"><ele>1593.0</ele><time>2026-04-25T13:48:44.999Z</time></trkpt><trkpt lat="46.51316669809726" lon="12.089162634433228"><ele>1593.0</ele><time>2026-04-25T13:48:45.999Z</time></trkpt><trkpt lat="46.51308944565988" lon="12.089301358466471"><ele>1593.2</ele><time>2026-04-25T13:48:46.999Z</time></trkpt><trkpt lat="46.51302976747218" lon="12.089440316020244"><ele>1593.4</ele><time>2026-04-25T13:48:47.999Z</time></trkpt><trkpt lat="46.512967053245106" lon="12.089563106181453"><ele>1593.6000000000001</ele><time>2026-04-25T13:48:48.999Z</time></trkpt><trkpt lat="46.51290055503718" lon="12.089680945879067"><ele>1593.8000000000002</ele><time>2026-04-25T13:48:49.999Z</time></trkpt><trkpt lat="46.512842344922376" lon="12.089785681779812"><ele>1594.0</ele><time>2026-04-25T13:48:50.999Z</time></trkpt><trkpt lat="46.51280899465995" lon="12.089880410835056"><ele>1591.2</ele><time>2026-04-25T13:48:51.999Z</time></trkpt><trkpt lat="46.51281592992699" lon="12.089982993966165"><ele>1588.4</ele><time>2026-04-25T13:48:52.999Z</time></trkpt><trkpt lat="46.512861882050906" lon="12.09006823688103"><ele>1585.6</ele><time>2026-04-25T13:48:53.999Z</time></trkpt><trkpt lat="46.512936055291355" lon="12.090105525662448"><ele>1582.8</ele><time>2026-04-25T13:48:54.999Z</time></trkpt><trkpt lat="46.51303121250471" lon="12.090084178375532"><ele>1580.0</ele><time>2026-04-25T13:48:55.999Z</time></trkpt><trkpt lat="46.51316088711809" lon="12.090050201607218"><ele>1580.75</ele><time>2026-04-25T13:48:56.999Z</time></trkpt><trkpt lat="46.51328178869588" lon="12.089976927343136"><ele>1581.5</ele><time>2026-04-25T13:48:57.999Z</time></trkpt><trkpt lat="46.51341106698417" lon="12.089928261728792"><ele>1582.25</ele><time>2026-04-25T13:48:58.999Z</time></trkpt><trkpt lat="46.51353031998345" lon="12.089879107323341"><ele>1583.0</ele><time>2026-04-25T13:48:59.999Z</time></trkpt><trkpt lat="46.513634030083026" lon="12.089826419195148"><ele>1583.0</ele><time>2026-04-25T13:49:00.999Z</time></trkpt><trkpt lat="46.51372722781203" lon="12.089761374410271"><ele>1583.0</ele><time>2026-04-25T13:49:01.999Z</time></trkpt><trkpt lat="46.513805093633934" lon="12.089663496244658"><ele>1583.0</ele><time>2026-04-25T13:49:02.999Z</time></trkpt><trkpt lat="46.513875672325696" lon="12.089547507864182"><ele>1583.0</ele><time>2026-04-25T13:49:03.999Z</time></trkpt><trkpt lat="46.51393518993625" lon="12.089436797331421"><ele>1583.0</ele><time>2026-04-25T13:49:04.999Z</time></trkpt><trkpt lat="46.51401335062508" lon="12.08936253866729"><ele>1577.6000000000001</ele><time>2026-04-25T13:49:05.999Z</time></trkpt><trkpt lat="46.51410554581978" lon="12.089340256449217"><ele>1572.2</ele><time>2026-04-25T13:49:06.999Z</time></trkpt><trkpt lat="46.51419597272939" lon="12.089376393008072"><ele>1566.8</ele><time>2026-04-25T13:49:07.999Z</time></trkpt><trkpt lat="46.514268453912926" lon="12.089472481571978"><ele>1561.4</ele><time>2026-04-25T13:49:08.999Z</time></trkpt><trkpt lat="46.51430914993491" lon="12.089605505346862"><ele>1556.0</ele><time>2026-04-25T13:49:09.999Z</time></trkpt><trkpt lat="46.5143194979091" lon="12.089757970202776"><ele>1553.5</ele><time>2026-04-25T13:49:10.999Z</time></trkpt><trkpt lat="46.51429897717296" lon="12.089940842932632"><ele>1551.0</ele><time>2026-04-25T13:49:11.999Z</time></trkpt><trkpt lat="46.51428318972561" lon="12.090158811126688"><ele>1548.5</ele><time>2026-04-25T13:49:12.999Z</time></trkpt><trkpt lat="46.51428334391429" lon="12.09037228887206"><ele>1546.0</ele><time>2026-04-25T13:49:13.999Z</time></trkpt><trkpt lat="46.51429494458453" lon="12.090558917462092"><ele>1546.0</ele><time>2026-04-25T13:49:14.999Z</time></trkpt><trkpt lat="46.51432073818187" lon="12.090739227101837"><ele>1546.0</ele><time>2026-04-25T13:49:15.999Z</time></trkpt><trkpt lat="46.51435449015769" lon="12.090912947796806"><ele>1546.0</ele><time>2026-04-25T13:49:16.999Z</time></trkpt><trkpt lat="46.51438594911301" lon="12.091091604267781"><ele>1546.0</ele><time>2026-04-25T13:49:17.999Z</time></trkpt><trkpt lat="46.51442205543743" lon="12.091254794738784"><ele>1544.75</ele><time>2026-04-25T13:49:18.999Z</time></trkpt><trkpt lat="46.51445408067741" lon="12.091424583974396"><ele>1543.5</ele><time>2026-04-25T13:49:19.999Z</time></trkpt><trkpt lat="46.51449293827539" lon="12.091606013040519"><ele>1542.25</ele><time>2026-04-25T13:49:20.999Z</time></trkpt><trkpt lat="46.5145316166078" lon="12.091796301867127"><ele>1541.0</ele><time>2026-04-25T13:49:21.999Z</time></trkpt><trkpt lat="46.514568789249104" lon="12.091994584540986"><ele>1541.25</ele><time>2026-04-25T13:49:22.999Z</time></trkpt><trkpt lat="46.514607490664744" lon="12.09218409885053"><ele>1541.5</ele><time>2026-04-25T13:49:23.999Z</time></trkpt><trkpt lat="46.51464680165039" lon="12.092362758991149"><ele>1541.75</ele><time>2026-04-25T13:49:24.999Z</time></trkpt><trkpt lat="46.51468251335876" lon="12.092537109431369"><ele>1542.0</ele><time>2026-04-25T13:49:25.999Z</time></trkpt><trkpt lat="46.514718560071394" lon="12.09270535608864"><ele>1540.5</ele><time>2026-04-25T13:49:26.999Z</time></trkpt><trkpt lat="46.514762457181725" lon="12.09286515189653"><ele>1539.0</ele><time>2026-04-25T13:49:27.999Z</time></trkpt><trkpt lat="46.514828101746645" lon="12.093017668641487"><ele>1537.5</ele><time>2026-04-25T13:49:28.999Z</time></trkpt><trkpt lat="46.51492001223354" lon="12.093162314601793"><ele>1536.0</ele><time>2026-04-25T13:49:29.999Z</time></trkpt><trkpt lat="46.51503384077716" lon="12.093315115097022"><ele>1534.25</ele><time>2026-04-25T13:49:30.999Z</time></trkpt><trkpt lat="46.515146955347475" lon="12.093471746803973"><ele>1532.5</ele><time>2026-04-25T13:49:31.999Z</time></trkpt><trkpt lat="46.51525031317008" lon="12.093613336995432"><ele>1530.75</ele><time>2026-04-25T13:49:32.999Z</time></trkpt><trkpt lat="46.51534070912431" lon="12.093749633238726"><ele>1529.0</ele><time>2026-04-25T13:49:33.999Z</time></trkpt><trkpt lat="46.5154215319943" lon="12.093876978229723"><ele>1528.75</ele><time>2026-04-25T13:49:34.999Z</time></trkpt><trkpt lat="46.51550102289679" lon="12.093993347093084"><ele>1528.5</ele><time>2026-04-25T13:49:35.999Z</time></trkpt><trkpt lat="46.51559428654415" lon="12.094098268679707"><ele>1528.25</ele><time>2026-04-25T13:49:36.999Z</time></trkpt><trkpt lat="46.51570501159447" lon="12.094183518008148"><ele>1528.0</ele><time>2026-04-25T13:49:37.999Z</time></trkpt><trkpt lat="46.515830059730945" lon="12.094242475475284"><ele>1526.75</ele><time>2026-04-25T13:49:38.999Z</time></trkpt><trkpt lat="46.51596257449861" lon="12.094285907500486"><ele>1525.5</ele><time>2026-04-25T13:49:39.999Z</time></trkpt><trkpt lat="46.51608340717318" lon="12.094362604347236"><ele>1524.25</ele><time>2026-04-25T13:49:40.999Z</time></trkpt><trkpt lat="46.51619024475303" lon="12.09448216456479"><ele>1523.0</ele><time>2026-04-25T13:49:41.999Z</time></trkpt><trkpt lat="46.51627770627421" lon="12.094647185083263"><ele>1522.75</ele><time>2026-04-25T13:49:42.999Z</time></trkpt><trkpt lat="46.5163687861265" lon="12.094830045298627"><ele>1522.5</ele><time>2026-04-25T13:49:43.999Z</time></trkpt><trkpt lat="46.51645627811191" lon="12.094996577513907"><ele>1522.25</ele><time>2026-04-25T13:49:44.999Z</time></trkpt><trkpt lat="46.516530265869996" lon="12.09516354209221"><ele>1522.0</ele><time>2026-04-25T13:49:45.999Z</time></trkpt><trkpt lat="46.51656981990555" lon="12.09534882661563"><ele>1522.0</ele><time>2026-04-25T13:49:46.999Z</time></trkpt><trkpt lat="46.51657739890547" lon="12.095556830485213"><ele>1522.0</ele><time>2026-04-25T13:49:47.999Z</time></trkpt><trkpt lat="46.51655674941481" lon="12.095785176164805"><ele>1522.0</ele><time>2026-04-25T13:49:48.999Z</time></trkpt><trkpt lat="46.516537351338805" lon="12.09602779620645"><ele>1522.0</ele><time>2026-04-25T13:49:49.999Z</time></trkpt><trkpt lat="46.51652549676988" lon="12.096269718857956"><ele>1522.0</ele><time>2026-04-25T13:49:50.999Z</time></trkpt><trkpt lat="46.516517737169124" lon="12.096508999639122"><ele>1522.0</ele><time>2026-04-25T13:49:51.999Z</time></trkpt><trkpt lat="46.516507266175026" lon="12.096747559336752"><ele>1521.3333333333333</ele><time>2026-04-25T13:49:52.999Z</time></trkpt><trkpt lat="46.516493686213146" lon="12.096981251619386"><ele>1520.6666666666667</ele><time>2026-04-25T13:49:53.999Z</time></trkpt><trkpt lat="46.51648376241147" lon="12.097211183055643"><ele>1520.0</ele><time>2026-04-25T13:49:54.999Z</time></trkpt><trkpt lat="46.51647546875641" lon="12.097431618426626"><ele>1520.0</ele><time>2026-04-25T13:49:56Z</time></trkpt><trkpt lat="46.51646983584677" lon="12.097646293949067"><ele>1520.0</ele><time>2026-04-25T13:49:57Z</time></trkpt><trkpt lat="46.516466838127535" lon="12.097853939862963"><ele>1520.0</ele><time>2026-04-25T13:49:58Z</time></trkpt><trkpt lat="46.516461870825985" lon="12.098058259006153"><ele>1520.0</ele><time>2026-04-25T13:49:59Z</time></trkpt><trkpt lat="46.51645744820366" lon="12.09825786631794"><ele>1518.75</ele><time>2026-04-25T13:50:00Z</time></trkpt><trkpt lat="46.51645871901268" lon="12.098450163509261"><ele>1517.5</ele><time>2026-04-25T13:50:01Z</time></trkpt><trkpt lat="46.51647231204003" lon="12.098627251946901"><ele>1516.25</ele><time>2026-04-25T13:50:02Z</time></trkpt><trkpt lat="46.51649013605245" lon="12.098795030309319"><ele>1515.0</ele><time>2026-04-25T13:50:03Z</time></trkpt><trkpt lat="46.51651314754656" lon="12.09896078560795"><ele>1513.5</ele><time>2026-04-25T13:50:04Z</time></trkpt><trkpt lat="46.51655783585622" lon="12.099123224741929"><ele>1512.0</ele><time>2026-04-25T13:50:05Z</time></trkpt><trkpt lat="46.51663163092054" lon="12.09927957975368"><ele>1510.5</ele><time>2026-04-25T13:50:06Z</time></trkpt><trkpt lat="46.51673903184724" lon="12.099414987743595"><ele>1509.0</ele><time>2026-04-25T13:50:07Z</time></trkpt><trkpt lat="46.51687678939999" lon="12.09953611306494"><ele>1509.0</ele><time>2026-04-25T13:50:08Z</time></trkpt><trkpt lat="46.51701192120159" lon="12.09966627731671"><ele>1509.0</ele><time>2026-04-25T13:50:09Z</time></trkpt><trkpt lat="46.51712657705935" lon="12.099780679847612"><ele>1509.0</ele><time>2026-04-25T13:50:10Z</time></trkpt><trkpt lat="46.51722809448247" lon="12.099894931133601"><ele>1509.0</ele><time>2026-04-25T13:50:11Z</time></trkpt><trkpt lat="46.517297755289135" lon="12.100035841275407"><ele>1510.75</ele><time>2026-04-25T13:50:12Z</time></trkpt><trkpt lat="46.51732495237589" lon="12.10020270443373"><ele>1512.5</ele><time>2026-04-25T13:50:13Z</time></trkpt><trkpt lat="46.51729419635571" lon="12.100402341818144"><ele>1514.25</ele><time>2026-04-25T13:50:14Z</time></trkpt><trkpt lat="46.51725921811683" lon="12.100603920819877"><ele>1516.0</ele><time>2026-04-25T13:50:15Z</time></trkpt><trkpt lat="46.51727912572366" lon="12.100777093200964"><ele>1516.0</ele><time>2026-04-25T13:50:16Z</time></trkpt><trkpt lat="46.51735700711902" lon="12.100970045414046"><ele>1516.0</ele><time>2026-04-25T13:50:17Z</time></trkpt><trkpt lat="46.51746226415065" lon="12.10117151975181"><ele>1516.0</ele><time>2026-04-25T13:50:18Z</time></trkpt><trkpt lat="46.51755633875119" lon="12.101349914673774"><ele>1516.0</ele><time>2026-04-25T13:50:19Z</time></trkpt><trkpt lat="46.51764023303262" lon="12.101498721180254"><ele>1516.0</ele><time>2026-04-25T13:50:20Z</time></trkpt><trkpt lat="46.517723411103866" lon="12.101650928879037"><ele>1516.0</ele><time>2026-04-25T13:50:21Z</time></trkpt><trkpt lat="46.51780221940486" lon="12.101798106463745"><ele>1516.0</ele><time>2026-04-25T13:50:22Z</time></trkpt><trkpt lat="46.517885766989565" lon="12.101935008105377"><ele>1517.75</ele><time>2026-04-25T13:50:23Z</time></trkpt><trkpt lat="46.51798371732275" lon="12.102064570268384"><ele>1519.5</ele><time>2026-04-25T13:50:24Z</time></trkpt><trkpt lat="46.51808536145922" lon="12.10220234770736"><ele>1521.25</ele><time>2026-04-25T13:50:25Z</time></trkpt><trkpt lat="46.5181925023091" lon="12.102346753161852"><ele>1523.0</ele><time>2026-04-25T13:50:26Z</time></trkpt><trkpt lat="46.51829659588148" lon="12.102490174787834"><ele>1523.0</ele><time>2026-04-25T13:50:27Z</time></trkpt><trkpt lat="46.51839782664681" lon="12.102630240161885"><ele>1523.0</ele><time>2026-04-25T13:50:28Z</time></trkpt><trkpt lat="46.518501600019" lon="12.102768733267446"><ele>1523.0</ele><time>2026-04-25T13:50:29Z</time></trkpt><trkpt lat="46.518609082081845" lon="12.10289823763172"><ele>1523.0</ele><time>2026-04-25T13:50:30Z</time></trkpt><trkpt lat="46.51871097063921" lon="12.10302646012028"><ele>1527.5</ele><time>2026-04-25T13:50:31Z</time></trkpt><trkpt lat="46.51880759981125" lon="12.10315685362528"><ele>1532.0</ele><time>2026-04-25T13:50:32Z</time></trkpt><trkpt lat="46.518909912889825" lon="12.103286566155653"><ele>1536.5</ele><time>2026-04-25T13:50:33Z</time></trkpt><trkpt lat="46.51900193400239" lon="12.10342248595441"><ele>1541.0</ele><time>2026-04-25T13:50:34Z</time></trkpt><trkpt lat="46.519088959234054" lon="12.103581963430686"><ele>1541.0</ele><time>2026-04-25T13:50:35Z</time></trkpt><trkpt lat="46.519173523312695" lon="12.103736810862243"><ele>1541.0</ele><time>2026-04-25T13:50:36Z</time></trkpt><trkpt lat="46.519254564181594" lon="12.103884530484136"><ele>1541.0</ele><time>2026-04-25T13:50:37Z</time></trkpt><trkpt lat="46.519335427730944" lon="12.104026121098864"><ele>1541.0</ele><time>2026-04-25T13:50:38Z</time></trkpt><trkpt lat="46.51941120630229" lon="12.104174709767712"><ele>1536.75</ele><time>2026-04-25T13:50:39Z</time></trkpt><trkpt lat="46.5194758282692" lon="12.104334167758477"><ele>1532.5</ele><time>2026-04-25T13:50:40Z</time></trkpt><trkpt lat="46.51952427167221" lon="12.104513413103017"><ele>1528.25</ele><time>2026-04-25T13:50:40.999Z</time></trkpt><trkpt lat="46.51956115943475" lon="12.104703315917071"><ele>1524.0</ele><time>2026-04-25T13:50:41.999Z</time></trkpt><trkpt lat="46.51959738030867" lon="12.104893081250877"><ele>1528.5</ele><time>2026-04-25T13:50:42.999Z</time></trkpt><trkpt lat="46.519631073020136" lon="12.105079958783005"><ele>1533.0</ele><time>2026-04-25T13:50:43.999Z</time></trkpt><trkpt lat="46.5196510880307" lon="12.105270295764129"><ele>1537.5</ele><time>2026-04-25T13:50:44.999Z</time></trkpt><trkpt lat="46.519662031530245" lon="12.105443621718903"><ele>1542.0</ele><time>2026-04-25T13:50:45.999Z</time></trkpt><trkpt lat="46.5196906458627" lon="12.10560063375912"><ele>1542.0</ele><time>2026-04-25T13:50:46.999Z</time></trkpt><trkpt lat="46.519742888042224" lon="12.105742925150805"><ele>1542.0</ele><time>2026-04-25T13:50:47.999Z</time></trkpt><trkpt lat="46.519831726074464" lon="12.10585577986014"><ele>1542.0</ele><time>2026-04-25T13:50:48.999Z</time></trkpt><trkpt lat="46.51995870943925" lon="12.105945786639715"><ele>1542.0</ele><time>2026-04-25T13:50:49.999Z</time></trkpt><trkpt lat="46.52010347629771" lon="12.106039218547966"><ele>1543.0</ele><time>2026-04-25T13:50:50.999Z</time></trkpt><trkpt lat="46.520236072873445" lon="12.106138877411027"><ele>1544.0</ele><time>2026-04-25T13:50:51.999Z</time></trkpt><trkpt lat="46.52036110065852" lon="12.106232507214655"><ele>1545.0</ele><time>2026-04-25T13:50:52.999Z</time></trkpt><trkpt lat="46.52048490060599" lon="12.106323668789557"><ele>1546.0</ele><time>2026-04-25T13:50:53.999Z</time></trkpt><trkpt lat="46.52060922256552" lon="12.106414049260268"><ele>1546.0</ele><time>2026-04-25T13:50:54.999Z</time></trkpt><trkpt lat="46.52073465827408" lon="12.106510110555938"><ele>1546.0</ele><time>2026-04-25T13:50:55.999Z</time></trkpt><trkpt lat="46.52085384277345" lon="12.106607189081531"><ele>1546.0</ele><time>2026-04-25T13:50:56.999Z</time></trkpt><trkpt lat="46.520963920749494" lon="12.106724381852176"><ele>1546.0</ele><time>2026-04-25T13:50:57.999Z</time></trkpt><trkpt lat="46.52106503190206" lon="12.106868169623025"><ele>1547.75</ele><time>2026-04-25T13:50:58.999Z</time></trkpt><trkpt lat="46.52116007894716" lon="12.107024862530768"><ele>1549.5</ele><time>2026-04-25T13:50:59.999Z</time></trkpt><trkpt lat="46.52123943589241" lon="12.107207212360217"><ele>1551.25</ele><time>2026-04-25T13:51:00.999Z</time></trkpt><trkpt lat="46.52131535705884" lon="12.107399618163463"><ele>1553.0</ele><time>2026-04-25T13:51:01.999Z</time></trkpt><trkpt lat="46.52139166958415" lon="12.107572759407418"><ele>1553.0</ele><time>2026-04-25T13:51:02.999Z</time></trkpt><trkpt lat="46.5214561611689" lon="12.107747154717948"><ele>1553.0</ele><time>2026-04-25T13:51:03.999Z</time></trkpt><trkpt lat="46.52149743422247" lon="12.107946035551326"><ele>1553.0</ele><time>2026-04-25T13:51:04.999Z</time></trkpt><trkpt lat="46.52151465224588" lon="12.108171711319214"><ele>1553.0</ele><time>2026-04-25T13:51:05.999Z</time></trkpt><trkpt lat="46.52152862384319" lon="12.108405301637621"><ele>1550.75</ele><time>2026-04-25T13:51:06.999Z</time></trkpt><trkpt lat="46.52154910793863" lon="12.108620777146196"><ele>1548.5</ele><time>2026-04-25T13:51:07.999Z</time></trkpt><trkpt lat="46.521567514313034" lon="12.108831772048246"><ele>1546.25</ele><time>2026-04-25T13:51:08.999Z</time></trkpt><trkpt lat="46.52157415688938" lon="12.109030822370679"><ele>1544.0</ele><time>2026-04-25T13:51:09.999Z</time></trkpt><trkpt lat="46.521563337020595" lon="12.109220190568381"><ele>1542.5</ele><time>2026-04-25T13:51:10.999Z</time></trkpt><trkpt lat="46.521542378011596" lon="12.10941206564784"><ele>1541.0</ele><time>2026-04-25T13:51:11.999Z</time></trkpt><trkpt lat="46.52151060569138" lon="12.109597552705774"><ele>1539.5</ele><time>2026-04-25T13:51:12.999Z</time></trkpt><trkpt lat="46.52145829542225" lon="12.109770443541056"><ele>1538.0</ele><time>2026-04-25T13:51:13.999Z</time></trkpt><trkpt lat="46.52139708998736" lon="12.109924344895264"><ele>1537.6000000000001</ele><time>2026-04-25T13:51:14.999Z</time></trkpt><trkpt lat="46.52135178436008" lon="12.11006031087422"><ele>1537.2</ele><time>2026-04-25T13:51:15.999Z</time></trkpt><trkpt lat="46.52133720177775" lon="12.110188983319459"><ele>1536.8</ele><time>2026-04-25T13:51:16.999Z</time></trkpt><trkpt lat="46.521353739101656" lon="12.11032850639808"><ele>1536.4</ele><time>2026-04-25T13:51:17.999Z</time></trkpt><trkpt lat="46.52140372791867" lon="12.110450396360804"><ele>1536.0</ele><time>2026-04-25T13:51:18.999Z</time></trkpt><trkpt lat="46.521478803999536" lon="12.11054432897683"><ele>1536.0</ele><time>2026-04-25T13:51:19.999Z</time></trkpt><trkpt lat="46.52157710997512" lon="12.110601905667092"><ele>1536.0</ele><time>2026-04-25T13:51:20.999Z</time></trkpt><trkpt lat="46.521688456106915" lon="12.110602628613778"><ele>1536.0</ele><time>2026-04-25T13:51:21.999Z</time></trkpt><trkpt lat="46.52180434268883" lon="12.110538757969174"><ele>1536.0</ele><time>2026-04-25T13:51:22.999Z</time></trkpt><trkpt lat="46.52192272669258" lon="12.110442797087899"><ele>1536.0</ele><time>2026-04-25T13:51:23.999Z</time></trkpt><trkpt lat="46.52203663189224" lon="12.110367321574234"><ele>1536.0</ele><time>2026-04-25T13:51:24.999Z</time></trkpt><trkpt lat="46.52212889010057" lon="12.11030765786139"><ele>1536.0</ele><time>2026-04-25T13:51:25.999Z</time></trkpt><trkpt lat="46.52220960694736" lon="12.110249373240196"><ele>1536.0</ele><time>2026-04-25T13:51:26.999Z</time></trkpt><trkpt lat="46.52227399075752" lon="12.11020128272769"><ele>1536.0</ele><time>2026-04-25T13:51:27.999Z</time></trkpt><trkpt lat="46.52236568901848" lon="12.110138184868353"><ele>1537.0</ele><time>2026-04-25T13:51:29.999Z</time></trkpt><trkpt lat="46.522434174012204" lon="12.110102379699876"><ele>1538.0</ele><time>2026-04-25T13:51:31.999Z</time></trkpt><trkpt lat="46.5225055327828" lon="12.110132359583778"><ele>1539.0</ele><time>2026-04-25T13:51:40.999Z</time></trkpt><trkpt lat="46.5225563748373" lon="12.110262880731925"><ele>1540.0</ele><time>2026-04-25T13:51:41.999Z</time></trkpt><trkpt lat="46.52259366695579" lon="12.110384345899249"><ele>1541.0</ele><time>2026-04-25T13:51:42.999Z</time></trkpt><trkpt lat="46.522649492234265" lon="12.11051900740705"><ele>1541.0</ele><time>2026-04-25T13:51:43.999Z</time></trkpt><trkpt lat="46.522715079518655" lon="12.110639699980458"><ele>1541.0</ele><time>2026-04-25T13:51:44.999Z</time></trkpt><trkpt lat="46.52278904391301" lon="12.110743158615907"><ele>1541.0</ele><time>2026-04-25T13:51:45.999Z</time></trkpt><trkpt lat="46.522863242668755" lon="12.110832172574506"><ele>1541.0</ele><time>2026-04-25T13:51:46.999Z</time></trkpt><trkpt lat="46.5229383485813" lon="12.110904238979568"><ele>1541.0</ele><time>2026-04-25T13:51:47.999Z</time></trkpt><trkpt lat="46.52301384144607" lon="12.110977084535874"><ele>1540.6</ele><time>2026-04-25T13:51:48.999Z</time></trkpt><trkpt lat="46.52309423641422" lon="12.111058474633907"><ele>1540.1999999999998</ele><time>2026-04-25T13:51:49.999Z</time></trkpt><trkpt lat="46.52317600752733" lon="12.111136286183983"><ele>1539.8000000000002</ele><time>2026-04-25T13:51:50.999Z</time></trkpt><trkpt lat="46.523260829255534" lon="12.111215049129676"><ele>1539.4</ele><time>2026-04-25T13:51:51.999Z</time></trkpt><trkpt lat="46.52335040096868" lon="12.11129663054463"><ele>1539.0</ele><time>2026-04-25T13:51:52.999Z</time></trkpt><trkpt lat="46.523445730326415" lon="12.111388433510179"><ele>1539.0</ele><time>2026-04-25T13:51:53.999Z</time></trkpt><trkpt lat="46.523546045978996" lon="12.111489373892537"><ele>1539.0</ele><time>2026-04-25T13:51:54.999Z</time></trkpt><trkpt lat="46.523657240637554" lon="12.111592329140612"><ele>1539.0</ele><time>2026-04-25T13:51:55.999Z</time></trkpt><trkpt lat="46.52376980974966" lon="12.11169372032985"><ele>1539.0</ele><time>2026-04-25T13:51:56.999Z</time></trkpt><trkpt lat="46.52387531528749" lon="12.111795912337286"><ele>1537.8000000000002</ele><time>2026-04-25T13:51:57.999Z</time></trkpt><trkpt lat="46.52397220529777" lon="12.111885858954462"><ele>1536.6000000000001</ele><time>2026-04-25T13:51:58.999Z</time></trkpt><trkpt lat="46.52406445592152" lon="12.111974225308579"><ele>1535.4</ele><time>2026-04-25T13:51:59.999Z</time></trkpt><trkpt lat="46.5241528463703" lon="12.112074931171437"><ele>1534.2</ele><time>2026-04-25T13:52:00.999Z</time></trkpt><trkpt lat="46.524225790884856" lon="12.112197675228806"><ele>1533.0</ele><time>2026-04-25T13:52:02Z</time></trkpt><trkpt lat="46.52428648017892" lon="12.112338124178855"><ele>1533.0</ele><time>2026-04-25T13:52:03Z</time></trkpt><trkpt lat="46.52433637501221" lon="12.112482030246547"><ele>1533.0</ele><time>2026-04-25T13:52:04Z</time></trkpt><trkpt lat="46.524377288048235" lon="12.112628238621102"><ele>1533.0</ele><time>2026-04-25T13:52:05Z</time></trkpt><trkpt lat="46.524408737136476" lon="12.112774824173624"><ele>1533.0</ele><time>2026-04-25T13:52:06Z</time></trkpt><trkpt lat="46.52442261154248" lon="12.112923642180403"><ele>1533.0</ele><time>2026-04-25T13:52:07Z</time></trkpt><trkpt lat="46.52440653580216" lon="12.11308152654695"><ele>1533.0</ele><time>2026-04-25T13:52:08Z</time></trkpt><trkpt lat="46.52435426295537" lon="12.113230427146078"><ele>1533.0</ele><time>2026-04-25T13:52:09Z</time></trkpt><trkpt lat="46.524276664838695" lon="12.113357022540768"><ele>1533.0</ele><time>2026-04-25T13:52:10Z</time></trkpt><trkpt lat="46.524166310752385" lon="12.113440218520191"><ele>1533.0</ele><time>2026-04-25T13:52:11Z</time></trkpt><trkpt lat="46.52403891328488" lon="12.11350747115694"><ele>1533.0</ele><time>2026-04-25T13:52:12Z</time></trkpt><trkpt lat="46.52392285093667" lon="12.113576696517542"><ele>1533.0</ele><time>2026-04-25T13:52:13Z</time></trkpt><trkpt lat="46.523817145337674" lon="12.113634691438753"><ele>1533.0</ele><time>2026-04-25T13:52:14Z</time></trkpt><trkpt lat="46.523707313891926" lon="12.1136624180175"><ele>1533.0</ele><time>2026-04-25T13:52:15Z</time></trkpt><trkpt lat="46.52360560446507" lon="12.113710895587715"><ele>1531.8000000000002</ele><time>2026-04-25T13:52:16Z</time></trkpt><trkpt lat="46.523501964528336" lon="12.113713654178365"><ele>1530.6</ele><time>2026-04-25T13:52:17Z</time></trkpt><trkpt lat="46.523405411707756" lon="12.113702680725076"><ele>1529.4</ele><time>2026-04-25T13:52:18Z</time></trkpt><trkpt lat="46.52331569169787" lon="12.11368321399459"><ele>1528.1999999999998</ele><time>2026-04-25T13:52:19Z</time></trkpt><trkpt lat="46.52323014711095" lon="12.113671769838895"><ele>1527.0</ele><time>2026-04-25T13:52:20Z</time></trkpt><trkpt lat="46.52314992209093" lon="12.113656726143647"><ele>1527.0</ele><time>2026-04-25T13:52:21Z</time></trkpt><trkpt lat="46.5230737676009" lon="12.113654132639848"><ele>1527.0</ele><time>2026-04-25T13:52:22Z</time></trkpt><trkpt lat="46.523006522675956" lon="12.113693529372902"><ele>1527.0</ele><time>2026-04-25T13:52:23Z</time></trkpt><trkpt lat="46.52295731192373" lon="12.113781964171869"><ele>1527.0</ele><time>2026-04-25T13:52:24Z</time></trkpt><trkpt lat="46.52295424984191" lon="12.113905108960685"><ele>1527.0</ele><time>2026-04-25T13:52:25Z</time></trkpt><trkpt lat="46.52301106353126" lon="12.114000515158539"><ele>1527.0</ele><time>2026-04-25T13:52:26Z</time></trkpt><trkpt lat="46.52310420571879" lon="12.11403326168073"><ele>1527.0</ele><time>2026-04-25T13:52:27Z</time></trkpt><trkpt lat="46.52320286868171" lon="12.114001521682786"><ele>1527.0</ele><time>2026-04-25T13:52:28Z</time></trkpt><trkpt lat="46.523283471786996" lon="12.113985500415389"><ele>1527.0</ele><time>2026-04-25T13:52:29Z</time></trkpt><trkpt lat="46.52335537071761" lon="12.114034020969171"><ele>1527.0</ele><time>2026-04-25T13:52:30Z</time></trkpt><trkpt lat="46.523398254380226" lon="12.114129059188528"><ele>1527.0</ele><time>2026-04-25T13:52:31Z</time></trkpt><trkpt lat="46.52339281991024" lon="12.11426163115979"><ele>1527.0</ele><time>2026-04-25T13:52:32Z</time></trkpt><trkpt lat="46.52332926414146" lon="12.114366641068461"><ele>1527.25</ele><time>2026-04-25T13:52:33Z</time></trkpt><trkpt lat="46.523219550303025" lon="12.114446386367142"><ele>1527.5</ele><time>2026-04-25T13:52:34Z</time></trkpt><trkpt lat="46.523094065774686" lon="12.114535578299986"><ele>1527.75</ele><time>2026-04-25T13:52:35Z</time></trkpt><trkpt lat="46.5229952377534" lon="12.11462187953419"><ele>1528.0</ele><time>2026-04-25T13:52:36Z</time></trkpt><trkpt lat="46.52291322722174" lon="12.114706719974283"><ele>1525.6000000000001</ele><time>2026-04-25T13:52:37Z</time></trkpt><trkpt lat="46.52282943246201" lon="12.1147737066708"><ele>1523.2</ele><time>2026-04-25T13:52:38Z</time></trkpt><trkpt lat="46.52273543063656" lon="12.114789649279562"><ele>1520.8</ele><time>2026-04-25T13:52:39Z</time></trkpt><trkpt lat="46.522646367802295" lon="12.114744141880527"><ele>1518.4</ele><time>2026-04-25T13:52:40Z</time></trkpt><trkpt lat="46.52256653296523" lon="12.114636903106064"><ele>1516.0</ele><time>2026-04-25T13:52:41Z</time></trkpt><trkpt lat="46.522508910586176" lon="12.11447887979564"><ele>1516.0</ele><time>2026-04-25T13:52:41.999Z</time></trkpt><trkpt lat="46.522454173551125" lon="12.114304263629109"><ele>1516.0</ele><time>2026-04-25T13:52:42.999Z</time></trkpt><trkpt lat="46.52239572585661" lon="12.114148498991169"><ele>1516.0</ele><time>2026-04-25T13:52:43.999Z</time></trkpt><trkpt lat="46.52234252546296" lon="12.113992465635343"><ele>1516.0</ele><time>2026-04-25T13:52:44.999Z</time></trkpt><trkpt lat="46.5222954195373" lon="12.113843565108766"><ele>1515.6</ele><time>2026-04-25T13:52:45.999Z</time></trkpt><trkpt lat="46.522247567447145" lon="12.113700335516233"><ele>1515.1999999999998</ele><time>2026-04-25T13:52:46.999Z</time></trkpt><trkpt lat="46.52219557396154" lon="12.113561049792164"><ele>1514.8000000000002</ele><time>2026-04-25T13:52:47.999Z</time></trkpt><trkpt lat="46.522129903964675" lon="12.113435476851578"><ele>1514.4</ele><time>2026-04-25T13:52:48.999Z</time></trkpt><trkpt lat="46.522038147829115" lon="12.11333933818246"><ele>1514.0</ele><time>2026-04-25T13:52:49.999Z</time></trkpt><trkpt lat="46.521922897710276" lon="12.113275227668167"><ele>1514.2</ele><time>2026-04-25T13:52:50.999Z</time></trkpt><trkpt lat="46.52181010704471" lon="12.113227134548932"><ele>1514.4</ele><time>2026-04-25T13:52:51.999Z</time></trkpt><trkpt lat="46.52171114478122" lon="12.113187985888816"><ele>1514.6</ele><time>2026-04-25T13:52:52.999Z</time></trkpt><trkpt lat="46.52162198320265" lon="12.113173926177142"><ele>1514.8</ele><time>2026-04-25T13:52:53.999Z</time></trkpt><trkpt lat="46.52154359280288" lon="12.113218647360727"><ele>1515.0</ele><time>2026-04-25T13:52:54.999Z</time></trkpt><trkpt lat="46.52149087689817" lon="12.113313075582255"><ele>1514.0</ele><time>2026-04-25T13:52:55.999Z</time></trkpt><trkpt lat="46.52148276072471" lon="12.113440230649074"><ele>1513.0</ele><time>2026-04-25T13:52:56.999Z</time></trkpt><trkpt lat="46.52152938267454" lon="12.11358186099387"><ele>1512.0</ele><time>2026-04-25T13:52:57.999Z</time></trkpt><trkpt lat="46.52160269352637" lon="12.113690899502053"><ele>1511.0</ele><time>2026-04-25T13:52:58.999Z</time></trkpt><trkpt lat="46.521684741567604" lon="12.11379954132886"><ele>1510.0</ele><time>2026-04-25T13:52:59.999Z</time></trkpt><trkpt lat="46.52174276831365" lon="12.113907181990086"><ele>1510.0</ele><time>2026-04-25T13:53:00.999Z</time></trkpt><trkpt lat="46.521805054015985" lon="12.114012732859468"><ele>1510.0</ele><time>2026-04-25T13:53:01.999Z</time></trkpt><trkpt lat="46.521858876374026" lon="12.11412601793487"><ele>1510.0</ele><time>2026-04-25T13:53:02.999Z</time></trkpt><trkpt lat="46.521900588779474" lon="12.114257103592465"><ele>1510.0</ele><time>2026-04-25T13:53:03.999Z</time></trkpt><trkpt lat="46.5219232214908" lon="12.114398669391933"><ele>1510.0</ele><time>2026-04-25T13:53:04.999Z</time></trkpt><trkpt lat="46.521919292011845" lon="12.114552134497911"><ele>1507.8</ele><time>2026-04-25T13:53:05.999Z</time></trkpt><trkpt lat="46.52189833023892" lon="12.114686311299943"><ele>1505.6</ele><time>2026-04-25T13:53:06.999Z</time></trkpt><trkpt lat="46.521887214302005" lon="12.114817495904283"><ele>1503.4</ele><time>2026-04-25T13:53:07.999Z</time></trkpt><trkpt lat="46.52189896387875" lon="12.114956325524266"><ele>1501.2</ele><time>2026-04-25T13:53:08.999Z</time></trkpt><trkpt lat="46.52194662963688" lon="12.11509728970893"><ele>1499.0</ele><time>2026-04-25T13:53:09.999Z</time></trkpt><trkpt lat="46.522023691424955" lon="12.115227457479556"><ele>1501.75</ele><time>2026-04-25T13:53:10.999Z</time></trkpt><trkpt lat="46.52211806950992" lon="12.115352105660113"><ele>1504.5</ele><time>2026-04-25T13:53:11.999Z</time></trkpt><trkpt lat="46.522214932655466" lon="12.11547840561755"><ele>1507.25</ele><time>2026-04-25T13:53:12.999Z</time></trkpt><trkpt lat="46.522317627007276" lon="12.115588176655825"><ele>1510.0</ele><time>2026-04-25T13:53:13.999Z</time></trkpt><trkpt lat="46.52242278981907" lon="12.115692172497313"><ele>1506.6</ele><time>2026-04-25T13:53:14.999Z</time></trkpt><trkpt lat="46.522520438556214" lon="12.115791627263519"><ele>1503.2</ele><time>2026-04-25T13:53:15.999Z</time></trkpt><trkpt lat="46.52260774673045" lon="12.115883743489205"><ele>1499.8000000000002</ele><time>2026-04-25T13:53:16.999Z</time></trkpt><trkpt lat="46.52268853556674" lon="12.115972192329464"><ele>1496.4</ele><time>2026-04-25T13:53:17.999Z</time></trkpt><trkpt lat="46.52277008200517" lon="12.11605837298201"><ele>1493.0</ele><time>2026-04-25T13:53:18.999Z</time></trkpt><trkpt lat="46.522848551087385" lon="12.116133822766525"><ele>1494.0</ele><time>2026-04-25T13:53:19.999Z</time></trkpt><trkpt lat="46.52291786759027" lon="12.11619724850302"><ele>1495.0</ele><time>2026-04-25T13:53:20.999Z</time></trkpt><trkpt lat="46.52297722456214" lon="12.11625880101561"><ele>1496.0</ele><time>2026-04-25T13:53:21.999Z</time></trkpt><trkpt lat="46.523031442528335" lon="12.11631929590366"><ele>1497.0</ele><time>2026-04-25T13:53:22.999Z</time></trkpt><trkpt lat="46.52307269870042" lon="12.116389298016685"><ele>1498.0</ele><time>2026-04-25T13:53:23.999Z</time></trkpt><trkpt lat="46.52308358734902" lon="12.116483990397793"><ele>1499.0</ele><time>2026-04-25T13:53:24.999Z</time></trkpt><trkpt lat="46.52304923334389" lon="12.116573079895907"><ele>1500.0</ele><time>2026-04-25T13:53:25.999Z</time></trkpt><trkpt lat="46.52297384410085" lon="12.116608891587607"><ele>1498.6</ele><time>2026-04-25T13:53:26.999Z</time></trkpt><trkpt lat="46.52288692189065" lon="12.116568537986668"><ele>1497.2</ele><time>2026-04-25T13:53:27.999Z</time></trkpt><trkpt lat="46.52282260025668" lon="12.116452727783042"><ele>1495.8000000000002</ele><time>2026-04-25T13:53:28.999Z</time></trkpt><trkpt lat="46.52275354030932" lon="12.116376175919273"><ele>1494.4</ele><time>2026-04-25T13:53:29.999Z</time></trkpt><trkpt lat="46.52268123492805" lon="12.116302072740783"><ele>1493.0</ele><time>2026-04-25T13:53:30.999Z</time></trkpt><trkpt lat="46.52260244508019" lon="12.116225811881703"><ele>1493.0</ele><time>2026-04-25T13:53:31.999Z</time></trkpt><trkpt lat="46.5225190593223" lon="12.116150047669967"><ele>1493.0</ele><time>2026-04-25T13:53:32.999Z</time></trkpt><trkpt lat="46.52243103999822" lon="12.116076577453677"><ele>1493.0</ele><time>2026-04-25T13:53:33.999Z</time></trkpt><trkpt lat="46.52233954356703" lon="12.11600390366331"><ele>1493.0</ele><time>2026-04-25T13:53:34.999Z</time></trkpt><trkpt lat="46.52224702464703" lon="12.115930486466953"><ele>1493.0</ele><time>2026-04-25T13:53:35.999Z</time></trkpt><trkpt lat="46.52215343219523" lon="12.115857232339062"><ele>1491.2</ele><time>2026-04-25T13:53:36.999Z</time></trkpt><trkpt lat="46.52205860628468" lon="12.115783915079783"><ele>1489.4</ele><time>2026-04-25T13:53:37.999Z</time></trkpt><trkpt lat="46.52196459653518" lon="12.115712554158613"><ele>1487.6000000000001</ele><time>2026-04-25T13:53:38.999Z</time></trkpt><trkpt lat="46.52187281987043" lon="12.115642888216987"><ele>1485.8000000000002</ele><time>2026-04-25T13:53:39.999Z</time></trkpt><trkpt lat="46.521781138548484" lon="12.1155732948028"><ele>1484.0</ele><time>2026-04-25T13:53:40.999Z</time></trkpt><trkpt lat="46.52169838916753" lon="12.115498709444285"><ele>1484.0</ele><time>2026-04-25T13:53:41.999Z</time></trkpt><trkpt lat="46.52162065515327" lon="12.11541148815049"><ele>1484.0</ele><time>2026-04-25T13:53:42.999Z</time></trkpt><trkpt lat="46.52157831956221" lon="12.11528125802928"><ele>1484.0</ele><time>2026-04-25T13:53:43.999Z</time></trkpt><trkpt lat="46.52154550187558" lon="12.115145384920375"><ele>1484.0</ele><time>2026-04-25T13:53:44.999Z</time></trkpt><trkpt lat="46.52151029178776" lon="12.115016204025142"><ele>1484.0</ele><time>2026-04-25T13:53:45.999Z</time></trkpt><trkpt lat="46.52146775323275" lon="12.114891532601009"><ele>1484.75</ele><time>2026-04-25T13:53:46.999Z</time></trkpt><trkpt lat="46.52141683225625" lon="12.114763610051025"><ele>1485.5</ele><time>2026-04-25T13:53:47.999Z</time></trkpt><trkpt lat="46.52132845981335" lon="12.114669602392913"><ele>1486.25</ele><time>2026-04-25T13:53:48.999Z</time></trkpt><trkpt lat="46.521207570597696" lon="12.114625450958133"><ele>1487.0</ele><time>2026-04-25T13:53:49.999Z</time></trkpt><trkpt lat="46.521083887422044" lon="12.114605545652921"><ele>1487.0</ele><time>2026-04-25T13:53:50.999Z</time></trkpt><trkpt lat="46.52096958360319" lon="12.114571685986276"><ele>1487.0</ele><time>2026-04-25T13:53:51.999Z</time></trkpt><trkpt lat="46.52086222806666" lon="12.114546626211085"><ele>1487.0</ele><time>2026-04-25T13:53:52.999Z</time></trkpt><trkpt lat="46.520773561789" lon="12.114482697302678"><ele>1487.0</ele><time>2026-04-25T13:53:53.999Z</time></trkpt><trkpt lat="46.52069375202169" lon="12.114412971716154"><ele>1487.0</ele><time>2026-04-25T13:53:54.999Z</time></trkpt><trkpt lat="46.520619430669484" lon="12.114348832919696"><ele>1487.0</ele><time>2026-04-25T13:53:55.999Z</time></trkpt><trkpt lat="46.52054902651105" lon="12.114307338113864"><ele>1487.0</ele><time>2026-04-25T13:53:56.999Z</time></trkpt><trkpt lat="46.52047593309284" lon="12.114296948020751"><ele>1487.0</ele><time>2026-04-25T13:53:57.999Z</time></trkpt><trkpt lat="46.52040780222934" lon="12.11434561968546"><ele>1487.0</ele><time>2026-04-25T13:53:58.999Z</time></trkpt><trkpt lat="46.520371735100404" lon="12.114450068842846"><ele>1487.0</ele><time>2026-04-25T13:53:59.999Z</time></trkpt><trkpt lat="46.520386560469305" lon="12.114567787543725"><ele>1487.0</ele><time>2026-04-25T13:54:00.999Z</time></trkpt><trkpt lat="46.52045862568538" lon="12.114651457488476"><ele>1487.0</ele><time>2026-04-25T13:54:01.999Z</time></trkpt><trkpt lat="46.52055890808984" lon="12.114690587512685"><ele>1487.0</ele><time>2026-04-25T13:54:02.999Z</time></trkpt><trkpt lat="46.5206640092847" lon="12.114718546390634"><ele>1487.0</ele><time>2026-04-25T13:54:03.999Z</time></trkpt><trkpt lat="46.52077066243432" lon="12.114763052456956"><ele>1487.0</ele><time>2026-04-25T13:54:04.999Z</time></trkpt><trkpt lat="46.520875779540624" lon="12.114799229024978"><ele>1487.0</ele><time>2026-04-25T13:54:05.999Z</time></trkpt><trkpt lat="46.52097130373204" lon="12.114851060739252"><ele>1481.8</ele><time>2026-04-25T13:54:07Z</time></trkpt><trkpt lat="46.52106199226836" lon="12.114907525443401"><ele>1476.6</ele><time>2026-04-25T13:54:08Z</time></trkpt><trkpt lat="46.52113981942167" lon="12.114965702939195"><ele>1471.3999999999999</ele><time>2026-04-25T13:54:09Z</time></trkpt><trkpt lat="46.521200305553414" lon="12.115049473414594"><ele>1466.1999999999998</ele><time>2026-04-25T13:54:10Z</time></trkpt><trkpt lat="46.52122705810055" lon="12.115180454299415"><ele>1461.0</ele><time>2026-04-25T13:54:11Z</time></trkpt><trkpt lat="46.52121341627544" lon="12.115344625132655"><ele>1461.0</ele><time>2026-04-25T13:54:12Z</time></trkpt><trkpt lat="46.52119540497281" lon="12.115482409704855"><ele>1461.0</ele><time>2026-04-25T13:54:13Z</time></trkpt><trkpt lat="46.52120038222517" lon="12.11562766399534"><ele>1461.0</ele><time>2026-04-25T13:54:14Z</time></trkpt><trkpt lat="46.52122081146905" lon="12.115782465687232"><ele>1461.0</ele><time>2026-04-25T13:54:15Z</time></trkpt><trkpt lat="46.5212591682776" lon="12.11593739739915"><ele>1461.0</ele><time>2026-04-25T13:54:16Z</time></trkpt><trkpt lat="46.52129758990746" lon="12.116093471572372"><ele>1462.5</ele><time>2026-04-25T13:54:17Z</time></trkpt><trkpt lat="46.5213345553959" lon="12.11625378149121"><ele>1464.0</ele><time>2026-04-25T13:54:18Z</time></trkpt><trkpt lat="46.52137147650123" lon="12.116416017765212"><ele>1465.5</ele><time>2026-04-25T13:54:19Z</time></trkpt><trkpt lat="46.52140222857916" lon="12.11658628527861"><ele>1467.0</ele><time>2026-04-25T13:54:20Z</time></trkpt><trkpt lat="46.521434325311304" lon="12.116749207238879"><ele>1464.0</ele><time>2026-04-25T13:54:21Z</time></trkpt><trkpt lat="46.52146843101964" lon="12.116905812803564"><ele>1461.0</ele><time>2026-04-25T13:54:22Z</time></trkpt><trkpt lat="46.52150529488415" lon="12.11705828299698"><ele>1458.0</ele><time>2026-04-25T13:54:23Z</time></trkpt><trkpt lat="46.521539940324494" lon="12.11720721775315"><ele>1455.0</ele><time>2026-04-25T13:54:24Z</time></trkpt><trkpt lat="46.52158064858499" lon="12.117345691905673"><ele>1452.0</ele><time>2026-04-25T13:54:25Z</time></trkpt><trkpt lat="46.52163295557622" lon="12.117483590386822"><ele>1450.25</ele><time>2026-04-25T13:54:26Z</time></trkpt><trkpt lat="46.52169170922078" lon="12.117618106265073"><ele>1448.5</ele><time>2026-04-25T13:54:27Z</time></trkpt><trkpt lat="46.5217579563668" lon="12.117748067192547"><ele>1446.75</ele><time>2026-04-25T13:54:28Z</time></trkpt><trkpt lat="46.52183272361192" lon="12.11787141910086"><ele>1445.0</ele><time>2026-04-25T13:54:29Z</time></trkpt><trkpt lat="46.52191607529678" lon="12.117989937523559"><ele>1445.0</ele><time>2026-04-25T13:54:30Z</time></trkpt><trkpt lat="46.52200778873844" lon="12.118094502832408"><ele>1445.0</ele><time>2026-04-25T13:54:31Z</time></trkpt><trkpt lat="46.52209844400659" lon="12.118192387917215"><ele>1445.0</ele><time>2026-04-25T13:54:32Z</time></trkpt><trkpt lat="46.52218039159868" lon="12.11828308344012"><ele>1445.0</ele><time>2026-04-25T13:54:33Z</time></trkpt><trkpt lat="46.52225180784091" lon="12.118393112122556"><ele>1445.0</ele><time>2026-04-25T13:54:34Z</time></trkpt><trkpt lat="46.522301123173264" lon="12.118534548191443"><ele>1447.0</ele><time>2026-04-25T13:54:35Z</time></trkpt><trkpt lat="46.52231674131572" lon="12.118699266275048"><ele>1449.0</ele><time>2026-04-25T13:54:36Z</time></trkpt><trkpt lat="46.52232077216304" lon="12.118872408307412"><ele>1451.0</ele><time>2026-04-25T13:54:36.999Z</time></trkpt><trkpt lat="46.52232790626145" lon="12.119035377610167"><ele>1453.0</ele><time>2026-04-25T13:54:37.999Z</time></trkpt><trkpt lat="46.52233874070726" lon="12.11919142831345"><ele>1453.0</ele><time>2026-04-25T13:54:38.999Z</time></trkpt><trkpt lat="46.52235117133512" lon="12.119342349938169"><ele>1453.0</ele><time>2026-04-25T13:54:39.999Z</time></trkpt><trkpt lat="46.52235862782498" lon="12.119485183516442"><ele>1453.0</ele><time>2026-04-25T13:54:40.999Z</time></trkpt><trkpt lat="46.52236889507874" lon="12.11962212034992"><ele>1453.0</ele><time>2026-04-25T13:54:41.999Z</time></trkpt><trkpt lat="46.522379037965024" lon="12.119753909200998"><ele>1453.0</ele><time>2026-04-25T13:54:42.999Z</time></trkpt><trkpt lat="46.52238455634722" lon="12.119872564091624"><ele>1449.5</ele><time>2026-04-25T13:54:43.999Z</time></trkpt><trkpt lat="46.52239261747474" lon="12.119976015207621"><ele>1446.0</ele><time>2026-04-25T13:54:44.999Z</time></trkpt><trkpt lat="46.52241436203172" lon="12.12007324279883"><ele>1442.5</ele><time>2026-04-25T13:54:45.999Z</time></trkpt><trkpt lat="46.52245505171737" lon="12.120155999512544"><ele>1439.0</ele><time>2026-04-25T13:54:46.999Z</time></trkpt><trkpt lat="46.52251565741163" lon="12.120222944875684"><ele>1435.5</ele><time>2026-04-25T13:54:47.999Z</time></trkpt><trkpt lat="46.522590202141366" lon="12.120271589877412"><ele>1432.0</ele><time>2026-04-25T13:54:48.999Z</time></trkpt><trkpt lat="46.5226739593733" lon="12.120301598569876"><ele>1432.0</ele><time>2026-04-25T13:54:49.999Z</time></trkpt><trkpt lat="46.52275060661811" lon="12.120325030601576"><ele>1432.0</ele><time>2026-04-25T13:54:50.999Z</time></trkpt><trkpt lat="46.52281875378433" lon="12.12035067784138"><ele>1432.0</ele><time>2026-04-25T13:54:51.999Z</time></trkpt><trkpt lat="46.52289796534696" lon="12.12038174266184"><ele>1432.0</ele><time>2026-04-25T13:54:52.999Z</time></trkpt><trkpt lat="46.52298506900375" lon="12.120388854745944"><ele>1432.0</ele><time>2026-04-25T13:54:53.999Z</time></trkpt><trkpt lat="46.523067100598645" lon="12.120405192707773"><ele>1432.0</ele><time>2026-04-25T13:54:54.999Z</time></trkpt><trkpt lat="46.5231530868271" lon="12.120418161232884"><ele>1437.3999999999999</ele><time>2026-04-25T13:54:55.999Z</time></trkpt><trkpt lat="46.523238556074396" lon="12.120400454182414"><ele>1442.8</ele><time>2026-04-25T13:54:56.999Z</time></trkpt><trkpt lat="46.523324135299966" lon="12.120356565828471"><ele>1448.2</ele><time>2026-04-25T13:54:57.999Z</time></trkpt><trkpt lat="46.52340687270221" lon="12.120293561080286"><ele>1453.6</ele><time>2026-04-25T13:54:58.999Z</time></trkpt><trkpt lat="46.523491159521996" lon="12.12021973046447"><ele>1459.0</ele><time>2026-04-25T13:54:59.999Z</time></trkpt><trkpt lat="46.52357723580153" lon="12.120147133774747"><ele>1459.0</ele><time>2026-04-25T13:55:00.999Z</time></trkpt><trkpt lat="46.52366530613457" lon="12.120079922251529"><ele>1459.0</ele><time>2026-04-25T13:55:01.999Z</time></trkpt><trkpt lat="46.523756292434705" lon="12.120012780787333"><ele>1459.0</ele><time>2026-04-25T13:55:02.999Z</time></trkpt><trkpt lat="46.52385160929841" lon="12.119953592259241"><ele>1459.0</ele><time>2026-04-25T13:55:03.999Z</time></trkpt><trkpt lat="46.52395591289129" lon="12.119917347741682"><ele>1459.0</ele><time>2026-04-25T13:55:04.999Z</time></trkpt><trkpt lat="46.524076487672005" lon="12.119901360389672"><ele>1437.0</ele><time>2026-04-25T13:55:05.999Z</time></trkpt><trkpt lat="46.52422145871039" lon="12.119911890890467"><ele>1415.0</ele><time>2026-04-25T13:55:06.999Z</time></trkpt><trkpt lat="46.52436827440387" lon="12.119927829621682"><ele>1393.0</ele><time>2026-04-25T13:55:07.999Z</time></trkpt><trkpt lat="46.524524518049006" lon="12.119961357779335"><ele>1395.3333333333333</ele><time>2026-04-25T13:55:08.999Z</time></trkpt><trkpt lat="46.524680760619304" lon="12.119995177916852"><ele>1397.6666666666667</ele><time>2026-04-25T13:55:09.999Z</time></trkpt><trkpt lat="46.52483180142561" lon="12.12002576379753"><ele>1400.0</ele><time>2026-04-25T13:55:10.999Z</time></trkpt><trkpt lat="46.52497600580858" lon="12.120051051972386"><ele>1400.0</ele><time>2026-04-25T13:55:11.999Z</time></trkpt><trkpt lat="46.52511026965093" lon="12.120075648871603"><ele>1400.0</ele><time>2026-04-25T13:55:12.999Z</time></trkpt><trkpt lat="46.5252386817419" lon="12.120101387739652"><ele>1400.0</ele><time>2026-04-25T13:55:13.999Z</time></trkpt><trkpt lat="46.52536741081091" lon="12.120131858735803"><ele>1400.0</ele><time>2026-04-25T13:55:14.999Z</time></trkpt><trkpt lat="46.52548841581026" lon="12.120174048463896"><ele>1401.0</ele><time>2026-04-25T13:55:15.999Z</time></trkpt><trkpt lat="46.52560378780437" lon="12.120224470176332"><ele>1402.0</ele><time>2026-04-25T13:55:16.999Z</time></trkpt><trkpt lat="46.52571461584798" lon="12.120291699441974"><ele>1403.0</ele><time>2026-04-25T13:55:17.999Z</time></trkpt><trkpt lat="46.52581556044409" lon="12.12038138854897"><ele>1404.0</ele><time>2026-04-25T13:55:18.999Z</time></trkpt><trkpt lat="46.525907462340406" lon="12.120489887783569"><ele>1404.0</ele><time>2026-04-25T13:55:19.999Z</time></trkpt><trkpt lat="46.52599145786389" lon="12.120580137625389"><ele>1404.0</ele><time>2026-04-25T13:55:20.999Z</time></trkpt><trkpt lat="46.52608986435006" lon="12.120646914204348"><ele>1404.0</ele><time>2026-04-25T13:55:21.999Z</time></trkpt><trkpt lat="46.526198073872784" lon="12.120682325156341"><ele>1404.0</ele><time>2026-04-25T13:55:22.999Z</time></trkpt><trkpt lat="46.52631331537939" lon="12.120674717567297"><ele>1404.0</ele><time>2026-04-25T13:55:23.999Z</time></trkpt><trkpt lat="46.52643455286419" lon="12.120650216789567"><ele>1405.75</ele><time>2026-04-25T13:55:24.999Z</time></trkpt><trkpt lat="46.526552953789796" lon="12.120625198768227"><ele>1407.5</ele><time>2026-04-25T13:55:25.999Z</time></trkpt><trkpt lat="46.526677090527755" lon="12.120603245266388"><ele>1409.25</ele><time>2026-04-25T13:55:26.999Z</time></trkpt><trkpt lat="46.526799639804295" lon="12.120596902085913"><ele>1411.0</ele><time>2026-04-25T13:55:27.999Z</time></trkpt><trkpt lat="46.52690891054555" lon="12.12060840371961"><ele>1411.0</ele><time>2026-04-25T13:55:28.999Z</time></trkpt><trkpt lat="46.527021757541526" lon="12.120645474373507"><ele>1411.0</ele><time>2026-04-25T13:55:29.999Z</time></trkpt><trkpt lat="46.52713885304005" lon="12.120709810741344"><ele>1411.0</ele><time>2026-04-25T13:55:30.999Z</time></trkpt><trkpt lat="46.52725591995202" lon="12.12080187078724"><ele>1411.0</ele><time>2026-04-25T13:55:31.999Z</time></trkpt><trkpt lat="46.527371813272374" lon="12.120905476198736"><ele>1404.0</ele><time>2026-04-25T13:55:32.999Z</time></trkpt><trkpt lat="46.52748641934237" lon="12.121018264270859"><ele>1397.0</ele><time>2026-04-25T13:55:33.999Z</time></trkpt><trkpt lat="46.527602386805555" lon="12.121127344055578"><ele>1390.0</ele><time>2026-04-25T13:55:34.999Z</time></trkpt><trkpt lat="46.52771995077962" lon="12.121223010245968"><ele>1383.0</ele><time>2026-04-25T13:55:35.999Z</time></trkpt><trkpt lat="46.52783674275503" lon="12.121307329270874"><ele>1382.25</ele><time>2026-04-25T13:55:36.999Z</time></trkpt><trkpt lat="46.52794876736508" lon="12.12138152248308"><ele>1381.5</ele><time>2026-04-25T13:55:37.999Z</time></trkpt><trkpt lat="46.52805172399885" lon="12.121440522731424"><ele>1380.75</ele><time>2026-04-25T13:55:38.999Z</time></trkpt><trkpt lat="46.52816130185666" lon="12.121489454349701"><ele>1380.0</ele><time>2026-04-25T13:55:39.999Z</time></trkpt><trkpt lat="46.52828181503638" lon="12.121507558466828"><ele>1380.0</ele><time>2026-04-25T13:55:40.999Z</time></trkpt><trkpt lat="46.528408144514344" lon="12.121489937213685"><ele>1380.0</ele><time>2026-04-25T13:55:41.999Z</time></trkpt><trkpt lat="46.52853612173118" lon="12.121439542420623"><ele>1380.0</ele><time>2026-04-25T13:55:42.999Z</time></trkpt><trkpt lat="46.52865370916033" lon="12.121373241445506"><ele>1380.0</ele><time>2026-04-25T13:55:43.999Z</time></trkpt><trkpt lat="46.528759582584286" lon="12.121320772570796"><ele>1376.0</ele><time>2026-04-25T13:55:44.999Z</time></trkpt><trkpt lat="46.52886657546698" lon="12.121286038346362"><ele>1372.0</ele><time>2026-04-25T13:55:45.999Z</time></trkpt><trkpt lat="46.52897958407649" lon="12.12125439450845"><ele>1368.0</ele><time>2026-04-25T13:55:46.999Z</time></trkpt><trkpt lat="46.52909418156597" lon="12.121226664557058"><ele>1364.0</ele><time>2026-04-25T13:55:47.999Z</time></trkpt><trkpt lat="46.52920917399483" lon="12.121193190030922"><ele>1364.0</ele><time>2026-04-25T13:55:48.999Z</time></trkpt><trkpt lat="46.529330490450555" lon="12.121163372627198"><ele>1364.0</ele><time>2026-04-25T13:55:49.999Z</time></trkpt><trkpt lat="46.529459620564694" lon="12.121140521713835"><ele>1364.0</ele><time>2026-04-25T13:55:50.999Z</time></trkpt><trkpt lat="46.529590128490604" lon="12.121128480178506"><ele>1364.0</ele><time>2026-04-25T13:55:51.999Z</time></trkpt><trkpt lat="46.52972280485978" lon="12.121131718054869"><ele>1362.0</ele><time>2026-04-25T13:55:52.999Z</time></trkpt><trkpt lat="46.52985652249049" lon="12.121144533368888"><ele>1360.0</ele><time>2026-04-25T13:55:53.999Z</time></trkpt><trkpt lat="46.52998953454811" lon="12.12115476515947"><ele>1358.0</ele><time>2026-04-25T13:55:54.999Z</time></trkpt><trkpt lat="46.530122382890106" lon="12.12116367924183"><ele>1356.0</ele><time>2026-04-25T13:55:55.999Z</time></trkpt><trkpt lat="46.53025006652637" lon="12.12117302370433"><ele>1356.0</ele><time>2026-04-25T13:55:56.999Z</time></trkpt><trkpt lat="46.5303662451101" lon="12.121179607075295"><ele>1356.0</ele><time>2026-04-25T13:55:57.999Z</time></trkpt><trkpt lat="46.53047393978153" lon="12.121186777914216"><ele>1356.0</ele><time>2026-04-25T13:55:58.999Z</time></trkpt><trkpt lat="46.53057912024413" lon="12.121195773458453"><ele>1356.0</ele><time>2026-04-25T13:55:59.999Z</time></trkpt><trkpt lat="46.53068709515805" lon="12.121206387005698"><ele>1356.0</ele><time>2026-04-25T13:56:00.999Z</time></trkpt><trkpt lat="46.53079503964164" lon="12.121217917715652"><ele>1354.6</ele><time>2026-04-25T13:56:01.999Z</time></trkpt><trkpt lat="46.53090014718411" lon="12.121230562694674"><ele>1353.1999999999998</ele><time>2026-04-25T13:56:02.999Z</time></trkpt><trkpt lat="46.53100430612347" lon="12.121240103642961"><ele>1351.8000000000002</ele><time>2026-04-25T13:56:03.999Z</time></trkpt><trkpt lat="46.531107652527" lon="12.121249434219791"><ele>1350.4</ele><time>2026-04-25T13:56:04.999Z</time></trkpt><trkpt lat="46.53121089073024" lon="12.121257646203862"><ele>1349.0</ele><time>2026-04-25T13:56:05.999Z</time></trkpt><trkpt lat="46.53131234513385" lon="12.121269462497803"><ele>1348.0</ele><time>2026-04-25T13:56:06.999Z</time></trkpt><trkpt lat="46.53141401790266" lon="12.121277922302491"><ele>1347.0</ele><time>2026-04-25T13:56:07.999Z</time></trkpt><trkpt lat="46.53151640022465" lon="12.121282944135428"><ele>1346.0</ele><time>2026-04-25T13:56:08.999Z</time></trkpt><trkpt lat="46.53161880012462" lon="12.121278399637372"><ele>1345.0</ele><time>2026-04-25T13:56:09.999Z</time></trkpt><trkpt lat="46.53171961932685" lon="12.121246296884701"><ele>1344.0</ele><time>2026-04-25T13:56:10.999Z</time></trkpt><trkpt lat="46.531812050238926" lon="12.121200575174253"><ele>1344.0</ele><time>2026-04-25T13:56:11.999Z</time></trkpt><trkpt lat="46.53189844293642" lon="12.121151044848208"><ele>1344.0</ele><time>2026-04-25T13:56:13Z</time></trkpt><trkpt lat="46.53198082828904" lon="12.121105435973291"><ele>1344.0</ele><time>2026-04-25T13:56:14Z</time></trkpt><trkpt lat="46.53206506340501" lon="12.12105952458525"><ele>1344.0</ele><time>2026-04-25T13:56:15Z</time></trkpt><trkpt lat="46.532154773815705" lon="12.12101895202422"><ele>1344.0</ele><time>2026-04-25T13:56:16Z</time></trkpt><trkpt lat="46.5322475720317" lon="12.121000904765259"><ele>1342.4</ele><time>2026-04-25T13:56:17Z</time></trkpt><trkpt lat="46.53234136280644" lon="12.12099306492308"><ele>1340.8000000000002</ele><time>2026-04-25T13:56:18Z</time></trkpt><trkpt lat="46.53243416124167" lon="12.121015545500576"><ele>1339.1999999999998</ele><time>2026-04-25T13:56:19Z</time></trkpt><trkpt lat="46.53252638230395" lon="12.121050709051335"><ele>1337.6</ele><time>2026-04-25T13:56:20Z</time></trkpt><trkpt lat="46.53261170966247" lon="12.121110928879668"><ele>1336.0</ele><time>2026-04-25T13:56:21Z</time></trkpt><trkpt lat="46.53268550656494" lon="12.121202141365995"><ele>1336.0</ele><time>2026-04-25T13:56:22Z</time></trkpt><trkpt lat="46.53274788649992" lon="12.121325061793026"><ele>1336.0</ele><time>2026-04-25T13:56:23Z</time></trkpt><trkpt lat="46.53280993315924" lon="12.121448753928945"><ele>1336.0</ele><time>2026-04-25T13:56:24Z</time></trkpt><trkpt lat="46.53288320327231" lon="12.121567004090014"><ele>1336.0</ele><time>2026-04-25T13:56:25Z</time></trkpt><trkpt lat="46.53297673662072" lon="12.121681756559646"><ele>1336.0</ele><time>2026-04-25T13:56:26Z</time></trkpt><trkpt lat="46.533084476356215" lon="12.121785556903"><ele>1333.0</ele><time>2026-04-25T13:56:27Z</time></trkpt><trkpt lat="46.533203403561984" lon="12.121866271145079"><ele>1330.0</ele><time>2026-04-25T13:56:28Z</time></trkpt><trkpt lat="46.53331592255281" lon="12.121916117471143"><ele>1327.0</ele><time>2026-04-25T13:56:29Z</time></trkpt><trkpt lat="46.53342706282573" lon="12.121968213485125"><ele>1324.0</ele><time>2026-04-25T13:56:30Z</time></trkpt><trkpt lat="46.533518816915674" lon="12.122025982727214"><ele>1324.0</ele><time>2026-04-25T13:56:31Z</time></trkpt><trkpt lat="46.53358882398898" lon="12.122117649074474"><ele>1324.0</ele><time>2026-04-25T13:56:32Z</time></trkpt><trkpt lat="46.53363257224981" lon="12.122260471543386"><ele>1324.0</ele><time>2026-04-25T13:56:33Z</time></trkpt><trkpt lat="46.53367107008212" lon="12.122410726589992"><ele>1324.0</ele><time>2026-04-25T13:56:34Z</time></trkpt><trkpt lat="46.533718432180265" lon="12.122532054567204"><ele>1324.0</ele><time>2026-04-25T13:56:35Z</time></trkpt><trkpt lat="46.533767205211596" lon="12.122642000685671"><ele>1323.5</ele><time>2026-04-25T13:56:36Z</time></trkpt><trkpt lat="46.533827395558404" lon="12.122739145166843"><ele>1323.0</ele><time>2026-04-25T13:56:37Z</time></trkpt><trkpt lat="46.53389551116449" lon="12.12281927954202"><ele>1322.5</ele><time>2026-04-25T13:56:37.999Z</time></trkpt><trkpt lat="46.533966059483596" lon="12.122891834172965"><ele>1322.0</ele><time>2026-04-25T13:56:38.999Z</time></trkpt><trkpt lat="46.53403400290679" lon="12.12296258836636"><ele>1321.5</ele><time>2026-04-25T13:56:39.999Z</time></trkpt><trkpt lat="46.53410212857295" lon="12.123029342768087"><ele>1321.0</ele><time>2026-04-25T13:56:40.999Z</time></trkpt><trkpt lat="46.53417265348694" lon="12.123085351044612"><ele>1321.0</ele><time>2026-04-25T13:56:41.999Z</time></trkpt><trkpt lat="46.53424675524194" lon="12.123137408289951"><ele>1321.0</ele><time>2026-04-25T13:56:42.999Z</time></trkpt><trkpt lat="46.53433068355791" lon="12.123184781623596"><ele>1321.0</ele><time>2026-04-25T13:56:43.999Z</time></trkpt><trkpt lat="46.53443497991957" lon="12.12323469432745"><ele>1321.0</ele><time>2026-04-25T13:56:44.999Z</time></trkpt><trkpt lat="46.53455793787008" lon="12.123313320458143"><ele>1321.0</ele><time>2026-04-25T13:56:45.999Z</time></trkpt><trkpt lat="46.534710407468886" lon="12.123375930394277"><ele>1319.3333333333333</ele><time>2026-04-25T13:56:46.999Z</time></trkpt><trkpt lat="46.534888041945145" lon="12.123417828598546"><ele>1317.6666666666667</ele><time>2026-04-25T13:56:47.999Z</time></trkpt><trkpt lat="46.53504471702881" lon="12.123506797218308"><ele>1316.0</ele><time>2026-04-25T13:56:48.999Z</time></trkpt><trkpt lat="46.53517404219585" lon="12.123597813766835"><ele>1316.0</ele><time>2026-04-25T13:56:49.999Z</time></trkpt><trkpt lat="46.53528241827349" lon="12.123697035962298"><ele>1316.0</ele><time>2026-04-25T13:56:50.999Z</time></trkpt><trkpt lat="46.535381679403585" lon="12.123804607269896"><ele>1316.0</ele><time>2026-04-25T13:56:51.999Z</time></trkpt><trkpt lat="46.53549027937414" lon="12.123894777531703"><ele>1316.0</ele><time>2026-04-25T13:56:52.999Z</time></trkpt><trkpt lat="46.535610421745275" lon="12.123961767024133"><ele>1315.25</ele><time>2026-04-25T13:56:53.999Z</time></trkpt><trkpt lat="46.53574062124904" lon="12.124029143948855"><ele>1314.5</ele><time>2026-04-25T13:56:54.999Z</time></trkpt><trkpt lat="46.53586114352777" lon="12.124097508710332"><ele>1313.75</ele><time>2026-04-25T13:56:55.999Z</time></trkpt><trkpt lat="46.535965833633014" lon="12.124152230442323"><ele>1313.0</ele><time>2026-04-25T13:56:56.999Z</time></trkpt><trkpt lat="46.53607606309018" lon="12.124192722707495"><ele>1311.4</ele><time>2026-04-25T13:56:57.999Z</time></trkpt><trkpt lat="46.53618594186784" lon="12.12420271510662"><ele>1309.8000000000002</ele><time>2026-04-25T13:56:58.999Z</time></trkpt><trkpt lat="46.53629269470951" lon="12.124192460292242"><ele>1308.2</ele><time>2026-04-25T13:56:59.999Z</time></trkpt><trkpt lat="46.53640558929582" lon="12.124215021863241"><ele>1306.6</ele><time>2026-04-25T13:57:00.999Z</time></trkpt><trkpt lat="46.536511719318405" lon="12.12427329013957"><ele>1305.0</ele><time>2026-04-25T13:57:01.999Z</time></trkpt><trkpt lat="46.536634861472464" lon="12.124373331606531"><ele>1305.0</ele><time>2026-04-25T13:57:02.999Z</time></trkpt><trkpt lat="46.53675874671274" lon="12.12448561170837"><ele>1305.0</ele><time>2026-04-25T13:57:03.999Z</time></trkpt><trkpt lat="46.53686778010706" lon="12.124594055874413"><ele>1305.0</ele><time>2026-04-25T13:57:04.999Z</time></trkpt><trkpt lat="46.53696644810697" lon="12.124699236643556"><ele>1305.0</ele><time>2026-04-25T13:57:05.999Z</time></trkpt><trkpt lat="46.53706728199526" lon="12.124799727792212"><ele>1304.6</ele><time>2026-04-25T13:57:06.999Z</time></trkpt><trkpt lat="46.53715711158402" lon="12.124892115548867"><ele>1304.2</ele><time>2026-04-25T13:57:07.999Z</time></trkpt><trkpt lat="46.537249128872325" lon="12.124972580044641"><ele>1303.8000000000002</ele><time>2026-04-25T13:57:08.999Z</time></trkpt><trkpt lat="46.53735131151042" lon="12.12502240747626"><ele>1303.4</ele><time>2026-04-25T13:57:09.999Z</time></trkpt><trkpt lat="46.53745975055372" lon="12.125039517775187"><ele>1303.0</ele><time>2026-04-25T13:57:10.999Z</time></trkpt><trkpt lat="46.537572157860225" lon="12.125004249441172"><ele>1303.0</ele><time>2026-04-25T13:57:11.999Z</time></trkpt><trkpt lat="46.537692201599654" lon="12.124921135854667"><ele>1303.0</ele><time>2026-04-25T13:57:12.999Z</time></trkpt><trkpt lat="46.53779869299545" lon="12.124827199405479"><ele>1303.0</ele><time>2026-04-25T13:57:13.999Z</time></trkpt><trkpt lat="46.53789622137552" lon="12.12472916470588"><ele>1303.0</ele><time>2026-04-25T13:57:14.999Z</time></trkpt><trkpt lat="46.537994064522564" lon="12.124627796372675"><ele>1300.0</ele><time>2026-04-25T13:57:15.999Z</time></trkpt><trkpt lat="46.53809749988417" lon="12.124528928332985"><ele>1297.0</ele><time>2026-04-25T13:57:16.999Z</time></trkpt><trkpt lat="46.5381969521014" lon="12.124426566611124"><ele>1294.0</ele><time>2026-04-25T13:57:17.999Z</time></trkpt><trkpt lat="46.53829856561198" lon="12.124322078599768"><ele>1291.0</ele><time>2026-04-25T13:57:18.999Z</time></trkpt><trkpt lat="46.53839606095113" lon="12.124222687833406"><ele>1291.0</ele><time>2026-04-25T13:57:19.999Z</time></trkpt><trkpt lat="46.53848128620504" lon="12.12413077681451"><ele>1291.0</ele><time>2026-04-25T13:57:20.999Z</time></trkpt><trkpt lat="46.53857219675959" lon="12.124036403588507"><ele>1291.0</ele><time>2026-04-25T13:57:21.999Z</time></trkpt><trkpt lat="46.53867156513065" lon="12.123951577863593"><ele>1291.0</ele><time>2026-04-25T13:57:22.999Z</time></trkpt><trkpt lat="46.53878103782408" lon="12.123891035308672"><ele>1292.75</ele><time>2026-04-25T13:57:23.999Z</time></trkpt><trkpt lat="46.538906506320956" lon="12.123858678335777"><ele>1294.5</ele><time>2026-04-25T13:57:24.999Z</time></trkpt><trkpt lat="46.539039197042435" lon="12.123856427234461"><ele>1296.25</ele><time>2026-04-25T13:57:25.999Z</time></trkpt><trkpt lat="46.53918138558533" lon="12.123897030146091"><ele>1298.0</ele><time>2026-04-25T13:57:26.999Z</time></trkpt><trkpt lat="46.53933144779044" lon="12.12398179390676"><ele>1293.25</ele><time>2026-04-25T13:57:27.999Z</time></trkpt><trkpt lat="46.5394782395129" lon="12.124077931904187"><ele>1288.5</ele><time>2026-04-25T13:57:28.999Z</time></trkpt><trkpt lat="46.53960296857651" lon="12.124165696065482"><ele>1283.75</ele><time>2026-04-25T13:57:29.999Z</time></trkpt><trkpt lat="46.53972670235363" lon="12.124252397085408"><ele>1279.0</ele><time>2026-04-25T13:57:30.999Z</time></trkpt><trkpt lat="46.53985205566907" lon="12.124341359290616"><ele>1279.0</ele><time>2026-04-25T13:57:31.999Z</time></trkpt><trkpt lat="46.53998658212983" lon="12.124428462540875"><ele>1279.0</ele><time>2026-04-25T13:57:32.999Z</time></trkpt><trkpt lat="46.54014462267518" lon="12.124494132842822"><ele>1279.0</ele><time>2026-04-25T13:57:33.999Z</time></trkpt><trkpt lat="46.54030964163293" lon="12.124542512885732"><ele>1276.3333333333333</ele><time>2026-04-25T13:57:34.999Z</time></trkpt><trkpt lat="46.540474621248784" lon="12.124587904324544"><ele>1273.6666666666667</ele><time>2026-04-25T13:57:35.999Z</time></trkpt><trkpt lat="46.54063797695585" lon="12.12462629568166"><ele>1271.0</ele><time>2026-04-25T13:57:36.999Z</time></trkpt><trkpt lat="46.540790938375316" lon="12.124666454009345"><ele>1271.0</ele><time>2026-04-25T13:57:37.999Z</time></trkpt><trkpt lat="46.540933764862054" lon="12.124710727303958"><ele>1271.0</ele><time>2026-04-25T13:57:38.999Z</time></trkpt><trkpt lat="46.54106950082749" lon="12.124751777136533"><ele>1271.0</ele><time>2026-04-25T13:57:39.999Z</time></trkpt><trkpt lat="46.541205564239796" lon="12.124790812642924"><ele>1271.0</ele><time>2026-04-25T13:57:40.999Z</time></trkpt><trkpt lat="46.541340648408145" lon="12.124829776755766"><ele>1271.25</ele><time>2026-04-25T13:57:41.999Z</time></trkpt><trkpt lat="46.541472442390116" lon="12.12486412070389"><ele>1271.5</ele><time>2026-04-25T13:57:42.999Z</time></trkpt><trkpt lat="46.541598430407575" lon="12.124881657348208"><ele>1271.75</ele><time>2026-04-25T13:57:43.999Z</time></trkpt><trkpt lat="46.54173059085024" lon="12.124866501574825"><ele>1272.0</ele><time>2026-04-25T13:57:44.999Z</time></trkpt><trkpt lat="46.54186196357059" lon="12.124810089201713"><ele>1272.0</ele><time>2026-04-25T13:57:45.999Z</time></trkpt><trkpt lat="46.54198979149067" lon="12.124744891972814"><ele>1272.0</ele><time>2026-04-25T13:57:46.999Z</time></trkpt><trkpt lat="46.54210463794241" lon="12.124686125240562"><ele>1272.0</ele><time>2026-04-25T13:57:47.999Z</time></trkpt><trkpt lat="46.54219766425637" lon="12.124636263845632"><ele>1272.0</ele><time>2026-04-25T13:57:48.999Z</time></trkpt><trkpt lat="46.54228485431528" lon="12.124611937674423"><ele>1272.0</ele><time>2026-04-25T13:57:49.999Z</time></trkpt><trkpt lat="46.542375075308975" lon="12.12463489381889"><ele>1273.0</ele><time>2026-04-25T13:57:50.999Z</time></trkpt><trkpt lat="46.54246315540934" lon="12.124707382769813"><ele>1274.0</ele><time>2026-04-25T13:57:51.999Z</time></trkpt><trkpt lat="46.54252649076332" lon="12.124845462785844"><ele>1275.0</ele><time>2026-04-25T13:57:52.999Z</time></trkpt><trkpt lat="46.542558563747576" lon="12.125041924307627"><ele>1276.0</ele><time>2026-04-25T13:57:53.999Z</time></trkpt><trkpt lat="46.54259127435687" lon="12.12523777294164"><ele>1273.0</ele><time>2026-04-25T13:57:54.999Z</time></trkpt><trkpt lat="46.542627137875826" lon="12.12538943546845"><ele>1270.0</ele><time>2026-04-25T13:57:55.999Z</time></trkpt><trkpt lat="46.542658627625535" lon="12.125534785950922"><ele>1267.0</ele><time>2026-04-25T13:57:56.999Z</time></trkpt><trkpt lat="46.542692382883644" lon="12.125675599052034"><ele>1264.0</ele><time>2026-04-25T13:57:57.999Z</time></trkpt><trkpt lat="46.542733422129274" lon="12.125813017954036"><ele>1261.0</ele><time>2026-04-25T13:57:58.999Z</time></trkpt><trkpt lat="46.54278496089192" lon="12.125941209509667"><ele>1261.2</ele><time>2026-04-25T13:57:59.999Z</time></trkpt><trkpt lat="46.542845063571896" lon="12.126058068890963"><ele>1261.3999999999999</ele><time>2026-04-25T13:58:00.999Z</time></trkpt><trkpt lat="46.54291550332727" lon="12.126166119429227"><ele>1261.6</ele><time>2026-04-25T13:58:01.999Z</time></trkpt><trkpt lat="46.54299379453492" lon="12.12626441356734"><ele>1261.8</ele><time>2026-04-25T13:58:02.999Z</time></trkpt><trkpt lat="46.54307148338137" lon="12.126368669201064"><ele>1262.0</ele><time>2026-04-25T13:58:03.999Z</time></trkpt><trkpt lat="46.5431495582319" lon="12.126479365665473"><ele>1258.25</ele><time>2026-04-25T13:58:04.999Z</time></trkpt><trkpt lat="46.543230353449545" lon="12.126588380448426"><ele>1254.5</ele><time>2026-04-25T13:58:05.999Z</time></trkpt><trkpt lat="46.54330453160039" lon="12.126707683777903"><ele>1250.75</ele><time>2026-04-25T13:58:06.999Z</time></trkpt><trkpt lat="46.543368042789275" lon="12.126845101923202"><ele>1247.0</ele><time>2026-04-25T13:58:07.999Z</time></trkpt><trkpt lat="46.5434129713481" lon="12.126998934332399"><ele>1247.0</ele><time>2026-04-25T13:58:08.999Z</time></trkpt><trkpt lat="46.54344228567128" lon="12.127163728425915"><ele>1247.0</ele><time>2026-04-25T13:58:09.999Z</time></trkpt><trkpt lat="46.54346898186014" lon="12.127334847419757"><ele>1247.0</ele><time>2026-04-25T13:58:10.999Z</time></trkpt><trkpt lat="46.543503399723" lon="12.12749349527112"><ele>1247.0</ele><time>2026-04-25T13:58:11.999Z</time></trkpt><trkpt lat="46.543552286938755" lon="12.127622177949677"><ele>1245.75</ele><time>2026-04-25T13:58:12.999Z</time></trkpt><trkpt lat="46.543626581219215" lon="12.127731051351457"><ele>1244.5</ele><time>2026-04-25T13:58:13.999Z</time></trkpt><trkpt lat="46.54372886418069" lon="12.127793925832844"><ele>1243.25</ele><time>2026-04-25T13:58:14.999Z</time></trkpt><trkpt lat="46.543842312203246" lon="12.127799515487172"><ele>1242.0</ele><time>2026-04-25T13:58:15.999Z</time></trkpt><trkpt lat="46.54396348398201" lon="12.127735993266242"><ele>1242.0</ele><time>2026-04-25T13:58:16.999Z</time></trkpt><trkpt lat="46.5440695239164" lon="12.127638257977951"><ele>1242.0</ele><time>2026-04-25T13:58:17.999Z</time></trkpt><trkpt lat="46.5441628928131" lon="12.127575651032958"><ele>1242.0</ele><time>2026-04-25T13:58:19Z</time></trkpt><trkpt lat="46.54424404748272" lon="12.127522980710573"><ele>1242.0</ele><time>2026-04-25T13:58:20Z</time></trkpt><trkpt lat="46.54431039259143" lon="12.12748450056774"><ele>1242.0</ele><time>2026-04-25T13:58:21Z</time></trkpt><trkpt lat="46.54437709518048" lon="12.127474710517326"><ele>1242.0</ele><time>2026-04-25T13:58:22Z</time></trkpt><trkpt lat="46.54444232348032" lon="12.127505827694552"><ele>1242.0</ele><time>2026-04-25T13:58:23Z</time></trkpt><trkpt lat="46.54448317140664" lon="12.127591277570664"><ele>1242.0</ele><time>2026-04-25T13:58:24Z</time></trkpt><trkpt lat="46.54447064728642" lon="12.127704730845682"><ele>1242.0</ele><time>2026-04-25T13:58:25Z</time></trkpt><trkpt lat="46.54439458216134" lon="12.127778182297398"><ele>1242.0</ele><time>2026-04-25T13:58:26Z</time></trkpt><trkpt lat="46.54429128348403" lon="12.127766688113342"><ele>1242.0</ele><time>2026-04-25T13:58:27Z</time></trkpt><trkpt lat="46.544200255593395" lon="12.127755604662825"><ele>1242.0</ele><time>2026-04-25T13:58:28Z</time></trkpt><trkpt lat="46.544124998965486" lon="12.12779293731024"><ele>1242.0</ele><time>2026-04-25T13:58:29Z</time></trkpt><trkpt lat="46.544041981745536" lon="12.127847899304145"><ele>1242.0</ele><time>2026-04-25T13:58:30Z</time></trkpt><trkpt lat="46.543969729521116" lon="12.12792550252362"><ele>1242.0</ele><time>2026-04-25T13:58:31Z</time></trkpt><trkpt lat="46.543903098011555" lon="12.128016397421144"><ele>1242.0</ele><time>2026-04-25T13:58:32Z</time></trkpt><trkpt lat="46.543837294281815" lon="12.128108851314103"><ele>1242.0</ele><time>2026-04-25T13:58:33Z</time></trkpt><trkpt lat="46.543773810283625" lon="12.128204784748535"><ele>1239.0</ele><time>2026-04-25T13:58:34Z</time></trkpt><trkpt lat="46.54370128787989" lon="12.128290583390305"><ele>1236.0</ele><time>2026-04-25T13:58:35Z</time></trkpt><trkpt lat="46.543611647621255" lon="12.128365480289295"><ele>1233.0</ele><time>2026-04-25T13:58:36Z</time></trkpt><trkpt lat="46.5435105374082" lon="12.128421736345475"><ele>1230.0</ele><time>2026-04-25T13:58:37Z</time></trkpt><trkpt lat="46.543393703364856" lon="12.128439212323626"><ele>1227.0</ele><time>2026-04-25T13:58:38Z</time></trkpt><trkpt lat="46.54326549154421" lon="12.12843397426301"><ele>1227.0</ele><time>2026-04-25T13:58:39Z</time></trkpt><trkpt lat="46.543138237679" lon="12.128443112368252"><ele>1227.0</ele><time>2026-04-25T13:58:40Z</time></trkpt><trkpt lat="46.543021543229756" lon="12.128486756783868"><ele>1227.0</ele><time>2026-04-25T13:58:41Z</time></trkpt><trkpt lat="46.542922061074854" lon="12.128561255451269"><ele>1227.0</ele><time>2026-04-25T13:58:41.999Z</time></trkpt><trkpt lat="46.54283524689785" lon="12.128640101586248"><ele>1226.0</ele><time>2026-04-25T13:58:42.999Z</time></trkpt><trkpt lat="46.542744675717614" lon="12.12870537111476"><ele>1225.0</ele><time>2026-04-25T13:58:43.999Z</time></trkpt><trkpt lat="46.54265404038395" lon="12.128768768046003"><ele>1224.0</ele><time>2026-04-25T13:58:44.999Z</time></trkpt><trkpt lat="46.5425684870249" lon="12.128832343695992"><ele>1223.0</ele><time>2026-04-25T13:58:45.999Z</time></trkpt><trkpt lat="46.54247649177798" lon="12.128893224870808"><ele>1222.0</ele><time>2026-04-25T13:58:46.999Z</time></trkpt><trkpt lat="46.54238043683026" lon="12.128949374341115"><ele>1222.0</ele><time>2026-04-25T13:58:47.999Z</time></trkpt><trkpt lat="46.54228024666552" lon="12.12899010785636"><ele>1222.0</ele><time>2026-04-25T13:58:48.999Z</time></trkpt><trkpt lat="46.542170454463374" lon="12.129020279724902"><ele>1222.0</ele><time>2026-04-25T13:58:49.999Z</time></trkpt><trkpt lat="46.54204862430975" lon="12.12904465736467"><ele>1222.0</ele><time>2026-04-25T13:58:50.999Z</time></trkpt><trkpt lat="46.54191919242425" lon="12.12906872572906"><ele>1219.75</ele><time>2026-04-25T13:58:51.999Z</time></trkpt><trkpt lat="46.54178472747027" lon="12.129093840946325"><ele>1217.5</ele><time>2026-04-25T13:58:52.999Z</time></trkpt><trkpt lat="46.54164655604159" lon="12.12911425283783"><ele>1215.25</ele><time>2026-04-25T13:58:53.999Z</time></trkpt><trkpt lat="46.54150479444257" lon="12.12913612286293"><ele>1213.0</ele><time>2026-04-25T13:58:54.999Z</time></trkpt><trkpt lat="46.54136443182001" lon="12.129162655689266"><ele>1213.0</ele><time>2026-04-25T13:58:55.999Z</time></trkpt><trkpt lat="46.541222284265615" lon="12.129207982678846"><ele>1213.0</ele><time>2026-04-25T13:58:56.999Z</time></trkpt><trkpt lat="46.54107259881324" lon="12.129282892160496"><ele>1213.0</ele><time>2026-04-25T13:58:57.999Z</time></trkpt><trkpt lat="46.54091609074496" lon="12.129365647749156"><ele>1214.0</ele><time>2026-04-25T13:58:58.999Z</time></trkpt><trkpt lat="46.54076771212333" lon="12.129440949429059"><ele>1215.0</ele><time>2026-04-25T13:58:59.999Z</time></trkpt><trkpt lat="46.54062702118851" lon="12.129509386200429"><ele>1216.0</ele><time>2026-04-25T13:59:00.999Z</time></trkpt><trkpt lat="46.54049004484499" lon="12.129578175422056"><ele>1215.75</ele><time>2026-04-25T13:59:01.999Z</time></trkpt><trkpt lat="46.54035694924035" lon="12.129658323021408"><ele>1215.5</ele><time>2026-04-25T13:59:02.999Z</time></trkpt><trkpt lat="46.54023149432273" lon="12.129765257058382"><ele>1215.25</ele><time>2026-04-25T13:59:03.999Z</time></trkpt><trkpt lat="46.540109909443416" lon="12.12988934017428"><ele>1215.0</ele><time>2026-04-25T13:59:04.999Z</time></trkpt><trkpt lat="46.539990884775655" lon="12.130022854686262"><ele>1213.0</ele><time>2026-04-25T13:59:05.999Z</time></trkpt><trkpt lat="46.539872792263935" lon="12.130158099054338"><ele>1211.0</ele><time>2026-04-25T13:59:06.999Z</time></trkpt><trkpt lat="46.539755061676566" lon="12.130292840824577"><ele>1209.0</ele><time>2026-04-25T13:59:07.999Z</time></trkpt><trkpt lat="46.53964797906598" lon="12.130420047673098"><ele>1207.0</ele><time>2026-04-25T13:59:08.999Z</time></trkpt><trkpt lat="46.53955704561016" lon="12.130533216751765"><ele>1207.3333333333333</ele><time>2026-04-25T13:59:09.999Z</time></trkpt><trkpt lat="46.53948205733708" lon="12.130642397032029"><ele>1207.6666666666665</ele><time>2026-04-25T13:59:10.999Z</time></trkpt><trkpt lat="46.5394137790353" lon="12.130734128029605"><ele>1208.0</ele><time>2026-04-25T13:59:11.999Z</time></trkpt><trkpt lat="46.53936598268592" lon="12.130838634253966"><ele>1208.3333333333333</ele><time>2026-04-25T13:59:12.999Z</time></trkpt><trkpt lat="46.53933938016283" lon="12.130950362079547"><ele>1208.6666666666667</ele><time>2026-04-25T13:59:13.999Z</time></trkpt><trkpt lat="46.539321524925214" lon="12.131054832654483"><ele>1209.0</ele><time>2026-04-25T13:59:14.999Z</time></trkpt><trkpt lat="46.53932472072065" lon="12.131166439566956"><ele>1209.0</ele><time>2026-04-25T13:59:15.999Z</time></trkpt><trkpt lat="46.53937046977139" lon="12.131287729863777"><ele>1209.0</ele><time>2026-04-25T13:59:16.999Z</time></trkpt><trkpt lat="46.539450449630024" lon="12.131398170135059"><ele>1209.0</ele><time>2026-04-25T13:59:17.999Z</time></trkpt><trkpt lat="46.53954633976172" lon="12.13149156357723"><ele>1209.0</ele><time>2026-04-25T13:59:18.999Z</time></trkpt><trkpt lat="46.53962362830268" lon="12.131566766875544"><ele>1209.0</ele><time>2026-04-25T13:59:19.999Z</time></trkpt><trkpt lat="46.53969066760935" lon="12.13164333493782"><ele>1206.8333333333333</ele><time>2026-04-25T13:59:20.999Z</time></trkpt><trkpt lat="46.53974910176961" lon="12.131715100625925"><ele>1204.6666666666667</ele><time>2026-04-25T13:59:21.999Z</time></trkpt><trkpt lat="46.539793253532814" lon="12.131805259257357"><ele>1202.5</ele><time>2026-04-25T13:59:22.999Z</time></trkpt><trkpt lat="46.53981469240851" lon="12.131920521640383"><ele>1200.3333333333335</ele><time>2026-04-25T13:59:23.999Z</time></trkpt><trkpt lat="46.539813816274666" lon="12.132041178233878"><ele>1198.1666666666667</ele><time>2026-04-25T13:59:24.999Z</time></trkpt><trkpt lat="46.53978520856823" lon="12.13214688791264"><ele>1196.0</ele><time>2026-04-25T13:59:25.999Z</time></trkpt><trkpt lat="46.539737694620534" lon="12.132293695020996"><ele>1196.0</ele><time>2026-04-25T13:59:27.999Z</time></trkpt><trkpt lat="46.539716444792894" lon="12.132382096444436"><ele>1196.0</ele><time>2026-04-25T13:59:28.999Z</time></trkpt><trkpt lat="46.53968091511116" lon="12.132464801408561"><ele>1196.0</ele><time>2026-04-25T13:59:29.999Z</time></trkpt><trkpt lat="46.5396672009812" lon="12.132572514786027"><ele>1196.0</ele><time>2026-04-25T13:59:30.999Z</time></trkpt><trkpt lat="46.53963723050111" lon="12.132677633017941"><ele>1196.0</ele><time>2026-04-25T13:59:31.999Z</time></trkpt><trkpt lat="46.539607992561315" lon="12.132790689155117"><ele>1196.0</ele><time>2026-04-25T13:59:32.999Z</time></trkpt><trkpt lat="46.53957191568248" lon="12.132892969837073"><ele>1196.0</ele><time>2026-04-25T13:59:33.999Z</time></trkpt><trkpt lat="46.53953470112141" lon="12.132978047966919"><ele>1196.3333333333335</ele><time>2026-04-25T13:59:34.999Z</time></trkpt><trkpt lat="46.53949458099185" lon="12.133062412307213"><ele>1196.6666666666667</ele><time>2026-04-25T13:59:35.999Z</time></trkpt><trkpt lat="46.53945103975291" lon="12.133143473870582"><ele>1197.0</ele><time>2026-04-25T13:59:36.999Z</time></trkpt><trkpt lat="46.539410719382175" lon="12.133219021473142"><ele>1197.3333333333333</ele><time>2026-04-25T13:59:37.999Z</time></trkpt><trkpt lat="46.539349821948306" lon="12.133323610354276"><ele>1197.6666666666665</ele><time>2026-04-25T13:59:39.999Z</time></trkpt><trkpt lat="46.539296317331114" lon="12.133389823070084"><ele>1198.0</ele><time>2026-04-25T13:59:48.999Z</time></trkpt><trkpt lat="46.53923391383928" lon="12.13349511741217"><ele>1199.1666666666665</ele><time>2026-04-25T13:59:50.999Z</time></trkpt><trkpt lat="46.5391814223242" lon="12.133577650615793"><ele>1200.3333333333333</ele><time>2026-04-25T13:59:51.999Z</time></trkpt><trkpt lat="46.539118624968125" lon="12.13365684405711"><ele>1201.5</ele><time>2026-04-25T13:59:52.999Z</time></trkpt><trkpt lat="46.53906652095282" lon="12.133728650340492"><ele>1202.6666666666667</ele><time>2026-04-25T13:59:53.999Z</time></trkpt><trkpt lat="46.53901252932014" lon="12.133798182842758"><ele>1203.8333333333335</ele><time>2026-04-25T13:59:54.999Z</time></trkpt><trkpt lat="46.5389574246005" lon="12.133873071577856"><ele>1205.0</ele><time>2026-04-25T13:59:55.999Z</time></trkpt><trkpt lat="46.53890086880372" lon="12.133951596378944"><ele>1205.0</ele><time>2026-04-25T13:59:56.999Z</time></trkpt><trkpt lat="46.538842465400435" lon="12.134030661123383"><ele>1205.0</ele><time>2026-04-25T13:59:57.999Z</time></trkpt><trkpt lat="46.53878355718895" lon="12.134111554084102"><ele>1205.0</ele><time>2026-04-25T13:59:58.999Z</time></trkpt><trkpt lat="46.538726427842036" lon="12.134190595838456"><ele>1205.0</ele><time>2026-04-25T13:59:59.999Z</time></trkpt><trkpt lat="46.53867003486725" lon="12.134265158131642"><ele>1205.0</ele><time>2026-04-25T14:00:00.999Z</time></trkpt><trkpt lat="46.53861522534315" lon="12.13434151186058"><ele>1205.0</ele><time>2026-04-25T14:00:01.999Z</time></trkpt><trkpt lat="46.53856033572544" lon="12.134423726909413"><ele>1205.0</ele><time>2026-04-25T14:00:02.999Z</time></trkpt><trkpt lat="46.538504722147586" lon="12.134508915344776"><ele>1205.0</ele><time>2026-04-25T14:00:03.999Z</time></trkpt><trkpt lat="46.53845358673779" lon="12.13460113578135"><ele>1205.0</ele><time>2026-04-25T14:00:04.999Z</time></trkpt><trkpt lat="46.538405962765566" lon="12.134702238642928"><ele>1205.0</ele><time>2026-04-25T14:00:05.999Z</time></trkpt><trkpt lat="46.53835967500001" lon="12.13480751453594"><ele>1205.0</ele><time>2026-04-25T14:00:06.999Z</time></trkpt><trkpt lat="46.5383086978813" lon="12.134906979022183"><ele>1205.0</ele><time>2026-04-25T14:00:07.999Z</time></trkpt><trkpt lat="46.538259071784125" lon="12.135005337974256"><ele>1206.3333333333335</ele><time>2026-04-25T14:00:08.999Z</time></trkpt><trkpt lat="46.53820726166008" lon="12.135103819548991"><ele>1207.6666666666667</ele><time>2026-04-25T14:00:09.999Z</time></trkpt><trkpt lat="46.53814994735786" lon="12.135199491434083"><ele>1209.0</ele><time>2026-04-25T14:00:10.999Z</time></trkpt><trkpt lat="46.53809060404193" lon="12.135295547150264"><ele>1210.3333333333333</ele><time>2026-04-25T14:00:11.999Z</time></trkpt><trkpt lat="46.53802974540884" lon="12.135387471578559"><ele>1211.6666666666665</ele><time>2026-04-25T14:00:12.999Z</time></trkpt><trkpt lat="46.53797510448645" lon="12.135474216443393"><ele>1213.0</ele><time>2026-04-25T14:00:13.999Z</time></trkpt><trkpt lat="46.53792377914401" lon="12.135558192052342"><ele>1212.7142857142858</ele><time>2026-04-25T14:00:14.999Z</time></trkpt><trkpt lat="46.53787581063515" lon="12.135639886919185"><ele>1212.4285714285713</ele><time>2026-04-25T14:00:15.999Z</time></trkpt><trkpt lat="46.53782818132484" lon="12.135713280712876"><ele>1212.142857142857</ele><time>2026-04-25T14:00:16.999Z</time></trkpt><trkpt lat="46.53778326169045" lon="12.135784775192192"><ele>1211.857142857143</ele><time>2026-04-25T14:00:17.999Z</time></trkpt><trkpt lat="46.537737163509675" lon="12.13585744168399"><ele>1211.5714285714284</ele><time>2026-04-25T14:00:18.999Z</time></trkpt><trkpt lat="46.537685139531966" lon="12.135927400398865"><ele>1211.2857142857142</ele><time>2026-04-25T14:00:19.999Z</time></trkpt><trkpt lat="46.53761752801176" lon="12.135981790368884"><ele>1211.0</ele><time>2026-04-25T14:00:20.999Z</time></trkpt><trkpt lat="46.53752875229321" lon="12.136022850731447"><ele>1211.0</ele><time>2026-04-25T14:00:21.999Z</time></trkpt><trkpt lat="46.53742664390285" lon="12.136099414083198"><ele>1211.0</ele><time>2026-04-25T14:00:22.999Z</time></trkpt><trkpt lat="46.53733513817127" lon="12.136174692749398"><ele>1211.0</ele><time>2026-04-25T14:00:23.999Z</time></trkpt><trkpt lat="46.537254808614726" lon="12.136253930277038"><ele>1211.0</ele><time>2026-04-25T14:00:25Z</time></trkpt><trkpt lat="46.537188451475785" lon="12.136343745819142"><ele>1211.0</ele><time>2026-04-25T14:00:26Z</time></trkpt><trkpt lat="46.537130014213" lon="12.136446338484605"><ele>1211.6666666666667</ele><time>2026-04-25T14:00:27Z</time></trkpt><trkpt lat="46.537073836203085" lon="12.136554358697984"><ele>1212.3333333333335</ele><time>2026-04-25T14:00:28Z</time></trkpt><trkpt lat="46.5370191484" lon="12.13666165564218"><ele>1213.0</ele><time>2026-04-25T14:00:29Z</time></trkpt><trkpt lat="46.5369643962195" lon="12.136762701835007"><ele>1213.6666666666667</ele><time>2026-04-25T14:00:30Z</time></trkpt><trkpt lat="46.53691305232345" lon="12.136856904538686"><ele>1214.3333333333333</ele><time>2026-04-25T14:00:31Z</time></trkpt><trkpt lat="46.536868693659585" lon="12.136947402410376"><ele>1215.0</ele><time>2026-04-25T14:00:32Z</time></trkpt><trkpt lat="46.53682536462719" lon="12.13703023805809"><ele>1214.0</ele><time>2026-04-25T14:00:33Z</time></trkpt><trkpt lat="46.53677085663485" lon="12.137129012551622"><ele>1213.0</ele><time>2026-04-25T14:00:35Z</time></trkpt><trkpt lat="46.53672720321434" lon="12.137224934649662"><ele>1212.0</ele><time>2026-04-25T14:00:38Z</time></trkpt><trkpt lat="46.536658039501525" lon="12.137358621866031"><ele>1211.0</ele><time>2026-04-25T14:00:40Z</time></trkpt><trkpt lat="46.53661443717105" lon="12.137440504504935"><ele>1210.0</ele><time>2026-04-25T14:00:41Z</time></trkpt><trkpt lat="46.53657427388813" lon="12.137522300216757"><ele>1209.0</ele><time>2026-04-25T14:00:42Z</time></trkpt><trkpt lat="46.536534343753914" lon="12.137601956762857"><ele>1209.0</ele><time>2026-04-25T14:00:42.999Z</time></trkpt><trkpt lat="46.53649791339116" lon="12.137683522173742"><ele>1209.0</ele><time>2026-04-25T14:00:43.999Z</time></trkpt><trkpt lat="46.536469535572735" lon="12.137771196065524"><ele>1209.0</ele><time>2026-04-25T14:00:44.999Z</time></trkpt><trkpt lat="46.53644803760221" lon="12.13785954496279"><ele>1209.0</ele><time>2026-04-25T14:00:45.999Z</time></trkpt><trkpt lat="46.536427300781035" lon="12.13794637957226"><ele>1209.0</ele><time>2026-04-25T14:00:46.999Z</time></trkpt><trkpt lat="46.536382639092565" lon="12.138121051899043"><ele>1209.0</ele><time>2026-04-25T14:00:48.999Z</time></trkpt><trkpt lat="46.53635636103882" lon="12.138219757238469"><ele>1208.8333333333333</ele><time>2026-04-25T14:00:49.999Z</time></trkpt><trkpt lat="46.53632272057158" lon="12.138332377229455"><ele>1208.6666666666667</ele><time>2026-04-25T14:00:50.999Z</time></trkpt><trkpt lat="46.53628388503558" lon="12.13845099779373"><ele>1208.5</ele><time>2026-04-25T14:00:51.999Z</time></trkpt><trkpt lat="46.53624444550583" lon="12.138566611356024"><ele>1208.3333333333335</ele><time>2026-04-25T14:00:52.999Z</time></trkpt><trkpt lat="46.53619596506357" lon="12.1386769155928"><ele>1208.1666666666667</ele><time>2026-04-25T14:00:53.999Z</time></trkpt><trkpt lat="46.53613495119774" lon="12.138776043637485"><ele>1208.0</ele><time>2026-04-25T14:00:54.999Z</time></trkpt><trkpt lat="46.53606849860096" lon="12.138866097471285"><ele>1206.0</ele><time>2026-04-25T14:00:55.999Z</time></trkpt><trkpt lat="46.53598769926372" lon="12.138929245442174"><ele>1204.0</ele><time>2026-04-25T14:00:56.999Z</time></trkpt><trkpt lat="46.53590963720832" lon="12.138986378061912"><ele>1202.0</ele><time>2026-04-25T14:00:57.999Z</time></trkpt><trkpt lat="46.535832232837414" lon="12.139041480108885"><ele>1200.0</ele><time>2026-04-25T14:00:58.999Z</time></trkpt><trkpt lat="46.535743932169616" lon="12.1390581719382"><ele>1198.0</ele><time>2026-04-25T14:00:59.999Z</time></trkpt><trkpt lat="46.535665916147416" lon="12.139116833918278"><ele>1196.0</ele><time>2026-04-25T14:01:00.999Z</time></trkpt><trkpt lat="46.5356025793686" lon="12.13919905816989"><ele>1196.0</ele><time>2026-04-25T14:01:01.999Z</time></trkpt><trkpt lat="46.53552012076237" lon="12.139234386766026"><ele>1196.0</ele><time>2026-04-25T14:01:02.999Z</time></trkpt><trkpt lat="46.53543535084287" lon="12.13925822080373"><ele>1196.0</ele><time>2026-04-25T14:01:03.999Z</time></trkpt><trkpt lat="46.53535524951697" lon="12.139285888592017"><ele>1196.0</ele><time>2026-04-25T14:01:04.999Z</time></trkpt><trkpt lat="46.535284736727874" lon="12.139342345768103"><ele>1196.0</ele><time>2026-04-25T14:01:05.999Z</time></trkpt><trkpt lat="46.53521747514762" lon="12.139419720875228"><ele>1196.0</ele><time>2026-04-25T14:01:06.999Z</time></trkpt><trkpt lat="46.53514186590764" lon="12.139498971807065"><ele>1195.0</ele><time>2026-04-25T14:01:07.999Z</time></trkpt><trkpt lat="46.53505176517133" lon="12.139567408995424"><ele>1194.0</ele><time>2026-04-25T14:01:08.999Z</time></trkpt><trkpt lat="46.53494678291468" lon="12.139629965308602"><ele>1193.0</ele><time>2026-04-25T14:01:09.999Z</time></trkpt><trkpt lat="46.53483754457477" lon="12.139685826956402"><ele>1192.0</ele><time>2026-04-25T14:01:10.999Z</time></trkpt><trkpt lat="46.53473095420108" lon="12.139734797223559"><ele>1191.0</ele><time>2026-04-25T14:01:11.999Z</time></trkpt><trkpt lat="46.53462468017021" lon="12.139776269531758"><ele>1190.75</ele><time>2026-04-25T14:01:12.999Z</time></trkpt><trkpt lat="46.53451655565361" lon="12.139810329532684"><ele>1190.5</ele><time>2026-04-25T14:01:13.999Z</time></trkpt><trkpt lat="46.5343981092235" lon="12.139842384014734"><ele>1190.25</ele><time>2026-04-25T14:01:14.999Z</time></trkpt><trkpt lat="46.53427858266922" lon="12.139868846798992"><ele>1190.0</ele><time>2026-04-25T14:01:15.999Z</time></trkpt><trkpt lat="46.5341518306487" lon="12.139893290272642"><ele>1190.0</ele><time>2026-04-25T14:01:16.999Z</time></trkpt><trkpt lat="46.53401752033986" lon="12.13991380436748"><ele>1190.0</ele><time>2026-04-25T14:01:17.999Z</time></trkpt><trkpt lat="46.53388906545756" lon="12.139933494926547"><ele>1190.0</ele><time>2026-04-25T14:01:18.999Z</time></trkpt><trkpt lat="46.5337758897541" lon="12.139949514065867"><ele>1190.0</ele><time>2026-04-25T14:01:19.999Z</time></trkpt><trkpt lat="46.53366776908391" lon="12.139961956501581"><ele>1190.4</ele><time>2026-04-25T14:01:20.999Z</time></trkpt><trkpt lat="46.533556907693566" lon="12.139979788714163"><ele>1190.8</ele><time>2026-04-25T14:01:21.999Z</time></trkpt><trkpt lat="46.53344968495753" lon="12.139994836660769"><ele>1191.2</ele><time>2026-04-25T14:01:22.999Z</time></trkpt><trkpt lat="46.533342688213914" lon="12.140009953937449"><ele>1191.6</ele><time>2026-04-25T14:01:23.999Z</time></trkpt><trkpt lat="46.533232139810295" lon="12.140025083486286"><ele>1192.0</ele><time>2026-04-25T14:01:24.999Z</time></trkpt><trkpt lat="46.533118182359715" lon="12.140041272533702"><ele>1192.0</ele><time>2026-04-25T14:01:25.999Z</time></trkpt><trkpt lat="46.533000513698376" lon="12.140058221776853"><ele>1192.0</ele><time>2026-04-25T14:01:26.999Z</time></trkpt><trkpt lat="46.53287567115221" lon="12.140079029218226"><ele>1192.0</ele><time>2026-04-25T14:01:27.999Z</time></trkpt><trkpt lat="46.53274116731047" lon="12.140104528738318"><ele>1192.0</ele><time>2026-04-25T14:01:28.999Z</time></trkpt><trkpt lat="46.5326041735751" lon="12.140132596512874"><ele>1192.0</ele><time>2026-04-25T14:01:29.999Z</time></trkpt><trkpt lat="46.53246091481453" lon="12.140152590432004"><ele>1192.0</ele><time>2026-04-25T14:01:30.999Z</time></trkpt><trkpt lat="46.5323132947049" lon="12.140174932442713"><ele>1192.0</ele><time>2026-04-25T14:01:31.999Z</time></trkpt><trkpt lat="46.532163883515324" lon="12.140203839250864"><ele>1192.0</ele><time>2026-04-25T14:01:32.999Z</time></trkpt><trkpt lat="46.53201208381489" lon="12.14023528247828"><ele>1190.6666666666665</ele><time>2026-04-25T14:01:33.999Z</time></trkpt><trkpt lat="46.531861937375524" lon="12.140266612164613"><ele>1189.3333333333333</ele><time>2026-04-25T14:01:34.999Z</time></trkpt><trkpt lat="46.53171079449496" lon="12.140298262617453"><ele>1188.0</ele><time>2026-04-25T14:01:35.999Z</time></trkpt><trkpt lat="46.53156100748251" lon="12.140327523678422"><ele>1188.0</ele><time>2026-04-25T14:01:36.999Z</time></trkpt><trkpt lat="46.531413246714436" lon="12.140353720907719"><ele>1188.0</ele><time>2026-04-25T14:01:37.999Z</time></trkpt><trkpt lat="46.53127049748646" lon="12.140381940354523"><ele>1188.0</ele><time>2026-04-25T14:01:38.999Z</time></trkpt><trkpt lat="46.531130371914806" lon="12.140411230854893"><ele>1188.0</ele><time>2026-04-25T14:01:39.999Z</time></trkpt><trkpt lat="46.5309927870243" lon="12.140441018749964"><ele>1187.0</ele><time>2026-04-25T14:01:40.999Z</time></trkpt><trkpt lat="46.530858905748055" lon="12.14046939617533"><ele>1186.0</ele><time>2026-04-25T14:01:41.999Z</time></trkpt><trkpt lat="46.53072734413339" lon="12.140498497436408"><ele>1185.0</ele><time>2026-04-25T14:01:42.999Z</time></trkpt><trkpt lat="46.53060622615715" lon="12.140522805328452"><ele>1184.0</ele><time>2026-04-25T14:01:43.999Z</time></trkpt><trkpt lat="46.53049461503427" lon="12.140544503379589"><ele>1183.25</ele><time>2026-04-25T14:01:44.999Z</time></trkpt><trkpt lat="46.53038455334461" lon="12.140565466294"><ele>1182.5</ele><time>2026-04-25T14:01:45.999Z</time></trkpt><trkpt lat="46.530269041733284" lon="12.140588776151358"><ele>1181.75</ele><time>2026-04-25T14:01:46.999Z</time></trkpt><trkpt lat="46.530148625202315" lon="12.140613442175098"><ele>1181.0</ele><time>2026-04-25T14:01:47.999Z</time></trkpt><trkpt lat="46.530025357602504" lon="12.140640233691478"><ele>1181.0</ele><time>2026-04-25T14:01:48.999Z</time></trkpt><trkpt lat="46.52989791083274" lon="12.140671368664117"><ele>1181.0</ele><time>2026-04-25T14:01:49.999Z</time></trkpt><trkpt lat="46.529765476635504" lon="12.140699619051954"><ele>1181.0</ele><time>2026-04-25T14:01:50.999Z</time></trkpt><trkpt lat="46.5296306732052" lon="12.14072779794881"><ele>1181.0</ele><time>2026-04-25T14:01:51.999Z</time></trkpt><trkpt lat="46.52949156623601" lon="12.140758150815051"><ele>1183.6666666666667</ele><time>2026-04-25T14:01:52.999Z</time></trkpt><trkpt lat="46.52934791641093" lon="12.140788327235748"><ele>1186.3333333333333</ele><time>2026-04-25T14:01:53.999Z</time></trkpt><trkpt lat="46.52919970952605" lon="12.140823214565343"><ele>1189.0</ele><time>2026-04-25T14:01:54.999Z</time></trkpt><trkpt lat="46.52904477889204" lon="12.140864306239148"><ele>1189.0</ele><time>2026-04-25T14:01:55.999Z</time></trkpt><trkpt lat="46.528884456479496" lon="12.140917604672872"><ele>1189.0</ele><time>2026-04-25T14:01:56.999Z</time></trkpt><trkpt lat="46.52871901871667" lon="12.140980224899446"><ele>1189.0</ele><time>2026-04-25T14:01:57.999Z</time></trkpt><trkpt lat="46.5285488682644" lon="12.14104910578491"><ele>1186.3333333333333</ele><time>2026-04-25T14:01:58.999Z</time></trkpt><trkpt lat="46.52838752762092" lon="12.141115537354278"><ele>1183.6666666666667</ele><time>2026-04-25T14:01:59.999Z</time></trkpt><trkpt lat="46.52823334022994" lon="12.141177312863599"><ele>1181.0</ele><time>2026-04-25T14:02:00.999Z</time></trkpt><trkpt lat="46.52808973574312" lon="12.141234484064618"><ele>1181.0</ele><time>2026-04-25T14:02:01.999Z</time></trkpt><trkpt lat="46.52795862160165" lon="12.141278877165131"><ele>1181.0</ele><time>2026-04-25T14:02:02.999Z</time></trkpt><trkpt lat="46.52783515518383" lon="12.141304577823202"><ele>1181.0</ele><time>2026-04-25T14:02:03.999Z</time></trkpt><trkpt lat="46.527708980187974" lon="12.141303601745136"><ele>1181.0</ele><time>2026-04-25T14:02:04.999Z</time></trkpt><trkpt lat="46.527577645325394" lon="12.141262362036825"><ele>1180.6666666666667</ele><time>2026-04-25T14:02:05.999Z</time></trkpt><trkpt lat="46.52744623071418" lon="12.141178356159804"><ele>1180.3333333333333</ele><time>2026-04-25T14:02:06.999Z</time></trkpt><trkpt lat="46.527327921408634" lon="12.141040568056342"><ele>1180.0</ele><time>2026-04-25T14:02:07.999Z</time></trkpt><trkpt lat="46.52721864821774" lon="12.140877131838476"><ele>1180.0</ele><time>2026-04-25T14:02:08.999Z</time></trkpt><trkpt lat="46.52711252607785" lon="12.1407340553619"><ele>1180.0</ele><time>2026-04-25T14:02:09.999Z</time></trkpt><trkpt lat="46.52701898094548" lon="12.140608685872685"><ele>1180.0</ele><time>2026-04-25T14:02:10.999Z</time></trkpt><trkpt lat="46.52693231697391" lon="12.140492883258085"><ele>1180.0</ele><time>2026-04-25T14:02:11.999Z</time></trkpt><trkpt lat="46.526847976911554" lon="12.140380731406236"><ele>1180.75</ele><time>2026-04-25T14:02:12.999Z</time></trkpt><trkpt lat="46.52676324786648" lon="12.140268376950784"><ele>1181.5</ele><time>2026-04-25T14:02:13.999Z</time></trkpt><trkpt lat="46.52667761181779" lon="12.14015621021814"><ele>1182.25</ele><time>2026-04-25T14:02:14.999Z</time></trkpt><trkpt lat="46.526584216779554" lon="12.14005577455634"><ele>1183.0</ele><time>2026-04-25T14:02:15.999Z</time></trkpt><trkpt lat="46.52648597899971" lon="12.139962354408357"><ele>1183.0</ele><time>2026-04-25T14:02:16.999Z</time></trkpt><trkpt lat="46.526384017660824" lon="12.139874624160296"><ele>1183.0</ele><time>2026-04-25T14:02:17.999Z</time></trkpt><trkpt lat="46.52627005121872" lon="12.139804593835146"><ele>1183.0</ele><time>2026-04-25T14:02:18.999Z</time></trkpt><trkpt lat="46.526148177565744" lon="12.13975128433185"><ele>1183.0</ele><time>2026-04-25T14:02:19.999Z</time></trkpt><trkpt lat="46.52602086221646" lon="12.139728139119764"><ele>1183.0</ele><time>2026-04-25T14:02:20.999Z</time></trkpt><trkpt lat="46.52588717086163" lon="12.13975230286927"><ele>1183.0</ele><time>2026-04-25T14:02:21.999Z</time></trkpt><trkpt lat="46.525750129994734" lon="12.13982714078886"><ele>1183.0</ele><time>2026-04-25T14:02:22.999Z</time></trkpt><trkpt lat="46.52560280213153" lon="12.139927353846911"><ele>1183.0</ele><time>2026-04-25T14:02:23.999Z</time></trkpt><trkpt lat="46.52544764294381" lon="12.140029965972248"><ele>1182.3333333333333</ele><time>2026-04-25T14:02:24.999Z</time></trkpt><trkpt lat="46.52528306664604" lon="12.140143986161982"><ele>1181.6666666666667</ele><time>2026-04-25T14:02:25.999Z</time></trkpt><trkpt lat="46.52512798361359" lon="12.14025475277895"><ele>1181.0</ele><time>2026-04-25T14:02:26.998Z</time></trkpt><trkpt lat="46.52497766702385" lon="12.140357374654526"><ele>1181.0</ele><time>2026-04-25T14:02:27.998Z</time></trkpt><trkpt lat="46.52483291158144" lon="12.140455734577236"><ele>1181.0</ele><time>2026-04-25T14:02:28.998Z</time></trkpt><trkpt lat="46.524692836163155" lon="12.140546927703248"><ele>1181.0</ele><time>2026-04-25T14:02:29.998Z</time></trkpt><trkpt lat="46.52455797065103" lon="12.14062868276734"><ele>1181.0</ele><time>2026-04-25T14:02:31Z</time></trkpt><trkpt lat="46.52442798542021" lon="12.14070671661763"><ele>1181.0</ele><time>2026-04-25T14:02:32Z</time></trkpt><trkpt lat="46.524302036769974" lon="12.14078591047845"><ele>1181.0</ele><time>2026-04-25T14:02:33Z</time></trkpt><trkpt lat="46.52417699631246" lon="12.140865602410573"><ele>1181.0</ele><time>2026-04-25T14:02:34Z</time></trkpt><trkpt lat="46.52405485363594" lon="12.140942412703083"><ele>1181.0</ele><time>2026-04-25T14:02:35Z</time></trkpt><trkpt lat="46.52393459666651" lon="12.141018408439683"><ele>1181.0</ele><time>2026-04-25T14:02:36Z</time></trkpt><trkpt lat="46.523817835891236" lon="12.141094290666384"><ele>1181.0</ele><time>2026-04-25T14:02:37Z</time></trkpt><trkpt lat="46.52370034291467" lon="12.141167925350876"><ele>1181.0</ele><time>2026-04-25T14:02:38Z</time></trkpt><trkpt lat="46.523582141436584" lon="12.141239157265218"><ele>1179.25</ele><time>2026-04-25T14:02:39Z</time></trkpt><trkpt lat="46.523463681677434" lon="12.141313908529048"><ele>1177.5</ele><time>2026-04-25T14:02:40Z</time></trkpt><trkpt lat="46.52334147133442" lon="12.141390186422035"><ele>1175.75</ele><time>2026-04-25T14:02:41Z</time></trkpt><trkpt lat="46.52321664634663" lon="12.141466198721684"><ele>1174.0</ele><time>2026-04-25T14:02:42Z</time></trkpt><trkpt lat="46.52309141977843" lon="12.141543076025124"><ele>1175.0</ele><time>2026-04-25T14:02:43Z</time></trkpt><trkpt lat="46.52296476165924" lon="12.14162300100201"><ele>1176.0</ele><time>2026-04-25T14:02:44Z</time></trkpt><trkpt lat="46.522836669279094" lon="12.141705052917498"><ele>1177.0</ele><time>2026-04-25T14:02:45Z</time></trkpt><trkpt lat="46.52270956980339" lon="12.141785474555595"><ele>1178.0</ele><time>2026-04-25T14:02:46Z</time></trkpt><trkpt lat="46.52258340996668" lon="12.141856374380039"><ele>1178.0</ele><time>2026-04-25T14:02:46.999Z</time></trkpt><trkpt lat="46.5224554889314" lon="12.141916041851823"><ele>1178.0</ele><time>2026-04-25T14:02:47.999Z</time></trkpt><trkpt lat="46.52231996987452" lon="12.14196123441094"><ele>1178.0</ele><time>2026-04-25T14:02:48.999Z</time></trkpt><trkpt lat="46.522179408776985" lon="12.141986967295162"><ele>1178.0</ele><time>2026-04-25T14:02:49.999Z</time></trkpt><trkpt lat="46.522037728434384" lon="12.14199386034074"><ele>1178.0</ele><time>2026-04-25T14:02:50.999Z</time></trkpt><trkpt lat="46.521900539448865" lon="12.141982231183658"><ele>1178.0</ele><time>2026-04-25T14:02:51.999Z</time></trkpt><trkpt lat="46.52176759418858" lon="12.141963938899133"><ele>1178.0</ele><time>2026-04-25T14:02:52.999Z</time></trkpt><trkpt lat="46.521635820349466" lon="12.141953609971534"><ele>1178.0</ele><time>2026-04-25T14:02:53.999Z</time></trkpt><trkpt lat="46.52150492282693" lon="12.141950262326539"><ele>1178.0</ele><time>2026-04-25T14:02:54.999Z</time></trkpt><trkpt lat="46.521373700088304" lon="12.141927820356363"><ele>1178.0</ele><time>2026-04-25T14:02:55.999Z</time></trkpt><trkpt lat="46.52124265291544" lon="12.141940946049232"><ele>1178.0</ele><time>2026-04-25T14:02:56.999Z</time></trkpt><trkpt lat="46.52111037802555" lon="12.141961869760138"><ele>1178.0</ele><time>2026-04-25T14:02:57.999Z</time></trkpt><trkpt lat="46.52097585108018" lon="12.141989645636977"><ele>1177.25</ele><time>2026-04-25T14:02:58.999Z</time></trkpt><trkpt lat="46.52084050408244" lon="12.142041681081656"><ele>1176.5</ele><time>2026-04-25T14:02:59.999Z</time></trkpt><trkpt lat="46.520699689713666" lon="12.142070814072907"><ele>1175.75</ele><time>2026-04-25T14:03:00.999Z</time></trkpt><trkpt lat="46.52055619104199" lon="12.142101528660131"><ele>1175.0</ele><time>2026-04-25T14:03:01.999Z</time></trkpt><trkpt lat="46.520408662790246" lon="12.1421376403478"><ele>1175.3333333333335</ele><time>2026-04-25T14:03:02.999Z</time></trkpt><trkpt lat="46.52025977889372" lon="12.142172112773386"><ele>1175.6666666666667</ele><time>2026-04-25T14:03:03.999Z</time></trkpt><trkpt lat="46.52010596985526" lon="12.142206146033311"><ele>1176.0</ele><time>2026-04-25T14:03:04.999Z</time></trkpt><trkpt lat="46.51994936390967" lon="12.14224288872661"><ele>1176.0</ele><time>2026-04-25T14:03:05.999Z</time></trkpt><trkpt lat="46.51979020827321" lon="12.142279719798342"><ele>1176.0</ele><time>2026-04-25T14:03:06.999Z</time></trkpt><trkpt lat="46.5196340418972" lon="12.14231592943746"><ele>1176.0</ele><time>2026-04-25T14:03:07.999Z</time></trkpt><trkpt lat="46.51947724954372" lon="12.142348008981472"><ele>1175.6666666666667</ele><time>2026-04-25T14:03:08.999Z</time></trkpt><trkpt lat="46.51931689558894" lon="12.142371897034504"><ele>1175.3333333333335</ele><time>2026-04-25T14:03:09.999Z</time></trkpt><trkpt lat="46.519155477159394" lon="12.142383363176894"><ele>1175.0</ele><time>2026-04-25T14:03:10.999Z</time></trkpt><trkpt lat="46.51899052323023" lon="12.142391785387556"><ele>1174.3333333333335</ele><time>2026-04-25T14:03:11.999Z</time></trkpt><trkpt lat="46.518823712762355" lon="12.142400694081235"><ele>1173.6666666666667</ele><time>2026-04-25T14:03:12.999Z</time></trkpt><trkpt lat="46.51865452499822" lon="12.14240951107252"><ele>1173.0</ele><time>2026-04-25T14:03:13.999Z</time></trkpt><trkpt lat="46.51848551970742" lon="12.142418065739275"><ele>1173.0</ele><time>2026-04-25T14:03:14.999Z</time></trkpt><trkpt lat="46.51831596122414" lon="12.1424298387067"><ele>1173.0</ele><time>2026-04-25T14:03:15.999Z</time></trkpt><trkpt lat="46.51815040252477" lon="12.142442889759968"><ele>1173.0</ele><time>2026-04-25T14:03:16.999Z</time></trkpt><trkpt lat="46.51798426787571" lon="12.14244413341133"><ele>1171.3333333333333</ele><time>2026-04-25T14:03:17.999Z</time></trkpt><trkpt lat="46.517823599900176" lon="12.142453297377267"><ele>1169.6666666666665</ele><time>2026-04-25T14:03:18.999Z</time></trkpt><trkpt lat="46.51767031702415" lon="12.142457019515497"><ele>1168.0</ele><time>2026-04-25T14:03:19.999Z</time></trkpt><trkpt lat="46.51752299123115" lon="12.14246502200598"><ele>1168.0</ele><time>2026-04-25T14:03:20.999Z</time></trkpt><trkpt lat="46.517380547022896" lon="12.142488910820083"><ele>1168.0</ele><time>2026-04-25T14:03:21.999Z</time></trkpt><trkpt lat="46.517243792899244" lon="12.142541554265353"><ele>1168.0</ele><time>2026-04-25T14:03:22.999Z</time></trkpt><trkpt lat="46.51710642358148" lon="12.14260579083485"><ele>1168.0</ele><time>2026-04-25T14:03:23.999Z</time></trkpt><trkpt lat="46.516970312200016" lon="12.142704640409626"><ele>1165.3333333333333</ele><time>2026-04-25T14:03:24.999Z</time></trkpt><trkpt lat="46.51684733638855" lon="12.142840883717914"><ele>1162.6666666666667</ele><time>2026-04-25T14:03:25.999Z</time></trkpt><trkpt lat="46.516725435499126" lon="12.142993104951357"><ele>1160.0</ele><time>2026-04-25T14:03:26.999Z</time></trkpt><trkpt lat="46.51660665686508" lon="12.143152669711618"><ele>1162.6666666666667</ele><time>2026-04-25T14:03:27.999Z</time></trkpt><trkpt lat="46.516490270882066" lon="12.143310691095918"><ele>1165.3333333333333</ele><time>2026-04-25T14:03:28.999Z</time></trkpt><trkpt lat="46.51637396525151" lon="12.143453184862327"><ele>1168.0</ele><time>2026-04-25T14:03:29.999Z</time></trkpt><trkpt lat="46.51626267209195" lon="12.143585728050486"><ele>1166.5</ele><time>2026-04-25T14:03:30.999Z</time></trkpt><trkpt lat="46.516155450078635" lon="12.143693882834729"><ele>1165.0</ele><time>2026-04-25T14:03:31.999Z</time></trkpt><trkpt lat="46.516051518549126" lon="12.143784176843626"><ele>1163.5</ele><time>2026-04-25T14:03:32.999Z</time></trkpt><trkpt lat="46.51594858490439" lon="12.143867041574957"><ele>1162.0</ele><time>2026-04-25T14:03:33.999Z</time></trkpt><trkpt lat="46.51584049429313" lon="12.14394383201948"><ele>1162.0</ele><time>2026-04-25T14:03:34.999Z</time></trkpt><trkpt lat="46.5157310824328" lon="12.14401718793989"><ele>1162.0</ele><time>2026-04-25T14:03:35.999Z</time></trkpt><trkpt lat="46.51562173422987" lon="12.144088098827972"><ele>1162.0</ele><time>2026-04-25T14:03:36.999Z</time></trkpt><trkpt lat="46.51550998939751" lon="12.144150966299657"><ele>1162.0</ele><time>2026-04-25T14:03:37.999Z</time></trkpt><trkpt lat="46.51539723727679" lon="12.144212835097129"><ele>1161.0</ele><time>2026-04-25T14:03:38.999Z</time></trkpt><trkpt lat="46.51528748645312" lon="12.144282380460682"><ele>1160.0</ele><time>2026-04-25T14:03:39.999Z</time></trkpt><trkpt lat="46.51518140232902" lon="12.144364834458013"><ele>1159.0</ele><time>2026-04-25T14:03:40.999Z</time></trkpt><trkpt lat="46.51508397641244" lon="12.144456688841595"><ele>1158.0</ele><time>2026-04-25T14:03:41.999Z</time></trkpt><trkpt lat="46.514990351823734" lon="12.144555588755997"><ele>1158.0</ele><time>2026-04-25T14:03:42.999Z</time></trkpt><trkpt lat="46.51489683356472" lon="12.144656106453027"><ele>1158.0</ele><time>2026-04-25T14:03:43.999Z</time></trkpt><trkpt lat="46.51480303142427" lon="12.144755349409918"><ele>1158.0</ele><time>2026-04-25T14:03:44.999Z</time></trkpt><trkpt lat="46.514712790244914" lon="12.144849685219059"><ele>1158.0</ele><time>2026-04-25T14:03:45.999Z</time></trkpt><trkpt lat="46.514625573626006" lon="12.144941875483983"><ele>1156.4</ele><time>2026-04-25T14:03:46.999Z</time></trkpt><trkpt lat="46.514546733804174" lon="12.145041708393135"><ele>1154.8</ele><time>2026-04-25T14:03:47.999Z</time></trkpt><trkpt lat="46.51447898991534" lon="12.145160715456155"><ele>1153.2</ele><time>2026-04-25T14:03:48.999Z</time></trkpt><trkpt lat="46.51442133356812" lon="12.145301052788039"><ele>1151.6</ele><time>2026-04-25T14:03:49.999Z</time></trkpt><trkpt lat="46.51437614625281" lon="12.14545734378204"><ele>1150.0</ele><time>2026-04-25T14:03:50.999Z</time></trkpt><trkpt lat="46.514343247925865" lon="12.145625368391148"><ele>1149.5</ele><time>2026-04-25T14:03:51.999Z</time></trkpt><trkpt lat="46.51432349878512" lon="12.145802025270635"><ele>1149.0</ele><time>2026-04-25T14:03:52.999Z</time></trkpt><trkpt lat="46.51431468129469" lon="12.145980145483755"><ele>1148.5</ele><time>2026-04-25T14:03:53.999Z</time></trkpt><trkpt lat="46.51431592799342" lon="12.146159487431794"><ele>1148.0</ele><time>2026-04-25T14:03:54.999Z</time></trkpt><trkpt lat="46.51432149695962" lon="12.146337663211547"><ele>1148.0</ele><time>2026-04-25T14:03:55.999Z</time></trkpt><trkpt lat="46.51432074675163" lon="12.14651400587009"><ele>1148.0</ele><time>2026-04-25T14:03:56.999Z</time></trkpt><trkpt lat="46.51431560765891" lon="12.14669051988262"><ele>1148.0</ele><time>2026-04-25T14:03:57.999Z</time></trkpt><trkpt lat="46.5143060825609" lon="12.146873142823111"><ele>1148.0</ele><time>2026-04-25T14:03:58.999Z</time></trkpt><trkpt lat="46.51429208275815" lon="12.147057443257097"><ele>1147.25</ele><time>2026-04-25T14:03:59.999Z</time></trkpt><trkpt lat="46.51427221069262" lon="12.147244233781436"><ele>1146.5</ele><time>2026-04-25T14:04:00.999Z</time></trkpt><trkpt lat="46.5142446956015" lon="12.147430609428994"><ele>1145.75</ele><time>2026-04-25T14:04:01.999Z</time></trkpt><trkpt lat="46.51421364266535" lon="12.147612581419693"><ele>1145.0</ele><time>2026-04-25T14:04:02.999Z</time></trkpt><trkpt lat="46.51417893033214" lon="12.1477882119761"><ele>1144.5</ele><time>2026-04-25T14:04:03.999Z</time></trkpt><trkpt lat="46.51413862872801" lon="12.147958667428844"><ele>1144.0</ele><time>2026-04-25T14:04:04.999Z</time></trkpt><trkpt lat="46.51408867753322" lon="12.148120760570047"><ele>1143.5</ele><time>2026-04-25T14:04:05.999Z</time></trkpt><trkpt lat="46.51403863414888" lon="12.148279402272957"><ele>1143.0</ele><time>2026-04-25T14:04:06.999Z</time></trkpt><trkpt lat="46.513979224287745" lon="12.148444272732274"><ele>1144.25</ele><time>2026-04-25T14:04:07.999Z</time></trkpt><trkpt lat="46.513910585153994" lon="12.148614096672326"><ele>1145.5</ele><time>2026-04-25T14:04:08.999Z</time></trkpt><trkpt lat="46.51383864578607" lon="12.148784916776462"><ele>1146.75</ele><time>2026-04-25T14:04:09.999Z</time></trkpt><trkpt lat="46.51375238333038" lon="12.148945788451606"><ele>1148.0</ele><time>2026-04-25T14:04:10.999Z</time></trkpt><trkpt lat="46.51367948285235" lon="12.149121376638954"><ele>1144.75</ele><time>2026-04-25T14:04:11.999Z</time></trkpt><trkpt lat="46.51361967386554" lon="12.149307404192896"><ele>1141.5</ele><time>2026-04-25T14:04:12.999Z</time></trkpt><trkpt lat="46.513544993061586" lon="12.14948386066522"><ele>1138.25</ele><time>2026-04-25T14:04:13.999Z</time></trkpt><trkpt lat="46.513466947186785" lon="12.149664311332529"><ele>1135.0</ele><time>2026-04-25T14:04:14.999Z</time></trkpt><trkpt lat="46.51337378014537" lon="12.149838319916299"><ele>1138.0</ele><time>2026-04-25T14:04:15.999Z</time></trkpt><trkpt lat="46.513290659343994" lon="12.150031816853138"><ele>1141.0</ele><time>2026-04-25T14:04:16.999Z</time></trkpt><trkpt lat="46.51320523026642" lon="12.150236891752145"><ele>1144.0</ele><time>2026-04-25T14:04:17.999Z</time></trkpt><trkpt lat="46.51313094545311" lon="12.150454477822514"><ele>1144.0</ele><time>2026-04-25T14:04:18.999Z</time></trkpt><trkpt lat="46.51304302347899" lon="12.15065423841627"><ele>1144.0</ele><time>2026-04-25T14:04:19.999Z</time></trkpt><trkpt lat="46.51295199025169" lon="12.1508523538249"><ele>1144.0</ele><time>2026-04-25T14:04:20.999Z</time></trkpt><trkpt lat="46.512862774852714" lon="12.151051554261256"><ele>1142.3333333333333</ele><time>2026-04-25T14:04:21.999Z</time></trkpt><trkpt lat="46.512770118564205" lon="12.151251698808116"><ele>1140.6666666666667</ele><time>2026-04-25T14:04:22.999Z</time></trkpt><trkpt lat="46.512672460904106" lon="12.151452425489014"><ele>1139.0</ele><time>2026-04-25T14:04:23.999Z</time></trkpt><trkpt lat="46.5125741055104" lon="12.151658785904543"><ele>1139.0</ele><time>2026-04-25T14:04:24.999Z</time></trkpt><trkpt lat="46.51246498001228" lon="12.151879884286256"><ele>1139.0</ele><time>2026-04-25T14:04:25.999Z</time></trkpt><trkpt lat="46.51237043690424" lon="12.15214648688381"><ele>1139.0</ele><time>2026-04-25T14:04:26.999Z</time></trkpt><trkpt lat="46.51228729748791" lon="12.152441951742317"><ele>1142.3333333333335</ele><time>2026-04-25T14:04:27.999Z</time></trkpt><trkpt lat="46.512185352932" lon="12.152716770882751"><ele>1145.6666666666667</ele><time>2026-04-25T14:04:28.999Z</time></trkpt><trkpt lat="46.51207722470964" lon="12.152966046629114"><ele>1149.0</ele><time>2026-04-25T14:04:29.999Z</time></trkpt><trkpt lat="46.51195651914871" lon="12.153191320014729"><ele>1145.0</ele><time>2026-04-25T14:04:30.998Z</time></trkpt><trkpt lat="46.51181782031165" lon="12.15339666319437"><ele>1141.0</ele><time>2026-04-25T14:04:31.998Z</time></trkpt><trkpt lat="46.51166118404437" lon="12.153588493255965"><ele>1137.0</ele><time>2026-04-25T14:04:32.998Z</time></trkpt><trkpt lat="46.51150316092927" lon="12.15375921925886"><ele>1137.0</ele><time>2026-04-25T14:04:33.998Z</time></trkpt><trkpt lat="46.51135233946184" lon="12.15391681775224"><ele>1137.0</ele><time>2026-04-25T14:04:34.998Z</time></trkpt><trkpt lat="46.51120999444701" lon="12.154078895795307"><ele>1137.0</ele><time>2026-04-25T14:04:35.998Z</time></trkpt><trkpt lat="46.51107077052732" lon="12.154260471811174"><ele>1135.0</ele><time>2026-04-25T14:04:37Z</time></trkpt><trkpt lat="46.51093432237803" lon="12.154451394189381"><ele>1133.0</ele><time>2026-04-25T14:04:38.001Z</time></trkpt><trkpt lat="46.51080166907749" lon="12.154633369072002"><ele>1131.0</ele><time>2026-04-25T14:04:39.001Z</time></trkpt><trkpt lat="46.51067342794501" lon="12.1548043146222"><ele>1126.6666666666667</ele><time>2026-04-25T14:04:40.001Z</time></trkpt><trkpt lat="46.510550319806704" lon="12.15497343039355"><ele>1122.3333333333335</ele><time>2026-04-25T14:04:41.001Z</time></trkpt><trkpt lat="46.51043106613121" lon="12.155143952099936"><ele>1118.0</ele><time>2026-04-25T14:04:42Z</time></trkpt><trkpt lat="46.51032418160476" lon="12.15532995702471"><ele>1118.0</ele><time>2026-04-25T14:04:43Z</time></trkpt><trkpt lat="46.510227178508245" lon="12.155531223172591"><ele>1118.0</ele><time>2026-04-25T14:04:44.001Z</time></trkpt><trkpt lat="46.51012521115501" lon="12.155733107631475"><ele>1118.0</ele><time>2026-04-25T14:04:45Z</time></trkpt><trkpt lat="46.5100041516953" lon="12.155913262184363"><ele>1122.6666666666667</ele><time>2026-04-25T14:04:46Z</time></trkpt><trkpt lat="46.50985987669524" lon="12.15607125116258"><ele>1127.3333333333333</ele><time>2026-04-25T14:04:47.001Z</time></trkpt><trkpt lat="46.509694134873854" lon="12.156206619383743"><ele>1132.0</ele><time>2026-04-25T14:04:48Z</time></trkpt><trkpt lat="46.50951018597164" lon="12.15631309365354"><ele>1132.0</ele><time>2026-04-25T14:04:49Z</time></trkpt><trkpt lat="46.50930763480976" lon="12.156382537152108"><ele>1132.0</ele><time>2026-04-25T14:04:50.001Z</time></trkpt><trkpt lat="46.50909475612016" lon="12.15641163158725"><ele>1132.0</ele><time>2026-04-25T14:04:51Z</time></trkpt><trkpt lat="46.50890194336892" lon="12.156427173155707"><ele>1132.0</ele><time>2026-04-25T14:04:52Z</time></trkpt><trkpt lat="46.50872767645587" lon="12.15644830056109"><ele>1132.0</ele><time>2026-04-25T14:04:53Z</time></trkpt><trkpt lat="46.50856472488873" lon="12.156480509739435"><ele>1132.0</ele><time>2026-04-25T14:04:54Z</time></trkpt><trkpt lat="46.50841808672627" lon="12.156523477075208"><ele>1132.3333333333333</ele><time>2026-04-25T14:04:55Z</time></trkpt><trkpt lat="46.508279830122376" lon="12.156596404185962"><ele>1132.6666666666667</ele><time>2026-04-25T14:04:56Z</time></trkpt><trkpt lat="46.508144081707606" lon="12.156709952986382"><ele>1133.0</ele><time>2026-04-25T14:04:57Z</time></trkpt><trkpt lat="46.50801628525947" lon="12.156856532599637"><ele>1129.3333333333335</ele><time>2026-04-25T14:04:58Z</time></trkpt><trkpt lat="46.50789028703695" lon="12.157010379671286"><ele>1125.6666666666667</ele><time>2026-04-25T14:04:59Z</time></trkpt><trkpt lat="46.50776569808842" lon="12.157153334832595"><ele>1122.0</ele><time>2026-04-25T14:05:00Z</time></trkpt><trkpt lat="46.50764470958434" lon="12.157292805871178"><ele>1123.0</ele><time>2026-04-25T14:05:01Z</time></trkpt><trkpt lat="46.50752454248428" lon="12.157431909767828"><ele>1124.0</ele><time>2026-04-25T14:05:02Z</time></trkpt><trkpt lat="46.50740490200964" lon="12.157568963574201"><ele>1125.0</ele><time>2026-04-25T14:05:03Z</time></trkpt><trkpt lat="46.50729965100448" lon="12.157695313537308"><ele>1126.0</ele><time>2026-04-25T14:05:04Z</time></trkpt><trkpt lat="46.50720061061461" lon="12.15781605884773"><ele>1126.0</ele><time>2026-04-25T14:05:05Z</time></trkpt><trkpt lat="46.50710537117172" lon="12.157929852132934"><ele>1126.0</ele><time>2026-04-25T14:05:06Z</time></trkpt><trkpt lat="46.507010887770086" lon="12.158038123569629"><ele>1126.0</ele><time>2026-04-25T14:05:07Z</time></trkpt><trkpt lat="46.50691425215092" lon="12.15815059357279"><ele>1126.0</ele><time>2026-04-25T14:05:08Z</time></trkpt><trkpt lat="46.50681762560482" lon="12.158262822705636"><ele>1124.75</ele><time>2026-04-25T14:05:09Z</time></trkpt><trkpt lat="46.50671999608466" lon="12.158373847233836"><ele>1123.5</ele><time>2026-04-25T14:05:10Z</time></trkpt><trkpt lat="46.506622256731106" lon="12.158487569681794"><ele>1122.25</ele><time>2026-04-25T14:05:11Z</time></trkpt><trkpt lat="46.50652370319353" lon="12.158604778077413"><ele>1121.0</ele><time>2026-04-25T14:05:12Z</time></trkpt><trkpt lat="46.50642400532997" lon="12.15872321132239"><ele>1121.0</ele><time>2026-04-25T14:05:13Z</time></trkpt><trkpt lat="46.50632135419361" lon="12.158841338422468"><ele>1121.0</ele><time>2026-04-25T14:05:14Z</time></trkpt><trkpt lat="46.50621547234645" lon="12.158961770135013"><ele>1121.0</ele><time>2026-04-25T14:05:15Z</time></trkpt><trkpt lat="46.50610882328143" lon="12.159082928638503"><ele>1121.0</ele><time>2026-04-25T14:05:16Z</time></trkpt><trkpt lat="46.50599929798827" lon="12.159204500659929"><ele>1120.5</ele><time>2026-04-25T14:05:17Z</time></trkpt><trkpt lat="46.505889680918884" lon="12.159328198982335"><ele>1120.0</ele><time>2026-04-25T14:05:18Z</time></trkpt><trkpt lat="46.5057818632769" lon="12.159455636617965"><ele>1119.5</ele><time>2026-04-25T14:05:19Z</time></trkpt><trkpt lat="46.50567522957008" lon="12.159588056266431"><ele>1119.0</ele><time>2026-04-25T14:05:20Z</time></trkpt><trkpt lat="46.50556837514956" lon="12.159719857097235"><ele>1119.0</ele><time>2026-04-25T14:05:21Z</time></trkpt><trkpt lat="46.50546112395755" lon="12.15985188757792"><ele>1119.0</ele><time>2026-04-25T14:05:22Z</time></trkpt><trkpt lat="46.505358680510234" lon="12.159991979909268"><ele>1119.0</ele><time>2026-04-25T14:05:23Z</time></trkpt><trkpt lat="46.505268693206126" lon="12.160145560979437"><ele>1119.0</ele><time>2026-04-25T14:05:24Z</time></trkpt><trkpt lat="46.505197960081304" lon="12.16031964829872"><ele>1119.5</ele><time>2026-04-25T14:05:25Z</time></trkpt><trkpt lat="46.505141947781226" lon="12.160506810987204"><ele>1120.0</ele><time>2026-04-25T14:05:26Z</time></trkpt><trkpt lat="46.505096999790354" lon="12.160699391533436"><ele>1120.5</ele><time>2026-04-25T14:05:27Z</time></trkpt><trkpt lat="46.50505161381697" lon="12.160888228877926"><ele>1121.0</ele><time>2026-04-25T14:05:28Z</time></trkpt><trkpt lat="46.50500487978835" lon="12.161075385482741"><ele>1122.25</ele><time>2026-04-25T14:05:29Z</time></trkpt><trkpt lat="46.504956713726784" lon="12.161261680682953"><ele>1123.5</ele><time>2026-04-25T14:05:30Z</time></trkpt><trkpt lat="46.5049034941978" lon="12.161449614578023"><ele>1124.75</ele><time>2026-04-25T14:05:31Z</time></trkpt><trkpt lat="46.504839854116305" lon="12.16163668129405"><ele>1126.0</ele><time>2026-04-25T14:05:32Z</time></trkpt><trkpt lat="46.504766597612154" lon="12.161811519535465"><ele>1126.6666666666665</ele><time>2026-04-25T14:05:33Z</time></trkpt><trkpt lat="46.50467803436494" lon="12.161980874330478"><ele>1127.3333333333333</ele><time>2026-04-25T14:05:34Z</time></trkpt><trkpt lat="46.50457100488452" lon="12.162144458429408"><ele>1128.0</ele><time>2026-04-25T14:05:35Z</time></trkpt><trkpt lat="46.50443558463291" lon="12.162307727751074"><ele>1126.0</ele><time>2026-04-25T14:05:36Z</time></trkpt><trkpt lat="46.5042624956483" lon="12.162466115493862"><ele>1124.0</ele><time>2026-04-25T14:05:37Z</time></trkpt><trkpt lat="46.504077795774904" lon="12.162653139523364"><ele>1122.0</ele><time>2026-04-25T14:05:38Z</time></trkpt><trkpt lat="46.50389133652523" lon="12.162861318788506"><ele>1121.3333333333333</ele><time>2026-04-25T14:05:39Z</time></trkpt><trkpt lat="46.5037043478355" lon="12.163048689883215"><ele>1120.6666666666665</ele><time>2026-04-25T14:05:40Z</time></trkpt><trkpt lat="46.50351722683939" lon="12.163204835262725"><ele>1120.0</ele><time>2026-04-25T14:05:41Z</time></trkpt><trkpt lat="46.503359083597324" lon="12.163389521144355"><ele>1120.0</ele><time>2026-04-25T14:05:42Z</time></trkpt><trkpt lat="46.503199274214374" lon="12.16354563782884"><ele>1120.0</ele><time>2026-04-25T14:05:43Z</time></trkpt><trkpt lat="46.50304577405819" lon="12.16369854189741"><ele>1120.0</ele><time>2026-04-25T14:05:44Z</time></trkpt><trkpt lat="46.502892616948124" lon="12.163848988493324"><ele>1118.3333333333333</ele><time>2026-04-25T14:05:45Z</time></trkpt><trkpt lat="46.502735387102504" lon="12.164000849333679"><ele>1116.6666666666667</ele><time>2026-04-25T14:05:46Z</time></trkpt><trkpt lat="46.5025724694867" lon="12.16416030931745"><ele>1115.0</ele><time>2026-04-25T14:05:47Z</time></trkpt><trkpt lat="46.50240331218177" lon="12.164327678728755"><ele>1115.0</ele><time>2026-04-25T14:05:48Z</time></trkpt><trkpt lat="46.502217926685844" lon="12.16451845856078"><ele>1115.0</ele><time>2026-04-25T14:05:49Z</time></trkpt><trkpt lat="46.50197679117897" lon="12.164725266188942"><ele>1120.0</ele><time>2026-04-25T14:05:50Z</time></trkpt><trkpt lat="46.501708626496516" lon="12.16498746034056"><ele>1125.0</ele><time>2026-04-25T14:05:51Z</time></trkpt><trkpt lat="46.50142531185926" lon="12.165269211110838"><ele>1123.5</ele><time>2026-04-25T14:05:52Z</time></trkpt><trkpt lat="46.501190652319394" lon="12.165521165092178"><ele>1122.0</ele><time>2026-04-25T14:05:53Z</time></trkpt><trkpt lat="46.500962872158574" lon="12.165728559918211"><ele>1122.0</ele><time>2026-04-25T14:05:54Z</time></trkpt><trkpt lat="46.5007562935781" lon="12.165924821104836"><ele>1122.0</ele><time>2026-04-25T14:05:55Z</time></trkpt><trkpt lat="46.500565617214406" lon="12.166113335288724"><ele>1121.0</ele><time>2026-04-25T14:05:56Z</time></trkpt><trkpt lat="46.50039522117825" lon="12.16628932956702"><ele>1120.0</ele><time>2026-04-25T14:05:57Z</time></trkpt><trkpt lat="46.500245054081944" lon="12.16646689715607"><ele>1119.0</ele><time>2026-04-25T14:05:58Z</time></trkpt><trkpt lat="46.500109845113386" lon="12.166653622705539"><ele>1119.0</ele><time>2026-04-25T14:05:59Z</time></trkpt><trkpt lat="46.499987513568705" lon="12.166856825709415"><ele>1119.0</ele><time>2026-04-25T14:06:00Z</time></trkpt><trkpt lat="46.499877946774724" lon="12.167082404244859"><ele>1119.0</ele><time>2026-04-25T14:06:01Z</time></trkpt><trkpt lat="46.49977509513075" lon="12.16732620615148"><ele>1121.0</ele><time>2026-04-25T14:06:02Z</time></trkpt><trkpt lat="46.4996737851639" lon="12.167579993576899"><ele>1123.0</ele><time>2026-04-25T14:06:03Z</time></trkpt><trkpt lat="46.49956344483551" lon="12.167836073481073"><ele>1125.0</ele><time>2026-04-25T14:06:04Z</time></trkpt><trkpt lat="46.49944912653782" lon="12.168094272053622"><ele>1122.0</ele><time>2026-04-25T14:06:05Z</time></trkpt><trkpt lat="46.49934077814572" lon="12.168346401673533"><ele>1119.0</ele><time>2026-04-25T14:06:06Z</time></trkpt><trkpt lat="46.49923700826638" lon="12.168580114848274"><ele>1116.0</ele><time>2026-04-25T14:06:07Z</time></trkpt><trkpt lat="46.49911315347673" lon="12.168795868455554"><ele>1116.0</ele><time>2026-04-25T14:06:08Z</time></trkpt><trkpt lat="46.49897273691086" lon="12.16898493746771"><ele>1116.0</ele><time>2026-04-25T14:06:09Z</time></trkpt><trkpt lat="46.498816857072086" lon="12.169145204945343"><ele>1116.0</ele><time>2026-04-25T14:06:10Z</time></trkpt><trkpt lat="46.498658503252635" lon="12.16928147572896"><ele>1115.6666666666667</ele><time>2026-04-25T14:06:11Z</time></trkpt><trkpt lat="46.498502507030615" lon="12.16940604718785"><ele>1115.3333333333335</ele><time>2026-04-25T14:06:12Z</time></trkpt><trkpt lat="46.49835135031844" lon="12.169534427325356"><ele>1115.0</ele><time>2026-04-25T14:06:13Z</time></trkpt><trkpt lat="46.498206740873506" lon="12.169697696842405"><ele>1112.6666666666667</ele><time>2026-04-25T14:06:14Z</time></trkpt><trkpt lat="46.49807362674399" lon="12.169893279289656"><ele>1110.3333333333333</ele><time>2026-04-25T14:06:15Z</time></trkpt><trkpt lat="46.49795335910267" lon="12.170117102320907"><ele>1108.0</ele><time>2026-04-25T14:06:16Z</time></trkpt><trkpt lat="46.497856483442696" lon="12.170363549689002"><ele>1108.0</ele><time>2026-04-25T14:06:17Z</time></trkpt><trkpt lat="46.49779014245919" lon="12.170626310356695"><ele>1108.0</ele><time>2026-04-25T14:06:18Z</time></trkpt><trkpt lat="46.49774931715291" lon="12.17089417481746"><ele>1108.0</ele><time>2026-04-25T14:06:19Z</time></trkpt><trkpt lat="46.497731888027175" lon="12.171167542219088"><ele>1110.6666666666665</ele><time>2026-04-25T14:06:20Z</time></trkpt><trkpt lat="46.49773213755844" lon="12.171438517449243"><ele>1113.3333333333333</ele><time>2026-04-25T14:06:21Z</time></trkpt><trkpt lat="46.497730940621246" lon="12.171708764469544"><ele>1116.0</ele><time>2026-04-25T14:06:22Z</time></trkpt><trkpt lat="46.49772531690985" lon="12.171977097792585"><ele>1116.6666666666667</ele><time>2026-04-25T14:06:23Z</time></trkpt><trkpt lat="46.49770904013467" lon="12.17224558451419"><ele>1117.3333333333335</ele><time>2026-04-25T14:06:24Z</time></trkpt><trkpt lat="46.49767867903076" lon="12.172514794182346"><ele>1118.0</ele><time>2026-04-25T14:06:25Z</time></trkpt><trkpt lat="46.497636851381415" lon="12.172785287058048"><ele>1118.6666666666667</ele><time>2026-04-25T14:06:26Z</time></trkpt><trkpt lat="46.497592542643446" lon="12.17306185876045"><ele>1119.3333333333333</ele><time>2026-04-25T14:06:27Z</time></trkpt><trkpt lat="46.49755739245869" lon="12.173346623768047"><ele>1120.0</ele><time>2026-04-25T14:06:28Z</time></trkpt><trkpt lat="46.49753137867915" lon="12.173635086396262"><ele>1120.0</ele><time>2026-04-25T14:06:29Z</time></trkpt><trkpt lat="46.49752262224179" lon="12.173919470976928"><ele>1120.0</ele><time>2026-04-25T14:06:30Z</time></trkpt><trkpt lat="46.49752422093718" lon="12.17419977725938"><ele>1120.0</ele><time>2026-04-25T14:06:31Z</time></trkpt><trkpt lat="46.49751746306702" lon="12.174470688696822"><ele>1121.3333333333333</ele><time>2026-04-25T14:06:32Z</time></trkpt><trkpt lat="46.49749895986555" lon="12.17473583616086"><ele>1122.6666666666667</ele><time>2026-04-25T14:06:32.999Z</time></trkpt><trkpt lat="46.49747128283614" lon="12.174995098803365"><ele>1124.0</ele><time>2026-04-25T14:06:33.999Z</time></trkpt><trkpt lat="46.49742780271206" lon="12.175257375155592"><ele>1124.3333333333335</ele><time>2026-04-25T14:06:34.999Z</time></trkpt><trkpt lat="46.49736461118617" lon="12.175514460925756"><ele>1124.6666666666667</ele><time>2026-04-25T14:06:35.999Z</time></trkpt><trkpt lat="46.497288026361886" lon="12.175766196780168"><ele>1125.0</ele><time>2026-04-25T14:06:36.999Z</time></trkpt><trkpt lat="46.49720822837806" lon="12.176016100168656"><ele>1125.0</ele><time>2026-04-25T14:06:37.999Z</time></trkpt><trkpt lat="46.4971235904344" lon="12.17626878033579"><ele>1125.0</ele><time>2026-04-25T14:06:38.999Z</time></trkpt><trkpt lat="46.49703122892842" lon="12.176522418984012"><ele>1125.0</ele><time>2026-04-25T14:06:39.999Z</time></trkpt><trkpt lat="46.49693135220815" lon="12.176767321489775"><ele>1123.3333333333333</ele><time>2026-04-25T14:06:40.999Z</time></trkpt><trkpt lat="46.49682130092243" lon="12.176999668258214"><ele>1121.6666666666665</ele><time>2026-04-25T14:06:41.999Z</time></trkpt><trkpt lat="46.496700510768484" lon="12.177220506174839"><ele>1120.0</ele><time>2026-04-25T14:06:43Z</time></trkpt><trkpt lat="46.49657053742171" lon="12.177428404762987"><ele>1120.0</ele><time>2026-04-25T14:06:44Z</time></trkpt><trkpt lat="46.496436772930664" lon="12.177627473279442"><ele>1120.0</ele><time>2026-04-25T14:06:45Z</time></trkpt><trkpt lat="46.49629697307202" lon="12.177825053446952"><ele>1120.0</ele><time>2026-04-25T14:06:46Z</time></trkpt><trkpt lat="46.49615397662991" lon="12.17803040242221"><ele>1118.3333333333333</ele><time>2026-04-25T14:06:47Z</time></trkpt><trkpt lat="46.49601300357712" lon="12.178240303135977"><ele>1116.6666666666667</ele><time>2026-04-25T14:06:48Z</time></trkpt><trkpt lat="46.495870276255104" lon="12.17844045610242"><ele>1115.0</ele><time>2026-04-25T14:06:49Z</time></trkpt><trkpt lat="46.49572142462582" lon="12.178623961055058"><ele>1115.0</ele><time>2026-04-25T14:06:50Z</time></trkpt><trkpt lat="46.49556431856883" lon="12.17878659452626"><ele>1115.0</ele><time>2026-04-25T14:06:51Z</time></trkpt><trkpt lat="46.4954016289718" lon="12.178932960423044"><ele>1115.0</ele><time>2026-04-25T14:06:52Z</time></trkpt><trkpt lat="46.495232751015166" lon="12.17906679093202"><ele>1117.6666666666667</ele><time>2026-04-25T14:06:53Z</time></trkpt><trkpt lat="46.49505772768388" lon="12.17918393774009"><ele>1120.3333333333333</ele><time>2026-04-25T14:06:54Z</time></trkpt><trkpt lat="46.49487671405887" lon="12.1792920732863"><ele>1123.0</ele><time>2026-04-25T14:06:55Z</time></trkpt><trkpt lat="46.49470406325991" lon="12.179379314107896"><ele>1122.3333333333333</ele><time>2026-04-25T14:06:56Z</time></trkpt><trkpt lat="46.494542614748994" lon="12.17945882335029"><ele>1121.6666666666667</ele><time>2026-04-25T14:06:57Z</time></trkpt><trkpt lat="46.49438078496126" lon="12.179544125996395"><ele>1121.0</ele><time>2026-04-25T14:06:58Z</time></trkpt><trkpt lat="46.49422115825375" lon="12.179626158231278"><ele>1121.0</ele><time>2026-04-25T14:06:59Z</time></trkpt><trkpt lat="46.49406117446758" lon="12.17970681360913"><ele>1121.0</ele><time>2026-04-25T14:07:00Z</time></trkpt><trkpt lat="46.49390196483357" lon="12.179789008109893"><ele>1121.0</ele><time>2026-04-25T14:07:01Z</time></trkpt><trkpt lat="46.49374416713759" lon="12.17986887464003"><ele>1122.3333333333335</ele><time>2026-04-25T14:07:02Z</time></trkpt><trkpt lat="46.493588193219786" lon="12.179952230777818"><ele>1123.6666666666667</ele><time>2026-04-25T14:07:03Z</time></trkpt><trkpt lat="46.49342964860804" lon="12.180027845546045"><ele>1125.0</ele><time>2026-04-25T14:07:04Z</time></trkpt><trkpt lat="46.493271161912375" lon="12.180128861824537"><ele>1125.0</ele><time>2026-04-25T14:07:05Z</time></trkpt><trkpt lat="46.4931150875349" lon="12.18024209066623"><ele>1125.0</ele><time>2026-04-25T14:07:06Z</time></trkpt><trkpt lat="46.49296052883506" lon="12.180376574862334"><ele>1125.0</ele><time>2026-04-25T14:07:07Z</time></trkpt><trkpt lat="46.49280707019178" lon="12.180515790104453"><ele>1124.6666666666667</ele><time>2026-04-25T14:07:08Z</time></trkpt><trkpt lat="46.49266073022987" lon="12.180673894338117"><ele>1124.3333333333335</ele><time>2026-04-25T14:07:09Z</time></trkpt><trkpt lat="46.49251200637795" lon="12.180848618871398"><ele>1124.0</ele><time>2026-04-25T14:07:10Z</time></trkpt><trkpt lat="46.49237285553175" lon="12.181039117810451"><ele>1124.0</ele><time>2026-04-25T14:07:11Z</time></trkpt><trkpt lat="46.49223313230038" lon="12.181235420641661"><ele>1124.0</ele><time>2026-04-25T14:07:12Z</time></trkpt><trkpt lat="46.49209093459371" lon="12.181437863624831"><ele>1124.0</ele><time>2026-04-25T14:07:13Z</time></trkpt><trkpt lat="46.49195181231714" lon="12.181638686049133"><ele>1122.0</ele><time>2026-04-25T14:07:14Z</time></trkpt><trkpt lat="46.491811262614064" lon="12.18183894322103"><ele>1120.0</ele><time>2026-04-25T14:07:15Z</time></trkpt><trkpt lat="46.49167364082375" lon="12.182036991352724"><ele>1118.0</ele><time>2026-04-25T14:07:16Z</time></trkpt><trkpt lat="46.49154094733597" lon="12.182233420290142"><ele>1119.0</ele><time>2026-04-25T14:07:17Z</time></trkpt><trkpt lat="46.491411642878724" lon="12.1824245148428"><ele>1120.0</ele><time>2026-04-25T14:07:18Z</time></trkpt><trkpt lat="46.49128459030214" lon="12.18261037620965"><ele>1121.0</ele><time>2026-04-25T14:07:19Z</time></trkpt><trkpt lat="46.49115814958699" lon="12.18279592497374"><ele>1121.0</ele><time>2026-04-25T14:07:20Z</time></trkpt><trkpt lat="46.491029827432264" lon="12.182983917080684"><ele>1121.0</ele><time>2026-04-25T14:07:21Z</time></trkpt><trkpt lat="46.49090025693913" lon="12.183173564935716"><ele>1121.0</ele><time>2026-04-25T14:07:22Z</time></trkpt><trkpt lat="46.49076857982512" lon="12.183362027600193"><ele>1121.0</ele><time>2026-04-25T14:07:23Z</time></trkpt><trkpt lat="46.49063747176217" lon="12.183550030536646"><ele>1121.0</ele><time>2026-04-25T14:07:24Z</time></trkpt><trkpt lat="46.4905033830407" lon="12.1837367138885"><ele>1121.0</ele><time>2026-04-25T14:07:25Z</time></trkpt><trkpt lat="46.49036778532709" lon="12.183922084667213"><ele>1118.3333333333335</ele><time>2026-04-25T14:07:26Z</time></trkpt><trkpt lat="46.49022881222827" lon="12.184098797525182"><ele>1115.6666666666667</ele><time>2026-04-25T14:07:27Z</time></trkpt><trkpt lat="46.490084225668014" lon="12.184265533389658"><ele>1113.0</ele><time>2026-04-25T14:07:28Z</time></trkpt><trkpt lat="46.48993737118635" lon="12.184422016243994"><ele>1113.0</ele><time>2026-04-25T14:07:29Z</time></trkpt><trkpt lat="46.489788189737574" lon="12.184573953023133"><ele>1113.0</ele><time>2026-04-25T14:07:30Z</time></trkpt><trkpt lat="46.48963799215826" lon="12.184726302665322"><ele>1113.0</ele><time>2026-04-25T14:07:31Z</time></trkpt><trkpt lat="46.48948890759341" lon="12.1848825484445"><ele>1110.6666666666667</ele><time>2026-04-25T14:07:32Z</time></trkpt><trkpt lat="46.4893389243912" lon="12.185038712284697"><ele>1108.3333333333335</ele><time>2026-04-25T14:07:33Z</time></trkpt><trkpt lat="46.489192649376406" lon="12.185194807703748"><ele>1106.0</ele><time>2026-04-25T14:07:34Z</time></trkpt><trkpt lat="46.489045075424656" lon="12.185346687162669"><ele>1106.0</ele><time>2026-04-25T14:07:35Z</time></trkpt><trkpt lat="46.488892738832284" lon="12.185495274208193"><ele>1106.0</ele><time>2026-04-25T14:07:36Z</time></trkpt><trkpt lat="46.48874134097986" lon="12.185645305841629"><ele>1106.0</ele><time>2026-04-25T14:07:37Z</time></trkpt><trkpt lat="46.488591638366636" lon="12.185796593101815"><ele>1105.3333333333335</ele><time>2026-04-25T14:07:38Z</time></trkpt><trkpt lat="46.48844372694644" lon="12.185953765341079"><ele>1104.6666666666667</ele><time>2026-04-25T14:07:39Z</time></trkpt><trkpt lat="46.48830467329109" lon="12.18612561887583"><ele>1104.0</ele><time>2026-04-25T14:07:40Z</time></trkpt><trkpt lat="46.488178460723226" lon="12.186314055888278"><ele>1106.0</ele><time>2026-04-25T14:07:41Z</time></trkpt><trkpt lat="46.48806268142821" lon="12.186513873156677"><ele>1108.0</ele><time>2026-04-25T14:07:42Z</time></trkpt><trkpt lat="46.4879537874709" lon="12.186721337363347"><ele>1110.0</ele><time>2026-04-25T14:07:43Z</time></trkpt><trkpt lat="46.48786309010902" lon="12.18694143566095"><ele>1105.3333333333333</ele><time>2026-04-25T14:07:44Z</time></trkpt><trkpt lat="46.487777630255515" lon="12.187170057625554"><ele>1100.6666666666665</ele><time>2026-04-25T14:07:45Z</time></trkpt><trkpt lat="46.487698754018204" lon="12.187407149934584"><ele>1096.0</ele><time>2026-04-25T14:07:46Z</time></trkpt><trkpt lat="46.487618071984514" lon="12.187647941172633"><ele>1096.0</ele><time>2026-04-25T14:07:47Z</time></trkpt><trkpt lat="46.48753101532876" lon="12.18788620706792"><ele>1096.0</ele><time>2026-04-25T14:07:48Z</time></trkpt><trkpt lat="46.48744298894648" lon="12.18812732379809"><ele>1096.0</ele><time>2026-04-25T14:07:49Z</time></trkpt><trkpt lat="46.4873549062388" lon="12.18837163071987"><ele>1097.6666666666665</ele><time>2026-04-25T14:07:50Z</time></trkpt><trkpt lat="46.4872704489347" lon="12.188621932807067"><ele>1099.3333333333333</ele><time>2026-04-25T14:07:51Z</time></trkpt><trkpt lat="46.48719046057434" lon="12.188876183193948"><ele>1101.0</ele><time>2026-04-25T14:07:52Z</time></trkpt><trkpt lat="46.48711118469624" lon="12.18913307159808"><ele>1098.0</ele><time>2026-04-25T14:07:53Z</time></trkpt><trkpt lat="46.48703807876871" lon="12.189389770123448"><ele>1095.0</ele><time>2026-04-25T14:07:54Z</time></trkpt><trkpt lat="46.4869693250303" lon="12.189645151896288"><ele>1092.0</ele><time>2026-04-25T14:07:55Z</time></trkpt><trkpt lat="46.486901190494486" lon="12.189896887320817"><ele>1092.0</ele><time>2026-04-25T14:07:56Z</time></trkpt><trkpt lat="46.486826991557436" lon="12.190142331593053"><ele>1092.0</ele><time>2026-04-25T14:07:57Z</time></trkpt><trkpt lat="46.48673812264299" lon="12.190376200717067"><ele>1092.0</ele><time>2026-04-25T14:07:58Z</time></trkpt><trkpt lat="46.486636290374776" lon="12.190602659605963"><ele>1093.0</ele><time>2026-04-25T14:07:59Z</time></trkpt><trkpt lat="46.48652176042668" lon="12.190816711920275"><ele>1094.0</ele><time>2026-04-25T14:08:00Z</time></trkpt><trkpt lat="46.48639040109389" lon="12.191012994003575"><ele>1095.0</ele><time>2026-04-25T14:08:01Z</time></trkpt><trkpt lat="46.486233601860334" lon="12.19118540882018"><ele>1095.3333333333333</ele><time>2026-04-25T14:08:02Z</time></trkpt><trkpt lat="46.486062021960066" lon="12.191343811968874"><ele>1095.6666666666665</ele><time>2026-04-25T14:08:03Z</time></trkpt><trkpt lat="46.48589241639449" lon="12.191505510555434"><ele>1096.0</ele><time>2026-04-25T14:08:04Z</time></trkpt><trkpt lat="46.4857246053602" lon="12.191672549644363"><ele>1096.0</ele><time>2026-04-25T14:08:05Z</time></trkpt><trkpt lat="46.48555777411023" lon="12.191838246412388"><ele>1096.0</ele><time>2026-04-25T14:08:06Z</time></trkpt><trkpt lat="46.48539086649603" lon="12.192002621533698"><ele>1096.0</ele><time>2026-04-25T14:08:07Z</time></trkpt><trkpt lat="46.485221529848346" lon="12.19216709846675"><ele>1095.3333333333333</ele><time>2026-04-25T14:08:08Z</time></trkpt><trkpt lat="46.48505181309567" lon="12.192330239716958"><ele>1094.6666666666667</ele><time>2026-04-25T14:08:09Z</time></trkpt><trkpt lat="46.4848850373689" lon="12.192490012778087"><ele>1094.0</ele><time>2026-04-25T14:08:10Z</time></trkpt><trkpt lat="46.48471959153365" lon="12.192647642127055"><ele>1091.0</ele><time>2026-04-25T14:08:11Z</time></trkpt><trkpt lat="46.48455372838475" lon="12.192800500071863"><ele>1088.0</ele><time>2026-04-25T14:08:12Z</time></trkpt><trkpt lat="46.484379963849854" lon="12.19293310731938"><ele>1085.0</ele><time>2026-04-25T14:08:13Z</time></trkpt><trkpt lat="46.48419739723595" lon="12.193032211826294"><ele>1085.0</ele><time>2026-04-25T14:08:14Z</time></trkpt><trkpt lat="46.48400880575759" lon="12.193111733952113"><ele>1085.0</ele><time>2026-04-25T14:08:15Z</time></trkpt><trkpt lat="46.48382052395863" lon="12.19319262690919"><ele>1085.0</ele><time>2026-04-25T14:08:16Z</time></trkpt><trkpt lat="46.48363250605765" lon="12.193278704243749"><ele>1085.6666666666667</ele><time>2026-04-25T14:08:17Z</time></trkpt><trkpt lat="46.48344223356025" lon="12.193366221464322"><ele>1086.3333333333333</ele><time>2026-04-25T14:08:18Z</time></trkpt><trkpt lat="46.4832502304278" lon="12.193455874635221"><ele>1087.0</ele><time>2026-04-25T14:08:19Z</time></trkpt><trkpt lat="46.48305455740619" lon="12.193551161384853"><ele>1083.0</ele><time>2026-04-25T14:08:20Z</time></trkpt><trkpt lat="46.48286530094518" lon="12.193639269296337"><ele>1079.0</ele><time>2026-04-25T14:08:21Z</time></trkpt><trkpt lat="46.482675271250564" lon="12.193725093996326"><ele>1075.0</ele><time>2026-04-25T14:08:22Z</time></trkpt><trkpt lat="46.48248756728469" lon="12.193817328831654"><ele>1075.0</ele><time>2026-04-25T14:08:23Z</time></trkpt><trkpt lat="46.48230379600149" lon="12.193931194380813"><ele>1075.0</ele><time>2026-04-25T14:08:24Z</time></trkpt><trkpt lat="46.48212558596872" lon="12.194064261948128"><ele>1075.0</ele><time>2026-04-25T14:08:25Z</time></trkpt><trkpt lat="46.481948550672" lon="12.194202996987766"><ele>1075.3333333333333</ele><time>2026-04-25T14:08:26Z</time></trkpt><trkpt lat="46.4817698973738" lon="12.19434193825154"><ele>1075.6666666666667</ele><time>2026-04-25T14:08:27Z</time></trkpt><trkpt lat="46.4815908173391" lon="12.194482066522585"><ele>1076.0</ele><time>2026-04-25T14:08:28Z</time></trkpt><trkpt lat="46.4814124770424" lon="12.194622944294629"><ele>1074.0</ele><time>2026-04-25T14:08:29Z</time></trkpt><trkpt lat="46.48123160670825" lon="12.19476331207054"><ele>1072.0</ele><time>2026-04-25T14:08:30Z</time></trkpt><trkpt lat="46.48105427591507" lon="12.194902748412783"><ele>1070.0</ele><time>2026-04-25T14:08:31Z</time></trkpt><trkpt lat="46.48087914356979" lon="12.195044719242697"><ele>1070.0</ele><time>2026-04-25T14:08:32Z</time></trkpt><trkpt lat="46.480708081239975" lon="12.195186953321828"><ele>1070.0</ele><time>2026-04-25T14:08:33Z</time></trkpt><trkpt lat="46.48054166891817" lon="12.195328722402184"><ele>1070.0</ele><time>2026-04-25T14:08:34Z</time></trkpt><trkpt lat="46.480379573399816" lon="12.195466819070614"><ele>1069.3333333333335</ele><time>2026-04-25T14:08:35Z</time></trkpt><trkpt lat="46.480234692234504" lon="12.195609516538616"><ele>1068.6666666666667</ele><time>2026-04-25T14:08:35.999Z</time></trkpt><trkpt lat="46.48010455401081" lon="12.195771932185997"><ele>1068.0</ele><time>2026-04-25T14:08:36.999Z</time></trkpt><trkpt lat="46.47996412066499" lon="12.195922525824335"><ele>1068.0</ele><time>2026-04-25T14:08:37.999Z</time></trkpt><trkpt lat="46.47979787928838" lon="12.19603885017939"><ele>1068.0</ele><time>2026-04-25T14:08:38.999Z</time></trkpt><trkpt lat="46.479620462095035" lon="12.196121214520174"><ele>1068.0</ele><time>2026-04-25T14:08:39.999Z</time></trkpt><trkpt lat="46.479440615281675" lon="12.196159624552626"><ele>1065.0</ele><time>2026-04-25T14:08:40.999Z</time></trkpt><trkpt lat="46.47925967852466" lon="12.196177337749916"><ele>1062.0</ele><time>2026-04-25T14:08:41.999Z</time></trkpt><trkpt lat="46.479090718526486" lon="12.196241540877766"><ele>1059.0</ele><time>2026-04-25T14:08:42.999Z</time></trkpt><trkpt lat="46.47892760417696" lon="12.196355880348404"><ele>1059.0</ele><time>2026-04-25T14:08:43.999Z</time></trkpt><trkpt lat="46.47876925878062" lon="12.196487074581677"><ele>1059.0</ele><time>2026-04-25T14:08:44.999Z</time></trkpt><trkpt lat="46.478614802243186" lon="12.196640216065598"><ele>1059.0</ele><time>2026-04-25T14:08:45.999Z</time></trkpt><trkpt lat="46.47846751148819" lon="12.196819916386442"><ele>1057.3333333333333</ele><time>2026-04-25T14:08:46.999Z</time></trkpt><trkpt lat="46.47832145227477" lon="12.197011361684012"><ele>1055.6666666666665</ele><time>2026-04-25T14:08:47.999Z</time></trkpt><trkpt lat="46.478179635259124" lon="12.197207937893392"><ele>1054.0</ele><time>2026-04-25T14:08:49Z</time></trkpt><trkpt lat="46.47804686574672" lon="12.197406708524094"><ele>1051.0</ele><time>2026-04-25T14:08:50Z</time></trkpt><trkpt lat="46.47791643154771" lon="12.197603698091502"><ele>1048.0</ele><time>2026-04-25T14:08:51Z</time></trkpt><trkpt lat="46.47778392321212" lon="12.1977933155471"><ele>1045.0</ele><time>2026-04-25T14:08:52Z</time></trkpt><trkpt lat="46.4776503335148" lon="12.197977845039507"><ele>1045.0</ele><time>2026-04-25T14:08:53Z</time></trkpt><trkpt lat="46.477519890578314" lon="12.198163139914024"><ele>1045.0</ele><time>2026-04-25T14:08:54Z</time></trkpt><trkpt lat="46.47739287766951" lon="12.198347753322347"><ele>1045.0</ele><time>2026-04-25T14:08:55Z</time></trkpt><trkpt lat="46.47726471304446" lon="12.198534426530774"><ele>1044.3333333333333</ele><time>2026-04-25T14:08:56Z</time></trkpt><trkpt lat="46.47713876041556" lon="12.198725391827177"><ele>1043.6666666666667</ele><time>2026-04-25T14:08:57Z</time></trkpt><trkpt lat="46.47701476033031" lon="12.198920787504434"><ele>1043.0</ele><time>2026-04-25T14:08:58Z</time></trkpt><trkpt lat="46.47688766468499" lon="12.199113732272744"><ele>1043.0</ele><time>2026-04-25T14:08:59Z</time></trkpt><trkpt lat="46.47675845128544" lon="12.199303885577104"><ele>1043.0</ele><time>2026-04-25T14:09:00Z</time></trkpt><trkpt lat="46.47662834888712" lon="12.199494918135695"><ele>1043.0</ele><time>2026-04-25T14:09:01Z</time></trkpt><trkpt lat="46.47649962356354" lon="12.199684847662121"><ele>1039.6666666666667</ele><time>2026-04-25T14:09:02Z</time></trkpt><trkpt lat="46.47637826371786" lon="12.19986543268068"><ele>1036.3333333333333</ele><time>2026-04-25T14:09:03Z</time></trkpt><trkpt lat="46.47626206522005" lon="12.200034895305734"><ele>1033.0</ele><time>2026-04-25T14:09:04Z</time></trkpt><trkpt lat="46.47614478385358" lon="12.200199853570014"><ele>1033.0</ele><time>2026-04-25T14:09:05Z</time></trkpt><trkpt lat="46.47602707001885" lon="12.200360384067055"><ele>1033.0</ele><time>2026-04-25T14:09:06Z</time></trkpt><trkpt lat="46.47591129809349" lon="12.200516751112653"><ele>1033.0</ele><time>2026-04-25T14:09:07Z</time></trkpt><trkpt lat="46.475795208300525" lon="12.200671682612969"><ele>1037.0</ele><time>2026-04-25T14:09:08Z</time></trkpt><trkpt lat="46.47567840761482" lon="12.20082089461854"><ele>1041.0</ele><time>2026-04-25T14:09:09Z</time></trkpt><trkpt lat="46.47556364258445" lon="12.20097236543352"><ele>1045.0</ele><time>2026-04-25T14:09:10Z</time></trkpt><trkpt lat="46.47544733541266" lon="12.201123670825186"><ele>1042.3333333333333</ele><time>2026-04-25T14:09:11Z</time></trkpt><trkpt lat="46.47533167095118" lon="12.201274097648598"><ele>1039.6666666666667</ele><time>2026-04-25T14:09:12Z</time></trkpt><trkpt lat="46.47521607782124" lon="12.201425701861728"><ele>1037.0</ele><time>2026-04-25T14:09:13Z</time></trkpt><trkpt lat="46.47510309864651" lon="12.20157809083471"><ele>1037.0</ele><time>2026-04-25T14:09:14Z</time></trkpt><trkpt lat="46.47498848455388" lon="12.201726987700269"><ele>1037.0</ele><time>2026-04-25T14:09:15Z</time></trkpt><trkpt lat="46.474875439014134" lon="12.20187426906017"><ele>1037.0</ele><time>2026-04-25T14:09:16Z</time></trkpt><trkpt lat="46.47476984227847" lon="12.202026330693803"><ele>1037.0</ele><time>2026-04-25T14:09:17Z</time></trkpt><trkpt lat="46.47467974573275" lon="12.20218806120862"><ele>1037.0</ele><time>2026-04-25T14:09:18Z</time></trkpt><trkpt lat="46.474602787130365" lon="12.202352662436994"><ele>1037.0</ele><time>2026-04-25T14:09:19Z</time></trkpt><trkpt lat="46.4745335126218" lon="12.202515640013312"><ele>1037.0</ele><time>2026-04-25T14:09:20Z</time></trkpt><trkpt lat="46.47446615376379" lon="12.20267047614641"><ele>1036.0</ele><time>2026-04-25T14:09:21Z</time></trkpt><trkpt lat="46.474400717004265" lon="12.20281757028379"><ele>1035.0</ele><time>2026-04-25T14:09:22Z</time></trkpt><trkpt lat="46.47433593888726" lon="12.202959633049185"><ele>1034.0</ele><time>2026-04-25T14:09:23Z</time></trkpt><trkpt lat="46.47427298021652" lon="12.203102643058816"><ele>1033.0</ele><time>2026-04-25T14:09:24Z</time></trkpt><trkpt lat="46.47421192280443" lon="12.203247461843356"><ele>1033.0</ele><time>2026-04-25T14:09:25Z</time></trkpt><trkpt lat="46.47415043283128" lon="12.203390311093411"><ele>1033.0</ele><time>2026-04-25T14:09:26Z</time></trkpt><trkpt lat="46.47409171251" lon="12.20352739577463"><ele>1033.0</ele><time>2026-04-25T14:09:27Z</time></trkpt><trkpt lat="46.47403749087616" lon="12.203658867629317"><ele>1033.0</ele><time>2026-04-25T14:09:28Z</time></trkpt><trkpt lat="46.47398256005367" lon="12.203782442324178"><ele>1033.0</ele><time>2026-04-25T14:09:29Z</time></trkpt><trkpt lat="46.473920210646526" lon="12.203893722685596"><ele>1033.0</ele><time>2026-04-25T14:09:30Z</time></trkpt><trkpt lat="46.47383738362414" lon="12.203983655007717"><ele>1033.0</ele><time>2026-04-25T14:09:31Z</time></trkpt><trkpt lat="46.47373618900737" lon="12.20403987183754"><ele>1033.0</ele><time>2026-04-25T14:09:32Z</time></trkpt><trkpt lat="46.473621687645" lon="12.2040857781222"><ele>1033.0</ele><time>2026-04-25T14:09:33Z</time></trkpt><trkpt lat="46.47349580618165" lon="12.20414594532697"><ele>1031.25</ele><time>2026-04-25T14:09:34Z</time></trkpt><trkpt lat="46.473376335607846" lon="12.204245080458428"><ele>1029.5</ele><time>2026-04-25T14:09:35Z</time></trkpt><trkpt lat="46.47326195034095" lon="12.204344479750299"><ele>1027.75</ele><time>2026-04-25T14:09:36Z</time></trkpt><trkpt lat="46.47316169984356" lon="12.204463128557924"><ele>1026.0</ele><time>2026-04-25T14:09:37Z</time></trkpt><trkpt lat="46.47304000759996" lon="12.204529014937195"><ele>1023.5</ele><time>2026-04-25T14:09:38Z</time></trkpt><trkpt lat="46.472917703874465" lon="12.204559119498924"><ele>1021.0</ele><time>2026-04-25T14:09:39Z</time></trkpt><trkpt lat="46.47280263600783" lon="12.204564007578153"><ele>1018.5</ele><time>2026-04-25T14:09:40Z</time></trkpt><trkpt lat="46.47268644113" lon="12.204561275144064"><ele>1016.0</ele><time>2026-04-25T14:09:41Z</time></trkpt><trkpt lat="46.4725600996502" lon="12.204560431646106"><ele>1016.0</ele><time>2026-04-25T14:09:42Z</time></trkpt><trkpt lat="46.47244124391068" lon="12.204560060766296"><ele>1015.9999999999999</ele><time>2026-04-25T14:09:43Z</time></trkpt><trkpt lat="46.472331916569196" lon="12.204562650156074"><ele>1015.9999999999999</ele><time>2026-04-25T14:09:44Z</time></trkpt><trkpt lat="46.472232139076475" lon="12.20457983982078"><ele>1016.0</ele><time>2026-04-25T14:09:45Z</time></trkpt><trkpt lat="46.47213621174966" lon="12.20461895382066"><ele>1016.0</ele><time>2026-04-25T14:09:46Z</time></trkpt><trkpt lat="46.47204667800373" lon="12.204680744438553"><ele>1017.4</ele><time>2026-04-25T14:09:47Z</time></trkpt><trkpt lat="46.47196201080683" lon="12.204755826896502"><ele>1018.8</ele><time>2026-04-25T14:09:48Z</time></trkpt><trkpt lat="46.47187714045109" lon="12.204832343719128"><ele>1020.1999999999999</ele><time>2026-04-25T14:09:49Z</time></trkpt><trkpt lat="46.47179279050774" lon="12.204908805087845"><ele>1021.5999999999999</ele><time>2026-04-25T14:09:50Z</time></trkpt><trkpt lat="46.47170664941203" lon="12.204989785968127"><ele>1023.0</ele><time>2026-04-25T14:09:51Z</time></trkpt><trkpt lat="46.47161869154566" lon="12.205072183797823"><ele>1023.0</ele><time>2026-04-25T14:09:52Z</time></trkpt><trkpt lat="46.47153130471983" lon="12.205154818078414"><ele>1023.0</ele><time>2026-04-25T14:09:53Z</time></trkpt><trkpt lat="46.471449931278336" lon="12.205233373939901"><ele>1023.0</ele><time>2026-04-25T14:09:54Z</time></trkpt><trkpt lat="46.47137443635089" lon="12.20530677254152"><ele>1023.0</ele><time>2026-04-25T14:09:55Z</time></trkpt><trkpt lat="46.47129318196884" lon="12.205374396787505"><ele>1023.0</ele><time>2026-04-25T14:09:56Z</time></trkpt><trkpt lat="46.47120832321583" lon="12.205434620905477"><ele>1020.5999999999999</ele><time>2026-04-25T14:09:57Z</time></trkpt><trkpt lat="46.471120967977946" lon="12.205484604317068"><ele>1018.1999999999999</ele><time>2026-04-25T14:09:58Z</time></trkpt><trkpt lat="46.47103161332302" lon="12.205524172168305"><ele>1015.8</ele><time>2026-04-25T14:09:59Z</time></trkpt><trkpt lat="46.470942439588754" lon="12.205566117025171"><ele>1013.4</ele><time>2026-04-25T14:10:00Z</time></trkpt><trkpt lat="46.47085497182632" lon="12.205608510877438"><ele>1011.0</ele><time>2026-04-25T14:10:01Z</time></trkpt><trkpt lat="46.4707669933845" lon="12.205650354566066"><ele>1013.5</ele><time>2026-04-25T14:10:02Z</time></trkpt><trkpt lat="46.470681126140214" lon="12.20568865330508"><ele>1016.0</ele><time>2026-04-25T14:10:03Z</time></trkpt><trkpt lat="46.470600341488264" lon="12.20572053757816"><ele>1018.5</ele><time>2026-04-25T14:10:04Z</time></trkpt><trkpt lat="46.47051977421334" lon="12.205741365248164"><ele>1021.0</ele><time>2026-04-25T14:10:05Z</time></trkpt><trkpt lat="46.47043917853202" lon="12.205753280114378"><ele>1023.5</ele><time>2026-04-25T14:10:06Z</time></trkpt><trkpt lat="46.47035362031705" lon="12.205744906929196"><ele>1026.0</ele><time>2026-04-25T14:10:07Z</time></trkpt><trkpt lat="46.470268312413836" lon="12.205708084617726"><ele>1023.0</ele><time>2026-04-25T14:10:08Z</time></trkpt><trkpt lat="46.470182530195835" lon="12.205654834981582"><ele>1019.9999999999999</ele><time>2026-04-25T14:10:09Z</time></trkpt><trkpt lat="46.47009691354773" lon="12.205586441896028"><ele>1016.9999999999999</ele><time>2026-04-25T14:10:10Z</time></trkpt><trkpt lat="46.47001447737557" lon="12.205499421014443"><ele>1014.0</ele><time>2026-04-25T14:10:11Z</time></trkpt><trkpt lat="46.469930030529476" lon="12.205412180906636"><ele>1011.0</ele><time>2026-04-25T14:10:12Z</time></trkpt><trkpt lat="46.469839261421505" lon="12.205335054978647"><ele>1011.0</ele><time>2026-04-25T14:10:13Z</time></trkpt><trkpt lat="46.469744362984706" lon="12.205257727821058"><ele>1010.9999999999999</ele><time>2026-04-25T14:10:14Z</time></trkpt><trkpt lat="46.46964619165576" lon="12.205185357725597"><ele>1010.9999999999999</ele><time>2026-04-25T14:10:15Z</time></trkpt><trkpt lat="46.469543185696054" lon="12.20512659472874"><ele>1011.0</ele><time>2026-04-25T14:10:16Z</time></trkpt><trkpt lat="46.469437254763285" lon="12.205079691759714"><ele>1011.0</ele><time>2026-04-25T14:10:17Z</time></trkpt><trkpt lat="46.46933608791985" lon="12.205039759493376"><ele>1012.0</ele><time>2026-04-25T14:10:18Z</time></trkpt><trkpt lat="46.469240686419845" lon="12.205004327983705"><ele>1012.9999999999999</ele><time>2026-04-25T14:10:19Z</time></trkpt><trkpt lat="46.46915092913269" lon="12.204970265013973"><ele>1013.9999999999999</ele><time>2026-04-25T14:10:20Z</time></trkpt><trkpt lat="46.469064222982304" lon="12.20493887733749"><ele>1015.0</ele><time>2026-04-25T14:10:21Z</time></trkpt><trkpt lat="46.46897856813938" lon="12.204911401151493"><ele>1016.0</ele><time>2026-04-25T14:10:22Z</time></trkpt><trkpt lat="46.46888982842063" lon="12.204892033138393"><ele>1016.0</ele><time>2026-04-25T14:10:23Z</time></trkpt><trkpt lat="46.4687966650536" lon="12.204897481330098"><ele>1015.9999999999999</ele><time>2026-04-25T14:10:24Z</time></trkpt><trkpt lat="46.46870031777266" lon="12.204907696058491"><ele>1015.9999999999999</ele><time>2026-04-25T14:10:25Z</time></trkpt><trkpt lat="46.46860105045184" lon="12.20492224721864"><ele>1016.0</ele><time>2026-04-25T14:10:26Z</time></trkpt><trkpt lat="46.46850139331064" lon="12.204935239764712"><ele>1016.0</ele><time>2026-04-25T14:10:27Z</time></trkpt><trkpt lat="46.46840251799528" lon="12.204941769999149"><ele>1016.0</ele><time>2026-04-25T14:10:28Z</time></trkpt><trkpt lat="46.46830577181902" lon="12.204936041439215"><ele>1015.9999999999999</ele><time>2026-04-25T14:10:29Z</time></trkpt><trkpt lat="46.46821693897813" lon="12.20490693390734"><ele>1015.9999999999999</ele><time>2026-04-25T14:10:30Z</time></trkpt><trkpt lat="46.46813030246071" lon="12.204871391751043"><ele>1016.0</ele><time>2026-04-25T14:10:31Z</time></trkpt><trkpt lat="46.46804279641209" lon="12.20483137612061"><ele>1016.0</ele><time>2026-04-25T14:10:32Z</time></trkpt><trkpt lat="46.46795803975246" lon="12.204775542177073"><ele>1015.0000000000001</ele><time>2026-04-25T14:10:33Z</time></trkpt><trkpt lat="46.467879589994986" lon="12.204704685828952"><ele>1014.0</ele><time>2026-04-25T14:10:34Z</time></trkpt><trkpt lat="46.46780482338236" lon="12.204635194640613"><ele>1013.0</ele><time>2026-04-25T14:10:35Z</time></trkpt><trkpt lat="46.46773279492195" lon="12.204567036579018"><ele>1012.0</ele><time>2026-04-25T14:10:36Z</time></trkpt><trkpt lat="46.467658950760956" lon="12.20450206189771"><ele>1011.0000000000001</ele><time>2026-04-25T14:10:37Z</time></trkpt><trkpt lat="46.46757693824026" lon="12.204453583912306"><ele>1010.0</ele><time>2026-04-25T14:10:38Z</time></trkpt><trkpt lat="46.46748710415417" lon="12.204410390427958"><ele>1010.0</ele><time>2026-04-25T14:10:39Z</time></trkpt><trkpt lat="46.467390379375736" lon="12.204369931184871"><ele>1010.0</ele><time>2026-04-25T14:10:40Z</time></trkpt><trkpt lat="46.46728424535591" lon="12.204326452176243"><ele>1010.0</ele><time>2026-04-25T14:10:40.999Z</time></trkpt><trkpt lat="46.467176025647845" lon="12.204276938772722"><ele>1010.0</ele><time>2026-04-25T14:10:41.999Z</time></trkpt><trkpt lat="46.467070672426956" lon="12.204227467671025"><ele>1010.0</ele><time>2026-04-25T14:10:42.999Z</time></trkpt><trkpt lat="46.466974086319354" lon="12.20418924855126"><ele>1010.0000000000001</ele><time>2026-04-25T14:10:43.999Z</time></trkpt><trkpt lat="46.46688320305628" lon="12.204156114986336"><ele>1010.0</ele><time>2026-04-25T14:10:44.999Z</time></trkpt><trkpt lat="46.466796144716476" lon="12.20412987043831"><ele>1010.0</ele><time>2026-04-25T14:10:45.999Z</time></trkpt><trkpt lat="46.466710909610164" lon="12.204112454931254"><ele>1010.0</ele><time>2026-04-25T14:10:46.999Z</time></trkpt><trkpt lat="46.46662635350874" lon="12.204101642462303"><ele>1010.0000000000001</ele><time>2026-04-25T14:10:47.999Z</time></trkpt><trkpt lat="46.46654024693762" lon="12.2040921715475"><ele>1010.0</ele><time>2026-04-25T14:10:48.999Z</time></trkpt><trkpt lat="46.46647460583617" lon="12.204020966878815"><ele>1010.0</ele><time>2026-04-25T14:10:49.999Z</time></trkpt><trkpt lat="46.46636057182738" lon="12.204064972248993"><ele>1010.0</ele><time>2026-04-25T14:10:50.999Z</time></trkpt><trkpt lat="46.466263838362636" lon="12.20404948272589"><ele>1010.0</ele><time>2026-04-25T14:10:51.999Z</time></trkpt><trkpt lat="46.466160791411454" lon="12.204033605792306"><ele>1010.0</ele><time>2026-04-25T14:10:52.999Z</time></trkpt><trkpt lat="46.466049132163626" lon="12.204024047050124"><ele>1010.0</ele><time>2026-04-25T14:10:54Z</time></trkpt><trkpt lat="46.46593014095624" lon="12.204011195575912"><ele>1008.5</ele><time>2026-04-25T14:10:55Z</time></trkpt><trkpt lat="46.46580534928435" lon="12.203994475123087"><ele>1007.0</ele><time>2026-04-25T14:10:56Z</time></trkpt><trkpt lat="46.46567639897907" lon="12.203977940944075"><ele>1005.5</ele><time>2026-04-25T14:10:57Z</time></trkpt><trkpt lat="46.46554692590642" lon="12.203961968469944"><ele>1004.0</ele><time>2026-04-25T14:10:58Z</time></trkpt><trkpt lat="46.465421663375515" lon="12.203946154962754"><ele>1004.0</ele><time>2026-04-25T14:10:59Z</time></trkpt><trkpt lat="46.465301415090764" lon="12.203926828610443"><ele>1004.0</ele><time>2026-04-25T14:11:00Z</time></trkpt><trkpt lat="46.465185896199785" lon="12.2039089490036"><ele>1004.0</ele><time>2026-04-25T14:11:01Z</time></trkpt><trkpt lat="46.46507806785712" lon="12.203894668560086"><ele>1004.0</ele><time>2026-04-25T14:11:02Z</time></trkpt><trkpt lat="46.46497391042531" lon="12.203882862512021"><ele>1004.0</ele><time>2026-04-25T14:11:03Z</time></trkpt><trkpt lat="46.46486575905423" lon="12.203872453544406"><ele>1004.0000000000001</ele><time>2026-04-25T14:11:04Z</time></trkpt><trkpt lat="46.46475728226298" lon="12.203862111885934"><ele>1004.0000000000001</ele><time>2026-04-25T14:11:05Z</time></trkpt><trkpt lat="46.46465712900812" lon="12.203859570178764"><ele>1004.0</ele><time>2026-04-25T14:11:06Z</time></trkpt><trkpt lat="46.464560048293656" lon="12.203866866215414"><ele>1004.0</ele><time>2026-04-25T14:11:07Z</time></trkpt><trkpt lat="46.46446431214301" lon="12.203880760143162"><ele>1003.6666666666667</ele><time>2026-04-25T14:11:08Z</time></trkpt><trkpt lat="46.46437391293491" lon="12.203905769248765"><ele>1003.3333333333334</ele><time>2026-04-25T14:11:09Z</time></trkpt><trkpt lat="46.4642926188582" lon="12.203948303292584"><ele>1003.0</ele><time>2026-04-25T14:11:10Z</time></trkpt><trkpt lat="46.46421815034172" lon="12.204021942428257"><ele>1002.6666666666667</ele><time>2026-04-25T14:11:11Z</time></trkpt><trkpt lat="46.46414606914317" lon="12.204092669057857"><ele>1002.3333333333334</ele><time>2026-04-25T14:11:12Z</time></trkpt><trkpt lat="46.464107598150285" lon="12.204196728641609"><ele>1002.0</ele><time>2026-04-25T14:11:13Z</time></trkpt><trkpt lat="46.46406249426449" lon="12.204287014719808"><ele>1002.6666666666666</ele><time>2026-04-25T14:11:14Z</time></trkpt><trkpt lat="46.46402166076912" lon="12.204384394598177"><ele>1003.3333333333333</ele><time>2026-04-25T14:11:15Z</time></trkpt><trkpt lat="46.463976377169594" lon="12.204487667343667"><ele>1004.0</ele><time>2026-04-25T14:11:16Z</time></trkpt><trkpt lat="46.46392493405645" lon="12.204590991991637"><ele>1004.6666666666666</ele><time>2026-04-25T14:11:17Z</time></trkpt><trkpt lat="46.46386718317311" lon="12.204693258348087"><ele>1005.3333333333333</ele><time>2026-04-25T14:11:18Z</time></trkpt><trkpt lat="46.463807101989154" lon="12.204792040913922"><ele>1006.0</ele><time>2026-04-25T14:11:19Z</time></trkpt><trkpt lat="46.46373295209601" lon="12.204871865959209"><ele>1006.5999999999999</ele><time>2026-04-25T14:11:20Z</time></trkpt><trkpt lat="46.46365049945882" lon="12.204924100949633"><ele>1007.1999999999999</ele><time>2026-04-25T14:11:21Z</time></trkpt><trkpt lat="46.46356024280275" lon="12.204946225780853"><ele>1007.8000000000001</ele><time>2026-04-25T14:11:22Z</time></trkpt><trkpt lat="46.46346829718336" lon="12.204943070988435"><ele>1008.4000000000001</ele><time>2026-04-25T14:11:23Z</time></trkpt><trkpt lat="46.46338188142354" lon="12.204913942811176"><ele>1009.0</ele><time>2026-04-25T14:11:24Z</time></trkpt><trkpt lat="46.46329768826361" lon="12.204868316723275"><ele>1008.6</ele><time>2026-04-25T14:11:25Z</time></trkpt><trkpt lat="46.46321390341792" lon="12.204820084953232"><ele>1008.2</ele><time>2026-04-25T14:11:26Z</time></trkpt><trkpt lat="46.46313107159484" lon="12.204767192024548"><ele>1007.8000000000001</ele><time>2026-04-25T14:11:27Z</time></trkpt><trkpt lat="46.46304929022056" lon="12.204719130342195"><ele>1007.4000000000001</ele><time>2026-04-25T14:11:28Z</time></trkpt><trkpt lat="46.4629660141386" lon="12.204671366540365"><ele>1007.0</ele><time>2026-04-25T14:11:29Z</time></trkpt><trkpt lat="46.462881475414775" lon="12.204619840509118"><ele>1007.0</ele><time>2026-04-25T14:11:30Z</time></trkpt><trkpt lat="46.462792554100076" lon="12.20457145864343"><ele>1007.0</ele><time>2026-04-25T14:11:31Z</time></trkpt><trkpt lat="46.46269771371463" lon="12.204531469352368"><ele>1007.0</ele><time>2026-04-25T14:11:32Z</time></trkpt><trkpt lat="46.46259677853035" lon="12.204515527740586"><ele>1007.0</ele><time>2026-04-25T14:11:33Z</time></trkpt><trkpt lat="46.462492657892554" lon="12.204514735818712"><ele>1007.0</ele><time>2026-04-25T14:11:34Z</time></trkpt><trkpt lat="46.46238371076565" lon="12.204521875918482"><ele>1007.0</ele><time>2026-04-25T14:11:35Z</time></trkpt><trkpt lat="46.46227383407758" lon="12.204535561692737"><ele>1007.0</ele><time>2026-04-25T14:11:36Z</time></trkpt><trkpt lat="46.46216831312036" lon="12.204550516874047"><ele>1007.0</ele><time>2026-04-25T14:11:37Z</time></trkpt><trkpt lat="46.46206134807869" lon="12.204560518037686"><ele>1007.0</ele><time>2026-04-25T14:11:38Z</time></trkpt><trkpt lat="46.461952686988965" lon="12.204571351253987"><ele>1007.0</ele><time>2026-04-25T14:11:39Z</time></trkpt><trkpt lat="46.46184221746248" lon="12.204586603870277"><ele>1006.6</ele><time>2026-04-25T14:11:40Z</time></trkpt><trkpt lat="46.46173277958737" lon="12.204604670992108"><ele>1006.2</ele><time>2026-04-25T14:11:41Z</time></trkpt><trkpt lat="46.46162258646474" lon="12.204622169604644"><ele>1005.8</ele><time>2026-04-25T14:11:42Z</time></trkpt><trkpt lat="46.46151271099125" lon="12.20464094163403"><ele>1005.4</ele><time>2026-04-25T14:11:43Z</time></trkpt><trkpt lat="46.461402567995336" lon="12.204661016662229"><ele>1005.0</ele><time>2026-04-25T14:11:44Z</time></trkpt><trkpt lat="46.461290857936646" lon="12.204677155037226"><ele>1004.25</ele><time>2026-04-25T14:11:45Z</time></trkpt><trkpt lat="46.46117832220559" lon="12.204693678840414"><ele>1003.5</ele><time>2026-04-25T14:11:46Z</time></trkpt><trkpt lat="46.461066933053765" lon="12.204709607258742"><ele>1002.75</ele><time>2026-04-25T14:11:47Z</time></trkpt><trkpt lat="46.46095520846808" lon="12.204724104046429"><ele>1002.0</ele><time>2026-04-25T14:11:48Z</time></trkpt><trkpt lat="46.46084152394608" lon="12.20473887774016"><ele>1002.0</ele><time>2026-04-25T14:11:49Z</time></trkpt><trkpt lat="46.46072942044207" lon="12.204749227414005"><ele>1002.0</ele><time>2026-04-25T14:11:50Z</time></trkpt><trkpt lat="46.460616811371146" lon="12.204760736933652"><ele>1002.0</ele><time>2026-04-25T14:11:51Z</time></trkpt><trkpt lat="46.46050383720782" lon="12.20477420350553"><ele>1002.0</ele><time>2026-04-25T14:11:52Z</time></trkpt><trkpt lat="46.46039077206366" lon="12.204790538502625"><ele>1001.25</ele><time>2026-04-25T14:11:53Z</time></trkpt><trkpt lat="46.460277443297976" lon="12.20480351585274"><ele>1000.5</ele><time>2026-04-25T14:11:54Z</time></trkpt><trkpt lat="46.46016483669126" lon="12.204817385291701"><ele>999.75</ele><time>2026-04-25T14:11:55Z</time></trkpt><trkpt lat="46.46005227567934" lon="12.204843482700797"><ele>999.0</ele><time>2026-04-25T14:11:56Z</time></trkpt><trkpt lat="46.459943350632344" lon="12.204884333935338"><ele>999.0</ele><time>2026-04-25T14:11:57Z</time></trkpt><trkpt lat="46.45983219410247" lon="12.204916691419822"><ele>999.0000000000001</ele><time>2026-04-25T14:11:58Z</time></trkpt><trkpt lat="46.459730601853465" lon="12.204986022965961"><ele>999.0000000000001</ele><time>2026-04-25T14:11:59Z</time></trkpt><trkpt lat="46.45964372461488" lon="12.20508634274915"><ele>999.0</ele><time>2026-04-25T14:12:00Z</time></trkpt><trkpt lat="46.45955672908145" lon="12.205171007047491"><ele>999.0</ele><time>2026-04-25T14:12:01Z</time></trkpt><trkpt lat="46.45947633348975" lon="12.205262799307969"><ele>998.2</ele><time>2026-04-25T14:12:02Z</time></trkpt><trkpt lat="46.45938958374123" lon="12.205330869972405"><ele>997.4000000000001</ele><time>2026-04-25T14:12:03Z</time></trkpt><trkpt lat="46.45931630198117" lon="12.205414509501779"><ele>996.6</ele><time>2026-04-25T14:12:04Z</time></trkpt><trkpt lat="46.459249286057265" lon="12.205494076499953"><ele>995.8</ele><time>2026-04-25T14:12:05Z</time></trkpt><trkpt lat="46.45919185913238" lon="12.205586519236853"><ele>995.0</ele><time>2026-04-25T14:12:06Z</time></trkpt><trkpt lat="46.459118909895366" lon="12.20566081207831"><ele>995.6</ele><time>2026-04-25T14:12:07Z</time></trkpt><trkpt lat="46.459039647283944" lon="12.205733032400602"><ele>996.2</ele><time>2026-04-25T14:12:08Z</time></trkpt><trkpt lat="46.458946825750076" lon="12.205785675220435"><ele>996.8</ele><time>2026-04-25T14:12:09Z</time></trkpt><trkpt lat="46.458846637010765" lon="12.205818130767339"><ele>997.4</ele><time>2026-04-25T14:12:10Z</time></trkpt><trkpt lat="46.45874490056646" lon="12.205831147253916"><ele>998.0</ele><time>2026-04-25T14:12:11Z</time></trkpt><trkpt lat="46.45863699428051" lon="12.20582104509505"><ele>996.5</ele><time>2026-04-25T14:12:12Z</time></trkpt><trkpt lat="46.45852728726863" lon="12.205796195929215"><ele>995.0</ele><time>2026-04-25T14:12:13Z</time></trkpt><trkpt lat="46.45841414008479" lon="12.205768788048273"><ele>993.5</ele><time>2026-04-25T14:12:14Z</time></trkpt><trkpt lat="46.45829789568982" lon="12.205739836079733"><ele>992.0</ele><time>2026-04-25T14:12:15Z</time></trkpt><trkpt lat="46.45817787956009" lon="12.205711772013546"><ele>992.0</ele><time>2026-04-25T14:12:16Z</time></trkpt><trkpt lat="46.458054008000865" lon="12.20568899754921"><ele>992.0</ele><time>2026-04-25T14:12:17Z</time></trkpt><trkpt lat="46.45792482877857" lon="12.205672646407548"><ele>992.0</ele><time>2026-04-25T14:12:18Z</time></trkpt><trkpt lat="46.457793648927876" lon="12.205662691568838"><ele>992.0</ele><time>2026-04-25T14:12:19Z</time></trkpt><trkpt lat="46.457661919606984" lon="12.205668620338797"><ele>991.75</ele><time>2026-04-25T14:12:20Z</time></trkpt><trkpt lat="46.45752992071019" lon="12.205697830651468"><ele>991.5</ele><time>2026-04-25T14:12:21Z</time></trkpt><trkpt lat="46.45740025025027" lon="12.205746159492543"><ele>991.25</ele><time>2026-04-25T14:12:22Z</time></trkpt><trkpt lat="46.457272212640376" lon="12.205809058509967"><ele>991.0</ele><time>2026-04-25T14:12:23Z</time></trkpt><trkpt lat="46.45714723025513" lon="12.205880955286053"><ele>991.25</ele><time>2026-04-25T14:12:24Z</time></trkpt><trkpt lat="46.45702254026866" lon="12.205952666217401"><ele>991.5</ele><time>2026-04-25T14:12:25Z</time></trkpt><trkpt lat="46.456895955021466" lon="12.206021884851689"><ele>991.75</ele><time>2026-04-25T14:12:26Z</time></trkpt><trkpt lat="46.45677186595794" lon="12.206095129309375"><ele>992.0</ele><time>2026-04-25T14:12:27Z</time></trkpt><trkpt lat="46.45664861898192" lon="12.2061657407818"><ele>992.0</ele><time>2026-04-25T14:12:28Z</time></trkpt><trkpt lat="46.456525895020064" lon="12.206245599763834"><ele>992.0</ele><time>2026-04-25T14:12:29Z</time></trkpt><trkpt lat="46.45640189287387" lon="12.206326621174773"><ele>992.0</ele><time>2026-04-25T14:12:30Z</time></trkpt><trkpt lat="46.45627958226805" lon="12.20640637695087"><ele>992.0</ele><time>2026-04-25T14:12:31Z</time></trkpt><trkpt lat="46.4561582133465" lon="12.206489742409646"><ele>990.75</ele><time>2026-04-25T14:12:32Z</time></trkpt><trkpt lat="46.456035508297596" lon="12.206580448976636"><ele>989.5</ele><time>2026-04-25T14:12:33Z</time></trkpt><trkpt lat="46.45591103931942" lon="12.20667089884094"><ele>988.25</ele><time>2026-04-25T14:12:34Z</time></trkpt><trkpt lat="46.455783429412506" lon="12.206762019948258"><ele>987.0</ele><time>2026-04-25T14:12:35Z</time></trkpt><trkpt lat="46.455652991747826" lon="12.206853302699724"><ele>987.0</ele><time>2026-04-25T14:12:36Z</time></trkpt><trkpt lat="46.45552374501306" lon="12.206949826112348"><ele>987.0</ele><time>2026-04-25T14:12:37Z</time></trkpt><trkpt lat="46.45539273535049" lon="12.207048571228041"><ele>987.0</ele><time>2026-04-25T14:12:38Z</time></trkpt><trkpt lat="46.455260104748724" lon="12.207150540091849"><ele>987.0</ele><time>2026-04-25T14:12:39Z</time></trkpt><trkpt lat="46.45513321954767" lon="12.207251334163313"><ele>986.25</ele><time>2026-04-25T14:12:40Z</time></trkpt><trkpt lat="46.45502221923608" lon="12.207353344230887"><ele>985.5</ele><time>2026-04-25T14:12:41Z</time></trkpt><trkpt lat="46.454919766530274" lon="12.207455127968323"><ele>984.75</ele><time>2026-04-25T14:12:42Z</time></trkpt><trkpt lat="46.454819787380416" lon="12.207555566194275"><ele>984.0</ele><time>2026-04-25T14:12:43Z</time></trkpt><trkpt lat="46.454722339652086" lon="12.207654854593853"><ele>984.0</ele><time>2026-04-25T14:12:44Z</time></trkpt><trkpt lat="46.454633910869575" lon="12.207745081205807"><ele>984.0000000000001</ele><time>2026-04-25T14:12:44.999Z</time></trkpt><trkpt lat="46.45455030476715" lon="12.207826676936456"><ele>984.0000000000001</ele><time>2026-04-25T14:12:45.999Z</time></trkpt><trkpt lat="46.454474619898114" lon="12.207907800461731"><ele>984.0</ele><time>2026-04-25T14:12:46.999Z</time></trkpt><trkpt lat="46.45440237299191" lon="12.207985144012259"><ele>984.0</ele><time>2026-04-25T14:12:47.999Z</time></trkpt><trkpt lat="46.45432986983281" lon="12.208062209797822"><ele>984.2</ele><time>2026-04-25T14:12:48.999Z</time></trkpt><trkpt lat="46.454248197368756" lon="12.208124340382312"><ele>984.4000000000001</ele><time>2026-04-25T14:12:49.999Z</time></trkpt><trkpt lat="46.454172809133695" lon="12.208202800485688"><ele>984.6</ele><time>2026-04-25T14:12:50.999Z</time></trkpt><trkpt lat="46.454094052774" lon="12.208284765988326"><ele>984.8</ele><time>2026-04-25T14:12:51.999Z</time></trkpt><trkpt lat="46.454012053047755" lon="12.208371126501815"><ele>985.0</ele><time>2026-04-25T14:12:52.999Z</time></trkpt><trkpt lat="46.45393023215778" lon="12.208458379729944"><ele>985.0</ele><time>2026-04-25T14:12:53.999Z</time></trkpt><trkpt lat="46.453846454659924" lon="12.208554997703137"><ele>985.0</ele><time>2026-04-25T14:12:54.999Z</time></trkpt><trkpt lat="46.453773787324316" lon="12.2086748718485"><ele>985.0</ele><time>2026-04-25T14:12:55.999Z</time></trkpt><trkpt lat="46.4536908758139" lon="12.20878547389002"><ele>985.0</ele><time>2026-04-25T14:12:56.999Z</time></trkpt><trkpt lat="46.45360460973198" lon="12.208899537318658"><ele>985.0</ele><time>2026-04-25T14:12:57.999Z</time></trkpt><trkpt lat="46.45351268028677" lon="12.209015731514103"><ele>984.5</ele><time>2026-04-25T14:12:58.999Z</time></trkpt><trkpt lat="46.453419571308004" lon="12.209132973078676"><ele>984.0</ele><time>2026-04-25T14:13:00Z</time></trkpt><trkpt lat="46.45332227344101" lon="12.209256629695558"><ele>983.5</ele><time>2026-04-25T14:13:01Z</time></trkpt><trkpt lat="46.4532269340759" lon="12.209388826283814"><ele>983.0</ele><time>2026-04-25T14:13:02Z</time></trkpt><trkpt lat="46.453128716658405" lon="12.209523192370133"><ele>983.0</ele><time>2026-04-25T14:13:03Z</time></trkpt><trkpt lat="46.45302809475559" lon="12.209659173187688"><ele>983.0</ele><time>2026-04-25T14:13:04Z</time></trkpt><trkpt lat="46.452913212724255" lon="12.209774078430806"><ele>983.0</ele><time>2026-04-25T14:13:05Z</time></trkpt><trkpt lat="46.452811510181746" lon="12.209904365476495"><ele>983.0</ele><time>2026-04-25T14:13:06Z</time></trkpt><trkpt lat="46.452708479928766" lon="12.210030912374938"><ele>981.0</ele><time>2026-04-25T14:13:07Z</time></trkpt><trkpt lat="46.45261759583559" lon="12.210172369933494"><ele>979.0</ele><time>2026-04-25T14:13:08Z</time></trkpt><trkpt lat="46.45252090543269" lon="12.210281283254448"><ele>977.0</ele><time>2026-04-25T14:13:09Z</time></trkpt><trkpt lat="46.45241369625842" lon="12.210379898886774"><ele>975.0</ele><time>2026-04-25T14:13:10Z</time></trkpt><trkpt lat="46.45231174630992" lon="12.210493377691643"><ele>975.0</ele><time>2026-04-25T14:13:11Z</time></trkpt><trkpt lat="46.452214733069304" lon="12.210625311487753"><ele>975.0</ele><time>2026-04-25T14:13:12Z</time></trkpt><trkpt lat="46.45210782576923" lon="12.210726358868193"><ele>975.0</ele><time>2026-04-25T14:13:13Z</time></trkpt><trkpt lat="46.451998774416595" lon="12.210820028197485"><ele>975.0</ele><time>2026-04-25T14:13:14Z</time></trkpt><trkpt lat="46.451882685599095" lon="12.210910798833574"><ele>972.75</ele><time>2026-04-25T14:13:15Z</time></trkpt><trkpt lat="46.45175197915714" lon="12.210993139401248"><ele>970.5</ele><time>2026-04-25T14:13:16Z</time></trkpt><trkpt lat="46.451608344203876" lon="12.211059646151075"><ele>968.25</ele><time>2026-04-25T14:13:17Z</time></trkpt><trkpt lat="46.451459291727105" lon="12.211105396556206"><ele>966.0</ele><time>2026-04-25T14:13:18Z</time></trkpt><trkpt lat="46.45130495198862" lon="12.211144515071897"><ele>964.3333333333333</ele><time>2026-04-25T14:13:19Z</time></trkpt><trkpt lat="46.45114652010435" lon="12.211181181988781"><ele>962.6666666666666</ele><time>2026-04-25T14:13:20Z</time></trkpt><trkpt lat="46.45098295533045" lon="12.211215409112567"><ele>961.0</ele><time>2026-04-25T14:13:21Z</time></trkpt><trkpt lat="46.45082117121791" lon="12.211229598884975"><ele>961.0</ele><time>2026-04-25T14:13:22Z</time></trkpt><trkpt lat="46.45065882840981" lon="12.21120876225908"><ele>961.0</ele><time>2026-04-25T14:13:23Z</time></trkpt><trkpt lat="46.450495338399115" lon="12.211159826585922"><ele>961.0</ele><time>2026-04-25T14:13:24Z</time></trkpt><trkpt lat="46.45033943115378" lon="12.211086902691557"><ele>963.0</ele><time>2026-04-25T14:13:25Z</time></trkpt><trkpt lat="46.45019010894197" lon="12.21099966592095"><ele>965.0</ele><time>2026-04-25T14:13:26Z</time></trkpt><trkpt lat="46.450050014474385" lon="12.210908178183347"><ele>967.0</ele><time>2026-04-25T14:13:27Z</time></trkpt><trkpt lat="46.44990729210004" lon="12.210824796208556"><ele>967.0</ele><time>2026-04-25T14:13:28Z</time></trkpt><trkpt lat="46.44976213019347" lon="12.210742106501272"><ele>967.0</ele><time>2026-04-25T14:13:29Z</time></trkpt><trkpt lat="46.44962746318714" lon="12.210628756147345"><ele>967.0</ele><time>2026-04-25T14:13:30Z</time></trkpt><trkpt lat="46.449485422415016" lon="12.210533837708597"><ele>966.3333333333333</ele><time>2026-04-25T14:13:31Z</time></trkpt><trkpt lat="46.44933677732004" lon="12.210448959697937"><ele>965.6666666666667</ele><time>2026-04-25T14:13:32Z</time></trkpt><trkpt lat="46.44918405875874" lon="12.210380574535057"><ele>965.0</ele><time>2026-04-25T14:13:33Z</time></trkpt><trkpt lat="46.44902719074002" lon="12.210325831432845"><ele>965.0</ele><time>2026-04-25T14:13:34Z</time></trkpt><trkpt lat="46.44886899768618" lon="12.210299940742788"><ele>965.0</ele><time>2026-04-25T14:13:35Z</time></trkpt><trkpt lat="46.448713930217906" lon="12.210249037766623"><ele>965.0</ele><time>2026-04-25T14:13:36Z</time></trkpt><trkpt lat="46.44856114668798" lon="12.210203599116488"><ele>966.5</ele><time>2026-04-25T14:13:37Z</time></trkpt><trkpt lat="46.44841309948105" lon="12.210163421957201"><ele>968.0</ele><time>2026-04-25T14:13:38Z</time></trkpt><trkpt lat="46.4482660756888" lon="12.210137106431418"><ele>969.5</ele><time>2026-04-25T14:13:39Z</time></trkpt><trkpt lat="46.44811719109639" lon="12.210137320251484"><ele>971.0</ele><time>2026-04-25T14:13:40Z</time></trkpt><trkpt lat="46.44796733425976" lon="12.210180009177853"><ele>972.0</ele><time>2026-04-25T14:13:41Z</time></trkpt><trkpt lat="46.44781539340421" lon="12.210256292741429"><ele>973.0</ele><time>2026-04-25T14:13:42Z</time></trkpt><trkpt lat="46.44766058922274" lon="12.21036281347377"><ele>974.0</ele><time>2026-04-25T14:13:43Z</time></trkpt><trkpt lat="46.4475003088031" lon="12.210491022127677"><ele>974.0</ele><time>2026-04-25T14:13:44Z</time></trkpt><trkpt lat="46.44733477255578" lon="12.210615745365097"><ele>974.0</ele><time>2026-04-25T14:13:45Z</time></trkpt><trkpt lat="46.4471696994135" lon="12.210741954018957"><ele>974.0</ele><time>2026-04-25T14:13:46Z</time></trkpt><trkpt lat="46.44700566178551" lon="12.210868320864698"><ele>976.3333333333334</ele><time>2026-04-25T14:13:47Z</time></trkpt><trkpt lat="46.44684061710484" lon="12.210988687546461"><ele>978.6666666666667</ele><time>2026-04-25T14:13:48Z</time></trkpt><trkpt lat="46.44667928052914" lon="12.211107969678485"><ele>981.0</ele><time>2026-04-25T14:13:49Z</time></trkpt><trkpt lat="46.44652310047323" lon="12.211228659459056"><ele>981.0</ele><time>2026-04-25T14:13:50Z</time></trkpt><trkpt lat="46.446367644924635" lon="12.211348495430453"><ele>981.0</ele><time>2026-04-25T14:13:51Z</time></trkpt><trkpt lat="46.44620456558983" lon="12.211453587551738"><ele>981.0</ele><time>2026-04-25T14:13:52Z</time></trkpt><trkpt lat="46.44603485598008" lon="12.21153965231332"><ele>979.3333333333333</ele><time>2026-04-25T14:13:53Z</time></trkpt><trkpt lat="46.44585780847275" lon="12.211606734348223"><ele>977.6666666666666</ele><time>2026-04-25T14:13:54Z</time></trkpt><trkpt lat="46.44567590228285" lon="12.21165745037573"><ele>976.0</ele><time>2026-04-25T14:13:55Z</time></trkpt><trkpt lat="46.445493461229155" lon="12.211705397707354"><ele>971.3333333333333</ele><time>2026-04-25T14:13:56Z</time></trkpt><trkpt lat="46.445311474185985" lon="12.211760600052525"><ele>966.6666666666667</ele><time>2026-04-25T14:13:57Z</time></trkpt><trkpt lat="46.445130913509956" lon="12.21182102694675"><ele>962.0</ele><time>2026-04-25T14:13:58Z</time></trkpt><trkpt lat="46.44495117084566" lon="12.21190014384792"><ele>962.0</ele><time>2026-04-25T14:13:59Z</time></trkpt><trkpt lat="46.44477810367846" lon="12.211999642131506"><ele>962.0</ele><time>2026-04-25T14:14:00Z</time></trkpt><trkpt lat="46.444610124154444" lon="12.212110100852128"><ele>962.0</ele><time>2026-04-25T14:14:01Z</time></trkpt><trkpt lat="46.4444362897587" lon="12.212218477619773"><ele>965.3333333333334</ele><time>2026-04-25T14:14:02Z</time></trkpt><trkpt lat="46.44426062718599" lon="12.212323828921402"><ele>968.6666666666667</ele><time>2026-04-25T14:14:03Z</time></trkpt><trkpt lat="46.44408479930367" lon="12.212428748164493"><ele>972.0</ele><time>2026-04-25T14:14:04Z</time></trkpt><trkpt lat="46.44390873224105" lon="12.212536465649862"><ele>965.3333333333333</ele><time>2026-04-25T14:14:05Z</time></trkpt><trkpt lat="46.44373934155316" lon="12.212649515110826"><ele>958.6666666666666</ele><time>2026-04-25T14:14:06Z</time></trkpt><trkpt lat="46.4435785032593" lon="12.212778198050115"><ele>952.0</ele><time>2026-04-25T14:14:07Z</time></trkpt><trkpt lat="46.44342849293649" lon="12.212928767280497"><ele>952.0</ele><time>2026-04-25T14:14:08Z</time></trkpt><trkpt lat="46.44329029627438" lon="12.213107014287061"><ele>952.0</ele><time>2026-04-25T14:14:09Z</time></trkpt><trkpt lat="46.44316261893106" lon="12.213304383558647"><ele>952.0</ele><time>2026-04-25T14:14:10Z</time></trkpt><trkpt lat="46.44304444532997" lon="12.213507176966962"><ele>951.6666666666666</ele><time>2026-04-25T14:14:11Z</time></trkpt><trkpt lat="46.44291514167956" lon="12.213695023079081"><ele>951.3333333333333</ele><time>2026-04-25T14:14:12Z</time></trkpt><trkpt lat="46.442799663555405" lon="12.213909536903317"><ele>951.0</ele><time>2026-04-25T14:14:13Z</time></trkpt><trkpt lat="46.44265582118907" lon="12.214102577047605"><ele>951.0</ele><time>2026-04-25T14:14:14Z</time></trkpt><trkpt lat="46.44250117639192" lon="12.214305103996056"><ele>951.0</ele><time>2026-04-25T14:14:15Z</time></trkpt><trkpt lat="46.442339548466634" lon="12.214502410589645"><ele>951.0</ele><time>2026-04-25T14:14:16Z</time></trkpt><trkpt lat="46.44218089086746" lon="12.214689222379455"><ele>950.6666666666667</ele><time>2026-04-25T14:14:17Z</time></trkpt><trkpt lat="46.442020289001945" lon="12.214864056504554"><ele>950.3333333333334</ele><time>2026-04-25T14:14:18Z</time></trkpt><trkpt lat="46.44185591796533" lon="12.215023714748519"><ele>950.0</ele><time>2026-04-25T14:14:19Z</time></trkpt><trkpt lat="46.441688839402694" lon="12.21517405034911"><ele>950.0</ele><time>2026-04-25T14:14:20Z</time></trkpt><trkpt lat="46.441519514199165" lon="12.215310401477312"><ele>950.0</ele><time>2026-04-25T14:14:21Z</time></trkpt><trkpt lat="46.44134785751873" lon="12.215435990502783"><ele>950.0</ele><time>2026-04-25T14:14:22Z</time></trkpt><trkpt lat="46.441178124465026" lon="12.21555813772621"><ele>952.0</ele><time>2026-04-25T14:14:23Z</time></trkpt><trkpt lat="46.44101041175227" lon="12.215683577685816"><ele>954.0</ele><time>2026-04-25T14:14:24Z</time></trkpt><trkpt lat="46.44083483815575" lon="12.215785751360233"><ele>956.0</ele><time>2026-04-25T14:14:25Z</time></trkpt><trkpt lat="46.4406658797265" lon="12.21590566462369"><ele>956.0</ele><time>2026-04-25T14:14:26Z</time></trkpt><trkpt lat="46.44050467436583" lon="12.21604554350596"><ele>956.0</ele><time>2026-04-25T14:14:27Z</time></trkpt><trkpt lat="46.440336195918384" lon="12.21616000972501"><ele>956.0</ele><time>2026-04-25T14:14:28Z</time></trkpt><trkpt lat="46.44016908654137" lon="12.216274587764405"><ele>955.0</ele><time>2026-04-25T14:14:29Z</time></trkpt><trkpt lat="46.43999935014729" lon="12.216388591797857"><ele>954.0</ele><time>2026-04-25T14:14:30Z</time></trkpt><trkpt lat="46.43983057702475" lon="12.216502921291239"><ele>953.0</ele><time>2026-04-25T14:14:31Z</time></trkpt><trkpt lat="46.43966481259037" lon="12.216625052648"><ele>947.3333333333334</ele><time>2026-04-25T14:14:32Z</time></trkpt><trkpt lat="46.43951572706857" lon="12.216739843183749"><ele>941.6666666666667</ele><time>2026-04-25T14:14:33Z</time></trkpt><trkpt lat="46.4393818840251" lon="12.216852776153202"><ele>936.0</ele><time>2026-04-25T14:14:34Z</time></trkpt><trkpt lat="46.439260235403026" lon="12.216964478552411"><ele>936.0</ele><time>2026-04-25T14:14:35Z</time></trkpt><trkpt lat="46.43914468052165" lon="12.217075429286615"><ele>936.0</ele><time>2026-04-25T14:14:36Z</time></trkpt><trkpt lat="46.43903030622236" lon="12.217187718085043"><ele>936.0</ele><time>2026-04-25T14:14:37Z</time></trkpt><trkpt lat="46.43891652785636" lon="12.217300841738632"><ele>936.0</ele><time>2026-04-25T14:14:38Z</time></trkpt><trkpt lat="46.43880294624683" lon="12.217413146988426"><ele>936.25</ele><time>2026-04-25T14:14:39Z</time></trkpt><trkpt lat="46.438688954102204" lon="12.217526656216572"><ele>936.5</ele><time>2026-04-25T14:14:40Z</time></trkpt><trkpt lat="46.43858263876161" lon="12.217655236716116"><ele>936.75</ele><time>2026-04-25T14:14:41Z</time></trkpt><trkpt lat="46.43849333014032" lon="12.21780999398641"><ele>937.0</ele><time>2026-04-25T14:14:42Z</time></trkpt><trkpt lat="46.43842012844473" lon="12.217987173161095"><ele>939.0</ele><time>2026-04-25T14:14:43Z</time></trkpt><trkpt lat="46.43834603833737" lon="12.218168186601629"><ele>941.0</ele><time>2026-04-25T14:14:44Z</time></trkpt><trkpt lat="46.43826565346649" lon="12.21834734746541"><ele>943.0</ele><time>2026-04-25T14:14:45Z</time></trkpt><trkpt lat="46.438187858452444" lon="12.21853414134901"><ele>945.0</ele><time>2026-04-25T14:14:46Z</time></trkpt><trkpt lat="46.43811033773312" lon="12.218723624275697"><ele>945.0</ele><time>2026-04-25T14:14:46.999Z</time></trkpt><trkpt lat="46.43804148442198" lon="12.21891942886639"><ele>945.0</ele><time>2026-04-25T14:14:47.999Z</time></trkpt><trkpt lat="46.4379944776664" lon="12.219124650685687"><ele>945.0</ele><time>2026-04-25T14:14:48.999Z</time></trkpt><trkpt lat="46.43796749129299" lon="12.21933947565836"><ele>942.75</ele><time>2026-04-25T14:14:49.999Z</time></trkpt><trkpt lat="46.43795486154283" lon="12.219555928023064"><ele>940.5</ele><time>2026-04-25T14:14:50.999Z</time></trkpt><trkpt lat="46.437930213135665" lon="12.21977033736539"><ele>938.25</ele><time>2026-04-25T14:14:51.999Z</time></trkpt><trkpt lat="46.43792410012946" lon="12.219982309571815"><ele>936.0</ele><time>2026-04-25T14:14:52.999Z</time></trkpt><trkpt lat="46.43791894247599" lon="12.220190562361084"><ele>935.75</ele><time>2026-04-25T14:14:53.999Z</time></trkpt><trkpt lat="46.43791455955116" lon="12.220391584653068"><ele>935.5</ele><time>2026-04-25T14:14:54.999Z</time></trkpt><trkpt lat="46.437911286003924" lon="12.220587983401195"><ele>935.25</ele><time>2026-04-25T14:14:55.999Z</time></trkpt><trkpt lat="46.437907329701964" lon="12.220780456403403"><ele>935.0</ele><time>2026-04-25T14:14:56.999Z</time></trkpt><trkpt lat="46.437898833734394" lon="12.220974121738061"><ele>935.0</ele><time>2026-04-25T14:14:57.999Z</time></trkpt><trkpt lat="46.43789913118876" lon="12.221168920870971"><ele>935.0</ele><time>2026-04-25T14:14:58.999Z</time></trkpt><trkpt lat="46.437900244225155" lon="12.221361417509502"><ele>935.0</ele><time>2026-04-25T14:14:59.999Z</time></trkpt><trkpt lat="46.437900278520885" lon="12.221555827861467"><ele>935.0</ele><time>2026-04-25T14:15:00.999Z</time></trkpt><trkpt lat="46.43789799659756" lon="12.221744460884691"><ele>936.0</ele><time>2026-04-25T14:15:01.999Z</time></trkpt><trkpt lat="46.43789132230107" lon="12.221920761902243"><ele>937.0</ele><time>2026-04-25T14:15:02.999Z</time></trkpt><trkpt lat="46.437837156961685" lon="12.222085295223348"><ele>938.0</ele><time>2026-04-25T14:15:03.999Z</time></trkpt><trkpt lat="46.43772605403806" lon="12.222200561484213"><ele>939.0</ele><time>2026-04-25T14:15:05Z</time></trkpt><trkpt lat="46.43761559281569" lon="12.222350056196566"><ele>943.5</ele><time>2026-04-25T14:15:06Z</time></trkpt><trkpt lat="46.43749267676611" lon="12.222494265289338"><ele>948.0</ele><time>2026-04-25T14:15:07Z</time></trkpt><trkpt lat="46.43737762850497" lon="12.222635876237673"><ele>952.5</ele><time>2026-04-25T14:15:08Z</time></trkpt><trkpt lat="46.43726958341539" lon="12.222763615276524"><ele>957.0</ele><time>2026-04-25T14:15:09Z</time></trkpt><trkpt lat="46.43715957055549" lon="12.222865004916683"><ele>957.0</ele><time>2026-04-25T14:15:10Z</time></trkpt><trkpt lat="46.43706745479684" lon="12.222970729635914"><ele>957.0</ele><time>2026-04-25T14:15:11Z</time></trkpt><trkpt lat="46.43698592942344" lon="12.223062505997387"><ele>957.0</ele><time>2026-04-25T14:15:12Z</time></trkpt><trkpt lat="46.43690896231705" lon="12.2231456573289"><ele>957.0</ele><time>2026-04-25T14:15:13Z</time></trkpt><trkpt lat="46.43683901691788" lon="12.223223173653434"><ele>957.0</ele><time>2026-04-25T14:15:14Z</time></trkpt><trkpt lat="46.43676133434178" lon="12.223240138718916"><ele>957.0</ele><time>2026-04-25T14:15:15Z</time></trkpt><trkpt lat="46.43668443112323" lon="12.223226457115342"><ele>957.0</ele><time>2026-04-25T14:15:16Z</time></trkpt><trkpt lat="46.4366047755697" lon="12.223232374374502"><ele>957.0</ele><time>2026-04-25T14:15:17Z</time></trkpt><trkpt lat="46.436531019159055" lon="12.223293066547686"><ele>957.0</ele><time>2026-04-25T14:15:18Z</time></trkpt><trkpt lat="46.436468258777346" lon="12.223369681655244"><ele>957.0</ele><time>2026-04-25T14:15:19Z</time></trkpt><trkpt lat="46.43641415326754" lon="12.223436196278596"><ele>957.0</ele><time>2026-04-25T14:15:20Z</time></trkpt><trkpt lat="46.43635736119525" lon="12.223486424005612"><ele>954.6</ele><time>2026-04-25T14:15:21Z</time></trkpt><trkpt lat="46.43629949256803" lon="12.223531625937204"><ele>952.2</ele><time>2026-04-25T14:15:22Z</time></trkpt><trkpt lat="46.43617576968622" lon="12.223574734731844"><ele>949.8</ele><time>2026-04-25T14:15:24Z</time></trkpt><trkpt lat="46.43611086005975" lon="12.223582324318459"><ele>947.4</ele><time>2026-04-25T14:15:25Z</time></trkpt><trkpt lat="46.435999061241844" lon="12.223574796086837"><ele>945.0</ele><time>2026-04-25T14:15:27Z</time></trkpt><trkpt lat="46.435918615782526" lon="12.223479011990115"><ele>945.0</ele><time>2026-04-25T14:15:29Z</time></trkpt><trkpt lat="46.43586909255836" lon="12.22338083255189"><ele>945.0</ele><time>2026-04-25T14:15:31Z</time></trkpt><trkpt lat="46.43582696238746" lon="12.223304284450466"><ele>945.0</ele><time>2026-04-25T14:15:33Z</time></trkpt><trkpt lat="46.43575807204763" lon="12.223277647216179"><ele>945.0</ele><time>2026-04-25T14:15:36Z</time></trkpt><trkpt lat="46.43573016044806" lon="12.223178754930892"><ele>945.0</ele><time>2026-04-25T14:16:21Z</time></trkpt><trkpt lat="46.435660427628825" lon="12.223245063055915"><ele>945.0</ele><time>2026-04-25T14:16:32Z</time></trkpt><trkpt lat="46.4357157661679" lon="12.223199831750657"><ele>945.0</ele><time>2026-04-25T14:18:08Z</time></trkpt><trkpt lat="46.435681872421135" lon="12.223122193062592"><ele>945.0</ele><time>2026-04-25T14:20:34Z</time></trkpt><trkpt lat="46.435586620034414" lon="12.223123108214002"><ele>945.0</ele><time>2026-04-25T14:20:36Z</time></trkpt><trkpt lat="46.43552054141096" lon="12.223197509648996"><ele>945.0</ele><time>2026-04-25T14:20:38Z</time></trkpt><trkpt lat="46.435467893436176" lon="12.223291669348397"><ele>945.0</ele><time>2026-04-25T14:20:40Z</time></trkpt><trkpt lat="46.43539373588975" lon="12.223333184448528"><ele>945.0</ele><time>2026-04-25T14:20:42Z</time></trkpt><trkpt lat="46.43529692513626" lon="12.223395022423695"><ele>945.0</ele><time>2026-04-25T14:20:44Z</time></trkpt><trkpt lat="46.43517112646351" lon="12.223390223668053"><ele>945.2</ele><time>2026-04-25T14:20:46Z</time></trkpt><trkpt lat="46.43509668981828" lon="12.223375418479648"><ele>945.4</ele><time>2026-04-25T14:20:47Z</time></trkpt><trkpt lat="46.43500323620121" lon="12.223371805459761"><ele>945.5999999999999</ele><time>2026-04-25T14:20:48Z</time></trkpt><trkpt lat="46.43489321188286" lon="12.223387217781594"><ele>945.8</ele><time>2026-04-25T14:20:49Z</time></trkpt><trkpt lat="46.43477759537021" lon="12.223429231468085"><ele>946.0</ele><time>2026-04-25T14:20:50Z</time></trkpt><trkpt lat="46.43465909371426" lon="12.223506508214578"><ele>943.75</ele><time>2026-04-25T14:20:51Z</time></trkpt><trkpt lat="46.434542975622854" lon="12.223591326289773"><ele>941.5</ele><time>2026-04-25T14:20:52Z</time></trkpt><trkpt lat="46.43443888737759" lon="12.223663709396558"><ele>939.25</ele><time>2026-04-25T14:20:53Z</time></trkpt><trkpt lat="46.43434590021549" lon="12.223724687648211"><ele>937.0</ele><time>2026-04-25T14:20:54Z</time></trkpt><trkpt lat="46.43425097626904" lon="12.223784863290682"><ele>937.0</ele><time>2026-04-25T14:20:54.999Z</time></trkpt><trkpt lat="46.434145341834856" lon="12.223853022788504"><ele>937.0</ele><time>2026-04-25T14:20:55.999Z</time></trkpt><trkpt lat="46.43403522296207" lon="12.223922246622232"><ele>937.0</ele><time>2026-04-25T14:20:56.999Z</time></trkpt><trkpt lat="46.43391989195816" lon="12.223992415715351"><ele>937.0</ele><time>2026-04-25T14:20:57.999Z</time></trkpt><trkpt lat="46.43380449194015" lon="12.224061187235904"><ele>939.0</ele><time>2026-04-25T14:20:58.999Z</time></trkpt><trkpt lat="46.433681465888014" lon="12.224141090660853"><ele>941.0</ele><time>2026-04-25T14:20:59.999Z</time></trkpt><trkpt lat="46.43356315977481" lon="12.224215506386477"><ele>943.0</ele><time>2026-04-25T14:21:00.999Z</time></trkpt><trkpt lat="46.43343350032412" lon="12.22429829382592"><ele>945.0</ele><time>2026-04-25T14:21:01.999Z</time></trkpt><trkpt lat="46.43329691917412" lon="12.224388478059947"><ele>945.0</ele><time>2026-04-25T14:21:02.999Z</time></trkpt><trkpt lat="46.43315710997508" lon="12.224474019426465"><ele>945.0</ele><time>2026-04-25T14:21:03.999Z</time></trkpt><trkpt lat="46.433019995103635" lon="12.224560271420437"><ele>945.0</ele><time>2026-04-25T14:21:04.999Z</time></trkpt><trkpt lat="46.432881863778306" lon="12.224648821194677"><ele>944.6666666666667</ele><time>2026-04-25T14:21:05.999Z</time></trkpt><trkpt lat="46.43274351423677" lon="12.224740553707168"><ele>944.3333333333334</ele><time>2026-04-25T14:21:06.999Z</time></trkpt><trkpt lat="46.432602149847206" lon="12.224833260784111"><ele>944.0</ele><time>2026-04-25T14:21:07.999Z</time></trkpt><trkpt lat="46.432462189865916" lon="12.224919893511409"><ele>944.0</ele><time>2026-04-25T14:21:08.999Z</time></trkpt><trkpt lat="46.43231455382524" lon="12.225010295742864"><ele>944.0</ele><time>2026-04-25T14:21:09.999Z</time></trkpt><trkpt lat="46.43216310907312" lon="12.225104414056013"><ele>944.0</ele><time>2026-04-25T14:21:10.999Z</time></trkpt><trkpt lat="46.4320191494152" lon="12.225185663129059"><ele>942.6666666666667</ele><time>2026-04-25T14:21:11.999Z</time></trkpt><trkpt lat="46.43187313470649" lon="12.225317971993347"><ele>941.3333333333333</ele><time>2026-04-25T14:21:12.999Z</time></trkpt><trkpt lat="46.43173444993067" lon="12.225480650696957"><ele>940.0</ele><time>2026-04-25T14:21:13.999Z</time></trkpt><trkpt lat="46.431602510967224" lon="12.225643712969578"><ele>942.3333333333333</ele><time>2026-04-25T14:21:14.999Z</time></trkpt><trkpt lat="46.4314703817293" lon="12.225770455014983"><ele>944.6666666666667</ele><time>2026-04-25T14:21:15.999Z</time></trkpt><trkpt lat="46.431322590176734" lon="12.22586425964766"><ele>947.0</ele><time>2026-04-25T14:21:16.999Z</time></trkpt><trkpt lat="46.43117756334321" lon="12.225942790012539"><ele>947.0</ele><time>2026-04-25T14:21:17.999Z</time></trkpt><trkpt lat="46.43103590238907" lon="12.22600780165288"><ele>947.0</ele><time>2026-04-25T14:21:18.999Z</time></trkpt><trkpt lat="46.430887651304566" lon="12.22605497096034"><ele>947.0</ele><time>2026-04-25T14:21:19.999Z</time></trkpt><trkpt lat="46.430738708521964" lon="12.226088970757933"><ele>947.0</ele><time>2026-04-25T14:21:20.999Z</time></trkpt><trkpt lat="46.43058481326263" lon="12.226121286283485"><ele>947.0</ele><time>2026-04-25T14:21:22Z</time></trkpt><trkpt lat="46.430433813137945" lon="12.226156036761132"><ele>947.0</ele><time>2026-04-25T14:21:23Z</time></trkpt><trkpt lat="46.43028643265561" lon="12.226215488840896"><ele>946.0</ele><time>2026-04-25T14:21:24Z</time></trkpt><trkpt lat="46.43014590342315" lon="12.22630611762177"><ele>945.0</ele><time>2026-04-25T14:21:25Z</time></trkpt><trkpt lat="46.43001587331025" lon="12.226438831784614"><ele>944.0</ele><time>2026-04-25T14:21:26Z</time></trkpt><trkpt lat="46.42989553527406" lon="12.22661393803112"><ele>944.0</ele><time>2026-04-25T14:21:27Z</time></trkpt><trkpt lat="46.42977630435595" lon="12.2267801766595"><ele>944.0</ele><time>2026-04-25T14:21:28Z</time></trkpt><trkpt lat="46.42965191004803" lon="12.226934572523229"><ele>944.0</ele><time>2026-04-25T14:21:29Z</time></trkpt><trkpt lat="46.429526135740325" lon="12.227087493169766"><ele>943.0</ele><time>2026-04-25T14:21:30Z</time></trkpt><trkpt lat="46.429404027999155" lon="12.227246055001887"><ele>942.0</ele><time>2026-04-25T14:21:31Z</time></trkpt><trkpt lat="46.4292774382424" lon="12.227412019242768"><ele>941.0</ele><time>2026-04-25T14:21:32Z</time></trkpt><trkpt lat="46.429146139542375" lon="12.227577896265062"><ele>941.0</ele><time>2026-04-25T14:21:33Z</time></trkpt><trkpt lat="46.429017189933155" lon="12.227742260845242"><ele>941.0</ele><time>2026-04-25T14:21:34Z</time></trkpt><trkpt lat="46.42888719183823" lon="12.227908492167552"><ele>941.0</ele><time>2026-04-25T14:21:35Z</time></trkpt><trkpt lat="46.42875509952426" lon="12.228079164613103"><ele>939.6666666666667</ele><time>2026-04-25T14:21:36Z</time></trkpt><trkpt lat="46.42862133842647" lon="12.228255534076162"><ele>938.3333333333333</ele><time>2026-04-25T14:21:37Z</time></trkpt><trkpt lat="46.42848393381894" lon="12.228439068582633"><ele>937.0</ele><time>2026-04-25T14:21:38Z</time></trkpt><trkpt lat="46.428340835379046" lon="12.228625849488933"><ele>937.0</ele><time>2026-04-25T14:21:39Z</time></trkpt><trkpt lat="46.42819374033802" lon="12.228814732584732"><ele>937.0</ele><time>2026-04-25T14:21:40Z</time></trkpt><trkpt lat="46.428045451923055" lon="12.229010186037403"><ele>937.0</ele><time>2026-04-25T14:21:41Z</time></trkpt><trkpt lat="46.42789376168833" lon="12.229207843789759"><ele>936.0</ele><time>2026-04-25T14:21:42Z</time></trkpt><trkpt lat="46.42774541729496" lon="12.229404659580425"><ele>935.0</ele><time>2026-04-25T14:21:43Z</time></trkpt><trkpt lat="46.42759498019683" lon="12.229601380072861"><ele>934.0</ele><time>2026-04-25T14:21:44Z</time></trkpt><trkpt lat="46.4274467524172" lon="12.229796219634673"><ele>936.0</ele><time>2026-04-25T14:21:45Z</time></trkpt><trkpt lat="46.4272999083932" lon="12.229990832292259"><ele>938.0</ele><time>2026-04-25T14:21:46Z</time></trkpt><trkpt lat="46.42715461748364" lon="12.230184245235579"><ele>940.0</ele><time>2026-04-25T14:21:47Z</time></trkpt><trkpt lat="46.42701235676874" lon="12.230377756629515"><ele>937.0</ele><time>2026-04-25T14:21:48Z</time></trkpt><trkpt lat="46.42687099986625" lon="12.230577675764417"><ele>934.0</ele><time>2026-04-25T14:21:49Z</time></trkpt><trkpt lat="46.426734857051486" lon="12.230787566553905"><ele>931.0</ele><time>2026-04-25T14:21:50Z</time></trkpt><trkpt lat="46.426603266306266" lon="12.231007521484534"><ele>931.0</ele><time>2026-04-25T14:21:51Z</time></trkpt><trkpt lat="46.42647448419902" lon="12.231225547148846"><ele>931.0</ele><time>2026-04-25T14:21:52Z</time></trkpt><trkpt lat="46.426347409295005" lon="12.231452042829641"><ele>931.0</ele><time>2026-04-25T14:21:53Z</time></trkpt><trkpt lat="46.42622282405433" lon="12.231679972306043"><ele>931.3333333333333</ele><time>2026-04-25T14:21:54Z</time></trkpt><trkpt lat="46.42610150198106" lon="12.231905182000673"><ele>931.6666666666667</ele><time>2026-04-25T14:21:55Z</time></trkpt><trkpt lat="46.42598044198046" lon="12.232136105776345"><ele>932.0</ele><time>2026-04-25T14:21:56Z</time></trkpt><trkpt lat="46.42585530102522" lon="12.232365636708668"><ele>932.0</ele><time>2026-04-25T14:21:57Z</time></trkpt><trkpt lat="46.425728177601385" lon="12.232595717251897"><ele>932.0</ele><time>2026-04-25T14:21:58Z</time></trkpt><trkpt lat="46.42560081964393" lon="12.232831290985747"><ele>932.0</ele><time>2026-04-25T14:21:59Z</time></trkpt><trkpt lat="46.425479413805675" lon="12.2330687491374"><ele>928.3333333333334</ele><time>2026-04-25T14:22:00Z</time></trkpt><trkpt lat="46.4253622201821" lon="12.233313574436618"><ele>924.6666666666667</ele><time>2026-04-25T14:22:01Z</time></trkpt><trkpt lat="46.42525093272322" lon="12.23356653021633"><ele>921.0</ele><time>2026-04-25T14:22:02Z</time></trkpt><trkpt lat="46.425147800722144" lon="12.233826476182523"><ele>925.3333333333333</ele><time>2026-04-25T14:22:03Z</time></trkpt><trkpt lat="46.42504677373344" lon="12.234084670989857"><ele>929.6666666666666</ele><time>2026-04-25T14:22:04Z</time></trkpt><trkpt lat="46.424945395346334" lon="12.23434223536628"><ele>934.0</ele><time>2026-04-25T14:22:05Z</time></trkpt><trkpt lat="46.42484163459829" lon="12.234595617511772"><ele>937.6666666666666</ele><time>2026-04-25T14:22:06Z</time></trkpt><trkpt lat="46.42474007713741" lon="12.234845207839568"><ele>941.3333333333333</ele><time>2026-04-25T14:22:07Z</time></trkpt><trkpt lat="46.42464105760536" lon="12.235091227549974"><ele>945.0</ele><time>2026-04-25T14:22:08Z</time></trkpt><trkpt lat="46.42454249063301" lon="12.235324326419931"><ele>941.3333333333333</ele><time>2026-04-25T14:22:09Z</time></trkpt><trkpt lat="46.424433823613306" lon="12.235543597687768"><ele>937.6666666666666</ele><time>2026-04-25T14:22:10Z</time></trkpt><trkpt lat="46.42430207482569" lon="12.23574009338319"><ele>934.0</ele><time>2026-04-25T14:22:11Z</time></trkpt><trkpt lat="46.42414626801752" lon="12.235896494070051"><ele>934.0</ele><time>2026-04-25T14:22:12Z</time></trkpt><trkpt lat="46.4239692303101" lon="12.236003441210977"><ele>934.0</ele><time>2026-04-25T14:22:13Z</time></trkpt><trkpt lat="46.42377871499975" lon="12.236059127078255"><ele>934.0</ele><time>2026-04-25T14:22:14Z</time></trkpt><trkpt lat="46.42359195497018" lon="12.236103367288026"><ele>934.6666666666666</ele><time>2026-04-25T14:22:15Z</time></trkpt><trkpt lat="46.42341192208501" lon="12.236154739754868"><ele>935.3333333333333</ele><time>2026-04-25T14:22:16Z</time></trkpt><trkpt lat="46.42324020622866" lon="12.236216046089382"><ele>936.0</ele><time>2026-04-25T14:22:17Z</time></trkpt><trkpt lat="46.4230768515523" lon="12.236301354568823"><ele>932.0</ele><time>2026-04-25T14:22:18Z</time></trkpt><trkpt lat="46.42292586926664" lon="12.236430734063207"><ele>928.0</ele><time>2026-04-25T14:22:19Z</time></trkpt><trkpt lat="46.42279380717004" lon="12.236598596321269"><ele>924.0</ele><time>2026-04-25T14:22:20Z</time></trkpt><trkpt lat="46.42268337118657" lon="12.236802122675691"><ele>924.0</ele><time>2026-04-25T14:22:21Z</time></trkpt><trkpt lat="46.42259653244104" lon="12.237042183166874"><ele>924.0</ele><time>2026-04-25T14:22:22Z</time></trkpt><trkpt lat="46.42253043651164" lon="12.237312271305592"><ele>924.0</ele><time>2026-04-25T14:22:23Z</time></trkpt><trkpt lat="46.42246610253741" lon="12.23759953115449"><ele>924.6666666666667</ele><time>2026-04-25T14:22:24Z</time></trkpt><trkpt lat="46.42239820004091" lon="12.23788195815846"><ele>925.3333333333334</ele><time>2026-04-25T14:22:25Z</time></trkpt><trkpt lat="46.42233242298966" lon="12.238153529880417"><ele>926.0</ele><time>2026-04-25T14:22:26Z</time></trkpt><trkpt lat="46.42226251527744" lon="12.238417731762727"><ele>926.0</ele><time>2026-04-25T14:22:27Z</time></trkpt><trkpt lat="46.42218142834978" lon="12.238667487064385"><ele>926.0</ele><time>2026-04-25T14:22:28Z</time></trkpt><trkpt lat="46.422077800935554" lon="12.238900577014618"><ele>926.0</ele><time>2026-04-25T14:22:29Z</time></trkpt><trkpt lat="46.421949970716454" lon="12.23911075851382"><ele>923.3333333333334</ele><time>2026-04-25T14:22:30Z</time></trkpt><trkpt lat="46.42180978616972" lon="12.239301861535017"><ele>920.6666666666667</ele><time>2026-04-25T14:22:31Z</time></trkpt><trkpt lat="46.42168448809814" lon="12.23949532083698"><ele>918.0</ele><time>2026-04-25T14:22:32Z</time></trkpt><trkpt lat="46.42158557048795" lon="12.239711785755322"><ele>917.3333333333333</ele><time>2026-04-25T14:22:33Z</time></trkpt><trkpt lat="46.421517774633074" lon="12.239950506425332"><ele>916.6666666666666</ele><time>2026-04-25T14:22:34Z</time></trkpt><trkpt lat="46.421485210428294" lon="12.24021175715737"><ele>916.0</ele><time>2026-04-25T14:22:35Z</time></trkpt><trkpt lat="46.4214850115226" lon="12.240489071672279"><ele>916.3333333333333</ele><time>2026-04-25T14:22:36Z</time></trkpt><trkpt lat="46.42149893791202" lon="12.240781166074786"><ele>916.6666666666667</ele><time>2026-04-25T14:22:37Z</time></trkpt><trkpt lat="46.42151445779955" lon="12.241042390558906"><ele>917.0</ele><time>2026-04-25T14:22:38Z</time></trkpt><trkpt lat="46.42152524721629" lon="12.241282480558574"><ele>916.5</ele><time>2026-04-25T14:22:39Z</time></trkpt><trkpt lat="46.42153193173264" lon="12.241503381774281"><ele>916.0</ele><time>2026-04-25T14:22:40Z</time></trkpt><trkpt lat="46.4215371066992" lon="12.24170582209223"><ele>915.5</ele><time>2026-04-25T14:22:41Z</time></trkpt><trkpt lat="46.42154616200486" lon="12.241899204625092"><ele>915.0</ele><time>2026-04-25T14:22:42Z</time></trkpt><trkpt lat="46.42157357615303" lon="12.242099186354555"><ele>914.3333333333333</ele><time>2026-04-25T14:22:43Z</time></trkpt><trkpt lat="46.421630232984526" lon="12.242309019339118"><ele>913.6666666666666</ele><time>2026-04-25T14:22:44Z</time></trkpt><trkpt lat="46.421688763383834" lon="12.242524205121745"><ele>913.0</ele><time>2026-04-25T14:22:45Z</time></trkpt><trkpt lat="46.42173343016117" lon="12.242731091144233"><ele>913.0</ele><time>2026-04-25T14:22:46Z</time></trkpt><trkpt lat="46.42175629139516" lon="12.242929096399878"><ele>913.0</ele><time>2026-04-25T14:22:47Z</time></trkpt><trkpt lat="46.42175912236869" lon="12.243126889637338"><ele>913.0</ele><time>2026-04-25T14:22:48Z</time></trkpt><trkpt lat="46.4217574449764" lon="12.243322202382181"><ele>913.0</ele><time>2026-04-25T14:22:49Z</time></trkpt><trkpt lat="46.421752011322155" lon="12.243494503410234"><ele>912.75</ele><time>2026-04-25T14:22:50Z</time></trkpt><trkpt lat="46.42172283429392" lon="12.24365906770501"><ele>912.5</ele><time>2026-04-25T14:22:51Z</time></trkpt><trkpt lat="46.42164942656432" lon="12.243810191694905"><ele>912.25</ele><time>2026-04-25T14:22:52Z</time></trkpt><trkpt lat="46.42153780577803" lon="12.243949468778721"><ele>912.0</ele><time>2026-04-25T14:22:53Z</time></trkpt><trkpt lat="46.42141593482491" lon="12.244092814248884"><ele>909.5</ele><time>2026-04-25T14:22:54Z</time></trkpt><trkpt lat="46.421302323449694" lon="12.244233866279759"><ele>907.0</ele><time>2026-04-25T14:22:55Z</time></trkpt><trkpt lat="46.42120415986427" lon="12.244359422606138"><ele>904.5</ele><time>2026-04-25T14:22:56Z</time></trkpt><trkpt lat="46.421105783407604" lon="12.2444863847023"><ele>902.0</ele><time>2026-04-25T14:22:57Z</time></trkpt><trkpt lat="46.421004741232814" lon="12.244620183920953"><ele>902.0</ele><time>2026-04-25T14:22:58Z</time></trkpt><trkpt lat="46.420897798356485" lon="12.244758374200424"><ele>902.0</ele><time>2026-04-25T14:22:58.999Z</time></trkpt><trkpt lat="46.4207903215555" lon="12.244895673376227"><ele>902.0</ele><time>2026-04-25T14:22:59.999Z</time></trkpt><trkpt lat="46.42068147471922" lon="12.245035657737551"><ele>902.0</ele><time>2026-04-25T14:23:00.999Z</time></trkpt><trkpt lat="46.42057187519229" lon="12.245174775248765"><ele>902.25</ele><time>2026-04-25T14:23:01.999Z</time></trkpt><trkpt lat="46.42046668591238" lon="12.245307300976522"><ele>902.5</ele><time>2026-04-25T14:23:02.999Z</time></trkpt><trkpt lat="46.420363317175884" lon="12.245436524144075"><ele>902.75</ele><time>2026-04-25T14:23:03.999Z</time></trkpt><trkpt lat="46.420264892664804" lon="12.245566993691863"><ele>903.0</ele><time>2026-04-25T14:23:04.999Z</time></trkpt><trkpt lat="46.420171732472646" lon="12.24570076274573"><ele>903.0</ele><time>2026-04-25T14:23:05.999Z</time></trkpt><trkpt lat="46.42008222251188" lon="12.245846643683576"><ele>903.0</ele><time>2026-04-25T14:23:06.999Z</time></trkpt><trkpt lat="46.419999192413606" lon="12.246008567637013"><ele>903.0</ele><time>2026-04-25T14:23:07.999Z</time></trkpt><trkpt lat="46.419917386219666" lon="12.246174830015903"><ele>903.0</ele><time>2026-04-25T14:23:08.999Z</time></trkpt><trkpt lat="46.419835155434406" lon="12.24634414887416"><ele>904.0</ele><time>2026-04-25T14:23:09.999Z</time></trkpt><trkpt lat="46.41975151245802" lon="12.246515170452687"><ele>905.0</ele><time>2026-04-25T14:23:10.999Z</time></trkpt><trkpt lat="46.419666941726106" lon="12.24668383089867"><ele>906.0</ele><time>2026-04-25T14:23:11.999Z</time></trkpt><trkpt lat="46.41958556116711" lon="12.246857156238868"><ele>907.0</ele><time>2026-04-25T14:23:12.999Z</time></trkpt><trkpt lat="46.4195091308071" lon="12.247030530075733"><ele>903.0</ele><time>2026-04-25T14:23:13.999Z</time></trkpt><trkpt lat="46.419443553157" lon="12.247214390430711"><ele>899.0</ele><time>2026-04-25T14:23:14.999Z</time></trkpt><trkpt lat="46.41939737037816" lon="12.247421039004765"><ele>895.0</ele><time>2026-04-25T14:23:15.999Z</time></trkpt><trkpt lat="46.41935930562751" lon="12.24764579082839"><ele>895.0</ele><time>2026-04-25T14:23:16.999Z</time></trkpt><trkpt lat="46.41931414389932" lon="12.247866580972342"><ele>895.0</ele><time>2026-04-25T14:23:17.999Z</time></trkpt><trkpt lat="46.41926580608176" lon="12.248062990369524"><ele>895.0</ele><time>2026-04-25T14:23:18.999Z</time></trkpt><trkpt lat="46.419208550194796" lon="12.248234080487839"><ele>895.0</ele><time>2026-04-25T14:23:19.999Z</time></trkpt><trkpt lat="46.419123272018304" lon="12.248379656341358"><ele>895.75</ele><time>2026-04-25T14:23:20.999Z</time></trkpt><trkpt lat="46.41900110622206" lon="12.24850772312582"><ele>896.5</ele><time>2026-04-25T14:23:21.999Z</time></trkpt><trkpt lat="46.418856835703274" lon="12.248606396706899"><ele>897.25</ele><time>2026-04-25T14:23:22.999Z</time></trkpt><trkpt lat="46.418728220678425" lon="12.24868034822709"><ele>898.0</ele><time>2026-04-25T14:23:23.999Z</time></trkpt><trkpt lat="46.41861558240212" lon="12.24877665851313"><ele>896.25</ele><time>2026-04-25T14:23:24.999Z</time></trkpt><trkpt lat="46.41850842179325" lon="12.24890082869894"><ele>894.5</ele><time>2026-04-25T14:23:25.999Z</time></trkpt><trkpt lat="46.418426801681946" lon="12.2490606865913"><ele>892.75</ele><time>2026-04-25T14:23:26.999Z</time></trkpt><trkpt lat="46.418377250785596" lon="12.249274988757403"><ele>891.0</ele><time>2026-04-25T14:23:28Z</time></trkpt><trkpt lat="46.418316274567104" lon="12.249517674837147"><ele>891.0</ele><time>2026-04-25T14:23:29Z</time></trkpt><trkpt lat="46.418272576531216" lon="12.24971426245092"><ele>891.0</ele><time>2026-04-25T14:23:30Z</time></trkpt><trkpt lat="46.41822898753728" lon="12.249910985368023"><ele>891.0</ele><time>2026-04-25T14:23:31Z</time></trkpt><trkpt lat="46.41819716748384" lon="12.25009821373141"><ele>891.0</ele><time>2026-04-25T14:23:32Z</time></trkpt><trkpt lat="46.41812654379641" lon="12.250266769255807"><ele>891.5</ele><time>2026-04-25T14:23:33Z</time></trkpt><trkpt lat="46.418030759504504" lon="12.250416206058414"><ele>892.0</ele><time>2026-04-25T14:23:34Z</time></trkpt><trkpt lat="46.41790366079494" lon="12.250508282702178"><ele>892.5</ele><time>2026-04-25T14:23:35Z</time></trkpt><trkpt lat="46.417778230812594" lon="12.250606719143322"><ele>893.0</ele><time>2026-04-25T14:23:36Z</time></trkpt><trkpt lat="46.41765172719916" lon="12.250703818480098"><ele>892.0</ele><time>2026-04-25T14:23:37Z</time></trkpt><trkpt lat="46.417525560416586" lon="12.25079489053305"><ele>891.0</ele><time>2026-04-25T14:23:38Z</time></trkpt><trkpt lat="46.41740410279413" lon="12.250883126114344"><ele>890.0</ele><time>2026-04-25T14:23:39Z</time></trkpt><trkpt lat="46.417289569518076" lon="12.250974910280107"><ele>889.0</ele><time>2026-04-25T14:23:40Z</time></trkpt><trkpt lat="46.41716468587593" lon="12.251027810126926"><ele>886.75</ele><time>2026-04-25T14:23:41Z</time></trkpt><trkpt lat="46.417045931885674" lon="12.251057224270658"><ele>884.5</ele><time>2026-04-25T14:23:42Z</time></trkpt><trkpt lat="46.41693378841497" lon="12.251094334253315"><ele>882.25</ele><time>2026-04-25T14:23:43Z</time></trkpt><trkpt lat="46.416829069407704" lon="12.251178327360185"><ele>880.0</ele><time>2026-04-25T14:23:44Z</time></trkpt><trkpt lat="46.41672909466711" lon="12.251306621496841"><ele>882.75</ele><time>2026-04-25T14:23:45Z</time></trkpt><trkpt lat="46.41664750390664" lon="12.25149028805735"><ele>885.5</ele><time>2026-04-25T14:23:46Z</time></trkpt><trkpt lat="46.4165645357916" lon="12.251669320079161"><ele>888.25</ele><time>2026-04-25T14:23:47Z</time></trkpt><trkpt lat="46.41649563585018" lon="12.251847926046342"><ele>891.0</ele><time>2026-04-25T14:23:48Z</time></trkpt><trkpt lat="46.4164062905556" lon="12.25198648244574"><ele>887.25</ele><time>2026-04-25T14:23:49Z</time></trkpt><trkpt lat="46.41628888421241" lon="12.252082274297527"><ele>883.5</ele><time>2026-04-25T14:23:50Z</time></trkpt><trkpt lat="46.416162809287165" lon="12.252172026552522"><ele>879.75</ele><time>2026-04-25T14:23:51Z</time></trkpt><trkpt lat="46.41600393295732" lon="12.252201098007138"><ele>876.0</ele><time>2026-04-25T14:23:52Z</time></trkpt><trkpt lat="46.415845107051815" lon="12.252222025202638"><ele>876.0</ele><time>2026-04-25T14:23:53Z</time></trkpt><trkpt lat="46.41569899246824" lon="12.252245456509387"><ele>876.0</ele><time>2026-04-25T14:23:54Z</time></trkpt><trkpt lat="46.415562751423806" lon="12.252294982217588"><ele>876.0</ele><time>2026-04-25T14:23:55Z</time></trkpt><trkpt lat="46.41543737263781" lon="12.2523773068438"><ele>876.0</ele><time>2026-04-25T14:23:56Z</time></trkpt><trkpt lat="46.41532358158658" lon="12.252496023913388"><ele>874.0</ele><time>2026-04-25T14:23:57Z</time></trkpt><trkpt lat="46.41522947403684" lon="12.25266124228633"><ele>872.0</ele><time>2026-04-25T14:23:58Z</time></trkpt><trkpt lat="46.415150199880756" lon="12.252866005334855"><ele>870.0</ele><time>2026-04-25T14:23:59Z</time></trkpt><trkpt lat="46.41508205565606" lon="12.253094106843747"><ele>874.0</ele><time>2026-04-25T14:24:00Z</time></trkpt><trkpt lat="46.41502329925383" lon="12.253331804499963"><ele>878.0</ele><time>2026-04-25T14:24:01Z</time></trkpt><trkpt lat="46.41497118843418" lon="12.253559508648879"><ele>882.0</ele><time>2026-04-25T14:24:02Z</time></trkpt><trkpt lat="46.41491861086601" lon="12.25377258392784"><ele>884.0</ele><time>2026-04-25T14:24:03Z</time></trkpt><trkpt lat="46.41487901513637" lon="12.2539842446701"><ele>886.0</ele><time>2026-04-25T14:24:04Z</time></trkpt><trkpt lat="46.41487051532457" lon="12.254224888683627"><ele>888.0</ele><time>2026-04-25T14:24:05Z</time></trkpt><trkpt lat="46.414891284520266" lon="12.254482305752871"><ele>888.0</ele><time>2026-04-25T14:24:06Z</time></trkpt><trkpt lat="46.41493193149418" lon="12.254750024361151"><ele>888.0</ele><time>2026-04-25T14:24:07Z</time></trkpt><trkpt lat="46.414973173294044" lon="12.255021670240545"><ele>888.0</ele><time>2026-04-25T14:24:08Z</time></trkpt><trkpt lat="46.41501004992486" lon="12.255266980892838"><ele>887.3333333333333</ele><time>2026-04-25T14:24:09Z</time></trkpt><trkpt lat="46.41504284900778" lon="12.25549807153424"><ele>886.6666666666666</ele><time>2026-04-25T14:24:10Z</time></trkpt><trkpt lat="46.4150746865664" lon="12.255727898954877"><ele>886.0</ele><time>2026-04-25T14:24:11Z</time></trkpt><trkpt lat="46.41511310122746" lon="12.255954229123441"><ele>884.3333333333333</ele><time>2026-04-25T14:24:12Z</time></trkpt><trkpt lat="46.41516044381149" lon="12.256173125254525"><ele>882.6666666666667</ele><time>2026-04-25T14:24:13Z</time></trkpt><trkpt lat="46.41522928816047" lon="12.25637623229775"><ele>881.0</ele><time>2026-04-25T14:24:14Z</time></trkpt><trkpt lat="46.41531644147091" lon="12.256557342950886"><ele>878.5</ele><time>2026-04-25T14:24:15Z</time></trkpt><trkpt lat="46.415412541362336" lon="12.2567133644292"><ele>876.0</ele><time>2026-04-25T14:24:16Z</time></trkpt><trkpt lat="46.4155092982912" lon="12.256859362112202"><ele>873.5</ele><time>2026-04-25T14:24:17Z</time></trkpt><trkpt lat="46.41559876436107" lon="12.25701195535529"><ele>871.0</ele><time>2026-04-25T14:24:18Z</time></trkpt><trkpt lat="46.415680681853175" lon="12.257187537873163"><ele>875.75</ele><time>2026-04-25T14:24:19Z</time></trkpt><trkpt lat="46.415748337062" lon="12.257381629346147"><ele>880.5</ele><time>2026-04-25T14:24:20Z</time></trkpt><trkpt lat="46.4158067716542" lon="12.257584123232965"><ele>885.25</ele><time>2026-04-25T14:24:21Z</time></trkpt><trkpt lat="46.415864215693425" lon="12.257781091766345"><ele>890.0</ele><time>2026-04-25T14:24:22Z</time></trkpt><trkpt lat="46.41591933301596" lon="12.257969524939455"><ele>888.75</ele><time>2026-04-25T14:24:23Z</time></trkpt><trkpt lat="46.41596104821019" lon="12.258159322599882"><ele>887.5</ele><time>2026-04-25T14:24:24Z</time></trkpt><trkpt lat="46.41597328797987" lon="12.25836199561823"><ele>886.25</ele><time>2026-04-25T14:24:25Z</time></trkpt><trkpt lat="46.415957859072634" lon="12.258564441115299"><ele>885.0</ele><time>2026-04-25T14:24:26Z</time></trkpt><trkpt lat="46.41591327830152" lon="12.258759019438752"><ele>885.0</ele><time>2026-04-25T14:24:27Z</time></trkpt><trkpt lat="46.41583732271179" lon="12.258931986820649"><ele>885.0</ele><time>2026-04-25T14:24:28Z</time></trkpt><trkpt lat="46.41572811945817" lon="12.259074069840217"><ele>885.0</ele><time>2026-04-25T14:24:29Z</time></trkpt><trkpt lat="46.41558630688504" lon="12.259177383437727"><ele>885.0</ele><time>2026-04-25T14:24:30Z</time></trkpt><trkpt lat="46.415429626857076" lon="12.25928545890266"><ele>883.75</ele><time>2026-04-25T14:24:31Z</time></trkpt><trkpt lat="46.4152869937348" lon="12.25938895067894"><ele>882.5</ele><time>2026-04-25T14:24:32Z</time></trkpt><trkpt lat="46.415162561419436" lon="12.259477875917122"><ele>881.25</ele><time>2026-04-25T14:24:33Z</time></trkpt><trkpt lat="46.415051726801664" lon="12.259560164724231"><ele>880.0</ele><time>2026-04-25T14:24:34Z</time></trkpt><trkpt lat="46.41495601025927" lon="12.25965229373138"><ele>881.75</ele><time>2026-04-25T14:24:35Z</time></trkpt><trkpt lat="46.41488573295387" lon="12.259795072384085"><ele>883.5</ele><time>2026-04-25T14:24:36Z</time></trkpt><trkpt lat="46.4148380872626" lon="12.259999674480959"><ele>885.25</ele><time>2026-04-25T14:24:37Z</time></trkpt><trkpt lat="46.414779413515255" lon="12.260229462037312"><ele>887.0</ele><time>2026-04-25T14:24:38Z</time></trkpt><trkpt lat="46.414726837315634" lon="12.260454550799514"><ele>886.0</ele><time>2026-04-25T14:24:39Z</time></trkpt><trkpt lat="46.41467708316331" lon="12.26067020837186"><ele>885.0</ele><time>2026-04-25T14:24:40Z</time></trkpt><trkpt lat="46.414623772727076" lon="12.260888736790987"><ele>884.0</ele><time>2026-04-25T14:24:41Z</time></trkpt><trkpt lat="46.414567581485464" lon="12.261114043634274"><ele>884.0</ele><time>2026-04-25T14:24:42Z</time></trkpt><trkpt lat="46.41451253970805" lon="12.261341826684506"><ele>884.0</ele><time>2026-04-25T14:24:43Z</time></trkpt><trkpt lat="46.414458177551474" lon="12.261564504468854"><ele>884.0</ele><time>2026-04-25T14:24:44Z</time></trkpt><trkpt lat="46.414403189364926" lon="12.26178227912543"><ele>886.0</ele><time>2026-04-25T14:24:45Z</time></trkpt><trkpt lat="46.414350253549955" lon="12.261999744885623"><ele>888.0</ele><time>2026-04-25T14:24:46Z</time></trkpt><trkpt lat="46.41430114771454" lon="12.262218939876933"><ele>890.0</ele><time>2026-04-25T14:24:47Z</time></trkpt><trkpt lat="46.41425664505626" lon="12.262439764387087"><ele>890.0</ele><time>2026-04-25T14:24:48Z</time></trkpt><trkpt lat="46.414223264130676" lon="12.262669296828493"><ele>890.0</ele><time>2026-04-25T14:24:49Z</time></trkpt><trkpt lat="46.41420980024271" lon="12.262901900781754"><ele>890.0</ele><time>2026-04-25T14:24:50Z</time></trkpt><trkpt lat="46.414204610506566" lon="12.263134068321053"><ele>890.0</ele><time>2026-04-25T14:24:51Z</time></trkpt><trkpt lat="46.41420056334386" lon="12.263359515621536"><ele>890.0</ele><time>2026-04-25T14:24:52Z</time></trkpt><trkpt lat="46.41419631226643" lon="12.26358173922266"><ele>890.0</ele><time>2026-04-25T14:24:53Z</time></trkpt><trkpt lat="46.414175882201825" lon="12.263800081021136"><ele>892.0</ele><time>2026-04-25T14:24:54Z</time></trkpt><trkpt lat="46.414121465462024" lon="12.26400821656727"><ele>894.0</ele><time>2026-04-25T14:24:55Z</time></trkpt><trkpt lat="46.414018909119086" lon="12.264202361153185"><ele>896.0</ele><time>2026-04-25T14:24:56Z</time></trkpt><trkpt lat="46.41387748646602" lon="12.264391296791489"><ele>891.6666666666667</ele><time>2026-04-25T14:24:57Z</time></trkpt><trkpt lat="46.41374462454564" lon="12.264588442453535"><ele>887.3333333333333</ele><time>2026-04-25T14:24:58Z</time></trkpt><trkpt lat="46.4136178548771" lon="12.264776839161533"><ele>883.0</ele><time>2026-04-25T14:24:59Z</time></trkpt><trkpt lat="46.41349501333619" lon="12.264959339108312"><ele>883.0</ele><time>2026-04-25T14:25:00Z</time></trkpt><trkpt lat="46.41337263407618" lon="12.265140115597713"><ele>883.0</ele><time>2026-04-25T14:25:01Z</time></trkpt><trkpt lat="46.41325027041514" lon="12.265328451060228"><ele>883.0</ele><time>2026-04-25T14:25:01.999Z</time></trkpt><trkpt lat="46.413137399816854" lon="12.265524698191049"><ele>886.6666666666666</ele><time>2026-04-25T14:25:02.999Z</time></trkpt><trkpt lat="46.41304552293922" lon="12.265735489867058"><ele>890.3333333333333</ele><time>2026-04-25T14:25:03.999Z</time></trkpt><trkpt lat="46.41297529653561" lon="12.265967066348589"><ele>894.0</ele><time>2026-04-25T14:25:04.999Z</time></trkpt><trkpt lat="46.412934771258584" lon="12.266214043793783"><ele>886.3333333333333</ele><time>2026-04-25T14:25:05.999Z</time></trkpt><trkpt lat="46.41291910540345" lon="12.266481346497141"><ele>878.6666666666666</ele><time>2026-04-25T14:25:06.999Z</time></trkpt><trkpt lat="46.41289734706404" lon="12.266765319777985"><ele>871.0</ele><time>2026-04-25T14:25:07.999Z</time></trkpt><trkpt lat="46.41289547349854" lon="12.267055253945115"><ele>874.0</ele><time>2026-04-25T14:25:08.999Z</time></trkpt><trkpt lat="46.412891515468374" lon="12.267360212609313"><ele>877.0</ele><time>2026-04-25T14:25:09.999Z</time></trkpt><trkpt lat="46.41284086574729" lon="12.267672431538614"><ele>880.0</ele><time>2026-04-25T14:25:10.999Z</time></trkpt><trkpt lat="46.41276220432969" lon="12.267977370118155"><ele>882.6666666666666</ele><time>2026-04-25T14:25:11.999Z</time></trkpt><trkpt lat="46.41269855537046" lon="12.26827999448313"><ele>885.3333333333333</ele><time>2026-04-25T14:25:12.999Z</time></trkpt><trkpt lat="46.41264131791725" lon="12.268552134633286"><ele>888.0</ele><time>2026-04-25T14:25:13.999Z</time></trkpt><trkpt lat="46.41258995331681" lon="12.268793617579242"><ele>889.3333333333333</ele><time>2026-04-25T14:25:14.999Z</time></trkpt><trkpt lat="46.41254188483589" lon="12.269023532217721"><ele>890.6666666666666</ele><time>2026-04-25T14:25:15.999Z</time></trkpt><trkpt lat="46.41250730339525" lon="12.269259368986882"><ele>892.0</ele><time>2026-04-25T14:25:16.999Z</time></trkpt><trkpt lat="46.412453337045115" lon="12.269495399421398"><ele>892.0</ele><time>2026-04-25T14:25:17.999Z</time></trkpt><trkpt lat="46.41240509261256" lon="12.269727623217134"><ele>892.0</ele><time>2026-04-25T14:25:18.999Z</time></trkpt><trkpt lat="46.41235776656041" lon="12.26995660093275"><ele>892.0</ele><time>2026-04-25T14:25:19.999Z</time></trkpt><trkpt lat="46.412310032826255" lon="12.27018667877998"><ele>894.3333333333333</ele><time>2026-04-25T14:25:20.999Z</time></trkpt><trkpt lat="46.4122621237" lon="12.270420283769793"><ele>896.6666666666667</ele><time>2026-04-25T14:25:21.999Z</time></trkpt><trkpt lat="46.41221179713731" lon="12.270659326219826"><ele>899.0</ele><time>2026-04-25T14:25:22.999Z</time></trkpt><trkpt lat="46.412161051496206" lon="12.270906459427403"><ele>890.0</ele><time>2026-04-25T14:25:23.999Z</time></trkpt><trkpt lat="46.412106057966625" lon="12.271163801595849"><ele>881.0</ele><time>2026-04-25T14:25:24.999Z</time></trkpt><trkpt lat="46.412049592005175" lon="12.271430809910294"><ele>872.0</ele><time>2026-04-25T14:25:25.999Z</time></trkpt><trkpt lat="46.41199227655894" lon="12.271701732997304"><ele>872.0</ele><time>2026-04-25T14:25:26.999Z</time></trkpt><trkpt lat="46.411937152201865" lon="12.271972540135383"><ele>872.0</ele><time>2026-04-25T14:25:27.999Z</time></trkpt><trkpt lat="46.41187832041815" lon="12.272237426009283"><ele>872.0</ele><time>2026-04-25T14:25:28.999Z</time></trkpt><trkpt lat="46.411796959049575" lon="12.27249828532835"><ele>875.0</ele><time>2026-04-25T14:25:29.999Z</time></trkpt><trkpt lat="46.41168691822567" lon="12.272749050288533"><ele>878.0</ele><time>2026-04-25T14:25:30.999Z</time></trkpt><trkpt lat="46.41157463269753" lon="12.272983636260355"><ele>881.0</ele><time>2026-04-25T14:25:31.999Z</time></trkpt><trkpt lat="46.411470286615334" lon="12.27320793690141"><ele>883.6666666666667</ele><time>2026-04-25T14:25:32.999Z</time></trkpt><trkpt lat="46.41137759103333" lon="12.273414336085947"><ele>886.3333333333333</ele><time>2026-04-25T14:25:34Z</time></trkpt><trkpt lat="46.411292767679605" lon="12.273606201122352"><ele>889.0</ele><time>2026-04-25T14:25:35Z</time></trkpt><trkpt lat="46.4112135543612" lon="12.273793261243815"><ele>884.75</ele><time>2026-04-25T14:25:36Z</time></trkpt><trkpt lat="46.41115395378852" lon="12.273991099579336"><ele>880.5</ele><time>2026-04-25T14:25:37Z</time></trkpt><trkpt lat="46.411126847124756" lon="12.27420216598093"><ele>876.25</ele><time>2026-04-25T14:25:38Z</time></trkpt><trkpt lat="46.41113103648549" lon="12.274417082669805"><ele>872.0</ele><time>2026-04-25T14:25:39Z</time></trkpt><trkpt lat="46.411174631501176" lon="12.274640999744857"><ele>869.3333333333334</ele><time>2026-04-25T14:25:40Z</time></trkpt><trkpt lat="46.41126241658784" lon="12.274857105612984"><ele>866.6666666666667</ele><time>2026-04-25T14:25:41Z</time></trkpt><trkpt lat="46.41138761120268" lon="12.275046356618795"><ele>864.0</ele><time>2026-04-25T14:25:42Z</time></trkpt><trkpt lat="46.41154176784545" lon="12.275184980902424"><ele>870.6666666666667</ele><time>2026-04-25T14:25:43Z</time></trkpt><trkpt lat="46.41172030032681" lon="12.275275027749979"><ele>877.3333333333334</ele><time>2026-04-25T14:25:44Z</time></trkpt><trkpt lat="46.41191656430475" lon="12.275351437601932"><ele>884.0</ele><time>2026-04-25T14:25:45Z</time></trkpt><trkpt lat="46.41210014386535" lon="12.275453639116579"><ele>883.3333333333334</ele><time>2026-04-25T14:25:46Z</time></trkpt><trkpt lat="46.41227036107073" lon="12.27554281195436"><ele>882.6666666666667</ele><time>2026-04-25T14:25:47Z</time></trkpt><trkpt lat="46.412430531263595" lon="12.275642203848967"><ele>882.0</ele><time>2026-04-25T14:25:48Z</time></trkpt><trkpt lat="46.412582254692786" lon="12.275772519974916"><ele>882.0</ele><time>2026-04-25T14:25:49Z</time></trkpt><trkpt lat="46.41272380237498" lon="12.275933537293803"><ele>882.0</ele><time>2026-04-25T14:25:50Z</time></trkpt><trkpt lat="46.41285745634586" lon="12.276111373607066"><ele>882.0</ele><time>2026-04-25T14:25:51Z</time></trkpt><trkpt lat="46.41298618164807" lon="12.276281915815943"><ele>884.0</ele><time>2026-04-25T14:25:52Z</time></trkpt><trkpt lat="46.41308710443783" lon="12.276458337870508"><ele>886.0</ele><time>2026-04-25T14:25:53Z</time></trkpt><trkpt lat="46.413191730493324" lon="12.276611868634031"><ele>888.0</ele><time>2026-04-25T14:25:54Z</time></trkpt><trkpt lat="46.41329845534891" lon="12.276745880408958"><ele>890.0</ele><time>2026-04-25T14:25:55Z</time></trkpt><trkpt lat="46.41335445054288" lon="12.276931515691412"><ele>890.0</ele><time>2026-04-25T14:25:56Z</time></trkpt><trkpt lat="46.41338483716694" lon="12.277122089612579"><ele>890.0</ele><time>2026-04-25T14:25:57Z</time></trkpt><trkpt lat="46.41340272269124" lon="12.277314340056812"><ele>890.0</ele><time>2026-04-25T14:25:58Z</time></trkpt><trkpt lat="46.41336234269074" lon="12.277508835691497"><ele>890.0</ele><time>2026-04-25T14:25:59Z</time></trkpt><trkpt lat="46.41327683857525" lon="12.277668401107872"><ele>888.0</ele><time>2026-04-25T14:26:00Z</time></trkpt><trkpt lat="46.41315294276784" lon="12.277794629140905"><ele>886.0</ele><time>2026-04-25T14:26:01Z</time></trkpt><trkpt lat="46.41299667143641" lon="12.277868984870556"><ele>884.0</ele><time>2026-04-25T14:26:02Z</time></trkpt><trkpt lat="46.41281490005449" lon="12.277885650261759"><ele>881.3333333333334</ele><time>2026-04-25T14:26:03Z</time></trkpt><trkpt lat="46.41260800046102" lon="12.277873311509481"><ele>878.6666666666667</ele><time>2026-04-25T14:26:04Z</time></trkpt><trkpt lat="46.41241670389894" lon="12.277874478594029"><ele>876.0</ele><time>2026-04-25T14:26:05Z</time></trkpt><trkpt lat="46.41224990404563" lon="12.27787153449605"><ele>877.3333333333333</ele><time>2026-04-25T14:26:06Z</time></trkpt><trkpt lat="46.41208664939039" lon="12.27787016870041"><ele>878.6666666666666</ele><time>2026-04-25T14:26:07Z</time></trkpt><trkpt lat="46.41192313576557" lon="12.277867093169688"><ele>880.0</ele><time>2026-04-25T14:26:08Z</time></trkpt><trkpt lat="46.4117534484846" lon="12.277823510950158"><ele>880.0</ele><time>2026-04-25T14:26:09Z</time></trkpt><trkpt lat="46.411580086381775" lon="12.277724983691915"><ele>880.0</ele><time>2026-04-25T14:26:10Z</time></trkpt><trkpt lat="46.411416617701725" lon="12.277576595595235"><ele>880.0</ele><time>2026-04-25T14:26:11Z</time></trkpt><trkpt lat="46.41126357998888" lon="12.27743737696208"><ele>881.0</ele><time>2026-04-25T14:26:12Z</time></trkpt><trkpt lat="46.41109965335401" lon="12.277342221545096"><ele>882.0</ele><time>2026-04-25T14:26:13Z</time></trkpt><trkpt lat="46.410924894468764" lon="12.277269492428491"><ele>883.0</ele><time>2026-04-25T14:26:14Z</time></trkpt><trkpt lat="46.41076025830736" lon="12.277220320222165"><ele>880.0</ele><time>2026-04-25T14:26:15Z</time></trkpt><trkpt lat="46.41061436104616" lon="12.277185579739957"><ele>877.0</ele><time>2026-04-25T14:26:16Z</time></trkpt><trkpt lat="46.410480084596394" lon="12.277174743129176"><ele>874.0</ele><time>2026-04-25T14:26:17Z</time></trkpt><trkpt lat="46.410356790336" lon="12.277203545142727"><ele>871.0</ele><time>2026-04-25T14:26:18Z</time></trkpt><trkpt lat="46.41023107301379" lon="12.277290986931034"><ele>871.0</ele><time>2026-04-25T14:26:19Z</time></trkpt><trkpt lat="46.4101224056603" lon="12.277445196513867"><ele>871.0</ele><time>2026-04-25T14:26:20Z</time></trkpt><trkpt lat="46.410018769654705" lon="12.277663310571194"><ele>871.0</ele><time>2026-04-25T14:26:21Z</time></trkpt><trkpt lat="46.40992036314293" lon="12.277887656147682"><ele>871.0</ele><time>2026-04-25T14:26:22Z</time></trkpt><trkpt lat="46.40984677587357" lon="12.278078352258415"><ele>871.0</ele><time>2026-04-25T14:26:23Z</time></trkpt><trkpt lat="46.409806489267" lon="12.278319168186352"><ele>871.0</ele><time>2026-04-25T14:26:24Z</time></trkpt><trkpt lat="46.40980712971708" lon="12.278602178509761"><ele>874.6666666666666</ele><time>2026-04-25T14:26:25Z</time></trkpt><trkpt lat="46.40981302135681" lon="12.278880930219906"><ele>878.3333333333333</ele><time>2026-04-25T14:26:26Z</time></trkpt><trkpt lat="46.40982594707727" lon="12.279112195138255"><ele>882.0</ele><time>2026-04-25T14:26:27Z</time></trkpt><trkpt lat="46.40984112548565" lon="12.279309812410391"><ele>881.2</ele><time>2026-04-25T14:26:28Z</time></trkpt><trkpt lat="46.40985208681242" lon="12.279481761782407"><ele>880.4000000000001</ele><time>2026-04-25T14:26:29Z</time></trkpt><trkpt lat="46.40986741613725" lon="12.279637864960495"><ele>879.5999999999999</ele><time>2026-04-25T14:26:30Z</time></trkpt><trkpt lat="46.40982737169903" lon="12.279762368450605"><ele>878.8</ele><time>2026-04-25T14:26:31Z</time></trkpt><trkpt lat="46.40973252575181" lon="12.27985758594927"><ele>878.0</ele><time>2026-04-25T14:26:32Z</time></trkpt><trkpt lat="46.40959929338595" lon="12.279866827814596"><ele>878.0</ele><time>2026-04-25T14:26:33Z</time></trkpt><trkpt lat="46.409450667366315" lon="12.27982410422757"><ele>878.0</ele><time>2026-04-25T14:26:34Z</time></trkpt><trkpt lat="46.40931421721628" lon="12.279846183736687"><ele>878.0</ele><time>2026-04-25T14:26:35Z</time></trkpt><trkpt lat="46.409182390061076" lon="12.279932239136139"><ele>878.0</ele><time>2026-04-25T14:26:36Z</time></trkpt><trkpt lat="46.409050609354445" lon="12.280105205601867"><ele>878.0</ele><time>2026-04-25T14:26:37Z</time></trkpt><trkpt lat="46.40890605477417" lon="12.280280531647175"><ele>878.0</ele><time>2026-04-25T14:26:38Z</time></trkpt><trkpt lat="46.408792349972316" lon="12.280463491633297"><ele>878.0</ele><time>2026-04-25T14:26:39Z</time></trkpt><trkpt lat="46.40866441431091" lon="12.280619093088983"><ele>875.0</ele><time>2026-04-25T14:26:40Z</time></trkpt><trkpt lat="46.40855126454848" lon="12.280790432621874"><ele>872.0</ele><time>2026-04-25T14:26:41Z</time></trkpt><trkpt lat="46.408458747890094" lon="12.280992195960986"><ele>869.0</ele><time>2026-04-25T14:26:42Z</time></trkpt><trkpt lat="46.40838777138847" lon="12.28122031370414"><ele>877.3333333333334</ele><time>2026-04-25T14:26:43Z</time></trkpt><trkpt lat="46.40832733593584" lon="12.281451731510375"><ele>885.6666666666667</ele><time>2026-04-25T14:26:44Z</time></trkpt><trkpt lat="46.408235757995854" lon="12.281638370224131"><ele>894.0</ele><time>2026-04-25T14:26:45Z</time></trkpt><trkpt lat="46.40810426718669" lon="12.281782852258068"><ele>876.0</ele><time>2026-04-25T14:26:46Z</time></trkpt><trkpt lat="46.407971826317976" lon="12.281912542643546"><ele>858.0</ele><time>2026-04-25T14:26:47Z</time></trkpt><trkpt lat="46.40782339096195" lon="12.282026765870908"><ele>840.0</ele><time>2026-04-25T14:26:48Z</time></trkpt><trkpt lat="46.40765957239019" lon="12.282106887263147"><ele>840.0</ele><time>2026-04-25T14:26:49Z</time></trkpt><trkpt lat="46.407522793305645" lon="12.282189899332824"><ele>840.0</ele><time>2026-04-25T14:26:50Z</time></trkpt><trkpt lat="46.407396987603214" lon="12.282289465891166"><ele>840.0</ele><time>2026-04-25T14:26:51Z</time></trkpt><trkpt lat="46.40728017337598" lon="12.282412221016465"><ele>840.0</ele><time>2026-04-25T14:26:52Z</time></trkpt><trkpt lat="46.40719132489457" lon="12.282573001322673"><ele>842.0</ele><time>2026-04-25T14:26:53Z</time></trkpt><trkpt lat="46.40711337515686" lon="12.282757337764998"><ele>844.0</ele><time>2026-04-25T14:26:54Z</time></trkpt><trkpt lat="46.40707053595256" lon="12.282980135877954"><ele>846.0</ele><time>2026-04-25T14:26:55Z</time></trkpt><trkpt lat="46.40705079056576" lon="12.283225973106926"><ele>846.0</ele><time>2026-04-25T14:26:56Z</time></trkpt><trkpt lat="46.40700761295395" lon="12.283459646171083"><ele>846.0</ele><time>2026-04-25T14:26:57Z</time></trkpt><trkpt lat="46.4069250282115" lon="12.28368615021052"><ele>846.0</ele><time>2026-04-25T14:26:58Z</time></trkpt><trkpt lat="46.40682810674399" lon="12.283905483614996"><ele>851.0</ele><time>2026-04-25T14:26:59Z</time></trkpt><trkpt lat="46.40674182624883" lon="12.284114156101854"><ele>856.0</ele><time>2026-04-25T14:27:00Z</time></trkpt><trkpt lat="46.406685917409746" lon="12.284339541482622"><ele>861.0</ele><time>2026-04-25T14:27:01Z</time></trkpt><trkpt lat="46.40666934985916" lon="12.284598601643994"><ele>862.3333333333333</ele><time>2026-04-25T14:27:02Z</time></trkpt><trkpt lat="46.40666355245475" lon="12.284899731993951"><ele>863.6666666666666</ele><time>2026-04-25T14:27:03Z</time></trkpt><trkpt lat="46.40667741813818" lon="12.28521222833757"><ele>865.0</ele><time>2026-04-25T14:27:04Z</time></trkpt><trkpt lat="46.40669207372678" lon="12.285513482040253"><ele>863.6666666666666</ele><time>2026-04-25T14:27:05Z</time></trkpt><trkpt lat="46.40670645149431" lon="12.285799998709518"><ele>862.3333333333333</ele><time>2026-04-25T14:27:06Z</time></trkpt><trkpt lat="46.406721601234594" lon="12.286079948132754"><ele>861.0</ele><time>2026-04-25T14:27:07Z</time></trkpt><trkpt lat="46.40673718656209" lon="12.286367946565857"><ele>861.6666666666667</ele><time>2026-04-25T14:27:08Z</time></trkpt><trkpt lat="46.40675213565942" lon="12.286644188341551"><ele>862.3333333333334</ele><time>2026-04-25T14:27:09Z</time></trkpt><trkpt lat="46.40678242696301" lon="12.28690791365214"><ele>863.0</ele><time>2026-04-25T14:27:09.999Z</time></trkpt><trkpt lat="46.40679637278662" lon="12.287165172881155"><ele>862.6666666666667</ele><time>2026-04-25T14:27:10.999Z</time></trkpt><trkpt lat="46.40679426663032" lon="12.287422601321493"><ele>862.3333333333333</ele><time>2026-04-25T14:27:11.999Z</time></trkpt><trkpt lat="46.40683874279271" lon="12.287676620186808"><ele>862.0</ele><time>2026-04-25T14:27:12.999Z</time></trkpt><trkpt lat="46.40687341933575" lon="12.287941537018495"><ele>858.6666666666666</ele><time>2026-04-25T14:27:13.999Z</time></trkpt><trkpt lat="46.40692767246342" lon="12.288212643938262"><ele>855.3333333333333</ele><time>2026-04-25T14:27:14.999Z</time></trkpt><trkpt lat="46.406981763116576" lon="12.288476664543063"><ele>852.0</ele><time>2026-04-25T14:27:15.999Z</time></trkpt><trkpt lat="46.40703283273086" lon="12.288735879685316"><ele>850.3333333333333</ele><time>2026-04-25T14:27:16.999Z</time></trkpt><trkpt lat="46.40708335386885" lon="12.28899291146599"><ele>848.6666666666666</ele><time>2026-04-25T14:27:17.999Z</time></trkpt><trkpt lat="46.40713525544725" lon="12.289255180118413"><ele>847.0</ele><time>2026-04-25T14:27:18.999Z</time></trkpt><trkpt lat="46.40718720107423" lon="12.28951141255089"><ele>856.6666666666666</ele><time>2026-04-25T14:27:19.999Z</time></trkpt><trkpt lat="46.40724135211991" lon="12.289761757314134"><ele>866.3333333333333</ele><time>2026-04-25T14:27:20.999Z</time></trkpt><trkpt lat="46.40731033736777" lon="12.290006282742711"><ele>876.0</ele><time>2026-04-25T14:27:21.999Z</time></trkpt><trkpt lat="46.40738862674323" lon="12.290246385235065"><ele>876.0</ele><time>2026-04-25T14:27:22.999Z</time></trkpt><trkpt lat="46.40746872994401" lon="12.290482503892461"><ele>876.0</ele><time>2026-04-25T14:27:23.999Z</time></trkpt><trkpt lat="46.40754809896137" lon="12.290712609100062"><ele>876.0</ele><time>2026-04-25T14:27:24.999Z</time></trkpt><trkpt lat="46.407627945208155" lon="12.290940360653064"><ele>872.3333333333333</ele><time>2026-04-25T14:27:25.999Z</time></trkpt><trkpt lat="46.40770507529671" lon="12.291164589135503"><ele>868.6666666666666</ele><time>2026-04-25T14:27:26.999Z</time></trkpt><trkpt lat="46.407782956257975" lon="12.291391204397895"><ele>865.0</ele><time>2026-04-25T14:27:27.999Z</time></trkpt><trkpt lat="46.407861088507204" lon="12.291617861768316"><ele>861.3333333333333</ele><time>2026-04-25T14:27:28.999Z</time></trkpt><trkpt lat="46.40793210206606" lon="12.29185575389224"><ele>857.6666666666667</ele><time>2026-04-25T14:27:29.999Z</time></trkpt><trkpt lat="46.4079703213356" lon="12.292124636924447"><ele>854.0</ele><time>2026-04-25T14:27:30.999Z</time></trkpt><trkpt lat="46.40802438703734" lon="12.292426684877098"><ele>859.3333333333334</ele><time>2026-04-25T14:27:31.999Z</time></trkpt><trkpt lat="46.40807138382609" lon="12.29276189095717"><ele>864.6666666666667</ele><time>2026-04-25T14:27:32.999Z</time></trkpt><trkpt lat="46.4080938647243" lon="12.293055373121941"><ele>870.0</ele><time>2026-04-25T14:27:33.999Z</time></trkpt><trkpt lat="46.408127725212445" lon="12.293318855851231"><ele>870.0</ele><time>2026-04-25T14:27:34.999Z</time></trkpt><trkpt lat="46.40816110650642" lon="12.293569464456262"><ele>870.0</ele><time>2026-04-25T14:27:35.999Z</time></trkpt><trkpt lat="46.40820713718213" lon="12.293807992183375"><ele>870.0</ele><time>2026-04-25T14:27:36.999Z</time></trkpt><trkpt lat="46.40823683350788" lon="12.294040899598977"><ele>869.3333333333333</ele><time>2026-04-25T14:27:37.999Z</time></trkpt><trkpt lat="46.40826672670044" lon="12.294282345364065"><ele>868.6666666666666</ele><time>2026-04-25T14:27:38.999Z</time></trkpt><trkpt lat="46.40835161277702" lon="12.294504283491424"><ele>868.0</ele><time>2026-04-25T14:27:40Z</time></trkpt><trkpt lat="46.408423884043" lon="12.294716078161787"><ele>865.0</ele><time>2026-04-25T14:27:41Z</time></trkpt><trkpt lat="46.40850766118789" lon="12.294917801701276"><ele>862.0</ele><time>2026-04-25T14:27:42Z</time></trkpt><trkpt lat="46.408615057263404" lon="12.295106474430426"><ele>859.0</ele><time>2026-04-25T14:27:43Z</time></trkpt><trkpt lat="46.40873468411465" lon="12.295281503193706"><ele>860.0</ele><time>2026-04-25T14:27:44Z</time></trkpt><trkpt lat="46.408848757329245" lon="12.295450555186086"><ele>861.0</ele><time>2026-04-25T14:27:45Z</time></trkpt><trkpt lat="46.40895004227338" lon="12.29560572551419"><ele>862.0</ele><time>2026-04-25T14:27:46Z</time></trkpt><trkpt lat="46.40904624810169" lon="12.295742710874636"><ele>863.0</ele><time>2026-04-25T14:27:47Z</time></trkpt><trkpt lat="46.40912715011386" lon="12.295891545369852"><ele>863.0</ele><time>2026-04-25T14:27:48Z</time></trkpt><trkpt lat="46.40920921734376" lon="12.296014271367952"><ele>863.0</ele><time>2026-04-25T14:27:49Z</time></trkpt><trkpt lat="46.409272417201166" lon="12.296148239969277"><ele>863.0</ele><time>2026-04-25T14:27:50Z</time></trkpt><trkpt lat="46.409289300880786" lon="12.296320662239452"><ele>863.0</ele><time>2026-04-25T14:27:51Z</time></trkpt><trkpt lat="46.40929217729482" lon="12.296516388335638"><ele>861.75</ele><time>2026-04-25T14:27:52Z</time></trkpt><trkpt lat="46.409313625175756" lon="12.296719057617462"><ele>860.5</ele><time>2026-04-25T14:27:53Z</time></trkpt><trkpt lat="46.40932450554976" lon="12.296907433188672"><ele>859.25</ele><time>2026-04-25T14:27:54Z</time></trkpt><trkpt lat="46.40934110733533" lon="12.297084211224046"><ele>858.0</ele><time>2026-04-25T14:27:55Z</time></trkpt><trkpt lat="46.409362117202235" lon="12.297255817962009"><ele>857.8</ele><time>2026-04-25T14:27:56Z</time></trkpt><trkpt lat="46.409359460198694" lon="12.297430494503883"><ele>857.5999999999999</ele><time>2026-04-25T14:27:57Z</time></trkpt><trkpt lat="46.409380894785514" lon="12.297587610528774"><ele>857.4000000000001</ele><time>2026-04-25T14:27:58Z</time></trkpt><trkpt lat="46.40940029512477" lon="12.29773523732311"><ele>857.2</ele><time>2026-04-25T14:27:59Z</time></trkpt><trkpt lat="46.40941940920505" lon="12.297884279158703"><ele>857.0</ele><time>2026-04-25T14:28:00Z</time></trkpt><trkpt lat="46.409436747689156" lon="12.298020435755406"><ele>856.8</ele><time>2026-04-25T14:28:01Z</time></trkpt><trkpt lat="46.409453713770475" lon="12.298143845273088"><ele>856.6</ele><time>2026-04-25T14:28:02Z</time></trkpt><trkpt lat="46.40947188850186" lon="12.298275238331863"><ele>856.3999999999999</ele><time>2026-04-25T14:28:03Z</time></trkpt><trkpt lat="46.409490749489365" lon="12.29841085236063"><ele>856.1999999999999</ele><time>2026-04-25T14:28:04Z</time></trkpt><trkpt lat="46.40951034971941" lon="12.298550339671127"><ele>856.0</ele><time>2026-04-25T14:28:05Z</time></trkpt><trkpt lat="46.40953109280574" lon="12.298694284330765"><ele>856.0</ele><time>2026-04-25T14:28:06Z</time></trkpt><trkpt lat="46.40955277202502" lon="12.298842235510085"><ele>855.9999999999999</ele><time>2026-04-25T14:28:07Z</time></trkpt><trkpt lat="46.409579937118366" lon="12.299001432401033"><ele>855.9999999999999</ele><time>2026-04-25T14:28:08Z</time></trkpt><trkpt lat="46.409614128660984" lon="12.299161096400836"><ele>856.0</ele><time>2026-04-25T14:28:09Z</time></trkpt><trkpt lat="46.40965306033776" lon="12.2993153505087"><ele>856.0</ele><time>2026-04-25T14:28:10Z</time></trkpt><trkpt lat="46.40971442279608" lon="12.299468337796528"><ele>857.25</ele><time>2026-04-25T14:28:11Z</time></trkpt><trkpt lat="46.40978224153656" lon="12.29961990955298"><ele>858.5</ele><time>2026-04-25T14:28:12Z</time></trkpt><trkpt lat="46.40984888955633" lon="12.299775671232029"><ele>859.75</ele><time>2026-04-25T14:28:13Z</time></trkpt><trkpt lat="46.40991688012561" lon="12.299936483924265"><ele>861.0</ele><time>2026-04-25T14:28:14Z</time></trkpt><trkpt lat="46.40998593617807" lon="12.300099929774516"><ele>861.0</ele><time>2026-04-25T14:28:15Z</time></trkpt><trkpt lat="46.41006949084101" lon="12.300256345952384"><ele>861.0</ele><time>2026-04-25T14:28:16Z</time></trkpt><trkpt lat="46.41012948227569" lon="12.300428533631752"><ele>861.0</ele><time>2026-04-25T14:28:17Z</time></trkpt><trkpt lat="46.4101874011545" lon="12.30060353716707"><ele>861.0</ele><time>2026-04-25T14:28:18Z</time></trkpt><trkpt lat="46.41022763116603" lon="12.30079746184062"><ele>859.0</ele><time>2026-04-25T14:28:19Z</time></trkpt><trkpt lat="46.41028148603207" lon="12.300992149926374"><ele>857.0</ele><time>2026-04-25T14:28:20Z</time></trkpt><trkpt lat="46.41033464412914" lon="12.301184314914499"><ele>855.0</ele><time>2026-04-25T14:28:21Z</time></trkpt><trkpt lat="46.410385912306715" lon="12.301372720512273"><ele>853.0</ele><time>2026-04-25T14:28:22Z</time></trkpt><trkpt lat="46.410438399498645" lon="12.301565686828326"><ele>854.5</ele><time>2026-04-25T14:28:23Z</time></trkpt><trkpt lat="46.41049194760592" lon="12.301759816053288"><ele>856.0</ele><time>2026-04-25T14:28:24Z</time></trkpt><trkpt lat="46.41054747426526" lon="12.301959816412413"><ele>857.5</ele><time>2026-04-25T14:28:25Z</time></trkpt><trkpt lat="46.41061526763327" lon="12.302146707170497"><ele>859.0</ele><time>2026-04-25T14:28:26Z</time></trkpt><trkpt lat="46.41066275659486" lon="12.302335220749095"><ele>859.0</ele><time>2026-04-25T14:28:27Z</time></trkpt><trkpt lat="46.410719996270565" lon="12.302521305076715"><ele>859.0</ele><time>2026-04-25T14:28:28Z</time></trkpt><trkpt lat="46.4107854841007" lon="12.302722009490706"><ele>859.0</ele><time>2026-04-25T14:28:29Z</time></trkpt><trkpt lat="46.41089732425648" lon="12.302878963553695"><ele>859.0</ele><time>2026-04-25T14:28:30Z</time></trkpt><trkpt lat="46.41100516136865" lon="12.303045413706478"><ele>855.3333333333333</ele><time>2026-04-25T14:28:31Z</time></trkpt><trkpt lat="46.411096240659546" lon="12.303225021852654"><ele>851.6666666666667</ele><time>2026-04-25T14:28:32Z</time></trkpt><trkpt lat="46.411206713549554" lon="12.303368233988039"><ele>848.0</ele><time>2026-04-25T14:28:33Z</time></trkpt><trkpt lat="46.411294468276104" lon="12.303541035555856"><ele>851.5</ele><time>2026-04-25T14:28:34Z</time></trkpt><trkpt lat="46.41139054281866" lon="12.303693348852164"><ele>855.0</ele><time>2026-04-25T14:28:35Z</time></trkpt><trkpt lat="46.41149641819694" lon="12.30382756333864"><ele>858.5</ele><time>2026-04-25T14:28:36Z</time></trkpt><trkpt lat="46.4115825581728" lon="12.303997726885948"><ele>862.0</ele><time>2026-04-25T14:28:37Z</time></trkpt><trkpt lat="46.41165277907317" lon="12.304197084726496"><ele>862.0</ele><time>2026-04-25T14:28:38Z</time></trkpt><trkpt lat="46.41170627105498" lon="12.304406818238414"><ele>862.0</ele><time>2026-04-25T14:28:39Z</time></trkpt><trkpt lat="46.41173495374663" lon="12.304621531764198"><ele>862.0</ele><time>2026-04-25T14:28:40Z</time></trkpt><trkpt lat="46.411794179532464" lon="12.304818299304879"><ele>861.25</ele><time>2026-04-25T14:28:41Z</time></trkpt><trkpt lat="46.41183830283628" lon="12.305015488879532"><ele>860.5</ele><time>2026-04-25T14:28:42Z</time></trkpt><trkpt lat="46.41187334746091" lon="12.305209240203308"><ele>859.75</ele><time>2026-04-25T14:28:43Z</time></trkpt><trkpt lat="46.41188676868802" lon="12.305421200069986"><ele>859.0</ele><time>2026-04-25T14:28:44Z</time></trkpt><trkpt lat="46.41186584802028" lon="12.305626024670486"><ele>857.25</ele><time>2026-04-25T14:28:45Z</time></trkpt><trkpt lat="46.41182871846998" lon="12.305827276597945"><ele>855.5</ele><time>2026-04-25T14:28:46Z</time></trkpt><trkpt lat="46.411815376102794" lon="12.306028174260318"><ele>853.75</ele><time>2026-04-25T14:28:47Z</time></trkpt><trkpt lat="46.41181687574534" lon="12.30622493562231"><ele>852.0</ele><time>2026-04-25T14:28:48Z</time></trkpt><trkpt lat="46.4118221171531" lon="12.306431302775453"><ele>852.0</ele><time>2026-04-25T14:28:49Z</time></trkpt><trkpt lat="46.411837226988155" lon="12.30664029090384"><ele>852.0</ele><time>2026-04-25T14:28:50Z</time></trkpt><trkpt lat="46.41186067675119" lon="12.306854998116087"><ele>852.0</ele><time>2026-04-25T14:28:51Z</time></trkpt><trkpt lat="46.41188970327896" lon="12.30707944381132"><ele>850.6666666666667</ele><time>2026-04-25T14:28:52Z</time></trkpt><trkpt lat="46.411920782345064" lon="12.30731385268385"><ele>849.3333333333334</ele><time>2026-04-25T14:28:53Z</time></trkpt><trkpt lat="46.41194816665766" lon="12.307560964656954"><ele>848.0</ele><time>2026-04-25T14:28:54Z</time></trkpt><trkpt lat="46.4119787496493" lon="12.307818092489935"><ele>848.0</ele><time>2026-04-25T14:28:55Z</time></trkpt><trkpt lat="46.412012644546564" lon="12.308070932274605"><ele>848.0</ele><time>2026-04-25T14:28:56Z</time></trkpt><trkpt lat="46.41204536180857" lon="12.308320120083103"><ele>848.0</ele><time>2026-04-25T14:28:57Z</time></trkpt><trkpt lat="46.41207626168034" lon="12.308565910276506"><ele>845.0</ele><time>2026-04-25T14:28:58Z</time></trkpt><trkpt lat="46.41211180116079" lon="12.308806578650863"><ele>842.0</ele><time>2026-04-25T14:28:59Z</time></trkpt><trkpt lat="46.41216606453656" lon="12.309039143235566"><ele>839.0</ele><time>2026-04-25T14:29:00Z</time></trkpt><trkpt lat="46.41224658109733" lon="12.3092535616451"><ele>844.3333333333334</ele><time>2026-04-25T14:29:01Z</time></trkpt><trkpt lat="46.41233652303304" lon="12.309460650677785"><ele>849.6666666666667</ele><time>2026-04-25T14:29:02Z</time></trkpt><trkpt lat="46.41240861014063" lon="12.309654068801578"><ele>855.0</ele><time>2026-04-25T14:29:03Z</time></trkpt><trkpt lat="46.412464706454784" lon="12.309854057794688"><ele>855.0</ele><time>2026-04-25T14:29:04Z</time></trkpt><trkpt lat="46.41249973641262" lon="12.310073820236003"><ele>855.0</ele><time>2026-04-25T14:29:05Z</time></trkpt><trkpt lat="46.41252719792009" lon="12.310298688225704"><ele>855.0</ele><time>2026-04-25T14:29:06Z</time></trkpt><trkpt lat="46.41258703248896" lon="12.31050241844131"><ele>851.25</ele><time>2026-04-25T14:29:07Z</time></trkpt><trkpt lat="46.412676991802165" lon="12.310685566827775"><ele>847.5</ele><time>2026-04-25T14:29:08Z</time></trkpt><trkpt lat="46.41275719939027" lon="12.310855147721742"><ele>843.75</ele><time>2026-04-25T14:29:08.999Z</time></trkpt><trkpt lat="46.412818087983496" lon="12.311028858846539"><ele>840.0</ele><time>2026-04-25T14:29:09.999Z</time></trkpt><trkpt lat="46.41286340386868" lon="12.311206176698732"><ele>840.0</ele><time>2026-04-25T14:29:10.999Z</time></trkpt><trkpt lat="46.412887385684975" lon="12.311398002117638"><ele>840.0</ele><time>2026-04-25T14:29:11.999Z</time></trkpt><trkpt lat="46.412891903786594" lon="12.311581310923144"><ele>840.0</ele><time>2026-04-25T14:29:12.999Z</time></trkpt><trkpt lat="46.4128927756217" lon="12.311748699259024"><ele>840.0</ele><time>2026-04-25T14:29:13.999Z</time></trkpt><trkpt lat="46.412897698459766" lon="12.31190363987237"><ele>841.8</ele><time>2026-04-25T14:29:14.999Z</time></trkpt><trkpt lat="46.412902037634275" lon="12.312050392637552"><ele>843.6</ele><time>2026-04-25T14:29:15.999Z</time></trkpt><trkpt lat="46.412912959118735" lon="12.312195912596321"><ele>845.4000000000001</ele><time>2026-04-25T14:29:16.999Z</time></trkpt><trkpt lat="46.41294348004564" lon="12.312341581195248"><ele>847.2</ele><time>2026-04-25T14:29:17.999Z</time></trkpt><trkpt lat="46.41299988445563" lon="12.312476462098504"><ele>849.0</ele><time>2026-04-25T14:29:18.999Z</time></trkpt><trkpt lat="46.41307535739449" lon="12.312595542275682"><ele>849.0</ele><time>2026-04-25T14:29:19.999Z</time></trkpt><trkpt lat="46.41315654172162" lon="12.312711685315163"><ele>849.0</ele><time>2026-04-25T14:29:20.999Z</time></trkpt><trkpt lat="46.41324019609872" lon="12.312831048527212"><ele>849.0</ele><time>2026-04-25T14:29:21.999Z</time></trkpt><trkpt lat="46.413328901592735" lon="12.312945949707547"><ele>849.0</ele><time>2026-04-25T14:29:22.999Z</time></trkpt><trkpt lat="46.41342790423428" lon="12.313044401165069"><ele>846.25</ele><time>2026-04-25T14:29:23.999Z</time></trkpt><trkpt lat="46.413540800665345" lon="12.313109011118845"><ele>843.5</ele><time>2026-04-25T14:29:24.999Z</time></trkpt><trkpt lat="46.41366500716095" lon="12.313132954815163"><ele>840.75</ele><time>2026-04-25T14:29:25.999Z</time></trkpt><trkpt lat="46.413793839255874" lon="12.31313448021643"><ele>838.0</ele><time>2026-04-25T14:29:26.999Z</time></trkpt><trkpt lat="46.413929779996266" lon="12.313129596535282"><ele>838.0</ele><time>2026-04-25T14:29:27.999Z</time></trkpt><trkpt lat="46.414070892077866" lon="12.313131516652314"><ele>838.0</ele><time>2026-04-25T14:29:28.999Z</time></trkpt><trkpt lat="46.414203748388374" lon="12.313130787687935"><ele>838.0</ele><time>2026-04-25T14:29:29.999Z</time></trkpt><trkpt lat="46.414328644430476" lon="12.313103848345573"><ele>838.0</ele><time>2026-04-25T14:29:30.999Z</time></trkpt><trkpt lat="46.41444520530434" lon="12.313030369213605"><ele>840.25</ele><time>2026-04-25T14:29:31.999Z</time></trkpt><trkpt lat="46.41455082455587" lon="12.312922704678908"><ele>842.5</ele><time>2026-04-25T14:29:32.999Z</time></trkpt><trkpt lat="46.41464960293578" lon="12.312802017237203"><ele>844.75</ele><time>2026-04-25T14:29:33.999Z</time></trkpt><trkpt lat="46.414749050667524" lon="12.312687480952"><ele>847.0</ele><time>2026-04-25T14:29:34.999Z</time></trkpt><trkpt lat="46.414841188172495" lon="12.312584369295955"><ele>847.0</ele><time>2026-04-25T14:29:35.999Z</time></trkpt><trkpt lat="46.41492931988578" lon="12.31248007261521"><ele>847.0</ele><time>2026-04-25T14:29:36.999Z</time></trkpt><trkpt lat="46.415016149487734" lon="12.312366831545283"><ele>847.0</ele><time>2026-04-25T14:29:37.999Z</time></trkpt><trkpt lat="46.41508773308264" lon="12.312230768191258"><ele>847.0</ele><time>2026-04-25T14:29:38.999Z</time></trkpt><trkpt lat="46.415147480540945" lon="12.312071896379154"><ele>853.75</ele><time>2026-04-25T14:29:39.999Z</time></trkpt><trkpt lat="46.415199965973855" lon="12.311894762871269"><ele>860.5</ele><time>2026-04-25T14:29:40.999Z</time></trkpt><trkpt lat="46.41524406933476" lon="12.311701057146141"><ele>867.25</ele><time>2026-04-25T14:29:41.999Z</time></trkpt><trkpt lat="46.41529471565396" lon="12.311505424479003"><ele>874.0</ele><time>2026-04-25T14:29:42.999Z</time></trkpt><trkpt lat="46.41537773776582" lon="12.311325213278808"><ele>880.0</ele><time>2026-04-25T14:29:43.999Z</time></trkpt><trkpt lat="46.41547081214729" lon="12.311151161180847"><ele>886.0</ele><time>2026-04-25T14:29:44.999Z</time></trkpt><trkpt lat="46.41555896083601" lon="12.310986730377701"><ele>892.0</ele><time>2026-04-25T14:29:46Z</time></trkpt><trkpt lat="46.415658843378885" lon="12.310836313950675"><ele>898.0</ele><time>2026-04-25T14:29:47Z</time></trkpt><trkpt lat="46.41578228183355" lon="12.310705195186726"><ele>893.3333333333333</ele><time>2026-04-25T14:29:48Z</time></trkpt><trkpt lat="46.415910307472444" lon="12.310564787937126"><ele>888.6666666666667</ele><time>2026-04-25T14:29:49Z</time></trkpt><trkpt lat="46.4160345436985" lon="12.310418848670357"><ele>884.0</ele><time>2026-04-25T14:29:50Z</time></trkpt><trkpt lat="46.416157654685684" lon="12.310274539942013"><ele>884.0</ele><time>2026-04-25T14:29:51Z</time></trkpt><trkpt lat="46.41627978115175" lon="12.310135857270879"><ele>884.0</ele><time>2026-04-25T14:29:52Z</time></trkpt><trkpt lat="46.41640074314189" lon="12.31001966466006"><ele>884.0</ele><time>2026-04-25T14:29:53Z</time></trkpt><trkpt lat="46.416531929380106" lon="12.309940566836815"><ele>884.0</ele><time>2026-04-25T14:29:54Z</time></trkpt><trkpt lat="46.41666238935092" lon="12.309877718324467"><ele>882.75</ele><time>2026-04-25T14:29:55Z</time></trkpt><trkpt lat="46.416778301504515" lon="12.309802729791814"><ele>881.5</ele><time>2026-04-25T14:29:56Z</time></trkpt><trkpt lat="46.4168988045457" lon="12.309734022165427"><ele>880.25</ele><time>2026-04-25T14:29:57Z</time></trkpt><trkpt lat="46.417024806349325" lon="12.309691220620955"><ele>879.0</ele><time>2026-04-25T14:29:58Z</time></trkpt><trkpt lat="46.41716700797774" lon="12.309701353550398"><ele>865.0</ele><time>2026-04-25T14:29:59Z</time></trkpt><trkpt lat="46.41732422194214" lon="12.309767142870644"><ele>851.0</ele><time>2026-04-25T14:30:00Z</time></trkpt><trkpt lat="46.417482691378034" lon="12.309848475516125"><ele>837.0</ele><time>2026-04-25T14:30:01Z</time></trkpt><trkpt lat="46.41763128329615" lon="12.309891896398737"><ele>837.0</ele><time>2026-04-25T14:30:02Z</time></trkpt><trkpt lat="46.417769634769336" lon="12.309954795538145"><ele>837.0</ele><time>2026-04-25T14:30:03Z</time></trkpt><trkpt lat="46.417902375069545" lon="12.310042875915483"><ele>837.0</ele><time>2026-04-25T14:30:04Z</time></trkpt><trkpt lat="46.418030525199285" lon="12.310156144396302"><ele>837.0</ele><time>2026-04-25T14:30:05Z</time></trkpt><trkpt lat="46.41814879032071" lon="12.310287918450296"><ele>832.5</ele><time>2026-04-25T14:30:06Z</time></trkpt><trkpt lat="46.418248984325174" lon="12.31041787890389"><ele>828.0</ele><time>2026-04-25T14:30:07Z</time></trkpt><trkpt lat="46.41835826432329" lon="12.31053657455335"><ele>823.5</ele><time>2026-04-25T14:30:08Z</time></trkpt><trkpt lat="46.418478173056975" lon="12.310627884820255"><ele>819.0</ele><time>2026-04-25T14:30:09Z</time></trkpt><trkpt lat="46.41859876928222" lon="12.31069668368051"><ele>819.0</ele><time>2026-04-25T14:30:10Z</time></trkpt><trkpt lat="46.418721016377035" lon="12.310737787497246"><ele>819.0</ele><time>2026-04-25T14:30:11Z</time></trkpt><trkpt lat="46.418846516204916" lon="12.310739959062333"><ele>819.0</ele><time>2026-04-25T14:30:12Z</time></trkpt><trkpt lat="46.41897628359878" lon="12.31070661723226"><ele>819.0</ele><time>2026-04-25T14:30:13Z</time></trkpt><trkpt lat="46.41909961069433" lon="12.310638014731056"><ele>833.25</ele><time>2026-04-25T14:30:14Z</time></trkpt><trkpt lat="46.419204786635156" lon="12.310538179131147"><ele>847.5</ele><time>2026-04-25T14:30:15Z</time></trkpt><trkpt lat="46.419291578493954" lon="12.31042097325174"><ele>861.75</ele><time>2026-04-25T14:30:16Z</time></trkpt><trkpt lat="46.41937813836033" lon="12.310328444596612"><ele>876.0</ele><time>2026-04-25T14:30:17Z</time></trkpt><trkpt lat="46.41946706461627" lon="12.31026779983204"><ele>876.0</ele><time>2026-04-25T14:30:18Z</time></trkpt><trkpt lat="46.4195562045728" lon="12.310231679054946"><ele>875.9999999999999</ele><time>2026-04-25T14:30:19Z</time></trkpt><trkpt lat="46.41964641362436" lon="12.310216597772845"><ele>875.9999999999999</ele><time>2026-04-25T14:30:20Z</time></trkpt><trkpt lat="46.41973380024119" lon="12.310238358724332"><ele>876.0</ele><time>2026-04-25T14:30:21Z</time></trkpt><trkpt lat="46.41981770366821" lon="12.310300915075288"><ele>876.0</ele><time>2026-04-25T14:30:22Z</time></trkpt><trkpt lat="46.41988998784748" lon="12.31039425928276"><ele>873.4</ele><time>2026-04-25T14:30:23Z</time></trkpt><trkpt lat="46.41991149859262" lon="12.31053376012161"><ele>870.8</ele><time>2026-04-25T14:30:24Z</time></trkpt><trkpt lat="46.41994834899201" lon="12.31068018181594"><ele>868.1999999999999</ele><time>2026-04-25T14:30:25Z</time></trkpt><trkpt lat="46.419964970645935" lon="12.310814741355147"><ele>865.5999999999999</ele><time>2026-04-25T14:30:26Z</time></trkpt><trkpt lat="46.41996030734167" lon="12.31096015368672"><ele>863.0</ele><time>2026-04-25T14:30:27Z</time></trkpt><trkpt lat="46.41991195510941" lon="12.311124073059247"><ele>863.5</ele><time>2026-04-25T14:30:28Z</time></trkpt><trkpt lat="46.41983097496384" lon="12.311291857984953"><ele>864.0</ele><time>2026-04-25T14:30:29Z</time></trkpt><trkpt lat="46.41973383558199" lon="12.311462621860805"><ele>864.5</ele><time>2026-04-25T14:30:30Z</time></trkpt><trkpt lat="46.41963263814866" lon="12.311617779454414"><ele>865.0</ele><time>2026-04-25T14:30:31Z</time></trkpt><trkpt lat="46.419533949503695" lon="12.311769680378765"><ele>850.3333333333333</ele><time>2026-04-25T14:30:32Z</time></trkpt><trkpt lat="46.419437213679174" lon="12.31191850164765"><ele>835.6666666666667</ele><time>2026-04-25T14:30:33Z</time></trkpt><trkpt lat="46.41932163461883" lon="12.31205881274648"><ele>821.0</ele><time>2026-04-25T14:30:34Z</time></trkpt><trkpt lat="46.41918412817621" lon="12.312180282771154"><ele>821.0</ele><time>2026-04-25T14:30:35Z</time></trkpt><trkpt lat="46.4190491371058" lon="12.312286643166106"><ele>821.0</ele><time>2026-04-25T14:30:36Z</time></trkpt><trkpt lat="46.41890886907885" lon="12.312388138109089"><ele>821.0</ele><time>2026-04-25T14:30:37Z</time></trkpt><trkpt lat="46.41876533411849" lon="12.312470966059491"><ele>821.0</ele><time>2026-04-25T14:30:38Z</time></trkpt><trkpt lat="46.41862239213587" lon="12.312528409099041"><ele>821.0</ele><time>2026-04-25T14:30:39Z</time></trkpt><trkpt lat="46.41848781428966" lon="12.312548258353358"><ele>821.0</ele><time>2026-04-25T14:30:40Z</time></trkpt><trkpt lat="46.41836716578234" lon="12.312552264102614"><ele>821.0</ele><time>2026-04-25T14:30:41Z</time></trkpt><trkpt lat="46.418257035496765" lon="12.312575957059138"><ele>821.0</ele><time>2026-04-25T14:30:42Z</time></trkpt><trkpt lat="46.418151473231134" lon="12.312634633801876"><ele>821.0</ele><time>2026-04-25T14:30:43Z</time></trkpt><trkpt lat="46.41806463384308" lon="12.31274462550549"><ele>821.0</ele><time>2026-04-25T14:30:44Z</time></trkpt><trkpt lat="46.41799445749227" lon="12.312907516509014"><ele>821.0</ele><time>2026-04-25T14:30:45Z</time></trkpt><trkpt lat="46.417908692367504" lon="12.313085333150871"><ele>817.3333333333334</ele><time>2026-04-25T14:30:46Z</time></trkpt><trkpt lat="46.417797241432936" lon="12.31326209395372"><ele>813.6666666666667</ele><time>2026-04-25T14:30:47Z</time></trkpt><trkpt lat="46.41770209993624" lon="12.313424831789824"><ele>810.0</ele><time>2026-04-25T14:30:48Z</time></trkpt><trkpt lat="46.417619380425776" lon="12.313595617362363"><ele>810.0</ele><time>2026-04-25T14:30:49Z</time></trkpt><trkpt lat="46.41753731650223" lon="12.313769081274732"><ele>810.0</ele><time>2026-04-25T14:30:50Z</time></trkpt><trkpt lat="46.417455174651785" lon="12.313942330683249"><ele>810.0</ele><time>2026-04-25T14:30:51Z</time></trkpt><trkpt lat="46.41737057406905" lon="12.314117153231985"><ele>810.0</ele><time>2026-04-25T14:30:52Z</time></trkpt><trkpt lat="46.41729066577397" lon="12.314291091820435"><ele>805.75</ele><time>2026-04-25T14:30:53Z</time></trkpt><trkpt lat="46.41721845341626" lon="12.314462938552445"><ele>801.5</ele><time>2026-04-25T14:30:54Z</time></trkpt><trkpt lat="46.417157728502616" lon="12.314627526269936"><ele>797.25</ele><time>2026-04-25T14:30:55Z</time></trkpt><trkpt lat="46.41710750940934" lon="12.314788027954233"><ele>793.0</ele><time>2026-04-25T14:30:56Z</time></trkpt><trkpt lat="46.41706303754995" lon="12.314945266741807"><ele>793.0</ele><time>2026-04-25T14:30:57Z</time></trkpt><trkpt lat="46.417019091360814" lon="12.315099627396627"><ele>793.0</ele><time>2026-04-25T14:30:58Z</time></trkpt><trkpt lat="46.416992686552504" lon="12.315251336601833"><ele>793.0</ele><time>2026-04-25T14:30:59Z</time></trkpt><trkpt lat="46.41699504379325" lon="12.31540852353429"><ele>793.0</ele><time>2026-04-25T14:31:00Z</time></trkpt><trkpt lat="46.417037959036186" lon="12.315560582426063"><ele>793.0</ele><time>2026-04-25T14:31:01Z</time></trkpt><trkpt lat="46.417102567961194" lon="12.315703038619759"><ele>807.75</ele><time>2026-04-25T14:31:02Z</time></trkpt><trkpt lat="46.417184635899254" lon="12.31583314686651"><ele>822.5</ele><time>2026-04-25T14:31:03Z</time></trkpt><trkpt lat="46.41725684339561" lon="12.315985967648006"><ele>837.25</ele><time>2026-04-25T14:31:04Z</time></trkpt><trkpt lat="46.41729715574463" lon="12.316178950524497"><ele>852.0</ele><time>2026-04-25T14:31:05Z</time></trkpt><trkpt lat="46.41730554711775" lon="12.316379424130515"><ele>854.25</ele><time>2026-04-25T14:31:06Z</time></trkpt><trkpt lat="46.417281417096916" lon="12.316583282487402"><ele>856.5</ele><time>2026-04-25T14:31:07Z</time></trkpt><trkpt lat="46.41720603594536" lon="12.316771095135115"><ele>858.75</ele><time>2026-04-25T14:31:08Z</time></trkpt><trkpt lat="46.41713231965907" lon="12.316967321597698"><ele>861.0</ele><time>2026-04-25T14:31:09Z</time></trkpt><trkpt lat="46.41707418422693" lon="12.317167370244617"><ele>850.5</ele><time>2026-04-25T14:31:10Z</time></trkpt><trkpt lat="46.41699801620437" lon="12.317361893507767"><ele>840.0</ele><time>2026-04-25T14:31:11Z</time></trkpt><trkpt lat="46.4169249670586" lon="12.317549393102368"><ele>829.5</ele><time>2026-04-25T14:31:12Z</time></trkpt><trkpt lat="46.41685168431154" lon="12.317733136409283"><ele>819.0</ele><time>2026-04-25T14:31:13Z</time></trkpt><trkpt lat="46.416773575382955" lon="12.317924917284762"><ele>826.3333333333333</ele><time>2026-04-25T14:31:14Z</time></trkpt><trkpt lat="46.416692388592026" lon="12.318127350027277"><ele>833.6666666666666</ele><time>2026-04-25T14:31:15Z</time></trkpt><trkpt lat="46.416613593105346" lon="12.318326125060421"><ele>841.0</ele><time>2026-04-25T14:31:15.999Z</time></trkpt><trkpt lat="46.41653947999406" lon="12.318533594033244"><ele>841.0</ele><time>2026-04-25T14:31:16.999Z</time></trkpt><trkpt lat="46.41646891731481" lon="12.318747639233674"><ele>841.0</ele><time>2026-04-25T14:31:17.999Z</time></trkpt><trkpt lat="46.41638568318474" lon="12.318951759846675"><ele>841.0</ele><time>2026-04-25T14:31:18.999Z</time></trkpt><trkpt lat="46.416309101062495" lon="12.319156232239338"><ele>838.6666666666666</ele><time>2026-04-25T14:31:19.999Z</time></trkpt><trkpt lat="46.41623886475861" lon="12.319360955230248"><ele>836.3333333333333</ele><time>2026-04-25T14:31:20.999Z</time></trkpt><trkpt lat="46.41616557445723" lon="12.319579963165483"><ele>834.0</ele><time>2026-04-25T14:31:21.999Z</time></trkpt><trkpt lat="46.416100433997535" lon="12.319811102861824"><ele>843.3333333333333</ele><time>2026-04-25T14:31:22.999Z</time></trkpt><trkpt lat="46.41604250556652" lon="12.320056083397832"><ele>852.6666666666666</ele><time>2026-04-25T14:31:23.999Z</time></trkpt><trkpt lat="46.415995692051816" lon="12.320320548878662"><ele>862.0</ele><time>2026-04-25T14:31:24.999Z</time></trkpt><trkpt lat="46.41596527954979" lon="12.320604675056442"><ele>864.0</ele><time>2026-04-25T14:31:25.999Z</time></trkpt><trkpt lat="46.41594800802223" lon="12.32089021616182"><ele>866.0</ele><time>2026-04-25T14:31:26.999Z</time></trkpt><trkpt lat="46.41593931108998" lon="12.321180687482519"><ele>868.0</ele><time>2026-04-25T14:31:27.999Z</time></trkpt><trkpt lat="46.41593513150699" lon="12.321485827274275"><ele>868.0</ele><time>2026-04-25T14:31:29.055Z</time></trkpt><trkpt lat="46.41593558546351" lon="12.321780039167088"><ele>868.0</ele><time>2026-04-25T14:31:30.061Z</time></trkpt><trkpt lat="46.415938416146574" lon="12.322071915347658"><ele>868.0</ele><time>2026-04-25T14:31:31.048Z</time></trkpt><trkpt lat="46.41594481302793" lon="12.322371864981054"><ele>868.5</ele><time>2026-04-25T14:31:32.05Z</time></trkpt><trkpt lat="46.41595315238624" lon="12.322668370181638"><ele>869.0</ele><time>2026-04-25T14:31:33.039Z</time></trkpt><trkpt lat="46.41610196592366" lon="12.32445841646436"><ele>865.0</ele><time>2026-04-25T14:31:37.653Z</time></trkpt><trkpt lat="46.41615444666503" lon="12.32484218529166"><ele>861.0</ele><time>2026-04-25T14:31:38.655Z</time></trkpt><trkpt lat="46.41621472604455" lon="12.32522376539513"><ele>857.5</ele><time>2026-04-25T14:31:39.656Z</time></trkpt><trkpt lat="46.41627889898953" lon="12.32560281746269"><ele>854.0</ele><time>2026-04-25T14:31:40.656Z</time></trkpt><trkpt lat="46.41636086963673" lon="12.325974258161388"><ele>855.0</ele><time>2026-04-25T14:31:41.653Z</time></trkpt><trkpt lat="46.41642644718056" lon="12.326352737289163"><ele>856.0</ele><time>2026-04-25T14:31:42.653Z</time></trkpt><trkpt lat="46.41647120644378" lon="12.326739120903463"><ele>838.0</ele><time>2026-04-25T14:31:43.656Z</time></trkpt><trkpt lat="46.41651214540835" lon="12.327503934941676"><ele>837.9999999999999</ele><time>2026-04-25T14:31:56.999Z</time></trkpt><trkpt lat="46.41653304399265" lon="12.327596212043305"><ele>838.0</ele><time>2026-04-25T14:31:57.999Z</time></trkpt><trkpt lat="46.41656477607267" lon="12.327719874765972"><ele>838.0</ele><time>2026-04-25T14:31:58.999Z</time></trkpt><trkpt lat="46.41664489876447" lon="12.327796824610552"><ele>838.0</ele><time>2026-04-25T14:31:59.999Z</time></trkpt><trkpt lat="46.41669547957738" lon="12.32791337233691"><ele>837.9999999999999</ele><time>2026-04-25T14:32:01Z</time></trkpt><trkpt lat="46.41675055692113" lon="12.328034586885996"><ele>838.0</ele><time>2026-04-25T14:32:02Z</time></trkpt><trkpt lat="46.41681488251839" lon="12.32815032902072"><ele>836.2</ele><time>2026-04-25T14:32:03Z</time></trkpt><trkpt lat="46.41688205956951" lon="12.328258200344102"><ele>834.4</ele><time>2026-04-25T14:32:04Z</time></trkpt><trkpt lat="46.41694766595096" lon="12.328363528764193"><ele>832.6</ele><time>2026-04-25T14:32:05Z</time></trkpt><trkpt lat="46.41701069715043" lon="12.32846708710963"><ele>830.8000000000001</ele><time>2026-04-25T14:32:06Z</time></trkpt><trkpt lat="46.4170714351231" lon="12.328571050750337"><ele>829.0</ele><time>2026-04-25T14:32:07Z</time></trkpt><trkpt lat="46.41713082502867" lon="12.32866500435824"><ele>829.4999999999999</ele><time>2026-04-25T14:32:08Z</time></trkpt><trkpt lat="46.417184974866835" lon="12.328749136617182"><ele>830.0</ele><time>2026-04-25T14:32:09Z</time></trkpt><trkpt lat="46.41723492709905" lon="12.328828882135978"><ele>830.5</ele><time>2026-04-25T14:32:10Z</time></trkpt><trkpt lat="46.41728230476699" lon="12.328902272328802"><ele>831.0</ele><time>2026-04-25T14:32:11Z</time></trkpt><trkpt lat="46.41734687519922" lon="12.329004358338858"><ele>831.4999999999999</ele><time>2026-04-25T14:32:13Z</time></trkpt><trkpt lat="46.417406546229365" lon="12.329096352034933"><ele>832.0</ele><time>2026-04-25T14:32:15Z</time></trkpt><trkpt lat="46.417475933171794" lon="12.32920892451209"><ele>832.0</ele><time>2026-04-25T14:32:17Z</time></trkpt><trkpt lat="46.41756131135398" lon="12.329348056013725"><ele>832.0</ele><time>2026-04-25T14:32:19Z</time></trkpt><trkpt lat="46.41761348428454" lon="12.329433432589585"><ele>832.0</ele><time>2026-04-25T14:32:20Z</time></trkpt><trkpt lat="46.41766557791452" lon="12.329528979474011"><ele>832.0</ele><time>2026-04-25T14:32:21Z</time></trkpt><trkpt lat="46.41770946659007" lon="12.329627151955185"><ele>832.0</ele><time>2026-04-25T14:32:22Z</time></trkpt><trkpt lat="46.417737807497005" lon="12.329734949084363"><ele>831.0</ele><time>2026-04-25T14:32:23Z</time></trkpt><trkpt lat="46.417742519322104" lon="12.32985389975911"><ele>830.0</ele><time>2026-04-25T14:32:24Z</time></trkpt><trkpt lat="46.41770029687557" lon="12.329965663419436"><ele>829.0</ele><time>2026-04-25T14:32:25Z</time></trkpt><trkpt lat="46.417679530406396" lon="12.330105207367568"><ele>828.0</ele><time>2026-04-25T14:32:26Z</time></trkpt><trkpt lat="46.41762884389278" lon="12.330248381425433"><ele>827.0</ele><time>2026-04-25T14:32:27Z</time></trkpt><trkpt lat="46.41757953300015" lon="12.330392733226004"><ele>827.0</ele><time>2026-04-25T14:32:28Z</time></trkpt><trkpt lat="46.41753324797413" lon="12.330538175767243"><ele>827.0</ele><time>2026-04-25T14:32:29Z</time></trkpt><trkpt lat="46.417465051727795" lon="12.330681967009626"><ele>827.0</ele><time>2026-04-25T14:32:30Z</time></trkpt><trkpt lat="46.417412319870294" lon="12.330841936896759"><ele>827.0</ele><time>2026-04-25T14:32:31Z</time></trkpt><trkpt lat="46.417362620247786" lon="12.331003381065374"><ele>827.5</ele><time>2026-04-25T14:32:32Z</time></trkpt><trkpt lat="46.41732735060601" lon="12.33118205566541"><ele>828.0</ele><time>2026-04-25T14:32:33Z</time></trkpt><trkpt lat="46.41730981231124" lon="12.331368269742786"><ele>828.5</ele><time>2026-04-25T14:32:34Z</time></trkpt><trkpt lat="46.417301694562894" lon="12.331554863826236"><ele>829.0</ele><time>2026-04-25T14:32:35Z</time></trkpt><trkpt lat="46.41731114721287" lon="12.331742402004409"><ele>829.5</ele><time>2026-04-25T14:32:36Z</time></trkpt><trkpt lat="46.417302109262856" lon="12.331927769503197"><ele>830.0</ele><time>2026-04-25T14:32:37Z</time></trkpt><trkpt lat="46.41729627653306" lon="12.332110837690964"><ele>830.5</ele><time>2026-04-25T14:32:38Z</time></trkpt><trkpt lat="46.41729027841189" lon="12.332290893932246"><ele>831.0</ele><time>2026-04-25T14:32:39Z</time></trkpt><trkpt lat="46.41728029484359" lon="12.332469547632185"><ele>831.25</ele><time>2026-04-25T14:32:40Z</time></trkpt><trkpt lat="46.417273537934214" lon="12.332642987071019"><ele>831.5</ele><time>2026-04-25T14:32:41Z</time></trkpt><trkpt lat="46.417266894717976" lon="12.332811507686053"><ele>831.75</ele><time>2026-04-25T14:32:42Z</time></trkpt><trkpt lat="46.417257965573356" lon="12.332978640376783"><ele>832.0</ele><time>2026-04-25T14:32:43Z</time></trkpt><trkpt lat="46.41725261224649" lon="12.333145033253007"><ele>832.0</ele><time>2026-04-25T14:32:44Z</time></trkpt><trkpt lat="46.41724870818012" lon="12.33330743711238"><ele>832.0</ele><time>2026-04-25T14:32:45Z</time></trkpt><trkpt lat="46.41723543277873" lon="12.333468997345292"><ele>832.0</ele><time>2026-04-25T14:32:46Z</time></trkpt><trkpt lat="46.417282571498646" lon="12.333624138580438"><ele>832.0</ele><time>2026-04-25T14:32:47Z</time></trkpt><trkpt lat="46.41733057034487" lon="12.333781065668468"><ele>831.75</ele><time>2026-04-25T14:32:48Z</time></trkpt><trkpt lat="46.4173925694998" lon="12.333936245259588"><ele>831.5</ele><time>2026-04-25T14:32:49Z</time></trkpt><trkpt lat="46.41745919188267" lon="12.33409185175388"><ele>831.25</ele><time>2026-04-25T14:32:50Z</time></trkpt><trkpt lat="46.41752747246717" lon="12.334248304605254"><ele>831.0</ele><time>2026-04-25T14:32:51Z</time></trkpt><trkpt lat="46.417592776924934" lon="12.334410111990682"><ele>831.0</ele><time>2026-04-25T14:32:52Z</time></trkpt><trkpt lat="46.417658772680475" lon="12.334567100012936"><ele>831.0</ele><time>2026-04-25T14:32:53Z</time></trkpt><trkpt lat="46.41771278398131" lon="12.33469944301666"><ele>831.0</ele><time>2026-04-25T14:32:54Z</time></trkpt><trkpt lat="46.41775254739849" lon="12.334828564721331"><ele>831.0</ele><time>2026-04-25T14:32:55Z</time></trkpt><trkpt lat="46.41776490289176" lon="12.334974584926092"><ele>831.0</ele><time>2026-04-25T14:32:56Z</time></trkpt><trkpt lat="46.41774181309367" lon="12.33512684151909"><ele>830.5</ele><time>2026-04-25T14:32:57Z</time></trkpt><trkpt lat="46.41768717263522" lon="12.33528038794843"><ele>830.0</ele><time>2026-04-25T14:32:58Z</time></trkpt><trkpt lat="46.41761624926774" lon="12.335439431738179"><ele>829.5</ele><time>2026-04-25T14:32:59Z</time></trkpt><trkpt lat="46.417553974115734" lon="12.335588800638275"><ele>829.0</ele><time>2026-04-25T14:33:00Z</time></trkpt><trkpt lat="46.417492114038645" lon="12.335733859066139"><ele>829.0</ele><time>2026-04-25T14:33:01Z</time></trkpt><trkpt lat="46.41743221199757" lon="12.335875235818463"><ele>829.0</ele><time>2026-04-25T14:33:02Z</time></trkpt><trkpt lat="46.41736773419461" lon="12.33600640907826"><ele>829.0</ele><time>2026-04-25T14:33:03Z</time></trkpt><trkpt lat="46.41735806842245" lon="12.336169133909339"><ele>829.0</ele><time>2026-04-25T14:33:04Z</time></trkpt><trkpt lat="46.41735386330341" lon="12.336322632762917"><ele>829.0</ele><time>2026-04-25T14:33:05Z</time></trkpt><trkpt lat="46.417374327800346" lon="12.33647110668594"><ele>829.25</ele><time>2026-04-25T14:33:06Z</time></trkpt><trkpt lat="46.417418424755844" lon="12.336614523791399"><ele>829.5</ele><time>2026-04-25T14:33:07Z</time></trkpt><trkpt lat="46.417483475035034" lon="12.336749444121448"><ele>829.75</ele><time>2026-04-25T14:33:08Z</time></trkpt><trkpt lat="46.41756630443128" lon="12.336876214387434"><ele>830.0</ele><time>2026-04-25T14:33:09Z</time></trkpt><trkpt lat="46.41766653812683" lon="12.337002281912394"><ele>830.0</ele><time>2026-04-25T14:33:10Z</time></trkpt><trkpt lat="46.417781613606245" lon="12.337125500869055"><ele>830.0</ele><time>2026-04-25T14:33:11Z</time></trkpt><trkpt lat="46.417892923478355" lon="12.337254464228565"><ele>830.0</ele><time>2026-04-25T14:33:12Z</time></trkpt><trkpt lat="46.41800827466699" lon="12.33739136571444"><ele>830.0</ele><time>2026-04-25T14:33:13Z</time></trkpt><trkpt lat="46.41813927578828" lon="12.337576115701085"><ele>831.0</ele><time>2026-04-25T14:33:14Z</time></trkpt><trkpt lat="46.41830600594205" lon="12.337777304960214"><ele>832.0</ele><time>2026-04-25T14:33:15Z</time></trkpt><trkpt lat="46.41849456754563" lon="12.337974128315192"><ele>833.0</ele><time>2026-04-25T14:33:16Z</time></trkpt><trkpt lat="46.41865464456849" lon="12.338177194490521"><ele>832.6666666666667</ele><time>2026-04-25T14:33:17Z</time></trkpt><trkpt lat="46.41880371094654" lon="12.33835924378477"><ele>832.3333333333333</ele><time>2026-04-25T14:33:18Z</time></trkpt><trkpt lat="46.418944732375586" lon="12.338529819881675"><ele>832.0</ele><time>2026-04-25T14:33:19Z</time></trkpt><trkpt lat="46.41907545345013" lon="12.338685153633945"><ele>832.0</ele><time>2026-04-25T14:33:20Z</time></trkpt><trkpt lat="46.41918967189281" lon="12.33882412408287"><ele>832.0</ele><time>2026-04-25T14:33:21Z</time></trkpt><trkpt lat="46.41927583535629" lon="12.338968775067679"><ele>832.0</ele><time>2026-04-25T14:33:22Z</time></trkpt><trkpt lat="46.41932649393347" lon="12.339144483121284"><ele>832.0</ele><time>2026-04-25T14:33:23Z</time></trkpt><trkpt lat="46.419339173383726" lon="12.339356601186164"><ele>831.75</ele><time>2026-04-25T14:33:24Z</time></trkpt><trkpt lat="46.419325826117394" lon="12.339575803755817"><ele>831.5</ele><time>2026-04-25T14:33:25Z</time></trkpt><trkpt lat="46.41931508018667" lon="12.33978642903518"><ele>831.25</ele><time>2026-04-25T14:33:26Z</time></trkpt><trkpt lat="46.41930940514557" lon="12.340001973582922"><ele>831.0</ele><time>2026-04-25T14:33:27Z</time></trkpt><trkpt lat="46.419301640568484" lon="12.340226611912168"><ele>831.0</ele><time>2026-04-25T14:33:27.999Z</time></trkpt><trkpt lat="46.419293744013466" lon="12.340456080082534"><ele>831.0</ele><time>2026-04-25T14:33:28.999Z</time></trkpt><trkpt lat="46.41928574265714" lon="12.340681610433066"><ele>831.0</ele><time>2026-04-25T14:33:29.999Z</time></trkpt><trkpt lat="46.419279043055234" lon="12.34090622656508"><ele>830.75</ele><time>2026-04-25T14:33:30.999Z</time></trkpt><trkpt lat="46.419272396154945" lon="12.341126581691272"><ele>830.5</ele><time>2026-04-25T14:33:31.999Z</time></trkpt><trkpt lat="46.419267282927514" lon="12.341339435839064"><ele>830.25</ele><time>2026-04-25T14:33:32.999Z</time></trkpt><trkpt lat="46.41925929226952" lon="12.341553581330844"><ele>830.0</ele><time>2026-04-25T14:33:33.999Z</time></trkpt><trkpt lat="46.41925414278242" lon="12.341765762364032"><ele>831.3333333333334</ele><time>2026-04-25T14:33:34.999Z</time></trkpt><trkpt lat="46.41924885933035" lon="12.34198537272523"><ele>832.6666666666667</ele><time>2026-04-25T14:33:35.999Z</time></trkpt><trkpt lat="46.419242783088556" lon="12.342206213978281"><ele>834.0</ele><time>2026-04-25T14:33:36.999Z</time></trkpt><trkpt lat="46.419240148283414" lon="12.3424279509776"><ele>834.0</ele><time>2026-04-25T14:33:37.999Z</time></trkpt><trkpt lat="46.41924710850905" lon="12.342650030078584"><ele>834.0</ele><time>2026-04-25T14:33:38.999Z</time></trkpt><trkpt lat="46.419263063006" lon="12.34286830131958"><ele>834.0</ele><time>2026-04-25T14:33:39.999Z</time></trkpt><trkpt lat="46.41928299207118" lon="12.343081360592302"><ele>834.0</ele><time>2026-04-25T14:33:40.999Z</time></trkpt><trkpt lat="46.419304451418476" lon="12.343299492571534"><ele>834.0</ele><time>2026-04-25T14:33:41.999Z</time></trkpt><trkpt lat="46.41932251083251" lon="12.343517485670183"><ele>834.0</ele><time>2026-04-25T14:33:42.999Z</time></trkpt><trkpt lat="46.41933779197411" lon="12.343749256363848"><ele>834.6666666666667</ele><time>2026-04-25T14:33:43.999Z</time></trkpt><trkpt lat="46.41935619326555" lon="12.343986212507744"><ele>835.3333333333334</ele><time>2026-04-25T14:33:44.999Z</time></trkpt><trkpt lat="46.419376562635705" lon="12.344225876568476"><ele>836.0</ele><time>2026-04-25T14:33:45.999Z</time></trkpt><trkpt lat="46.4193975531145" lon="12.344468116465027"><ele>836.0</ele><time>2026-04-25T14:33:46.999Z</time></trkpt><trkpt lat="46.419417778890576" lon="12.344704491361716"><ele>836.0</ele><time>2026-04-25T14:33:47.999Z</time></trkpt><trkpt lat="46.41943725717985" lon="12.344934516108575"><ele>836.0</ele><time>2026-04-25T14:33:48.999Z</time></trkpt><trkpt lat="46.41945736319083" lon="12.34515736468173"><ele>836.0</ele><time>2026-04-25T14:33:49.999Z</time></trkpt><trkpt lat="46.419474523627" lon="12.345367238189349"><ele>836.0</ele><time>2026-04-25T14:33:50.999Z</time></trkpt><trkpt lat="46.41949151922137" lon="12.34556981334887"><ele>836.0</ele><time>2026-04-25T14:33:51.999Z</time></trkpt><trkpt lat="46.41950943256762" lon="12.345773071269548"><ele>836.0</ele><time>2026-04-25T14:33:52.999Z</time></trkpt><trkpt lat="46.41952555866139" lon="12.345978921334291"><ele>836.25</ele><time>2026-04-25T14:33:53.999Z</time></trkpt><trkpt lat="46.41954209307185" lon="12.346186717899643"><ele>836.5</ele><time>2026-04-25T14:33:54.999Z</time></trkpt><trkpt lat="46.41956169812919" lon="12.346397257554036"><ele>836.75</ele><time>2026-04-25T14:33:55.999Z</time></trkpt><trkpt lat="46.41958063029125" lon="12.346608478260293"><ele>837.0</ele><time>2026-04-25T14:33:56.999Z</time></trkpt><trkpt lat="46.419601049543644" lon="12.346821559072357"><ele>838.6666666666667</ele><time>2026-04-25T14:33:57.999Z</time></trkpt><trkpt lat="46.41961979454963" lon="12.347036496031759"><ele>840.3333333333334</ele><time>2026-04-25T14:33:58.999Z</time></trkpt><trkpt lat="46.41963905667397" lon="12.347253418172192"><ele>842.0</ele><time>2026-04-25T14:33:59.999Z</time></trkpt><trkpt lat="46.41965702379946" lon="12.347472551687984"><ele>842.6666666666667</ele><time>2026-04-25T14:34:00.999Z</time></trkpt><trkpt lat="46.41967665814548" lon="12.347691324279355"><ele>843.3333333333333</ele><time>2026-04-25T14:34:01.999Z</time></trkpt><trkpt lat="46.419694686281" lon="12.347911380156319"><ele>844.0</ele><time>2026-04-25T14:34:02.999Z</time></trkpt><trkpt lat="46.41971325190579" lon="12.348133701628344"><ele>844.0</ele><time>2026-04-25T14:34:03.999Z</time></trkpt><trkpt lat="46.419733728343004" lon="12.348357375060266"><ele>844.0</ele><time>2026-04-25T14:34:04.999Z</time></trkpt><trkpt lat="46.41975364190361" lon="12.348580275139184"><ele>844.0</ele><time>2026-04-25T14:34:05.999Z</time></trkpt><trkpt lat="46.41977296947299" lon="12.348801882392008"><ele>843.75</ele><time>2026-04-25T14:34:07Z</time></trkpt><trkpt lat="46.41979039293423" lon="12.349019900596362"><ele>843.5</ele><time>2026-04-25T14:34:08Z</time></trkpt><trkpt lat="46.419806996892284" lon="12.349233978446875"><ele>843.25</ele><time>2026-04-25T14:34:09Z</time></trkpt><trkpt lat="46.41982582101464" lon="12.349446508511454"><ele>843.0</ele><time>2026-04-25T14:34:10Z</time></trkpt><trkpt lat="46.419839099137725" lon="12.34965630273518"><ele>842.75</ele><time>2026-04-25T14:34:11Z</time></trkpt><trkpt lat="46.41985762506663" lon="12.349865297533714"><ele>842.5</ele><time>2026-04-25T14:34:12Z</time></trkpt><trkpt lat="46.41987929527306" lon="12.350072491121315"><ele>842.25</ele><time>2026-04-25T14:34:13Z</time></trkpt><trkpt lat="46.41989589059939" lon="12.35028069529949"><ele>842.0</ele><time>2026-04-25T14:34:14Z</time></trkpt><trkpt lat="46.41990590587819" lon="12.350487774820317"><ele>842.0</ele><time>2026-04-25T14:34:15Z</time></trkpt><trkpt lat="46.41990557288173" lon="12.350685429146685"><ele>842.0</ele><time>2026-04-25T14:34:16Z</time></trkpt><trkpt lat="46.41989150382058" lon="12.350873148559199"><ele>842.0</ele><time>2026-04-25T14:34:17Z</time></trkpt><trkpt lat="46.41986018471105" lon="12.351051138864012"><ele>842.0</ele><time>2026-04-25T14:34:18Z</time></trkpt><trkpt lat="46.41981341729182" lon="12.351222361391715"><ele>842.75</ele><time>2026-04-25T14:34:19Z</time></trkpt><trkpt lat="46.41975247656883" lon="12.35138887457282"><ele>843.5</ele><time>2026-04-25T14:34:20Z</time></trkpt><trkpt lat="46.41968763222634" lon="12.351545448620152"><ele>844.25</ele><time>2026-04-25T14:34:21Z</time></trkpt><trkpt lat="46.4196350453431" lon="12.35169008515551"><ele>845.0</ele><time>2026-04-25T14:34:22Z</time></trkpt><trkpt lat="46.41959555029005" lon="12.351832421826503"><ele>844.8</ele><time>2026-04-25T14:34:23Z</time></trkpt><trkpt lat="46.41958331740175" lon="12.351975726036002"><ele>844.6</ele><time>2026-04-25T14:34:24Z</time></trkpt><trkpt lat="46.41959370239654" lon="12.352112835897547"><ele>844.4000000000001</ele><time>2026-04-25T14:34:25Z</time></trkpt><trkpt lat="46.41961877329883" lon="12.35225211580505"><ele>844.2</ele><time>2026-04-25T14:34:26Z</time></trkpt><trkpt lat="46.41964207892424" lon="12.35238129689771"><ele>844.0</ele><time>2026-04-25T14:34:27Z</time></trkpt><trkpt lat="46.4196818045005" lon="12.352495895853938"><ele>844.0</ele><time>2026-04-25T14:34:28Z</time></trkpt><trkpt lat="46.419750927137066" lon="12.352591557821464"><ele>844.0</ele><time>2026-04-25T14:34:29Z</time></trkpt><trkpt lat="46.41984249635435" lon="12.352631804244355"><ele>844.0</ele><time>2026-04-25T14:34:30Z</time></trkpt><trkpt lat="46.419938436874936" lon="12.352644570065468"><ele>844.0</ele><time>2026-04-25T14:34:31Z</time></trkpt><trkpt lat="46.420021461321774" lon="12.352730342296592"><ele>844.0</ele><time>2026-04-25T14:34:32Z</time></trkpt><trkpt lat="46.42008770160851" lon="12.352871975979488"><ele>844.0</ele><time>2026-04-25T14:34:33Z</time></trkpt><trkpt lat="46.42012197199962" lon="12.353018544636301"><ele>844.0</ele><time>2026-04-25T14:34:34Z</time></trkpt><trkpt lat="46.420136246948736" lon="12.353166339093487"><ele>844.0</ele><time>2026-04-25T14:34:35Z</time></trkpt><trkpt lat="46.42014889099807" lon="12.353309273602774"><ele>844.0</ele><time>2026-04-25T14:34:36Z</time></trkpt><trkpt lat="46.42016252441571" lon="12.353449472589503"><ele>844.0</ele><time>2026-04-25T14:34:37Z</time></trkpt><trkpt lat="46.42017514539062" lon="12.35358710310148"><ele>844.0</ele><time>2026-04-25T14:34:38Z</time></trkpt><trkpt lat="46.42018584390139" lon="12.35372649184518"><ele>844.0</ele><time>2026-04-25T14:34:39Z</time></trkpt><trkpt lat="46.42019639142634" lon="12.353868316393047"><ele>844.0</ele><time>2026-04-25T14:34:40Z</time></trkpt><trkpt lat="46.4202099478363" lon="12.354010998535248"><ele>844.0</ele><time>2026-04-25T14:34:41Z</time></trkpt><trkpt lat="46.42022413752048" lon="12.35415232264395"><ele>844.0</ele><time>2026-04-25T14:34:42Z</time></trkpt><trkpt lat="46.420232457349904" lon="12.354283132491368"><ele>843.6666666666666</ele><time>2026-04-25T14:34:43Z</time></trkpt><trkpt lat="46.42024127978438" lon="12.35441000409098"><ele>843.3333333333333</ele><time>2026-04-25T14:34:44Z</time></trkpt><trkpt lat="46.420255492068215" lon="12.354538759578139"><ele>843.0</ele><time>2026-04-25T14:34:45Z</time></trkpt><trkpt lat="46.42026946213139" lon="12.35465412561522"><ele>842.6666666666667</ele><time>2026-04-25T14:34:46Z</time></trkpt><trkpt lat="46.42028080075474" lon="12.354759425367106"><ele>842.3333333333334</ele><time>2026-04-25T14:34:47Z</time></trkpt><trkpt lat="46.42029916259447" lon="12.354867176952089"><ele>842.0</ele><time>2026-04-25T14:34:48Z</time></trkpt><trkpt lat="46.42032846342981" lon="12.354989374868943"><ele>842.0</ele><time>2026-04-25T14:34:49Z</time></trkpt><trkpt lat="46.42036895963703" lon="12.355129263077579"><ele>842.0</ele><time>2026-04-25T14:34:50Z</time></trkpt><trkpt lat="46.420427037523595" lon="12.355287437964648"><ele>842.0</ele><time>2026-04-25T14:34:51Z</time></trkpt><trkpt lat="46.420498215001025" lon="12.355448727486916"><ele>842.0</ele><time>2026-04-25T14:34:52Z</time></trkpt><trkpt lat="46.420582436233936" lon="12.355595150450698"><ele>842.5</ele><time>2026-04-25T14:34:53Z</time></trkpt><trkpt lat="46.42067678527329" lon="12.355729953623085"><ele>843.0</ele><time>2026-04-25T14:34:54Z</time></trkpt><trkpt lat="46.42077222706599" lon="12.355861609425158"><ele>843.5</ele><time>2026-04-25T14:34:55Z</time></trkpt><trkpt lat="46.42086287544807" lon="12.35599274785675"><ele>844.0</ele><time>2026-04-25T14:34:56Z</time></trkpt><trkpt lat="46.42095123157916" lon="12.356118775231408"><ele>844.0</ele><time>2026-04-25T14:34:57Z</time></trkpt><trkpt lat="46.421039252749075" lon="12.356244654216793"><ele>844.0</ele><time>2026-04-25T14:34:58Z</time></trkpt><trkpt lat="46.42112916657713" lon="12.35637329036361"><ele>844.0</ele><time>2026-04-25T14:34:59Z</time></trkpt><trkpt lat="46.42122043751883" lon="12.356504832868316"><ele>844.0</ele><time>2026-04-25T14:35:00Z</time></trkpt><trkpt lat="46.421313517892116" lon="12.356638890120953"><ele>843.25</ele><time>2026-04-25T14:35:01Z</time></trkpt><trkpt lat="46.421409982304716" lon="12.356777345882735"><ele>842.5</ele><time>2026-04-25T14:35:02Z</time></trkpt><trkpt lat="46.42150950925098" lon="12.356917323935038"><ele>841.75</ele><time>2026-04-25T14:35:03Z</time></trkpt><trkpt lat="46.421606510056904" lon="12.35705489922267"><ele>841.0</ele><time>2026-04-25T14:35:04Z</time></trkpt><trkpt lat="46.42170532757427" lon="12.357196938108734"><ele>840.5</ele><time>2026-04-25T14:35:05Z</time></trkpt><trkpt lat="46.42180594553221" lon="12.357338909399374"><ele>840.0</ele><time>2026-04-25T14:35:06Z</time></trkpt><trkpt lat="46.42190711855319" lon="12.357480342941852"><ele>839.5</ele><time>2026-04-25T14:35:07Z</time></trkpt><trkpt lat="46.422002486045905" lon="12.357618992222745"><ele>839.0</ele><time>2026-04-25T14:35:08Z</time></trkpt><trkpt lat="46.422089471624105" lon="12.357742544670332"><ele>838.4000000000001</ele><time>2026-04-25T14:35:09Z</time></trkpt><trkpt lat="46.422167065302226" lon="12.357848477600612"><ele>837.8</ele><time>2026-04-25T14:35:10Z</time></trkpt><trkpt lat="46.42222387927736" lon="12.357960644985862"><ele>837.2</ele><time>2026-04-25T14:35:11Z</time></trkpt><trkpt lat="46.42230062178594" lon="12.358037683414958"><ele>836.5999999999999</ele><time>2026-04-25T14:35:12Z</time></trkpt><trkpt lat="46.42236908522579" lon="12.35813370119268"><ele>836.0</ele><time>2026-04-25T14:35:13Z</time></trkpt><trkpt lat="46.422437579459476" lon="12.358232807692362"><ele>836.0</ele><time>2026-04-25T14:35:14Z</time></trkpt><trkpt lat="46.42250926599098" lon="12.358335411667772"><ele>836.0</ele><time>2026-04-25T14:35:15Z</time></trkpt><trkpt lat="46.42258483329246" lon="12.35844471285859"><ele>836.0</ele><time>2026-04-25T14:35:16Z</time></trkpt><trkpt lat="46.42265981376687" lon="12.358559348106331"><ele>836.0</ele><time>2026-04-25T14:35:17Z</time></trkpt><trkpt lat="46.42273818787748" lon="12.358673015528092"><ele>836.0</ele><time>2026-04-25T14:35:18Z</time></trkpt><trkpt lat="46.422815367355206" lon="12.358789089300576"><ele>835.25</ele><time>2026-04-25T14:35:19Z</time></trkpt><trkpt lat="46.42288739141631" lon="12.358907909459695"><ele>834.5</ele><time>2026-04-25T14:35:20Z</time></trkpt><trkpt lat="46.422958515759525" lon="12.359030762026107"><ele>833.75</ele><time>2026-04-25T14:35:21Z</time></trkpt><trkpt lat="46.42302661392005" lon="12.359161439624687"><ele>833.0</ele><time>2026-04-25T14:35:22Z</time></trkpt><trkpt lat="46.42309941604614" lon="12.359294901535566"><ele>832.5</ele><time>2026-04-25T14:35:23Z</time></trkpt><trkpt lat="46.42317526125851" lon="12.359433704683816"><ele>832.0</ele><time>2026-04-25T14:35:24Z</time></trkpt><trkpt lat="46.42325049978593" lon="12.359574892345524"><ele>831.5</ele><time>2026-04-25T14:35:25Z</time></trkpt><trkpt lat="46.423325178610526" lon="12.359714825316228"><ele>831.0</ele><time>2026-04-25T14:35:26Z</time></trkpt><trkpt lat="46.423397163729305" lon="12.359841919905193"><ele>830.5999999999999</ele><time>2026-04-25T14:35:27Z</time></trkpt><trkpt lat="46.423461966001" lon="12.359960153104163"><ele>830.2</ele><time>2026-04-25T14:35:28Z</time></trkpt><trkpt lat="46.42352215649007" lon="12.360071192966"><ele>829.8</ele><time>2026-04-25T14:35:29Z</time></trkpt><trkpt lat="46.423578972102156" lon="12.360171576741807"><ele>829.4000000000001</ele><time>2026-04-25T14:35:30Z</time></trkpt><trkpt lat="46.423633889634296" lon="12.360273610363913"><ele>829.0</ele><time>2026-04-25T14:35:31Z</time></trkpt><trkpt lat="46.423691996171506" lon="12.360380588853051"><ele>828.9999999999999</ele><time>2026-04-25T14:35:32Z</time></trkpt><trkpt lat="46.42375367342061" lon="12.360489454824496"><ele>829.0</ele><time>2026-04-25T14:35:32.999Z</time></trkpt><trkpt lat="46.423810473600696" lon="12.36059890846966"><ele>829.0</ele><time>2026-04-25T14:35:33.999Z</time></trkpt><trkpt lat="46.42385877309566" lon="12.360708124748689"><ele>829.0</ele><time>2026-04-25T14:35:34.999Z</time></trkpt><trkpt lat="46.42389439887751" lon="12.36081652417765"><ele>828.9999999999999</ele><time>2026-04-25T14:35:35.999Z</time></trkpt><trkpt lat="46.42391267981464" lon="12.360930272183007"><ele>829.0</ele><time>2026-04-25T14:35:36.999Z</time></trkpt><trkpt lat="46.423911588826925" lon="12.361042636019258"><ele>829.8000000000001</ele><time>2026-04-25T14:35:37.999Z</time></trkpt><trkpt lat="46.423872057587715" lon="12.361133900580445"><ele>830.6</ele><time>2026-04-25T14:35:38.999Z</time></trkpt><trkpt lat="46.42380610790241" lon="12.361264577164144"><ele>831.4</ele><time>2026-04-25T14:35:40.999Z</time></trkpt><trkpt lat="46.4238370349331" lon="12.361407140915219"><ele>832.2</ele><time>2026-04-25T14:35:42.999Z</time></trkpt><trkpt lat="46.42386820267201" lon="12.361492223346499"><ele>833.0</ele><time>2026-04-25T14:35:43.999Z</time></trkpt><trkpt lat="46.423922015842884" lon="12.361607589327546"><ele>833.1666666666667</ele><time>2026-04-25T14:35:45.999Z</time></trkpt><trkpt lat="46.423934355555176" lon="12.36169925767252"><ele>833.3333333333334</ele><time>2026-04-25T14:35:46.999Z</time></trkpt><trkpt lat="46.42391678665189" lon="12.36180885610221"><ele>833.5</ele><time>2026-04-25T14:35:47.999Z</time></trkpt><trkpt lat="46.42385784391413" lon="12.361900283124045"><ele>833.6666666666667</ele><time>2026-04-25T14:35:48.999Z</time></trkpt><trkpt lat="46.42379238323053" lon="12.362003708094877"><ele>833.8333333333334</ele><time>2026-04-25T14:35:49.999Z</time></trkpt><trkpt lat="46.42372762790026" lon="12.36211986314066"><ele>834.0</ele><time>2026-04-25T14:35:50.999Z</time></trkpt><trkpt lat="46.42366845172871" lon="12.362233203242642"><ele>834.5</ele><time>2026-04-25T14:35:51.999Z</time></trkpt><trkpt lat="46.42363928849735" lon="12.362376153506526"><ele>835.0</ele><time>2026-04-25T14:35:52.999Z</time></trkpt><trkpt lat="46.42359171355961" lon="12.362524014364762"><ele>835.5</ele><time>2026-04-25T14:35:53.999Z</time></trkpt><trkpt lat="46.423599777767336" lon="12.362708277232056"><ele>836.0</ele><time>2026-04-25T14:35:54.999Z</time></trkpt><trkpt lat="46.42357431644859" lon="12.3628927669516"><ele>836.4</ele><time>2026-04-25T14:35:55.999Z</time></trkpt><trkpt lat="46.4235742575042" lon="12.363069229081505"><ele>836.8</ele><time>2026-04-25T14:35:56.999Z</time></trkpt><trkpt lat="46.42358062769569" lon="12.363233486519718"><ele>837.1999999999999</ele><time>2026-04-25T14:35:57.999Z</time></trkpt><trkpt lat="46.42358535943624" lon="12.363385304412576"><ele>837.5999999999999</ele><time>2026-04-25T14:35:58.999Z</time></trkpt><trkpt lat="46.423588547252" lon="12.36353374012365"><ele>838.0</ele><time>2026-04-25T14:35:59.999Z</time></trkpt><trkpt lat="46.42356709352474" lon="12.363680958859586"><ele>838.0</ele><time>2026-04-25T14:36:00.999Z</time></trkpt><trkpt lat="46.42360350158953" lon="12.363835937157699"><ele>838.0</ele><time>2026-04-25T14:36:01.999Z</time></trkpt><trkpt lat="46.4236274952425" lon="12.363993688565175"><ele>838.0</ele><time>2026-04-25T14:36:02.999Z</time></trkpt><trkpt lat="46.42363036812196" lon="12.364163145276972"><ele>838.0</ele><time>2026-04-25T14:36:03.999Z</time></trkpt><trkpt lat="46.42362786765774" lon="12.364320952876719"><ele>837.4</ele><time>2026-04-25T14:36:04.999Z</time></trkpt><trkpt lat="46.423631893650665" lon="12.364465595421928"><ele>836.8</ele><time>2026-04-25T14:36:05.999Z</time></trkpt><trkpt lat="46.42365822528601" lon="12.364604800292055"><ele>836.2</ele><time>2026-04-25T14:36:06.999Z</time></trkpt><trkpt lat="46.423712410783615" lon="12.364732225550242"><ele>835.6</ele><time>2026-04-25T14:36:07.999Z</time></trkpt><trkpt lat="46.42380133712204" lon="12.364830149158594"><ele>835.0</ele><time>2026-04-25T14:36:08.999Z</time></trkpt><trkpt lat="46.423917870996945" lon="12.364908333842692"><ele>832.0</ele><time>2026-04-25T14:36:09.999Z</time></trkpt><trkpt lat="46.42404310974989" lon="12.364974314447556"><ele>829.0</ele><time>2026-04-25T14:36:10.999Z</time></trkpt><trkpt lat="46.42417485797435" lon="12.36501758310878"><ele>826.0</ele><time>2026-04-25T14:36:12Z</time></trkpt><trkpt lat="46.42429406512968" lon="12.36509430375738"><ele>823.0</ele><time>2026-04-25T14:36:13Z</time></trkpt><trkpt lat="46.424390651666855" lon="12.365177638279784"><ele>823.0</ele><time>2026-04-25T14:36:14Z</time></trkpt><trkpt lat="46.424462162823836" lon="12.365276003700284"><ele>823.0</ele><time>2026-04-25T14:36:15Z</time></trkpt><trkpt lat="46.42449254069463" lon="12.365406937979833"><ele>823.0</ele><time>2026-04-25T14:36:16Z</time></trkpt><trkpt lat="46.42447724275621" lon="12.365542602703574"><ele>823.0</ele><time>2026-04-25T14:36:17Z</time></trkpt><trkpt lat="46.42442592773581" lon="12.365681889340335"><ele>823.0</ele><time>2026-04-25T14:36:18Z</time></trkpt><trkpt lat="46.42436799026644" lon="12.365815359610366"><ele>821.4</ele><time>2026-04-25T14:36:19Z</time></trkpt><trkpt lat="46.42431495222224" lon="12.365944233157515"><ele>819.8</ele><time>2026-04-25T14:36:20Z</time></trkpt><trkpt lat="46.42426418244408" lon="12.366075131274572"><ele>818.2</ele><time>2026-04-25T14:36:21Z</time></trkpt><trkpt lat="46.42421913906828" lon="12.366203013177744"><ele>816.6</ele><time>2026-04-25T14:36:22Z</time></trkpt><trkpt lat="46.42418142931969" lon="12.366334797681612"><ele>815.0</ele><time>2026-04-25T14:36:23Z</time></trkpt><trkpt lat="46.42414064014979" lon="12.36647117905376"><ele>814.75</ele><time>2026-04-25T14:36:24Z</time></trkpt><trkpt lat="46.42409913151776" lon="12.366615409473532"><ele>814.5</ele><time>2026-04-25T14:36:25Z</time></trkpt><trkpt lat="46.42405971420869" lon="12.366768166530441"><ele>814.25</ele><time>2026-04-25T14:36:26Z</time></trkpt><trkpt lat="46.4240117239705" lon="12.366934752116988"><ele>814.0</ele><time>2026-04-25T14:36:27Z</time></trkpt><trkpt lat="46.42395846045439" lon="12.36710776964078"><ele>814.25</ele><time>2026-04-25T14:36:28Z</time></trkpt><trkpt lat="46.423905648064604" lon="12.367290781826847"><ele>814.5</ele><time>2026-04-25T14:36:29Z</time></trkpt><trkpt lat="46.42386065115412" lon="12.36746987334026"><ele>814.75</ele><time>2026-04-25T14:36:30Z</time></trkpt><trkpt lat="46.423824858427345" lon="12.367656200026895"><ele>815.0</ele><time>2026-04-25T14:36:31Z</time></trkpt><trkpt lat="46.4238049901917" lon="12.367850308578646"><ele>810.75</ele><time>2026-04-25T14:36:32Z</time></trkpt><trkpt lat="46.42379220258661" lon="12.368046941726357"><ele>806.5</ele><time>2026-04-25T14:36:33Z</time></trkpt><trkpt lat="46.423774690060775" lon="12.368245511508352"><ele>802.25</ele><time>2026-04-25T14:36:34Z</time></trkpt><trkpt lat="46.42376216287734" lon="12.368448033420606"><ele>798.0</ele><time>2026-04-25T14:36:35Z</time></trkpt><trkpt lat="46.42374335071322" lon="12.368651115358649"><ele>798.0</ele><time>2026-04-25T14:36:36Z</time></trkpt><trkpt lat="46.42373148280958" lon="12.368856509565106"><ele>798.0</ele><time>2026-04-25T14:36:37Z</time></trkpt><trkpt lat="46.42371350572283" lon="12.369054127678671"><ele>798.0</ele><time>2026-04-25T14:36:38Z</time></trkpt><trkpt lat="46.423691820597014" lon="12.369245023060959"><ele>798.0</ele><time>2026-04-25T14:36:39Z</time></trkpt><trkpt lat="46.423652579184036" lon="12.369421686963983"><ele>798.0</ele><time>2026-04-25T14:36:40Z</time></trkpt><trkpt lat="46.42359963645895" lon="12.369593233098545"><ele>798.0</ele><time>2026-04-25T14:36:41Z</time></trkpt><trkpt lat="46.42353821251997" lon="12.369762530753874"><ele>798.0</ele><time>2026-04-25T14:36:42Z</time></trkpt><trkpt lat="46.42347345434932" lon="12.36991578166947"><ele>798.0</ele><time>2026-04-25T14:36:43Z</time></trkpt><trkpt lat="46.4234041724853" lon="12.370045384870853"><ele>798.0</ele><time>2026-04-25T14:36:44Z</time></trkpt><trkpt lat="46.42333252637232" lon="12.37015624218268"><ele>798.0</ele><time>2026-04-25T14:36:45Z</time></trkpt><trkpt lat="46.42326174233042" lon="12.370250992306152"><ele>798.0</ele><time>2026-04-25T14:36:46Z</time></trkpt><trkpt lat="46.423184153030576" lon="12.370319712583521"><ele>798.0</ele><time>2026-04-25T14:36:47Z</time></trkpt><trkpt lat="46.423101039801956" lon="12.370357397603986"><ele>798.0</ele><time>2026-04-25T14:36:48Z</time></trkpt><trkpt lat="46.42301096796916" lon="12.370333394999003"><ele>796.8</ele><time>2026-04-25T14:36:49Z</time></trkpt><trkpt lat="46.42292454460086" lon="12.37027931041304"><ele>795.5999999999999</ele><time>2026-04-25T14:36:50Z</time></trkpt><trkpt lat="46.42284043508734" lon="12.37026207327232"><ele>794.4000000000001</ele><time>2026-04-25T14:36:51Z</time></trkpt><trkpt lat="46.42274716546312" lon="12.370300614276827"><ele>793.2</ele><time>2026-04-25T14:36:52Z</time></trkpt><trkpt lat="46.42265108161776" lon="12.370376422944352"><ele>792.0</ele><time>2026-04-25T14:36:53Z</time></trkpt><trkpt lat="46.42255198696479" lon="12.370456495642543"><ele>792.0</ele><time>2026-04-25T14:36:54Z</time></trkpt><trkpt lat="46.42244924326172" lon="12.370532088976383"><ele>792.0</ele><time>2026-04-25T14:36:55Z</time></trkpt><trkpt lat="46.4223468708591" lon="12.370611054268837"><ele>792.0</ele><time>2026-04-25T14:36:56Z</time></trkpt><trkpt lat="46.42224813313716" lon="12.370688878008037"><ele>792.0</ele><time>2026-04-25T14:36:57Z</time></trkpt><trkpt lat="46.42214734423196" lon="12.370761090806678"><ele>791.2</ele><time>2026-04-25T14:36:58Z</time></trkpt><trkpt lat="46.422044146372805" lon="12.370828205224889"><ele>790.4000000000001</ele><time>2026-04-25T14:36:59Z</time></trkpt><trkpt lat="46.42195623314128" lon="12.370895571547232"><ele>789.5999999999999</ele><time>2026-04-25T14:37:00Z</time></trkpt><trkpt lat="46.42187528431724" lon="12.37095918213461"><ele>788.8</ele><time>2026-04-25T14:37:01Z</time></trkpt><trkpt lat="46.4218126491564" lon="12.371018077612067"><ele>788.0</ele><time>2026-04-25T14:37:02Z</time></trkpt><trkpt lat="46.42176240919184" lon="12.371091875756504"><ele>788.0</ele><time>2026-04-25T14:37:03Z</time></trkpt><trkpt lat="46.4217424813596" lon="12.371206029003524"><ele>788.0</ele><time>2026-04-25T14:37:04Z</time></trkpt><trkpt lat="46.42178311982605" lon="12.371342772617895"><ele>788.0</ele><time>2026-04-25T14:37:05Z</time></trkpt><trkpt lat="46.42184031546075" lon="12.371491247392939"><ele>788.0</ele><time>2026-04-25T14:37:06Z</time></trkpt><trkpt lat="46.42183361597607" lon="12.371633126943244"><ele>788.0</ele><time>2026-04-25T14:37:07Z</time></trkpt><trkpt lat="46.42185000404475" lon="12.371766610695161"><ele>787.6666666666667</ele><time>2026-04-25T14:37:08Z</time></trkpt><trkpt lat="46.421841186013104" lon="12.371885386770806"><ele>787.3333333333334</ele><time>2026-04-25T14:37:09Z</time></trkpt><trkpt lat="46.421821447321285" lon="12.371982568645572"><ele>787.0</ele><time>2026-04-25T14:37:10Z</time></trkpt><trkpt lat="46.421769348344036" lon="12.372047084019213"><ele>786.6666666666667</ele><time>2026-04-25T14:37:11Z</time></trkpt><trkpt lat="46.421686788874396" lon="12.372066294288402"><ele>786.3333333333334</ele><time>2026-04-25T14:37:12Z</time></trkpt><trkpt lat="46.421610780319426" lon="12.372015861431171"><ele>786.0</ele><time>2026-04-25T14:37:13Z</time></trkpt><trkpt lat="46.42155687995158" lon="12.371930971668235"><ele>786.0000000000001</ele><time>2026-04-25T14:37:14Z</time></trkpt><trkpt lat="46.421509883599384" lon="12.371859146677153"><ele>786.0</ele><time>2026-04-25T14:37:15Z</time></trkpt><trkpt lat="46.42145737200539" lon="12.371800866993636"><ele>786.0</ele><time>2026-04-25T14:37:16Z</time></trkpt><trkpt lat="46.421398734080405" lon="12.371758977798192"><ele>786.0</ele><time>2026-04-25T14:37:17Z</time></trkpt><trkpt lat="46.421332453106956" lon="12.371739873032787"><ele>786.0</ele><time>2026-04-25T14:37:18Z</time></trkpt><trkpt lat="46.42125381021796" lon="12.371749397064619"><ele>786.0000000000001</ele><time>2026-04-25T14:37:19Z</time></trkpt><trkpt lat="46.421177047489664" lon="12.371799567146953"><ele>786.0</ele><time>2026-04-25T14:37:20Z</time></trkpt><trkpt lat="46.42111731619277" lon="12.371887903451547"><ele>785.8333333333334</ele><time>2026-04-25T14:37:21Z</time></trkpt><trkpt lat="46.42108358102717" lon="12.371999044768556"><ele>785.6666666666667</ele><time>2026-04-25T14:37:22Z</time></trkpt><trkpt lat="46.42107169483274" lon="12.372116568452663"><ele>785.5</ele><time>2026-04-25T14:37:23Z</time></trkpt><trkpt lat="46.421077189919124" lon="12.372227052446146"><ele>785.3333333333334</ele><time>2026-04-25T14:37:24Z</time></trkpt><trkpt lat="46.42110060458905" lon="12.372325250759296"><ele>785.1666666666667</ele><time>2026-04-25T14:37:25Z</time></trkpt><trkpt lat="46.42113870744007" lon="12.372401219821747"><ele>785.0</ele><time>2026-04-25T14:37:26Z</time></trkpt><trkpt lat="46.42121980430254" lon="12.372466174801879"><ele>784.5000000000001</ele><time>2026-04-25T14:37:28Z</time></trkpt><trkpt lat="46.42128300845641" lon="12.372456308438903"><ele>784.0</ele><time>2026-04-25T14:37:30Z</time></trkpt><trkpt lat="46.4213532759862" lon="12.372451268788366"><ele>783.5</ele><time>2026-04-25T14:37:32Z</time></trkpt><trkpt lat="46.42143637476309" lon="12.372421255066467"><ele>783.0</ele><time>2026-04-25T14:37:34Z</time></trkpt><trkpt lat="46.42152020614445" lon="12.372458242744013"><ele>782.5000000000001</ele><time>2026-04-25T14:37:35.999Z</time></trkpt><trkpt lat="46.42157687172748" lon="12.372586314509451"><ele>782.0</ele><time>2026-04-25T14:37:37.999Z</time></trkpt><trkpt lat="46.42154900661698" lon="12.372693303490562"><ele>782.0</ele><time>2026-04-25T14:37:38.999Z</time></trkpt><trkpt lat="46.42150581531488" lon="12.372802095108048"><ele>782.0</ele><time>2026-04-25T14:37:39.999Z</time></trkpt><trkpt lat="46.42146590134988" lon="12.37292535788922"><ele>782.0</ele><time>2026-04-25T14:37:40.999Z</time></trkpt><trkpt lat="46.42142012976337" lon="12.373050549413147"><ele>782.0</ele><time>2026-04-25T14:37:41.999Z</time></trkpt><trkpt lat="46.42137180425952" lon="12.373170768561883"><ele>782.0</ele><time>2026-04-25T14:37:42.999Z</time></trkpt><trkpt lat="46.42132880975003" lon="12.3732813374603"><ele>779.1666666666667</ele><time>2026-04-25T14:37:43.999Z</time></trkpt><trkpt lat="46.4212910163157" lon="12.373383733129184"><ele>776.3333333333334</ele><time>2026-04-25T14:37:44.999Z</time></trkpt><trkpt lat="46.42125620289199" lon="12.373480224764322"><ele>773.5</ele><time>2026-04-25T14:37:45.999Z</time></trkpt><trkpt lat="46.42123234982685" lon="12.373580477779516"><ele>770.6666666666667</ele><time>2026-04-25T14:37:46.999Z</time></trkpt><trkpt lat="46.421220623859185" lon="12.373683508149655"><ele>767.8333333333334</ele><time>2026-04-25T14:37:47.999Z</time></trkpt><trkpt lat="46.42122341789579" lon="12.373806136666456"><ele>765.0</ele><time>2026-04-25T14:37:48.999Z</time></trkpt><trkpt lat="46.421238141916334" lon="12.37393820423904"><ele>764.8</ele><time>2026-04-25T14:37:49.999Z</time></trkpt><trkpt lat="46.42125953534745" lon="12.374075760310035"><ele>764.6</ele><time>2026-04-25T14:37:50.999Z</time></trkpt><trkpt lat="46.42129239023212" lon="12.374218070290661"><ele>764.4000000000001</ele><time>2026-04-25T14:37:51.999Z</time></trkpt><trkpt lat="46.42132782522057" lon="12.374352004467832"><ele>764.2</ele><time>2026-04-25T14:37:52.999Z</time></trkpt><trkpt lat="46.42136554193861" lon="12.374478802001764"><ele>764.0</ele><time>2026-04-25T14:37:53.999Z</time></trkpt><trkpt lat="46.42139246584223" lon="12.374602118232726"><ele>765.3333333333333</ele><time>2026-04-25T14:37:54.999Z</time></trkpt><trkpt lat="46.421414662152095" lon="12.374722102588516"><ele>766.6666666666666</ele><time>2026-04-25T14:37:55.999Z</time></trkpt><trkpt lat="46.421467236118" lon="12.374821768772565"><ele>768.0</ele><time>2026-04-25T14:37:56.999Z</time></trkpt><trkpt lat="46.421512063395596" lon="12.374919462544055"><ele>769.3333333333333</ele><time>2026-04-25T14:37:57.999Z</time></trkpt><trkpt lat="46.42156185434013" lon="12.375007287656683"><ele>770.6666666666666</ele><time>2026-04-25T14:37:58.999Z</time></trkpt><trkpt lat="46.42161286828483" lon="12.375080905413824"><ele>772.0</ele><time>2026-04-25T14:37:59.999Z</time></trkpt><trkpt lat="46.42167909097636" lon="12.37517751291878"><ele>772.0</ele><time>2026-04-25T14:38:01.999Z</time></trkpt><trkpt lat="46.4216971466025" lon="12.375277026449524"><ele>772.0</ele><time>2026-04-25T14:38:04.999Z</time></trkpt><trkpt lat="46.421557723302236" lon="12.375349537261412"><ele>772.0</ele><time>2026-04-25T14:38:06.999Z</time></trkpt><trkpt lat="46.42148068977083" lon="12.375358051392839"><ele>772.0</ele><time>2026-04-25T14:38:07.999Z</time></trkpt><trkpt lat="46.42139000076433" lon="12.375392196831543"><ele>772.0</ele><time>2026-04-25T14:38:08.999Z</time></trkpt><trkpt lat="46.4212812776227" lon="12.375416595977546"><ele>769.75</ele><time>2026-04-25T14:38:09.999Z</time></trkpt><trkpt lat="46.421159433407546" lon="12.37544420717933"><ele>767.5</ele><time>2026-04-25T14:38:10.999Z</time></trkpt><trkpt lat="46.42103955495011" lon="12.37547961801792"><ele>765.25</ele><time>2026-04-25T14:38:11.999Z</time></trkpt><trkpt lat="46.42092084474612" lon="12.375519269224622"><ele>763.0</ele><time>2026-04-25T14:38:12.999Z</time></trkpt><trkpt lat="46.42080561062681" lon="12.375577091511325"><ele>761.75</ele><time>2026-04-25T14:38:13.999Z</time></trkpt><trkpt lat="46.420705165333466" lon="12.375653582839472"><ele>760.5</ele><time>2026-04-25T14:38:14.999Z</time></trkpt><trkpt lat="46.42060991388383" lon="12.375750106747006"><ele>759.25</ele><time>2026-04-25T14:38:15.999Z</time></trkpt><trkpt lat="46.42051526849527" lon="12.375842126848102"><ele>758.0</ele><time>2026-04-25T14:38:16.999Z</time></trkpt><trkpt lat="46.42042333595917" lon="12.375943266522862"><ele>761.25</ele><time>2026-04-25T14:38:18Z</time></trkpt><trkpt lat="46.42035734306591" lon="12.376111464678791"><ele>764.5</ele><time>2026-04-25T14:38:19Z</time></trkpt><trkpt lat="46.42028785905195" lon="12.376279015575655"><ele>767.75</ele><time>2026-04-25T14:38:20Z</time></trkpt><trkpt lat="46.42022664306764" lon="12.376437834326335"><ele>771.0</ele><time>2026-04-25T14:38:21Z</time></trkpt><trkpt lat="46.420174992276884" lon="12.376594666849467"><ele>771.0</ele><time>2026-04-25T14:38:22Z</time></trkpt><trkpt lat="46.42013292631966" lon="12.376751029396376"><ele>771.0</ele><time>2026-04-25T14:38:23Z</time></trkpt><trkpt lat="46.420126627358556" lon="12.376926851726623"><ele>771.0</ele><time>2026-04-25T14:38:24Z</time></trkpt><trkpt lat="46.42013370466236" lon="12.37706727025738"><ele>771.0</ele><time>2026-04-25T14:38:25Z</time></trkpt><trkpt lat="46.42013486618204" lon="12.37718564552676"><ele>771.0</ele><time>2026-04-25T14:38:26Z</time></trkpt><trkpt lat="46.420121561511216" lon="12.377293629276785"><ele>771.1999999999999</ele><time>2026-04-25T14:38:27Z</time></trkpt><trkpt lat="46.420061174282395" lon="12.37737074604165"><ele>771.4</ele><time>2026-04-25T14:38:28Z</time></trkpt><trkpt lat="46.4199728534674" lon="12.377423039423022"><ele>771.6</ele><time>2026-04-25T14:38:29Z</time></trkpt><trkpt lat="46.41986372739734" lon="12.377406871351935"><ele>771.8</ele><time>2026-04-25T14:38:30Z</time></trkpt><trkpt lat="46.41973094623529" lon="12.377400569093124"><ele>772.0</ele><time>2026-04-25T14:38:31Z</time></trkpt><trkpt lat="46.41958860036271" lon="12.377395036442339"><ele>772.0</ele><time>2026-04-25T14:38:32Z</time></trkpt><trkpt lat="46.41945180081423" lon="12.377400933456665"><ele>772.0</ele><time>2026-04-25T14:38:33Z</time></trkpt><trkpt lat="46.419323907871636" lon="12.377411426474717"><ele>772.0</ele><time>2026-04-25T14:38:34Z</time></trkpt><trkpt lat="46.419197956712594" lon="12.377444591785983"><ele>772.0</ele><time>2026-04-25T14:38:35Z</time></trkpt><trkpt lat="46.419074977415384" lon="12.37744462979621"><ele>772.0</ele><time>2026-04-25T14:38:36Z</time></trkpt><trkpt lat="46.41894702165498" lon="12.377409011885169"><ele>772.0</ele><time>2026-04-25T14:38:37Z</time></trkpt><trkpt lat="46.41881417193021" lon="12.377372324302984"><ele>772.0</ele><time>2026-04-25T14:38:38Z</time></trkpt><trkpt lat="46.41866049256719" lon="12.377326151742087"><ele>772.0</ele><time>2026-04-25T14:38:39Z</time></trkpt><trkpt lat="46.418521499452076" lon="12.377281605865392"><ele>772.75</ele><time>2026-04-25T14:38:40Z</time></trkpt><trkpt lat="46.41840001203163" lon="12.377207179803914"><ele>773.5</ele><time>2026-04-25T14:38:41Z</time></trkpt><trkpt lat="46.41828417203417" lon="12.377173019830677"><ele>774.25</ele><time>2026-04-25T14:38:42Z</time></trkpt><trkpt lat="46.41817240032696" lon="12.377104912923121"><ele>775.0</ele><time>2026-04-25T14:38:43Z</time></trkpt><trkpt lat="46.41806229703549" lon="12.377026533777554"><ele>775.5</ele><time>2026-04-25T14:38:44Z</time></trkpt><trkpt lat="46.41794912157108" lon="12.376939377297337"><ele>776.0</ele><time>2026-04-25T14:38:45Z</time></trkpt><trkpt lat="46.41781329424911" lon="12.376857137265358"><ele>776.5</ele><time>2026-04-25T14:38:46Z</time></trkpt><trkpt lat="46.41767556923216" lon="12.376782067730803"><ele>777.0</ele><time>2026-04-25T14:38:47Z</time></trkpt><trkpt lat="46.4175564541946" lon="12.376719930851587"><ele>777.0</ele><time>2026-04-25T14:38:48Z</time></trkpt><trkpt lat="46.417443194539665" lon="12.376669259935156"><ele>777.0</ele><time>2026-04-25T14:38:49Z</time></trkpt><trkpt lat="46.41733678981201" lon="12.376622180307274"><ele>777.0</ele><time>2026-04-25T14:38:50Z</time></trkpt><trkpt lat="46.4172367588264" lon="12.376557266775364"><ele>777.0</ele><time>2026-04-25T14:38:51Z</time></trkpt><trkpt lat="46.41714406296654" lon="12.376476981414484"><ele>777.0</ele><time>2026-04-25T14:38:52Z</time></trkpt><trkpt lat="46.41705195688654" lon="12.376391993760098"><ele>776.5</ele><time>2026-04-25T14:38:53Z</time></trkpt><trkpt lat="46.416956639967076" lon="12.376303252760794"><ele>776.0</ele><time>2026-04-25T14:38:54Z</time></trkpt><trkpt lat="46.4168626466427" lon="12.376198822838857"><ele>775.5</ele><time>2026-04-25T14:38:55Z</time></trkpt><trkpt lat="46.41676541468581" lon="12.376088469105078"><ele>775.0</ele><time>2026-04-25T14:38:56Z</time></trkpt><trkpt lat="46.41666251037316" lon="12.375974973563292"><ele>775.0</ele><time>2026-04-25T14:38:57Z</time></trkpt><trkpt lat="46.41655125277706" lon="12.375855888143162"><ele>775.0</ele><time>2026-04-25T14:38:58Z</time></trkpt><trkpt lat="46.416435030177226" lon="12.37573247501941"><ele>775.0</ele><time>2026-04-25T14:38:59Z</time></trkpt><trkpt lat="46.416331358501914" lon="12.375610282266313"><ele>775.0</ele><time>2026-04-25T14:39:00Z</time></trkpt><trkpt lat="46.41623190424902" lon="12.375490594290914"><ele>773.0</ele><time>2026-04-25T14:39:01Z</time></trkpt><trkpt lat="46.416135355312456" lon="12.375370891218259"><ele>771.0</ele><time>2026-04-25T14:39:02Z</time></trkpt><trkpt lat="46.4160605413885" lon="12.375257058178429"><ele>769.0</ele><time>2026-04-25T14:39:03Z</time></trkpt><trkpt lat="46.41600073638074" lon="12.375126376783738"><ele>767.0</ele><time>2026-04-25T14:39:04Z</time></trkpt><trkpt lat="46.41595307957616" lon="12.374965573216112"><ele>767.0</ele><time>2026-04-25T14:39:05Z</time></trkpt><trkpt lat="46.41591866558778" lon="12.374779802903962"><ele>767.0</ele><time>2026-04-25T14:39:06Z</time></trkpt><trkpt lat="46.415900598398274" lon="12.374559430781046"><ele>767.0</ele><time>2026-04-25T14:39:07Z</time></trkpt><trkpt lat="46.415877371796164" lon="12.374341353503965"><ele>767.0</ele><time>2026-04-25T14:39:08Z</time></trkpt><trkpt lat="46.41583938246157" lon="12.374150033369052"><ele>766.5</ele><time>2026-04-25T14:39:09Z</time></trkpt><trkpt lat="46.415788224679304" lon="12.373959749338766"><ele>766.0</ele><time>2026-04-25T14:39:10Z</time></trkpt><trkpt lat="46.41572959968387" lon="12.373786463079286"><ele>765.5</ele><time>2026-04-25T14:39:11Z</time></trkpt><trkpt lat="46.41565585443745" lon="12.373624801095298"><ele>765.0</ele><time>2026-04-25T14:39:12Z</time></trkpt><trkpt lat="46.41557329931874" lon="12.373473124814609"><ele>765.5</ele><time>2026-04-25T14:39:13Z</time></trkpt><trkpt lat="46.41548601334917" lon="12.37332828651195"><ele>766.0</ele><time>2026-04-25T14:39:14Z</time></trkpt><trkpt lat="46.41538618753463" lon="12.373191567982232"><ele>766.5</ele><time>2026-04-25T14:39:15Z</time></trkpt><trkpt lat="46.415282055218896" lon="12.373062967216502"><ele>767.0</ele><time>2026-04-25T14:39:16Z</time></trkpt><trkpt lat="46.415181285335485" lon="12.372957117505042"><ele>767.0</ele><time>2026-04-25T14:39:17Z</time></trkpt><trkpt lat="46.41508197766156" lon="12.372863589009098"><ele>767.0</ele><time>2026-04-25T14:39:18Z</time></trkpt><trkpt lat="46.41498305656956" lon="12.372782654444721"><ele>767.0</ele><time>2026-04-25T14:39:19Z</time></trkpt><trkpt lat="46.414875741096175" lon="12.37268884106009"><ele>767.0</ele><time>2026-04-25T14:39:20Z</time></trkpt><trkpt lat="46.414764283728026" lon="12.372569432779404"><ele>767.0</ele><time>2026-04-25T14:39:21Z</time></trkpt><trkpt lat="46.414660275779205" lon="12.372429250619653"><ele>767.0</ele><time>2026-04-25T14:39:22Z</time></trkpt><trkpt lat="46.41456775541004" lon="12.372260736374155"><ele>767.0</ele><time>2026-04-25T14:39:23Z</time></trkpt><trkpt lat="46.414468621751574" lon="12.37208663878812"><ele>767.0</ele><time>2026-04-25T14:39:24Z</time></trkpt><trkpt lat="46.414360259035625" lon="12.371907707874099"><ele>762.6666666666666</ele><time>2026-04-25T14:39:25Z</time></trkpt><trkpt lat="46.414252615515714" lon="12.371729145845071"><ele>758.3333333333334</ele><time>2026-04-25T14:39:26Z</time></trkpt><trkpt lat="46.41413877974676" lon="12.371557002246378"><ele>754.0</ele><time>2026-04-25T14:39:27Z</time></trkpt><trkpt lat="46.414016085560576" lon="12.37138610332506"><ele>752.6666666666667</ele><time>2026-04-25T14:39:28Z</time></trkpt><trkpt lat="46.41388043557107" lon="12.371224095307792"><ele>751.3333333333334</ele><time>2026-04-25T14:39:29Z</time></trkpt><trkpt lat="46.41374849155185" lon="12.371077770941234"><ele>750.0</ele><time>2026-04-25T14:39:30Z</time></trkpt><trkpt lat="46.4136279626777" lon="12.370937178289863"><ele>750.0</ele><time>2026-04-25T14:39:31Z</time></trkpt><trkpt lat="46.41351484504748" lon="12.370797657692505"><ele>750.0</ele><time>2026-04-25T14:39:32Z</time></trkpt><trkpt lat="46.41340334751868" lon="12.370651585211698"><ele>750.0</ele><time>2026-04-25T14:39:33Z</time></trkpt><trkpt lat="46.41329378299286" lon="12.370495260759856"><ele>750.3333333333334</ele><time>2026-04-25T14:39:34Z</time></trkpt><trkpt lat="46.413180200711174" lon="12.37033624977179"><ele>750.6666666666667</ele><time>2026-04-25T14:39:35Z</time></trkpt><trkpt lat="46.413054220165776" lon="12.370193738501245"><ele>751.0</ele><time>2026-04-25T14:39:36Z</time></trkpt><trkpt lat="46.41292226394407" lon="12.370060871502192"><ele>751.0</ele><time>2026-04-25T14:39:36.999Z</time></trkpt><trkpt lat="46.41279274342633" lon="12.369936911159556"><ele>751.0</ele><time>2026-04-25T14:39:37.999Z</time></trkpt><trkpt lat="46.41266534492474" lon="12.369810449965811"><ele>751.0</ele><time>2026-04-25T14:39:38.999Z</time></trkpt><trkpt lat="46.41254772816752" lon="12.369683565605133"><ele>751.25</ele><time>2026-04-25T14:39:39.999Z</time></trkpt><trkpt lat="46.412435723057804" lon="12.36956663545214"><ele>751.5</ele><time>2026-04-25T14:39:40.999Z</time></trkpt><trkpt lat="46.41233030343241" lon="12.369474260083889"><ele>751.75</ele><time>2026-04-25T14:39:41.999Z</time></trkpt><trkpt lat="46.41223214009337" lon="12.36940912543915"><ele>752.0</ele><time>2026-04-25T14:39:42.999Z</time></trkpt><trkpt lat="46.41212893394893" lon="12.369381193376057"><ele>752.0</ele><time>2026-04-25T14:39:43.999Z</time></trkpt><trkpt lat="46.4120286815975" lon="12.369388558204975"><ele>752.0</ele><time>2026-04-25T14:39:44.999Z</time></trkpt><trkpt lat="46.411941768040855" lon="12.369379019571689"><ele>752.0</ele><time>2026-04-25T14:39:45.999Z</time></trkpt><trkpt lat="46.41186793993099" lon="12.369354731739248"><ele>752.0</ele><time>2026-04-25T14:39:46.999Z</time></trkpt><trkpt lat="46.41181683840824" lon="12.369294497889932"><ele>752.0</ele><time>2026-04-25T14:39:47.999Z</time></trkpt><trkpt lat="46.41179249912705" lon="12.369156198058793"><ele>752.0</ele><time>2026-04-25T14:39:49.999Z</time></trkpt><trkpt lat="46.41181484422568" lon="12.36903773936703"><ele>752.0</ele><time>2026-04-25T14:39:55.999Z</time></trkpt><trkpt lat="46.41169808184085" lon="12.368894406974016"><ele>752.0</ele><time>2026-04-25T14:39:57.999Z</time></trkpt><trkpt lat="46.41159519324128" lon="12.368842338195172"><ele>752.0</ele><time>2026-04-25T14:39:58.999Z</time></trkpt><trkpt lat="46.411477227428364" lon="12.368779601298325"><ele>752.0</ele><time>2026-04-25T14:39:59.999Z</time></trkpt><trkpt lat="46.41133500510057" lon="12.368714937689631"><ele>753.3333333333333</ele><time>2026-04-25T14:40:00.999Z</time></trkpt><trkpt lat="46.41117821317332" lon="12.36864447900147"><ele>754.6666666666666</ele><time>2026-04-25T14:40:01.999Z</time></trkpt><trkpt lat="46.411011502562495" lon="12.368554008858336"><ele>756.0</ele><time>2026-04-25T14:40:02.999Z</time></trkpt><trkpt lat="46.41084647788278" lon="12.36844514064257"><ele>756.0</ele><time>2026-04-25T14:40:03.999Z</time></trkpt><trkpt lat="46.41068506020004" lon="12.368314979455961"><ele>756.0</ele><time>2026-04-25T14:40:04.999Z</time></trkpt><trkpt lat="46.41052428395877" lon="12.368168748581343"><ele>756.0</ele><time>2026-04-25T14:40:05.999Z</time></trkpt><trkpt lat="46.41037152640056" lon="12.368015440111638"><ele>755.6666666666666</ele><time>2026-04-25T14:40:06.999Z</time></trkpt><trkpt lat="46.410231132515804" lon="12.367865237224935"><ele>755.3333333333333</ele><time>2026-04-25T14:40:07.999Z</time></trkpt><trkpt lat="46.410098891828255" lon="12.36772960970445"><ele>755.0</ele><time>2026-04-25T14:40:08.999Z</time></trkpt><trkpt lat="46.40997494483575" lon="12.36760157275359"><ele>755.0</ele><time>2026-04-25T14:40:09.999Z</time></trkpt><trkpt lat="46.40985796450031" lon="12.367491211935373"><ele>755.0</ele><time>2026-04-25T14:40:10.999Z</time></trkpt><trkpt lat="46.40974781950469" lon="12.367392088318779"><ele>755.0</ele><time>2026-04-25T14:40:11.999Z</time></trkpt><trkpt lat="46.409639867627185" lon="12.367310186105593"><ele>755.0</ele><time>2026-04-25T14:40:12.999Z</time></trkpt><trkpt lat="46.409528647033156" lon="12.367240759690825"><ele>756.25</ele><time>2026-04-25T14:40:13.999Z</time></trkpt><trkpt lat="46.40941014387764" lon="12.367175267194547"><ele>757.5</ele><time>2026-04-25T14:40:14.999Z</time></trkpt><trkpt lat="46.4092846599886" lon="12.367127783914299"><ele>758.75</ele><time>2026-04-25T14:40:15.999Z</time></trkpt><trkpt lat="46.409148505261285" lon="12.367095769235972"><ele>760.0</ele><time>2026-04-25T14:40:16.999Z</time></trkpt><trkpt lat="46.409003536776716" lon="12.367070552966508"><ele>760.0</ele><time>2026-04-25T14:40:17.999Z</time></trkpt><trkpt lat="46.408858104897014" lon="12.367063444276985"><ele>760.0</ele><time>2026-04-25T14:40:18.999Z</time></trkpt><trkpt lat="46.40871482005829" lon="12.367085840199058"><ele>760.0</ele><time>2026-04-25T14:40:19.999Z</time></trkpt><trkpt lat="46.40856786453166" lon="12.367128775029274"><ele>760.0</ele><time>2026-04-25T14:40:20.999Z</time></trkpt><trkpt lat="46.40841899858282" lon="12.367198611037708"><ele>749.3333333333334</ele><time>2026-04-25T14:40:21.999Z</time></trkpt><trkpt lat="46.40827546742149" lon="12.36729139411084"><ele>738.6666666666666</ele><time>2026-04-25T14:40:23Z</time></trkpt><trkpt lat="46.408136217487225" lon="12.367394038129675"><ele>728.0</ele><time>2026-04-25T14:40:24Z</time></trkpt><trkpt lat="46.408004571052885" lon="12.367503947873752"><ele>728.5</ele><time>2026-04-25T14:40:25Z</time></trkpt><trkpt lat="46.407876153221316" lon="12.367620353709544"><ele>729.0</ele><time>2026-04-25T14:40:26Z</time></trkpt><trkpt lat="46.40775414063796" lon="12.367730639254995"><ele>729.5</ele><time>2026-04-25T14:40:27Z</time></trkpt><trkpt lat="46.40763030454162" lon="12.367838244925634"><ele>730.0</ele><time>2026-04-25T14:40:28Z</time></trkpt><trkpt lat="46.407508088295366" lon="12.36795323134154"><ele>724.0</ele><time>2026-04-25T14:40:29Z</time></trkpt><trkpt lat="46.407387056918886" lon="12.368065532926144"><ele>718.0</ele><time>2026-04-25T14:40:30Z</time></trkpt><trkpt lat="46.40726491352555" lon="12.368173089896471"><ele>712.0</ele><time>2026-04-25T14:40:31Z</time></trkpt><trkpt lat="46.407141243857474" lon="12.368292082669216"><ele>706.0</ele><time>2026-04-25T14:40:32Z</time></trkpt><trkpt lat="46.40700878488305" lon="12.368406478361088"><ele>704.0</ele><time>2026-04-25T14:40:33Z</time></trkpt><trkpt lat="46.406881580143725" lon="12.36853416615238"><ele>702.0</ele><time>2026-04-25T14:40:34Z</time></trkpt><trkpt lat="46.406736745589484" lon="12.368654510782708"><ele>700.0</ele><time>2026-04-25T14:40:35Z</time></trkpt><trkpt lat="46.40659803215194" lon="12.368779820427791"><ele>692.6666666666667</ele><time>2026-04-25T14:40:36Z</time></trkpt><trkpt lat="46.4064545208087" lon="12.368907143600913"><ele>685.3333333333334</ele><time>2026-04-25T14:40:37Z</time></trkpt><trkpt lat="46.40630352778333" lon="12.369040118086769"><ele>678.0</ele><time>2026-04-25T14:40:38Z</time></trkpt><trkpt lat="46.406147003010524" lon="12.36917624085091"><ele>676.0</ele><time>2026-04-25T14:40:39Z</time></trkpt><trkpt lat="46.40598819492039" lon="12.369317637517169"><ele>674.0</ele><time>2026-04-25T14:40:40Z</time></trkpt><trkpt lat="46.40582735261476" lon="12.36946511376063"><ele>672.0</ele><time>2026-04-25T14:40:41Z</time></trkpt><trkpt lat="46.40566096818584" lon="12.36961372393916"><ele>678.3333333333334</ele><time>2026-04-25T14:40:42Z</time></trkpt><trkpt lat="46.40548728908554" lon="12.369764081819529"><ele>684.6666666666667</ele><time>2026-04-25T14:40:43Z</time></trkpt><trkpt lat="46.40531602825425" lon="12.369916413469877"><ele>691.0</ele><time>2026-04-25T14:40:44Z</time></trkpt><trkpt lat="46.40514723146089" lon="12.370068973909113"><ele>691.0</ele><time>2026-04-25T14:40:45Z</time></trkpt><trkpt lat="46.40498484176449" lon="12.37021254358587"><ele>691.0</ele><time>2026-04-25T14:40:46Z</time></trkpt><trkpt lat="46.40483165171548" lon="12.370348556832305"><ele>691.0</ele><time>2026-04-25T14:40:47Z</time></trkpt><trkpt lat="46.404680280142514" lon="12.3704848460543"><ele>686.0</ele><time>2026-04-25T14:40:48Z</time></trkpt><trkpt lat="46.40452949259079" lon="12.37062097623172"><ele>681.0</ele><time>2026-04-25T14:40:49Z</time></trkpt><trkpt lat="46.404380251267845" lon="12.370756471747697"><ele>676.0</ele><time>2026-04-25T14:40:50Z</time></trkpt><trkpt lat="46.40423230345818" lon="12.370890381113634"><ele>676.0</ele><time>2026-04-25T14:40:51Z</time></trkpt><trkpt lat="46.40408826171131" lon="12.371017642344075"><ele>676.0</ele><time>2026-04-25T14:40:52Z</time></trkpt><trkpt lat="46.40394847729689" lon="12.371143311396182"><ele>676.0</ele><time>2026-04-25T14:40:53Z</time></trkpt><trkpt lat="46.40381147936289" lon="12.371264294101474"><ele>655.0</ele><time>2026-04-25T14:40:54Z</time></trkpt><trkpt lat="46.40366760402515" lon="12.371388127182326"><ele>634.0</ele><time>2026-04-25T14:40:55Z</time></trkpt><trkpt lat="46.403523729104954" lon="12.371517276144045"><ele>613.0</ele><time>2026-04-25T14:40:56Z</time></trkpt><trkpt lat="46.40337367123809" lon="12.371651367988319"><ele>613.0</ele><time>2026-04-25T14:40:57Z</time></trkpt><trkpt lat="46.403217716186376" lon="12.371791732383652"><ele>613.0</ele><time>2026-04-25T14:40:58Z</time></trkpt><trkpt lat="46.403055184369194" lon="12.371935860081816"><ele>613.0</ele><time>2026-04-25T14:40:59Z</time></trkpt><trkpt lat="46.402887486840946" lon="12.372081214937179"><ele>610.3333333333334</ele><time>2026-04-25T14:41:00Z</time></trkpt><trkpt lat="46.402719741759846" lon="12.372232051291931"><ele>607.6666666666666</ele><time>2026-04-25T14:41:01Z</time></trkpt><trkpt lat="46.402556575250955" lon="12.372382053038312"><ele>605.0</ele><time>2026-04-25T14:41:02Z</time></trkpt><trkpt lat="46.40240597682781" lon="12.372518754708114"><ele>605.0</ele><time>2026-04-25T14:41:03Z</time></trkpt><trkpt lat="46.40225795011904" lon="12.372656424791371"><ele>605.0</ele><time>2026-04-25T14:41:04Z</time></trkpt><trkpt lat="46.402111896276026" lon="12.372792738441186"><ele>605.0</ele><time>2026-04-25T14:41:05Z</time></trkpt><trkpt lat="46.40196884756267" lon="12.372913654836214"><ele>619.0</ele><time>2026-04-25T14:41:06Z</time></trkpt><trkpt lat="46.40182688722237" lon="12.373030565146134"><ele>633.0</ele><time>2026-04-25T14:41:07Z</time></trkpt><trkpt lat="46.401680002269444" lon="12.373133491127208"><ele>647.0</ele><time>2026-04-25T14:41:08Z</time></trkpt><trkpt lat="46.401521995484806" lon="12.373219298740816"><ele>647.0</ele><time>2026-04-25T14:41:09Z</time></trkpt><trkpt lat="46.40135465525062" lon="12.373288838023615"><ele>647.0</ele><time>2026-04-25T14:41:10Z</time></trkpt><trkpt lat="46.401180300910035" lon="12.373331374443914"><ele>647.0</ele><time>2026-04-25T14:41:11Z</time></trkpt><trkpt lat="46.40100206507053" lon="12.37334907674906"><ele>648.0</ele><time>2026-04-25T14:41:12Z</time></trkpt><trkpt lat="46.40081083200034" lon="12.373345860609309"><ele>649.0</ele><time>2026-04-25T14:41:13Z</time></trkpt><trkpt lat="46.40061959877924" lon="12.373322753976115"><ele>650.0</ele><time>2026-04-25T14:41:14Z</time></trkpt><trkpt lat="46.4004231314915" lon="12.373281404019293"><ele>659.3333333333333</ele><time>2026-04-25T14:41:15Z</time></trkpt><trkpt lat="46.40022382868513" lon="12.373216434131404"><ele>668.6666666666666</ele><time>2026-04-25T14:41:16Z</time></trkpt><trkpt lat="46.40002548320473" lon="12.37313106202343"><ele>678.0</ele><time>2026-04-25T14:41:17Z</time></trkpt><trkpt lat="46.39982957559375" lon="12.373025023560679"><ele>668.6666666666666</ele><time>2026-04-25T14:41:18Z</time></trkpt><trkpt lat="46.39963271697216" lon="12.372908921533917"><ele>659.3333333333333</ele><time>2026-04-25T14:41:19Z</time></trkpt><trkpt lat="46.39943909316742" lon="12.372797304422955"><ele>650.0</ele><time>2026-04-25T14:41:20Z</time></trkpt><trkpt lat="46.39925384152205" lon="12.372688844369492"><ele>650.0</ele><time>2026-04-25T14:41:21Z</time></trkpt><trkpt lat="46.399080513681234" lon="12.372584086892907"><ele>650.0</ele><time>2026-04-25T14:41:22Z</time></trkpt><trkpt lat="46.398911267143085" lon="12.372481891971814"><ele>650.0</ele><time>2026-04-25T14:41:23Z</time></trkpt><trkpt lat="46.39874506305674" lon="12.37238415836003"><ele>648.0</ele><time>2026-04-25T14:41:24Z</time></trkpt><trkpt lat="46.3985816669476" lon="12.372287601372657"><ele>646.0</ele><time>2026-04-25T14:41:25Z</time></trkpt><trkpt lat="46.39842378904594" lon="12.372192783202527"><ele>644.0</ele><time>2026-04-25T14:41:26Z</time></trkpt><trkpt lat="46.39826774942737" lon="12.372103591504231"><ele>648.0</ele><time>2026-04-25T14:41:27Z</time></trkpt><trkpt lat="46.39811334815775" lon="12.372015568677954"><ele>652.0</ele><time>2026-04-25T14:41:28Z</time></trkpt><trkpt lat="46.39796094424309" lon="12.37192628581191"><ele>656.0</ele><time>2026-04-25T14:41:29Z</time></trkpt><trkpt lat="46.39780805407159" lon="12.371837662374856"><ele>656.0</ele><time>2026-04-25T14:41:30Z</time></trkpt><trkpt lat="46.397654418251086" lon="12.371750030106687"><ele>656.0</ele><time>2026-04-25T14:41:31Z</time></trkpt><trkpt lat="46.397497802885304" lon="12.37165646882159"><ele>656.0</ele><time>2026-04-25T14:41:32Z</time></trkpt><trkpt lat="46.39734425681342" lon="12.371566808880802"><ele>656.0</ele><time>2026-04-25T14:41:33Z</time></trkpt><trkpt lat="46.39721618140841" lon="12.371485386803345"><ele>656.0</ele><time>2026-04-25T14:41:34Z</time></trkpt><trkpt lat="46.39711490595849" lon="12.371413016045208"><ele>656.0</ele><time>2026-04-25T14:41:35Z</time></trkpt><trkpt lat="46.39702524899257" lon="12.37134584902933"><ele>656.0</ele><time>2026-04-25T14:41:36Z</time></trkpt><trkpt lat="46.3969500014403" lon="12.371291779619536"><ele>656.0</ele><time>2026-04-25T14:41:37Z</time></trkpt><trkpt lat="46.39688778971843" lon="12.371247216819398"><ele>655.4</ele><time>2026-04-25T14:41:38Z</time></trkpt><trkpt lat="46.396806784495176" lon="12.371186464425316"><ele>654.8</ele><time>2026-04-25T14:41:39.999Z</time></trkpt><trkpt lat="46.39671757163548" lon="12.371115677342512"><ele>654.1999999999999</ele><time>2026-04-25T14:43:03Z</time></trkpt><trkpt lat="46.39662576955457" lon="12.371083387437887"><ele>653.5999999999999</ele><time>2026-04-25T14:43:05Z</time></trkpt><trkpt lat="46.396540323691575" lon="12.371044153636086"><ele>653.0</ele><time>2026-04-25T14:43:07Z</time></trkpt><trkpt lat="46.39639031301572" lon="12.370991541322127"><ele>654.75</ele><time>2026-04-25T14:43:09Z</time></trkpt><trkpt lat="46.39625591166282" lon="12.370946663968823"><ele>656.5</ele><time>2026-04-25T14:43:10Z</time></trkpt><trkpt lat="46.39610627753756" lon="12.370863815221666"><ele>658.25</ele><time>2026-04-25T14:43:11Z</time></trkpt><trkpt lat="46.395969714782034" lon="12.370778392995089"><ele>660.0</ele><time>2026-04-25T14:43:12Z</time></trkpt><trkpt lat="46.395845416282384" lon="12.37070204771988"><ele>660.0</ele><time>2026-04-25T14:43:13Z</time></trkpt><trkpt lat="46.395722561137234" lon="12.37062680628153"><ele>660.0</ele><time>2026-04-25T14:43:14Z</time></trkpt><trkpt lat="46.39557716810099" lon="12.370531434781121"><ele>660.0</ele><time>2026-04-25T14:43:15Z</time></trkpt><trkpt lat="46.395420551997965" lon="12.370406128199756"><ele>653.6666666666666</ele><time>2026-04-25T14:43:16Z</time></trkpt><trkpt lat="46.39527621003168" lon="12.370274292861177"><ele>647.3333333333333</ele><time>2026-04-25T14:43:17Z</time></trkpt><trkpt lat="46.39515037639506" lon="12.370148358103284"><ele>641.0</ele><time>2026-04-25T14:43:18Z</time></trkpt><trkpt lat="46.39503622701063" lon="12.370015056232484"><ele>641.0</ele><time>2026-04-25T14:43:19Z</time></trkpt><trkpt lat="46.394926296141016" lon="12.369868385634724"><ele>641.0</ele><time>2026-04-25T14:43:20Z</time></trkpt><trkpt lat="46.39482038177513" lon="12.369706009827482"><ele>641.0</ele><time>2026-04-25T14:43:21Z</time></trkpt><trkpt lat="46.394716249239494" lon="12.36953757129386"><ele>640.0</ele><time>2026-04-25T14:43:22Z</time></trkpt><trkpt lat="46.394618358151355" lon="12.369361063358339"><ele>639.0</ele><time>2026-04-25T14:43:23Z</time></trkpt><trkpt lat="46.39452799194978" lon="12.369177643104894"><ele>638.0</ele><time>2026-04-25T14:43:24Z</time></trkpt><trkpt lat="46.39444006154584" lon="12.36899296381559"><ele>637.3333333333333</ele><time>2026-04-25T14:43:25Z</time></trkpt><trkpt lat="46.3943531218599" lon="12.368806302956406"><ele>636.6666666666666</ele><time>2026-04-25T14:43:26Z</time></trkpt><trkpt lat="46.394260859376395" lon="12.368611219366988"><ele>636.0</ele><time>2026-04-25T14:43:27Z</time></trkpt><trkpt lat="46.394166564015094" lon="12.368412876495837"><ele>636.0</ele><time>2026-04-25T14:43:28Z</time></trkpt><trkpt lat="46.39407004517242" lon="12.368209959820962"><ele>636.0</ele><time>2026-04-25T14:43:29Z</time></trkpt><trkpt lat="46.39396572714495" lon="12.367993956016095"><ele>636.0</ele><time>2026-04-25T14:43:30Z</time></trkpt><trkpt lat="46.39386596673735" lon="12.367783268139721"><ele>636.6666666666666</ele><time>2026-04-25T14:43:31Z</time></trkpt><trkpt lat="46.39377103611999" lon="12.367580356865957"><ele>637.3333333333333</ele><time>2026-04-25T14:43:32Z</time></trkpt><trkpt lat="46.3936868628859" lon="12.367371119923776"><ele>638.0</ele><time>2026-04-25T14:43:33Z</time></trkpt><trkpt lat="46.39361184886151" lon="12.367155227429697"><ele>636.6666666666666</ele><time>2026-04-25T14:43:34Z</time></trkpt><trkpt lat="46.39354161779755" lon="12.366936956488242"><ele>635.3333333333334</ele><time>2026-04-25T14:43:35Z</time></trkpt><trkpt lat="46.39347398282533" lon="12.366719849497635"><ele>634.0</ele><time>2026-04-25T14:43:36Z</time></trkpt><trkpt lat="46.39340726100868" lon="12.366504476144863"><ele>632.6666666666667</ele><time>2026-04-25T14:43:37Z</time></trkpt><trkpt lat="46.39334170096054" lon="12.366288509317762"><ele>631.3333333333334</ele><time>2026-04-25T14:43:38Z</time></trkpt><trkpt lat="46.39327114390205" lon="12.366072686890877"><ele>630.0</ele><time>2026-04-25T14:43:39Z</time></trkpt><trkpt lat="46.393187627843574" lon="12.365868241928288"><ele>630.0</ele><time>2026-04-25T14:43:40Z</time></trkpt><trkpt lat="46.393093900088196" lon="12.365683617903422"><ele>630.0</ele><time>2026-04-25T14:43:40.999Z</time></trkpt><trkpt lat="46.39299866019257" lon="12.365507484533858"><ele>630.0</ele><time>2026-04-25T14:43:41.999Z</time></trkpt><trkpt lat="46.39289662755872" lon="12.365342839890229"><ele>641.0</ele><time>2026-04-25T14:43:42.999Z</time></trkpt><trkpt lat="46.39278556380624" lon="12.36518891495125"><ele>652.0</ele><time>2026-04-25T14:43:43.999Z</time></trkpt><trkpt lat="46.39266325315498" lon="12.365054243042348"><ele>663.0</ele><time>2026-04-25T14:43:44.999Z</time></trkpt><trkpt lat="46.392534027561375" lon="12.364919481723174"><ele>663.0</ele><time>2026-04-25T14:43:45.999Z</time></trkpt><trkpt lat="46.392392820686304" lon="12.36480226298066"><ele>663.0</ele><time>2026-04-25T14:43:46.999Z</time></trkpt><trkpt lat="46.39224512397997" lon="12.364697826811755"><ele>663.0</ele><time>2026-04-25T14:43:47.999Z</time></trkpt><trkpt lat="46.39209009790234" lon="12.364597119079663"><ele>687.0</ele><time>2026-04-25T14:43:48.999Z</time></trkpt><trkpt lat="46.39193496935434" lon="12.36449387865798"><ele>711.0</ele><time>2026-04-25T14:43:49.999Z</time></trkpt><trkpt lat="46.391777976627054" lon="12.364382042246374"><ele>735.0</ele><time>2026-04-25T14:43:50.999Z</time></trkpt><trkpt lat="46.3916038636634" lon="12.3642546680692"><ele>735.0</ele><time>2026-04-25T14:43:52.073Z</time></trkpt><trkpt lat="46.39144491403618" lon="12.364140397095294"><ele>735.0</ele><time>2026-04-25T14:43:53.05Z</time></trkpt><trkpt lat="46.39127336459807" lon="12.364021549908932"><ele>735.0</ele><time>2026-04-25T14:43:54.047Z</time></trkpt><trkpt lat="46.391074289530884" lon="12.36388042368353"><ele>748.3333333333333</ele><time>2026-04-25T14:43:55.049Z</time></trkpt><trkpt lat="46.39089690471044" lon="12.363752426879644"><ele>761.6666666666666</ele><time>2026-04-25T14:43:56.045Z</time></trkpt><trkpt lat="46.390691786058376" lon="12.363597227737406"><ele>775.0</ele><time>2026-04-25T14:43:57.034Z</time></trkpt><trkpt lat="46.39051155998146" lon="12.363586369549102"><ele>667.0</ele><time>2026-04-25T14:43:57.999Z</time></trkpt><trkpt lat="46.38548164116427" lon="12.35873822060677"><ele>667.0</ele><time>2026-04-25T14:43:58.999Z</time></trkpt><trkpt lat="46.38555422591347" lon="12.35877780309317"><ele>667.0</ele><time>2026-04-25T14:44:00.999Z</time></trkpt><trkpt lat="46.38550176164931" lon="12.358876923759125"><ele>667.0</ele><time>2026-04-25T14:44:04.999Z</time></trkpt><trkpt lat="46.38534159951596" lon="12.358877764147607"><ele>667.0</ele><time>2026-04-25T14:44:10.999Z</time></trkpt><trkpt lat="46.38528159252092" lon="12.358845670686947"><ele>667.0</ele><time>2026-04-25T14:44:16.999Z</time></trkpt><trkpt lat="46.385217407729904" lon="12.358812470677966"><ele>667.0</ele><time>2026-04-25T14:44:38Z</time></trkpt><trkpt lat="46.385033748028754" lon="12.358640998992758"><ele>667.0</ele><time>2026-04-25T14:44:51Z</time></trkpt><trkpt lat="46.385047684367336" lon="12.358754825072316"><ele>667.0</ele><time>2026-04-25T14:44:52Z</time></trkpt><trkpt lat="46.38466501519037" lon="12.359132928032565"><ele>697.0</ele><time>2026-04-25T14:44:56Z</time></trkpt><trkpt lat="46.3842081843591" lon="12.359444996495938"><ele>697.0</ele><time>2026-04-25T14:44:59Z</time></trkpt><trkpt lat="46.38402200347275" lon="12.359495011923984"><ele>697.0</ele><time>2026-04-25T14:45:00Z</time></trkpt><trkpt lat="46.383906914378215" lon="12.359655844200047"><ele>697.0</ele><time>2026-04-25T14:45:01Z</time></trkpt><trkpt lat="46.383744280718716" lon="12.359760197904299"><ele>697.6666666666667</ele><time>2026-04-25T14:45:02Z</time></trkpt><trkpt lat="46.38358096747431" lon="12.359863351202954"><ele>698.3333333333334</ele><time>2026-04-25T14:45:03Z</time></trkpt><trkpt lat="46.38342574998595" lon="12.359963516074005"><ele>699.0</ele><time>2026-04-25T14:45:04Z</time></trkpt><trkpt lat="46.38326722783464" lon="12.360041422795115"><ele>699.0</ele><time>2026-04-25T14:45:05Z</time></trkpt><trkpt lat="46.383104551152734" lon="12.36012023142083"><ele>699.0</ele><time>2026-04-25T14:45:06Z</time></trkpt><trkpt lat="46.38294180275787" lon="12.360193990802216"><ele>699.0</ele><time>2026-04-25T14:45:07Z</time></trkpt><trkpt lat="46.38277843519731" lon="12.36025865206892"><ele>691.3333333333334</ele><time>2026-04-25T14:45:08Z</time></trkpt><trkpt lat="46.38260956435151" lon="12.360325762113057"><ele>683.6666666666667</ele><time>2026-04-25T14:45:09Z</time></trkpt><trkpt lat="46.382440307636216" lon="12.360390676324293"><ele>676.0</ele><time>2026-04-25T14:45:10Z</time></trkpt><trkpt lat="46.382269028155314" lon="12.360453839722453"><ele>671.3333333333334</ele><time>2026-04-25T14:45:11Z</time></trkpt><trkpt lat="46.382094132907845" lon="12.360516009496843"><ele>666.6666666666666</ele><time>2026-04-25T14:45:12Z</time></trkpt><trkpt lat="46.381923573023975" lon="12.360575928538438"><ele>662.0</ele><time>2026-04-25T14:45:13Z</time></trkpt><trkpt lat="46.380065205495" lon="12.359178495226256"><ele>650.6666666666666</ele><time>2026-04-25T14:45:14Z</time></trkpt><trkpt lat="46.3798963071382" lon="12.359225465249493"><ele>639.3333333333334</ele><time>2026-04-25T14:45:15Z</time></trkpt><trkpt lat="46.37969275686248" lon="12.359256127449163"><ele>628.0</ele><time>2026-04-25T14:45:16Z</time></trkpt><trkpt lat="46.37950053482391" lon="12.359261233972845"><ele>623.3333333333334</ele><time>2026-04-25T14:45:17Z</time></trkpt><trkpt lat="46.37931114103024" lon="12.359249437897649"><ele>618.6666666666666</ele><time>2026-04-25T14:45:18Z</time></trkpt><trkpt lat="46.37913514223353" lon="12.359226167950057"><ele>614.0</ele><time>2026-04-25T14:45:19Z</time></trkpt><trkpt lat="46.37893867958871" lon="12.359179048265746"><ele>608.0</ele><time>2026-04-25T14:45:20Z</time></trkpt><trkpt lat="46.37875127630165" lon="12.359117228843653"><ele>602.0</ele><time>2026-04-25T14:45:21Z</time></trkpt><trkpt lat="46.37856114212975" lon="12.359013080603832"><ele>596.0</ele><time>2026-04-25T14:45:22Z</time></trkpt><trkpt lat="46.37838176099159" lon="12.35888628164965"><ele>588.0</ele><time>2026-04-25T14:45:23Z</time></trkpt><trkpt lat="46.37819989417561" lon="12.358759633489589"><ele>580.0</ele><time>2026-04-25T14:45:24Z</time></trkpt><trkpt lat="46.378046928271" lon="12.358630990526759"><ele>572.0</ele><time>2026-04-25T14:45:25Z</time></trkpt><trkpt lat="46.37786845092095" lon="12.358466716753666"><ele>568.6666666666666</ele><time>2026-04-25T14:45:26Z</time></trkpt><trkpt lat="46.377690676998654" lon="12.358322794201378"><ele>565.3333333333334</ele><time>2026-04-25T14:45:27Z</time></trkpt><trkpt lat="46.37748129074444" lon="12.358180135430343"><ele>562.0</ele><time>2026-04-25T14:45:28Z</time></trkpt><trkpt lat="46.377288317242005" lon="12.358031088832425"><ele>550.0</ele><time>2026-04-25T14:45:29Z</time></trkpt><trkpt lat="46.37710798450745" lon="12.357880064321456"><ele>538.0</ele><time>2026-04-25T14:45:30Z</time></trkpt><trkpt lat="46.37691942532497" lon="12.35772149610557"><ele>526.0</ele><time>2026-04-25T14:45:31Z</time></trkpt><trkpt lat="46.376736784517306" lon="12.357573580179787"><ele>526.0</ele><time>2026-04-25T14:45:32Z</time></trkpt><trkpt lat="46.37656127692007" lon="12.357428120495328"><ele>526.0</ele><time>2026-04-25T14:45:33Z</time></trkpt><trkpt lat="46.37636922581574" lon="12.35727908801816"><ele>526.0</ele><time>2026-04-25T14:45:34Z</time></trkpt><trkpt lat="46.37617252351024" lon="12.357121546351067"><ele>520.0</ele><time>2026-04-25T14:45:35Z</time></trkpt><trkpt lat="46.375967006183814" lon="12.356965742094646"><ele>514.0</ele><time>2026-04-25T14:45:36Z</time></trkpt><trkpt lat="46.37577394437106" lon="12.356805979618514"><ele>514.0</ele><time>2026-04-25T14:45:37Z</time></trkpt><trkpt lat="46.375592530867806" lon="12.356653264498364"><ele>514.0</ele><time>2026-04-25T14:45:38Z</time></trkpt><trkpt lat="46.37540445077855" lon="12.35649883745189"><ele>514.0</ele><time>2026-04-25T14:45:39Z</time></trkpt><trkpt lat="46.37522431063754" lon="12.356348636197916"><ele>515.6666666666667</ele><time>2026-04-25T14:45:40Z</time></trkpt><trkpt lat="46.37505036782518" lon="12.356205608112349"><ele>517.3333333333334</ele><time>2026-04-25T14:45:41Z</time></trkpt><trkpt lat="46.37486906479029" lon="12.356068428023582"><ele>519.0</ele><time>2026-04-25T14:45:42Z</time></trkpt><trkpt lat="46.374704065966704" lon="12.35592698892077"><ele>518.6666666666666</ele><time>2026-04-25T14:45:42.999Z</time></trkpt><trkpt lat="46.37452957245635" lon="12.35579134033646"><ele>518.3333333333333</ele><time>2026-04-25T14:45:43.999Z</time></trkpt><trkpt lat="46.374357854295994" lon="12.355652155174921"><ele>518.0</ele><time>2026-04-25T14:45:44.999Z</time></trkpt><trkpt lat="46.374182288148575" lon="12.355510632785718"><ele>518.0</ele><time>2026-04-25T14:45:45.999Z</time></trkpt><trkpt lat="46.37400850943232" lon="12.355379022461765"><ele>518.0</ele><time>2026-04-25T14:45:46.999Z</time></trkpt><trkpt lat="46.373854497000565" lon="12.355241140435385"><ele>518.0</ele><time>2026-04-25T14:45:47.999Z</time></trkpt><trkpt lat="46.37369762418515" lon="12.355102455705893"><ele>521.0</ele><time>2026-04-25T14:45:48.999Z</time></trkpt><trkpt lat="46.37352433687267" lon="12.354966666603694"><ele>524.0</ele><time>2026-04-25T14:45:49.999Z</time></trkpt><trkpt lat="46.37339881397718" lon="12.354853954623024"><ele>527.0</ele><time>2026-04-25T14:45:50.999Z</time></trkpt><trkpt lat="46.37316997608648" lon="12.354669293032543"><ele>524.0</ele><time>2026-04-25T14:45:51.999Z</time></trkpt><trkpt lat="46.37299714894946" lon="12.354523506553742"><ele>521.0</ele><time>2026-04-25T14:45:52.999Z</time></trkpt><trkpt lat="46.3728160361282" lon="12.354361066636148"><ele>518.0</ele><time>2026-04-25T14:45:53.999Z</time></trkpt><trkpt lat="46.37407097153891" lon="12.355454574162524"><ele>504.0</ele><time>2026-04-25T14:45:54.999Z</time></trkpt><trkpt lat="46.35916831836846" lon="12.34553936563515"><ele>504.0</ele><time>2026-04-25T14:46:59.999Z</time></trkpt><trkpt lat="46.35911779229097" lon="12.345360407452606"><ele>504.0</ele><time>2026-04-25T14:47:00.999Z</time></trkpt><trkpt lat="46.35902921584455" lon="12.34515221509932"><ele>504.0</ele><time>2026-04-25T14:47:01.999Z</time></trkpt><trkpt lat="46.35896896785918" lon="12.344951684121723"><ele>504.0</ele><time>2026-04-25T14:47:02.999Z</time></trkpt><trkpt lat="46.35895301019242" lon="12.344763067601743"><ele>504.0</ele><time>2026-04-25T14:47:04Z</time></trkpt><trkpt lat="46.358935131781045" lon="12.344550966611346"><ele>504.0</ele><time>2026-04-25T14:47:05Z</time></trkpt><trkpt lat="46.35889385393875" lon="12.344316970315024"><ele>504.0</ele><time>2026-04-25T14:47:06Z</time></trkpt><trkpt lat="46.358836612930894" lon="12.344068513336584"><ele>503.0</ele><time>2026-04-25T14:47:07Z</time></trkpt><trkpt lat="46.35876870690999" lon="12.34381319278795"><ele>502.0</ele><time>2026-04-25T14:47:08Z</time></trkpt><trkpt lat="46.35870030750706" lon="12.343557546746244"><ele>501.0</ele><time>2026-04-25T14:47:09Z</time></trkpt><trkpt lat="46.358644004006" lon="12.343311656836635"><ele>501.0</ele><time>2026-04-25T14:47:10Z</time></trkpt><trkpt lat="46.35858288330435" lon="12.343081426557221"><ele>501.0</ele><time>2026-04-25T14:47:11Z</time></trkpt><trkpt lat="46.35853088963305" lon="12.342866677406715"><ele>501.0</ele><time>2026-04-25T14:47:12Z</time></trkpt><trkpt lat="46.35846427019506" lon="12.342644815625876"><ele>499.33333333333337</ele><time>2026-04-25T14:47:13Z</time></trkpt><trkpt lat="46.35839551138668" lon="12.34243669373616"><ele>497.6666666666667</ele><time>2026-04-25T14:47:14Z</time></trkpt><trkpt lat="46.358391413439286" lon="12.34214733063725"><ele>496.0</ele><time>2026-04-25T14:47:15Z</time></trkpt><trkpt lat="46.358368013312614" lon="12.341889073758225"><ele>495.6666666666667</ele><time>2026-04-25T14:47:16Z</time></trkpt><trkpt lat="46.35834805040029" lon="12.341634407368002"><ele>495.33333333333337</ele><time>2026-04-25T14:47:17Z</time></trkpt><trkpt lat="46.35830145600452" lon="12.341402616171598"><ele>495.0</ele><time>2026-04-25T14:47:18Z</time></trkpt><trkpt lat="46.35823318460447" lon="12.341232757934772"><ele>491.0</ele><time>2026-04-25T14:47:19Z</time></trkpt><trkpt lat="46.35680464202458" lon="12.341928467151384"><ele>491.0</ele><time>2026-04-25T14:47:20Z</time></trkpt><trkpt lat="46.35667864372926" lon="12.341814830518073"><ele>491.0</ele><time>2026-04-25T14:47:21Z</time></trkpt><trkpt lat="46.35654811612747" lon="12.341697132103597"><ele>491.0</ele><time>2026-04-25T14:47:22Z</time></trkpt><trkpt lat="46.356389080442405" lon="12.341593569933057"><ele>491.5</ele><time>2026-04-25T14:47:23Z</time></trkpt><trkpt lat="46.356219305390525" lon="12.341489207779555"><ele>492.0</ele><time>2026-04-25T14:47:24Z</time></trkpt><trkpt lat="46.355912193574305" lon="12.34148948117394"><ele>491.66666666666663</ele><time>2026-04-25T14:47:25Z</time></trkpt><trkpt lat="46.35574358067899" lon="12.341372705082994"><ele>491.3333333333333</ele><time>2026-04-25T14:47:26Z</time></trkpt><trkpt lat="46.35556292157446" lon="12.341274300351623"><ele>491.0</ele><time>2026-04-25T14:47:27Z</time></trkpt><trkpt lat="46.35554622751014" lon="12.341051354649487"><ele>501.0</ele><time>2026-04-25T14:47:28Z</time></trkpt><trkpt lat="46.357190437718295" lon="12.33947992464544"><ele>501.0</ele><time>2026-04-25T14:47:29Z</time></trkpt><trkpt lat="46.357051723926986" lon="12.339368080907759"><ele>501.0</ele><time>2026-04-25T14:47:30Z</time></trkpt><trkpt lat="46.356908550280814" lon="12.339264669786076"><ele>501.0</ele><time>2026-04-25T14:47:31Z</time></trkpt><trkpt lat="46.35677330722327" lon="12.339177400889682"><ele>501.0</ele><time>2026-04-25T14:47:32Z</time></trkpt><trkpt lat="46.356632927069526" lon="12.339083064848255"><ele>501.0</ele><time>2026-04-25T14:47:33Z</time></trkpt><trkpt lat="46.356496827014354" lon="12.338999951031555"><ele>501.0</ele><time>2026-04-25T14:47:34Z</time></trkpt><trkpt lat="46.35635911523441" lon="12.338925942748569"><ele>501.0</ele><time>2026-04-25T14:47:35Z</time></trkpt><trkpt lat="46.356216027148044" lon="12.338849342395097"><ele>499.66666666666663</ele><time>2026-04-25T14:47:36Z</time></trkpt><trkpt lat="46.35607342579608" lon="12.338765514958176"><ele>498.3333333333333</ele><time>2026-04-25T14:47:37Z</time></trkpt><trkpt lat="46.35591423806983" lon="12.338684280973853"><ele>497.0</ele><time>2026-04-25T14:47:38Z</time></trkpt><trkpt lat="46.35576106911475" lon="12.3386186268088"><ele>497.0</ele><time>2026-04-25T14:47:39Z</time></trkpt><trkpt lat="46.355593325826" lon="12.33855462227601"><ele>497.0</ele><time>2026-04-25T14:47:40Z</time></trkpt><trkpt lat="46.35542611358841" lon="12.3384941139466"><ele>497.0</ele><time>2026-04-25T14:47:41Z</time></trkpt><trkpt lat="46.35525707470287" lon="12.338439502457467"><ele>496.0</ele><time>2026-04-25T14:47:42Z</time></trkpt><trkpt lat="46.35509064292384" lon="12.33838483740392"><ele>495.0</ele><time>2026-04-25T14:47:43Z</time></trkpt><trkpt lat="46.35492252799922" lon="12.338346095901857"><ele>494.0</ele><time>2026-04-25T14:47:44Z</time></trkpt><trkpt lat="46.35475759832299" lon="12.338316544918204"><ele>494.66666666666663</ele><time>2026-04-25T14:47:45Z</time></trkpt><trkpt lat="46.35459603384582" lon="12.33829010976306"><ele>495.33333333333337</ele><time>2026-04-25T14:47:46Z</time></trkpt><trkpt lat="46.35443498079259" lon="12.3382743986051"><ele>496.0</ele><time>2026-04-25T14:47:47Z</time></trkpt><trkpt lat="46.35426657107147" lon="12.338269264627339"><ele>496.0</ele><time>2026-04-25T14:47:48Z</time></trkpt><trkpt lat="46.35410755982473" lon="12.33826517066424"><ele>496.0</ele><time>2026-04-25T14:47:49Z</time></trkpt><trkpt lat="46.35393604297641" lon="12.338271785034607"><ele>496.0</ele><time>2026-04-25T14:47:50Z</time></trkpt><trkpt lat="46.353759748965516" lon="12.338312356869489"><ele>494.33333333333337</ele><time>2026-04-25T14:47:51Z</time></trkpt><trkpt lat="46.35358911458708" lon="12.338316772619418"><ele>492.66666666666663</ele><time>2026-04-25T14:47:52Z</time></trkpt><trkpt lat="46.35341146943832" lon="12.338334430607249"><ele>491.0</ele><time>2026-04-25T14:47:53Z</time></trkpt><trkpt lat="46.35323112807436" lon="12.338354348103433"><ele>491.0</ele><time>2026-04-25T14:47:54Z</time></trkpt><trkpt lat="46.35305090103734" lon="12.338373753723817"><ele>491.0</ele><time>2026-04-25T14:47:55Z</time></trkpt><trkpt lat="46.35286483189777" lon="12.338389828121098"><ele>491.0</ele><time>2026-04-25T14:47:56Z</time></trkpt><trkpt lat="46.35267608440215" lon="12.338403430169924"><ele>490.66666666666663</ele><time>2026-04-25T14:47:57Z</time></trkpt><trkpt lat="46.35248535320699" lon="12.338401647260604"><ele>490.33333333333337</ele><time>2026-04-25T14:47:58Z</time></trkpt><trkpt lat="46.35228815179628" lon="12.338383900329077"><ele>490.0</ele><time>2026-04-25T14:47:59Z</time></trkpt><trkpt lat="46.35209237881273" lon="12.338359530993863"><ele>490.0</ele><time>2026-04-25T14:48:00Z</time></trkpt><trkpt lat="46.35189616687291" lon="12.338321221237496"><ele>490.0</ele><time>2026-04-25T14:48:01Z</time></trkpt><trkpt lat="46.351699791946906" lon="12.338272264587326"><ele>490.0</ele><time>2026-04-25T14:48:02Z</time></trkpt><trkpt lat="46.351509958546735" lon="12.338218244131617"><ele>489.33333333333337</ele><time>2026-04-25T14:48:03Z</time></trkpt><trkpt lat="46.351333797775474" lon="12.338153222369517"><ele>488.66666666666663</ele><time>2026-04-25T14:48:04Z</time></trkpt><trkpt lat="46.351166022116765" lon="12.338074239233304"><ele>488.0</ele><time>2026-04-25T14:48:05Z</time></trkpt><trkpt lat="46.35100374674703" lon="12.33798118248169"><ele>487.3333333333333</ele><time>2026-04-25T14:48:06Z</time></trkpt><trkpt lat="46.350840229668734" lon="12.337880350825742"><ele>486.66666666666663</ele><time>2026-04-25T14:48:07Z</time></trkpt><trkpt lat="46.350670415967656" lon="12.3377739882555"><ele>486.0</ele><time>2026-04-25T14:48:08Z</time></trkpt><trkpt lat="46.35049862555555" lon="12.337654402962796"><ele>486.0</ele><time>2026-04-25T14:48:09Z</time></trkpt><trkpt lat="46.35032657662488" lon="12.337516705670783"><ele>486.0</ele><time>2026-04-25T14:48:09.999Z</time></trkpt><trkpt lat="46.35015328639313" lon="12.337362158868485"><ele>486.0</ele><time>2026-04-25T14:48:10.999Z</time></trkpt><trkpt lat="46.34997857349157" lon="12.33719592153279"><ele>486.33333333333337</ele><time>2026-04-25T14:48:11.999Z</time></trkpt><trkpt lat="46.34980554749706" lon="12.337009577673383"><ele>486.6666666666667</ele><time>2026-04-25T14:48:12.999Z</time></trkpt><trkpt lat="46.349636871039785" lon="12.336807870847302"><ele>487.0</ele><time>2026-04-25T14:48:13.999Z</time></trkpt><trkpt lat="46.34947593412708" lon="12.336597693978185"><ele>487.33333333333337</ele><time>2026-04-25T14:48:14.999Z</time></trkpt><trkpt lat="46.34932365595652" lon="12.336382958355852"><ele>487.66666666666663</ele><time>2026-04-25T14:48:15.999Z</time></trkpt><trkpt lat="46.34919752731508" lon="12.336156479245187"><ele>488.0</ele><time>2026-04-25T14:48:16.999Z</time></trkpt><trkpt lat="46.34906134007035" lon="12.335976071912105"><ele>488.0</ele><time>2026-04-25T14:48:17.999Z</time></trkpt><trkpt lat="46.348948173215675" lon="12.335788990319758"><ele>488.0</ele><time>2026-04-25T14:48:18.999Z</time></trkpt><trkpt lat="46.348832026925585" lon="12.335604788856868"><ele>488.0</ele><time>2026-04-25T14:48:19.999Z</time></trkpt><trkpt lat="46.348709543153745" lon="12.33541572934771"><ele>488.3333333333333</ele><time>2026-04-25T14:48:20.999Z</time></trkpt><trkpt lat="46.34858581579297" lon="12.335223012675748"><ele>488.66666666666663</ele><time>2026-04-25T14:48:21.999Z</time></trkpt><trkpt lat="46.348459412303875" lon="12.3350270864247"><ele>489.0</ele><time>2026-04-25T14:48:22.999Z</time></trkpt><trkpt lat="46.34833314444464" lon="12.334827822335605"><ele>489.33333333333337</ele><time>2026-04-25T14:48:23.999Z</time></trkpt><trkpt lat="46.34820560630689" lon="12.334627877970796"><ele>489.6666666666667</ele><time>2026-04-25T14:48:24.999Z</time></trkpt><trkpt lat="46.34807637024856" lon="12.334424968871225"><ele>490.0</ele><time>2026-04-25T14:48:25.999Z</time></trkpt><trkpt lat="46.34794047031535" lon="12.33421944024692"><ele>489.33333333333337</ele><time>2026-04-25T14:48:26.999Z</time></trkpt><trkpt lat="46.34780552271332" lon="12.33400875659017"><ele>488.66666666666663</ele><time>2026-04-25T14:48:27.999Z</time></trkpt><trkpt lat="46.347672211886135" lon="12.333797274715959"><ele>488.0</ele><time>2026-04-25T14:48:28.999Z</time></trkpt><trkpt lat="46.34754354355095" lon="12.333587791439397"><ele>490.0</ele><time>2026-04-25T14:48:29.999Z</time></trkpt><trkpt lat="46.34741364508015" lon="12.333383699977338"><ele>492.0</ele><time>2026-04-25T14:48:30.999Z</time></trkpt><trkpt lat="46.347282966632854" lon="12.333178969627447"><ele>494.0</ele><time>2026-04-25T14:48:31.999Z</time></trkpt><trkpt lat="46.347154047761514" lon="12.332974099438385"><ele>494.0</ele><time>2026-04-25T14:48:32.999Z</time></trkpt><trkpt lat="46.347019754906135" lon="12.332784794661444"><ele>494.0</ele><time>2026-04-25T14:48:33.999Z</time></trkpt><trkpt lat="46.3468793952573" lon="12.332603577575929"><ele>494.0</ele><time>2026-04-25T14:48:34.999Z</time></trkpt><trkpt lat="46.346735011306095" lon="12.332434269404226"><ele>494.0</ele><time>2026-04-25T14:48:35.999Z</time></trkpt><trkpt lat="46.3465858883692" lon="12.332273283279594"><ele>494.0</ele><time>2026-04-25T14:48:36.999Z</time></trkpt><trkpt lat="46.34643342282943" lon="12.332118741522446"><ele>494.0</ele><time>2026-04-25T14:48:37.999Z</time></trkpt><trkpt lat="46.346277062076425" lon="12.33196901492304"><ele>493.66666666666663</ele><time>2026-04-25T14:48:38.999Z</time></trkpt><trkpt lat="46.34611995179822" lon="12.331822213573552"><ele>493.33333333333337</ele><time>2026-04-25T14:48:39.999Z</time></trkpt><trkpt lat="46.3459565305281" lon="12.331683061723082"><ele>493.0</ele><time>2026-04-25T14:48:40.999Z</time></trkpt><trkpt lat="46.345784593183716" lon="12.33155598729117"><ele>493.0</ele><time>2026-04-25T14:48:41.999Z</time></trkpt><trkpt lat="46.345602135458016" lon="12.331444572264248"><ele>493.0</ele><time>2026-04-25T14:48:42.999Z</time></trkpt><trkpt lat="46.34541708177629" lon="12.331345790361006"><ele>493.0</ele><time>2026-04-25T14:48:43.999Z</time></trkpt><trkpt lat="46.34522842080465" lon="12.331259053464862"><ele>493.6666666666667</ele><time>2026-04-25T14:48:44.999Z</time></trkpt><trkpt lat="46.345034846713745" lon="12.331181477977724"><ele>494.33333333333337</ele><time>2026-04-25T14:48:45.999Z</time></trkpt><trkpt lat="46.344838875423335" lon="12.331114415208516"><ele>495.0</ele><time>2026-04-25T14:48:46.999Z</time></trkpt><trkpt lat="46.34464132806222" lon="12.331054539225807"><ele>493.0</ele><time>2026-04-25T14:48:47.999Z</time></trkpt><trkpt lat="46.34444227083576" lon="12.331003228602867"><ele>491.0</ele><time>2026-04-25T14:48:48.999Z</time></trkpt><trkpt lat="46.3442443998217" lon="12.33095282009574"><ele>489.0</ele><time>2026-04-25T14:48:49.999Z</time></trkpt><trkpt lat="46.344048373405876" lon="12.330907030075368"><ele>487.66666666666663</ele><time>2026-04-25T14:48:50.999Z</time></trkpt><trkpt lat="46.34385316902777" lon="12.330864767948965"><ele>486.3333333333333</ele><time>2026-04-25T14:48:51.999Z</time></trkpt><trkpt lat="46.34366133774288" lon="12.330823578388287"><ele>485.0</ele><time>2026-04-25T14:48:52.999Z</time></trkpt><trkpt lat="46.343476866196696" lon="12.330785997481001"><ele>485.0</ele><time>2026-04-25T14:48:53.999Z</time></trkpt><trkpt lat="46.34329584593385" lon="12.330746823580832"><ele>485.0</ele><time>2026-04-25T14:48:54.999Z</time></trkpt><trkpt lat="46.343117235741815" lon="12.330703823265639"><ele>485.0</ele><time>2026-04-25T14:48:55.999Z</time></trkpt><trkpt lat="46.342938553904865" lon="12.330660493168358"><ele>484.66666666666663</ele><time>2026-04-25T14:48:56.999Z</time></trkpt><trkpt lat="46.34275918362838" lon="12.330612491865825"><ele>484.33333333333337</ele><time>2026-04-25T14:48:57.999Z</time></trkpt><trkpt lat="46.34258003314981" lon="12.330563294837503"><ele>484.0</ele><time>2026-04-25T14:48:58.999Z</time></trkpt><trkpt lat="46.3423986409701" lon="12.330514098096202"><ele>492.6666666666667</ele><time>2026-04-25T14:48:59.999Z</time></trkpt><trkpt lat="46.342211860949774" lon="12.330462356715906"><ele>501.33333333333337</ele><time>2026-04-25T14:49:00.999Z</time></trkpt><trkpt lat="46.34202177465651" lon="12.33040249337677"><ele>510.0</ele><time>2026-04-25T14:49:01.999Z</time></trkpt><trkpt lat="46.341828348419924" lon="12.330333897004232"><ele>510.0</ele><time>2026-04-25T14:49:02.999Z</time></trkpt><trkpt lat="46.34163274269404" lon="12.330261426869113"><ele>510.0</ele><time>2026-04-25T14:49:03.999Z</time></trkpt><trkpt lat="46.34143833392255" lon="12.330174712460321"><ele>510.0</ele><time>2026-04-25T14:49:04.999Z</time></trkpt><trkpt lat="46.34124496499662" lon="12.330081073919015"><ele>519.6666666666666</ele><time>2026-04-25T14:49:05.999Z</time></trkpt><trkpt lat="46.341050736961954" lon="12.329985799583042"><ele>529.3333333333333</ele><time>2026-04-25T14:49:06.999Z</time></trkpt><trkpt lat="46.34085576422973" lon="12.32989188938235"><ele>539.0</ele><time>2026-04-25T14:49:07.999Z</time></trkpt><trkpt lat="46.340665669929976" lon="12.329799861346535"><ele>563.0</ele><time>2026-04-25T14:49:09Z</time></trkpt><trkpt lat="46.34046541262801" lon="12.329664727667453"><ele>587.0</ele><time>2026-04-25T14:49:10.076Z</time></trkpt><trkpt lat="46.34027704639627" lon="12.329553594781716"><ele>611.0</ele><time>2026-04-25T14:49:11.054Z</time></trkpt><trkpt lat="46.340089646153174" lon="12.329443031841924"><ele>650.0</ele><time>2026-04-25T14:49:12.054Z</time></trkpt><trkpt lat="46.33821428278921" lon="12.328353366298607"><ele>476.0</ele><time>2026-04-25T14:49:15.643Z</time></trkpt><trkpt lat="46.328766251681074" lon="12.326046822174701"><ele>476.0</ele><time>2026-04-25T14:50:14.999Z</time></trkpt><trkpt lat="46.32859529392049" lon="12.326002228416293"><ele>476.0</ele><time>2026-04-25T14:50:15.999Z</time></trkpt><trkpt lat="46.32846840711705" lon="12.325606873214964"><ele>476.0</ele><time>2026-04-25T14:50:16.999Z</time></trkpt><trkpt lat="46.32829285643646" lon="12.325489373540696"><ele>476.0</ele><time>2026-04-25T14:50:17.999Z</time></trkpt><trkpt lat="46.32809908936474" lon="12.325368275219128"><ele>476.0</ele><time>2026-04-25T14:50:18.999Z</time></trkpt><trkpt lat="46.32790723712532" lon="12.325239820311836"><ele>476.3333333333333</ele><time>2026-04-25T14:50:19.999Z</time></trkpt><trkpt lat="46.3277274451685" lon="12.325119720359524"><ele>476.66666666666663</ele><time>2026-04-25T14:50:20.999Z</time></trkpt><trkpt lat="46.32754316310852" lon="12.324991375787599"><ele>477.0</ele><time>2026-04-25T14:50:21.999Z</time></trkpt><trkpt lat="46.32735942641234" lon="12.324863861709481"><ele>476.33333333333337</ele><time>2026-04-25T14:50:22.999Z</time></trkpt><trkpt lat="46.327176737431735" lon="12.324740887261417"><ele>475.6666666666667</ele><time>2026-04-25T14:50:23.999Z</time></trkpt><trkpt lat="46.32699700765264" lon="12.324621611788636"><ele>475.0</ele><time>2026-04-25T14:50:24.999Z</time></trkpt><trkpt lat="46.326815845938725" lon="12.324494776879849"><ele>475.0</ele><time>2026-04-25T14:50:25.999Z</time></trkpt><trkpt lat="46.32664210995129" lon="12.32435746347932"><ele>475.0</ele><time>2026-04-25T14:50:26.999Z</time></trkpt><trkpt lat="46.326471146637296" lon="12.324205800611336"><ele>475.0</ele><time>2026-04-25T14:50:27.999Z</time></trkpt><trkpt lat="46.32630750436508" lon="12.324042677938726"><ele>475.0</ele><time>2026-04-25T14:50:28.999Z</time></trkpt><trkpt lat="46.32615376450991" lon="12.323868303168323"><ele>475.0</ele><time>2026-04-25T14:50:29.999Z</time></trkpt><trkpt lat="46.32600921701893" lon="12.323686351607282"><ele>475.0</ele><time>2026-04-25T14:50:30.999Z</time></trkpt><trkpt lat="46.32586869679543" lon="12.323497510945309"><ele>475.0</ele><time>2026-04-25T14:50:31.999Z</time></trkpt><trkpt lat="46.32572695011204" lon="12.323295285325562"><ele>475.0</ele><time>2026-04-25T14:50:32.999Z</time></trkpt><trkpt lat="46.32558411081235" lon="12.323089378299295"><ele>475.0</ele><time>2026-04-25T14:50:33.999Z</time></trkpt><trkpt lat="46.32544089213457" lon="12.322880465382461"><ele>475.33333333333337</ele><time>2026-04-25T14:50:34.999Z</time></trkpt><trkpt lat="46.32529744081359" lon="12.322664798493737"><ele>475.66666666666663</ele><time>2026-04-25T14:50:35.999Z</time></trkpt><trkpt lat="46.325153866444815" lon="12.322444713155724"><ele>476.0</ele><time>2026-04-25T14:50:36.999Z</time></trkpt><trkpt lat="46.32500546454691" lon="12.322225643034697"><ele>475.3333333333333</ele><time>2026-04-25T14:50:37.999Z</time></trkpt><trkpt lat="46.324861099306624" lon="12.321996710037922"><ele>474.66666666666663</ele><time>2026-04-25T14:50:38.999Z</time></trkpt><trkpt lat="46.324717022750356" lon="12.321766539167228"><ele>474.0</ele><time>2026-04-25T14:50:39.999Z</time></trkpt><trkpt lat="46.32458045406391" lon="12.321531118118303"><ele>473.66666666666663</ele><time>2026-04-25T14:50:40.999Z</time></trkpt><trkpt lat="46.32445628333087" lon="12.321277111341576"><ele>473.3333333333333</ele><time>2026-04-25T14:50:41.999Z</time></trkpt><trkpt lat="46.32434794910977" lon="12.321032596577899"><ele>473.0</ele><time>2026-04-25T14:50:42.999Z</time></trkpt><trkpt lat="46.32424974529477" lon="12.320802989712176"><ele>473.0</ele><time>2026-04-25T14:50:43.999Z</time></trkpt><trkpt lat="46.3241531484834" lon="12.320577465570977"><ele>473.0</ele><time>2026-04-25T14:50:44.999Z</time></trkpt><trkpt lat="46.32405500671237" lon="12.320356229576005"><ele>473.0</ele><time>2026-04-25T14:50:45.999Z</time></trkpt><trkpt lat="46.323958677612836" lon="12.320136716278359"><ele>472.0</ele><time>2026-04-25T14:50:46.999Z</time></trkpt><trkpt lat="46.32385850229654" lon="12.3199213728794"><ele>471.0</ele><time>2026-04-25T14:50:47.999Z</time></trkpt><trkpt lat="46.3237495788179" lon="12.319701546468679"><ele>470.0</ele><time>2026-04-25T14:50:48.999Z</time></trkpt><trkpt lat="46.323631551442176" lon="12.31947980928067"><ele>470.0</ele><time>2026-04-25T14:50:49.999Z</time></trkpt><trkpt lat="46.323500718561654" lon="12.31926374912227"><ele>470.0</ele><time>2026-04-25T14:50:50.999Z</time></trkpt><trkpt lat="46.323360278683104" lon="12.319056292935105"><ele>470.0</ele><time>2026-04-25T14:50:51.999Z</time></trkpt><trkpt lat="46.323211262474516" lon="12.318857945436338"><ele>468.66666666666663</ele><time>2026-04-25T14:50:52.999Z</time></trkpt><trkpt lat="46.32305634613267" lon="12.318673830707478"><ele>467.33333333333337</ele><time>2026-04-25T14:50:53.999Z</time></trkpt><trkpt lat="46.322897004199724" lon="12.31850238821844"><ele>466.0</ele><time>2026-04-25T14:50:54.999Z</time></trkpt><trkpt lat="46.32273532331514" lon="12.318347950955523"><ele>466.0</ele><time>2026-04-25T14:50:55.999Z</time></trkpt><trkpt lat="46.32257493992827" lon="12.318209996886921"><ele>466.0</ele><time>2026-04-25T14:50:56.999Z</time></trkpt><trkpt lat="46.32241483596743" lon="12.31809283771166"><ele>466.0</ele><time>2026-04-25T14:50:57.999Z</time></trkpt><trkpt lat="46.322251440710964" lon="12.317989281497766"><ele>467.33333333333337</ele><time>2026-04-25T14:50:58.999Z</time></trkpt><trkpt lat="46.32208948744449" lon="12.317889700062782"><ele>468.66666666666663</ele><time>2026-04-25T14:50:59.999Z</time></trkpt><trkpt lat="46.32193880824018" lon="12.317776345077712"><ele>470.0</ele><time>2026-04-25T14:51:00.999Z</time></trkpt><trkpt lat="46.32179367313932" lon="12.3176790927456"><ele>470.0</ele><time>2026-04-25T14:51:01.999Z</time></trkpt><trkpt lat="46.321642785499016" lon="12.317602958746477"><ele>470.0</ele><time>2026-04-25T14:51:02.999Z</time></trkpt><trkpt lat="46.32148614033931" lon="12.317546233333728"><ele>470.0</ele><time>2026-04-25T14:51:03.999Z</time></trkpt><trkpt lat="46.32134871903977" lon="12.317510095154924"><ele>470.6</ele><time>2026-04-25T14:51:04.999Z</time></trkpt><trkpt lat="46.32122858027061" lon="12.317460596689521"><ele>471.2</ele><time>2026-04-25T14:51:05.999Z</time></trkpt><trkpt lat="46.32112894488517" lon="12.31738451018743"><ele>471.79999999999995</ele><time>2026-04-25T14:51:06.999Z</time></trkpt><trkpt lat="46.32105413053825" lon="12.317280370713242"><ele>472.4</ele><time>2026-04-25T14:51:07.999Z</time></trkpt><trkpt lat="46.321007099321484" lon="12.317143289691705"><ele>473.0</ele><time>2026-04-25T14:51:08.999Z</time></trkpt><trkpt lat="46.320997724527956" lon="12.316992506386343"><ele>475.2</ele><time>2026-04-25T14:51:09.999Z</time></trkpt><trkpt lat="46.32098279355546" lon="12.3168783035258"><ele>477.4</ele><time>2026-04-25T14:51:10.999Z</time></trkpt><trkpt lat="46.321035346033455" lon="12.316779185799353"><ele>479.59999999999997</ele><time>2026-04-25T14:51:11.999Z</time></trkpt><trkpt lat="46.321042540581864" lon="12.316628616159228"><ele>481.79999999999995</ele><time>2026-04-25T14:51:13.999Z</time></trkpt><trkpt lat="46.32098097944058" lon="12.316522655232788"><ele>484.0</ele><time>2026-04-25T14:51:16Z</time></trkpt><trkpt lat="46.320887253494135" lon="12.316495307396407"><ele>484.0</ele><time>2026-04-25T14:51:17Z</time></trkpt><trkpt lat="46.32076078322189" lon="12.31646390086484"><ele>484.0</ele><time>2026-04-25T14:51:18Z</time></trkpt><trkpt lat="46.32057286764614" lon="12.316420118007931"><ele>484.0</ele><time>2026-04-25T14:51:19Z</time></trkpt><trkpt lat="46.32040331054106" lon="12.316356120210681"><ele>495.0</ele><time>2026-04-25T14:51:20Z</time></trkpt><trkpt lat="46.32026456577322" lon="12.316320836667508"><ele>506.0</ele><time>2026-04-25T14:51:21Z</time></trkpt><trkpt lat="46.3201075270198" lon="12.316310772185457"><ele>517.0</ele><time>2026-04-25T14:51:22Z</time></trkpt><trkpt lat="46.31994298073682" lon="12.316323554573344"><ele>517.0</ele><time>2026-04-25T14:51:23Z</time></trkpt><trkpt lat="46.31976552112458" lon="12.31636168596058"><ele>517.0</ele><time>2026-04-25T14:51:24Z</time></trkpt><trkpt lat="46.31959619179578" lon="12.316364729806335"><ele>517.0</ele><time>2026-04-25T14:51:25Z</time></trkpt><trkpt lat="46.31945871164768" lon="12.31640362617972"><ele>509.25</ele><time>2026-04-25T14:51:26Z</time></trkpt><trkpt lat="46.3193166518375" lon="12.316418477621626"><ele>501.5</ele><time>2026-04-25T14:51:27Z</time></trkpt><trkpt lat="46.31917633474424" lon="12.316433333616397"><ele>493.75</ele><time>2026-04-25T14:51:28Z</time></trkpt><trkpt lat="46.31903288649058" lon="12.316421767878039"><ele>486.0</ele><time>2026-04-25T14:51:29Z</time></trkpt><trkpt lat="46.31887447325877" lon="12.316364648276595"><ele>486.0</ele><time>2026-04-25T14:51:30Z</time></trkpt><trkpt lat="46.31870356718406" lon="12.316273130378919"><ele>486.0</ele><time>2026-04-25T14:51:31Z</time></trkpt><trkpt lat="46.31852570421535" lon="12.31617612466289"><ele>486.0</ele><time>2026-04-25T14:51:32Z</time></trkpt><trkpt lat="46.318359533248405" lon="12.316117537408612"><ele>486.0</ele><time>2026-04-25T14:51:33Z</time></trkpt><trkpt lat="46.31819418173591" lon="12.316098248120033"><ele>486.0</ele><time>2026-04-25T14:51:34Z</time></trkpt><trkpt lat="46.318021504241045" lon="12.316126836676759"><ele>486.0</ele><time>2026-04-25T14:51:35Z</time></trkpt><trkpt lat="46.31785705458154" lon="12.316184251635452"><ele>489.66666666666663</ele><time>2026-04-25T14:51:36Z</time></trkpt><trkpt lat="46.3177086759054" lon="12.31627866245283"><ele>493.3333333333333</ele><time>2026-04-25T14:51:37Z</time></trkpt><trkpt lat="46.317569113411594" lon="12.316409010857981"><ele>497.0</ele><time>2026-04-25T14:51:38Z</time></trkpt><trkpt lat="46.31744339192459" lon="12.316561559971847"><ele>497.0</ele><time>2026-04-25T14:51:39Z</time></trkpt><trkpt lat="46.31731968163847" lon="12.31674385475357"><ele>497.0</ele><time>2026-04-25T14:51:40Z</time></trkpt><trkpt lat="46.317195431848056" lon="12.316950415715551"><ele>497.0</ele><time>2026-04-25T14:51:41Z</time></trkpt><trkpt lat="46.317075908297134" lon="12.31714656975019"><ele>504.3333333333333</ele><time>2026-04-25T14:51:42Z</time></trkpt><trkpt lat="46.31695494563245" lon="12.317335299479963"><ele>511.66666666666663</ele><time>2026-04-25T14:51:43Z</time></trkpt><trkpt lat="46.31683367616573" lon="12.317526252155124"><ele>519.0</ele><time>2026-04-25T14:51:44Z</time></trkpt><trkpt lat="46.31671226772609" lon="12.317725378275474"><ele>519.0</ele><time>2026-04-25T14:51:45Z</time></trkpt><trkpt lat="46.31656419592079" lon="12.317969737163766"><ele>519.0</ele><time>2026-04-25T14:51:46Z</time></trkpt><trkpt lat="46.316428294248006" lon="12.318201622563"><ele>519.0</ele><time>2026-04-25T14:51:47Z</time></trkpt><trkpt lat="46.31627497268845" lon="12.318416562467245"><ele>518.0</ele><time>2026-04-25T14:51:48Z</time></trkpt><trkpt lat="46.316143667366326" lon="12.318653047381977"><ele>517.0</ele><time>2026-04-25T14:51:49Z</time></trkpt><trkpt lat="46.315996453549175" lon="12.318859851537809"><ele>516.0</ele><time>2026-04-25T14:51:50Z</time></trkpt><trkpt lat="46.31584701553177" lon="12.31906440329798"><ele>519.6666666666666</ele><time>2026-04-25T14:51:51Z</time></trkpt><trkpt lat="46.31570129206865" lon="12.319260775757245"><ele>523.3333333333333</ele><time>2026-04-25T14:51:52Z</time></trkpt><trkpt lat="46.31556787884473" lon="12.319464675367255"><ele>527.0</ele><time>2026-04-25T14:51:53Z</time></trkpt><trkpt lat="46.3154468856664" lon="12.319698222296646"><ele>519.0</ele><time>2026-04-25T14:51:54Z</time></trkpt><trkpt lat="46.31534343048022" lon="12.319931234324601"><ele>511.0</ele><time>2026-04-25T14:51:55Z</time></trkpt><trkpt lat="46.31523642266176" lon="12.320146099544983"><ele>503.0</ele><time>2026-04-25T14:51:56Z</time></trkpt><trkpt lat="46.31511255100926" lon="12.320344853902764"><ele>503.0</ele><time>2026-04-25T14:51:57Z</time></trkpt><trkpt lat="46.314976824639565" lon="12.320532728980718"><ele>503.0</ele><time>2026-04-25T14:51:58Z</time></trkpt><trkpt lat="46.314842507763714" lon="12.320718934096233"><ele>503.0</ele><time>2026-04-25T14:51:59Z</time></trkpt><trkpt lat="46.314710104101806" lon="12.320937237210607"><ele>508.0</ele><time>2026-04-25T14:52:00Z</time></trkpt><trkpt lat="46.314572902463404" lon="12.32118481701727"><ele>513.0</ele><time>2026-04-25T14:52:01Z</time></trkpt><trkpt lat="46.314478368385025" lon="12.321427064335234"><ele>518.0</ele><time>2026-04-25T14:52:02Z</time></trkpt><trkpt lat="46.31436749345644" lon="12.32165017086656"><ele>518.0</ele><time>2026-04-25T14:52:03Z</time></trkpt><trkpt lat="46.31426547674987" lon="12.321850574002909"><ele>518.0</ele><time>2026-04-25T14:52:04Z</time></trkpt><trkpt lat="46.31418091543898" lon="12.322035646427095"><ele>518.0</ele><time>2026-04-25T14:52:05Z</time></trkpt><trkpt lat="46.31409156590672" lon="12.322211597164841"><ele>518.0</ele><time>2026-04-25T14:52:06Z</time></trkpt><trkpt lat="46.31398494628011" lon="12.322375902134288"><ele>518.0</ele><time>2026-04-25T14:52:07Z</time></trkpt><trkpt lat="46.31385169838441" lon="12.32250633529146"><ele>518.0</ele><time>2026-04-25T14:52:08Z</time></trkpt><trkpt lat="46.31369158115609" lon="12.322604021500279"><ele>518.0</ele><time>2026-04-25T14:52:09Z</time></trkpt><trkpt lat="46.31354018500202" lon="12.322690303910859"><ele>518.0</ele><time>2026-04-25T14:52:10Z</time></trkpt><trkpt lat="46.31339248849313" lon="12.322765295443777"><ele>518.0</ele><time>2026-04-25T14:52:11Z</time></trkpt><trkpt lat="46.31321914123103" lon="12.322793423766202"><ele>520.0</ele><time>2026-04-25T14:52:12Z</time></trkpt><trkpt lat="46.3130172994088" lon="12.322785329941603"><ele>522.0</ele><time>2026-04-25T14:52:13Z</time></trkpt><trkpt lat="46.312820517316894" lon="12.322798463559781"><ele>524.0</ele><time>2026-04-25T14:52:14Z</time></trkpt><trkpt lat="46.31263397625988" lon="12.322854781681144"><ele>524.0</ele><time>2026-04-25T14:52:15Z</time></trkpt><trkpt lat="46.31244773637361" lon="12.32295148020694"><ele>524.0</ele><time>2026-04-25T14:52:16Z</time></trkpt><trkpt lat="46.31227346709515" lon="12.323061115747"><ele>524.0</ele><time>2026-04-25T14:52:17Z</time></trkpt><trkpt lat="46.31212656356558" lon="12.323164653891904"><ele>512.3333333333333</ele><time>2026-04-25T14:52:18Z</time></trkpt><trkpt lat="46.31195436370395" lon="12.32324363444695"><ele>500.66666666666663</ele><time>2026-04-25T14:52:18.999Z</time></trkpt><trkpt lat="46.31176026816829" lon="12.323285819787483"><ele>489.0</ele><time>2026-04-25T14:52:19.999Z</time></trkpt><trkpt lat="46.311562965418126" lon="12.323322408852517"><ele>500.66666666666663</ele><time>2026-04-25T14:52:20.999Z</time></trkpt><trkpt lat="46.31138746792256" lon="12.323362944981817"><ele>512.3333333333333</ele><time>2026-04-25T14:52:21.999Z</time></trkpt><trkpt lat="46.3112271008759" lon="12.323398750828"><ele>524.0</ele><time>2026-04-25T14:52:22.999Z</time></trkpt><trkpt lat="46.311064969362036" lon="12.323430923574955"><ele>524.0</ele><time>2026-04-25T14:52:23.999Z</time></trkpt><trkpt lat="46.310911864157305" lon="12.32347154898572"><ele>524.0</ele><time>2026-04-25T14:52:24.999Z</time></trkpt><trkpt lat="46.310760194209294" lon="12.323528127933196"><ele>524.0</ele><time>2026-04-25T14:52:25.999Z</time></trkpt><trkpt lat="46.310613445211686" lon="12.323676598877205"><ele>529.5</ele><time>2026-04-25T14:52:26.999Z</time></trkpt><trkpt lat="46.31047377711328" lon="12.32377665273159"><ele>535.0</ele><time>2026-04-25T14:52:27.999Z</time></trkpt><trkpt lat="46.31036205927456" lon="12.323874872705922"><ele>540.5</ele><time>2026-04-25T14:52:28.999Z</time></trkpt><trkpt lat="46.31025054955997" lon="12.323936966716465"><ele>546.0</ele><time>2026-04-25T14:52:29.999Z</time></trkpt><trkpt lat="46.3101109792216" lon="12.3239687305299"><ele>524.3333333333334</ele><time>2026-04-25T14:52:30.999Z</time></trkpt><trkpt lat="46.309941361766484" lon="12.323970364125483"><ele>502.6666666666667</ele><time>2026-04-25T14:52:31.999Z</time></trkpt><trkpt lat="46.309742508188286" lon="12.32397082828448"><ele>481.0</ele><time>2026-04-25T14:52:32.999Z</time></trkpt><trkpt lat="46.309538436347864" lon="12.323970088892871"><ele>475.0</ele><time>2026-04-25T14:52:33.999Z</time></trkpt><trkpt lat="46.30936185137307" lon="12.323971842584074"><ele>469.0</ele><time>2026-04-25T14:52:34.999Z</time></trkpt><trkpt lat="46.30918612014939" lon="12.324004342432971"><ele>463.0</ele><time>2026-04-25T14:52:35.999Z</time></trkpt><trkpt lat="46.309005854740555" lon="12.324033277616913"><ele>467.0</ele><time>2026-04-25T14:52:36.999Z</time></trkpt><trkpt lat="46.30881547041454" lon="12.324090587553602"><ele>471.0</ele><time>2026-04-25T14:52:37.999Z</time></trkpt><trkpt lat="46.308643523762484" lon="12.324174636939702"><ele>475.0</ele><time>2026-04-25T14:52:38.999Z</time></trkpt><trkpt lat="46.30848886529263" lon="12.324252882318126"><ele>475.0</ele><time>2026-04-25T14:52:39.999Z</time></trkpt><trkpt lat="46.308333370579234" lon="12.324327724848711"><ele>475.0</ele><time>2026-04-25T14:52:40.999Z</time></trkpt><trkpt lat="46.30818121379864" lon="12.324392871138636"><ele>475.0</ele><time>2026-04-25T14:52:41.999Z</time></trkpt><trkpt lat="46.30801037439189" lon="12.324433467427296"><ele>482.6666666666667</ele><time>2026-04-25T14:52:42.999Z</time></trkpt><trkpt lat="46.3078205807365" lon="12.324462346215771"><ele>490.33333333333337</ele><time>2026-04-25T14:52:43.999Z</time></trkpt><trkpt lat="46.30762969863499" lon="12.32449060433321"><ele>498.0</ele><time>2026-04-25T14:52:44.999Z</time></trkpt><trkpt lat="46.30745778890748" lon="12.324514800020024"><ele>498.0</ele><time>2026-04-25T14:52:45.999Z</time></trkpt><trkpt lat="46.30729551520303" lon="12.324535736624565"><ele>498.0</ele><time>2026-04-25T14:52:46.999Z</time></trkpt><trkpt lat="46.307134425833986" lon="12.324557610174976"><ele>498.0</ele><time>2026-04-25T14:52:47.999Z</time></trkpt><trkpt lat="46.30697357465044" lon="12.324583343289504"><ele>496.33333333333337</ele><time>2026-04-25T14:52:48.999Z</time></trkpt><trkpt lat="46.306819344577164" lon="12.324603353612627"><ele>494.6666666666667</ele><time>2026-04-25T14:52:49.999Z</time></trkpt><trkpt lat="46.30666227652199" lon="12.324606072590319"><ele>493.0</ele><time>2026-04-25T14:52:50.999Z</time></trkpt><trkpt lat="46.30648645584204" lon="12.324574203352979"><ele>488.33333333333337</ele><time>2026-04-25T14:52:51.999Z</time></trkpt><trkpt lat="46.30630206429406" lon="12.324531071467318"><ele>483.66666666666663</ele><time>2026-04-25T14:52:52.999Z</time></trkpt><trkpt lat="46.30613132946738" lon="12.324483502411221"><ele>479.0</ele><time>2026-04-25T14:52:53.999Z</time></trkpt><trkpt lat="46.30597165250417" lon="12.324415076132922"><ele>479.0</ele><time>2026-04-25T14:52:54.999Z</time></trkpt><trkpt lat="46.305816784437326" lon="12.324287864261747"><ele>479.0</ele><time>2026-04-25T14:52:55.999Z</time></trkpt><trkpt lat="46.30565817986579" lon="12.324171505658336"><ele>479.0</ele><time>2026-04-25T14:52:56.999Z</time></trkpt><trkpt lat="46.305520840585565" lon="12.324061364126504"><ele>474.0</ele><time>2026-04-25T14:52:57.999Z</time></trkpt><trkpt lat="46.305385828656654" lon="12.323954428044392"><ele>469.0</ele><time>2026-04-25T14:52:58.999Z</time></trkpt><trkpt lat="46.305244386047676" lon="12.323860321541648"><ele>464.0</ele><time>2026-04-25T14:52:59.999Z</time></trkpt><trkpt lat="46.30506984406888" lon="12.323827485504188"><ele>462.0</ele><time>2026-04-25T14:53:00.999Z</time></trkpt><trkpt lat="46.30488264580713" lon="12.323851600753223"><ele>460.0</ele><time>2026-04-25T14:53:01.999Z</time></trkpt><trkpt lat="46.30470151818474" lon="12.323879758924951"><ele>458.0</ele><time>2026-04-25T14:53:02.999Z</time></trkpt><trkpt lat="46.30453090886005" lon="12.323897557279235"><ele>470.0</ele><time>2026-04-25T14:53:03.999Z</time></trkpt><trkpt lat="46.304356650202585" lon="12.32387907816199"><ele>482.0</ele><time>2026-04-25T14:53:04.999Z</time></trkpt><trkpt lat="46.30417456055022" lon="12.323835803199264"><ele>494.0</ele><time>2026-04-25T14:53:05.999Z</time></trkpt><trkpt lat="46.304018600910794" lon="12.32376573841316"><ele>487.75</ele><time>2026-04-25T14:53:06.999Z</time></trkpt><trkpt lat="46.30387706916759" lon="12.323708380160022"><ele>481.5</ele><time>2026-04-25T14:53:07.999Z</time></trkpt><trkpt lat="46.30374083964191" lon="12.323635277021808"><ele>475.25</ele><time>2026-04-25T14:53:08.999Z</time></trkpt><trkpt lat="46.30360830753624" lon="12.323521000416212"><ele>469.0</ele><time>2026-04-25T14:53:09.999Z</time></trkpt><trkpt lat="46.303480246853034" lon="12.32335779269545"><ele>469.0</ele><time>2026-04-25T14:53:10.999Z</time></trkpt><trkpt lat="46.30335928608261" lon="12.32320024983597"><ele>469.0</ele><time>2026-04-25T14:53:11.999Z</time></trkpt><trkpt lat="46.30324960697914" lon="12.323068502823489"><ele>469.0</ele><time>2026-04-25T14:53:12.999Z</time></trkpt><trkpt lat="46.30314996095412" lon="12.322911987722339"><ele>466.33333333333337</ele><time>2026-04-25T14:53:13.999Z</time></trkpt><trkpt lat="46.30305803776399" lon="12.322715821081191"><ele>463.66666666666663</ele><time>2026-04-25T14:53:14.999Z</time></trkpt><trkpt lat="46.302966553669584" lon="12.322495441673583"><ele>461.0</ele><time>2026-04-25T14:53:15.999Z</time></trkpt><trkpt lat="46.302877626652815" lon="12.322284065097902"><ele>463.66666666666663</ele><time>2026-04-25T14:53:16.999Z</time></trkpt><trkpt lat="46.302791604854804" lon="12.322076829244502"><ele>466.33333333333337</ele><time>2026-04-25T14:53:17.999Z</time></trkpt><trkpt lat="46.302708773362355" lon="12.3218613152565"><ele>469.0</ele><time>2026-04-25T14:53:18.999Z</time></trkpt><trkpt lat="46.3026275903364" lon="12.321634569985875"><ele>471.33333333333337</ele><time>2026-04-25T14:53:20Z</time></trkpt><trkpt lat="46.302550344933735" lon="12.321386875521844"><ele>473.66666666666663</ele><time>2026-04-25T14:53:21Z</time></trkpt><trkpt lat="46.3024714011064" lon="12.32112807580043"><ele>476.0</ele><time>2026-04-25T14:53:22Z</time></trkpt><trkpt lat="46.30239083912428" lon="12.32085910226181"><ele>476.0</ele><time>2026-04-25T14:53:23Z</time></trkpt><trkpt lat="46.30230912906433" lon="12.320592218388734"><ele>476.0</ele><time>2026-04-25T14:53:24Z</time></trkpt><trkpt lat="46.30222712538003" lon="12.320326987302092"><ele>476.0</ele><time>2026-04-25T14:53:25Z</time></trkpt><trkpt lat="46.30214797668086" lon="12.320071795867415"><ele>471.0</ele><time>2026-04-25T14:53:26Z</time></trkpt><trkpt lat="46.30207292135158" lon="12.319825202376451"><ele>466.0</ele><time>2026-04-25T14:53:27Z</time></trkpt><trkpt lat="46.301997824361834" lon="12.319586055777128"><ele>461.0</ele><time>2026-04-25T14:53:28Z</time></trkpt><trkpt lat="46.301921056351645" lon="12.31934343893781"><ele>461.0</ele><time>2026-04-25T14:53:29Z</time></trkpt><trkpt lat="46.30184676917764" lon="12.31909967994669"><ele>461.0</ele><time>2026-04-25T14:53:30Z</time></trkpt><trkpt lat="46.30177711520975" lon="12.318852159089856"><ele>461.0</ele><time>2026-04-25T14:53:31Z</time></trkpt><trkpt lat="46.301713445003195" lon="12.318605229170766"><ele>466.3333333333333</ele><time>2026-04-25T14:53:32Z</time></trkpt><trkpt lat="46.301650656480604" lon="12.318357800325034"><ele>471.66666666666663</ele><time>2026-04-25T14:53:33Z</time></trkpt><trkpt lat="46.30157568329997" lon="12.318119116723903"><ele>477.0</ele><time>2026-04-25T14:53:34Z</time></trkpt><trkpt lat="46.30147961139882" lon="12.317889510424857"><ele>473.0</ele><time>2026-04-25T14:53:35Z</time></trkpt><trkpt lat="46.30137030340299" lon="12.317665092421493"><ele>469.0</ele><time>2026-04-25T14:53:36Z</time></trkpt><trkpt lat="46.30124666016663" lon="12.317450429642765"><ele>465.0</ele><time>2026-04-25T14:53:37Z</time></trkpt><trkpt lat="46.30111231733187" lon="12.317250186090815"><ele>474.0</ele><time>2026-04-25T14:53:38Z</time></trkpt><trkpt lat="46.30096789769989" lon="12.317069005934579"><ele>483.0</ele><time>2026-04-25T14:53:39Z</time></trkpt><trkpt lat="46.30082804838559" lon="12.316887753480662"><ele>492.0</ele><time>2026-04-25T14:53:40Z</time></trkpt><trkpt lat="46.30069376128961" lon="12.316716746855224"><ele>489.0</ele><time>2026-04-25T14:53:41Z</time></trkpt><trkpt lat="46.300560811601144" lon="12.316557979409803"><ele>486.0</ele><time>2026-04-25T14:53:42Z</time></trkpt><trkpt lat="46.30044202076197" lon="12.316408921658624"><ele>483.0</ele><time>2026-04-25T14:53:43Z</time></trkpt><trkpt lat="46.300331305015725" lon="12.31625662942126"><ele>483.0</ele><time>2026-04-25T14:53:44Z</time></trkpt><trkpt lat="46.30023137727864" lon="12.316087639071423"><ele>483.0</ele><time>2026-04-25T14:53:45Z</time></trkpt><trkpt lat="46.30015806384797" lon="12.315919708843788"><ele>483.0</ele><time>2026-04-25T14:53:46Z</time></trkpt><trkpt lat="46.3000984897972" lon="12.3157460016917"><ele>483.0</ele><time>2026-04-25T14:53:47Z</time></trkpt><trkpt lat="46.30001431967445" lon="12.315568888493338"><ele>479.66666666666663</ele><time>2026-04-25T14:53:48Z</time></trkpt><trkpt lat="46.29990300550227" lon="12.31540047499189"><ele>476.3333333333333</ele><time>2026-04-25T14:53:49Z</time></trkpt><trkpt lat="46.299763603570284" lon="12.315256657157008"><ele>473.0</ele><time>2026-04-25T14:53:50Z</time></trkpt><trkpt lat="46.299591056121706" lon="12.315133215251514"><ele>473.0</ele><time>2026-04-25T14:53:51Z</time></trkpt><trkpt lat="46.29940034915081" lon="12.315021056000624"><ele>473.0</ele><time>2026-04-25T14:53:52Z</time></trkpt><trkpt lat="46.29920636066551" lon="12.314916589905987"><ele>473.0</ele><time>2026-04-25T14:53:53Z</time></trkpt><trkpt lat="46.29901946402138" lon="12.314791238971656"><ele>475.0</ele><time>2026-04-25T14:53:54Z</time></trkpt><trkpt lat="46.298860810418425" lon="12.314641508926414"><ele>477.0</ele><time>2026-04-25T14:53:55Z</time></trkpt><trkpt lat="46.29871464444208" lon="12.314483776797148"><ele>479.0</ele><time>2026-04-25T14:53:56Z</time></trkpt><trkpt lat="46.29856636072093" lon="12.314330575132962"><ele>479.0</ele><time>2026-04-25T14:53:57Z</time></trkpt><trkpt lat="46.29840475083264" lon="12.314213646394778"><ele>479.0</ele><time>2026-04-25T14:53:58Z</time></trkpt><trkpt lat="46.29823641584352" lon="12.314155362443056"><ele>479.0</ele><time>2026-04-25T14:53:59Z</time></trkpt><trkpt lat="46.29808199627773" lon="12.314117124858376"><ele>482.66666666666663</ele><time>2026-04-25T14:54:00Z</time></trkpt><trkpt lat="46.29793656664705" lon="12.314045320222853"><ele>486.33333333333337</ele><time>2026-04-25T14:54:01Z</time></trkpt><trkpt lat="46.297795827072896" lon="12.313941583066521"><ele>490.0</ele><time>2026-04-25T14:54:02Z</time></trkpt><trkpt lat="46.29766598760235" lon="12.313807417724137"><ele>490.0</ele><time>2026-04-25T14:54:03Z</time></trkpt><trkpt lat="46.29754591806998" lon="12.313626503801135"><ele>490.0</ele><time>2026-04-25T14:54:04Z</time></trkpt><trkpt lat="46.297418410671945" lon="12.31345551690985"><ele>490.0</ele><time>2026-04-25T14:54:05Z</time></trkpt><trkpt lat="46.2972922683215" lon="12.313296411240309"><ele>485.6666666666667</ele><time>2026-04-25T14:54:06Z</time></trkpt><trkpt lat="46.29716643658848" lon="12.313150745936825"><ele>481.33333333333337</ele><time>2026-04-25T14:54:07Z</time></trkpt><trkpt lat="46.29703812584731" lon="12.31301641163784"><ele>477.0</ele><time>2026-04-25T14:54:08Z</time></trkpt><trkpt lat="46.29690748445109" lon="12.312877218883376"><ele>477.0</ele><time>2026-04-25T14:54:09Z</time></trkpt><trkpt lat="46.296777510811815" lon="12.312731777879486"><ele>477.0</ele><time>2026-04-25T14:54:10Z</time></trkpt><trkpt lat="46.296645811180696" lon="12.312584499108615"><ele>477.0</ele><time>2026-04-25T14:54:11Z</time></trkpt><trkpt lat="46.29651571795363" lon="12.312440604318256"><ele>473.66666666666663</ele><time>2026-04-25T14:54:12Z</time></trkpt><trkpt lat="46.296387355338595" lon="12.31230116818687"><ele>470.3333333333333</ele><time>2026-04-25T14:54:13Z</time></trkpt><trkpt lat="46.29626358176762" lon="12.312167202861138"><ele>467.0</ele><time>2026-04-25T14:54:14Z</time></trkpt><trkpt lat="46.29614970878042" lon="12.312046535620203"><ele>467.0</ele><time>2026-04-25T14:54:15Z</time></trkpt><trkpt lat="46.296046519289405" lon="12.31193665156055"><ele>467.00000000000006</ele><time>2026-04-25T14:54:16Z</time></trkpt><trkpt lat="46.29595953231639" lon="12.311829669768672"><ele>467.00000000000006</ele><time>2026-04-25T14:54:17Z</time></trkpt><trkpt lat="46.29589685123796" lon="12.311742264721193"><ele>467.0</ele><time>2026-04-25T14:54:18Z</time></trkpt><trkpt lat="46.29584498935827" lon="12.311663589392102"><ele>467.0</ele><time>2026-04-25T14:54:19Z</time></trkpt><trkpt lat="46.29578411868501" lon="12.311558864452048"><ele>467.0</ele><time>2026-04-25T14:54:21Z</time></trkpt><trkpt lat="46.2957414277166" lon="12.311458771669372"><ele>467.00000000000006</ele><time>2026-04-25T14:54:29.999Z</time></trkpt><trkpt lat="46.29570691160178" lon="12.311307767486365"><ele>467.00000000000006</ele><time>2026-04-25T14:54:31.999Z</time></trkpt><trkpt lat="46.295661017027754" lon="12.31119800544232"><ele>467.0</ele><time>2026-04-25T14:54:32.999Z</time></trkpt><trkpt lat="46.29558765591437" lon="12.31109904633545"><ele>467.0</ele><time>2026-04-25T14:54:33.999Z</time></trkpt><trkpt lat="46.29550472261404" lon="12.310995344370276"><ele>468.6</ele><time>2026-04-25T14:54:34.999Z</time></trkpt><trkpt lat="46.29542886429969" lon="12.310909372075693"><ele>470.20000000000005</ele><time>2026-04-25T14:54:35.999Z</time></trkpt><trkpt lat="46.295361088421714" lon="12.310832712372134"><ele>471.8</ele><time>2026-04-25T14:54:36.999Z</time></trkpt><trkpt lat="46.2952979487831" lon="12.31076510755384"><ele>473.4</ele><time>2026-04-25T14:54:37.999Z</time></trkpt><trkpt lat="46.29521717285152" lon="12.310697223200034"><ele>475.0</ele><time>2026-04-25T14:54:38.999Z</time></trkpt><trkpt lat="46.29513223874726" lon="12.310609093871538"><ele>486.00000000000006</ele><time>2026-04-25T14:54:39.999Z</time></trkpt><trkpt lat="46.29506044634218" lon="12.310559344734811"><ele>497.0</ele><time>2026-04-25T14:54:40.999Z</time></trkpt><trkpt lat="46.29499132808568" lon="12.31052286495268"><ele>508.0</ele><time>2026-04-25T14:54:41.999Z</time></trkpt><trkpt lat="46.29490919918011" lon="12.31050054475203"><ele>519.0</ele><time>2026-04-25T14:54:42.999Z</time></trkpt><trkpt lat="46.29482358472495" lon="12.310491304735772"><ele>530.0</ele><time>2026-04-25T14:54:43.999Z</time></trkpt><trkpt lat="46.29472551061438" lon="12.310513681593791"><ele>541.0</ele><time>2026-04-25T14:54:44.999Z</time></trkpt><trkpt lat="46.29462184433789" lon="12.310557137703661"><ele>525.6</ele><time>2026-04-25T14:54:45.999Z</time></trkpt><trkpt lat="46.2945120487834" lon="12.310583701156302"><ele>510.20000000000005</ele><time>2026-04-25T14:54:46.999Z</time></trkpt><trkpt lat="46.294404069529385" lon="12.310596768382867"><ele>494.79999999999995</ele><time>2026-04-25T14:54:47.999Z</time></trkpt><trkpt lat="46.294295130816096" lon="12.310593225708457"><ele>479.4</ele><time>2026-04-25T14:54:48.999Z</time></trkpt><trkpt lat="46.294181746908556" lon="12.310586868408194"><ele>464.0</ele><time>2026-04-25T14:54:49.999Z</time></trkpt><trkpt lat="46.294060971429836" lon="12.310589417395354"><ele>464.0</ele><time>2026-04-25T14:54:50.999Z</time></trkpt><trkpt lat="46.29392995473075" lon="12.310609807321747"><ele>464.0</ele><time>2026-04-25T14:54:51.999Z</time></trkpt><trkpt lat="46.29379177939392" lon="12.31063926874916"><ele>464.0</ele><time>2026-04-25T14:54:52.999Z</time></trkpt><trkpt lat="46.29365374302497" lon="12.310683753263191"><ele>464.0</ele><time>2026-04-25T14:54:53.999Z</time></trkpt><trkpt lat="46.29352297209085" lon="12.310731478049092"><ele>464.5</ele><time>2026-04-25T14:54:54.999Z</time></trkpt><trkpt lat="46.29339702714519" lon="12.31076769266172"><ele>465.0</ele><time>2026-04-25T14:54:55.999Z</time></trkpt><trkpt lat="46.293273514003765" lon="12.310793458354773"><ele>465.5</ele><time>2026-04-25T14:54:56.999Z</time></trkpt><trkpt lat="46.293151545139104" lon="12.31079118839199"><ele>466.0</ele><time>2026-04-25T14:54:57.999Z</time></trkpt><trkpt lat="46.2930271515248" lon="12.310776864591588"><ele>466.0</ele><time>2026-04-25T14:54:58.999Z</time></trkpt><trkpt lat="46.29290225970401" lon="12.310773992734036"><ele>466.0</ele><time>2026-04-25T14:54:59.999Z</time></trkpt><trkpt lat="46.292779345540794" lon="12.310768304707665"><ele>466.0</ele><time>2026-04-25T14:55:00.999Z</time></trkpt><trkpt lat="46.292659062236815" lon="12.310760202025156"><ele>466.0</ele><time>2026-04-25T14:55:01.999Z</time></trkpt><trkpt lat="46.292542018011" lon="12.310755058063386"><ele>466.0</ele><time>2026-04-25T14:55:02.999Z</time></trkpt><trkpt lat="46.2924296641543" lon="12.310750993235366"><ele>466.0</ele><time>2026-04-25T14:55:03.999Z</time></trkpt><trkpt lat="46.29231665603927" lon="12.310748204334336"><ele>466.0</ele><time>2026-04-25T14:55:04.999Z</time></trkpt><trkpt lat="46.292211380903055" lon="12.310734169021583"><ele>466.0</ele><time>2026-04-25T14:55:05.999Z</time></trkpt><trkpt lat="46.2921054609423" lon="12.310712851516694"><ele>466.0</ele><time>2026-04-25T14:55:06.999Z</time></trkpt><trkpt lat="46.29199925964143" lon="12.310696508189336"><ele>466.5</ele><time>2026-04-25T14:55:07.999Z</time></trkpt><trkpt lat="46.29188587167103" lon="12.310681444203663"><ele>467.0</ele><time>2026-04-25T14:55:08.999Z</time></trkpt><trkpt lat="46.2917689186461" lon="12.310663436381217"><ele>467.5</ele><time>2026-04-25T14:55:09.999Z</time></trkpt><trkpt lat="46.29165324830042" lon="12.310643961139625"><ele>468.0</ele><time>2026-04-25T14:55:10.999Z</time></trkpt><trkpt lat="46.291535966992576" lon="12.310624948128744"><ele>468.0</ele><time>2026-04-25T14:55:11.999Z</time></trkpt><trkpt lat="46.29142220562596" lon="12.310607773223701"><ele>468.0</ele><time>2026-04-25T14:55:12.999Z</time></trkpt><trkpt lat="46.29131123190462" lon="12.310589188322504"><ele>468.0</ele><time>2026-04-25T14:55:13.999Z</time></trkpt><trkpt lat="46.29119848753605" lon="12.310572123801926"><ele>468.0</ele><time>2026-04-25T14:55:14.999Z</time></trkpt><trkpt lat="46.29108491374943" lon="12.310552500744544"><ele>474.25</ele><time>2026-04-25T14:55:15.999Z</time></trkpt><trkpt lat="46.29097092344879" lon="12.3105332064716"><ele>480.5</ele><time>2026-04-25T14:55:16.999Z</time></trkpt><trkpt lat="46.290856522309866" lon="12.310515286732645"><ele>486.75</ele><time>2026-04-25T14:55:17.999Z</time></trkpt><trkpt lat="46.29073841148837" lon="12.31049665808471"><ele>493.0</ele><time>2026-04-25T14:55:18.999Z</time></trkpt><trkpt lat="46.29061882678902" lon="12.310475742711722"><ele>492.75</ele><time>2026-04-25T14:55:19.999Z</time></trkpt><trkpt lat="46.290501235320995" lon="12.310459503729206"><ele>492.5</ele><time>2026-04-25T14:55:20.999Z</time></trkpt><trkpt lat="46.29038284027874" lon="12.310446588492685"><ele>492.25</ele><time>2026-04-25T14:55:21.999Z</time></trkpt><trkpt lat="46.29025662865016" lon="12.310439395048505"><ele>492.0</ele><time>2026-04-25T14:55:22.999Z</time></trkpt><trkpt lat="46.29011299900921" lon="12.310434985544038"><ele>492.0</ele><time>2026-04-25T14:55:23.999Z</time></trkpt><trkpt lat="46.289966580484865" lon="12.310434872388374"><ele>492.0</ele><time>2026-04-25T14:55:24.999Z</time></trkpt><trkpt lat="46.28982054797539" lon="12.310444469635463"><ele>492.0</ele><time>2026-04-25T14:55:26Z</time></trkpt><trkpt lat="46.289674690775975" lon="12.310456496046035"><ele>492.0</ele><time>2026-04-25T14:55:27Z</time></trkpt><trkpt lat="46.28952748419294" lon="12.310470972419246"><ele>494.33333333333337</ele><time>2026-04-25T14:55:28Z</time></trkpt><trkpt lat="46.28938034359746" lon="12.310489870359968"><ele>496.6666666666667</ele><time>2026-04-25T14:55:29Z</time></trkpt><trkpt lat="46.28922659001129" lon="12.310512097352772"><ele>499.0</ele><time>2026-04-25T14:55:30Z</time></trkpt><trkpt lat="46.28906103125075" lon="12.310535028951808"><ele>499.33333333333337</ele><time>2026-04-25T14:55:31Z</time></trkpt><trkpt lat="46.28888913184875" lon="12.310559527014682"><ele>499.66666666666663</ele><time>2026-04-25T14:55:32Z</time></trkpt><trkpt lat="46.28872759853113" lon="12.310582616047999"><ele>500.0</ele><time>2026-04-25T14:55:33Z</time></trkpt><trkpt lat="46.288571182859144" lon="12.310608548449764"><ele>492.66666666666663</ele><time>2026-04-25T14:55:34Z</time></trkpt><trkpt lat="46.28841138605973" lon="12.310632430044167"><ele>485.33333333333337</ele><time>2026-04-25T14:55:35Z</time></trkpt><trkpt lat="46.28825159974267" lon="12.31065374565115"><ele>478.0</ele><time>2026-04-25T14:55:36Z</time></trkpt><trkpt lat="46.2880956320044" lon="12.310676952887547"><ele>480.33333333333337</ele><time>2026-04-25T14:55:37Z</time></trkpt><trkpt lat="46.2879437940759" lon="12.310698733179722"><ele>482.66666666666663</ele><time>2026-04-25T14:55:38Z</time></trkpt><trkpt lat="46.2877922789888" lon="12.31072028258978"><ele>485.0</ele><time>2026-04-25T14:55:39Z</time></trkpt><trkpt lat="46.28764295329967" lon="12.310744062026009"><ele>485.0</ele><time>2026-04-25T14:55:40Z</time></trkpt><trkpt lat="46.28749067673982" lon="12.310768888258417"><ele>485.0</ele><time>2026-04-25T14:55:41Z</time></trkpt><trkpt lat="46.28733552357386" lon="12.310796570196219"><ele>485.0</ele><time>2026-04-25T14:55:42Z</time></trkpt><trkpt lat="46.287180912607226" lon="12.310823840354718"><ele>488.0</ele><time>2026-04-25T14:55:43Z</time></trkpt><trkpt lat="46.2870165280536" lon="12.310854536985468"><ele>491.0</ele><time>2026-04-25T14:55:44Z</time></trkpt><trkpt lat="46.28685532533382" lon="12.310881326990922"><ele>494.0</ele><time>2026-04-25T14:55:45Z</time></trkpt><trkpt lat="46.28669842118256" lon="12.310898878821206"><ele>494.0</ele><time>2026-04-25T14:55:46Z</time></trkpt><trkpt lat="46.2865389458805" lon="12.310904903971045"><ele>494.0</ele><time>2026-04-25T14:55:47Z</time></trkpt><trkpt lat="46.28637189871045" lon="12.310887043023554"><ele>494.0</ele><time>2026-04-25T14:55:48Z</time></trkpt><trkpt lat="46.28619726408625" lon="12.310838668639903"><ele>491.3333333333333</ele><time>2026-04-25T14:55:49Z</time></trkpt><trkpt lat="46.28602727501578" lon="12.310773485709692"><ele>488.66666666666663</ele><time>2026-04-25T14:55:50Z</time></trkpt><trkpt lat="46.28585830121942" lon="12.310692096743768"><ele>486.0</ele><time>2026-04-25T14:55:51Z</time></trkpt><trkpt lat="46.28569631821477" lon="12.310591965217416"><ele>487.0</ele><time>2026-04-25T14:55:52Z</time></trkpt><trkpt lat="46.285548088499205" lon="12.310467723859082"><ele>488.0</ele><time>2026-04-25T14:55:53Z</time></trkpt><trkpt lat="46.28540839734306" lon="12.310329098026244"><ele>489.0</ele><time>2026-04-25T14:55:54Z</time></trkpt><trkpt lat="46.285278982603316" lon="12.31018423449455"><ele>489.0</ele><time>2026-04-25T14:55:55Z</time></trkpt><trkpt lat="46.28514680543663" lon="12.310044115947075"><ele>489.0</ele><time>2026-04-25T14:55:56Z</time></trkpt><trkpt lat="46.28500331626972" lon="12.309913593548936"><ele>489.0</ele><time>2026-04-25T14:55:57Z</time></trkpt><trkpt lat="46.28485107967101" lon="12.309793832511863"><ele>490.0</ele><time>2026-04-25T14:55:58Z</time></trkpt><trkpt lat="46.2846908490424" lon="12.309687921075046"><ele>491.0</ele><time>2026-04-25T14:55:59Z</time></trkpt><trkpt lat="46.284530846384826" lon="12.30957820652898"><ele>492.0</ele><time>2026-04-25T14:56:00Z</time></trkpt><trkpt lat="46.28437471791572" lon="12.309459804049562"><ele>492.0</ele><time>2026-04-25T14:56:01Z</time></trkpt><trkpt lat="46.28422254441706" lon="12.309338686575048"><ele>492.0</ele><time>2026-04-25T14:56:02Z</time></trkpt><trkpt lat="46.28407912038369" lon="12.309210026599134"><ele>492.0</ele><time>2026-04-25T14:56:03Z</time></trkpt><trkpt lat="46.283939948567415" lon="12.309067869102087"><ele>491.33333333333337</ele><time>2026-04-25T14:56:04Z</time></trkpt><trkpt lat="46.28380203312201" lon="12.30892485175158"><ele>490.6666666666667</ele><time>2026-04-25T14:56:05Z</time></trkpt><trkpt lat="46.283669144727455" lon="12.308786390135747"><ele>490.0</ele><time>2026-04-25T14:56:06Z</time></trkpt><trkpt lat="46.28353782866982" lon="12.308648939995175"><ele>490.0</ele><time>2026-04-25T14:56:07Z</time></trkpt><trkpt lat="46.28340931683375" lon="12.308519196381997"><ele>490.0</ele><time>2026-04-25T14:56:08Z</time></trkpt><trkpt lat="46.28329238075497" lon="12.308404849542578"><ele>490.0</ele><time>2026-04-25T14:56:09Z</time></trkpt><trkpt lat="46.28318928039461" lon="12.308304441523413"><ele>490.0</ele><time>2026-04-25T14:56:10Z</time></trkpt><trkpt lat="46.283096854287784" lon="12.308212172773834"><ele>489.4</ele><time>2026-04-25T14:56:11Z</time></trkpt><trkpt lat="46.28302390483504" lon="12.308129347386371"><ele>488.8</ele><time>2026-04-25T14:56:12Z</time></trkpt><trkpt lat="46.28295969803983" lon="12.308049757153382"><ele>488.20000000000005</ele><time>2026-04-25T14:56:13Z</time></trkpt><trkpt lat="46.28290997428859" lon="12.307967830934514"><ele>487.6</ele><time>2026-04-25T14:56:14Z</time></trkpt><trkpt lat="46.28287655645314" lon="12.307876048203633"><ele>487.0</ele><time>2026-04-25T14:56:15Z</time></trkpt><trkpt lat="46.2827121091654" lon="12.307868322004168"><ele>487.0</ele><time>2026-04-25T14:56:17Z</time></trkpt><trkpt lat="46.28261729118527" lon="12.3079112874053"><ele>487.00000000000006</ele><time>2026-04-25T14:56:18Z</time></trkpt><trkpt lat="46.28251107108143" lon="12.307946944062174"><ele>487.00000000000006</ele><time>2026-04-25T14:56:19Z</time></trkpt><trkpt lat="46.28240864053284" lon="12.3079768109135"><ele>487.0</ele><time>2026-04-25T14:56:20Z</time></trkpt><trkpt lat="46.28231384284783" lon="12.30801010328169"><ele>487.0</ele><time>2026-04-25T14:56:21Z</time></trkpt><trkpt lat="46.282222298657736" lon="12.308058817025355"><ele>484.6</ele><time>2026-04-25T14:56:22Z</time></trkpt><trkpt lat="46.282124084457145" lon="12.308113211150047"><ele>482.20000000000005</ele><time>2026-04-25T14:56:23Z</time></trkpt><trkpt lat="46.28203718159383" lon="12.308209414747054"><ele>479.8</ele><time>2026-04-25T14:56:24Z</time></trkpt><trkpt lat="46.2819689531876" lon="12.308308034509357"><ele>477.4</ele><time>2026-04-25T14:56:25Z</time></trkpt><trkpt lat="46.28190672596931" lon="12.308409738035772"><ele>475.0</ele><time>2026-04-25T14:56:25.999Z</time></trkpt><trkpt lat="46.281807804590485" lon="12.308457233078185"><ele>475.0</ele><time>2026-04-25T14:56:26.999Z</time></trkpt><trkpt lat="46.2817273281538" lon="12.308527480196771"><ele>475.0</ele><time>2026-04-25T14:56:27.999Z</time></trkpt><trkpt lat="46.28160139959521" lon="12.308500302045404"><ele>475.0</ele><time>2026-04-25T14:56:28.999Z</time></trkpt><trkpt lat="46.28149993132072" lon="12.308491452046855"><ele>475.0</ele><time>2026-04-25T14:56:29.999Z</time></trkpt><trkpt lat="46.28139523665649" lon="12.308445702351143"><ele>475.0</ele><time>2026-04-25T14:56:30.999Z</time></trkpt><trkpt lat="46.281310141018395" lon="12.308368610557949"><ele>471.6</ele><time>2026-04-25T14:56:31.999Z</time></trkpt><trkpt lat="46.28124208096456" lon="12.30827118838688"><ele>468.2</ele><time>2026-04-25T14:56:32.999Z</time></trkpt><trkpt lat="46.281186783688234" lon="12.308142680440312"><ele>464.79999999999995</ele><time>2026-04-25T14:56:33.999Z</time></trkpt><trkpt lat="46.281139241577115" lon="12.307996838544357"><ele>461.4</ele><time>2026-04-25T14:56:34.999Z</time></trkpt><trkpt lat="46.28109185499559" lon="12.30783839615174"><ele>458.0</ele><time>2026-04-25T14:56:35.999Z</time></trkpt><trkpt lat="46.28104983668858" lon="12.30767262109997"><ele>458.0</ele><time>2026-04-25T14:56:36.999Z</time></trkpt><trkpt lat="46.28102031060317" lon="12.307519794203216"><ele>458.0</ele><time>2026-04-25T14:56:37.999Z</time></trkpt><trkpt lat="46.28099824035922" lon="12.307361201712999"><ele>458.0</ele><time>2026-04-25T14:56:38.999Z</time></trkpt><trkpt lat="46.280983921782564" lon="12.307183073444993"><ele>458.0</ele><time>2026-04-25T14:56:39.999Z</time></trkpt><trkpt lat="46.280973233026444" lon="12.30698154726076"><ele>458.5</ele><time>2026-04-25T14:56:40.999Z</time></trkpt><trkpt lat="46.28096122455341" lon="12.306780521010834"><ele>459.0</ele><time>2026-04-25T14:56:41.999Z</time></trkpt><trkpt lat="46.280959919528065" lon="12.306609434444871"><ele>459.5</ele><time>2026-04-25T14:56:42.999Z</time></trkpt><trkpt lat="46.280971148525616" lon="12.3064358069833"><ele>460.0</ele><time>2026-04-25T14:56:43.999Z</time></trkpt><trkpt lat="46.28099488593595" lon="12.306262537314007"><ele>458.8</ele><time>2026-04-25T14:56:44.999Z</time></trkpt><trkpt lat="46.281019457709675" lon="12.306106027787951"><ele>457.6</ele><time>2026-04-25T14:56:45.999Z</time></trkpt><trkpt lat="46.281037909862846" lon="12.305965800347414"><ele>456.4</ele><time>2026-04-25T14:56:46.999Z</time></trkpt><trkpt lat="46.28107243993882" lon="12.305829224723674"><ele>455.2</ele><time>2026-04-25T14:56:47.999Z</time></trkpt><trkpt lat="46.28113182488331" lon="12.305698499973802"><ele>454.0</ele><time>2026-04-25T14:56:48.999Z</time></trkpt><trkpt lat="46.28120695908988" lon="12.305586043487567"><ele>453.83333333333337</ele><time>2026-04-25T14:56:49.999Z</time></trkpt><trkpt lat="46.2812854857094" lon="12.305486713787538"><ele>453.6666666666667</ele><time>2026-04-25T14:56:50.999Z</time></trkpt><trkpt lat="46.28133813557042" lon="12.30537520501635"><ele>453.5</ele><time>2026-04-25T14:56:51.999Z</time></trkpt><trkpt lat="46.28135563768253" lon="12.30525234126896"><ele>453.33333333333337</ele><time>2026-04-25T14:56:52.999Z</time></trkpt><trkpt lat="46.28134006977165" lon="12.305135138310606"><ele>453.1666666666667</ele><time>2026-04-25T14:56:53.999Z</time></trkpt><trkpt lat="46.281287575704056" lon="12.30505351328535"><ele>453.0</ele><time>2026-04-25T14:56:54.999Z</time></trkpt><trkpt lat="46.281219497082006" lon="12.30502456516402"><ele>453.0</ele><time>2026-04-25T14:56:55.999Z</time></trkpt><trkpt lat="46.28114590408025" lon="12.305074358765824"><ele>453.0</ele><time>2026-04-25T14:56:56.999Z</time></trkpt><trkpt lat="46.28109253120378" lon="12.30518090962671"><ele>453.0</ele><time>2026-04-25T14:56:57.999Z</time></trkpt><trkpt lat="46.28105968186977" lon="12.305344031763763"><ele>453.0</ele><time>2026-04-25T14:56:58.999Z</time></trkpt><trkpt lat="46.281012032147444" lon="12.305579236558845"><ele>453.33333333333337</ele><time>2026-04-25T14:56:59.999Z</time></trkpt><trkpt lat="46.28095851571067" lon="12.305830757022443"><ele>453.6666666666667</ele><time>2026-04-25T14:57:00.999Z</time></trkpt><trkpt lat="46.28092200025295" lon="12.306028983674238"><ele>454.0</ele><time>2026-04-25T14:57:01.999Z</time></trkpt><trkpt lat="46.280876407235496" lon="12.30621667218759"><ele>456.0</ele><time>2026-04-25T14:57:02.999Z</time></trkpt><trkpt lat="46.28084562036614" lon="12.306425921209197"><ele>458.0</ele><time>2026-04-25T14:57:03.999Z</time></trkpt><trkpt lat="46.280828048763844" lon="12.306642019354314"><ele>460.0</ele><time>2026-04-25T14:57:04.999Z</time></trkpt><trkpt lat="46.280849928370046" lon="12.306880507139535"><ele>460.0</ele><time>2026-04-25T14:57:05.999Z</time></trkpt><trkpt lat="46.28084753096158" lon="12.307109354315187"><ele>460.0</ele><time>2026-04-25T14:57:06.999Z</time></trkpt><trkpt lat="46.280861067207404" lon="12.307307819723679"><ele>460.0</ele><time>2026-04-25T14:57:07.999Z</time></trkpt><trkpt lat="46.28089029043571" lon="12.307497686068787"><ele>460.0</ele><time>2026-04-25T14:57:08.999Z</time></trkpt><trkpt lat="46.28088615149215" lon="12.307679957590805"><ele>459.5</ele><time>2026-04-25T14:57:09.999Z</time></trkpt><trkpt lat="46.28090331598341" lon="12.307857840989847"><ele>459.0</ele><time>2026-04-25T14:57:10.999Z</time></trkpt><trkpt lat="46.2808658292258" lon="12.308034594313208"><ele>458.5</ele><time>2026-04-25T14:57:11.999Z</time></trkpt><trkpt lat="46.28079676925141" lon="12.308202102744307"><ele>458.0</ele><time>2026-04-25T14:57:12.999Z</time></trkpt><trkpt lat="46.28068308942521" lon="12.308339447605015"><ele>453.3333333333333</ele><time>2026-04-25T14:57:13.999Z</time></trkpt><trkpt lat="46.28056314700398" lon="12.308503502480653"><ele>448.66666666666663</ele><time>2026-04-25T14:57:14.999Z</time></trkpt><trkpt lat="46.280455842755735" lon="12.308652642165898"><ele>444.0</ele><time>2026-04-25T14:57:15.999Z</time></trkpt><trkpt lat="46.28036579688262" lon="12.308811899609308"><ele>444.75</ele><time>2026-04-25T14:57:16.999Z</time></trkpt><trkpt lat="46.28027355799559" lon="12.30893927487244"><ele>445.5</ele><time>2026-04-25T14:57:17.999Z</time></trkpt><trkpt lat="46.28018763905211" lon="12.309053648482221"><ele>446.25</ele><time>2026-04-25T14:57:18.999Z</time></trkpt><trkpt lat="46.28009897334413" lon="12.309150185928878"><ele>447.0</ele><time>2026-04-25T14:57:19.999Z</time></trkpt><trkpt lat="46.280001396236365" lon="12.309216156947807"><ele>447.0</ele><time>2026-04-25T14:57:20.999Z</time></trkpt><trkpt lat="46.27988746336303" lon="12.309241185471894"><ele>447.0</ele><time>2026-04-25T14:57:21.999Z</time></trkpt><trkpt lat="46.27975803175051" lon="12.309225859421588"><ele>447.0</ele><time>2026-04-25T14:57:22.999Z</time></trkpt><trkpt lat="46.279613535972345" lon="12.309178677680723"><ele>447.0</ele><time>2026-04-25T14:57:23.999Z</time></trkpt><trkpt lat="46.27947433670036" lon="12.309128858538964"><ele>449.0</ele><time>2026-04-25T14:57:24.999Z</time></trkpt><trkpt lat="46.279333007478606" lon="12.309084176650922"><ele>451.0</ele><time>2026-04-25T14:57:25.999Z</time></trkpt><trkpt lat="46.27919729216136" lon="12.309038784753822"><ele>453.0</ele><time>2026-04-25T14:57:26.999Z</time></trkpt><trkpt lat="46.27906754346569" lon="12.308990455149134"><ele>455.0</ele><time>2026-04-25T14:57:27.999Z</time></trkpt><trkpt lat="46.27894502392168" lon="12.308943395044647"><ele>455.4</ele><time>2026-04-25T14:57:28.999Z</time></trkpt><trkpt lat="46.27882346747449" lon="12.30890574230611"><ele>455.8</ele><time>2026-04-25T14:57:29.999Z</time></trkpt><trkpt lat="46.27870903617501" lon="12.308875834832289"><ele>456.20000000000005</ele><time>2026-04-25T14:57:30.999Z</time></trkpt><trkpt lat="46.27860546958502" lon="12.308874653744763"><ele>456.6</ele><time>2026-04-25T14:57:32Z</time></trkpt><trkpt lat="46.27850388566881" lon="12.30889509198822"><ele>457.0</ele><time>2026-04-25T14:57:33Z</time></trkpt><trkpt lat="46.27840492370992" lon="12.308935009950801"><ele>457.0</ele><time>2026-04-25T14:57:34Z</time></trkpt><trkpt lat="46.27830491004301" lon="12.309000521852083"><ele>457.0</ele><time>2026-04-25T14:57:35Z</time></trkpt><trkpt lat="46.278202110069095" lon="12.309094005308937"><ele>457.0</ele><time>2026-04-25T14:57:36Z</time></trkpt><trkpt lat="46.27810106668886" lon="12.30921019604233"><ele>457.0</ele><time>2026-04-25T14:57:37Z</time></trkpt><trkpt lat="46.27800071389023" lon="12.309346411696053"><ele>455.5</ele><time>2026-04-25T14:57:38Z</time></trkpt><trkpt lat="46.277896980802794" lon="12.309480995235033"><ele>454.0</ele><time>2026-04-25T14:57:39Z</time></trkpt><trkpt lat="46.27779951580453" lon="12.309602001019071"><ele>452.5</ele><time>2026-04-25T14:57:40Z</time></trkpt><trkpt lat="46.277713942305844" lon="12.309709851864127"><ele>451.0</ele><time>2026-04-25T14:57:41Z</time></trkpt><trkpt lat="46.27761983190385" lon="12.309789224739806"><ele>453.5</ele><time>2026-04-25T14:57:42Z</time></trkpt><trkpt lat="46.27749998975785" lon="12.309819351375412"><ele>456.0</ele><time>2026-04-25T14:57:43Z</time></trkpt><trkpt lat="46.27740377860466" lon="12.309927909725154"><ele>458.5</ele><time>2026-04-25T14:57:44Z</time></trkpt><trkpt lat="46.2773133436197" lon="12.310034172820991"><ele>461.0</ele><time>2026-04-25T14:57:45Z</time></trkpt><trkpt lat="46.27721900489029" lon="12.310150600159425"><ele>461.0</ele><time>2026-04-25T14:57:46Z</time></trkpt><trkpt lat="46.277135793447904" lon="12.31025647191858"><ele>461.0</ele><time>2026-04-25T14:57:47Z</time></trkpt><trkpt lat="46.27706419952753" lon="12.310346840013317"><ele>461.0</ele><time>2026-04-25T14:57:48Z</time></trkpt><trkpt lat="46.27699734742005" lon="12.310430908909767"><ele>461.0</ele><time>2026-04-25T14:57:49Z</time></trkpt><trkpt lat="46.27692746763166" lon="12.310513687351632"><ele>461.0</ele><time>2026-04-25T14:57:50Z</time></trkpt><trkpt lat="46.27685951528699" lon="12.31060358948087"><ele>461.99999999999994</ele><time>2026-04-25T14:57:51Z</time></trkpt><trkpt lat="46.276796295815565" lon="12.31068568002737"><ele>463.0</ele><time>2026-04-25T14:57:52Z</time></trkpt><trkpt lat="46.27674054782924" lon="12.31074835374052"><ele>464.0</ele><time>2026-04-25T14:57:53Z</time></trkpt><trkpt lat="46.27666399460499" lon="12.310849915137771"><ele>465.0</ele><time>2026-04-25T14:57:55Z</time></trkpt><trkpt lat="46.27660727159167" lon="12.310924391669491"><ele>465.99999999999994</ele><time>2026-04-25T14:57:57Z</time></trkpt><trkpt lat="46.27653289819383" lon="12.310974715178501"><ele>467.0</ele><time>2026-04-25T14:58:13Z</time></trkpt><trkpt lat="46.27646523546364" lon="12.311006533177487"><ele>467.16666666666663</ele><time>2026-04-25T14:58:15Z</time></trkpt><trkpt lat="46.27639638482383" lon="12.311072844982991"><ele>467.3333333333333</ele><time>2026-04-25T14:58:38.999Z</time></trkpt><trkpt lat="46.2763042967168" lon="12.311086190138775"><ele>467.5</ele><time>2026-04-25T14:58:40.999Z</time></trkpt><trkpt lat="46.27624691198654" lon="12.311220603016539"><ele>467.66666666666663</ele><time>2026-04-25T14:58:43.999Z</time></trkpt><trkpt lat="46.27623850550709" lon="12.311313200650408"><ele>467.8333333333333</ele><time>2026-04-25T14:58:44.999Z</time></trkpt><trkpt lat="46.276246148211065" lon="12.311425256062948"><ele>468.0</ele><time>2026-04-25T14:58:45.999Z</time></trkpt><trkpt lat="46.27626066779736" lon="12.31151654972989"><ele>469.8333333333333</ele><time>2026-04-25T14:58:46.999Z</time></trkpt><trkpt lat="46.27634843027689" lon="12.311598667969173"><ele>471.66666666666663</ele><time>2026-04-25T14:58:48.999Z</time></trkpt><trkpt lat="46.27641156905351" lon="12.31159200707807"><ele>473.5</ele><time>2026-04-25T14:58:49.999Z</time></trkpt><trkpt lat="46.27647371367343" lon="12.311561293455837"><ele>475.3333333333333</ele><time>2026-04-25T14:58:50.999Z</time></trkpt><trkpt lat="46.27654601663263" lon="12.311526160322616"><ele>477.16666666666663</ele><time>2026-04-25T14:58:51.999Z</time></trkpt><trkpt lat="46.27663243400193" lon="12.31150027686851"><ele>479.0</ele><time>2026-04-25T14:58:52.999Z</time></trkpt><trkpt lat="46.27673258241099" lon="12.311482998908657"><ele>479.0</ele><time>2026-04-25T14:58:53.999Z</time></trkpt><trkpt lat="46.276828396349956" lon="12.311461261723641"><ele>479.0</ele><time>2026-04-25T14:58:54.999Z</time></trkpt><trkpt lat="46.27692324558693" lon="12.311434235341157"><ele>479.0</ele><time>2026-04-25T14:58:55.999Z</time></trkpt><trkpt lat="46.277017783747894" lon="12.311422001375169"><ele>479.0</ele><time>2026-04-25T14:58:56.999Z</time></trkpt><trkpt lat="46.27711275169678" lon="12.311420642408448"><ele>479.0</ele><time>2026-04-25T14:58:57.999Z</time></trkpt><trkpt lat="46.27718958624273" lon="12.31141148095885"><ele>477.66666666666663</ele><time>2026-04-25T14:58:58.999Z</time></trkpt><trkpt lat="46.2772717905058" lon="12.311401861058382"><ele>476.3333333333333</ele><time>2026-04-25T14:58:59.999Z</time></trkpt><trkpt lat="46.27735836580482" lon="12.311396757793565"><ele>475.0</ele><time>2026-04-25T14:59:00.999Z</time></trkpt><trkpt lat="46.27744688893119" lon="12.311389380744378"><ele>473.66666666666663</ele><time>2026-04-25T14:59:01.999Z</time></trkpt><trkpt lat="46.27753889144891" lon="12.311379000881224"><ele>472.3333333333333</ele><time>2026-04-25T14:59:02.999Z</time></trkpt><trkpt lat="46.27762473847779" lon="12.31136301191729"><ele>471.0</ele><time>2026-04-25T14:59:03.999Z</time></trkpt><trkpt lat="46.27771109470021" lon="12.311334178109755"><ele>471.0</ele><time>2026-04-25T14:59:04.999Z</time></trkpt><trkpt lat="46.27779328486023" lon="12.311295759723542"><ele>471.0</ele><time>2026-04-25T14:59:05.999Z</time></trkpt><trkpt lat="46.27787373378279" lon="12.311252480867966"><ele>471.0</ele><time>2026-04-25T14:59:06.999Z</time></trkpt><trkpt lat="46.277948084026825" lon="12.311217082380969"><ele>471.0</ele><time>2026-04-25T14:59:07.999Z</time></trkpt><trkpt lat="46.27802035629196" lon="12.311180856431697"><ele>471.0</ele><time>2026-04-25T14:59:08.999Z</time></trkpt><trkpt lat="46.27809120025187" lon="12.311146297025752"><ele>471.0</ele><time>2026-04-25T14:59:09.999Z</time></trkpt><trkpt lat="46.278153857983625" lon="12.311106954797708"><ele>471.1428571428572</ele><time>2026-04-25T14:59:10.999Z</time></trkpt><trkpt lat="46.27821350506775" lon="12.311057297080124"><ele>471.28571428571433</ele><time>2026-04-25T14:59:11.999Z</time></trkpt><trkpt lat="46.27827156609273" lon="12.311002004334581"><ele>471.42857142857144</ele><time>2026-04-25T14:59:12.999Z</time></trkpt><trkpt lat="46.278323976092736" lon="12.310950709837893"><ele>471.5714285714286</ele><time>2026-04-25T14:59:13.999Z</time></trkpt><trkpt lat="46.2784062911296" lon="12.31086712675048"><ele>471.7142857142858</ele><time>2026-04-25T14:59:15.999Z</time></trkpt><trkpt lat="46.27844878279783" lon="12.310779647436439"><ele>471.85714285714283</ele><time>2026-04-25T14:59:18.999Z</time></trkpt><trkpt lat="46.278490838627434" lon="12.31069860469347"><ele>472.0</ele><time>2026-04-25T14:59:57Z</time></trkpt><trkpt lat="46.27859971291358" lon="12.3108040541384"><ele>472.0</ele><time>2026-04-25T14:59:58Z</time></trkpt><trkpt lat="46.27868623480229" lon="12.310841713287921"><ele>472.00000000000006</ele><time>2026-04-25T14:59:59Z</time></trkpt><trkpt lat="46.2787853274284" lon="12.31088387101372"><ele>472.00000000000006</ele><time>2026-04-25T15:00:00Z</time></trkpt><trkpt lat="46.27889480901328" lon="12.310930335715828"><ele>472.0</ele><time>2026-04-25T15:00:01Z</time></trkpt><trkpt lat="46.27899606504195" lon="12.310975100059533"><ele>472.0</ele><time>2026-04-25T15:00:02Z</time></trkpt><trkpt lat="46.2790913682399" lon="12.310996386117955"><ele>472.50000000000006</ele><time>2026-04-25T15:00:03Z</time></trkpt><trkpt lat="46.27916920323127" lon="12.31106376496657"><ele>473.0</ele><time>2026-04-25T15:00:04Z</time></trkpt><trkpt lat="46.27925967443437" lon="12.311090755345582"><ele>473.5</ele><time>2026-04-25T15:00:05Z</time></trkpt><trkpt lat="46.279341134127" lon="12.31114800074904"><ele>474.0</ele><time>2026-04-25T15:00:06Z</time></trkpt><trkpt lat="46.27942011949543" lon="12.3111997452989"><ele>474.50000000000006</ele><time>2026-04-25T15:00:07Z</time></trkpt><trkpt lat="46.279492728209206" lon="12.311273761194801"><ele>475.0</ele><time>2026-04-25T15:00:08Z</time></trkpt><trkpt lat="46.27956662160465" lon="12.31132616249929"><ele>475.00000000000006</ele><time>2026-04-25T15:00:09Z</time></trkpt><trkpt lat="46.27962882644945" lon="12.311380827941727"><ele>475.0</ele><time>2026-04-25T15:00:10Z</time></trkpt><trkpt lat="46.279684728311814" lon="12.311442337781665"><ele>475.0</ele><time>2026-04-25T15:00:11Z</time></trkpt><trkpt lat="46.27969254446057" lon="12.311547594533055"><ele>475.0</ele><time>2026-04-25T15:00:12Z</time></trkpt><trkpt lat="46.27965624434495" lon="12.311643626497185"><ele>475.00000000000006</ele><time>2026-04-25T15:00:13Z</time></trkpt><trkpt lat="46.27958555850117" lon="12.311698104652224"><ele>475.0</ele><time>2026-04-25T15:00:14Z</time></trkpt><trkpt lat="46.27949181895972" lon="12.31172260206164"><ele>477.6</ele><time>2026-04-25T15:00:15Z</time></trkpt><trkpt lat="46.279400134130725" lon="12.311738926921686"><ele>480.2</ele><time>2026-04-25T15:00:16Z</time></trkpt><trkpt lat="46.27930817664268" lon="12.311756884825348"><ele>482.79999999999995</ele><time>2026-04-25T15:00:17Z</time></trkpt><trkpt lat="46.27921331397993" lon="12.311771610131988"><ele>485.4</ele><time>2026-04-25T15:00:18Z</time></trkpt><trkpt lat="46.27911440850094" lon="12.311788978527009"><ele>488.0</ele><time>2026-04-25T15:00:19Z</time></trkpt><trkpt lat="46.279013681728934" lon="12.311798965802799"><ele>489.25</ele><time>2026-04-25T15:00:20Z</time></trkpt><trkpt lat="46.278904436852" lon="12.311783164270798"><ele>490.5</ele><time>2026-04-25T15:00:21Z</time></trkpt><trkpt lat="46.278788390496395" lon="12.311740576341451"><ele>491.75</ele><time>2026-04-25T15:00:22Z</time></trkpt><trkpt lat="46.278671222512855" lon="12.311672328232918"><ele>493.0</ele><time>2026-04-25T15:00:23Z</time></trkpt><trkpt lat="46.27856732422719" lon="12.311593916850995"><ele>493.0</ele><time>2026-04-25T15:00:24Z</time></trkpt><trkpt lat="46.278469870309046" lon="12.311537661026016"><ele>492.99999999999994</ele><time>2026-04-25T15:00:25Z</time></trkpt><trkpt lat="46.278372350504775" lon="12.31151233969504"><ele>492.99999999999994</ele><time>2026-04-25T15:00:26Z</time></trkpt><trkpt lat="46.27827636552576" lon="12.311545946445468"><ele>493.0</ele><time>2026-04-25T15:00:27Z</time></trkpt><trkpt lat="46.27819949367455" lon="12.31162768466488"><ele>493.0</ele><time>2026-04-25T15:00:28Z</time></trkpt><trkpt lat="46.27816754777267" lon="12.311768532041176"><ele>493.0</ele><time>2026-04-25T15:00:29Z</time></trkpt><trkpt lat="46.278229108326265" lon="12.311926689124881"><ele>493.0</ele><time>2026-04-25T15:00:30Z</time></trkpt><trkpt lat="46.278326092571014" lon="12.312024211402667"><ele>493.0</ele><time>2026-04-25T15:00:31Z</time></trkpt><trkpt lat="46.27845047370034" lon="12.312064383261255"><ele>493.0</ele><time>2026-04-25T15:00:31.999Z</time></trkpt><trkpt lat="46.27857701787092" lon="12.312089383015334"><ele>493.0</ele><time>2026-04-25T15:00:32.999Z</time></trkpt><trkpt lat="46.27868841604852" lon="12.312126970500907"><ele>493.0</ele><time>2026-04-25T15:00:33.999Z</time></trkpt><trkpt lat="46.27881233016541" lon="12.312169313628837"><ele>493.0</ele><time>2026-04-25T15:00:34.999Z</time></trkpt><trkpt lat="46.27894173770932" lon="12.312181488490534"><ele>493.0</ele><time>2026-04-25T15:00:35.999Z</time></trkpt><trkpt lat="46.27907472510331" lon="12.312179409604127"><ele>491.75</ele><time>2026-04-25T15:00:36.999Z</time></trkpt><trkpt lat="46.279206865950314" lon="12.31217239512293"><ele>490.5</ele><time>2026-04-25T15:00:37.999Z</time></trkpt><trkpt lat="46.27933362649082" lon="12.312161354372261"><ele>489.25</ele><time>2026-04-25T15:00:38.999Z</time></trkpt><trkpt lat="46.279459836234516" lon="12.312150343993466"><ele>488.0</ele><time>2026-04-25T15:00:39.999Z</time></trkpt><trkpt lat="46.2795940026836" lon="12.312154449964352"><ele>488.0</ele><time>2026-04-25T15:00:40.999Z</time></trkpt><trkpt lat="46.27972784187752" lon="12.312176318138336"><ele>488.0</ele><time>2026-04-25T15:00:41.999Z</time></trkpt><trkpt lat="46.27986330111427" lon="12.312204447966433"><ele>488.0</ele><time>2026-04-25T15:00:42.999Z</time></trkpt><trkpt lat="46.27999632919569" lon="12.312221830965816"><ele>488.0</ele><time>2026-04-25T15:00:43.999Z</time></trkpt><trkpt lat="46.28012615555085" lon="12.312247088130915"><ele>491.75</ele><time>2026-04-25T15:00:44.999Z</time></trkpt><trkpt lat="46.28025599113688" lon="12.312272625175135"><ele>495.5</ele><time>2026-04-25T15:00:45.999Z</time></trkpt><trkpt lat="46.280385622796445" lon="12.31229333181345"><ele>499.25</ele><time>2026-04-25T15:00:46.999Z</time></trkpt><trkpt lat="46.28049989093286" lon="12.312307084471488"><ele>503.0</ele><time>2026-04-25T15:00:47.999Z</time></trkpt><trkpt lat="46.28060366697015" lon="12.312328663845092"><ele>503.0</ele><time>2026-04-25T15:00:48.999Z</time></trkpt><trkpt lat="46.280695782575386" lon="12.312373181413392"><ele>502.99999999999994</ele><time>2026-04-25T15:00:49.999Z</time></trkpt><trkpt lat="46.280782784898506" lon="12.312459844374436"><ele>502.99999999999994</ele><time>2026-04-25T15:00:50.999Z</time></trkpt><trkpt lat="46.2808426302653" lon="12.312588429637932"><ele>503.0</ele><time>2026-04-25T15:00:51.999Z</time></trkpt><trkpt lat="46.28085002476589" lon="12.312742302592067"><ele>503.0</ele><time>2026-04-25T15:00:52.999Z</time></trkpt><trkpt lat="46.280798020781745" lon="12.312891426254748"><ele>503.0</ele><time>2026-04-25T15:00:53.999Z</time></trkpt><trkpt lat="46.2807046005437" lon="12.312998957322653"><ele>503.0</ele><time>2026-04-25T15:00:54.999Z</time></trkpt><trkpt lat="46.280578541877624" lon="12.313060229697838"><ele>503.0</ele><time>2026-04-25T15:00:55.999Z</time></trkpt><trkpt lat="46.28043429545933" lon="12.313090653840804"><ele>503.0</ele><time>2026-04-25T15:00:56.999Z</time></trkpt><trkpt lat="46.28027592693335" lon="12.313128542351892"><ele>512.0</ele><time>2026-04-25T15:00:57.999Z</time></trkpt><trkpt lat="46.28011160683888" lon="12.3131679173126"><ele>521.0</ele><time>2026-04-25T15:00:58.999Z</time></trkpt><trkpt lat="46.27995306968167" lon="12.313201992074559"><ele>530.0</ele><time>2026-04-25T15:00:59.999Z</time></trkpt><trkpt lat="46.279802159897685" lon="12.313231246942086"><ele>531.0</ele><time>2026-04-25T15:01:00.999Z</time></trkpt><trkpt lat="46.279648513718044" lon="12.313263788219757"><ele>532.0</ele><time>2026-04-25T15:01:01.999Z</time></trkpt><trkpt lat="46.27949219948124" lon="12.313296450007943"><ele>533.0</ele><time>2026-04-25T15:01:02.999Z</time></trkpt><trkpt lat="46.27933111765606" lon="12.313329037333936"><ele>533.0</ele><time>2026-04-25T15:01:03.999Z</time></trkpt><trkpt lat="46.27917340630514" lon="12.313360641907154"><ele>533.0</ele><time>2026-04-25T15:01:04.999Z</time></trkpt><trkpt lat="46.27901964011918" lon="12.31339258331349"><ele>533.0</ele><time>2026-04-25T15:01:05.999Z</time></trkpt><trkpt lat="46.278867494211816" lon="12.313419050068976"><ele>535.25</ele><time>2026-04-25T15:01:06.999Z</time></trkpt><trkpt lat="46.278718072815735" lon="12.3134510752208"><ele>537.5</ele><time>2026-04-25T15:01:07.999Z</time></trkpt><trkpt lat="46.27857657287531" lon="12.313499918565524"><ele>539.75</ele><time>2026-04-25T15:01:08.999Z</time></trkpt><trkpt lat="46.2784520575091" lon="12.313571596423175"><ele>542.0</ele><time>2026-04-25T15:01:09.999Z</time></trkpt><trkpt lat="46.278338087734404" lon="12.313662428583113"><ele>542.0</ele><time>2026-04-25T15:01:10.999Z</time></trkpt><trkpt lat="46.278231839051024" lon="12.313784062617117"><ele>542.0</ele><time>2026-04-25T15:01:11.999Z</time></trkpt><trkpt lat="46.27813409936827" lon="12.313918539106904"><ele>542.0</ele><time>2026-04-25T15:01:12.999Z</time></trkpt><trkpt lat="46.27803688766428" lon="12.31406110764612"><ele>542.0</ele><time>2026-04-25T15:01:13.999Z</time></trkpt><trkpt lat="46.277937792792144" lon="12.314201621351522"><ele>541.5</ele><time>2026-04-25T15:01:14.999Z</time></trkpt><trkpt lat="46.27782834004704" lon="12.314332553678154"><ele>541.0</ele><time>2026-04-25T15:01:15.999Z</time></trkpt><trkpt lat="46.27770742559124" lon="12.314454537333022"><ele>540.5</ele><time>2026-04-25T15:01:16.999Z</time></trkpt><trkpt lat="46.277575008891034" lon="12.314564394346338"><ele>540.0</ele><time>2026-04-25T15:01:17.999Z</time></trkpt><trkpt lat="46.277434329997426" lon="12.314663898356875"><ele>547.3333333333334</ele><time>2026-04-25T15:01:18.999Z</time></trkpt><trkpt lat="46.27728953056797" lon="12.31475839647259"><ele>554.6666666666667</ele><time>2026-04-25T15:01:19.999Z</time></trkpt><trkpt lat="46.27713560669268" lon="12.314824673902637"><ele>562.0</ele><time>2026-04-25T15:01:20.999Z</time></trkpt><trkpt lat="46.27697222721121" lon="12.314876469870907"><ele>563.0</ele><time>2026-04-25T15:01:21.999Z</time></trkpt><trkpt lat="46.27680378522331" lon="12.314934615031408"><ele>564.0</ele><time>2026-04-25T15:01:22.999Z</time></trkpt><trkpt lat="46.27662808736553" lon="12.31498052255396"><ele>565.0</ele><time>2026-04-25T15:01:23.999Z</time></trkpt><trkpt lat="46.27644410972931" lon="12.315001160390791"><ele>565.0</ele><time>2026-04-25T15:01:24.999Z</time></trkpt><trkpt lat="46.2762581597916" lon="12.315007683129325"><ele>565.0</ele><time>2026-04-25T15:01:25.999Z</time></trkpt><trkpt lat="46.27607984383205" lon="12.315017878302301"><ele>565.0</ele><time>2026-04-25T15:01:26.999Z</time></trkpt><trkpt lat="46.27590940532149" lon="12.315027137189054"><ele>565.0</ele><time>2026-04-25T15:01:27.999Z</time></trkpt><trkpt lat="46.27574260476645" lon="12.31503946528234"><ele>565.0</ele><time>2026-04-25T15:01:28.999Z</time></trkpt><trkpt lat="46.27557612892069" lon="12.315051300946621"><ele>565.0</ele><time>2026-04-25T15:01:29.999Z</time></trkpt><trkpt lat="46.27541029747219" lon="12.31505568405136"><ele>566.3333333333334</ele><time>2026-04-25T15:01:30.999Z</time></trkpt><trkpt lat="46.275244473795574" lon="12.315065080976305"><ele>567.6666666666666</ele><time>2026-04-25T15:01:31.999Z</time></trkpt><trkpt lat="46.27508104846694" lon="12.315076797041943"><ele>569.0</ele><time>2026-04-25T15:01:32.999Z</time></trkpt><trkpt lat="46.27491957548926" lon="12.315070309084106"><ele>574.0</ele><time>2026-04-25T15:01:33.999Z</time></trkpt><trkpt lat="46.27475332413972" lon="12.31501507465366"><ele>579.0</ele><time>2026-04-25T15:01:34.999Z</time></trkpt><trkpt lat="46.27459705888717" lon="12.314933076526765"><ele>584.0</ele><time>2026-04-25T15:01:35.999Z</time></trkpt><trkpt lat="46.2744519130481" lon="12.314836601884407"><ele>579.0</ele><time>2026-04-25T15:01:36.999Z</time></trkpt><trkpt lat="46.27432052482199" lon="12.314714498552135"><ele>574.0</ele><time>2026-04-25T15:01:37.999Z</time></trkpt><trkpt lat="46.27419786568374" lon="12.314584951626216"><ele>569.0</ele><time>2026-04-25T15:01:38.999Z</time></trkpt><trkpt lat="46.27407763798263" lon="12.31446038810008"><ele>569.0</ele><time>2026-04-25T15:01:39.999Z</time></trkpt><trkpt lat="46.27397347788022" lon="12.314353904617022"><ele>569.0</ele><time>2026-04-25T15:01:40.999Z</time></trkpt><trkpt lat="46.273877093543206" lon="12.31425852180785"><ele>569.0</ele><time>2026-04-25T15:01:41.999Z</time></trkpt><trkpt lat="46.273789057829276" lon="12.314171992929921"><ele>569.0</ele><time>2026-04-25T15:01:42.999Z</time></trkpt><trkpt lat="46.27370546262338" lon="12.31410287869507"><ele>569.0</ele><time>2026-04-25T15:01:44Z</time></trkpt><trkpt lat="46.27361346704695" lon="12.314066635859465"><ele>570.8</ele><time>2026-04-25T15:01:45Z</time></trkpt><trkpt lat="46.273518845875934" lon="12.314088013345698"><ele>572.5999999999999</ele><time>2026-04-25T15:01:46Z</time></trkpt><trkpt lat="46.27343552232165" lon="12.314169622211544"><ele>574.4</ele><time>2026-04-25T15:01:47Z</time></trkpt><trkpt lat="46.273380132578644" lon="12.314305048270905"><ele>576.1999999999999</ele><time>2026-04-25T15:01:48Z</time></trkpt><trkpt lat="46.27337823949354" lon="12.314454695534334"><ele>578.0</ele><time>2026-04-25T15:01:49Z</time></trkpt><trkpt lat="46.27342179928317" lon="12.314597396243975"><ele>578.0</ele><time>2026-04-25T15:01:50Z</time></trkpt><trkpt lat="46.27352039052251" lon="12.314709395489276"><ele>578.0</ele><time>2026-04-25T15:01:51Z</time></trkpt><trkpt lat="46.27364746004148" lon="12.31478274200379"><ele>578.0</ele><time>2026-04-25T15:01:52Z</time></trkpt><trkpt lat="46.2737922165817" lon="12.314869265907452"><ele>578.0</ele><time>2026-04-25T15:01:53Z</time></trkpt><trkpt lat="46.273957627047885" lon="12.314971772011035"><ele>579.5</ele><time>2026-04-25T15:01:54Z</time></trkpt><trkpt lat="46.27408509347635" lon="12.31505631387122"><ele>581.0</ele><time>2026-04-25T15:01:55Z</time></trkpt><trkpt lat="46.27419224287367" lon="12.315119512486751"><ele>582.5</ele><time>2026-04-25T15:01:56Z</time></trkpt><trkpt lat="46.27427663247206" lon="12.315204269558032"><ele>584.0</ele><time>2026-04-25T15:01:57Z</time></trkpt><trkpt lat="46.27433595159719" lon="12.315328227793053"><ele>584.0</ele><time>2026-04-25T15:01:58Z</time></trkpt><trkpt lat="46.274343753034664" lon="12.315475442940816"><ele>584.0</ele><time>2026-04-25T15:01:59Z</time></trkpt><trkpt lat="46.2742939263184" lon="12.315604990726225"><ele>584.0</ele><time>2026-04-25T15:02:00Z</time></trkpt><trkpt lat="46.274204280313214" lon="12.31568133630916"><ele>584.0</ele><time>2026-04-25T15:02:01Z</time></trkpt><trkpt lat="46.274087325385906" lon="12.31568945925999"><ele>584.0</ele><time>2026-04-25T15:02:02Z</time></trkpt><trkpt lat="46.27395210699608" lon="12.315642203690725"><ele>587.3333333333333</ele><time>2026-04-25T15:02:03Z</time></trkpt><trkpt lat="46.27379804249425" lon="12.315585635214562"><ele>590.6666666666666</ele><time>2026-04-25T15:02:04Z</time></trkpt><trkpt lat="46.27364278343179" lon="12.31554292470642"><ele>594.0</ele><time>2026-04-25T15:02:05Z</time></trkpt><trkpt lat="46.27349741148083" lon="12.315511110143056"><ele>594.0</ele><time>2026-04-25T15:02:06Z</time></trkpt><trkpt lat="46.2733525026839" lon="12.315488147717193"><ele>594.0</ele><time>2026-04-25T15:02:07Z</time></trkpt><trkpt lat="46.273203227093894" lon="12.315471986656469"><ele>594.0</ele><time>2026-04-25T15:02:08Z</time></trkpt><trkpt lat="46.27305694981519" lon="12.315470056669719"><ele>594.0</ele><time>2026-04-25T15:02:09Z</time></trkpt><trkpt lat="46.272917614525554" lon="12.315474038980165"><ele>596.25</ele><time>2026-04-25T15:02:10Z</time></trkpt><trkpt lat="46.27278631775215" lon="12.315480506371273"><ele>598.5</ele><time>2026-04-25T15:02:11Z</time></trkpt><trkpt lat="46.272656249849994" lon="12.31547862624578"><ele>600.75</ele><time>2026-04-25T15:02:12Z</time></trkpt><trkpt lat="46.27252856592742" lon="12.315471394617095"><ele>603.0</ele><time>2026-04-25T15:02:13Z</time></trkpt><trkpt lat="46.27240193802685" lon="12.315449976485878"><ele>603.5</ele><time>2026-04-25T15:02:14Z</time></trkpt><trkpt lat="46.27226959283765" lon="12.315411659195542"><ele>604.0</ele><time>2026-04-25T15:02:15Z</time></trkpt><trkpt lat="46.27213156660146" lon="12.31535317791656"><ele>604.5</ele><time>2026-04-25T15:02:16Z</time></trkpt><trkpt lat="46.271993429490436" lon="12.315280855161443"><ele>605.0</ele><time>2026-04-25T15:02:17Z</time></trkpt><trkpt lat="46.271861040198175" lon="12.315205750353783"><ele>605.0</ele><time>2026-04-25T15:02:18Z</time></trkpt><trkpt lat="46.27172796165449" lon="12.315133025973513"><ele>605.0</ele><time>2026-04-25T15:02:19Z</time></trkpt><trkpt lat="46.27159097284671" lon="12.315055687700472"><ele>605.0</ele><time>2026-04-25T15:02:20Z</time></trkpt><trkpt lat="46.27146959293405" lon="12.314980588114889"><ele>605.0</ele><time>2026-04-25T15:02:21Z</time></trkpt><trkpt lat="46.27136744465051" lon="12.314922436683162"><ele>605.8</ele><time>2026-04-25T15:02:22Z</time></trkpt><trkpt lat="46.27126736588744" lon="12.31488583506155"><ele>606.6</ele><time>2026-04-25T15:02:23Z</time></trkpt><trkpt lat="46.271165391887166" lon="12.31489322782899"><ele>607.4</ele><time>2026-04-25T15:02:24Z</time></trkpt><trkpt lat="46.27107406880117" lon="12.314957452184348"><ele>608.2</ele><time>2026-04-25T15:02:25Z</time></trkpt><trkpt lat="46.27101253431618" lon="12.315084240433478"><ele>609.0</ele><time>2026-04-25T15:02:26Z</time></trkpt><trkpt lat="46.270995874064674" lon="12.315241154730693"><ele>609.0</ele><time>2026-04-25T15:02:27Z</time></trkpt><trkpt lat="46.271035059682205" lon="12.31539018919184"><ele>609.0</ele><time>2026-04-25T15:02:28Z</time></trkpt><trkpt lat="46.271123312168314" lon="12.315500623917787"><ele>609.0</ele><time>2026-04-25T15:02:29Z</time></trkpt><trkpt lat="46.27124909182501" lon="12.315578675635576"><ele>609.0</ele><time>2026-04-25T15:02:30Z</time></trkpt><trkpt lat="46.27140100217152" lon="12.315653974924485"><ele>613.6666666666666</ele><time>2026-04-25T15:02:31Z</time></trkpt><trkpt lat="46.27155857643516" lon="12.315752577637214"><ele>618.3333333333333</ele><time>2026-04-25T15:02:32Z</time></trkpt><trkpt lat="46.27171509093895" lon="12.31583123431541"><ele>623.0</ele><time>2026-04-25T15:02:33Z</time></trkpt><trkpt lat="46.271859183439034" lon="12.31588774965835"><ele>623.0</ele><time>2026-04-25T15:02:33.999Z</time></trkpt><trkpt lat="46.27199216681187" lon="12.315930722676864"><ele>623.0</ele><time>2026-04-25T15:02:34.999Z</time></trkpt><trkpt lat="46.27211451407158" lon="12.315966956973364"><ele>623.0</ele><time>2026-04-25T15:02:35.999Z</time></trkpt><trkpt lat="46.27223662571684" lon="12.315997472847886"><ele>623.0</ele><time>2026-04-25T15:02:36.999Z</time></trkpt><trkpt lat="46.272349255555426" lon="12.316032943432532"><ele>622.5</ele><time>2026-04-25T15:02:37.999Z</time></trkpt><trkpt lat="46.27246275707485" lon="12.316066991588809"><ele>622.0</ele><time>2026-04-25T15:02:38.999Z</time></trkpt><trkpt lat="46.27257828870005" lon="12.316097743330381"><ele>621.5</ele><time>2026-04-25T15:02:39.999Z</time></trkpt><trkpt lat="46.272693818252364" lon="12.316135670168714"><ele>621.0</ele><time>2026-04-25T15:02:40.999Z</time></trkpt><trkpt lat="46.27281129710404" lon="12.316168123045822"><ele>621.0</ele><time>2026-04-25T15:02:41.999Z</time></trkpt><trkpt lat="46.2729344302731" lon="12.316200580659634"><ele>621.0</ele><time>2026-04-25T15:02:42.999Z</time></trkpt><trkpt lat="46.27305764624965" lon="12.31623433890971"><ele>621.0</ele><time>2026-04-25T15:02:43.999Z</time></trkpt><trkpt lat="46.273182101161076" lon="12.316271386157506"><ele>621.0</ele><time>2026-04-25T15:02:44.999Z</time></trkpt><trkpt lat="46.27331229198683" lon="12.316306566707496"><ele>622.75</ele><time>2026-04-25T15:02:45.999Z</time></trkpt><trkpt lat="46.27344728378383" lon="12.316339271420253"><ele>624.5</ele><time>2026-04-25T15:02:46.999Z</time></trkpt><trkpt lat="46.273584728407165" lon="12.316375053060792"><ele>626.25</ele><time>2026-04-25T15:02:47.999Z</time></trkpt><trkpt lat="46.27373025922718" lon="12.31641846344022"><ele>628.0</ele><time>2026-04-25T15:02:48.999Z</time></trkpt><trkpt lat="46.273883353067" lon="12.316469512637838"><ele>629.6666666666667</ele><time>2026-04-25T15:02:49.999Z</time></trkpt><trkpt lat="46.274038269183286" lon="12.316516360257427"><ele>631.3333333333334</ele><time>2026-04-25T15:02:50.999Z</time></trkpt><trkpt lat="46.274196315722605" lon="12.316573474441341"><ele>633.0</ele><time>2026-04-25T15:02:51.999Z</time></trkpt><trkpt lat="46.274361841757205" lon="12.31665462940782"><ele>633.0</ele><time>2026-04-25T15:02:52.999Z</time></trkpt><trkpt lat="46.27452458131009" lon="12.316735881241627"><ele>633.0</ele><time>2026-04-25T15:02:53.999Z</time></trkpt><trkpt lat="46.27468093594994" lon="12.316815531114582"><ele>633.0</ele><time>2026-04-25T15:02:54.999Z</time></trkpt><trkpt lat="46.27483885185986" lon="12.316900633666911"><ele>633.0</ele><time>2026-04-25T15:02:55.999Z</time></trkpt><trkpt lat="46.27499827667098" lon="12.316974818040313"><ele>633.0</ele><time>2026-04-25T15:02:56.999Z</time></trkpt><trkpt lat="46.275159335544004" lon="12.317033744641032"><ele>633.0</ele><time>2026-04-25T15:02:57.999Z</time></trkpt><trkpt lat="46.27532587825965" lon="12.317075017587307"><ele>633.0</ele><time>2026-04-25T15:02:58.999Z</time></trkpt><trkpt lat="46.27549663000823" lon="12.317103869246383"><ele>633.0</ele><time>2026-04-25T15:02:59.999Z</time></trkpt><trkpt lat="46.27566448749676" lon="12.317132932857737"><ele>633.0</ele><time>2026-04-25T15:03:00.999Z</time></trkpt><trkpt lat="46.27582725717858" lon="12.317159185598202"><ele>632.6666666666666</ele><time>2026-04-25T15:03:01.999Z</time></trkpt><trkpt lat="46.2759896201468" lon="12.317177900476088"><ele>632.3333333333333</ele><time>2026-04-25T15:03:02.999Z</time></trkpt><trkpt lat="46.27615509333345" lon="12.317179552064921"><ele>632.0</ele><time>2026-04-25T15:03:03.999Z</time></trkpt><trkpt lat="46.276318543013076" lon="12.317176871622667"><ele>632.3333333333333</ele><time>2026-04-25T15:03:04.999Z</time></trkpt><trkpt lat="46.276478579508684" lon="12.317170246862608"><ele>632.6666666666666</ele><time>2026-04-25T15:03:05.999Z</time></trkpt><trkpt lat="46.276636880593024" lon="12.317162468260653"><ele>633.0</ele><time>2026-04-25T15:03:06.999Z</time></trkpt><trkpt lat="46.27678231525793" lon="12.317156724049298"><ele>633.0</ele><time>2026-04-25T15:03:07.999Z</time></trkpt><trkpt lat="46.27691111709957" lon="12.3171460876025"><ele>633.0</ele><time>2026-04-25T15:03:08.999Z</time></trkpt><trkpt lat="46.27703213768438" lon="12.317135473248433"><ele>633.0</ele><time>2026-04-25T15:03:09.999Z</time></trkpt><trkpt lat="46.277140251124905" lon="12.317125661372021"><ele>633.0</ele><time>2026-04-25T15:03:10.999Z</time></trkpt><trkpt lat="46.27723171434767" lon="12.31711066659106"><ele>633.1999999999999</ele><time>2026-04-25T15:03:11.999Z</time></trkpt><trkpt lat="46.27730895465908" lon="12.317101212828787"><ele>633.4</ele><time>2026-04-25T15:03:12.999Z</time></trkpt><trkpt lat="46.27740090376683" lon="12.31713031380893"><ele>633.5999999999999</ele><time>2026-04-25T15:03:13.999Z</time></trkpt><trkpt lat="46.27737979533586" lon="12.317309181568357"><ele>633.8</ele><time>2026-04-25T15:03:15.999Z</time></trkpt><trkpt lat="46.277303117411535" lon="12.317351859444612"><ele>634.0</ele><time>2026-04-25T15:03:16.999Z</time></trkpt><trkpt lat="46.277169377674284" lon="12.317316871676457"><ele>643.6666666666667</ele><time>2026-04-25T15:03:17.999Z</time></trkpt><trkpt lat="46.27701338915733" lon="12.317348826926098"><ele>653.3333333333334</ele><time>2026-04-25T15:03:18.999Z</time></trkpt><trkpt lat="46.27684233531529" lon="12.317373945184336"><ele>663.0</ele><time>2026-04-25T15:03:19.999Z</time></trkpt><trkpt lat="46.27668467970668" lon="12.317408380811084"><ele>663.0</ele><time>2026-04-25T15:03:20.999Z</time></trkpt><trkpt lat="46.27653105019029" lon="12.317436100841446"><ele>663.0</ele><time>2026-04-25T15:03:21.999Z</time></trkpt><trkpt lat="46.27638032846576" lon="12.317465683123697"><ele>663.0</ele><time>2026-04-25T15:03:22.999Z</time></trkpt><trkpt lat="46.27623048354032" lon="12.31749441103655"><ele>660.3333333333334</ele><time>2026-04-25T15:03:23.999Z</time></trkpt><trkpt lat="46.2760758601506" lon="12.31752418908472"><ele>657.6666666666667</ele><time>2026-04-25T15:03:24.999Z</time></trkpt><trkpt lat="46.27592472617751" lon="12.317546927376965"><ele>655.0</ele><time>2026-04-25T15:03:25.999Z</time></trkpt><trkpt lat="46.27576486855394" lon="12.31754996208266"><ele>652.3333333333334</ele><time>2026-04-25T15:03:26.999Z</time></trkpt><trkpt lat="46.27560183640074" lon="12.317535715240153"><ele>649.6666666666666</ele><time>2026-04-25T15:03:27.999Z</time></trkpt><trkpt lat="46.27544377027116" lon="12.317534554826148"><ele>647.0</ele><time>2026-04-25T15:03:28.999Z</time></trkpt><trkpt lat="46.2752869068467" lon="12.31753608502401"><ele>647.0</ele><time>2026-04-25T15:03:29.999Z</time></trkpt><trkpt lat="46.275132042358585" lon="12.31752570031388"><ele>647.0</ele><time>2026-04-25T15:03:30.999Z</time></trkpt><trkpt lat="46.274973760521426" lon="12.317523759250026"><ele>647.0</ele><time>2026-04-25T15:03:31.999Z</time></trkpt><trkpt lat="46.27482376204399" lon="12.317528870235579"><ele>647.0</ele><time>2026-04-25T15:03:32.999Z</time></trkpt><trkpt lat="46.274681269718904" lon="12.317537937961"><ele>647.0</ele><time>2026-04-25T15:03:33.999Z</time></trkpt><trkpt lat="46.27453918175112" lon="12.317549872980766"><ele>647.0</ele><time>2026-04-25T15:03:34.999Z</time></trkpt><trkpt lat="46.27438723505943" lon="12.31755058627986"><ele>647.0</ele><time>2026-04-25T15:03:35.999Z</time></trkpt><trkpt lat="46.27422659037297" lon="12.317525671045082"><ele>647.0</ele><time>2026-04-25T15:03:36.999Z</time></trkpt><trkpt lat="46.27405927622773" lon="12.31747519535695"><ele>647.0</ele><time>2026-04-25T15:03:37.999Z</time></trkpt><trkpt lat="46.27388495717219" lon="12.317442258149528"><ele>647.0</ele><time>2026-04-25T15:03:38.999Z</time></trkpt><trkpt lat="46.273706967178995" lon="12.317405027410283"><ele>647.0</ele><time>2026-04-25T15:03:39.999Z</time></trkpt><trkpt lat="46.27353261613745" lon="12.317365363656853"><ele>647.0</ele><time>2026-04-25T15:03:40.999Z</time></trkpt><trkpt lat="46.27336152052018" lon="12.317326331928284"><ele>647.0</ele><time>2026-04-25T15:03:41.999Z</time></trkpt><trkpt lat="46.27319046004689" lon="12.317288866914026"><ele>650.0</ele><time>2026-04-25T15:03:42.999Z</time></trkpt><trkpt lat="46.27301638037448" lon="12.317248314029653"><ele>653.0</ele><time>2026-04-25T15:03:43.999Z</time></trkpt><trkpt lat="46.272840741615305" lon="12.31720731403625"><ele>656.0</ele><time>2026-04-25T15:03:44.999Z</time></trkpt><trkpt lat="46.27267103229999" lon="12.317165924187696"><ele>656.0</ele><time>2026-04-25T15:03:45.999Z</time></trkpt><trkpt lat="46.27250921110237" lon="12.31711767444351"><ele>656.0</ele><time>2026-04-25T15:03:46.999Z</time></trkpt><trkpt lat="46.27235671367597" lon="12.317063885916731"><ele>656.0</ele><time>2026-04-25T15:03:47.999Z</time></trkpt><trkpt lat="46.27221529550658" lon="12.317019921377618"><ele>659.5</ele><time>2026-04-25T15:03:48.999Z</time></trkpt><trkpt lat="46.27207769512538" lon="12.316980021641971"><ele>663.0</ele><time>2026-04-25T15:03:50Z</time></trkpt><trkpt lat="46.271938233196636" lon="12.316973252289309"><ele>666.5</ele><time>2026-04-25T15:03:51Z</time></trkpt><trkpt lat="46.2718003550028" lon="12.317008488642951"><ele>670.0</ele><time>2026-04-25T15:03:52Z</time></trkpt><trkpt lat="46.27165753324805" lon="12.317060324509733"><ele>670.0</ele><time>2026-04-25T15:03:53Z</time></trkpt><trkpt lat="46.27151819743529" lon="12.317099581266758"><ele>670.0</ele><time>2026-04-25T15:03:54Z</time></trkpt><trkpt lat="46.271386438551914" lon="12.317132098088708"><ele>670.0</ele><time>2026-04-25T15:03:55Z</time></trkpt><trkpt lat="46.27125850875186" lon="12.3171673608973"><ele>670.0</ele><time>2026-04-25T15:03:56Z</time></trkpt><trkpt lat="46.27113083960285" lon="12.317199106325269"><ele>667.5</ele><time>2026-04-25T15:03:57Z</time></trkpt><trkpt lat="46.271004045044954" lon="12.317228262526076"><ele>665.0</ele><time>2026-04-25T15:03:58Z</time></trkpt><trkpt lat="46.27088604887905" lon="12.317254483083078"><ele>662.5</ele><time>2026-04-25T15:03:59Z</time></trkpt><trkpt lat="46.27077390231937" lon="12.317278947144292"><ele>660.0</ele><time>2026-04-25T15:04:00Z</time></trkpt><trkpt lat="46.27067038966399" lon="12.317305881824282"><ele>667.6666666666666</ele><time>2026-04-25T15:04:01Z</time></trkpt><trkpt lat="46.27057817961864" lon="12.317325425107427"><ele>675.3333333333334</ele><time>2026-04-25T15:04:02Z</time></trkpt><trkpt lat="46.27050013849391" lon="12.317338045396125"><ele>683.0</ele><time>2026-04-25T15:04:03Z</time></trkpt><trkpt lat="46.27043439579164" lon="12.317349048745712"><ele>690.6666666666667</ele><time>2026-04-25T15:04:04Z</time></trkpt><trkpt lat="46.270321899948634" lon="12.317362114118135"><ele>698.3333333333334</ele><time>2026-04-25T15:04:06Z</time></trkpt><trkpt lat="46.27024871179444" lon="12.317367779975152"><ele>706.0</ele><time>2026-04-25T15:04:08Z</time></trkpt><trkpt lat="46.270185944995184" lon="12.317354851283088"><ele>706.0</ele><time>2026-04-25T15:08:57.999Z</time></trkpt><trkpt lat="46.27010042408043" lon="12.317370008853787"><ele>706.0</ele><time>2026-04-25T15:09:05.999Z</time></trkpt><trkpt lat="46.27000924699059" lon="12.317415626852402"><ele>706.0</ele><time>2026-04-25T15:09:06.999Z</time></trkpt><trkpt lat="46.269871378123014" lon="12.317475452710736"><ele>706.0</ele><time>2026-04-25T15:09:07.999Z</time></trkpt><trkpt lat="46.26974465585712" lon="12.317545257491599"><ele>691.75</ele><time>2026-04-25T15:09:08.999Z</time></trkpt><trkpt lat="46.26966079760501" lon="12.317644506852483"><ele>677.5</ele><time>2026-04-25T15:09:09.999Z</time></trkpt><trkpt lat="46.26959028803418" lon="12.31775203143038"><ele>663.25</ele><time>2026-04-25T15:09:10.999Z</time></trkpt><trkpt lat="46.269508123079966" lon="12.3178389352416"><ele>649.0</ele><time>2026-04-25T15:09:11.999Z</time></trkpt><trkpt lat="46.26944160530586" lon="12.318023229802908"><ele>663.6</ele><time>2026-04-25T15:09:12.999Z</time></trkpt><trkpt lat="46.26933379222059" lon="12.318136574919377"><ele>678.2</ele><time>2026-04-25T15:09:13.999Z</time></trkpt><trkpt lat="46.269223690318675" lon="12.318212472549718"><ele>692.8000000000001</ele><time>2026-04-25T15:09:14.999Z</time></trkpt><trkpt lat="46.26914686050615" lon="12.31828851929333"><ele>707.4000000000001</ele><time>2026-04-25T15:09:15.999Z</time></trkpt><trkpt lat="46.26909262112072" lon="12.318362415334052"><ele>722.0</ele><time>2026-04-25T15:09:16.999Z</time></trkpt><trkpt lat="46.26900238367485" lon="12.318438405869815"><ele>722.0</ele><time>2026-04-25T15:09:17.999Z</time></trkpt><trkpt lat="46.26889446955052" lon="12.318543171889846"><ele>722.0</ele><time>2026-04-25T15:09:18.999Z</time></trkpt><trkpt lat="46.26879907863621" lon="12.318613209411486"><ele>722.0</ele><time>2026-04-25T15:09:19.999Z</time></trkpt><trkpt lat="46.26870281450227" lon="12.318721889210817"><ele>722.0</ele><time>2026-04-25T15:09:20.999Z</time></trkpt><trkpt lat="46.26860189677833" lon="12.318831232638455"><ele>722.0</ele><time>2026-04-25T15:09:21.999Z</time></trkpt><trkpt lat="46.268509041649416" lon="12.318932857997462"><ele>722.0</ele><time>2026-04-25T15:09:22.999Z</time></trkpt><trkpt lat="46.268412492728444" lon="12.31902670616938"><ele>722.0</ele><time>2026-04-25T15:09:23.999Z</time></trkpt><trkpt lat="46.26831827637685" lon="12.319137825837137"><ele>722.0</ele><time>2026-04-25T15:09:25.031Z</time></trkpt><trkpt lat="46.26752481679454" lon="12.321169972753724"><ele>722.0</ele><time>2026-04-25T15:09:28.63Z</time></trkpt><trkpt lat="46.26751529355872" lon="12.3213468119173"><ele>722.0</ele><time>2026-04-25T15:09:29.635Z</time></trkpt><trkpt lat="46.26750701209299" lon="12.321522497419583"><ele>722.0</ele><time>2026-04-25T15:09:30.632Z</time></trkpt><trkpt lat="46.26750102270136" lon="12.321699039749992"><ele>722.0</ele><time>2026-04-25T15:09:31.633Z</time></trkpt><trkpt lat="46.26749583812951" lon="12.321875146041751"><ele>722.0</ele><time>2026-04-25T15:09:32.632Z</time></trkpt><trkpt lat="46.26749834299322" lon="12.322052199050733"><ele>722.0</ele><time>2026-04-25T15:09:33.635Z</time></trkpt><trkpt lat="46.2675024575352" lon="12.32222782682412"><ele>722.0</ele><time>2026-04-25T15:09:34.63Z</time></trkpt><trkpt lat="46.267506601366414" lon="12.322404704797755"><ele>722.0</ele><time>2026-04-25T15:09:35.632Z</time></trkpt><trkpt lat="46.26751074659492" lon="12.322581642414939"><ele>722.0</ele><time>2026-04-25T15:09:36.635Z</time></trkpt><trkpt lat="46.26751487253223" lon="12.322757756593537"><ele>722.0</ele><time>2026-04-25T15:09:37.633Z</time></trkpt><trkpt lat="46.26751900614264" lon="12.3229341982962"><ele>722.0</ele><time>2026-04-25T15:09:38.632Z</time></trkpt><trkpt lat="46.267520102834624" lon="12.323110672182077"><ele>722.0</ele><time>2026-04-25T15:09:39.632Z</time></trkpt><trkpt lat="46.267512552568306" lon="12.323286629669763"><ele>722.0</ele><time>2026-04-25T15:09:40.631Z</time></trkpt><trkpt lat="46.26748611416732" lon="12.323458927442484"><ele>722.0</ele><time>2026-04-25T15:09:41.632Z</time></trkpt><trkpt lat="46.2674487829763" lon="12.323627630298288"><ele>722.0</ele><time>2026-04-25T15:09:42.635Z</time></trkpt><trkpt lat="46.26741114123191" lon="12.323795651136422"><ele>722.0</ele><time>2026-04-25T15:09:43.635Z</time></trkpt><trkpt lat="46.267374738651874" lon="12.323964252559728"><ele>722.75</ele><time>2026-04-25T15:09:44.635Z</time></trkpt><trkpt lat="46.267338025811256" lon="12.324132707282432"><ele>723.5</ele><time>2026-04-25T15:09:45.635Z</time></trkpt><trkpt lat="46.267300981750004" lon="12.324300777994402"><ele>724.25</ele><time>2026-04-25T15:09:46.633Z</time></trkpt><trkpt lat="46.2672768" lon="12.3244189"><ele>725.0</ele><time>2026-04-25T15:09:47.634Z</time></trkpt><trkpt lat="46.26842277437606" lon="12.329880532719576"><ele>725.0</ele><time>2026-04-25T15:10:25.999Z</time></trkpt><trkpt lat="46.26849552986404" lon="12.330006875929003"><ele>725.0</ele><time>2026-04-25T15:10:26.999Z</time></trkpt><trkpt lat="46.26853650033087" lon="12.330211538698874"><ele>725.0</ele><time>2026-04-25T15:10:27.999Z</time></trkpt><trkpt lat="46.26863051929073" lon="12.330308677215651"><ele>725.0</ele><time>2026-04-25T15:10:28.998Z</time></trkpt><trkpt lat="46.26873390497261" lon="12.330409006717073"><ele>725.0</ele><time>2026-04-25T15:10:29.998Z</time></trkpt><trkpt lat="46.26882438635395" lon="12.33052204039924"><ele>725.0</ele><time>2026-04-25T15:10:30.998Z</time></trkpt><trkpt lat="46.268902928436376" lon="12.330652737664558"><ele>725.0</ele><time>2026-04-25T15:10:32Z</time></trkpt><trkpt lat="46.26896049715246" lon="12.330814972056029"><ele>725.0</ele><time>2026-04-25T15:10:33Z</time></trkpt><trkpt lat="46.26902076726906" lon="12.330974865881053"><ele>729.25</ele><time>2026-04-25T15:10:34Z</time></trkpt><trkpt lat="46.26909630936556" lon="12.331141990721903"><ele>733.5</ele><time>2026-04-25T15:10:35Z</time></trkpt><trkpt lat="46.2691659293597" lon="12.331344464991224"><ele>737.75</ele><time>2026-04-25T15:10:36Z</time></trkpt><trkpt lat="46.2692318886238" lon="12.331537503084075"><ele>742.0</ele><time>2026-04-25T15:10:37Z</time></trkpt><trkpt lat="46.26929410172463" lon="12.331733762314608"><ele>742.0</ele><time>2026-04-25T15:10:38Z</time></trkpt><trkpt lat="46.26935768206872" lon="12.331921927102117"><ele>742.0</ele><time>2026-04-25T15:10:39Z</time></trkpt><trkpt lat="46.26940826540375" lon="12.3320874397418"><ele>742.0</ele><time>2026-04-25T15:10:40Z</time></trkpt><trkpt lat="46.269449302730045" lon="12.332268412662778"><ele>742.0</ele><time>2026-04-25T15:10:41Z</time></trkpt><trkpt lat="46.269476567924336" lon="12.332451699319208"><ele>741.0</ele><time>2026-04-25T15:10:42Z</time></trkpt><trkpt lat="46.26948160741232" lon="12.332643577746238"><ele>740.0</ele><time>2026-04-25T15:10:43Z</time></trkpt><trkpt lat="46.26946618630256" lon="12.332841251776658"><ele>739.0</ele><time>2026-04-25T15:10:44Z</time></trkpt><trkpt lat="46.26943879724091" lon="12.333047909897617"><ele>738.0</ele><time>2026-04-25T15:10:45Z</time></trkpt><trkpt lat="46.26941677165542" lon="12.333232690199097"><ele>738.0</ele><time>2026-04-25T15:10:46Z</time></trkpt><trkpt lat="46.26941273355346" lon="12.333392216231756"><ele>738.0</ele><time>2026-04-25T15:10:47Z</time></trkpt><trkpt lat="46.26944707850136" lon="12.33353481728451"><ele>738.0</ele><time>2026-04-25T15:10:48Z</time></trkpt><trkpt lat="46.26950328915383" lon="12.333640593316074"><ele>738.0</ele><time>2026-04-25T15:10:49Z</time></trkpt><trkpt lat="46.26961121814233" lon="12.333729806445618"><ele>738.0</ele><time>2026-04-25T15:10:50Z</time></trkpt><trkpt lat="46.26973739693138" lon="12.333745966849605"><ele>749.5</ele><time>2026-04-25T15:10:51Z</time></trkpt><trkpt lat="46.26989531697829" lon="12.333682820662968"><ele>761.0</ele><time>2026-04-25T15:10:52Z</time></trkpt><trkpt lat="46.270002735743454" lon="12.333731583104155"><ele>772.5</ele><time>2026-04-25T15:10:53Z</time></trkpt><trkpt lat="46.27006664721528" lon="12.333850405109786"><ele>784.0</ele><time>2026-04-25T15:10:54Z</time></trkpt><trkpt lat="46.27009130068781" lon="12.333983494900702"><ele>784.6666666666666</ele><time>2026-04-25T15:10:55Z</time></trkpt><trkpt lat="46.270070857418084" lon="12.334112425092314"><ele>785.3333333333333</ele><time>2026-04-25T15:10:56Z</time></trkpt><trkpt lat="46.27004814634258" lon="12.334217318209424"><ele>786.0</ele><time>2026-04-25T15:10:57Z</time></trkpt><trkpt lat="46.270023175111874" lon="12.334318990212289"><ele>786.6666666666667</ele><time>2026-04-25T15:10:58Z</time></trkpt><trkpt lat="46.269999500707755" lon="12.334421273157142"><ele>787.3333333333334</ele><time>2026-04-25T15:10:59Z</time></trkpt><trkpt lat="46.26997053340151" lon="12.334532202771618"><ele>788.0</ele><time>2026-04-25T15:11:00Z</time></trkpt><trkpt lat="46.2699412256452" lon="12.334649902061491"><ele>790.8</ele><time>2026-04-25T15:11:01Z</time></trkpt><trkpt lat="46.26989466381506" lon="12.33477004679772"><ele>793.5999999999999</ele><time>2026-04-25T15:11:02Z</time></trkpt><trkpt lat="46.26985887768291" lon="12.334905508349946"><ele>796.4000000000001</ele><time>2026-04-25T15:11:03Z</time></trkpt><trkpt lat="46.26981782604688" lon="12.335056766580742"><ele>799.2</ele><time>2026-04-25T15:11:04Z</time></trkpt><trkpt lat="46.269742898423374" lon="12.33519957425279"><ele>802.0</ele><time>2026-04-25T15:11:05Z</time></trkpt><trkpt lat="46.269634439008016" lon="12.335320758419552"><ele>790.25</ele><time>2026-04-25T15:11:06Z</time></trkpt><trkpt lat="46.26950783770352" lon="12.335413457281577"><ele>778.5</ele><time>2026-04-25T15:11:07Z</time></trkpt><trkpt lat="46.2693570918166" lon="12.335461438929713"><ele>766.75</ele><time>2026-04-25T15:11:08Z</time></trkpt><trkpt lat="46.269227276317714" lon="12.33548447757109"><ele>755.0</ele><time>2026-04-25T15:11:09Z</time></trkpt><trkpt lat="46.26912271171645" lon="12.335511435943596"><ele>757.0</ele><time>2026-04-25T15:11:10Z</time></trkpt><trkpt lat="46.26903908507513" lon="12.335554008660333"><ele>759.0</ele><time>2026-04-25T15:11:11Z</time></trkpt><trkpt lat="46.268970988322444" lon="12.33561599509665"><ele>761.0</ele><time>2026-04-25T15:11:11.999Z</time></trkpt><trkpt lat="46.268887526718196" lon="12.335694695014006"><ele>763.0</ele><time>2026-04-25T15:11:13.999Z</time></trkpt><trkpt lat="46.26881101642896" lon="12.335660174809883"><ele>765.0</ele><time>2026-04-25T15:11:16.999Z</time></trkpt><trkpt lat="46.268773455935595" lon="12.335574448886973"><ele>767.0</ele><time>2026-04-25T15:11:20.999Z</time></trkpt><trkpt lat="46.268843336663146" lon="12.335708189830974"><ele>767.0</ele><time>2026-04-25T15:22:23.999Z</time></trkpt><trkpt lat="46.26880709794563" lon="12.335828086448887"><ele>767.0</ele><time>2026-04-25T15:22:25.999Z</time></trkpt><trkpt lat="46.26875835064997" lon="12.335911988955482"><ele>767.0</ele><time>2026-04-25T15:22:26.999Z</time></trkpt><trkpt lat="46.26871744380606" lon="12.336008381402292"><ele>767.0</ele><time>2026-04-25T15:22:27.999Z</time></trkpt><trkpt lat="46.26867717228751" lon="12.33612928768558"><ele>767.0</ele><time>2026-04-25T15:22:28.999Z</time></trkpt><trkpt lat="46.26864688440125" lon="12.336273850440017"><ele>767.0</ele><time>2026-04-25T15:22:29.999Z</time></trkpt><trkpt lat="46.268625987788575" lon="12.336436579970153"><ele>769.8</ele><time>2026-04-25T15:22:30.999Z</time></trkpt><trkpt lat="46.26862238928474" lon="12.336601292490874"><ele>772.6</ele><time>2026-04-25T15:22:31.999Z</time></trkpt><trkpt lat="46.268632343593296" lon="12.336761108623527"><ele>775.4</ele><time>2026-04-25T15:22:32.999Z</time></trkpt><trkpt lat="46.26865925543344" lon="12.33690985394444"><ele>778.1999999999999</ele><time>2026-04-25T15:22:33.999Z</time></trkpt><trkpt lat="46.268698741559604" lon="12.337044572834747"><ele>781.0</ele><time>2026-04-25T15:22:34.999Z</time></trkpt><trkpt lat="46.26875003103475" lon="12.337163647170415"><ele>782.8</ele><time>2026-04-25T15:22:35.999Z</time></trkpt><trkpt lat="46.26880659285731" lon="12.337271896050833"><ele>784.5999999999999</ele><time>2026-04-25T15:22:36.999Z</time></trkpt><trkpt lat="46.26886176127417" lon="12.33736287417895"><ele>786.4</ele><time>2026-04-25T15:22:37.999Z</time></trkpt><trkpt lat="46.2689285365358" lon="12.337448411472593"><ele>788.2</ele><time>2026-04-25T15:22:38.999Z</time></trkpt><trkpt lat="46.26899718321067" lon="12.337578634591136"><ele>790.0</ele><time>2026-04-25T15:22:39.999Z</time></trkpt><trkpt lat="46.269071997397006" lon="12.337716091208899"><ele>790.8</ele><time>2026-04-25T15:22:40.999Z</time></trkpt><trkpt lat="46.26914579966455" lon="12.33784672418644"><ele>791.6</ele><time>2026-04-25T15:22:41.999Z</time></trkpt><trkpt lat="46.269210018876954" lon="12.337964827157153"><ele>792.4000000000001</ele><time>2026-04-25T15:22:42.999Z</time></trkpt><trkpt lat="46.26927172961972" lon="12.338071672193623"><ele>793.2</ele><time>2026-04-25T15:22:43.999Z</time></trkpt><trkpt lat="46.269336940185156" lon="12.338169158680229"><ele>794.0</ele><time>2026-04-25T15:22:44.999Z</time></trkpt><trkpt lat="46.26938559652284" lon="12.338266061126717"><ele>794.0000000000001</ele><time>2026-04-25T15:22:45.999Z</time></trkpt><trkpt lat="46.26943457610597" lon="12.338356431845575"><ele>794.0</ele><time>2026-04-25T15:22:46.999Z</time></trkpt><trkpt lat="46.269479284006415" lon="12.338445435095636"><ele>794.0</ele><time>2026-04-25T15:22:47.999Z</time></trkpt><trkpt lat="46.269528703423084" lon="12.3385282764511"><ele>794.0</ele><time>2026-04-25T15:22:48.999Z</time></trkpt><trkpt lat="46.26958069327125" lon="12.338617293058874"><ele>794.0000000000001</ele><time>2026-04-25T15:22:49.999Z</time></trkpt><trkpt lat="46.269643998469775" lon="12.338718030926865"><ele>794.0</ele><time>2026-04-25T15:22:50.999Z</time></trkpt><trkpt lat="46.26970416619186" lon="12.338826962471437"><ele>794.4000000000001</ele><time>2026-04-25T15:22:51.999Z</time></trkpt><trkpt lat="46.26975994392085" lon="12.338936242027831"><ele>794.8</ele><time>2026-04-25T15:22:52.999Z</time></trkpt><trkpt lat="46.269819166646215" lon="12.339047104967335"><ele>795.2</ele><time>2026-04-25T15:22:53.999Z</time></trkpt><trkpt lat="46.269882917078874" lon="12.339158168507229"><ele>795.5999999999999</ele><time>2026-04-25T15:22:54.999Z</time></trkpt><trkpt lat="46.26994965093321" lon="12.339271344816428"><ele>796.0</ele><time>2026-04-25T15:22:55.999Z</time></trkpt><trkpt lat="46.27001466614682" lon="12.3393837356335"><ele>796.25</ele><time>2026-04-25T15:22:56.999Z</time></trkpt><trkpt lat="46.270070237318215" lon="12.339515979535921"><ele>796.5</ele><time>2026-04-25T15:22:57.999Z</time></trkpt><trkpt lat="46.270110943185784" lon="12.339675897532564"><ele>796.75</ele><time>2026-04-25T15:22:58.999Z</time></trkpt><trkpt lat="46.270139951107815" lon="12.339856370322897"><ele>797.0</ele><time>2026-04-25T15:22:59.999Z</time></trkpt><trkpt lat="46.270161959782286" lon="12.34004199450386"><ele>797.0</ele><time>2026-04-25T15:23:00.999Z</time></trkpt><trkpt lat="46.2701640636614" lon="12.34022779361171"><ele>797.0</ele><time>2026-04-25T15:23:01.999Z</time></trkpt><trkpt lat="46.27016156449445" lon="12.340412231456384"><ele>797.0</ele><time>2026-04-25T15:23:02.999Z</time></trkpt><trkpt lat="46.270134667884044" lon="12.34060948679012"><ele>797.0</ele><time>2026-04-25T15:23:03.999Z</time></trkpt><trkpt lat="46.2701101311784" lon="12.340815799118733"><ele>799.6666666666667</ele><time>2026-04-25T15:23:04.999Z</time></trkpt><trkpt lat="46.27010126943827" lon="12.341038251605893"><ele>802.3333333333333</ele><time>2026-04-25T15:23:06Z</time></trkpt><trkpt lat="46.27008816061332" lon="12.341287425161326"><ele>805.0</ele><time>2026-04-25T15:23:07Z</time></trkpt><trkpt lat="46.27007401058898" lon="12.34153311242988"><ele>807.0</ele><time>2026-04-25T15:23:08Z</time></trkpt><trkpt lat="46.2700597905926" lon="12.341769959662324"><ele>809.0</ele><time>2026-04-25T15:23:09Z</time></trkpt><trkpt lat="46.270045386109686" lon="12.341994166135546"><ele>811.0</ele><time>2026-04-25T15:23:10Z</time></trkpt><trkpt lat="46.27002517119444" lon="12.342207962714637"><ele>813.0</ele><time>2026-04-25T15:23:11Z</time></trkpt><trkpt lat="46.27000184800846" lon="12.342417915423715"><ele>815.0</ele><time>2026-04-25T15:23:12Z</time></trkpt><trkpt lat="46.26997814803847" lon="12.342621124890401"><ele>817.0</ele><time>2026-04-25T15:23:13Z</time></trkpt><trkpt lat="46.26994107991222" lon="12.34282939660905"><ele>819.0</ele><time>2026-04-25T15:23:14Z</time></trkpt><trkpt lat="46.269905558675674" lon="12.34302942175551"><ele>817.3333333333333</ele><time>2026-04-25T15:23:15Z</time></trkpt><trkpt lat="46.26986795875696" lon="12.343256542412961"><ele>815.6666666666666</ele><time>2026-04-25T15:23:16Z</time></trkpt><trkpt lat="46.269832090010674" lon="12.343476289343215"><ele>814.0</ele><time>2026-04-25T15:23:17Z</time></trkpt><trkpt lat="46.26979430672054" lon="12.343701475081245"><ele>811.6666666666666</ele><time>2026-04-25T15:23:18Z</time></trkpt><trkpt lat="46.26975580458529" lon="12.3439336098331"><ele>809.3333333333333</ele><time>2026-04-25T15:23:19Z</time></trkpt><trkpt lat="46.26971690168668" lon="12.344171838542872"><ele>807.0</ele><time>2026-04-25T15:23:20Z</time></trkpt><trkpt lat="46.269676672819486" lon="12.34441818103579"><ele>807.0</ele><time>2026-04-25T15:23:21Z</time></trkpt><trkpt lat="46.26963400541754" lon="12.344677534637004"><ele>807.0</ele><time>2026-04-25T15:23:22Z</time></trkpt><trkpt lat="46.26958974281702" lon="12.344948665847832"><ele>807.0</ele><time>2026-04-25T15:23:23Z</time></trkpt><trkpt lat="46.26954205690974" lon="12.34522567979935"><ele>804.6666666666667</ele><time>2026-04-25T15:23:24Z</time></trkpt><trkpt lat="46.26949413917969" lon="12.345498636609571"><ele>802.3333333333334</ele><time>2026-04-25T15:23:25Z</time></trkpt><trkpt lat="46.26944507261013" lon="12.345757526082252"><ele>800.0</ele><time>2026-04-25T15:23:26Z</time></trkpt><trkpt lat="46.26939031379942" lon="12.346002725400348"><ele>800.0</ele><time>2026-04-25T15:23:27Z</time></trkpt><trkpt lat="46.26932706431184" lon="12.346243190777615"><ele>800.0</ele><time>2026-04-25T15:23:28Z</time></trkpt><trkpt lat="46.26924575060993" lon="12.346466405267526"><ele>800.0</ele><time>2026-04-25T15:23:29Z</time></trkpt><trkpt lat="46.26919212519221" lon="12.346705629490891"><ele>803.6666666666667</ele><time>2026-04-25T15:23:30Z</time></trkpt><trkpt lat="46.26911678524714" lon="12.346929120658274"><ele>807.3333333333333</ele><time>2026-04-25T15:23:31Z</time></trkpt><trkpt lat="46.26904202878172" lon="12.347148523595722"><ele>811.0</ele><time>2026-04-25T15:23:31.999Z</time></trkpt><trkpt lat="46.26896587652203" lon="12.347357927824532"><ele>813.0</ele><time>2026-04-25T15:23:32.999Z</time></trkpt><trkpt lat="46.26887836993559" lon="12.34755144288098"><ele>815.0</ele><time>2026-04-25T15:23:33.999Z</time></trkpt><trkpt lat="46.26878825714006" lon="12.347733372719617"><ele>817.0</ele><time>2026-04-25T15:23:34.999Z</time></trkpt><trkpt lat="46.26872585008137" lon="12.347924455730286"><ele>810.5</ele><time>2026-04-25T15:23:35.999Z</time></trkpt><trkpt lat="46.26867866255689" lon="12.34810636272832"><ele>804.0</ele><time>2026-04-25T15:23:36.999Z</time></trkpt><trkpt lat="46.26868109052764" lon="12.348301586420941"><ele>797.5</ele><time>2026-04-25T15:23:37.999Z</time></trkpt><trkpt lat="46.26874388576556" lon="12.34849179218996"><ele>791.0</ele><time>2026-04-25T15:23:38.999Z</time></trkpt><trkpt lat="46.268828816746364" lon="12.34867393818564"><ele>791.0</ele><time>2026-04-25T15:23:39.999Z</time></trkpt><trkpt lat="46.268921735150535" lon="12.34885548340379"><ele>791.0</ele><time>2026-04-25T15:23:40.999Z</time></trkpt><trkpt lat="46.26897534454928" lon="12.349022866726479"><ele>791.0</ele><time>2026-04-25T15:23:41.999Z</time></trkpt><trkpt lat="46.26902724055646" lon="12.349183450279146"><ele>791.0</ele><time>2026-04-25T15:23:42.999Z</time></trkpt><trkpt lat="46.269069427940856" lon="12.3493455635104"><ele>795.0</ele><time>2026-04-25T15:23:43.999Z</time></trkpt><trkpt lat="46.26910492262344" lon="12.349512454868867"><ele>799.0</ele><time>2026-04-25T15:23:44.999Z</time></trkpt><trkpt lat="46.26913523690614" lon="12.349671257202605"><ele>803.0</ele><time>2026-04-25T15:23:45.999Z</time></trkpt><trkpt lat="46.269163326506074" lon="12.349821823239788"><ele>807.0</ele><time>2026-04-25T15:23:46.999Z</time></trkpt><trkpt lat="46.26920540664728" lon="12.349967436188503"><ele>807.0</ele><time>2026-04-25T15:23:47.999Z</time></trkpt><trkpt lat="46.26923267403632" lon="12.350118097269227"><ele>807.0</ele><time>2026-04-25T15:23:48.999Z</time></trkpt><trkpt lat="46.26925984959159" lon="12.350270808806831"><ele>807.0</ele><time>2026-04-25T15:23:49.999Z</time></trkpt><trkpt lat="46.2692860221194" lon="12.350426033860725"><ele>807.0</ele><time>2026-04-25T15:23:50.999Z</time></trkpt><trkpt lat="46.26931627288644" lon="12.350578872210482"><ele>807.0</ele><time>2026-04-25T15:23:51.999Z</time></trkpt><trkpt lat="46.269332194169955" lon="12.350738614181108"><ele>804.75</ele><time>2026-04-25T15:23:52.999Z</time></trkpt><trkpt lat="46.26936024185575" lon="12.350896687801011"><ele>802.5</ele><time>2026-04-25T15:23:53.999Z</time></trkpt><trkpt lat="46.26938904608057" lon="12.351059023633363"><ele>800.25</ele><time>2026-04-25T15:23:54.999Z</time></trkpt><trkpt lat="46.269428320687005" lon="12.351230058549108"><ele>798.0</ele><time>2026-04-25T15:23:55.999Z</time></trkpt><trkpt lat="46.26943892268169" lon="12.351424518595703"><ele>798.25</ele><time>2026-04-25T15:23:56.999Z</time></trkpt><trkpt lat="46.26942643908371" lon="12.351629313373008"><ele>798.5</ele><time>2026-04-25T15:23:57.999Z</time></trkpt><trkpt lat="46.26940013641536" lon="12.351831861607897"><ele>798.75</ele><time>2026-04-25T15:23:58.999Z</time></trkpt><trkpt lat="46.26937086568697" lon="12.352029009197384"><ele>799.0</ele><time>2026-04-25T15:23:59.999Z</time></trkpt><trkpt lat="46.26934322102067" lon="12.35222128938131"><ele>799.0</ele><time>2026-04-25T15:24:00.999Z</time></trkpt><trkpt lat="46.26931687949919" lon="12.352407734785627"><ele>799.0</ele><time>2026-04-25T15:24:01.999Z</time></trkpt><trkpt lat="46.26929242732435" lon="12.35258064448447"><ele>799.0</ele><time>2026-04-25T15:24:02.999Z</time></trkpt><trkpt lat="46.26925186680327" lon="12.352743258527777"><ele>799.0</ele><time>2026-04-25T15:24:03.999Z</time></trkpt><trkpt lat="46.26924143551622" lon="12.352914663324352"><ele>795.75</ele><time>2026-04-25T15:24:04.999Z</time></trkpt><trkpt lat="46.26928446955165" lon="12.353080455661098"><ele>792.5</ele><time>2026-04-25T15:24:05.999Z</time></trkpt><trkpt lat="46.269346813226306" lon="12.353224246042306"><ele>789.25</ele><time>2026-04-25T15:24:06.999Z</time></trkpt><trkpt lat="46.26943620092651" lon="12.353342575274866"><ele>786.0</ele><time>2026-04-25T15:24:07.999Z</time></trkpt><trkpt lat="46.26954836932486" lon="12.353432859946246"><ele>786.0</ele><time>2026-04-25T15:24:08.999Z</time></trkpt><trkpt lat="46.26967471980216" lon="12.353501282922457"><ele>786.0</ele><time>2026-04-25T15:24:09.999Z</time></trkpt><trkpt lat="46.269802505975555" lon="12.35356092974125"><ele>786.0</ele><time>2026-04-25T15:24:10.999Z</time></trkpt><trkpt lat="46.269924368757756" lon="12.353633616764032"><ele>786.0</ele><time>2026-04-25T15:24:11.999Z</time></trkpt><trkpt lat="46.270043942093295" lon="12.353738184642564"><ele>789.0</ele><time>2026-04-25T15:24:12.999Z</time></trkpt><trkpt lat="46.27014638552899" lon="12.35388640276811"><ele>792.0</ele><time>2026-04-25T15:24:13.999Z</time></trkpt><trkpt lat="46.270186111512736" lon="12.354112746121114"><ele>795.0</ele><time>2026-04-25T15:24:14.999Z</time></trkpt><trkpt lat="46.2702516341537" lon="12.354343226360648"><ele>795.0</ele><time>2026-04-25T15:24:15.999Z</time></trkpt><trkpt lat="46.27030671525083" lon="12.354572930233251"><ele>795.0</ele><time>2026-04-25T15:24:16.999Z</time></trkpt><trkpt lat="46.27036770077036" lon="12.35478587900766"><ele>795.0</ele><time>2026-04-25T15:24:17.999Z</time></trkpt><trkpt lat="46.27042964535922" lon="12.35500139897987"><ele>798.3333333333333</ele><time>2026-04-25T15:24:18.999Z</time></trkpt><trkpt lat="46.27050200263666" lon="12.355218053497131"><ele>801.6666666666666</ele><time>2026-04-25T15:24:19.999Z</time></trkpt><trkpt lat="46.2705754054561" lon="12.355422777688657"><ele>805.0</ele><time>2026-04-25T15:24:20.999Z</time></trkpt><trkpt lat="46.27065150810291" lon="12.355618130191694"><ele>805.0</ele><time>2026-04-25T15:24:21.999Z</time></trkpt><trkpt lat="46.27072199745559" lon="12.355808835784046"><ele>805.0</ele><time>2026-04-25T15:24:22.999Z</time></trkpt><trkpt lat="46.27078844397695" lon="12.356017346175005"><ele>805.0</ele><time>2026-04-25T15:24:23.999Z</time></trkpt><trkpt lat="46.27082921399815" lon="12.356231415309113"><ele>802.3333333333333</ele><time>2026-04-25T15:24:24.999Z</time></trkpt><trkpt lat="46.270841571312246" lon="12.356465555427803"><ele>799.6666666666667</ele><time>2026-04-25T15:24:25.999Z</time></trkpt><trkpt lat="46.270833485735686" lon="12.356707274105796"><ele>797.0</ele><time>2026-04-25T15:24:26.999Z</time></trkpt><trkpt lat="46.270820478101804" lon="12.356938949002155"><ele>797.0</ele><time>2026-04-25T15:24:27.999Z</time></trkpt><trkpt lat="46.27082076948278" lon="12.357154385799472"><ele>797.0</ele><time>2026-04-25T15:24:28.999Z</time></trkpt><trkpt lat="46.27084059527966" lon="12.357358899388078"><ele>797.0</ele><time>2026-04-25T15:24:29.999Z</time></trkpt><trkpt lat="46.270858221243095" lon="12.357577318484436"><ele>797.0</ele><time>2026-04-25T15:24:30.999Z</time></trkpt><trkpt lat="46.27088357800617" lon="12.357795749807927"><ele>795.0</ele><time>2026-04-25T15:24:31.999Z</time></trkpt><trkpt lat="46.27091075316784" lon="12.358015000224665"><ele>793.0</ele><time>2026-04-25T15:24:32.999Z</time></trkpt><trkpt lat="46.270947501576806" lon="12.358234214755623"><ele>791.0</ele><time>2026-04-25T15:24:33.999Z</time></trkpt><trkpt lat="46.27099414101155" lon="12.358450788170197"><ele>789.0</ele><time>2026-04-25T15:24:34.999Z</time></trkpt><trkpt lat="46.27106134405949" lon="12.358647803600126"><ele>787.0</ele><time>2026-04-25T15:24:35.999Z</time></trkpt><trkpt lat="46.271128318809964" lon="12.358832830177986"><ele>785.0</ele><time>2026-04-25T15:24:36.999Z</time></trkpt><trkpt lat="46.271204169432366" lon="12.358999784540895"><ele>783.0</ele><time>2026-04-25T15:24:37.999Z</time></trkpt><trkpt lat="46.271233995242525" lon="12.359176575924517"><ele>780.5</ele><time>2026-04-25T15:24:38.999Z</time></trkpt><trkpt lat="46.271291345612056" lon="12.359346998466371"><ele>778.0</ele><time>2026-04-25T15:24:39.999Z</time></trkpt><trkpt lat="46.27128156593619" lon="12.359553449395307"><ele>775.5</ele><time>2026-04-25T15:24:40.999Z</time></trkpt><trkpt lat="46.271269062884826" lon="12.359753110049423"><ele>773.0</ele><time>2026-04-25T15:24:41.999Z</time></trkpt><trkpt lat="46.27126303911241" lon="12.359941244671491"><ele>771.5</ele><time>2026-04-25T15:24:42.999Z</time></trkpt><trkpt lat="46.27126049703815" lon="12.36012556516768"><ele>770.0</ele><time>2026-04-25T15:24:43.999Z</time></trkpt><trkpt lat="46.27125476281206" lon="12.360308570749407"><ele>768.5</ele><time>2026-04-25T15:24:44.999Z</time></trkpt><trkpt lat="46.27124675972743" lon="12.36048165252744"><ele>767.0</ele><time>2026-04-25T15:24:45.999Z</time></trkpt><trkpt lat="46.27123425660783" lon="12.360646798779026"><ele>767.0</ele><time>2026-04-25T15:24:46.999Z</time></trkpt><trkpt lat="46.271205422056774" lon="12.360807045945707"><ele>767.0</ele><time>2026-04-25T15:24:47.999Z</time></trkpt><trkpt lat="46.27115616284788" lon="12.360954787746426"><ele>767.0</ele><time>2026-04-25T15:24:48.999Z</time></trkpt><trkpt lat="46.27109421125351" lon="12.361082772112848"><ele>767.0</ele><time>2026-04-25T15:24:49.999Z</time></trkpt><trkpt lat="46.27103013753723" lon="12.361184448383497"><ele>767.0</ele><time>2026-04-25T15:24:50.999Z</time></trkpt><trkpt lat="46.27097485593737" lon="12.361290229653216"><ele>767.6</ele><time>2026-04-25T15:24:51.999Z</time></trkpt><trkpt lat="46.27094269323001" lon="12.3613999852997"><ele>768.2</ele><time>2026-04-25T15:24:52.999Z</time></trkpt><trkpt lat="46.270925199047426" lon="12.361524948587983"><ele>768.8</ele><time>2026-04-25T15:24:53.999Z</time></trkpt><trkpt lat="46.27090841029686" lon="12.361662892888486"><ele>769.4</ele><time>2026-04-25T15:24:54.999Z</time></trkpt><trkpt lat="46.270890422206925" lon="12.361799876441067"><ele>770.0</ele><time>2026-04-25T15:24:55.999Z</time></trkpt><trkpt lat="46.27087195718158" lon="12.361944353437604"><ele>770.0</ele><time>2026-04-25T15:24:56.999Z</time></trkpt><trkpt lat="46.27087016002638" lon="12.362093884954803"><ele>770.0</ele><time>2026-04-25T15:24:57.999Z</time></trkpt><trkpt lat="46.27087955505733" lon="12.362241727723374"><ele>770.0</ele><time>2026-04-25T15:24:58.999Z</time></trkpt><trkpt lat="46.2708999923012" lon="12.362383812546963"><ele>770.0</ele><time>2026-04-25T15:24:59.999Z</time></trkpt><trkpt lat="46.27093942049693" lon="12.36251944049115"><ele>770.0</ele><time>2026-04-25T15:25:00.999Z</time></trkpt><trkpt lat="46.27100650800179" lon="12.362632694517627"><ele>768.75</ele><time>2026-04-25T15:25:01.999Z</time></trkpt><trkpt lat="46.27109860768609" lon="12.362699818861406"><ele>767.5</ele><time>2026-04-25T15:25:02.999Z</time></trkpt><trkpt lat="46.27121108794902" lon="12.362728533816272"><ele>766.25</ele><time>2026-04-25T15:25:03.999Z</time></trkpt><trkpt lat="46.271342104724624" lon="12.362769647602606"><ele>765.0</ele><time>2026-04-25T15:25:04.999Z</time></trkpt><trkpt lat="46.27148059573835" lon="12.362840465274253"><ele>766.0</ele><time>2026-04-25T15:25:05.999Z</time></trkpt><trkpt lat="46.2716300045523" lon="12.362936770180966"><ele>767.0</ele><time>2026-04-25T15:25:06.999Z</time></trkpt><trkpt lat="46.27178926188674" lon="12.363083480621727"><ele>768.0</ele><time>2026-04-25T15:25:07.999Z</time></trkpt><trkpt lat="46.271927783485225" lon="12.363187412827047"><ele>768.0</ele><time>2026-04-25T15:25:08.999Z</time></trkpt><trkpt lat="46.2720515443504" lon="12.363279729247319"><ele>768.0</ele><time>2026-04-25T15:25:09.999Z</time></trkpt><trkpt lat="46.27216077954456" lon="12.36334347415939"><ele>768.0</ele><time>2026-04-25T15:25:10.999Z</time></trkpt><trkpt lat="46.272219030719626" lon="12.363481597366677"><ele>768.0</ele><time>2026-04-25T15:25:12Z</time></trkpt><trkpt lat="46.27224541977541" lon="12.363673952868874"><ele>763.75</ele><time>2026-04-25T15:25:13Z</time></trkpt><trkpt lat="46.272256575580876" lon="12.3639133070128"><ele>759.5</ele><time>2026-04-25T15:25:14Z</time></trkpt><trkpt lat="46.272271075251645" lon="12.364128540441003"><ele>755.25</ele><time>2026-04-25T15:25:15Z</time></trkpt><trkpt lat="46.27228623801288" lon="12.364313561152294"><ele>751.0</ele><time>2026-04-25T15:25:16Z</time></trkpt><trkpt lat="46.272299226794914" lon="12.364504882947505"><ele>760.0</ele><time>2026-04-25T15:25:17Z</time></trkpt><trkpt lat="46.272313942544585" lon="12.364699919390029"><ele>769.0</ele><time>2026-04-25T15:25:18Z</time></trkpt><trkpt lat="46.27232652258007" lon="12.364896333433443"><ele>778.0</ele><time>2026-04-25T15:25:19Z</time></trkpt><trkpt lat="46.27233567520149" lon="12.365084821868114"><ele>787.0</ele><time>2026-04-25T15:25:20Z</time></trkpt><trkpt lat="46.272346274774414" lon="12.365272765618053"><ele>787.0</ele><time>2026-04-25T15:25:21Z</time></trkpt><trkpt lat="46.272362196638575" lon="12.365461079203358"><ele>787.0</ele><time>2026-04-25T15:25:22Z</time></trkpt><trkpt lat="46.27238629596993" lon="12.365648453377347"><ele>787.0</ele><time>2026-04-25T15:25:23Z</time></trkpt><trkpt lat="46.27242049890736" lon="12.36583943441243"><ele>787.0</ele><time>2026-04-25T15:25:24Z</time></trkpt><trkpt lat="46.27246320185888" lon="12.36603187349833"><ele>785.5</ele><time>2026-04-25T15:25:25Z</time></trkpt><trkpt lat="46.2725062937149" lon="12.36623224298267"><ele>784.0</ele><time>2026-04-25T15:25:26Z</time></trkpt><trkpt lat="46.27254923896028" lon="12.366433700432516"><ele>782.5</ele><time>2026-04-25T15:25:27Z</time></trkpt><trkpt lat="46.272592763803196" lon="12.366628800151846"><ele>781.0</ele><time>2026-04-25T15:25:28Z</time></trkpt><trkpt lat="46.272637735782745" lon="12.366821163075883"><ele>779.75</ele><time>2026-04-25T15:25:29Z</time></trkpt><trkpt lat="46.27268607414635" lon="12.36701081262065"><ele>778.5</ele><time>2026-04-25T15:25:30Z</time></trkpt><trkpt lat="46.272741628227315" lon="12.367193900637977"><ele>777.25</ele><time>2026-04-25T15:25:31Z</time></trkpt><trkpt lat="46.2728125734866" lon="12.367366763504473"><ele>776.0</ele><time>2026-04-25T15:25:32Z</time></trkpt><trkpt lat="46.272890594779305" lon="12.367520298569028"><ele>775.75</ele><time>2026-04-25T15:25:33Z</time></trkpt><trkpt lat="46.27297363389495" lon="12.367654859768393"><ele>775.5</ele><time>2026-04-25T15:25:34Z</time></trkpt><trkpt lat="46.27307339910351" lon="12.367755315267274"><ele>775.25</ele><time>2026-04-25T15:25:35Z</time></trkpt><trkpt lat="46.27319610895003" lon="12.36780594350225"><ele>775.0</ele><time>2026-04-25T15:25:36Z</time></trkpt><trkpt lat="46.27333874397955" lon="12.367793770172135"><ele>779.0</ele><time>2026-04-25T15:25:37Z</time></trkpt><trkpt lat="46.27349019297173" lon="12.367789617088278"><ele>783.0</ele><time>2026-04-25T15:25:38Z</time></trkpt><trkpt lat="46.27360749364266" lon="12.367780002478044"><ele>787.0</ele><time>2026-04-25T15:25:39Z</time></trkpt><trkpt lat="46.27371285068386" lon="12.367779789214392"><ele>791.0</ele><time>2026-04-25T15:25:40Z</time></trkpt><trkpt lat="46.27381031761686" lon="12.367861069819421"><ele>791.0</ele><time>2026-04-25T15:25:40.999Z</time></trkpt><trkpt lat="46.27388067598859" lon="12.367992158145812"><ele>791.0</ele><time>2026-04-25T15:25:41.999Z</time></trkpt><trkpt lat="46.27390500086869" lon="12.368159122565856"><ele>791.0</ele><time>2026-04-25T15:25:42.999Z</time></trkpt><trkpt lat="46.273880949915736" lon="12.368331163702068"><ele>791.0</ele><time>2026-04-25T15:25:43.999Z</time></trkpt><trkpt lat="46.273811232304375" lon="12.368521281050901"><ele>788.25</ele><time>2026-04-25T15:25:44.999Z</time></trkpt><trkpt lat="46.27373931226652" lon="12.368737221016023"><ele>785.5</ele><time>2026-04-25T15:25:45.999Z</time></trkpt><trkpt lat="46.27369091391898" lon="12.36892852422741"><ele>782.75</ele><time>2026-04-25T15:25:46.999Z</time></trkpt><trkpt lat="46.273662617237036" lon="12.369103700385375"><ele>780.0</ele><time>2026-04-25T15:25:47.999Z</time></trkpt><trkpt lat="46.27367074603752" lon="12.36930460482315"><ele>779.6666666666667</ele><time>2026-04-25T15:25:48.999Z</time></trkpt><trkpt lat="46.27370860658595" lon="12.369525385849638"><ele>779.3333333333334</ele><time>2026-04-25T15:25:49.999Z</time></trkpt><trkpt lat="46.27374872212085" lon="12.369739716725547"><ele>779.0</ele><time>2026-04-25T15:25:50.999Z</time></trkpt><trkpt lat="46.27379197553952" lon="12.369936418304379"><ele>779.0</ele><time>2026-04-25T15:25:51.999Z</time></trkpt><trkpt lat="46.2738507379128" lon="12.370122625664688"><ele>779.0</ele><time>2026-04-25T15:25:52.999Z</time></trkpt><trkpt lat="46.273939134812075" lon="12.370302612983327"><ele>779.0</ele><time>2026-04-25T15:25:53.999Z</time></trkpt><trkpt lat="46.27404342245377" lon="12.370473086604242"><ele>783.6666666666667</ele><time>2026-04-25T15:25:54.999Z</time></trkpt><trkpt lat="46.27414720228121" lon="12.370638061572048"><ele>788.3333333333333</ele><time>2026-04-25T15:25:55.999Z</time></trkpt><trkpt lat="46.27424841001372" lon="12.37080726146171"><ele>793.0</ele><time>2026-04-25T15:25:56.999Z</time></trkpt><trkpt lat="46.27435086288782" lon="12.37098003860405"><ele>793.0</ele><time>2026-04-25T15:25:57.999Z</time></trkpt><trkpt lat="46.27445176545665" lon="12.371144518948228"><ele>793.0</ele><time>2026-04-25T15:25:58.999Z</time></trkpt><trkpt lat="46.27454883183009" lon="12.37130222002525"><ele>793.0</ele><time>2026-04-25T15:25:59.999Z</time></trkpt><trkpt lat="46.2746379165631" lon="12.371446900858059"><ele>793.0</ele><time>2026-04-25T15:26:00.999Z</time></trkpt><trkpt lat="46.27472973115088" lon="12.371593130925264"><ele>795.25</ele><time>2026-04-25T15:26:01.999Z</time></trkpt><trkpt lat="46.27483017483774" lon="12.371725988545803"><ele>797.5</ele><time>2026-04-25T15:26:02.999Z</time></trkpt><trkpt lat="46.27493004170811" lon="12.371866225035085"><ele>799.75</ele><time>2026-04-25T15:26:03.999Z</time></trkpt><trkpt lat="46.27504695814238" lon="12.37197829304383"><ele>802.0</ele><time>2026-04-25T15:26:04.999Z</time></trkpt><trkpt lat="46.2751719778429" lon="12.372080101963252"><ele>802.0</ele><time>2026-04-25T15:26:05.999Z</time></trkpt><trkpt lat="46.27530555319537" lon="12.372168246567929"><ele>802.0</ele><time>2026-04-25T15:26:06.999Z</time></trkpt><trkpt lat="46.27545118363738" lon="12.372239804032787"><ele>802.0</ele><time>2026-04-25T15:26:07.999Z</time></trkpt><trkpt lat="46.27560927500692" lon="12.372300627428757"><ele>799.6666666666666</ele><time>2026-04-25T15:26:08.999Z</time></trkpt><trkpt lat="46.27577996903836" lon="12.372360389901607"><ele>797.3333333333333</ele><time>2026-04-25T15:26:09.999Z</time></trkpt><trkpt lat="46.27595387246892" lon="12.372420689870994"><ele>795.0</ele><time>2026-04-25T15:26:10.999Z</time></trkpt><trkpt lat="46.2761179971135" lon="12.372477599199486"><ele>795.0</ele><time>2026-04-25T15:26:11.999Z</time></trkpt><trkpt lat="46.276273637876706" lon="12.372531849387055"><ele>795.0</ele><time>2026-04-25T15:26:12.999Z</time></trkpt><trkpt lat="46.27641444723498" lon="12.372557091506934"><ele>795.0</ele><time>2026-04-25T15:26:13.999Z</time></trkpt><trkpt lat="46.27654345070775" lon="12.372606787829344"><ele>795.0</ele><time>2026-04-25T15:26:14.999Z</time></trkpt><trkpt lat="46.27666757288061" lon="12.372679213024089"><ele>794.25</ele><time>2026-04-25T15:26:15.999Z</time></trkpt><trkpt lat="46.27677437930569" lon="12.372801813131241"><ele>793.5</ele><time>2026-04-25T15:26:16.999Z</time></trkpt><trkpt lat="46.276850496666455" lon="12.372966359048503"><ele>792.75</ele><time>2026-04-25T15:26:17.999Z</time></trkpt><trkpt lat="46.276929938141016" lon="12.373137064798376"><ele>792.0</ele><time>2026-04-25T15:26:18.999Z</time></trkpt><trkpt lat="46.27698758745097" lon="12.37332833585457"><ele>792.0</ele><time>2026-04-25T15:26:19.999Z</time></trkpt><trkpt lat="46.27705928969098" lon="12.373511614034898"><ele>792.0</ele><time>2026-04-25T15:26:20.999Z</time></trkpt><trkpt lat="46.2771497583054" lon="12.373674447806936"><ele>792.0</ele><time>2026-04-25T15:26:21.999Z</time></trkpt><trkpt lat="46.277259859398605" lon="12.373810816519216"><ele>792.0</ele><time>2026-04-25T15:26:22.999Z</time></trkpt><trkpt lat="46.27738596324868" lon="12.373926241934575"><ele>791.5</ele><time>2026-04-25T15:26:23.999Z</time></trkpt><trkpt lat="46.27751323152342" lon="12.374011828193888"><ele>791.0</ele><time>2026-04-25T15:26:24.999Z</time></trkpt><trkpt lat="46.27764402403043" lon="12.37403740543442"><ele>790.5</ele><time>2026-04-25T15:26:25.999Z</time></trkpt><trkpt lat="46.27777909535335" lon="12.374001816700773"><ele>790.0</ele><time>2026-04-25T15:26:26.999Z</time></trkpt><trkpt lat="46.2779113708802" lon="12.373909632556098"><ele>793.25</ele><time>2026-04-25T15:26:27.999Z</time></trkpt><trkpt lat="46.2780481565522" lon="12.373805190303369"><ele>796.5</ele><time>2026-04-25T15:26:28.999Z</time></trkpt><trkpt lat="46.27815731694306" lon="12.373685685764643"><ele>799.75</ele><time>2026-04-25T15:26:29.999Z</time></trkpt><trkpt lat="46.27827203776053" lon="12.373618811441123"><ele>803.0</ele><time>2026-04-25T15:26:30.999Z</time></trkpt><trkpt lat="46.278385760899674" lon="12.373616165602634"><ele>803.0</ele><time>2026-04-25T15:26:31.999Z</time></trkpt><trkpt lat="46.27849932952527" lon="12.373664744217438"><ele>803.0</ele><time>2026-04-25T15:26:32.999Z</time></trkpt><trkpt lat="46.27858993736686" lon="12.37379028258724"><ele>803.0</ele><time>2026-04-25T15:26:33.999Z</time></trkpt><trkpt lat="46.278661929955454" lon="12.373978901124202"><ele>803.0</ele><time>2026-04-25T15:26:34.999Z</time></trkpt><trkpt lat="46.27871670864327" lon="12.374212930892222"><ele>800.0</ele><time>2026-04-25T15:26:35.999Z</time></trkpt><trkpt lat="46.27880980267084" lon="12.374409215488676"><ele>797.0</ele><time>2026-04-25T15:26:36.999Z</time></trkpt><trkpt lat="46.27889007214477" lon="12.374591360526974"><ele>794.0</ele><time>2026-04-25T15:26:37.999Z</time></trkpt><trkpt lat="46.27898925936095" lon="12.374750325303797"><ele>794.0</ele><time>2026-04-25T15:26:38.999Z</time></trkpt><trkpt lat="46.27910505512047" lon="12.374899528174751"><ele>794.0</ele><time>2026-04-25T15:26:39.999Z</time></trkpt><trkpt lat="46.279233761385015" lon="12.375027583192058"><ele>794.0</ele><time>2026-04-25T15:26:40.999Z</time></trkpt><trkpt lat="46.27938405307365" lon="12.375135813425143"><ele>794.0</ele><time>2026-04-25T15:26:41.999Z</time></trkpt><trkpt lat="46.27955522016515" lon="12.375227164789328"><ele>794.0</ele><time>2026-04-25T15:26:42.999Z</time></trkpt><trkpt lat="46.27972920441236" lon="12.375325495369866"><ele>794.0</ele><time>2026-04-25T15:26:43.999Z</time></trkpt><trkpt lat="46.27988330459665" lon="12.375418633615507"><ele>789.0</ele><time>2026-04-25T15:26:44.999Z</time></trkpt><trkpt lat="46.28003613129474" lon="12.37550616038821"><ele>784.0</ele><time>2026-04-25T15:26:45.999Z</time></trkpt><trkpt lat="46.28019171020494" lon="12.375586831951626"><ele>779.0</ele><time>2026-04-25T15:26:46.999Z</time></trkpt><trkpt lat="46.28035178326411" lon="12.375645208801943"><ele>779.0</ele><time>2026-04-25T15:26:47.999Z</time></trkpt><trkpt lat="46.28051357488689" lon="12.375672236292626"><ele>779.0</ele><time>2026-04-25T15:26:48.999Z</time></trkpt><trkpt lat="46.280652913928996" lon="12.375722816138236"><ele>779.0</ele><time>2026-04-25T15:26:49.999Z</time></trkpt><trkpt lat="46.280772733214846" lon="12.375724367207264"><ele>779.0</ele><time>2026-04-25T15:26:50.999Z</time></trkpt><trkpt lat="46.28086670575539" lon="12.375740788538216"><ele>779.75</ele><time>2026-04-25T15:26:51.999Z</time></trkpt><trkpt lat="46.280964334514344" lon="12.375747655205464"><ele>780.5</ele><time>2026-04-25T15:26:52.999Z</time></trkpt><trkpt lat="46.28106298920721" lon="12.375631838772637"><ele>781.25</ele><time>2026-04-25T15:26:53.999Z</time></trkpt><trkpt lat="46.28116493245196" lon="12.375511381971377"><ele>782.0</ele><time>2026-04-25T15:26:54.999Z</time></trkpt><trkpt lat="46.28125913790984" lon="12.375438053275749"><ele>782.0</ele><time>2026-04-25T15:26:55.999Z</time></trkpt><trkpt lat="46.28132619499393" lon="12.37534404826488"><ele>782.0</ele><time>2026-04-25T15:26:56.999Z</time></trkpt><trkpt lat="46.28140863765695" lon="12.375306379644941"><ele>782.0</ele><time>2026-04-25T15:26:57.999Z</time></trkpt><trkpt lat="46.281497028982585" lon="12.375328603495714"><ele>782.0</ele><time>2026-04-25T15:26:58.999Z</time></trkpt><trkpt lat="46.28157324656777" lon="12.3754454263519"><ele>782.0</ele><time>2026-04-25T15:26:59.999Z</time></trkpt><trkpt lat="46.28167988848886" lon="12.375565292120672"><ele>782.0</ele><time>2026-04-25T15:27:00.999Z</time></trkpt><trkpt lat="46.28177872142604" lon="12.375705930226903"><ele>782.0</ele><time>2026-04-25T15:27:01.999Z</time></trkpt><trkpt lat="46.28186342798188" lon="12.375823989229051"><ele>782.0</ele><time>2026-04-25T15:27:02.999Z</time></trkpt><trkpt lat="46.28192685070955" lon="12.375945522870532"><ele>782.0</ele><time>2026-04-25T15:27:03.999Z</time></trkpt><trkpt lat="46.28196843157577" lon="12.376092572076816"><ele>782.0</ele><time>2026-04-25T15:27:04.999Z</time></trkpt><trkpt lat="46.281974095205264" lon="12.376260982910406"><ele>782.0</ele><time>2026-04-25T15:27:05.999Z</time></trkpt><trkpt lat="46.28192859480582" lon="12.376435192161612"><ele>782.0</ele><time>2026-04-25T15:27:06.999Z</time></trkpt><trkpt lat="46.28185626889706" lon="12.376626197549506"><ele>782.0</ele><time>2026-04-25T15:27:07.999Z</time></trkpt><trkpt lat="46.28180668982206" lon="12.37682854875848"><ele>781.3333333333334</ele><time>2026-04-25T15:27:08.999Z</time></trkpt><trkpt lat="46.28176840800507" lon="12.377031367381244"><ele>780.6666666666667</ele><time>2026-04-25T15:27:09.999Z</time></trkpt><trkpt lat="46.28172980712602" lon="12.37726258933921"><ele>780.0</ele><time>2026-04-25T15:27:10.999Z</time></trkpt><trkpt lat="46.28169870070271" lon="12.377506417436383"><ele>780.0</ele><time>2026-04-25T15:27:11.999Z</time></trkpt><trkpt lat="46.28167324459951" lon="12.377745430194128"><ele>780.0</ele><time>2026-04-25T15:27:12.999Z</time></trkpt><trkpt lat="46.28164234316213" lon="12.377970329712618"><ele>780.0</ele><time>2026-04-25T15:27:13.999Z</time></trkpt><trkpt lat="46.281597764054986" lon="12.378176588707106"><ele>784.0</ele><time>2026-04-25T15:27:14.999Z</time></trkpt><trkpt lat="46.28153653967269" lon="12.378376636077345"><ele>788.0</ele><time>2026-04-25T15:27:15.999Z</time></trkpt><trkpt lat="46.28144674838269" lon="12.378577701733125"><ele>792.0</ele><time>2026-04-25T15:27:16.999Z</time></trkpt><trkpt lat="46.2813432832817" lon="12.378792034945027"><ele>781.3333333333334</ele><time>2026-04-25T15:27:18Z</time></trkpt><trkpt lat="46.28123949107156" lon="12.378994365045601"><ele>770.6666666666667</ele><time>2026-04-25T15:27:19Z</time></trkpt><trkpt lat="46.28114851256078" lon="12.379216478122725"><ele>760.0</ele><time>2026-04-25T15:27:20Z</time></trkpt><trkpt lat="46.281059726458466" lon="12.379442336780022"><ele>760.0</ele><time>2026-04-25T15:27:21Z</time></trkpt><trkpt lat="46.280976491760036" lon="12.379658275019683"><ele>760.0</ele><time>2026-04-25T15:27:22Z</time></trkpt><trkpt lat="46.28090314496911" lon="12.37985055172265"><ele>760.0</ele><time>2026-04-25T15:27:23Z</time></trkpt><trkpt lat="46.28083150761775" lon="12.380026122184304"><ele>755.0</ele><time>2026-04-25T15:27:24Z</time></trkpt><trkpt lat="46.280715736957966" lon="12.38022468368911"><ele>750.0</ele><time>2026-04-25T15:27:25Z</time></trkpt><trkpt lat="46.280572399868056" lon="12.380338995321974"><ele>745.0</ele><time>2026-04-25T15:27:26Z</time></trkpt><trkpt lat="46.280439179026445" lon="12.38046618837987"><ele>754.3333333333334</ele><time>2026-04-25T15:27:27Z</time></trkpt><trkpt lat="46.280304657254156" lon="12.380580751800158"><ele>763.6666666666667</ele><time>2026-04-25T15:27:28Z</time></trkpt><trkpt lat="46.28018278616836" lon="12.380692203624875"><ele>773.0</ele><time>2026-04-25T15:27:29Z</time></trkpt><trkpt lat="46.28005328665566" lon="12.380832587932082"><ele>773.0</ele><time>2026-04-25T15:27:30Z</time></trkpt><trkpt lat="46.27997270257455" lon="12.380937355479404"><ele>773.0</ele><time>2026-04-25T15:27:31Z</time></trkpt><trkpt lat="46.279874224172666" lon="12.38106785621638"><ele>773.0</ele><time>2026-04-25T15:27:32Z</time></trkpt><trkpt lat="46.27973281445607" lon="12.38116799893267"><ele>773.0</ele><time>2026-04-25T15:27:33Z</time></trkpt><trkpt lat="46.27961341789013" lon="12.381166979554232"><ele>773.75</ele><time>2026-04-25T15:27:34Z</time></trkpt><trkpt lat="46.279501977265056" lon="12.381093981226329"><ele>774.5</ele><time>2026-04-25T15:27:35Z</time></trkpt><trkpt lat="46.27940721569388" lon="12.380941191464052"><ele>775.25</ele><time>2026-04-25T15:27:36Z</time></trkpt><trkpt lat="46.27930529902965" lon="12.380768879873624"><ele>776.0</ele><time>2026-04-25T15:27:37Z</time></trkpt><trkpt lat="46.27918879056589" lon="12.380598534566593"><ele>770.0</ele><time>2026-04-25T15:27:38Z</time></trkpt><trkpt lat="46.27908929527236" lon="12.380440410666582"><ele>764.0</ele><time>2026-04-25T15:27:39Z</time></trkpt><trkpt lat="46.2789991007239" lon="12.380318618354577"><ele>758.0</ele><time>2026-04-25T15:27:40Z</time></trkpt><trkpt lat="46.278898743951544" lon="12.380239666444137"><ele>752.0</ele><time>2026-04-25T15:27:41Z</time></trkpt><trkpt lat="46.27878516218762" lon="12.380230709062873"><ele>749.0</ele><time>2026-04-25T15:27:42Z</time></trkpt><trkpt lat="46.278654339089904" lon="12.380298726037495"><ele>746.0</ele><time>2026-04-25T15:27:43Z</time></trkpt><trkpt lat="46.27852453722432" lon="12.380428973717642"><ele>743.0</ele><time>2026-04-25T15:27:44Z</time></trkpt><trkpt lat="46.27837431959945" lon="12.380542997884941"><ele>743.0</ele><time>2026-04-25T15:27:45Z</time></trkpt><trkpt lat="46.27820054052534" lon="12.380608403936305"><ele>743.0</ele><time>2026-04-25T15:27:46Z</time></trkpt><trkpt lat="46.27804877579388" lon="12.380661834391947"><ele>743.0</ele><time>2026-04-25T15:27:47Z</time></trkpt><trkpt lat="46.27791510788536" lon="12.380740855964211"><ele>743.0</ele><time>2026-04-25T15:27:48Z</time></trkpt><trkpt lat="46.27779564273018" lon="12.38082984094275"><ele>743.0</ele><time>2026-04-25T15:27:49Z</time></trkpt><trkpt lat="46.27768899793892" lon="12.380915854060492"><ele>743.0</ele><time>2026-04-25T15:27:49.999Z</time></trkpt><trkpt lat="46.27761281274692" lon="12.381100222076112"><ele>743.0</ele><time>2026-04-25T15:27:50.999Z</time></trkpt><trkpt lat="46.27753682760282" lon="12.381318227043463"><ele>749.0</ele><time>2026-04-25T15:27:51.999Z</time></trkpt><trkpt lat="46.27745680322418" lon="12.381557224981286"><ele>755.0</ele><time>2026-04-25T15:27:52.999Z</time></trkpt><trkpt lat="46.277378771828474" lon="12.381759725164892"><ele>761.0</ele><time>2026-04-25T15:27:53.999Z</time></trkpt><trkpt lat="46.27731654897802" lon="12.381947634926439"><ele>763.6666666666666</ele><time>2026-04-25T15:27:54.999Z</time></trkpt><trkpt lat="46.27726477796412" lon="12.382144983420375"><ele>766.3333333333333</ele><time>2026-04-25T15:27:55.999Z</time></trkpt><trkpt lat="46.277263027835325" lon="12.382381616983219"><ele>769.0</ele><time>2026-04-25T15:27:56.999Z</time></trkpt><trkpt lat="46.27727225687191" lon="12.382619300121164"><ele>769.0</ele><time>2026-04-25T15:27:57.999Z</time></trkpt><trkpt lat="46.27727052010736" lon="12.382833049861581"><ele>769.0</ele><time>2026-04-25T15:27:58.999Z</time></trkpt><trkpt lat="46.27724576196877" lon="12.383037745396143"><ele>769.0</ele><time>2026-04-25T15:27:59.999Z</time></trkpt><trkpt lat="46.27718399360804" lon="12.383226081043128"><ele>769.0</ele><time>2026-04-25T15:28:00.999Z</time></trkpt><trkpt lat="46.277107325511786" lon="12.383435286121186"><ele>763.75</ele><time>2026-04-25T15:28:01.999Z</time></trkpt><trkpt lat="46.27700901188474" lon="12.38362933289239"><ele>758.5</ele><time>2026-04-25T15:28:02.999Z</time></trkpt><trkpt lat="46.27692633546953" lon="12.383803967316878"><ele>753.25</ele><time>2026-04-25T15:28:03.999Z</time></trkpt><trkpt lat="46.276854739618926" lon="12.383961887528619"><ele>748.0</ele><time>2026-04-25T15:28:04.999Z</time></trkpt><trkpt lat="46.27679235528811" lon="12.384102307863245"><ele>748.0</ele><time>2026-04-25T15:28:05.999Z</time></trkpt><trkpt lat="46.276753393703494" lon="12.384237765222581"><ele>748.0</ele><time>2026-04-25T15:28:06.999Z</time></trkpt><trkpt lat="46.27672585405175" lon="12.38439182796933"><ele>748.0</ele><time>2026-04-25T15:28:07.999Z</time></trkpt><trkpt lat="46.27676398469641" lon="12.384610913120687"><ele>748.0</ele><time>2026-04-25T15:28:08.999Z</time></trkpt><trkpt lat="46.27682068443873" lon="12.384856604698468"><ele>746.6666666666667</ele><time>2026-04-25T15:28:09.999Z</time></trkpt><trkpt lat="46.2768980258236" lon="12.385112562082533"><ele>745.3333333333334</ele><time>2026-04-25T15:28:10.999Z</time></trkpt><trkpt lat="46.27694550524768" lon="12.385360539947596"><ele>744.0</ele><time>2026-04-25T15:28:11.999Z</time></trkpt><trkpt lat="46.27697240746148" lon="12.385590623946932"><ele>741.3333333333334</ele><time>2026-04-25T15:28:12.999Z</time></trkpt><trkpt lat="46.27701162559982" lon="12.38580495148045"><ele>738.6666666666667</ele><time>2026-04-25T15:28:13.999Z</time></trkpt><trkpt lat="46.27705870337781" lon="12.38600761716195"><ele>736.0</ele><time>2026-04-25T15:28:14.999Z</time></trkpt><trkpt lat="46.27714717068059" lon="12.386219137554288"><ele>730.6666666666667</ele><time>2026-04-25T15:28:15.999Z</time></trkpt><trkpt lat="46.277219025263314" lon="12.386438511390656"><ele>725.3333333333334</ele><time>2026-04-25T15:28:16.999Z</time></trkpt><trkpt lat="46.277300571585364" lon="12.38661739085571"><ele>720.0</ele><time>2026-04-25T15:28:17.999Z</time></trkpt><trkpt lat="46.27734834294852" lon="12.38680657066229"><ele>736.6666666666667</ele><time>2026-04-25T15:28:18.999Z</time></trkpt><trkpt lat="46.2773535838911" lon="12.387016062583124"><ele>753.3333333333334</ele><time>2026-04-25T15:28:19.999Z</time></trkpt><trkpt lat="46.27736659961716" lon="12.387247621343523"><ele>770.0</ele><time>2026-04-25T15:28:20.999Z</time></trkpt><trkpt lat="46.27735019383315" lon="12.387478723421042"><ele>770.0</ele><time>2026-04-25T15:28:21.999Z</time></trkpt><trkpt lat="46.27733929579405" lon="12.387689973533922"><ele>770.0</ele><time>2026-04-25T15:28:22.999Z</time></trkpt><trkpt lat="46.27735438873479" lon="12.387896806442182"><ele>770.0</ele><time>2026-04-25T15:28:23.999Z</time></trkpt><trkpt lat="46.27739314235472" lon="12.388097486976987"><ele>770.0</ele><time>2026-04-25T15:28:24.999Z</time></trkpt><trkpt lat="46.27742565699756" lon="12.388297992938694"><ele>769.5</ele><time>2026-04-25T15:28:25.999Z</time></trkpt><trkpt lat="46.277409436931194" lon="12.388498498832366"><ele>769.0</ele><time>2026-04-25T15:28:26.999Z</time></trkpt><trkpt lat="46.27742267148755" lon="12.38870017658507"><ele>768.5</ele><time>2026-04-25T15:28:27.999Z</time></trkpt><trkpt lat="46.277437662875556" lon="12.388907132036342"><ele>768.0</ele><time>2026-04-25T15:28:28.999Z</time></trkpt><trkpt lat="46.277474385419275" lon="12.389117917971454"><ele>766.25</ele><time>2026-04-25T15:28:29.999Z</time></trkpt><trkpt lat="46.27756008286412" lon="12.38931274912945"><ele>764.5</ele><time>2026-04-25T15:28:30.999Z</time></trkpt><trkpt lat="46.27764234931454" lon="12.389458831623703"><ele>762.75</ele><time>2026-04-25T15:28:31.999Z</time></trkpt><trkpt lat="46.27766459691596" lon="12.38962725778047"><ele>761.0</ele><time>2026-04-25T15:28:32.999Z</time></trkpt><trkpt lat="46.27763975128489" lon="12.389824490502713"><ele>756.25</ele><time>2026-04-25T15:28:33.999Z</time></trkpt><trkpt lat="46.27767460930881" lon="12.390004729338298"><ele>751.5</ele><time>2026-04-25T15:28:34.999Z</time></trkpt><trkpt lat="46.27775674944608" lon="12.390149903600813"><ele>746.75</ele><time>2026-04-25T15:28:35.999Z</time></trkpt><trkpt lat="46.27789041899595" lon="12.390218221606014"><ele>742.0</ele><time>2026-04-25T15:28:36.999Z</time></trkpt><trkpt lat="46.27804440174869" lon="12.390290145526643"><ele>747.3333333333334</ele><time>2026-04-25T15:28:37.999Z</time></trkpt><trkpt lat="46.27820273811081" lon="12.390426056414817"><ele>752.6666666666666</ele><time>2026-04-25T15:28:38.999Z</time></trkpt><trkpt lat="46.278373075561746" lon="12.390570559313923"><ele>758.0</ele><time>2026-04-25T15:28:39.999Z</time></trkpt><trkpt lat="46.27852031598805" lon="12.390760458194672"><ele>758.0</ele><time>2026-04-25T15:28:40.999Z</time></trkpt><trkpt lat="46.27866310666235" lon="12.391006637786576"><ele>758.0</ele><time>2026-04-25T15:28:41.999Z</time></trkpt><trkpt lat="46.278813592144594" lon="12.39126793771628"><ele>764.3333333333333</ele><time>2026-04-25T15:28:42.999Z</time></trkpt><trkpt lat="46.2789475249924" lon="12.391498789149654"><ele>770.6666666666666</ele><time>2026-04-25T15:28:43.999Z</time></trkpt><trkpt lat="46.27906913199122" lon="12.391708312856787"><ele>777.0</ele><time>2026-04-25T15:28:44.999Z</time></trkpt><trkpt lat="46.27918266325353" lon="12.39192065563248"><ele>777.0</ele><time>2026-04-25T15:28:45.999Z</time></trkpt><trkpt lat="46.279269735349956" lon="12.39216194504842"><ele>777.0</ele><time>2026-04-25T15:28:46.999Z</time></trkpt><trkpt lat="46.27934669477657" lon="12.39243484551269"><ele>777.0</ele><time>2026-04-25T15:28:47.999Z</time></trkpt><trkpt lat="46.27939908296083" lon="12.3926898193338"><ele>773.0</ele><time>2026-04-25T15:28:48.999Z</time></trkpt><trkpt lat="46.279468949783165" lon="12.392931194452581"><ele>769.0</ele><time>2026-04-25T15:28:49.999Z</time></trkpt><trkpt lat="46.27954917416205" lon="12.393167088966717"><ele>765.0</ele><time>2026-04-25T15:28:50.999Z</time></trkpt><trkpt lat="46.279683564430854" lon="12.393368887740989"><ele>767.6666666666667</ele><time>2026-04-25T15:28:51.999Z</time></trkpt><trkpt lat="46.27983053863003" lon="12.393568762391741"><ele>770.3333333333334</ele><time>2026-04-25T15:28:52.999Z</time></trkpt><trkpt lat="46.27996322611131" lon="12.393784975222903"><ele>773.0</ele><time>2026-04-25T15:28:53.999Z</time></trkpt><trkpt lat="46.280097597664906" lon="12.39397786341926"><ele>773.0</ele><time>2026-04-25T15:28:54.999Z</time></trkpt><trkpt lat="46.28022890600036" lon="12.394166333259179"><ele>773.0</ele><time>2026-04-25T15:28:55.999Z</time></trkpt><trkpt lat="46.280352473564285" lon="12.394343401721377"><ele>773.0</ele><time>2026-04-25T15:28:56.999Z</time></trkpt><trkpt lat="46.2804831052535" lon="12.394504752411219"><ele>774.0</ele><time>2026-04-25T15:28:57.999Z</time></trkpt><trkpt lat="46.28059477784673" lon="12.394692301718292"><ele>775.0</ele><time>2026-04-25T15:28:58.999Z</time></trkpt><trkpt lat="46.280698418225256" lon="12.394893087124403"><ele>776.0</ele><time>2026-04-25T15:28:59.999Z</time></trkpt><trkpt lat="46.28080067149092" lon="12.395109741860237"><ele>776.0</ele><time>2026-04-25T15:29:00.999Z</time></trkpt><trkpt lat="46.28090067789817" lon="12.395335117145617"><ele>776.0</ele><time>2026-04-25T15:29:01.999Z</time></trkpt><trkpt lat="46.28099435127343" lon="12.395562470636476"><ele>776.0</ele><time>2026-04-25T15:29:02.999Z</time></trkpt><trkpt lat="46.28108332940489" lon="12.395806111404175"><ele>775.3333333333334</ele><time>2026-04-25T15:29:03.999Z</time></trkpt><trkpt lat="46.281174148584185" lon="12.396062360021054"><ele>774.6666666666667</ele><time>2026-04-25T15:29:04.999Z</time></trkpt><trkpt lat="46.281267310814776" lon="12.396325543038206"><ele>774.0</ele><time>2026-04-25T15:29:05.999Z</time></trkpt><trkpt lat="46.28135881070649" lon="12.396586807486619"><ele>777.3333333333333</ele><time>2026-04-25T15:29:06.999Z</time></trkpt><trkpt lat="46.281447323019165" lon="12.396841257148589"><ele>780.6666666666666</ele><time>2026-04-25T15:29:07.999Z</time></trkpt><trkpt lat="46.28153187142311" lon="12.397094820467064"><ele>784.0</ele><time>2026-04-25T15:29:08.999Z</time></trkpt><trkpt lat="46.28162241548694" lon="12.397337731022446"><ele>785.3333333333333</ele><time>2026-04-25T15:29:09.999Z</time></trkpt><trkpt lat="46.28173682737329" lon="12.397560002178992"><ele>786.6666666666667</ele><time>2026-04-25T15:29:10.999Z</time></trkpt><trkpt lat="46.28188415649249" lon="12.397764523839236"><ele>788.0</ele><time>2026-04-25T15:29:11.999Z</time></trkpt><trkpt lat="46.28205362503126" lon="12.397990791713799"><ele>789.0</ele><time>2026-04-25T15:29:12.999Z</time></trkpt><trkpt lat="46.2822354271796" lon="12.39820447197983"><ele>790.0</ele><time>2026-04-25T15:29:13.999Z</time></trkpt><trkpt lat="46.2824017026252" lon="12.398411887034433"><ele>790.0</ele><time>2026-04-25T15:29:14.999Z</time></trkpt><trkpt lat="46.28255404558851" lon="12.398604261810428"><ele>790.0</ele><time>2026-04-25T15:29:15.999Z</time></trkpt><trkpt lat="46.28270878458329" lon="12.398772325134622"><ele>790.0</ele><time>2026-04-25T15:29:16.999Z</time></trkpt><trkpt lat="46.28284959096045" lon="12.398957309668761"><ele>792.6666666666666</ele><time>2026-04-25T15:29:17.999Z</time></trkpt><trkpt lat="46.282990872185415" lon="12.39913656556678"><ele>795.3333333333333</ele><time>2026-04-25T15:29:18.999Z</time></trkpt><trkpt lat="46.28313086096405" lon="12.399315259693372"><ele>798.0</ele><time>2026-04-25T15:29:19.999Z</time></trkpt><trkpt lat="46.28327202035378" lon="12.399498249678349"><ele>800.6666666666667</ele><time>2026-04-25T15:29:20.999Z</time></trkpt><trkpt lat="46.28341051185658" lon="12.399685958812757"><ele>803.3333333333334</ele><time>2026-04-25T15:29:21.999Z</time></trkpt><trkpt lat="46.28354509602627" lon="12.399889961641316"><ele>806.0</ele><time>2026-04-25T15:29:22.999Z</time></trkpt><trkpt lat="46.28367683460584" lon="12.400105796741029"><ele>806.0</ele><time>2026-04-25T15:29:24Z</time></trkpt><trkpt lat="46.28381174888131" lon="12.400302213211619"><ele>806.0</ele><time>2026-04-25T15:29:25Z</time></trkpt><trkpt lat="46.283931999366885" lon="12.400482568104916"><ele>806.0</ele><time>2026-04-25T15:29:26Z</time></trkpt><trkpt lat="46.284059821973564" lon="12.400622809567043"><ele>807.0</ele><time>2026-04-25T15:29:27Z</time></trkpt><trkpt lat="46.28418815475291" lon="12.40073869049577"><ele>808.0</ele><time>2026-04-25T15:29:28Z</time></trkpt><trkpt lat="46.28429343739218" lon="12.400880420874824"><ele>809.0</ele><time>2026-04-25T15:29:29Z</time></trkpt><trkpt lat="46.28437092049567" lon="12.401052004394748"><ele>810.0</ele><time>2026-04-25T15:29:30Z</time></trkpt><trkpt lat="46.284458843987736" lon="12.401242301126393"><ele>812.0</ele><time>2026-04-25T15:29:31Z</time></trkpt><trkpt lat="46.28451298219282" lon="12.401477799659913"><ele>814.0</ele><time>2026-04-25T15:29:32Z</time></trkpt><trkpt lat="46.28452562235914" lon="12.40175510464865"><ele>816.0</ele><time>2026-04-25T15:29:33Z</time></trkpt><trkpt lat="46.284549196563155" lon="12.402080613972116"><ele>820.0</ele><time>2026-04-25T15:29:34Z</time></trkpt><trkpt lat="46.28461021246342" lon="12.40240466517132"><ele>824.0</ele><time>2026-04-25T15:29:35Z</time></trkpt><trkpt lat="46.284676691503016" lon="12.402690454619385"><ele>828.0</ele><time>2026-04-25T15:29:36Z</time></trkpt><trkpt lat="46.28474458183344" lon="12.402967613096969"><ele>822.6666666666667</ele><time>2026-04-25T15:29:37Z</time></trkpt><trkpt lat="46.28481076484556" lon="12.403240294463767"><ele>817.3333333333334</ele><time>2026-04-25T15:29:38Z</time></trkpt><trkpt lat="46.28487348720023" lon="12.403509158536027"><ele>812.0</ele><time>2026-04-25T15:29:39Z</time></trkpt><trkpt lat="46.284932729801426" lon="12.403764605200701"><ele>811.3333333333334</ele><time>2026-04-25T15:29:40Z</time></trkpt><trkpt lat="46.28499720683746" lon="12.404017016912023"><ele>810.6666666666667</ele><time>2026-04-25T15:29:41Z</time></trkpt><trkpt lat="46.285075968393194" lon="12.404269719071051"><ele>810.0</ele><time>2026-04-25T15:29:42Z</time></trkpt><trkpt lat="46.28517507868661" lon="12.404521260322209"><ele>810.3333333333333</ele><time>2026-04-25T15:29:43Z</time></trkpt><trkpt lat="46.2852887000369" lon="12.404771020121146"><ele>810.6666666666666</ele><time>2026-04-25T15:29:44Z</time></trkpt><trkpt lat="46.28541179501248" lon="12.405018730078265"><ele>811.0</ele><time>2026-04-25T15:29:45Z</time></trkpt><trkpt lat="46.28553103321109" lon="12.405257841839406"><ele>812.3333333333333</ele><time>2026-04-25T15:29:46Z</time></trkpt><trkpt lat="46.2856497232533" lon="12.405485798819411"><ele>813.6666666666667</ele><time>2026-04-25T15:29:47Z</time></trkpt><trkpt lat="46.28578420925994" lon="12.405691631167807"><ele>815.0</ele><time>2026-04-25T15:29:48Z</time></trkpt><trkpt lat="46.28593593740273" lon="12.405882131407145"><ele>815.0</ele><time>2026-04-25T15:29:49Z</time></trkpt><trkpt lat="46.2860943305456" lon="12.40605563054743"><ele>815.0</ele><time>2026-04-25T15:29:50Z</time></trkpt><trkpt lat="46.286252009173495" lon="12.406213804137028"><ele>815.0</ele><time>2026-04-25T15:29:51Z</time></trkpt><trkpt lat="46.28640675584815" lon="12.406335058709374"><ele>815.0</ele><time>2026-04-25T15:29:52Z</time></trkpt><trkpt lat="46.28655270775034" lon="12.406427992952247"><ele>815.0</ele><time>2026-04-25T15:29:53Z</time></trkpt><trkpt lat="46.28667679592817" lon="12.40652800064328"><ele>815.0</ele><time>2026-04-25T15:29:54Z</time></trkpt><trkpt lat="46.28680556849798" lon="12.40658062214152"><ele>815.0</ele><time>2026-04-25T15:29:54.999Z</time></trkpt><trkpt lat="46.28690705165099" lon="12.406657908790974"><ele>815.0</ele><time>2026-04-25T15:29:55.999Z</time></trkpt><trkpt lat="46.286986020876675" lon="12.406751453876184"><ele>815.0</ele><time>2026-04-25T15:29:56.999Z</time></trkpt><trkpt lat="46.28703332917578" lon="12.406880983378818"><ele>815.0</ele><time>2026-04-25T15:29:57.999Z</time></trkpt><trkpt lat="46.28703230414263" lon="12.40701403098898"><ele>815.0</ele><time>2026-04-25T15:29:58.999Z</time></trkpt><trkpt lat="46.28697686841077" lon="12.407124212580111"><ele>815.0</ele><time>2026-04-25T15:29:59.999Z</time></trkpt><trkpt lat="46.28688139415333" lon="12.407171218508726"><ele>815.0</ele><time>2026-04-25T15:30:00.999Z</time></trkpt><trkpt lat="46.28676236823531" lon="12.407147130571651"><ele>815.0</ele><time>2026-04-25T15:30:01.999Z</time></trkpt><trkpt lat="46.286631243126365" lon="12.407060954157721"><ele>815.0</ele><time>2026-04-25T15:30:02.999Z</time></trkpt><trkpt lat="46.28646494854821" lon="12.407004549075642"><ele>815.0</ele><time>2026-04-25T15:30:03.999Z</time></trkpt><trkpt lat="46.2862894572445" lon="12.407016439335813"><ele>814.0</ele><time>2026-04-25T15:30:04.999Z</time></trkpt><trkpt lat="46.286141449062555" lon="12.407075308979886"><ele>813.0</ele><time>2026-04-25T15:30:05.999Z</time></trkpt><trkpt lat="46.28602470912606" lon="12.407189020932185"><ele>812.0</ele><time>2026-04-25T15:30:06.999Z</time></trkpt><trkpt lat="46.2859070941823" lon="12.407376348093742"><ele>815.3333333333334</ele><time>2026-04-25T15:30:07.999Z</time></trkpt><trkpt lat="46.28577640228699" lon="12.407623609642624"><ele>818.6666666666667</ele><time>2026-04-25T15:30:08.999Z</time></trkpt><trkpt lat="46.285659148423285" lon="12.40781118942367"><ele>822.0</ele><time>2026-04-25T15:30:09.999Z</time></trkpt><trkpt lat="46.28555826766733" lon="12.407994319132184"><ele>830.6666666666667</ele><time>2026-04-25T15:30:10.999Z</time></trkpt><trkpt lat="46.285481174510885" lon="12.408208818705505"><ele>839.3333333333334</ele><time>2026-04-25T15:30:11.999Z</time></trkpt><trkpt lat="46.285441184619124" lon="12.40845455691798"><ele>848.0</ele><time>2026-04-25T15:30:12.999Z</time></trkpt><trkpt lat="46.28542151787592" lon="12.408720264845524"><ele>852.3333333333334</ele><time>2026-04-25T15:30:13.999Z</time></trkpt><trkpt lat="46.28541449242578" lon="12.409004646671972"><ele>856.6666666666667</ele><time>2026-04-25T15:30:14.999Z</time></trkpt><trkpt lat="46.285410357126615" lon="12.40928784620659"><ele>861.0</ele><time>2026-04-25T15:30:15.999Z</time></trkpt><trkpt lat="46.28541370395935" lon="12.409561339942844"><ele>856.0</ele><time>2026-04-25T15:30:16.999Z</time></trkpt><trkpt lat="46.285449689158696" lon="12.40984969616714"><ele>851.0</ele><time>2026-04-25T15:30:17.999Z</time></trkpt><trkpt lat="46.285520199143924" lon="12.410187223399452"><ele>846.0</ele><time>2026-04-25T15:30:18.999Z</time></trkpt><trkpt lat="46.28560497341393" lon="12.410553341955634"><ele>834.0</ele><time>2026-04-25T15:30:19.999Z</time></trkpt><trkpt lat="46.28569583289009" lon="12.410944039702754"><ele>822.0</ele><time>2026-04-25T15:30:20.999Z</time></trkpt><trkpt lat="46.28577926265852" lon="12.411305594119666"><ele>820.0</ele><time>2026-04-25T15:30:21.999Z</time></trkpt><trkpt lat="46.28586201872502" lon="12.411645429590397"><ele>818.0</ele><time>2026-04-25T15:30:22.999Z</time></trkpt><trkpt lat="46.28595225022124" lon="12.41195444347724"><ele>814.3333333333334</ele><time>2026-04-25T15:30:23.999Z</time></trkpt><trkpt lat="46.28605126484028" lon="12.41223457090281"><ele>810.6666666666667</ele><time>2026-04-25T15:30:24.999Z</time></trkpt><trkpt lat="46.28613478559826" lon="12.41250603642058"><ele>807.0</ele><time>2026-04-25T15:30:25.999Z</time></trkpt><trkpt lat="46.28618670976824" lon="12.412776958134659"><ele>804.0</ele><time>2026-04-25T15:30:26.999Z</time></trkpt><trkpt lat="46.286209739049355" lon="12.413061264487906"><ele>801.0</ele><time>2026-04-25T15:30:27.999Z</time></trkpt><trkpt lat="46.28619881840945" lon="12.413362492515793"><ele>798.0</ele><time>2026-04-25T15:30:28.999Z</time></trkpt><trkpt lat="46.28618755027669" lon="12.413673169759877"><ele>799.0</ele><time>2026-04-25T15:30:29.999Z</time></trkpt><trkpt lat="46.28621140759988" lon="12.413992404142968"><ele>800.0</ele><time>2026-04-25T15:30:30.999Z</time></trkpt><trkpt lat="46.28626829532299" lon="12.41433345680033"><ele>798.5</ele><time>2026-04-25T15:30:31.999Z</time></trkpt><trkpt lat="46.28633775214814" lon="12.414681949707749"><ele>797.0</ele><time>2026-04-25T15:30:32.999Z</time></trkpt><trkpt lat="46.28639096286267" lon="12.415005170284415"><ele>799.0</ele><time>2026-04-25T15:30:33.999Z</time></trkpt><trkpt lat="46.28642912129001" lon="12.415308537802215"><ele>801.0</ele><time>2026-04-25T15:30:34.999Z</time></trkpt><trkpt lat="46.2864572005542" lon="12.415595547030556"><ele>803.0</ele><time>2026-04-25T15:30:35.999Z</time></trkpt><trkpt lat="46.28647369286148" lon="12.415860739502584"><ele>803.0</ele><time>2026-04-25T15:30:36.999Z</time></trkpt><trkpt lat="46.2864755561647" lon="12.416109437732619"><ele>803.0</ele><time>2026-04-25T15:30:37.999Z</time></trkpt><trkpt lat="46.28646429449311" lon="12.416342275657392"><ele>803.0</ele><time>2026-04-25T15:30:38.999Z</time></trkpt><trkpt lat="46.2864488088115" lon="12.416561178878405"><ele>803.25</ele><time>2026-04-25T15:30:39.999Z</time></trkpt><trkpt lat="46.286456583014434" lon="12.416760929501285"><ele>803.5</ele><time>2026-04-25T15:30:40.999Z</time></trkpt><trkpt lat="46.286485037049026" lon="12.416951400716982"><ele>803.75</ele><time>2026-04-25T15:30:41.999Z</time></trkpt><trkpt lat="46.28650297366983" lon="12.417140244654048"><ele>804.0</ele><time>2026-04-25T15:30:42.999Z</time></trkpt><trkpt lat="46.28648486260398" lon="12.417342895482692"><ele>803.25</ele><time>2026-04-25T15:30:43.999Z</time></trkpt><trkpt lat="46.28644194672059" lon="12.417532720249307"><ele>802.5</ele><time>2026-04-25T15:30:44.999Z</time></trkpt><trkpt lat="46.28639945069699" lon="12.417699889975317"><ele>801.75</ele><time>2026-04-25T15:30:45.999Z</time></trkpt><trkpt lat="46.286363643135104" lon="12.41787192187553"><ele>801.0</ele><time>2026-04-25T15:30:46.999Z</time></trkpt><trkpt lat="46.28632051407921" lon="12.41805829798641"><ele>799.5</ele><time>2026-04-25T15:30:47.999Z</time></trkpt><trkpt lat="46.28627482634086" lon="12.418244979953212"><ele>798.0</ele><time>2026-04-25T15:30:48.999Z</time></trkpt><trkpt lat="46.28622335438523" lon="12.41842878003878"><ele>796.5</ele><time>2026-04-25T15:30:49.999Z</time></trkpt><trkpt lat="46.286181124027976" lon="12.41859960030758"><ele>795.0</ele><time>2026-04-25T15:30:50.999Z</time></trkpt><trkpt lat="46.286150160030786" lon="12.418767970927213"><ele>793.25</ele><time>2026-04-25T15:30:51.999Z</time></trkpt><trkpt lat="46.286145127819815" lon="12.418936238944664"><ele>791.5</ele><time>2026-04-25T15:30:52.999Z</time></trkpt><trkpt lat="46.286175402470256" lon="12.419101739256565"><ele>789.75</ele><time>2026-04-25T15:30:53.999Z</time></trkpt><trkpt lat="46.28624179917837" lon="12.419244245463654"><ele>788.0</ele><time>2026-04-25T15:30:54.999Z</time></trkpt><trkpt lat="46.28632640978825" lon="12.41935522158308"><ele>788.0</ele><time>2026-04-25T15:30:55.999Z</time></trkpt><trkpt lat="46.28641526830277" lon="12.419458468461867"><ele>788.0</ele><time>2026-04-25T15:30:56.999Z</time></trkpt><trkpt lat="46.286490796773506" lon="12.41956576061634"><ele>788.0</ele><time>2026-04-25T15:30:57.999Z</time></trkpt><trkpt lat="46.28654612180628" lon="12.419710191383684"><ele>788.0</ele><time>2026-04-25T15:30:58.999Z</time></trkpt><trkpt lat="46.28657742202439" lon="12.419884879576479"><ele>787.75</ele><time>2026-04-25T15:30:59.999Z</time></trkpt><trkpt lat="46.2865971954924" lon="12.420077719215188"><ele>787.5</ele><time>2026-04-25T15:31:00.999Z</time></trkpt><trkpt lat="46.28663412659019" lon="12.420270479153515"><ele>787.25</ele><time>2026-04-25T15:31:01.999Z</time></trkpt><trkpt lat="46.286702664529706" lon="12.42045216883655"><ele>787.0</ele><time>2026-04-25T15:31:02.999Z</time></trkpt><trkpt lat="46.28678280421729" lon="12.420615839677968"><ele>784.0</ele><time>2026-04-25T15:31:03.999Z</time></trkpt><trkpt lat="46.28685314683198" lon="12.420787384077059"><ele>781.0</ele><time>2026-04-25T15:31:04.999Z</time></trkpt><trkpt lat="46.28689820172016" lon="12.420978504439711"><ele>778.0</ele><time>2026-04-25T15:31:05.999Z</time></trkpt><trkpt lat="46.28691750745637" lon="12.421176860777827"><ele>775.0</ele><time>2026-04-25T15:31:06.999Z</time></trkpt><trkpt lat="46.286916595530556" lon="12.421381139171924"><ele>773.0</ele><time>2026-04-25T15:31:07.999Z</time></trkpt><trkpt lat="46.28691696258942" lon="12.421586980569481"><ele>771.0</ele><time>2026-04-25T15:31:08.999Z</time></trkpt><trkpt lat="46.286916128348736" lon="12.421794577087006"><ele>769.0</ele><time>2026-04-25T15:31:09.999Z</time></trkpt><trkpt lat="46.286915325445825" lon="12.421985365639799"><ele>767.0</ele><time>2026-04-25T15:31:10.999Z</time></trkpt><trkpt lat="46.286916893601564" lon="12.422180540647448"><ele>764.5</ele><time>2026-04-25T15:31:11.999Z</time></trkpt><trkpt lat="46.286931806782384" lon="12.422375119833925"><ele>762.0</ele><time>2026-04-25T15:31:12.999Z</time></trkpt><trkpt lat="46.286966485446065" lon="12.422570178470467"><ele>759.5</ele><time>2026-04-25T15:31:13.999Z</time></trkpt><trkpt lat="46.28699449293396" lon="12.422778168106902"><ele>757.0</ele><time>2026-04-25T15:31:14.999Z</time></trkpt><trkpt lat="46.28703959785968" lon="12.422980026927089"><ele>755.0</ele><time>2026-04-25T15:31:15.999Z</time></trkpt><trkpt lat="46.287093294715184" lon="12.423165341096649"><ele>753.0</ele><time>2026-04-25T15:31:16.999Z</time></trkpt><trkpt lat="46.28713268165528" lon="12.423341840395944"><ele>751.0</ele><time>2026-04-25T15:31:17.999Z</time></trkpt><trkpt lat="46.28717475234926" lon="12.423510570385602"><ele>749.0</ele><time>2026-04-25T15:31:18.999Z</time></trkpt><trkpt lat="46.28722589660244" lon="12.423670416201105"><ele>748.75</ele><time>2026-04-25T15:31:19.999Z</time></trkpt><trkpt lat="46.28729619565117" lon="12.423810050186026"><ele>748.5</ele><time>2026-04-25T15:31:20.999Z</time></trkpt><trkpt lat="46.287370384736576" lon="12.423941257892627"><ele>748.25</ele><time>2026-04-25T15:31:21.999Z</time></trkpt><trkpt lat="46.28743970595597" lon="12.424063858845143"><ele>748.0</ele><time>2026-04-25T15:31:22.999Z</time></trkpt><trkpt lat="46.287501996070155" lon="12.42418789699547"><ele>748.0</ele><time>2026-04-25T15:31:23.999Z</time></trkpt><trkpt lat="46.28753845467693" lon="12.424325132676593"><ele>748.0</ele><time>2026-04-25T15:31:24.999Z</time></trkpt><trkpt lat="46.28757610705935" lon="12.424450893797939"><ele>748.0</ele><time>2026-04-25T15:31:25.999Z</time></trkpt><trkpt lat="46.28762131723779" lon="12.424563074104688"><ele>748.0</ele><time>2026-04-25T15:31:26.999Z</time></trkpt><trkpt lat="46.28760101019028" lon="12.424662794538898"><ele>748.0</ele><time>2026-04-25T15:31:27.999Z</time></trkpt><trkpt lat="46.287582263126744" lon="12.424751270286507"><ele>748.0</ele><time>2026-04-25T15:31:29Z</time></trkpt><trkpt lat="46.28750408960703" lon="12.42475530074194"><ele>748.0</ele><time>2026-04-25T15:31:30Z</time></trkpt><trkpt lat="46.28741188718744" lon="12.424616966704672"><ele>748.0</ele><time>2026-04-25T15:31:32Z</time></trkpt><trkpt lat="46.287403244639314" lon="12.42446900631817"><ele>748.0</ele><time>2026-04-25T15:31:33Z</time></trkpt><trkpt lat="46.28738112584229" lon="12.424343508628453"><ele>748.0</ele><time>2026-04-25T15:31:34Z</time></trkpt><trkpt lat="46.287355676114394" lon="12.424234343247257"><ele>748.0</ele><time>2026-04-25T15:31:35Z</time></trkpt><trkpt lat="46.28731932689211" lon="12.424142816259211"><ele>748.5</ele><time>2026-04-25T15:31:36Z</time></trkpt><trkpt lat="46.287257955201866" lon="12.424063917880652"><ele>749.0</ele><time>2026-04-25T15:31:37Z</time></trkpt><trkpt lat="46.287173445851884" lon="12.42402911995282"><ele>749.5</ele><time>2026-04-25T15:31:38Z</time></trkpt><trkpt lat="46.287090300315164" lon="12.424050586478266"><ele>750.0</ele><time>2026-04-25T15:31:39Z</time></trkpt><trkpt lat="46.28702088975164" lon="12.42412605044194"><ele>750.5</ele><time>2026-04-25T15:31:40Z</time></trkpt><trkpt lat="46.28697426386733" lon="12.424248650453702"><ele>751.0</ele><time>2026-04-25T15:31:41Z</time></trkpt><trkpt lat="46.28696294271455" lon="12.424388220340134"><ele>751.0</ele><time>2026-04-25T15:31:42Z</time></trkpt><trkpt lat="46.28698440465363" lon="12.424537275906708"><ele>751.0</ele><time>2026-04-25T15:31:43Z</time></trkpt><trkpt lat="46.28698159112809" lon="12.424692796839677"><ele>751.0</ele><time>2026-04-25T15:31:44Z</time></trkpt><trkpt lat="46.287006823200265" lon="12.424846049790787"><ele>751.0</ele><time>2026-04-25T15:31:45Z</time></trkpt><trkpt lat="46.28701200902045" lon="12.424999873132718"><ele>751.0</ele><time>2026-04-25T15:31:46Z</time></trkpt><trkpt lat="46.286998595472944" lon="12.425160949117235"><ele>750.1999999999999</ele><time>2026-04-25T15:31:47Z</time></trkpt><trkpt lat="46.286984118146165" lon="12.425320626258449"><ele>749.4</ele><time>2026-04-25T15:31:48Z</time></trkpt><trkpt lat="46.28696380876914" lon="12.425477594238103"><ele>748.6</ele><time>2026-04-25T15:31:49Z</time></trkpt><trkpt lat="46.2869370382483" lon="12.425630193206278"><ele>747.8</ele><time>2026-04-25T15:31:49.999Z</time></trkpt><trkpt lat="46.28690537755228" lon="12.425778508374208"><ele>747.0</ele><time>2026-04-25T15:31:50.999Z</time></trkpt><trkpt lat="46.28687501041224" lon="12.42592439926546"><ele>745.8</ele><time>2026-04-25T15:31:51.999Z</time></trkpt><trkpt lat="46.286863164477666" lon="12.426070887858272"><ele>744.6</ele><time>2026-04-25T15:31:52.999Z</time></trkpt><trkpt lat="46.28687264362818" lon="12.426218535746932"><ele>743.4</ele><time>2026-04-25T15:31:53.999Z</time></trkpt><trkpt lat="46.286876363858845" lon="12.426369048859586"><ele>742.1999999999999</ele><time>2026-04-25T15:31:54.999Z</time></trkpt><trkpt lat="46.2869201028872" lon="12.426513397088796"><ele>741.0</ele><time>2026-04-25T15:31:55.999Z</time></trkpt><trkpt lat="46.286987595955786" lon="12.426645672686481"><ele>741.0</ele><time>2026-04-25T15:31:56.999Z</time></trkpt><trkpt lat="46.287048210357305" lon="12.42678518773653"><ele>741.0</ele><time>2026-04-25T15:31:57.999Z</time></trkpt><trkpt lat="46.28710440084159" lon="12.42693594314058"><ele>741.0</ele><time>2026-04-25T15:31:58.999Z</time></trkpt><trkpt lat="46.287150654668096" lon="12.427095403076754"><ele>741.0</ele><time>2026-04-25T15:31:59.999Z</time></trkpt><trkpt lat="46.28716503681952" lon="12.427269671240978"><ele>741.25</ele><time>2026-04-25T15:32:00.999Z</time></trkpt><trkpt lat="46.28719030685508" lon="12.427439386807535"><ele>741.5</ele><time>2026-04-25T15:32:01.999Z</time></trkpt><trkpt lat="46.28720486802856" lon="12.427613890915131"><ele>741.75</ele><time>2026-04-25T15:32:02.999Z</time></trkpt><trkpt lat="46.287204274863676" lon="12.427795980705946"><ele>742.0</ele><time>2026-04-25T15:32:03.999Z</time></trkpt><trkpt lat="46.287189453839495" lon="12.427991850920954"><ele>742.0</ele><time>2026-04-25T15:32:04.999Z</time></trkpt><trkpt lat="46.287170124212246" lon="12.428176078999133"><ele>742.0</ele><time>2026-04-25T15:32:05.999Z</time></trkpt><trkpt lat="46.287142362086215" lon="12.428334380854812"><ele>742.0</ele><time>2026-04-25T15:32:06.999Z</time></trkpt><trkpt lat="46.28710456270248" lon="12.428475347600571"><ele>742.0</ele><time>2026-04-25T15:32:07.999Z</time></trkpt><trkpt lat="46.28706467284171" lon="12.42860696046733"><ele>742.0</ele><time>2026-04-25T15:32:08.999Z</time></trkpt><trkpt lat="46.28702847144844" lon="12.428738844959096"><ele>740.0</ele><time>2026-04-25T15:32:09.999Z</time></trkpt><trkpt lat="46.2869809587104" lon="12.428843780472738"><ele>738.0</ele><time>2026-04-25T15:32:10.999Z</time></trkpt><trkpt lat="46.286955374639" lon="12.42893683101001"><ele>736.0</ele><time>2026-04-25T15:32:11.999Z</time></trkpt><trkpt lat="46.28696555766233" lon="12.429029029119237"><ele>734.0</ele><time>2026-04-25T15:32:12.999Z</time></trkpt><trkpt lat="46.28701578718737" lon="12.429110066970026"><ele>732.0</ele><time>2026-04-25T15:32:13.999Z</time></trkpt><trkpt lat="46.28708977602117" lon="12.429126205195606"><ele>730.0</ele><time>2026-04-25T15:32:14.999Z</time></trkpt><trkpt lat="46.28716036986281" lon="12.429066073890432"><ele>730.0</ele><time>2026-04-25T15:32:15.999Z</time></trkpt><trkpt lat="46.28720531101928" lon="12.428945666390838"><ele>730.0</ele><time>2026-04-25T15:32:16.999Z</time></trkpt><trkpt lat="46.28722834063863" lon="12.428788493095745"><ele>730.0</ele><time>2026-04-25T15:32:17.999Z</time></trkpt><trkpt lat="46.28726338995009" lon="12.42862426024472"><ele>730.0</ele><time>2026-04-25T15:32:18.999Z</time></trkpt><trkpt lat="46.287304148291376" lon="12.428467092262048"><ele>730.0</ele><time>2026-04-25T15:32:19.999Z</time></trkpt><trkpt lat="46.287343164586346" lon="12.428329852646861"><ele>725.3333333333334</ele><time>2026-04-25T15:32:20.999Z</time></trkpt><trkpt lat="46.28738984203462" lon="12.428204319044402"><ele>720.6666666666667</ele><time>2026-04-25T15:32:21.999Z</time></trkpt><trkpt lat="46.28743785266634" lon="12.42810488350522"><ele>716.0</ele><time>2026-04-25T15:32:22.999Z</time></trkpt><trkpt lat="46.287494812196684" lon="12.428044824759167"><ele>711.3333333333334</ele><time>2026-04-25T15:32:23.999Z</time></trkpt><trkpt lat="46.28756077889971" lon="12.428023079837528"><ele>706.6666666666666</ele><time>2026-04-25T15:32:24.999Z</time></trkpt><trkpt lat="46.28763854723106" lon="12.428076605278312"><ele>702.0</ele><time>2026-04-25T15:32:25.999Z</time></trkpt><trkpt lat="46.28768649324058" lon="12.428225225356458"><ele>702.0</ele><time>2026-04-25T15:32:26.999Z</time></trkpt><trkpt lat="46.2877394133659" lon="12.428391531588339"><ele>702.0</ele><time>2026-04-25T15:32:27.999Z</time></trkpt><trkpt lat="46.28778988837973" lon="12.428567590269312"><ele>702.0</ele><time>2026-04-25T15:32:28.999Z</time></trkpt><trkpt lat="46.28783711661245" lon="12.428750038881255"><ele>702.0</ele><time>2026-04-25T15:32:29.999Z</time></trkpt><trkpt lat="46.28787697190369" lon="12.428937491210593"><ele>698.75</ele><time>2026-04-25T15:32:30.999Z</time></trkpt><trkpt lat="46.28790744117537" lon="12.429123109647886"><ele>695.5</ele><time>2026-04-25T15:32:31.999Z</time></trkpt><trkpt lat="46.287918286480526" lon="12.42932158247207"><ele>692.25</ele><time>2026-04-25T15:32:32.999Z</time></trkpt><trkpt lat="46.28792325751048" lon="12.429530918133944"><ele>689.0</ele><time>2026-04-25T15:32:33.999Z</time></trkpt><trkpt lat="46.28790090389445" lon="12.42974702262282"><ele>685.0</ele><time>2026-04-25T15:32:34.999Z</time></trkpt><trkpt lat="46.28786817819853" lon="12.42995205050512"><ele>681.0</ele><time>2026-04-25T15:32:35.999Z</time></trkpt><trkpt lat="46.2878142621823" lon="12.43014007863642"><ele>677.0</ele><time>2026-04-25T15:32:36.999Z</time></trkpt><trkpt lat="46.287738530893016" lon="12.430301564173037"><ele>673.0</ele><time>2026-04-25T15:32:37.999Z</time></trkpt><trkpt lat="46.28764844535531" lon="12.430445597881393"><ele>671.25</ele><time>2026-04-25T15:32:38.999Z</time></trkpt><trkpt lat="46.28754679369895" lon="12.430571101633518"><ele>669.5</ele><time>2026-04-25T15:32:39.999Z</time></trkpt><trkpt lat="46.287447914047476" lon="12.430700721699159"><ele>667.75</ele><time>2026-04-25T15:32:40.999Z</time></trkpt><trkpt lat="46.28735418858316" lon="12.430847045763429"><ele>666.0</ele><time>2026-04-25T15:32:41.999Z</time></trkpt><trkpt lat="46.2872751948068" lon="12.431020327772119"><ele>666.5</ele><time>2026-04-25T15:32:42.999Z</time></trkpt><trkpt lat="46.287218670573694" lon="12.431213204975235"><ele>667.0</ele><time>2026-04-25T15:32:43.999Z</time></trkpt><trkpt lat="46.28717036120798" lon="12.43141417152091"><ele>667.5</ele><time>2026-04-25T15:32:44.999Z</time></trkpt><trkpt lat="46.28712815974771" lon="12.431625919103984"><ele>668.0</ele><time>2026-04-25T15:32:46Z</time></trkpt><trkpt lat="46.28709011025593" lon="12.4318448033087"><ele>664.75</ele><time>2026-04-25T15:32:47Z</time></trkpt><trkpt lat="46.28706258875179" lon="12.432058923793651"><ele>661.5</ele><time>2026-04-25T15:32:48Z</time></trkpt><trkpt lat="46.28704354141218" lon="12.432268697717431"><ele>658.25</ele><time>2026-04-25T15:32:49Z</time></trkpt><trkpt lat="46.28702834924723" lon="12.432468723708348"><ele>655.0</ele><time>2026-04-25T15:32:50Z</time></trkpt><trkpt lat="46.28699527706122" lon="12.432646957029593"><ele>653.25</ele><time>2026-04-25T15:32:51Z</time></trkpt><trkpt lat="46.286978559680215" lon="12.43282116059864"><ele>651.5</ele><time>2026-04-25T15:32:52Z</time></trkpt><trkpt lat="46.286963279954165" lon="12.432987141008617"><ele>649.75</ele><time>2026-04-25T15:32:53Z</time></trkpt><trkpt lat="46.28694798269168" lon="12.433161479550973"><ele>648.0</ele><time>2026-04-25T15:32:54Z</time></trkpt><trkpt lat="46.28693260104698" lon="12.433336779554555"><ele>647.75</ele><time>2026-04-25T15:32:55Z</time></trkpt><trkpt lat="46.28693310307152" lon="12.433517420303616"><ele>647.5</ele><time>2026-04-25T15:32:56Z</time></trkpt><trkpt lat="46.28691575361768" lon="12.433696517400225"><ele>647.25</ele><time>2026-04-25T15:32:57Z</time></trkpt><trkpt lat="46.286901315141066" lon="12.433861272325021"><ele>647.0</ele><time>2026-04-25T15:32:58Z</time></trkpt><trkpt lat="46.286885001268026" lon="12.43402471919538"><ele>647.0</ele><time>2026-04-25T15:32:59Z</time></trkpt><trkpt lat="46.28686968675817" lon="12.43418490535599"><ele>647.0</ele><time>2026-04-25T15:33:00Z</time></trkpt><trkpt lat="46.286854800489174" lon="12.434342177368682"><ele>647.0</ele><time>2026-04-25T15:33:01Z</time></trkpt><trkpt lat="46.286841605012306" lon="12.434498937167348"><ele>647.0</ele><time>2026-04-25T15:33:02Z</time></trkpt><trkpt lat="46.2868291294703" lon="12.43465362543779"><ele>647.0</ele><time>2026-04-25T15:33:03Z</time></trkpt><trkpt lat="46.28681233684106" lon="12.434808369247335"><ele>646.8</ele><time>2026-04-25T15:33:04Z</time></trkpt><trkpt lat="46.286796947510155" lon="12.434962856248108"><ele>646.6</ele><time>2026-04-25T15:33:05Z</time></trkpt><trkpt lat="46.28678336907868" lon="12.435114537089284"><ele>646.4</ele><time>2026-04-25T15:33:06Z</time></trkpt><trkpt lat="46.28676779786753" lon="12.435263159500488"><ele>646.1999999999999</ele><time>2026-04-25T15:33:07Z</time></trkpt><trkpt lat="46.28675369528731" lon="12.435409974753359"><ele>646.0</ele><time>2026-04-25T15:33:08Z</time></trkpt><trkpt lat="46.28673981504793" lon="12.435557539935758"><ele>646.0</ele><time>2026-04-25T15:33:09Z</time></trkpt><trkpt lat="46.286725928229345" lon="12.435706410299789"><ele>646.0</ele><time>2026-04-25T15:33:10Z</time></trkpt><trkpt lat="46.28671426009741" lon="12.43585760883449"><ele>646.0</ele><time>2026-04-25T15:33:11Z</time></trkpt><trkpt lat="46.28670665247296" lon="12.436009061459124"><ele>646.0</ele><time>2026-04-25T15:33:12Z</time></trkpt><trkpt lat="46.28670189218161" lon="12.436162149102893"><ele>646.0</ele><time>2026-04-25T15:33:13Z</time></trkpt><trkpt lat="46.28669824054559" lon="12.436315126740311"><ele>646.0</ele><time>2026-04-25T15:33:14Z</time></trkpt><trkpt lat="46.28669721464371" lon="12.436468254793143"><ele>646.0</ele><time>2026-04-25T15:33:15Z</time></trkpt><trkpt lat="46.28669847019215" lon="12.436623220700255"><ele>646.0</ele><time>2026-04-25T15:33:16Z</time></trkpt><trkpt lat="46.28668365856449" lon="12.436777273290849"><ele>646.0</ele><time>2026-04-25T15:33:17Z</time></trkpt><trkpt lat="46.286683658565316" lon="12.436930959560163"><ele>646.0</ele><time>2026-04-25T15:33:18Z</time></trkpt><trkpt lat="46.28670104832652" lon="12.437082650083804"><ele>646.1999999999999</ele><time>2026-04-25T15:33:19Z</time></trkpt><trkpt lat="46.28669922373371" lon="12.437236654421314"><ele>646.4</ele><time>2026-04-25T15:33:20Z</time></trkpt><trkpt lat="46.28669584226148" lon="12.43738634129703"><ele>646.6</ele><time>2026-04-25T15:33:21Z</time></trkpt><trkpt lat="46.28668838778249" lon="12.437534679978128"><ele>646.8</ele><time>2026-04-25T15:33:22Z</time></trkpt><trkpt lat="46.28667435763886" lon="12.437682386284196"><ele>647.0</ele><time>2026-04-25T15:33:23Z</time></trkpt><trkpt lat="46.286657107065594" lon="12.437828592606863"><ele>647.4000000000001</ele><time>2026-04-25T15:33:24Z</time></trkpt><trkpt lat="46.28663519929187" lon="12.437974344986321"><ele>647.8000000000001</ele><time>2026-04-25T15:33:25Z</time></trkpt><trkpt lat="46.286590590240365" lon="12.438112606304099"><ele>648.2</ele><time>2026-04-25T15:33:26Z</time></trkpt><trkpt lat="46.286561205346366" lon="12.43825755336482"><ele>648.6</ele><time>2026-04-25T15:33:27Z</time></trkpt><trkpt lat="46.286530952266006" lon="12.438408688305671"><ele>649.0</ele><time>2026-04-25T15:33:28Z</time></trkpt><trkpt lat="46.28650099779617" lon="12.438559770608725"><ele>649.0</ele><time>2026-04-25T15:33:29Z</time></trkpt><trkpt lat="46.286470746052814" lon="12.438713011932812"><ele>649.0</ele><time>2026-04-25T15:33:30Z</time></trkpt><trkpt lat="46.28644069833815" lon="12.438866831069172"><ele>649.0</ele><time>2026-04-25T15:33:31Z</time></trkpt><trkpt lat="46.286411277723424" lon="12.43901744028305"><ele>649.0</ele><time>2026-04-25T15:33:32Z</time></trkpt><trkpt lat="46.2863819965184" lon="12.439169263832078"><ele>649.0</ele><time>2026-04-25T15:33:33Z</time></trkpt><trkpt lat="46.2863707678698" lon="12.439332919184324"><ele>647.75</ele><time>2026-04-25T15:33:34Z</time></trkpt><trkpt lat="46.28633759380984" lon="12.439493933144844"><ele>646.5</ele><time>2026-04-25T15:33:35.001Z</time></trkpt><trkpt lat="46.28630418520218" lon="12.439661393420701"><ele>645.25</ele><time>2026-04-25T15:33:36.001Z</time></trkpt><trkpt lat="46.286266277616534" lon="12.439835065505603"><ele>644.0</ele><time>2026-04-25T15:33:37.001Z</time></trkpt><trkpt lat="46.286227780873126" lon="12.440015212605658"><ele>643.25</ele><time>2026-04-25T15:33:38.001Z</time></trkpt><trkpt lat="46.286193034394095" lon="12.440208937464956"><ele>642.5</ele><time>2026-04-25T15:33:39.001Z</time></trkpt><trkpt lat="46.28615432313159" lon="12.440412377252986"><ele>641.75</ele><time>2026-04-25T15:33:40.001Z</time></trkpt><trkpt lat="46.28611676587286" lon="12.44062172125155"><ele>641.0</ele><time>2026-04-25T15:33:41.001Z</time></trkpt><trkpt lat="46.286076183454135" lon="12.44084082361469"><ele>640.6666666666666</ele><time>2026-04-25T15:33:42.001Z</time></trkpt><trkpt lat="46.286032369322584" lon="12.441067639927322"><ele>640.3333333333334</ele><time>2026-04-25T15:33:43.001Z</time></trkpt><trkpt lat="46.28598959850828" lon="12.441296798718554"><ele>640.0</ele><time>2026-04-25T15:33:44.001Z</time></trkpt><trkpt lat="46.28594564152059" lon="12.441523997699457"><ele>639.3333333333334</ele><time>2026-04-25T15:33:45.001Z</time></trkpt><trkpt lat="46.28589922014501" lon="12.441749785068804"><ele>638.6666666666666</ele><time>2026-04-25T15:33:46.001Z</time></trkpt><trkpt lat="46.285854450264715" lon="12.441971670135354"><ele>638.0</ele><time>2026-04-25T15:33:47.001Z</time></trkpt><trkpt lat="46.28581181324601" lon="12.442189891529248"><ele>638.0</ele><time>2026-04-25T15:33:48.001Z</time></trkpt><trkpt lat="46.28576928821892" lon="12.442401133940924"><ele>638.0</ele><time>2026-04-25T15:33:49.001Z</time></trkpt><trkpt lat="46.285729186727146" lon="12.44260922787646"><ele>638.0</ele><time>2026-04-25T15:33:50.001Z</time></trkpt><trkpt lat="46.285686956099966" lon="12.442810544910538"><ele>638.0</ele><time>2026-04-25T15:33:51.001Z</time></trkpt><trkpt lat="46.28564423242701" lon="12.443012915173373"><ele>637.75</ele><time>2026-04-25T15:33:52.001Z</time></trkpt><trkpt lat="46.285602887632926" lon="12.443217336421737"><ele>637.5</ele><time>2026-04-25T15:33:53.001Z</time></trkpt><trkpt lat="46.285557660221784" lon="12.44342480672711"><ele>637.25</ele><time>2026-04-25T15:33:54.001Z</time></trkpt><trkpt lat="46.285513793994696" lon="12.44363166582279"><ele>637.0</ele><time>2026-04-25T15:33:55.001Z</time></trkpt><trkpt lat="46.28546895190639" lon="12.44384630704046"><ele>637.0</ele><time>2026-04-25T15:33:56.001Z</time></trkpt><trkpt lat="46.28542370613219" lon="12.44405884756493"><ele>637.0</ele><time>2026-04-25T15:33:57.001Z</time></trkpt><trkpt lat="46.28537876420816" lon="12.444271220441793"><ele>637.0</ele><time>2026-04-25T15:33:58.001Z</time></trkpt><trkpt lat="46.2853310875442" lon="12.444477746391673"><ele>637.75</ele><time>2026-04-25T15:33:59.001Z</time></trkpt><trkpt lat="46.28529231562061" lon="12.444679592362235"><ele>638.5</ele><time>2026-04-25T15:34:00Z</time></trkpt><trkpt lat="46.285244790629925" lon="12.444866642746508"><ele>639.25</ele><time>2026-04-25T15:34:01Z</time></trkpt><trkpt lat="46.28519240536273" lon="12.445046314582973"><ele>640.0</ele><time>2026-04-25T15:34:02Z</time></trkpt><trkpt lat="46.28512198364673" lon="12.445215664673478"><ele>640.0</ele><time>2026-04-25T15:34:03Z</time></trkpt><trkpt lat="46.28503726132178" lon="12.445370301225141"><ele>640.0</ele><time>2026-04-25T15:34:04Z</time></trkpt><trkpt lat="46.284950993026825" lon="12.44551727778013"><ele>640.0</ele><time>2026-04-25T15:34:05Z</time></trkpt><trkpt lat="46.28486021465894" lon="12.445652450480067"><ele>640.0</ele><time>2026-04-25T15:34:06Z</time></trkpt><trkpt lat="46.28476484820763" lon="12.445784914289732"><ele>640.75</ele><time>2026-04-25T15:34:07Z</time></trkpt><trkpt lat="46.284649303602265" lon="12.445905212043533"><ele>641.5</ele><time>2026-04-25T15:34:08Z</time></trkpt><trkpt lat="46.28453583275778" lon="12.446049664572373"><ele>642.25</ele><time>2026-04-25T15:34:09Z</time></trkpt><trkpt lat="46.28442102183121" lon="12.44619515455286"><ele>643.0</ele><time>2026-04-25T15:34:10Z</time></trkpt><trkpt lat="46.284312334119534" lon="12.44633288511383"><ele>643.0</ele><time>2026-04-25T15:34:11Z</time></trkpt><trkpt lat="46.28420294727762" lon="12.446471501629176"><ele>643.0</ele><time>2026-04-25T15:34:12Z</time></trkpt><trkpt lat="46.2840929127717" lon="12.446610939057884"><ele>643.0</ele><time>2026-04-25T15:34:13Z</time></trkpt><trkpt lat="46.28398277156049" lon="12.446748126532183"><ele>643.0</ele><time>2026-04-25T15:34:14Z</time></trkpt><trkpt lat="46.28387355382565" lon="12.44688443318985"><ele>643.0</ele><time>2026-04-25T15:34:15Z</time></trkpt><trkpt lat="46.28376633131645" lon="12.447018249746495"><ele>643.0</ele><time>2026-04-25T15:34:16Z</time></trkpt><trkpt lat="46.28366923062007" lon="12.447167124506832"><ele>643.0</ele><time>2026-04-25T15:34:17Z</time></trkpt><trkpt lat="46.2835592226411" lon="12.447293667724106"><ele>643.0</ele><time>2026-04-25T15:34:18Z</time></trkpt><trkpt lat="46.283434376035" lon="12.447411918862343"><ele>642.3333333333334</ele><time>2026-04-25T15:34:19Z</time></trkpt><trkpt lat="46.28329564520674" lon="12.447524838420248"><ele>641.6666666666666</ele><time>2026-04-25T15:34:20Z</time></trkpt><trkpt lat="46.28313976450234" lon="12.447632521272633"><ele>641.0</ele><time>2026-04-25T15:34:21Z</time></trkpt><trkpt lat="46.282975618729516" lon="12.447710122090436"><ele>639.5</ele><time>2026-04-25T15:34:22Z</time></trkpt><trkpt lat="46.28272335636781" lon="12.44780358703097"><ele>638.0</ele><time>2026-04-25T15:34:23Z</time></trkpt><trkpt lat="46.282451293326005" lon="12.447917951712322"><ele>637.5</ele><time>2026-04-25T15:34:24Z</time></trkpt><trkpt lat="46.28215172414636" lon="12.44805500492001"><ele>637.0</ele><time>2026-04-25T15:34:25Z</time></trkpt><trkpt lat="46.28185886196367" lon="12.448182508269436"><ele>637.0</ele><time>2026-04-25T15:34:26Z</time></trkpt><trkpt lat="46.28158927726792" lon="12.448317756854564"><ele>637.0</ele><time>2026-04-25T15:34:27Z</time></trkpt><trkpt lat="46.28133879181107" lon="12.44848115764633"><ele>635.5</ele><time>2026-04-25T15:34:28Z</time></trkpt><trkpt lat="46.28111534742881" lon="12.448660483443579"><ele>634.0</ele><time>2026-04-25T15:34:29Z</time></trkpt><trkpt lat="46.28090958553893" lon="12.44883410387769"><ele>633.6666666666667</ele><time>2026-04-25T15:34:30Z</time></trkpt><trkpt lat="46.28071524791611" lon="12.448988760214517"><ele>633.3333333333334</ele><time>2026-04-25T15:34:31Z</time></trkpt><trkpt lat="46.280532137088514" lon="12.449136641099397"><ele>633.0</ele><time>2026-04-25T15:34:32Z</time></trkpt><trkpt lat="46.28036036421921" lon="12.449273486581797"><ele>632.3333333333334</ele><time>2026-04-25T15:34:33Z</time></trkpt><trkpt lat="46.28019048934508" lon="12.449410677569889"><ele>631.6666666666667</ele><time>2026-04-25T15:34:34Z</time></trkpt><trkpt lat="46.28002299387171" lon="12.449541195629227"><ele>631.0</ele><time>2026-04-25T15:34:35Z</time></trkpt><trkpt lat="46.2798597849755" lon="12.449680874365164"><ele>630.3333333333334</ele><time>2026-04-25T15:34:36Z</time></trkpt><trkpt lat="46.27969994627444" lon="12.449835613122097"><ele>629.6666666666666</ele><time>2026-04-25T15:34:37Z</time></trkpt><trkpt lat="46.27954927877733" lon="12.450004766317363"><ele>629.0</ele><time>2026-04-25T15:34:38Z</time></trkpt><trkpt lat="46.27940985991557" lon="12.45019044125881"><ele>629.0</ele><time>2026-04-25T15:34:39Z</time></trkpt><trkpt lat="46.27928419791905" lon="12.450395078563743"><ele>629.0</ele><time>2026-04-25T15:34:40Z</time></trkpt><trkpt lat="46.279165343657915" lon="12.450617187903534"><ele>629.0</ele><time>2026-04-25T15:34:41Z</time></trkpt><trkpt lat="46.27905485035731" lon="12.45085746678908"><ele>628.6666666666666</ele><time>2026-04-25T15:34:42Z</time></trkpt><trkpt lat="46.27895807802526" lon="12.451112107434623"><ele>628.3333333333334</ele><time>2026-04-25T15:34:43Z</time></trkpt><trkpt lat="46.278863581980744" lon="12.451374881076122"><ele>628.0</ele><time>2026-04-25T15:34:44Z</time></trkpt><trkpt lat="46.2787670603693" lon="12.451637357226483"><ele>626.3333333333334</ele><time>2026-04-25T15:34:45Z</time></trkpt><trkpt lat="46.278668687279904" lon="12.451898607997325"><ele>624.6666666666666</ele><time>2026-04-25T15:34:46Z</time></trkpt><trkpt lat="46.27857345718432" lon="12.452159742547794"><ele>623.0</ele><time>2026-04-25T15:34:47Z</time></trkpt><trkpt lat="46.27847835415949" lon="12.452418281154706"><ele>622.3333333333333</ele><time>2026-04-25T15:34:48Z</time></trkpt><trkpt lat="46.278385129763656" lon="12.452674076875297"><ele>621.6666666666666</ele><time>2026-04-25T15:34:49Z</time></trkpt><trkpt lat="46.278291517777035" lon="12.452929566093363"><ele>621.0</ele><time>2026-04-25T15:34:50Z</time></trkpt><trkpt lat="46.27819590163056" lon="12.453187960774848"><ele>620.0</ele><time>2026-04-25T15:34:51Z</time></trkpt><trkpt lat="46.27809102330819" lon="12.453445886857791"><ele>619.0</ele><time>2026-04-25T15:34:52Z</time></trkpt><trkpt lat="46.27796674824247" lon="12.453690043727393"><ele>618.0</ele><time>2026-04-25T15:34:53Z</time></trkpt><trkpt lat="46.27782393730588" lon="12.45391666951766"><ele>617.3333333333334</ele><time>2026-04-25T15:34:54Z</time></trkpt><trkpt lat="46.277670250214356" lon="12.454129387090946"><ele>616.6666666666667</ele><time>2026-04-25T15:34:55Z</time></trkpt><trkpt lat="46.277508344324524" lon="12.454328658000996"><ele>616.0</ele><time>2026-04-25T15:34:56Z</time></trkpt><trkpt lat="46.27733980116551" lon="12.454513990733199"><ele>615.3333333333334</ele><time>2026-04-25T15:34:57Z</time></trkpt><trkpt lat="46.2771693541653" lon="12.45469671578379"><ele>614.6666666666666</ele><time>2026-04-25T15:34:58Z</time></trkpt><trkpt lat="46.276996909565824" lon="12.45488663412783"><ele>614.0</ele><time>2026-04-25T15:34:59Z</time></trkpt><trkpt lat="46.276825193523145" lon="12.45508093580852"><ele>614.0</ele><time>2026-04-25T15:35:00Z</time></trkpt><trkpt lat="46.27665090970048" lon="12.455270956459993"><ele>614.0</ele><time>2026-04-25T15:35:01Z</time></trkpt><trkpt lat="46.276476699731674" lon="12.455458749432832"><ele>614.0</ele><time>2026-04-25T15:35:02Z</time></trkpt><trkpt lat="46.27630212653986" lon="12.455643968695524"><ele>612.3333333333333</ele><time>2026-04-25T15:35:03Z</time></trkpt><trkpt lat="46.276129368067075" lon="12.455831341448697"><ele>610.6666666666666</ele><time>2026-04-25T15:35:04Z</time></trkpt><trkpt lat="46.27595896494626" lon="12.456018030445343"><ele>609.0</ele><time>2026-04-25T15:35:05Z</time></trkpt><trkpt lat="46.27578925132668" lon="12.456199675069179"><ele>609.3333333333334</ele><time>2026-04-25T15:35:06Z</time></trkpt><trkpt lat="46.27562407757025" lon="12.456379862125601"><ele>609.6666666666667</ele><time>2026-04-25T15:35:07Z</time></trkpt><trkpt lat="46.27546214922085" lon="12.456561626134212"><ele>610.0</ele><time>2026-04-25T15:35:08Z</time></trkpt><trkpt lat="46.27529621095429" lon="12.456752533276745"><ele>608.3333333333334</ele><time>2026-04-25T15:35:09Z</time></trkpt><trkpt lat="46.275125565835665" lon="12.456940398919594"><ele>606.6666666666666</ele><time>2026-04-25T15:35:10Z</time></trkpt><trkpt lat="46.274954278974874" lon="12.457128198256898"><ele>605.0</ele><time>2026-04-25T15:35:11Z</time></trkpt><trkpt lat="46.274781653911056" lon="12.457319039379174"><ele>604.0</ele><time>2026-04-25T15:35:12Z</time></trkpt><trkpt lat="46.274603469270346" lon="12.457506447771513"><ele>603.0</ele><time>2026-04-25T15:35:13Z</time></trkpt><trkpt lat="46.274417563273445" lon="12.45768374417482"><ele>602.0</ele><time>2026-04-25T15:35:14Z</time></trkpt><trkpt lat="46.274223268103135" lon="12.457845343371329"><ele>601.0</ele><time>2026-04-25T15:35:15Z</time></trkpt><trkpt lat="46.27401211782033" lon="12.457983148601269"><ele>600.0</ele><time>2026-04-25T15:35:16Z</time></trkpt><trkpt lat="46.27379500042398" lon="12.458122937203315"><ele>599.0</ele><time>2026-04-25T15:35:17Z</time></trkpt><trkpt lat="46.27359147542413" lon="12.458262172836218"><ele>598.0</ele><time>2026-04-25T15:35:18Z</time></trkpt><trkpt lat="46.2733904839707" lon="12.458396609193581"><ele>597.0</ele><time>2026-04-25T15:35:19Z</time></trkpt><trkpt lat="46.273196258157746" lon="12.458525452029223"><ele>596.6666666666666</ele><time>2026-04-25T15:35:20Z</time></trkpt><trkpt lat="46.27300578554123" lon="12.458651327655842"><ele>596.3333333333333</ele><time>2026-04-25T15:35:21Z</time></trkpt><trkpt lat="46.2728196106155" lon="12.458777661101731"><ele>596.0</ele><time>2026-04-25T15:35:22Z</time></trkpt><trkpt lat="46.272633796294706" lon="12.458903340235135"><ele>595.3333333333333</ele><time>2026-04-25T15:35:23Z</time></trkpt><trkpt lat="46.272444352358015" lon="12.459027435143788"><ele>594.6666666666666</ele><time>2026-04-25T15:35:24Z</time></trkpt><trkpt lat="46.27225252082803" lon="12.459158305517812"><ele>594.0</ele><time>2026-04-25T15:35:25Z</time></trkpt><trkpt lat="46.27206239673241" lon="12.459287613613153"><ele>592.3333333333334</ele><time>2026-04-25T15:35:26Z</time></trkpt><trkpt lat="46.27187239161399" lon="12.459411523805658"><ele>590.6666666666667</ele><time>2026-04-25T15:35:27Z</time></trkpt><trkpt lat="46.27168575278543" lon="12.45953564186719"><ele>589.0</ele><time>2026-04-25T15:35:28Z</time></trkpt><trkpt lat="46.27150573027716" lon="12.459658805619712"><ele>589.0</ele><time>2026-04-25T15:35:29Z</time></trkpt><trkpt lat="46.271335734269776" lon="12.459773222202566"><ele>589.0</ele><time>2026-04-25T15:35:30Z</time></trkpt><trkpt lat="46.27117140735473" lon="12.45988384525857"><ele>589.0</ele><time>2026-04-25T15:35:31Z</time></trkpt><trkpt lat="46.27101296688932" lon="12.459988175861188"><ele>589.0</ele><time>2026-04-25T15:35:32Z</time></trkpt><trkpt lat="46.27086343542829" lon="12.460085121628437"><ele>589.0</ele><time>2026-04-25T15:35:33Z</time></trkpt><trkpt lat="46.27071654670173" lon="12.460182723306191"><ele>589.0</ele><time>2026-04-25T15:35:34Z</time></trkpt><trkpt lat="46.27057044386449" lon="12.460278615985851"><ele>587.6666666666667</ele><time>2026-04-25T15:35:35Z</time></trkpt><trkpt lat="46.27042849973377" lon="12.460374031855945"><ele>586.3333333333334</ele><time>2026-04-25T15:35:36Z</time></trkpt><trkpt lat="46.2702931079566" lon="12.46047995715182"><ele>585.0</ele><time>2026-04-25T15:35:37Z</time></trkpt><trkpt lat="46.27016459905839" lon="12.460604216565315"><ele>585.0</ele><time>2026-04-25T15:35:38Z</time></trkpt><trkpt lat="46.27002874651347" lon="12.460756803273323"><ele>585.0</ele><time>2026-04-25T15:35:39Z</time></trkpt><trkpt lat="46.269886973593735" lon="12.46093217166026"><ele>585.0</ele><time>2026-04-25T15:35:40Z</time></trkpt><trkpt lat="46.269738730103114" lon="12.461122906980187"><ele>582.6666666666666</ele><time>2026-04-25T15:35:41.001Z</time></trkpt><trkpt lat="46.269584165558705" lon="12.461327232678569"><ele>580.3333333333333</ele><time>2026-04-25T15:35:42.001Z</time></trkpt><trkpt lat="46.26941915637983" lon="12.461530838759941"><ele>578.0</ele><time>2026-04-25T15:35:43.001Z</time></trkpt><trkpt lat="46.269244303674974" lon="12.461730333914286"><ele>578.0</ele><time>2026-04-25T15:35:44.001Z</time></trkpt><trkpt lat="46.26906341531665" lon="12.4619347169077"><ele>578.0</ele><time>2026-04-25T15:35:45.001Z</time></trkpt><trkpt lat="46.26888062251248" lon="12.462143092031688"><ele>576.5</ele><time>2026-04-25T15:35:46.001Z</time></trkpt><trkpt lat="46.26869375928493" lon="12.462354720164447"><ele>575.0</ele><time>2026-04-25T15:35:47.001Z</time></trkpt><trkpt lat="46.268505319307934" lon="12.46257036456079"><ele>575.0</ele><time>2026-04-25T15:35:48.001Z</time></trkpt><trkpt lat="46.268321225386806" lon="12.462782276541262"><ele>575.0</ele><time>2026-04-25T15:35:49.001Z</time></trkpt><trkpt lat="46.26814050060193" lon="12.462993807235428"><ele>572.5</ele><time>2026-04-25T15:35:50.001Z</time></trkpt><trkpt lat="46.26796250393135" lon="12.46320827670113"><ele>570.0</ele><time>2026-04-25T15:35:51.001Z</time></trkpt><trkpt lat="46.26778455227086" lon="12.463415057920745"><ele>570.0</ele><time>2026-04-25T15:35:52.001Z</time></trkpt><trkpt lat="46.26761136342786" lon="12.463617002835377"><ele>570.0</ele><time>2026-04-25T15:35:53.001Z</time></trkpt><trkpt lat="46.26744000370459" lon="12.463814773702444"><ele>570.0</ele><time>2026-04-25T15:35:54.001Z</time></trkpt><trkpt lat="46.267275644841085" lon="12.464008724336487"><ele>567.3333333333334</ele><time>2026-04-25T15:35:55.001Z</time></trkpt><trkpt lat="46.26711724028485" lon="12.464202388631564"><ele>564.6666666666667</ele><time>2026-04-25T15:35:56.001Z</time></trkpt><trkpt lat="46.2669595875537" lon="12.464392277905326"><ele>562.0</ele><time>2026-04-25T15:35:57.001Z</time></trkpt><trkpt lat="46.266801109682156" lon="12.464579491892886"><ele>563.0</ele><time>2026-04-25T15:35:58.001Z</time></trkpt><trkpt lat="46.266645690202886" lon="12.464761685627643"><ele>564.0</ele><time>2026-04-25T15:35:59.001Z</time></trkpt><trkpt lat="46.266489267755944" lon="12.464943367759323"><ele>565.0</ele><time>2026-04-25T15:36:00.001Z</time></trkpt><trkpt lat="46.266335084283064" lon="12.465127022102804"><ele>563.6666666666667</ele><time>2026-04-25T15:36:01.001Z</time></trkpt><trkpt lat="46.266181369959355" lon="12.46530987411758"><ele>562.3333333333334</ele><time>2026-04-25T15:36:02.001Z</time></trkpt><trkpt lat="46.26602725295798" lon="12.465485436058984"><ele>561.0</ele><time>2026-04-25T15:36:03.001Z</time></trkpt><trkpt lat="46.265870802765086" lon="12.465652548626938"><ele>561.0</ele><time>2026-04-25T15:36:04.001Z</time></trkpt><trkpt lat="46.26570613649693" lon="12.465809639657985"><ele>561.0</ele><time>2026-04-25T15:36:05Z</time></trkpt><trkpt lat="46.265531317553865" lon="12.465953932737685"><ele>561.0</ele><time>2026-04-25T15:36:06Z</time></trkpt><trkpt lat="46.26534099820647" lon="12.46609291889737"><ele>560.0</ele><time>2026-04-25T15:36:07Z</time></trkpt><trkpt lat="46.26514056640154" lon="12.466242491509796"><ele>559.0</ele><time>2026-04-25T15:36:08Z</time></trkpt><trkpt lat="46.264929480491354" lon="12.46640086814268"><ele>556.0</ele><time>2026-04-25T15:36:09Z</time></trkpt><trkpt lat="46.26470834868091" lon="12.466555912301972"><ele>553.0</ele><time>2026-04-25T15:36:10Z</time></trkpt><trkpt lat="46.26448034805333" lon="12.466708214312895"><ele>553.0</ele><time>2026-04-25T15:36:11Z</time></trkpt><trkpt lat="46.26425384260672" lon="12.466859290224912"><ele>553.0</ele><time>2026-04-25T15:36:12Z</time></trkpt><trkpt lat="46.264035385359875" lon="12.467016803591074"><ele>552.0</ele><time>2026-04-25T15:36:13Z</time></trkpt><trkpt lat="46.26382388931998" lon="12.467165433208734"><ele>551.0</ele><time>2026-04-25T15:36:14Z</time></trkpt><trkpt lat="46.26361996930494" lon="12.467309072512979"><ele>551.0</ele><time>2026-04-25T15:36:15Z</time></trkpt><trkpt lat="46.26342121916739" lon="12.467437243842822"><ele>551.0</ele><time>2026-04-25T15:36:16Z</time></trkpt><trkpt lat="46.26322962057831" lon="12.467556495285491"><ele>551.0</ele><time>2026-04-25T15:36:17Z</time></trkpt><trkpt lat="46.263039979533005" lon="12.467669108659901"><ele>552.0</ele><time>2026-04-25T15:36:18Z</time></trkpt><trkpt lat="46.26284924057216" lon="12.467779727714808"><ele>553.0</ele><time>2026-04-25T15:36:19Z</time></trkpt><trkpt lat="46.26265559012116" lon="12.467894202226935"><ele>554.0</ele><time>2026-04-25T15:36:20Z</time></trkpt><trkpt lat="46.26246353739887" lon="12.468011332943131"><ele>551.6666666666666</ele><time>2026-04-25T15:36:21Z</time></trkpt><trkpt lat="46.26227258032761" lon="12.468128051879454"><ele>549.3333333333334</ele><time>2026-04-25T15:36:22Z</time></trkpt><trkpt lat="46.262081910523854" lon="12.468243953025953"><ele>547.0</ele><time>2026-04-25T15:36:23Z</time></trkpt><trkpt lat="46.26188825437857" lon="12.468357786119178"><ele>547.0</ele><time>2026-04-25T15:36:24Z</time></trkpt><trkpt lat="46.261694604654636" lon="12.468470402101705"><ele>547.0</ele><time>2026-04-25T15:36:25Z</time></trkpt><trkpt lat="46.26149744094182" lon="12.468587609649376"><ele>547.0</ele><time>2026-04-25T15:36:26Z</time></trkpt><trkpt lat="46.26129998906687" lon="12.468705277021034"><ele>546.6666666666667</ele><time>2026-04-25T15:36:27Z</time></trkpt><trkpt lat="46.26110623665033" lon="12.468822329457216"><ele>546.3333333333334</ele><time>2026-04-25T15:36:28Z</time></trkpt><trkpt lat="46.26092873831223" lon="12.468933288678986"><ele>546.0</ele><time>2026-04-25T15:36:29Z</time></trkpt><trkpt lat="46.26076223936164" lon="12.469037878528084"><ele>544.0</ele><time>2026-04-25T15:36:30Z</time></trkpt><trkpt lat="46.260609782062865" lon="12.469132842885147"><ele>542.0</ele><time>2026-04-25T15:36:31Z</time></trkpt><trkpt lat="46.260473272091545" lon="12.4692072061175"><ele>540.0</ele><time>2026-04-25T15:36:32Z</time></trkpt><trkpt lat="46.26035108580043" lon="12.469250432954817"><ele>538.0</ele><time>2026-04-25T15:36:33Z</time></trkpt><trkpt lat="46.260219390687396" lon="12.469251160359455"><ele>538.0</ele><time>2026-04-25T15:36:34Z</time></trkpt><trkpt lat="46.26007503808207" lon="12.46919225200124"><ele>538.0</ele><time>2026-04-25T15:36:35Z</time></trkpt><trkpt lat="46.259945380382675" lon="12.469063212180426"><ele>538.0</ele><time>2026-04-25T15:36:36Z</time></trkpt><trkpt lat="46.259838221680205" lon="12.468883588442296"><ele>538.3333333333334</ele><time>2026-04-25T15:36:37Z</time></trkpt><trkpt lat="46.259743377415305" lon="12.468714559918489"><ele>538.6666666666666</ele><time>2026-04-25T15:36:38Z</time></trkpt><trkpt lat="46.25965614491208" lon="12.468551972152769"><ele>539.0</ele><time>2026-04-25T15:36:39Z</time></trkpt><trkpt lat="46.2595867223362" lon="12.468337949266662"><ele>539.0</ele><time>2026-04-25T15:36:40Z</time></trkpt><trkpt lat="46.259540133466196" lon="12.468078055316342"><ele>539.0</ele><time>2026-04-25T15:36:41Z</time></trkpt><trkpt lat="46.259506043084" lon="12.467789739510518"><ele>539.0</ele><time>2026-04-25T15:36:42Z</time></trkpt><trkpt lat="46.25946951792523" lon="12.467485234743279"><ele>536.3333333333333</ele><time>2026-04-25T15:36:43Z</time></trkpt><trkpt lat="46.25943601129796" lon="12.46721804201291"><ele>533.6666666666666</ele><time>2026-04-25T15:36:44Z</time></trkpt><trkpt lat="46.259407550030055" lon="12.466980142586017"><ele>531.0</ele><time>2026-04-25T15:36:45Z</time></trkpt><trkpt lat="46.259383728155626" lon="12.46677161017384"><ele>531.0</ele><time>2026-04-25T15:36:46Z</time></trkpt><trkpt lat="46.2593606381849" lon="12.466595949167372"><ele>531.0</ele><time>2026-04-25T15:36:47Z</time></trkpt><trkpt lat="46.259324835145776" lon="12.46644460549271"><ele>531.0</ele><time>2026-04-25T15:36:48Z</time></trkpt><trkpt lat="46.25925683813726" lon="12.466331526165314"><ele>531.0</ele><time>2026-04-25T15:36:49Z</time></trkpt><trkpt lat="46.25915540027514" lon="12.466249439155142"><ele>530.75</ele><time>2026-04-25T15:36:50Z</time></trkpt><trkpt lat="46.25902858030195" lon="12.466210201897955"><ele>530.5</ele><time>2026-04-25T15:36:51Z</time></trkpt><trkpt lat="46.258886663568106" lon="12.466233434387185"><ele>530.25</ele><time>2026-04-25T15:36:52Z</time></trkpt><trkpt lat="46.2587232529347" lon="12.466312374115669"><ele>530.0</ele><time>2026-04-25T15:36:53Z</time></trkpt><trkpt lat="46.258544054383776" lon="12.466410193173088"><ele>530.0</ele><time>2026-04-25T15:36:54Z</time></trkpt><trkpt lat="46.258380449273275" lon="12.46648306318446"><ele>530.0</ele><time>2026-04-25T15:36:55Z</time></trkpt><trkpt lat="46.258231204699875" lon="12.46652707321167"><ele>530.0</ele><time>2026-04-25T15:36:56Z</time></trkpt><trkpt lat="46.258071692800144" lon="12.466533228377912"><ele>528.6666666666666</ele><time>2026-04-25T15:36:57Z</time></trkpt><trkpt lat="46.25790913283115" lon="12.466499495197041"><ele>527.3333333333334</ele><time>2026-04-25T15:36:58Z</time></trkpt><trkpt lat="46.257735677038184" lon="12.466483927836853"><ele>526.0</ele><time>2026-04-25T15:36:59Z</time></trkpt><trkpt lat="46.257556410909466" lon="12.466505398403433"><ele>526.0</ele><time>2026-04-25T15:37:00Z</time></trkpt><trkpt lat="46.2573892920708" lon="12.466520416424158"><ele>526.0</ele><time>2026-04-25T15:37:01Z</time></trkpt><trkpt lat="46.25722272438776" lon="12.466494017247612"><ele>526.0</ele><time>2026-04-25T15:37:02Z</time></trkpt><trkpt lat="46.2570712021585" lon="12.466451176717817"><ele>526.3333333333334</ele><time>2026-04-25T15:37:03Z</time></trkpt><trkpt lat="46.25691484124933" lon="12.466379249875745"><ele>526.6666666666666</ele><time>2026-04-25T15:37:04Z</time></trkpt><trkpt lat="46.25675327977617" lon="12.466253220284436"><ele>527.0</ele><time>2026-04-25T15:37:05Z</time></trkpt><trkpt lat="46.25659455266825" lon="12.466123056306717"><ele>527.0</ele><time>2026-04-25T15:37:06Z</time></trkpt><trkpt lat="46.25645642053229" lon="12.46601626237593"><ele>527.0</ele><time>2026-04-25T15:37:07Z</time></trkpt><trkpt lat="46.256328802292046" lon="12.465913650188472"><ele>527.0</ele><time>2026-04-25T15:37:08Z</time></trkpt><trkpt lat="46.25621020627092" lon="12.465826550987162"><ele>527.0</ele><time>2026-04-25T15:37:09Z</time></trkpt><trkpt lat="46.256097265017054" lon="12.465734850817912"><ele>526.25</ele><time>2026-04-25T15:37:10Z</time></trkpt><trkpt lat="46.25598484608069" lon="12.465617471820392"><ele>525.5</ele><time>2026-04-25T15:37:11Z</time></trkpt><trkpt lat="46.25589080414896" lon="12.465459382095434"><ele>524.75</ele><time>2026-04-25T15:37:12Z</time></trkpt><trkpt lat="46.25581570617984" lon="12.465258512347182"><ele>524.0</ele><time>2026-04-25T15:37:13Z</time></trkpt><trkpt lat="46.25575368072296" lon="12.46503315875402"><ele>524.0</ele><time>2026-04-25T15:37:14Z</time></trkpt><trkpt lat="46.25568683709203" lon="12.464788019384926"><ele>524.0</ele><time>2026-04-25T15:37:15Z</time></trkpt><trkpt lat="46.2555917929869" lon="12.464540879887732"><ele>524.0</ele><time>2026-04-25T15:37:16Z</time></trkpt><trkpt lat="46.255477820795704" lon="12.464330396170102"><ele>523.6666666666666</ele><time>2026-04-25T15:37:17Z</time></trkpt><trkpt lat="46.255367240715735" lon="12.464154030050421"><ele>523.3333333333334</ele><time>2026-04-25T15:37:18Z</time></trkpt><trkpt lat="46.25525375062027" lon="12.46401097273828"><ele>523.0</ele><time>2026-04-25T15:37:19Z</time></trkpt><trkpt lat="46.255124678258866" lon="12.463904421244726"><ele>523.0</ele><time>2026-04-25T15:37:20Z</time></trkpt><trkpt lat="46.254988066938" lon="12.46382689792239"><ele>523.0</ele><time>2026-04-25T15:37:21Z</time></trkpt><trkpt lat="46.25484077940609" lon="12.463783163405525"><ele>523.0</ele><time>2026-04-25T15:37:22Z</time></trkpt><trkpt lat="46.25467907779441" lon="12.463785528830227"><ele>522.3333333333334</ele><time>2026-04-25T15:37:23Z</time></trkpt><trkpt lat="46.254508016928085" lon="12.463831663870012"><ele>521.6666666666666</ele><time>2026-04-25T15:37:24Z</time></trkpt><trkpt lat="46.254349733155934" lon="12.463909919761297"><ele>521.0</ele><time>2026-04-25T15:37:25Z</time></trkpt><trkpt lat="46.254211085982035" lon="12.463974284722088"><ele>521.0</ele><time>2026-04-25T15:37:26Z</time></trkpt><trkpt lat="46.25405371084823" lon="12.46400026691686"><ele>521.0</ele><time>2026-04-25T15:37:27Z</time></trkpt><trkpt lat="46.25388427023157" lon="12.46398583353523"><ele>521.0</ele><time>2026-04-25T15:37:28Z</time></trkpt><trkpt lat="46.25370352478749" lon="12.463928901825453"><ele>522.6666666666666</ele><time>2026-04-25T15:37:29Z</time></trkpt><trkpt lat="46.25351155827411" lon="12.4638511572315"><ele>524.3333333333334</ele><time>2026-04-25T15:37:30Z</time></trkpt><trkpt lat="46.25331136584756" lon="12.463753493341393"><ele>526.0</ele><time>2026-04-25T15:37:31Z</time></trkpt><trkpt lat="46.25311634523888" lon="12.4636430592062"><ele>526.0</ele><time>2026-04-25T15:37:32Z</time></trkpt><trkpt lat="46.252941651207685" lon="12.46353375693487"><ele>526.0</ele><time>2026-04-25T15:37:33Z</time></trkpt><trkpt lat="46.25276659186425" lon="12.463422772332816"><ele>526.0</ele><time>2026-04-25T15:37:34Z</time></trkpt><trkpt lat="46.25258764173432" lon="12.463318600583795"><ele>526.0</ele><time>2026-04-25T15:37:35Z</time></trkpt><trkpt lat="46.252402529418184" lon="12.46323356651692"><ele>526.0</ele><time>2026-04-25T15:37:36Z</time></trkpt><trkpt lat="46.252210111848406" lon="12.463166675025004"><ele>526.0</ele><time>2026-04-25T15:37:37Z</time></trkpt><trkpt lat="46.252005418736935" lon="12.463118619782458"><ele>522.3333333333334</ele><time>2026-04-25T15:37:38Z</time></trkpt><trkpt lat="46.25180709542147" lon="12.463081451982712"><ele>518.6666666666666</ele><time>2026-04-25T15:37:39Z</time></trkpt><trkpt lat="46.2516298128787" lon="12.463042331759588"><ele>515.0</ele><time>2026-04-25T15:37:40Z</time></trkpt><trkpt lat="46.251468735742726" lon="12.462998861571677"><ele>516.3333333333333</ele><time>2026-04-25T15:37:41Z</time></trkpt><trkpt lat="46.25131253920245" lon="12.462927338838393"><ele>517.6666666666666</ele><time>2026-04-25T15:37:42Z</time></trkpt><trkpt lat="46.25117503003651" lon="12.462823064663665"><ele>519.0</ele><time>2026-04-25T15:37:43Z</time></trkpt><trkpt lat="46.25104438092306" lon="12.462707937357623"><ele>519.0</ele><time>2026-04-25T15:37:44Z</time></trkpt><trkpt lat="46.25090340883599" lon="12.462638001752822"><ele>519.0</ele><time>2026-04-25T15:37:45Z</time></trkpt><trkpt lat="46.25075208568348" lon="12.462619558708528"><ele>519.0</ele><time>2026-04-25T15:37:46Z</time></trkpt><trkpt lat="46.25061308742191" lon="12.462641981629154"><ele>519.0</ele><time>2026-04-25T15:37:47.001Z</time></trkpt><trkpt lat="46.25049453025973" lon="12.46268768102177"><ele>524.5</ele><time>2026-04-25T15:37:48.001Z</time></trkpt><trkpt lat="46.25039082606098" lon="12.462749146287717"><ele>530.0</ele><time>2026-04-25T15:37:49.001Z</time></trkpt><trkpt lat="46.25029637848749" lon="12.462834404227284"><ele>535.5</ele><time>2026-04-25T15:37:50.001Z</time></trkpt><trkpt lat="46.25025005586521" lon="12.463029595744276"><ele>541.0</ele><time>2026-04-25T15:37:51.001Z</time></trkpt><trkpt lat="46.250209430644865" lon="12.463244197639318"><ele>541.0</ele><time>2026-04-25T15:37:52.001Z</time></trkpt><trkpt lat="46.250148379712314" lon="12.463446320849183"><ele>541.0</ele><time>2026-04-25T15:37:53.001Z</time></trkpt><trkpt lat="46.250053398933936" lon="12.463626381482277"><ele>541.0</ele><time>2026-04-25T15:37:54.001Z</time></trkpt><trkpt lat="46.249918965366106" lon="12.463790023562852"><ele>558.0</ele><time>2026-04-25T15:37:55.001Z</time></trkpt><trkpt lat="46.24977645063895" lon="12.463986587137802"><ele>575.0</ele><time>2026-04-25T15:37:56.001Z</time></trkpt><trkpt lat="46.24965757247097" lon="12.464237992512432"><ele>592.0</ele><time>2026-04-25T15:37:57.001Z</time></trkpt><trkpt lat="46.24955104848534" lon="12.464525843490245"><ele>589.3333333333334</ele><time>2026-04-25T15:37:58.001Z</time></trkpt><trkpt lat="46.24946174426313" lon="12.464781162153946"><ele>586.6666666666666</ele><time>2026-04-25T15:37:59.001Z</time></trkpt><trkpt lat="46.24938784345892" lon="12.46498901366898"><ele>584.0</ele><time>2026-04-25T15:38:00.001Z</time></trkpt><trkpt lat="46.24938388448517" lon="12.465217489302862"><ele>578.0</ele><time>2026-04-25T15:38:01.001Z</time></trkpt><trkpt lat="46.24939991638893" lon="12.465478980012605"><ele>572.0</ele><time>2026-04-25T15:38:02.001Z</time></trkpt><trkpt lat="46.249428581332936" lon="12.465776210412098"><ele>566.0</ele><time>2026-04-25T15:38:03.001Z</time></trkpt><trkpt lat="46.249430372350055" lon="12.466097304333916"><ele>559.0</ele><time>2026-04-25T15:38:04.001Z</time></trkpt><trkpt lat="46.249410138648074" lon="12.466435975168407"><ele>552.0</ele><time>2026-04-25T15:38:05.001Z</time></trkpt><trkpt lat="46.249386458674564" lon="12.466776038309202"><ele>552.0</ele><time>2026-04-25T15:38:06.001Z</time></trkpt><trkpt lat="46.249381850472055" lon="12.467072639583801"><ele>552.0</ele><time>2026-04-25T15:38:07Z</time></trkpt><trkpt lat="46.249391592177396" lon="12.467349689889984"><ele>552.0</ele><time>2026-04-25T15:38:08Z</time></trkpt><trkpt lat="46.249406157197235" lon="12.467619455849563"><ele>551.3333333333334</ele><time>2026-04-25T15:38:09Z</time></trkpt><trkpt lat="46.249395896674784" lon="12.467861237468904"><ele>550.6666666666667</ele><time>2026-04-25T15:38:10Z</time></trkpt><trkpt lat="46.24940068021065" lon="12.468099720213994"><ele>550.0</ele><time>2026-04-25T15:38:11Z</time></trkpt><trkpt lat="46.24937262683081" lon="12.468338317295045"><ele>544.6666666666667</ele><time>2026-04-25T15:38:12Z</time></trkpt><trkpt lat="46.24933734997202" lon="12.468590180457896"><ele>539.3333333333334</ele><time>2026-04-25T15:38:13Z</time></trkpt><trkpt lat="46.2492940180741" lon="12.468831267803184"><ele>534.0</ele><time>2026-04-25T15:38:14Z</time></trkpt><trkpt lat="46.24925026859033" lon="12.46906801762044"><ele>529.6666666666666</ele><time>2026-04-25T15:38:15Z</time></trkpt><trkpt lat="46.24920410546771" lon="12.469289558508637"><ele>525.3333333333333</ele><time>2026-04-25T15:38:16Z</time></trkpt><trkpt lat="46.249142165336565" lon="12.469513968956646"><ele>521.0</ele><time>2026-04-25T15:38:17Z</time></trkpt><trkpt lat="46.24906633292843" lon="12.469683857702018"><ele>519.8</ele><time>2026-04-25T15:38:18Z</time></trkpt><trkpt lat="46.24898068749097" lon="12.46980603789091"><ele>518.6</ele><time>2026-04-25T15:38:19Z</time></trkpt><trkpt lat="46.24890985757446" lon="12.46991295295588"><ele>517.4</ele><time>2026-04-25T15:38:20Z</time></trkpt><trkpt lat="46.24884102898372" lon="12.470013827874741"><ele>516.2</ele><time>2026-04-25T15:38:21Z</time></trkpt><trkpt lat="46.24877066215733" lon="12.47011350892739"><ele>515.0</ele><time>2026-04-25T15:38:22Z</time></trkpt><trkpt lat="46.24869438562917" lon="12.470221014094657"><ele>515.0</ele><time>2026-04-25T15:38:23Z</time></trkpt><trkpt lat="46.24861121374688" lon="12.470337971263842"><ele>515.0</ele><time>2026-04-25T15:38:24Z</time></trkpt><trkpt lat="46.248531619243764" lon="12.470476589668152"><ele>515.0</ele><time>2026-04-25T15:38:25Z</time></trkpt><trkpt lat="46.248441441567" lon="12.47058957530079"><ele>515.0</ele><time>2026-04-25T15:38:26Z</time></trkpt><trkpt lat="46.2483524249532" lon="12.470689805274025"><ele>514.0</ele><time>2026-04-25T15:38:27Z</time></trkpt><trkpt lat="46.24827112070212" lon="12.470779228056124"><ele>513.0</ele><time>2026-04-25T15:38:28Z</time></trkpt><trkpt lat="46.248195469649815" lon="12.470866288350715"><ele>512.0</ele><time>2026-04-25T15:38:29Z</time></trkpt><trkpt lat="46.24811562155582" lon="12.47094794984315"><ele>511.0</ele><time>2026-04-25T15:38:30Z</time></trkpt><trkpt lat="46.248027197447186" lon="12.471029410117543"><ele>510.0</ele><time>2026-04-25T15:38:31Z</time></trkpt><trkpt lat="46.24794545812173" lon="12.471115793845135"><ele>510.0</ele><time>2026-04-25T15:38:32Z</time></trkpt><trkpt lat="46.247859710542976" lon="12.471196797561063"><ele>510.0</ele><time>2026-04-25T15:38:33Z</time></trkpt><trkpt lat="46.24776271825398" lon="12.47126427846531"><ele>510.0</ele><time>2026-04-25T15:38:34Z</time></trkpt><trkpt lat="46.24765501646773" lon="12.47131422878488"><ele>510.0</ele><time>2026-04-25T15:38:35Z</time></trkpt><trkpt lat="46.24754120590364" lon="12.471365496861287"><ele>510.0</ele><time>2026-04-25T15:38:36Z</time></trkpt><trkpt lat="46.24742262652603" lon="12.471408085347498"><ele>509.0</ele><time>2026-04-25T15:38:37Z</time></trkpt><trkpt lat="46.247311152109596" lon="12.47145356090579"><ele>508.0</ele><time>2026-04-25T15:38:38Z</time></trkpt><trkpt lat="46.24719765773369" lon="12.471510685971655"><ele>507.0</ele><time>2026-04-25T15:38:39Z</time></trkpt><trkpt lat="46.24708558359125" lon="12.471573708726947"><ele>506.0</ele><time>2026-04-25T15:38:40Z</time></trkpt><trkpt lat="46.24697166240384" lon="12.471650708695543"><ele>506.0</ele><time>2026-04-25T15:38:41Z</time></trkpt><trkpt lat="46.24686196795917" lon="12.47174862828541"><ele>506.0</ele><time>2026-04-25T15:38:42Z</time></trkpt><trkpt lat="46.24676275377247" lon="12.47186756571356"><ele>506.0</ele><time>2026-04-25T15:38:43Z</time></trkpt><trkpt lat="46.24666957135031" lon="12.472009134440933"><ele>506.0</ele><time>2026-04-25T15:38:44Z</time></trkpt><trkpt lat="46.2465789181662" lon="12.472163435106406"><ele>505.5</ele><time>2026-04-25T15:38:45Z</time></trkpt><trkpt lat="46.24649279799523" lon="12.472327704197202"><ele>505.0</ele><time>2026-04-25T15:38:46Z</time></trkpt><trkpt lat="46.24640958967427" lon="12.472493234065945"><ele>504.5</ele><time>2026-04-25T15:38:47Z</time></trkpt><trkpt lat="46.24633132674991" lon="12.472657877474488"><ele>504.0</ele><time>2026-04-25T15:38:48Z</time></trkpt><trkpt lat="46.24625506139045" lon="12.472820560663507"><ele>505.75</ele><time>2026-04-25T15:38:49Z</time></trkpt><trkpt lat="46.24617491610395" lon="12.472977594264044"><ele>507.5</ele><time>2026-04-25T15:38:50Z</time></trkpt><trkpt lat="46.246098010971686" lon="12.4731378638112"><ele>509.25</ele><time>2026-04-25T15:38:51Z</time></trkpt><trkpt lat="46.24602358227429" lon="12.473295181146726"><ele>511.0</ele><time>2026-04-25T15:38:52Z</time></trkpt><trkpt lat="46.24595215217985" lon="12.47343601079097"><ele>511.0</ele><time>2026-04-25T15:38:53Z</time></trkpt><trkpt lat="46.24588372482799" lon="12.473570853359265"><ele>511.0</ele><time>2026-04-25T15:38:54Z</time></trkpt><trkpt lat="46.24581725709095" lon="12.473703645380967"><ele>511.0</ele><time>2026-04-25T15:38:55Z</time></trkpt><trkpt lat="46.24575268747116" lon="12.473837857341973"><ele>511.0</ele><time>2026-04-25T15:38:56Z</time></trkpt><trkpt lat="46.24568734341185" lon="12.473969699590407"><ele>511.6</ele><time>2026-04-25T15:38:57Z</time></trkpt><trkpt lat="46.24562422331258" lon="12.47410241835413"><ele>512.2</ele><time>2026-04-25T15:38:58Z</time></trkpt><trkpt lat="46.24556117608726" lon="12.47423552976122"><ele>512.8</ele><time>2026-04-25T15:38:59Z</time></trkpt><trkpt lat="46.24549711311521" lon="12.474366021793362"><ele>513.4</ele><time>2026-04-25T15:39:00Z</time></trkpt><trkpt lat="46.24543304498556" lon="12.474496553003478"><ele>514.0</ele><time>2026-04-25T15:39:01Z</time></trkpt><trkpt lat="46.2453727842354" lon="12.47462917140393"><ele>514.0</ele><time>2026-04-25T15:39:02Z</time></trkpt><trkpt lat="46.24531489290357" lon="12.47476527465152"><ele>514.0</ele><time>2026-04-25T15:39:03Z</time></trkpt><trkpt lat="46.2452589858338" lon="12.474903236419541"><ele>514.0</ele><time>2026-04-25T15:39:04Z</time></trkpt><trkpt lat="46.24521093924172" lon="12.475051238877194"><ele>514.0</ele><time>2026-04-25T15:39:05Z</time></trkpt><trkpt lat="46.245163325590966" lon="12.47520568424764"><ele>514.0</ele><time>2026-04-25T15:39:06Z</time></trkpt><trkpt lat="46.24511245163975" lon="12.475368868241157"><ele>514.0</ele><time>2026-04-25T15:39:07Z</time></trkpt><trkpt lat="46.24505747918717" lon="12.47554229853257"><ele>514.0</ele><time>2026-04-25T15:39:08Z</time></trkpt><trkpt lat="46.24499452820609" lon="12.475727987041541"><ele>514.0</ele><time>2026-04-25T15:39:09Z</time></trkpt><trkpt lat="46.244932621294474" lon="12.475926475928762"><ele>515.6666666666667</ele><time>2026-04-25T15:39:10Z</time></trkpt><trkpt lat="46.24486859852315" lon="12.476136822295453"><ele>517.3333333333334</ele><time>2026-04-25T15:39:11Z</time></trkpt><trkpt lat="46.24480366551338" lon="12.476358318663674"><ele>519.0</ele><time>2026-04-25T15:39:12Z</time></trkpt><trkpt lat="46.24473535808101" lon="12.4765893802759"><ele>519.0</ele><time>2026-04-25T15:39:13Z</time></trkpt><trkpt lat="46.244664584170586" lon="12.476825613090849"><ele>519.0</ele><time>2026-04-25T15:39:14Z</time></trkpt><trkpt lat="46.24459306723896" lon="12.47707451775266"><ele>519.0</ele><time>2026-04-25T15:39:15Z</time></trkpt><trkpt lat="46.2445243604391" lon="12.47734433412306"><ele>520.0</ele><time>2026-04-25T15:39:16Z</time></trkpt><trkpt lat="46.24446454278421" lon="12.477621632214309"><ele>521.0</ele><time>2026-04-25T15:39:17Z</time></trkpt><trkpt lat="46.24440854927132" lon="12.477896300791308"><ele>522.0</ele><time>2026-04-25T15:39:18Z</time></trkpt><trkpt lat="46.24435477746827" lon="12.478174749451764"><ele>522.6666666666666</ele><time>2026-04-25T15:39:19Z</time></trkpt><trkpt lat="46.244307770705355" lon="12.47844270902761"><ele>523.3333333333333</ele><time>2026-04-25T15:39:20Z</time></trkpt><trkpt lat="46.24426412937488" lon="12.478698686976207"><ele>524.0</ele><time>2026-04-25T15:39:21Z</time></trkpt><trkpt lat="46.24422238955872" lon="12.478952860201309"><ele>522.0</ele><time>2026-04-25T15:39:22Z</time></trkpt><trkpt lat="46.24417867873085" lon="12.47921047109651"><ele>520.0</ele><time>2026-04-25T15:39:23Z</time></trkpt><trkpt lat="46.24412290522267" lon="12.479463586147704"><ele>518.0</ele><time>2026-04-25T15:39:24Z</time></trkpt><trkpt lat="46.24409445527324" lon="12.479714816069357"><ele>515.3333333333333</ele><time>2026-04-25T15:39:25Z</time></trkpt><trkpt lat="46.24405252452185" lon="12.47994851020145"><ele>512.6666666666666</ele><time>2026-04-25T15:39:26Z</time></trkpt><trkpt lat="46.24401695012994" lon="12.480184317622987"><ele>510.0</ele><time>2026-04-25T15:39:27Z</time></trkpt><trkpt lat="46.24396649093176" lon="12.480419209451831"><ele>524.3333333333334</ele><time>2026-04-25T15:39:28Z</time></trkpt><trkpt lat="46.243932782663734" lon="12.480662864054505"><ele>538.6666666666667</ele><time>2026-04-25T15:39:29Z</time></trkpt><trkpt lat="46.24389715478306" lon="12.480920393314653"><ele>553.0</ele><time>2026-04-25T15:39:30Z</time></trkpt><trkpt lat="46.243899792385385" lon="12.481202599355466"><ele>550.3333333333334</ele><time>2026-04-25T15:39:31Z</time></trkpt><trkpt lat="46.24387913297365" lon="12.481473342902708"><ele>547.6666666666666</ele><time>2026-04-25T15:39:32Z</time></trkpt><trkpt lat="46.243857641578444" lon="12.481760851972759"><ele>545.0</ele><time>2026-04-25T15:39:33Z</time></trkpt><trkpt lat="46.243838296360224" lon="12.482038153111732"><ele>550.6666666666666</ele><time>2026-04-25T15:39:34Z</time></trkpt><trkpt lat="46.2438255390489" lon="12.48231134788721"><ele>556.3333333333334</ele><time>2026-04-25T15:39:35Z</time></trkpt><trkpt lat="46.24381164923046" lon="12.482586913923125"><ele>562.0</ele><time>2026-04-25T15:39:36Z</time></trkpt><trkpt lat="46.24379890135799" lon="12.48284136674455"><ele>560.6666666666667</ele><time>2026-04-25T15:39:37Z</time></trkpt><trkpt lat="46.243790960203576" lon="12.483080358053806"><ele>559.3333333333334</ele><time>2026-04-25T15:39:38Z</time></trkpt><trkpt lat="46.24378022326248" lon="12.483319593386849"><ele>558.0</ele><time>2026-04-25T15:39:39Z</time></trkpt><trkpt lat="46.24375983625848" lon="12.483521396358594"><ele>558.0</ele><time>2026-04-25T15:39:40Z</time></trkpt><trkpt lat="46.24371334484331" lon="12.483746635779601"><ele>558.0</ele><time>2026-04-25T15:39:41Z</time></trkpt><trkpt lat="46.24362659366856" lon="12.483980201518925"><ele>558.0</ele><time>2026-04-25T15:39:42Z</time></trkpt><trkpt lat="46.24352805964629" lon="12.484224047729414"><ele>549.3333333333334</ele><time>2026-04-25T15:39:43Z</time></trkpt><trkpt lat="46.24344024234177" lon="12.484459838051185"><ele>540.6666666666667</ele><time>2026-04-25T15:39:44Z</time></trkpt><trkpt lat="46.24335253065644" lon="12.48467290659512"><ele>532.0</ele><time>2026-04-25T15:39:45Z</time></trkpt><trkpt lat="46.24324374215276" lon="12.484871226632773"><ele>528.0</ele><time>2026-04-25T15:39:46Z</time></trkpt><trkpt lat="46.24311961193749" lon="12.485058668547103"><ele>524.0</ele><time>2026-04-25T15:39:47Z</time></trkpt><trkpt lat="46.243008378332725" lon="12.485213792503936"><ele>520.0</ele><time>2026-04-25T15:39:48Z</time></trkpt><trkpt lat="46.24290477327262" lon="12.485348703410343"><ele>510.33333333333337</ele><time>2026-04-25T15:39:49Z</time></trkpt><trkpt lat="46.24279057911274" lon="12.485451303162606"><ele>500.66666666666663</ele><time>2026-04-25T15:39:49.999Z</time></trkpt><trkpt lat="46.24264623944306" lon="12.485530898789545"><ele>491.0</ele><time>2026-04-25T15:39:50.999Z</time></trkpt><trkpt lat="46.242490641966555" lon="12.48563482912938"><ele>491.0</ele><time>2026-04-25T15:39:51.999Z</time></trkpt><trkpt lat="46.24233697020294" lon="12.48573183248118"><ele>491.0</ele><time>2026-04-25T15:39:53.001Z</time></trkpt><trkpt lat="46.24217628627303" lon="12.485824204689996"><ele>491.0</ele><time>2026-04-25T15:39:54.001Z</time></trkpt><trkpt lat="46.242006948424" lon="12.485920961338683"><ele>495.3333333333333</ele><time>2026-04-25T15:39:55.001Z</time></trkpt><trkpt lat="46.241838868350875" lon="12.486013276614429"><ele>499.66666666666663</ele><time>2026-04-25T15:39:56.001Z</time></trkpt><trkpt lat="46.241677490582845" lon="12.48609693902956"><ele>504.0</ele><time>2026-04-25T15:39:57.001Z</time></trkpt><trkpt lat="46.241510400588204" lon="12.486161003306565"><ele>510.0</ele><time>2026-04-25T15:39:58.001Z</time></trkpt><trkpt lat="46.241326322632666" lon="12.48620842829099"><ele>516.0</ele><time>2026-04-25T15:39:59.001Z</time></trkpt><trkpt lat="46.241128827701715" lon="12.486243268227652"><ele>522.0</ele><time>2026-04-25T15:40:00.001Z</time></trkpt><trkpt lat="46.240924217242714" lon="12.486265075738853"><ele>510.0</ele><time>2026-04-25T15:40:01.001Z</time></trkpt><trkpt lat="46.24071928047867" lon="12.486295437961667"><ele>498.0</ele><time>2026-04-25T15:40:02.001Z</time></trkpt><trkpt lat="46.240519576648126" lon="12.48633255067199"><ele>486.0</ele><time>2026-04-25T15:40:03.001Z</time></trkpt><trkpt lat="46.24033177596497" lon="12.486370962350426"><ele>486.0</ele><time>2026-04-25T15:40:04.001Z</time></trkpt><trkpt lat="46.24015584704875" lon="12.486408890659627"><ele>486.0</ele><time>2026-04-25T15:40:05.001Z</time></trkpt><trkpt lat="46.23999776879199" lon="12.486442600959835"><ele>486.0</ele><time>2026-04-25T15:40:06.001Z</time></trkpt><trkpt lat="46.23985036752619" lon="12.486472821603511"><ele>493.66666666666663</ele><time>2026-04-25T15:40:07.001Z</time></trkpt><trkpt lat="46.23971395399254" lon="12.486518401349704"><ele>501.3333333333333</ele><time>2026-04-25T15:40:08Z</time></trkpt><trkpt lat="46.23958010712734" lon="12.486604952160228"><ele>509.0</ele><time>2026-04-25T15:40:09Z</time></trkpt><trkpt lat="46.23944615857921" lon="12.48676211667899"><ele>509.0</ele><time>2026-04-25T15:40:10Z</time></trkpt><trkpt lat="46.23931325069732" lon="12.486960906939034"><ele>509.0</ele><time>2026-04-25T15:40:11Z</time></trkpt><trkpt lat="46.239166797660666" lon="12.487179242768883"><ele>509.0</ele><time>2026-04-25T15:40:12Z</time></trkpt><trkpt lat="46.23902040013376" lon="12.487387622204134"><ele>512.0</ele><time>2026-04-25T15:40:13Z</time></trkpt><trkpt lat="46.23889115192608" lon="12.48756997233769"><ele>515.0</ele><time>2026-04-25T15:40:14Z</time></trkpt><trkpt lat="46.23876785802284" lon="12.487732935834838"><ele>518.0</ele><time>2026-04-25T15:40:15Z</time></trkpt><trkpt lat="46.238638425124606" lon="12.487873650130712"><ele>509.0</ele><time>2026-04-25T15:40:16Z</time></trkpt><trkpt lat="46.23849222730395" lon="12.487989859513783"><ele>500.0</ele><time>2026-04-25T15:40:17Z</time></trkpt><trkpt lat="46.2383188232774" lon="12.488064383314333"><ele>491.0</ele><time>2026-04-25T15:40:18Z</time></trkpt><trkpt lat="46.23812565403846" lon="12.48812025628271"><ele>491.0</ele><time>2026-04-25T15:40:19Z</time></trkpt><trkpt lat="46.23793665301579" lon="12.48820014361862"><ele>491.0</ele><time>2026-04-25T15:40:20Z</time></trkpt><trkpt lat="46.237771984520634" lon="12.488336398812558"><ele>491.0</ele><time>2026-04-25T15:40:21Z</time></trkpt><trkpt lat="46.23763182884088" lon="12.488459042237903"><ele>491.0</ele><time>2026-04-25T15:40:22Z</time></trkpt><trkpt lat="46.23747195721247" lon="12.488552254529521"><ele>491.0</ele><time>2026-04-25T15:40:23Z</time></trkpt><trkpt lat="46.23728791180823" lon="12.488629625163561"><ele>491.0</ele><time>2026-04-25T15:40:24Z</time></trkpt><trkpt lat="46.23709148378857" lon="12.488687610186348"><ele>492.3333333333333</ele><time>2026-04-25T15:40:25Z</time></trkpt><trkpt lat="46.236905372991906" lon="12.488715741690225"><ele>493.66666666666663</ele><time>2026-04-25T15:40:26Z</time></trkpt><trkpt lat="46.236718200758226" lon="12.488706066944317"><ele>495.0</ele><time>2026-04-25T15:40:27Z</time></trkpt><trkpt lat="46.23652034124234" lon="12.488656285191398"><ele>491.66666666666663</ele><time>2026-04-25T15:40:28Z</time></trkpt><trkpt lat="46.23631850082504" lon="12.488588003285319"><ele>488.3333333333333</ele><time>2026-04-25T15:40:29Z</time></trkpt><trkpt lat="46.236105323983615" lon="12.48853696927993"><ele>485.0</ele><time>2026-04-25T15:40:30Z</time></trkpt><trkpt lat="46.235916665009626" lon="12.488501850031756"><ele>485.0</ele><time>2026-04-25T15:40:31Z</time></trkpt><trkpt lat="46.23572785943836" lon="12.488459398411557"><ele>485.0</ele><time>2026-04-25T15:40:32Z</time></trkpt><trkpt lat="46.235529198868456" lon="12.488429844651103"><ele>485.0</ele><time>2026-04-25T15:40:33Z</time></trkpt><trkpt lat="46.23532604318572" lon="12.488431265868185"><ele>483.3333333333333</ele><time>2026-04-25T15:40:34Z</time></trkpt><trkpt lat="46.23512441227029" lon="12.488451431830063"><ele>481.66666666666663</ele><time>2026-04-25T15:40:35Z</time></trkpt><trkpt lat="46.23492837836001" lon="12.488496825989193"><ele>480.0</ele><time>2026-04-25T15:40:36Z</time></trkpt><trkpt lat="46.234746343662955" lon="12.488562729606402"><ele>480.0</ele><time>2026-04-25T15:40:37Z</time></trkpt><trkpt lat="46.23456947985732" lon="12.48862545020493"><ele>480.0</ele><time>2026-04-25T15:40:38Z</time></trkpt><trkpt lat="46.23439205860274" lon="12.488647087542198"><ele>480.0</ele><time>2026-04-25T15:40:39Z</time></trkpt><trkpt lat="46.23422742313436" lon="12.488623460534622"><ele>480.0</ele><time>2026-04-25T15:40:40Z</time></trkpt><trkpt lat="46.234066346855826" lon="12.488544703440292"><ele>480.0</ele><time>2026-04-25T15:40:41Z</time></trkpt><trkpt lat="46.2338911416015" lon="12.488414546465672"><ele>480.0</ele><time>2026-04-25T15:40:42Z</time></trkpt><trkpt lat="46.233695516755446" lon="12.488261772149867"><ele>476.5</ele><time>2026-04-25T15:40:43Z</time></trkpt><trkpt lat="46.23348336619768" lon="12.488101526728208"><ele>473.0</ele><time>2026-04-25T15:40:44Z</time></trkpt><trkpt lat="46.23327929129805" lon="12.4879451727701"><ele>474.0</ele><time>2026-04-25T15:40:45Z</time></trkpt><trkpt lat="46.23309577409906" lon="12.48781298730171"><ele>475.0</ele><time>2026-04-25T15:40:46Z</time></trkpt><trkpt lat="46.23290920242852" lon="12.487670731040932"><ele>476.0</ele><time>2026-04-25T15:40:47Z</time></trkpt><trkpt lat="46.23272537881383" lon="12.48750343232689"><ele>476.0</ele><time>2026-04-25T15:40:48Z</time></trkpt><trkpt lat="46.232545421685934" lon="12.48732459641471"><ele>476.0</ele><time>2026-04-25T15:40:49Z</time></trkpt><trkpt lat="46.23236784985704" lon="12.487158805477508"><ele>476.0</ele><time>2026-04-25T15:40:50Z</time></trkpt><trkpt lat="46.23218871778576" lon="12.487000988454817"><ele>474.66666666666663</ele><time>2026-04-25T15:40:51Z</time></trkpt><trkpt lat="46.23201405665148" lon="12.486849347958374"><ele>473.33333333333337</ele><time>2026-04-25T15:40:52Z</time></trkpt><trkpt lat="46.231841905959676" lon="12.486693073477877"><ele>472.0</ele><time>2026-04-25T15:40:53Z</time></trkpt><trkpt lat="46.23166803792907" lon="12.486520223357465"><ele>472.0</ele><time>2026-04-25T15:40:54Z</time></trkpt><trkpt lat="46.23149645094927" lon="12.486331677571487"><ele>472.0</ele><time>2026-04-25T15:40:55Z</time></trkpt><trkpt lat="46.2313231565124" lon="12.486141155320821"><ele>472.0</ele><time>2026-04-25T15:40:56Z</time></trkpt><trkpt lat="46.2311556292709" lon="12.485979805457315"><ele>473.33333333333337</ele><time>2026-04-25T15:40:57Z</time></trkpt><trkpt lat="46.2309993197414" lon="12.485845164273991"><ele>474.66666666666663</ele><time>2026-04-25T15:40:58Z</time></trkpt><trkpt lat="46.23085019665057" lon="12.485728927323724"><ele>476.0</ele><time>2026-04-25T15:40:59Z</time></trkpt><trkpt lat="46.23068716039084" lon="12.48564137218543"><ele>475.3333333333333</ele><time>2026-04-25T15:41:00Z</time></trkpt><trkpt lat="46.23049382350163" lon="12.48560813631707"><ele>474.66666666666663</ele><time>2026-04-25T15:41:01Z</time></trkpt><trkpt lat="46.23030071079789" lon="12.48560609376088"><ele>474.0</ele><time>2026-04-25T15:41:02Z</time></trkpt><trkpt lat="46.23012365088063" lon="12.485613334509276"><ele>474.0</ele><time>2026-04-25T15:41:03Z</time></trkpt><trkpt lat="46.22993883848307" lon="12.485662308491865"><ele>474.0</ele><time>2026-04-25T15:41:04Z</time></trkpt><trkpt lat="46.22974266596495" lon="12.485787171391943"><ele>474.0</ele><time>2026-04-25T15:41:05Z</time></trkpt><trkpt lat="46.22952990752227" lon="12.485945235287138"><ele>476.5</ele><time>2026-04-25T15:41:06Z</time></trkpt><trkpt lat="46.229327243618954" lon="12.486083697345887"><ele>479.0</ele><time>2026-04-25T15:41:07Z</time></trkpt><trkpt lat="46.229118711132955" lon="12.486212045700817"><ele>472.0</ele><time>2026-04-25T15:41:08Z</time></trkpt><trkpt lat="46.22889868764812" lon="12.486328272940481"><ele>465.0</ele><time>2026-04-25T15:41:09Z</time></trkpt><trkpt lat="46.22869096840679" lon="12.486415270219924"><ele>465.0</ele><time>2026-04-25T15:41:10Z</time></trkpt><trkpt lat="46.22849141761408" lon="12.48647632804082"><ele>465.0</ele><time>2026-04-25T15:41:11Z</time></trkpt><trkpt lat="46.22829367932172" lon="12.486533429875859"><ele>465.0</ele><time>2026-04-25T15:41:12Z</time></trkpt><trkpt lat="46.22811056946754" lon="12.486591130868"><ele>468.33333333333337</ele><time>2026-04-25T15:41:13Z</time></trkpt><trkpt lat="46.22793252339265" lon="12.486626571741622"><ele>471.6666666666667</ele><time>2026-04-25T15:41:14Z</time></trkpt><trkpt lat="46.22776120361337" lon="12.486616992451674"><ele>475.0</ele><time>2026-04-25T15:41:15Z</time></trkpt><trkpt lat="46.22759482836219" lon="12.486589229727649"><ele>475.0</ele><time>2026-04-25T15:41:16Z</time></trkpt><trkpt lat="46.22742398213086" lon="12.486637489234006"><ele>475.0</ele><time>2026-04-25T15:41:17Z</time></trkpt><trkpt lat="46.227238739120565" lon="12.486769013636133"><ele>475.0</ele><time>2026-04-25T15:41:18Z</time></trkpt><trkpt lat="46.227042765158124" lon="12.48694790672983"><ele>472.5</ele><time>2026-04-25T15:41:19Z</time></trkpt><trkpt lat="46.22683826831754" lon="12.487127820769544"><ele>470.0</ele><time>2026-04-25T15:41:20Z</time></trkpt><trkpt lat="46.22664559834523" lon="12.487298538447424"><ele>470.66666666666663</ele><time>2026-04-25T15:41:21Z</time></trkpt><trkpt lat="46.226466668630785" lon="12.487481487867642"><ele>471.33333333333337</ele><time>2026-04-25T15:41:22Z</time></trkpt><trkpt lat="46.22629960975224" lon="12.487700992286841"><ele>472.0</ele><time>2026-04-25T15:41:23Z</time></trkpt><trkpt lat="46.22613937268189" lon="12.487946296972869"><ele>472.0</ele><time>2026-04-25T15:41:24Z</time></trkpt><trkpt lat="46.22599271420293" lon="12.488172987608968"><ele>472.0</ele><time>2026-04-25T15:41:25Z</time></trkpt><trkpt lat="46.225843948236815" lon="12.48839363346775"><ele>472.0</ele><time>2026-04-25T15:41:26Z</time></trkpt><trkpt lat="46.225693763827245" lon="12.488602940483698"><ele>474.6666666666667</ele><time>2026-04-25T15:41:27Z</time></trkpt><trkpt lat="46.22554767235614" lon="12.488810657669386"><ele>477.33333333333337</ele><time>2026-04-25T15:41:28Z</time></trkpt><trkpt lat="46.225403813302435" lon="12.489011741759398"><ele>480.0</ele><time>2026-04-25T15:41:29Z</time></trkpt><trkpt lat="46.22526175102227" lon="12.4892049966699"><ele>480.0</ele><time>2026-04-25T15:41:30Z</time></trkpt><trkpt lat="46.2251181839482" lon="12.489394634786837"><ele>480.0</ele><time>2026-04-25T15:41:31Z</time></trkpt><trkpt lat="46.224975571419485" lon="12.48957729871364"><ele>480.0</ele><time>2026-04-25T15:41:32Z</time></trkpt><trkpt lat="46.224836218053845" lon="12.489759914970856"><ele>481.0</ele><time>2026-04-25T15:41:33Z</time></trkpt><trkpt lat="46.224700413424124" lon="12.489944060764643"><ele>482.0</ele><time>2026-04-25T15:41:34Z</time></trkpt><trkpt lat="46.224565476361576" lon="12.490132905095043"><ele>483.0</ele><time>2026-04-25T15:41:35Z</time></trkpt><trkpt lat="46.22443037147289" lon="12.490316292740083"><ele>475.33333333333337</ele><time>2026-04-25T15:41:36Z</time></trkpt><trkpt lat="46.22428324274301" lon="12.49048490708325"><ele>467.6666666666667</ele><time>2026-04-25T15:41:37Z</time></trkpt><trkpt lat="46.22413387277973" lon="12.490647047538832"><ele>460.0</ele><time>2026-04-25T15:41:38Z</time></trkpt><trkpt lat="46.22399373192561" lon="12.490789938842523"><ele>472.33333333333337</ele><time>2026-04-25T15:41:39Z</time></trkpt><trkpt lat="46.223849326165166" lon="12.490916384873055"><ele>484.66666666666663</ele><time>2026-04-25T15:41:40Z</time></trkpt><trkpt lat="46.223704370728406" lon="12.49102148545017"><ele>497.0</ele><time>2026-04-25T15:41:41Z</time></trkpt><trkpt lat="46.223557332220345" lon="12.491134062970067"><ele>497.0</ele><time>2026-04-25T15:41:42Z</time></trkpt><trkpt lat="46.22340471189304" lon="12.491241885226456"><ele>497.0</ele><time>2026-04-25T15:41:43Z</time></trkpt><trkpt lat="46.22324828165294" lon="12.491342067407617"><ele>497.0</ele><time>2026-04-25T15:41:44Z</time></trkpt><trkpt lat="46.223095270973886" lon="12.491455218324875"><ele>490.0</ele><time>2026-04-25T15:41:45Z</time></trkpt><trkpt lat="46.22275363339061" lon="12.491648334975084"><ele>483.0</ele><time>2026-04-25T15:41:46Z</time></trkpt><trkpt lat="46.22255669650745" lon="12.49177273801505"><ele>469.0</ele><time>2026-04-25T15:41:47.06Z</time></trkpt><trkpt lat="46.221881315758075" lon="12.492533647136103"><ele>469.0</ele><time>2026-04-25T15:41:51Z</time></trkpt><trkpt lat="46.22171800407268" lon="12.492606168371433"><ele>469.0</ele><time>2026-04-25T15:41:51.999Z</time></trkpt><trkpt lat="46.22154491364851" lon="12.49274677030281"><ele>469.0</ele><time>2026-04-25T15:41:52.999Z</time></trkpt><trkpt lat="46.22137500451531" lon="12.492860751536"><ele>465.0</ele><time>2026-04-25T15:41:53.999Z</time></trkpt><trkpt lat="46.22120121122756" lon="12.49295855408901"><ele>461.0</ele><time>2026-04-25T15:41:54.999Z</time></trkpt><trkpt lat="46.221025518580795" lon="12.493063446336425"><ele>457.0</ele><time>2026-04-25T15:41:55.999Z</time></trkpt><trkpt lat="46.22084871086623" lon="12.49319688094577"><ele>457.0</ele><time>2026-04-25T15:41:56.999Z</time></trkpt><trkpt lat="46.22066795513386" lon="12.493377387782552"><ele>457.0</ele><time>2026-04-25T15:41:57.999Z</time></trkpt><trkpt lat="46.220494721648954" lon="12.493572661266693"><ele>457.0</ele><time>2026-04-25T15:41:59Z</time></trkpt><trkpt lat="46.22033155070748" lon="12.493804135726704"><ele>456.33333333333337</ele><time>2026-04-25T15:42:00Z</time></trkpt><trkpt lat="46.22017081763582" lon="12.494006973303179"><ele>455.66666666666663</ele><time>2026-04-25T15:42:01Z</time></trkpt><trkpt lat="46.22001953272388" lon="12.494188320502202"><ele>455.0</ele><time>2026-04-25T15:42:02Z</time></trkpt><trkpt lat="46.219860506265036" lon="12.494352524825203"><ele>456.66666666666663</ele><time>2026-04-25T15:42:03Z</time></trkpt><trkpt lat="46.21969448817285" lon="12.494504924535681"><ele>458.33333333333337</ele><time>2026-04-25T15:42:04Z</time></trkpt><trkpt lat="46.219536998176224" lon="12.494665785636428"><ele>460.0</ele><time>2026-04-25T15:42:05Z</time></trkpt><trkpt lat="46.219391524465046" lon="12.494865975846949"><ele>460.0</ele><time>2026-04-25T15:42:06Z</time></trkpt><trkpt lat="46.219259347429784" lon="12.495104348318527"><ele>460.0</ele><time>2026-04-25T15:42:07Z</time></trkpt><trkpt lat="46.21912923077447" lon="12.495339442579057"><ele>460.0</ele><time>2026-04-25T15:42:08Z</time></trkpt><trkpt lat="46.2189943398785" lon="12.495569888144248"><ele>463.33333333333337</ele><time>2026-04-25T15:42:09Z</time></trkpt><trkpt lat="46.21886743528273" lon="12.495783736744032"><ele>466.66666666666663</ele><time>2026-04-25T15:42:10Z</time></trkpt><trkpt lat="46.21874095330633" lon="12.495982977107746"><ele>470.0</ele><time>2026-04-25T15:42:11Z</time></trkpt><trkpt lat="46.21859768948892" lon="12.49618277054266"><ele>463.66666666666663</ele><time>2026-04-25T15:42:12Z</time></trkpt><trkpt lat="46.21846506037717" lon="12.496353924245902"><ele>457.33333333333337</ele><time>2026-04-25T15:42:13Z</time></trkpt><trkpt lat="46.218339920778" lon="12.49652704842794"><ele>451.0</ele><time>2026-04-25T15:42:14Z</time></trkpt><trkpt lat="46.21822480769804" lon="12.496717590430432"><ele>461.6666666666667</ele><time>2026-04-25T15:42:15Z</time></trkpt><trkpt lat="46.218117638319875" lon="12.4969331191836"><ele>472.33333333333337</ele><time>2026-04-25T15:42:16Z</time></trkpt><trkpt lat="46.218025523736515" lon="12.49717192571128"><ele>483.0</ele><time>2026-04-25T15:42:17Z</time></trkpt><trkpt lat="46.217952872309944" lon="12.497430252688433"><ele>483.0</ele><time>2026-04-25T15:42:18Z</time></trkpt><trkpt lat="46.21789786367343" lon="12.497692792256714"><ele>483.0</ele><time>2026-04-25T15:42:19Z</time></trkpt><trkpt lat="46.217851747885064" lon="12.4979555281969"><ele>483.0</ele><time>2026-04-25T15:42:20Z</time></trkpt><trkpt lat="46.21780428300404" lon="12.498217739797887"><ele>478.66666666666663</ele><time>2026-04-25T15:42:21Z</time></trkpt><trkpt lat="46.21773953176333" lon="12.49848909553945"><ele>474.3333333333333</ele><time>2026-04-25T15:42:22Z</time></trkpt><trkpt lat="46.21765532357743" lon="12.498756351281632"><ele>470.0</ele><time>2026-04-25T15:42:23Z</time></trkpt><trkpt lat="46.21756352678582" lon="12.499023544301009"><ele>473.3333333333333</ele><time>2026-04-25T15:42:24Z</time></trkpt><trkpt lat="46.21745883286696" lon="12.499296166460258"><ele>476.66666666666663</ele><time>2026-04-25T15:42:25Z</time></trkpt><trkpt lat="46.21734994567881" lon="12.49955728386952"><ele>480.0</ele><time>2026-04-25T15:42:26Z</time></trkpt><trkpt lat="46.21723783918789" lon="12.499805993353846"><ele>480.0</ele><time>2026-04-25T15:42:27Z</time></trkpt><trkpt lat="46.21711117958141" lon="12.500055568901223"><ele>480.0</ele><time>2026-04-25T15:42:28Z</time></trkpt><trkpt lat="46.21697356397155" lon="12.500298994367448"><ele>480.0</ele><time>2026-04-25T15:42:29Z</time></trkpt><trkpt lat="46.21683526205904" lon="12.500539452435742"><ele>472.33333333333337</ele><time>2026-04-25T15:42:30Z</time></trkpt><trkpt lat="46.21670324522496" lon="12.500770408767238"><ele>464.6666666666667</ele><time>2026-04-25T15:42:31Z</time></trkpt><trkpt lat="46.21657479727425" lon="12.500995035305305"><ele>457.0</ele><time>2026-04-25T15:42:32Z</time></trkpt><trkpt lat="46.216448035507696" lon="12.501213724557172"><ele>465.0</ele><time>2026-04-25T15:42:33Z</time></trkpt><trkpt lat="46.21632592057464" lon="12.501431848643737"><ele>473.0</ele><time>2026-04-25T15:42:34Z</time></trkpt><trkpt lat="46.21621072985935" lon="12.501662699918297"><ele>481.0</ele><time>2026-04-25T15:42:35Z</time></trkpt><trkpt lat="46.216101609572156" lon="12.501906484070538"><ele>475.0</ele><time>2026-04-25T15:42:36Z</time></trkpt><trkpt lat="46.21600089814326" lon="12.502158002134918"><ele>469.0</ele><time>2026-04-25T15:42:37Z</time></trkpt><trkpt lat="46.21590901449019" lon="12.50240860532736"><ele>463.0</ele><time>2026-04-25T15:42:38Z</time></trkpt><trkpt lat="46.215832275226006" lon="12.502669039274307"><ele>459.6666666666667</ele><time>2026-04-25T15:42:39Z</time></trkpt><trkpt lat="46.21576808555004" lon="12.502952774088598"><ele>456.33333333333337</ele><time>2026-04-25T15:42:40Z</time></trkpt><trkpt lat="46.21570020804653" lon="12.50324223990364"><ele>453.0</ele><time>2026-04-25T15:42:41Z</time></trkpt><trkpt lat="46.215627186823944" lon="12.503519624211508"><ele>469.0</ele><time>2026-04-25T15:42:42Z</time></trkpt><trkpt lat="46.21556409964953" lon="12.503797131980178"><ele>485.0</ele><time>2026-04-25T15:42:43Z</time></trkpt><trkpt lat="46.21551569394212" lon="12.504080209611784"><ele>501.0</ele><time>2026-04-25T15:42:44Z</time></trkpt><trkpt lat="46.21547529813311" lon="12.504365397814167"><ele>496.0</ele><time>2026-04-25T15:42:45Z</time></trkpt><trkpt lat="46.21543197154107" lon="12.504649966724065"><ele>491.0</ele><time>2026-04-25T15:42:46Z</time></trkpt><trkpt lat="46.21538533532453" lon="12.50493481708325"><ele>486.0</ele><time>2026-04-25T15:42:47Z</time></trkpt><trkpt lat="46.21532979856356" lon="12.505211122296796"><ele>480.33333333333337</ele><time>2026-04-25T15:42:48Z</time></trkpt><trkpt lat="46.215272664389175" lon="12.50547841079871"><ele>474.6666666666667</ele><time>2026-04-25T15:42:49Z</time></trkpt><trkpt lat="46.215215044396544" lon="12.505737886021928"><ele>469.0</ele><time>2026-04-25T15:42:50Z</time></trkpt><trkpt lat="46.21516025378122" lon="12.505995696527298"><ele>463.33333333333337</ele><time>2026-04-25T15:42:51Z</time></trkpt><trkpt lat="46.215099970521194" lon="12.506250477116192"><ele>457.66666666666663</ele><time>2026-04-25T15:42:52Z</time></trkpt><trkpt lat="46.21502500181529" lon="12.50650160982192"><ele>452.0</ele><time>2026-04-25T15:42:53Z</time></trkpt><trkpt lat="46.21493132950692" lon="12.506756482081766"><ele>452.0</ele><time>2026-04-25T15:42:54Z</time></trkpt><trkpt lat="46.21483704768091" lon="12.507006918734064"><ele>452.0</ele><time>2026-04-25T15:42:55Z</time></trkpt><trkpt lat="46.214739488219" lon="12.507250061644424"><ele>452.0</ele><time>2026-04-25T15:42:56Z</time></trkpt><trkpt lat="46.214636728377506" lon="12.507503648131884"><ele>453.66666666666663</ele><time>2026-04-25T15:42:57Z</time></trkpt><trkpt lat="46.21451813355921" lon="12.507763668262697"><ele>455.33333333333337</ele><time>2026-04-25T15:42:58Z</time></trkpt><trkpt lat="46.214391755679465" lon="12.508028415885125"><ele>457.0</ele><time>2026-04-25T15:42:59Z</time></trkpt><trkpt lat="46.214269537408555" lon="12.508269282417274"><ele>457.0</ele><time>2026-04-25T15:43:00Z</time></trkpt><trkpt lat="46.21414860429681" lon="12.508499394180062"><ele>457.0</ele><time>2026-04-25T15:43:01Z</time></trkpt><trkpt lat="46.21402869653483" lon="12.508724156900238"><ele>457.0</ele><time>2026-04-25T15:43:02Z</time></trkpt><trkpt lat="46.21391045839873" lon="12.508937271741488"><ele>460.33333333333337</ele><time>2026-04-25T15:43:03Z</time></trkpt><trkpt lat="46.213793843820994" lon="12.509142638087726"><ele>463.66666666666663</ele><time>2026-04-25T15:43:04Z</time></trkpt><trkpt lat="46.213681530657944" lon="12.509341482959437"><ele>467.0</ele><time>2026-04-25T15:43:05Z</time></trkpt><trkpt lat="46.213575733467856" lon="12.509538632699135"><ele>460.0</ele><time>2026-04-25T15:43:06Z</time></trkpt><trkpt lat="46.21347719278777" lon="12.50972272801185"><ele>453.0</ele><time>2026-04-25T15:43:07Z</time></trkpt><trkpt lat="46.21338108389996" lon="12.509889032706223"><ele>446.0</ele><time>2026-04-25T15:43:08Z</time></trkpt><trkpt lat="46.213269363450124" lon="12.510047053649126"><ele>445.3333333333333</ele><time>2026-04-25T15:43:09Z</time></trkpt><trkpt lat="46.21314313155135" lon="12.510184893736858"><ele>444.66666666666663</ele><time>2026-04-25T15:43:10Z</time></trkpt><trkpt lat="46.213011036394136" lon="12.510311647183103"><ele>444.0</ele><time>2026-04-25T15:43:11Z</time></trkpt><trkpt lat="46.212886093347095" lon="12.510440299648353"><ele>441.75</ele><time>2026-04-25T15:43:12Z</time></trkpt><trkpt lat="46.21276805760793" lon="12.510572063113521"><ele>439.5</ele><time>2026-04-25T15:43:13Z</time></trkpt><trkpt lat="46.21265464269311" lon="12.510705640478436"><ele>437.25</ele><time>2026-04-25T15:43:14Z</time></trkpt><trkpt lat="46.2125468187857" lon="12.510828320415422"><ele>435.0</ele><time>2026-04-25T15:43:15Z</time></trkpt><trkpt lat="46.21244731135996" lon="12.510940946301666"><ele>435.0</ele><time>2026-04-25T15:43:16Z</time></trkpt><trkpt lat="46.212353175365145" lon="12.511037210037815"><ele>435.0</ele><time>2026-04-25T15:43:17Z</time></trkpt><trkpt lat="46.2122504408685" lon="12.511107678921677"><ele>435.0</ele><time>2026-04-25T15:43:18Z</time></trkpt><trkpt lat="46.212131867790816" lon="12.511130487903902"><ele>435.0</ele><time>2026-04-25T15:43:19Z</time></trkpt><trkpt lat="46.21200143257108" lon="12.511078610061807"><ele>438.33333333333337</ele><time>2026-04-25T15:43:20Z</time></trkpt><trkpt lat="46.211875819394564" lon="12.510957583381503"><ele>441.6666666666667</ele><time>2026-04-25T15:43:21Z</time></trkpt><trkpt lat="46.211755227235535" lon="12.510770178210226"><ele>445.0</ele><time>2026-04-25T15:43:22Z</time></trkpt><trkpt lat="46.211629898403736" lon="12.510560081857102"><ele>441.6666666666667</ele><time>2026-04-25T15:43:23Z</time></trkpt><trkpt lat="46.21150521414861" lon="12.510381045699974"><ele>438.33333333333337</ele><time>2026-04-25T15:43:24Z</time></trkpt><trkpt lat="46.21137953955315" lon="12.510222170356876"><ele>435.0</ele><time>2026-04-25T15:43:25Z</time></trkpt><trkpt lat="46.21124944115173" lon="12.5100579290027"><ele>435.75</ele><time>2026-04-25T15:43:26Z</time></trkpt><trkpt lat="46.2111247100286" lon="12.50990751360036"><ele>436.5</ele><time>2026-04-25T15:43:27Z</time></trkpt><trkpt lat="46.211013010098604" lon="12.509775962516196"><ele>437.25</ele><time>2026-04-25T15:43:28Z</time></trkpt><trkpt lat="46.2109123318406" lon="12.509657849819767"><ele>438.0</ele><time>2026-04-25T15:43:29Z</time></trkpt><trkpt lat="46.2108223544433" lon="12.509548969373647"><ele>438.0</ele><time>2026-04-25T15:43:30Z</time></trkpt><trkpt lat="46.210733097978355" lon="12.509446186928601"><ele>437.99999999999994</ele><time>2026-04-25T15:43:31Z</time></trkpt><trkpt lat="46.21064499393168" lon="12.509346233410424"><ele>437.99999999999994</ele><time>2026-04-25T15:43:32Z</time></trkpt><trkpt lat="46.21056255976319" lon="12.50924300021997"><ele>438.0</ele><time>2026-04-25T15:43:33Z</time></trkpt><trkpt lat="46.21048171022586" lon="12.509154637544599"><ele>438.0</ele><time>2026-04-25T15:43:34Z</time></trkpt><trkpt lat="46.21039446446161" lon="12.5090825924985"><ele>437.79999999999995</ele><time>2026-04-25T15:43:35Z</time></trkpt><trkpt lat="46.210295268399086" lon="12.509030801619792"><ele>437.59999999999997</ele><time>2026-04-25T15:43:36Z</time></trkpt><trkpt lat="46.210191069294325" lon="12.509006774806075"><ele>437.40000000000003</ele><time>2026-04-25T15:43:37Z</time></trkpt><trkpt lat="46.2100891882089" lon="12.509006175715543"><ele>437.20000000000005</ele><time>2026-04-25T15:43:38Z</time></trkpt><trkpt lat="46.20999035799598" lon="12.509037878192467"><ele>437.0</ele><time>2026-04-25T15:43:39Z</time></trkpt><trkpt lat="46.20989465311188" lon="12.509099076157437"><ele>436.40000000000003</ele><time>2026-04-25T15:43:40Z</time></trkpt><trkpt lat="46.20981582539375" lon="12.509191215140543"><ele>435.80000000000007</ele><time>2026-04-25T15:43:41Z</time></trkpt><trkpt lat="46.209751295154" lon="12.50930250566103"><ele>435.2</ele><time>2026-04-25T15:43:42Z</time></trkpt><trkpt lat="46.20969315302239" lon="12.509423169325887"><ele>434.6</ele><time>2026-04-25T15:43:43Z</time></trkpt><trkpt lat="46.20963277094673" lon="12.509532719517562"><ele>434.0</ele><time>2026-04-25T15:43:44Z</time></trkpt><trkpt lat="46.20957518356878" lon="12.509624837405113"><ele>436.0</ele><time>2026-04-25T15:43:45Z</time></trkpt><trkpt lat="46.20951433905992" lon="12.509698527516012"><ele>438.0</ele><time>2026-04-25T15:43:46Z</time></trkpt><trkpt lat="46.20944576100793" lon="12.509778500179266"><ele>440.0</ele><time>2026-04-25T15:43:47Z</time></trkpt><trkpt lat="46.209370250434986" lon="12.509858924832967"><ele>442.0</ele><time>2026-04-25T15:43:48Z</time></trkpt><trkpt lat="46.2092858390152" lon="12.509927479228605"><ele>444.0</ele><time>2026-04-25T15:43:49Z</time></trkpt><trkpt lat="46.209174800911" lon="12.509994917098195"><ele>444.0</ele><time>2026-04-25T15:43:50Z</time></trkpt><trkpt lat="46.20906864480369" lon="12.510085035077045"><ele>444.0</ele><time>2026-04-25T15:43:51Z</time></trkpt><trkpt lat="46.20896531328184" lon="12.510191289367363"><ele>444.0</ele><time>2026-04-25T15:43:51.999Z</time></trkpt><trkpt lat="46.20886734281525" lon="12.51030185175492"><ele>444.0</ele><time>2026-04-25T15:43:52.999Z</time></trkpt><trkpt lat="46.20877976410149" lon="12.510411710939048"><ele>442.75</ele><time>2026-04-25T15:43:53.999Z</time></trkpt><trkpt lat="46.20869497560375" lon="12.510542658610841"><ele>441.5</ele><time>2026-04-25T15:43:54.999Z</time></trkpt><trkpt lat="46.20862696210126" lon="12.51068159929148"><ele>440.25</ele><time>2026-04-25T15:43:55.999Z</time></trkpt><trkpt lat="46.208544907448676" lon="12.510798903262376"><ele>439.0</ele><time>2026-04-25T15:43:56.999Z</time></trkpt><trkpt lat="46.208487960082365" lon="12.51096477099694"><ele>439.0</ele><time>2026-04-25T15:43:57.999Z</time></trkpt><trkpt lat="46.208425548205895" lon="12.51112031944929"><ele>439.0</ele><time>2026-04-25T15:43:58.999Z</time></trkpt><trkpt lat="46.20835325729823" lon="12.511264736637502"><ele>439.0</ele><time>2026-04-25T15:43:59.999Z</time></trkpt><trkpt lat="46.20826497558261" lon="12.511407602381388"><ele>439.0</ele><time>2026-04-25T15:44:00.999Z</time></trkpt><trkpt lat="46.20816132433173" lon="12.51153498913327"><ele>438.5</ele><time>2026-04-25T15:44:01.999Z</time></trkpt><trkpt lat="46.20804982595684" lon="12.511655631123483"><ele>438.0</ele><time>2026-04-25T15:44:02.999Z</time></trkpt><trkpt lat="46.2079421128724" lon="12.511780413608372"><ele>437.5</ele><time>2026-04-25T15:44:03.999Z</time></trkpt><trkpt lat="46.20783973811294" lon="12.511904379203797"><ele>437.0</ele><time>2026-04-25T15:44:05Z</time></trkpt><trkpt lat="46.20773253520341" lon="12.512016274845106"><ele>436.25</ele><time>2026-04-25T15:44:06Z</time></trkpt><trkpt lat="46.20762184971251" lon="12.51212031810101"><ele>435.5</ele><time>2026-04-25T15:44:07Z</time></trkpt><trkpt lat="46.20750766250334" lon="12.512213787415792"><ele>434.75</ele><time>2026-04-25T15:44:08Z</time></trkpt><trkpt lat="46.20739110343363" lon="12.512305872159216"><ele>434.0</ele><time>2026-04-25T15:44:09Z</time></trkpt><trkpt lat="46.20728260114182" lon="12.512399680418236"><ele>434.0</ele><time>2026-04-25T15:44:10Z</time></trkpt><trkpt lat="46.2071773455775" lon="12.512480553061117"><ele>434.0</ele><time>2026-04-25T15:44:11Z</time></trkpt><trkpt lat="46.20708235131021" lon="12.512555292054628"><ele>434.0</ele><time>2026-04-25T15:44:12Z</time></trkpt><trkpt lat="46.20698480800027" lon="12.512633088211176"><ele>434.0</ele><time>2026-04-25T15:44:13Z</time></trkpt><trkpt lat="46.20688189587385" lon="12.512701125054406"><ele>434.0</ele><time>2026-04-25T15:44:14Z</time></trkpt><trkpt lat="46.20676907960924" lon="12.512757587731285"><ele>434.0</ele><time>2026-04-25T15:44:15Z</time></trkpt><trkpt lat="46.20665187447163" lon="12.512810233947055"><ele>434.0</ele><time>2026-04-25T15:44:16Z</time></trkpt><trkpt lat="46.20653285799207" lon="12.512868005103003"><ele>434.0</ele><time>2026-04-25T15:44:17Z</time></trkpt><trkpt lat="46.206407125748726" lon="12.512928119433449"><ele>438.25</ele><time>2026-04-25T15:44:18Z</time></trkpt><trkpt lat="46.206277185702" lon="12.512982122959324"><ele>442.5</ele><time>2026-04-25T15:44:19Z</time></trkpt><trkpt lat="46.20613835694612" lon="12.513038678947101"><ele>446.75</ele><time>2026-04-25T15:44:20Z</time></trkpt><trkpt lat="46.20600140054393" lon="12.51309315229216"><ele>451.0</ele><time>2026-04-25T15:44:21Z</time></trkpt><trkpt lat="46.205867961876606" lon="12.513149005755748"><ele>451.0</ele><time>2026-04-25T15:44:22Z</time></trkpt><trkpt lat="46.20574497256945" lon="12.513224605251272"><ele>451.0</ele><time>2026-04-25T15:44:23Z</time></trkpt><trkpt lat="46.20562109863765" lon="12.513304601867093"><ele>451.0</ele><time>2026-04-25T15:44:24Z</time></trkpt><trkpt lat="46.205495558936995" lon="12.51337988873615"><ele>451.0</ele><time>2026-04-25T15:44:25Z</time></trkpt><trkpt lat="46.20537068662129" lon="12.513452537664659"><ele>450.5</ele><time>2026-04-25T15:44:26Z</time></trkpt><trkpt lat="46.2052506171188" lon="12.513529292396699"><ele>450.0</ele><time>2026-04-25T15:44:27Z</time></trkpt><trkpt lat="46.2051342327402" lon="12.513604078526443"><ele>449.5</ele><time>2026-04-25T15:44:28Z</time></trkpt><trkpt lat="46.20502004359361" lon="12.513680512617933"><ele>449.0</ele><time>2026-04-25T15:44:29Z</time></trkpt><trkpt lat="46.20490744510655" lon="12.513761119213113"><ele>444.0</ele><time>2026-04-25T15:44:30Z</time></trkpt><trkpt lat="46.204798848526046" lon="12.513864020561801"><ele>439.0</ele><time>2026-04-25T15:44:31Z</time></trkpt><trkpt lat="46.204686459788476" lon="12.513973911610258"><ele>434.0</ele><time>2026-04-25T15:44:32Z</time></trkpt><trkpt lat="46.20456474442958" lon="12.514072919582903"><ele>429.0</ele><time>2026-04-25T15:44:33Z</time></trkpt><trkpt lat="46.20444518266277" lon="12.514176378451058"><ele>429.0</ele><time>2026-04-25T15:44:34Z</time></trkpt><trkpt lat="46.20432810343591" lon="12.514279431938432"><ele>429.0</ele><time>2026-04-25T15:44:35Z</time></trkpt><trkpt lat="46.20421424862175" lon="12.514388864402315"><ele>429.0</ele><time>2026-04-25T15:44:36Z</time></trkpt><trkpt lat="46.20410548695511" lon="12.51450411254443"><ele>429.0</ele><time>2026-04-25T15:44:37Z</time></trkpt><trkpt lat="46.204000010946245" lon="12.51463317096667"><ele>429.25</ele><time>2026-04-25T15:44:38Z</time></trkpt><trkpt lat="46.20391162949713" lon="12.514786885917374"><ele>429.5</ele><time>2026-04-25T15:44:39Z</time></trkpt><trkpt lat="46.203827401052216" lon="12.514952218556354"><ele>429.75</ele><time>2026-04-25T15:44:40Z</time></trkpt><trkpt lat="46.203733055169266" lon="12.515111543998119"><ele>430.0</ele><time>2026-04-25T15:44:41Z</time></trkpt><trkpt lat="46.203624979758416" lon="12.515250233190876"><ele>430.0</ele><time>2026-04-25T15:44:42Z</time></trkpt><trkpt lat="46.20351702532455" lon="12.515389529888896"><ele>430.0</ele><time>2026-04-25T15:44:43Z</time></trkpt><trkpt lat="46.2034126544987" lon="12.515505653750003"><ele>430.0</ele><time>2026-04-25T15:44:44Z</time></trkpt><trkpt lat="46.203315752288994" lon="12.515614616257322"><ele>430.0</ele><time>2026-04-25T15:44:45Z</time></trkpt><trkpt lat="46.20320597675521" lon="12.515710232575376"><ele>427.75</ele><time>2026-04-25T15:44:46Z</time></trkpt><trkpt lat="46.203089375588384" lon="12.515793279110245"><ele>425.5</ele><time>2026-04-25T15:44:47Z</time></trkpt><trkpt lat="46.20298063714695" lon="12.51588460335108"><ele>423.25</ele><time>2026-04-25T15:44:48Z</time></trkpt><trkpt lat="46.20288919840683" lon="12.516002815920984"><ele>421.0</ele><time>2026-04-25T15:44:49Z</time></trkpt><trkpt lat="46.20281325012931" lon="12.516144065898931"><ele>426.0</ele><time>2026-04-25T15:44:50Z</time></trkpt><trkpt lat="46.202749530733065" lon="12.516305153421426"><ele>431.0</ele><time>2026-04-25T15:44:51Z</time></trkpt><trkpt lat="46.20267856702675" lon="12.516451244036093"><ele>436.0</ele><time>2026-04-25T15:44:52Z</time></trkpt><trkpt lat="46.202598510763465" lon="12.516582520675914"><ele>441.0</ele><time>2026-04-25T15:44:53Z</time></trkpt><trkpt lat="46.20250761312029" lon="12.516706059725916"><ele>441.0</ele><time>2026-04-25T15:44:54Z</time></trkpt><trkpt lat="46.202408602138945" lon="12.516822958747573"><ele>441.0</ele><time>2026-04-25T15:44:55Z</time></trkpt><trkpt lat="46.202302238815186" lon="12.516938101232002"><ele>441.0</ele><time>2026-04-25T15:44:56Z</time></trkpt><trkpt lat="46.20220719743091" lon="12.517066640788716"><ele>441.0</ele><time>2026-04-25T15:44:57Z</time></trkpt><trkpt lat="46.20212084807976" lon="12.517208060154466"><ele>438.0</ele><time>2026-04-25T15:44:58Z</time></trkpt><trkpt lat="46.20204198859717" lon="12.517356293639633"><ele>435.0</ele><time>2026-04-25T15:44:59Z</time></trkpt><trkpt lat="46.20196449351793" lon="12.517513084681053"><ele>432.0</ele><time>2026-04-25T15:45:00Z</time></trkpt><trkpt lat="46.20189306846895" lon="12.517685369175132"><ele>429.0</ele><time>2026-04-25T15:45:01Z</time></trkpt><trkpt lat="46.20181584645879" lon="12.517849608043747"><ele>432.75</ele><time>2026-04-25T15:45:02Z</time></trkpt><trkpt lat="46.20173860785366" lon="12.518014564728535"><ele>436.5</ele><time>2026-04-25T15:45:03Z</time></trkpt><trkpt lat="46.20166076067935" lon="12.518181614755893"><ele>440.25</ele><time>2026-04-25T15:45:04Z</time></trkpt><trkpt lat="46.201582741316884" lon="12.518347535522194"><ele>444.0</ele><time>2026-04-25T15:45:05Z</time></trkpt><trkpt lat="46.20150124870634" lon="12.518510155295555"><ele>439.0</ele><time>2026-04-25T15:45:06Z</time></trkpt><trkpt lat="46.20142282986943" lon="12.518673571187275"><ele>434.0</ele><time>2026-04-25T15:45:07Z</time></trkpt><trkpt lat="46.2013422236665" lon="12.518839023287253"><ele>429.0</ele><time>2026-04-25T15:45:08Z</time></trkpt><trkpt lat="46.2012613738755" lon="12.518996613586413"><ele>424.0</ele><time>2026-04-25T15:45:09Z</time></trkpt><trkpt lat="46.20117766228232" lon="12.519156420428837"><ele>424.0</ele><time>2026-04-25T15:45:10Z</time></trkpt><trkpt lat="46.20109355969779" lon="12.519309359231318"><ele>424.0</ele><time>2026-04-25T15:45:11Z</time></trkpt><trkpt lat="46.20101741951941" lon="12.519460545547325"><ele>424.0</ele><time>2026-04-25T15:45:12Z</time></trkpt><trkpt lat="46.20095000267898" lon="12.519622404321773"><ele>424.0</ele><time>2026-04-25T15:45:13Z</time></trkpt><trkpt lat="46.200896586746715" lon="12.519796068079048"><ele>426.25</ele><time>2026-04-25T15:45:14Z</time></trkpt><trkpt lat="46.20085660284854" lon="12.519979650366682"><ele>428.5</ele><time>2026-04-25T15:45:15Z</time></trkpt><trkpt lat="46.20081852125055" lon="12.520173031972824"><ele>430.75</ele><time>2026-04-25T15:45:16Z</time></trkpt><trkpt lat="46.2007774789135" lon="12.520365047701903"><ele>433.0</ele><time>2026-04-25T15:45:17Z</time></trkpt><trkpt lat="46.200733179012474" lon="12.520559940242654"><ele>435.0</ele><time>2026-04-25T15:45:18Z</time></trkpt><trkpt lat="46.20068964704433" lon="12.520759201086591"><ele>437.0</ele><time>2026-04-25T15:45:19Z</time></trkpt><trkpt lat="46.20064829503121" lon="12.520954900438793"><ele>439.0</ele><time>2026-04-25T15:45:20Z</time></trkpt><trkpt lat="46.20060571677974" lon="12.52114797062538"><ele>441.0</ele><time>2026-04-25T15:45:21Z</time></trkpt><trkpt lat="46.20056107562377" lon="12.52134021287603"><ele>437.5</ele><time>2026-04-25T15:45:22Z</time></trkpt><trkpt lat="46.20051938474307" lon="12.521529574096258"><ele>434.0</ele><time>2026-04-25T15:45:23Z</time></trkpt><trkpt lat="46.20047721043982" lon="12.521718682107561"><ele>430.5</ele><time>2026-04-25T15:45:24Z</time></trkpt><trkpt lat="46.20043533567395" lon="12.521908671077478"><ele>427.0</ele><time>2026-04-25T15:45:25Z</time></trkpt><trkpt lat="46.20039578498981" lon="12.52209750303281"><ele>427.0</ele><time>2026-04-25T15:45:26Z</time></trkpt><trkpt lat="46.20035871386365" lon="12.522280182839088"><ele>427.0</ele><time>2026-04-25T15:45:27Z</time></trkpt><trkpt lat="46.20032521473191" lon="12.522461347345113"><ele>427.0</ele><time>2026-04-25T15:45:28Z</time></trkpt><trkpt lat="46.200298212249685" lon="12.52263678746395"><ele>427.0</ele><time>2026-04-25T15:45:29Z</time></trkpt><trkpt lat="46.20027420263159" lon="12.522798519150788"><ele>427.5</ele><time>2026-04-25T15:45:30Z</time></trkpt><trkpt lat="46.20025835956127" lon="12.522961170348758"><ele>428.0</ele><time>2026-04-25T15:45:31Z</time></trkpt><trkpt lat="46.20024145648673" lon="12.523124170758456"><ele>428.5</ele><time>2026-04-25T15:45:32Z</time></trkpt><trkpt lat="46.200224545052954" lon="12.523292575521303"><ele>429.0</ele><time>2026-04-25T15:45:33Z</time></trkpt><trkpt lat="46.20020709621126" lon="12.52345761937262"><ele>429.0</ele><time>2026-04-25T15:45:34Z</time></trkpt><trkpt lat="46.20018885296526" lon="12.523614417696892"><ele>429.0</ele><time>2026-04-25T15:45:35Z</time></trkpt><trkpt lat="46.20017160757926" lon="12.523768891971836"><ele>429.0</ele><time>2026-04-25T15:45:36Z</time></trkpt><trkpt lat="46.200152904937624" lon="12.523913910575256"><ele>429.0</ele><time>2026-04-25T15:45:37Z</time></trkpt><trkpt lat="46.200135227215014" lon="12.524038971867638"><ele>429.0</ele><time>2026-04-25T15:45:38Z</time></trkpt><trkpt lat="46.20011719757336" lon="12.524166608471667"><ele>429.0</ele><time>2026-04-25T15:45:39Z</time></trkpt><trkpt lat="46.20008997390387" lon="12.524311088521861"><ele>429.0</ele><time>2026-04-25T15:45:40Z</time></trkpt><trkpt lat="46.200054075094094" lon="12.524469726641376"><ele>429.0</ele><time>2026-04-25T15:45:41Z</time></trkpt><trkpt lat="46.20001308483097" lon="12.524646690308233"><ele>429.0</ele><time>2026-04-25T15:45:42Z</time></trkpt><trkpt lat="46.19996819579034" lon="12.524821913078698"><ele>430.0</ele><time>2026-04-25T15:45:43Z</time></trkpt><trkpt lat="46.19991853028128" lon="12.52498526137067"><ele>431.0</ele><time>2026-04-25T15:45:44Z</time></trkpt><trkpt lat="46.19984742123864" lon="12.52513473531963"><ele>432.0</ele><time>2026-04-25T15:45:45Z</time></trkpt><trkpt lat="46.19974774881765" lon="12.525265550545898"><ele>433.0</ele><time>2026-04-25T15:45:46Z</time></trkpt><trkpt lat="46.19963018566392" lon="12.5253761692378"><ele>430.5</ele><time>2026-04-25T15:45:47Z</time></trkpt><trkpt lat="46.19952529042954" lon="12.525483481629252"><ele>428.0</ele><time>2026-04-25T15:45:48Z</time></trkpt><trkpt lat="46.19943178368165" lon="12.525597134461416"><ele>425.5</ele><time>2026-04-25T15:45:49Z</time></trkpt><trkpt lat="46.19935263402001" lon="12.525716737750393"><ele>423.0</ele><time>2026-04-25T15:45:50Z</time></trkpt><trkpt lat="46.19929347363775" lon="12.525849535882982"><ele>423.0</ele><time>2026-04-25T15:45:51Z</time></trkpt><trkpt lat="46.19925024724272" lon="12.52600620649821"><ele>423.0</ele><time>2026-04-25T15:45:52Z</time></trkpt><trkpt lat="46.19923794891335" lon="12.526175146750875"><ele>423.0</ele><time>2026-04-25T15:45:52.999Z</time></trkpt><trkpt lat="46.19924690449043" lon="12.526351392427156"><ele>423.0</ele><time>2026-04-25T15:45:53.999Z</time></trkpt><trkpt lat="46.19927590617728" lon="12.526536540548907"><ele>422.0</ele><time>2026-04-25T15:45:54.999Z</time></trkpt><trkpt lat="46.1993166961548" lon="12.526731106239309"><ele>421.0</ele><time>2026-04-25T15:45:55.999Z</time></trkpt><trkpt lat="46.19935939375716" lon="12.526927944473103"><ele>420.0</ele><time>2026-04-25T15:45:56.999Z</time></trkpt><trkpt lat="46.19939252507779" lon="12.527134031178614"><ele>419.0</ele><time>2026-04-25T15:45:57.999Z</time></trkpt><trkpt lat="46.19940957136531" lon="12.527367027241066"><ele>418.3333333333333</ele><time>2026-04-25T15:45:58.999Z</time></trkpt><trkpt lat="46.19940917565857" lon="12.527642494846038"><ele>417.66666666666663</ele><time>2026-04-25T15:45:59.999Z</time></trkpt><trkpt lat="46.199399436419704" lon="12.527979838334643"><ele>417.0</ele><time>2026-04-25T15:46:00.999Z</time></trkpt><trkpt lat="46.19939189276788" lon="12.528342832150921"><ele>419.5</ele><time>2026-04-25T15:46:01.999Z</time></trkpt><trkpt lat="46.19938001634892" lon="12.528683366778571"><ele>422.0</ele><time>2026-04-25T15:46:02.999Z</time></trkpt><trkpt lat="46.19936662452066" lon="12.529006532244951"><ele>422.0</ele><time>2026-04-25T15:46:03.999Z</time></trkpt><trkpt lat="46.19935878661171" lon="12.52929606215733"><ele>422.0</ele><time>2026-04-25T15:46:04.999Z</time></trkpt><trkpt lat="46.19934705297064" lon="12.529574235301899"><ele>422.0</ele><time>2026-04-25T15:46:05.999Z</time></trkpt><trkpt lat="46.19932462896022" lon="12.52984950158899"><ele>422.0</ele><time>2026-04-25T15:46:06.999Z</time></trkpt><trkpt lat="46.19929305778774" lon="12.530122506910168"><ele>422.0</ele><time>2026-04-25T15:46:07.999Z</time></trkpt><trkpt lat="46.19925521643876" lon="12.530390588221445"><ele>422.0</ele><time>2026-04-25T15:46:08.999Z</time></trkpt><trkpt lat="46.19920528299317" lon="12.530652033775622"><ele>421.3333333333333</ele><time>2026-04-25T15:46:09.999Z</time></trkpt><trkpt lat="46.19913365793904" lon="12.53089521162949"><ele>420.66666666666663</ele><time>2026-04-25T15:46:11Z</time></trkpt><trkpt lat="46.19903436045047" lon="12.531129979870204"><ele>420.0</ele><time>2026-04-25T15:46:12Z</time></trkpt><trkpt lat="46.19890413596957" lon="12.531341276115"><ele>420.0</ele><time>2026-04-25T15:46:13Z</time></trkpt><trkpt lat="46.19874690106093" lon="12.531530018527189"><ele>420.0</ele><time>2026-04-25T15:46:14Z</time></trkpt><trkpt lat="46.19860317658628" lon="12.531691798650268"><ele>420.0</ele><time>2026-04-25T15:46:15Z</time></trkpt><trkpt lat="46.198471597359976" lon="12.531849331632342"><ele>420.0</ele><time>2026-04-25T15:46:16Z</time></trkpt><trkpt lat="46.198338982933564" lon="12.532000013405288"><ele>420.0</ele><time>2026-04-25T15:46:17Z</time></trkpt><trkpt lat="46.19819279664477" lon="12.532132084013933"><ele>420.0</ele><time>2026-04-25T15:46:18Z</time></trkpt><trkpt lat="46.198028186768774" lon="12.532249819857908"><ele>416.0</ele><time>2026-04-25T15:46:19Z</time></trkpt><trkpt lat="46.19786181422823" lon="12.532366820825485"><ele>412.0</ele><time>2026-04-25T15:46:20Z</time></trkpt><trkpt lat="46.197711283744056" lon="12.532478082591405"><ele>408.0</ele><time>2026-04-25T15:46:21Z</time></trkpt><trkpt lat="46.19756739461895" lon="12.532587534099601"><ele>408.0</ele><time>2026-04-25T15:46:22Z</time></trkpt><trkpt lat="46.19742515906625" lon="12.532697312927473"><ele>408.0</ele><time>2026-04-25T15:46:23Z</time></trkpt><trkpt lat="46.197285849020645" lon="12.53280839613489"><ele>408.0</ele><time>2026-04-25T15:46:24Z</time></trkpt><trkpt lat="46.19714653879874" lon="12.532935947380533"><ele>410.33333333333337</ele><time>2026-04-25T15:46:25Z</time></trkpt><trkpt lat="46.19701205585886" lon="12.533074694163693"><ele>412.6666666666667</ele><time>2026-04-25T15:46:26Z</time></trkpt><trkpt lat="46.196881751225696" lon="12.533216969152367"><ele>415.0</ele><time>2026-04-25T15:46:27Z</time></trkpt><trkpt lat="46.19675913464038" lon="12.533365619662522"><ele>415.0</ele><time>2026-04-25T15:46:28Z</time></trkpt><trkpt lat="46.19664267254095" lon="12.533528028745351"><ele>415.0</ele><time>2026-04-25T15:46:29Z</time></trkpt><trkpt lat="46.1965416097761" lon="12.533715962480704"><ele>415.0</ele><time>2026-04-25T15:46:30Z</time></trkpt><trkpt lat="46.196468173888654" lon="12.533937444787204"><ele>415.6666666666667</ele><time>2026-04-25T15:46:31Z</time></trkpt><trkpt lat="46.19641320753065" lon="12.534189158164347"><ele>416.33333333333337</ele><time>2026-04-25T15:46:32Z</time></trkpt><trkpt lat="46.19635830664363" lon="12.534448686572482"><ele>417.0</ele><time>2026-04-25T15:46:33Z</time></trkpt><trkpt lat="46.196304371082626" lon="12.534700838081948"><ele>417.0</ele><time>2026-04-25T15:46:34Z</time></trkpt><trkpt lat="46.19625246029932" lon="12.534952299397434"><ele>417.0</ele><time>2026-04-25T15:46:35Z</time></trkpt><trkpt lat="46.19619794867858" lon="12.535199544033388"><ele>417.0</ele><time>2026-04-25T15:46:36Z</time></trkpt><trkpt lat="46.196148472573896" lon="12.535447060643591"><ele>414.66666666666663</ele><time>2026-04-25T15:46:37Z</time></trkpt><trkpt lat="46.196108067602374" lon="12.53569688174672"><ele>412.3333333333333</ele><time>2026-04-25T15:46:38Z</time></trkpt><trkpt lat="46.19607085499389" lon="12.535946919648113"><ele>410.0</ele><time>2026-04-25T15:46:39Z</time></trkpt><trkpt lat="46.19602443961951" lon="12.53619346072125"><ele>412.0</ele><time>2026-04-25T15:46:40Z</time></trkpt><trkpt lat="46.19597066441049" lon="12.536431144991719"><ele>414.0</ele><time>2026-04-25T15:46:41Z</time></trkpt><trkpt lat="46.19591504081053" lon="12.536653374687958"><ele>416.0</ele><time>2026-04-25T15:46:42Z</time></trkpt><trkpt lat="46.195846647119346" lon="12.536863644792058"><ele>414.66666666666663</ele><time>2026-04-25T15:46:43Z</time></trkpt><trkpt lat="46.195747674946496" lon="12.537054988372432"><ele>413.33333333333337</ele><time>2026-04-25T15:46:44Z</time></trkpt><trkpt lat="46.19563580091448" lon="12.53723373377987"><ele>412.0</ele><time>2026-04-25T15:46:45Z</time></trkpt><trkpt lat="46.19554137994136" lon="12.537425898976444"><ele>412.0</ele><time>2026-04-25T15:46:46Z</time></trkpt><trkpt lat="46.19546931363435" lon="12.537646052775765"><ele>412.0</ele><time>2026-04-25T15:46:47Z</time></trkpt><trkpt lat="46.195404809369684" lon="12.537873674154932"><ele>412.0</ele><time>2026-04-25T15:46:48Z</time></trkpt><trkpt lat="46.19534080947468" lon="12.538103079376103"><ele>411.6666666666667</ele><time>2026-04-25T15:46:49Z</time></trkpt><trkpt lat="46.19527526336613" lon="12.53833337947274"><ele>411.33333333333337</ele><time>2026-04-25T15:46:50Z</time></trkpt><trkpt lat="46.19522051360931" lon="12.538564364473164"><ele>411.0</ele><time>2026-04-25T15:46:51Z</time></trkpt><trkpt lat="46.195174885794344" lon="12.538789616838184"><ele>411.66666666666663</ele><time>2026-04-25T15:46:52Z</time></trkpt><trkpt lat="46.195135187995426" lon="12.53901265694785"><ele>412.3333333333333</ele><time>2026-04-25T15:46:53Z</time></trkpt><trkpt lat="46.19509181895837" lon="12.539235217306192"><ele>413.0</ele><time>2026-04-25T15:46:54Z</time></trkpt><trkpt lat="46.195049220300845" lon="12.53946002278616"><ele>413.3333333333333</ele><time>2026-04-25T15:46:55Z</time></trkpt><trkpt lat="46.19500910141964" lon="12.5396947403948"><ele>413.66666666666663</ele><time>2026-04-25T15:46:56Z</time></trkpt><trkpt lat="46.19497409140934" lon="12.539937715902573"><ele>414.0</ele><time>2026-04-25T15:46:57Z</time></trkpt><trkpt lat="46.19494215475977" lon="12.540192884490375"><ele>415.33333333333337</ele><time>2026-04-25T15:46:58Z</time></trkpt><trkpt lat="46.19491155326762" lon="12.54045006787214"><ele>416.6666666666667</ele><time>2026-04-25T15:46:59Z</time></trkpt><trkpt lat="46.194878872016204" lon="12.540694900275565"><ele>418.0</ele><time>2026-04-25T15:47:00Z</time></trkpt><trkpt lat="46.19483446484021" lon="12.540926485975337"><ele>417.0</ele><time>2026-04-25T15:47:01Z</time></trkpt><trkpt lat="46.19477855650844" lon="12.541158471135306"><ele>416.0</ele><time>2026-04-25T15:47:02Z</time></trkpt><trkpt lat="46.194710644178784" lon="12.541397949274284"><ele>415.0</ele><time>2026-04-25T15:47:03Z</time></trkpt><trkpt lat="46.19464464814184" lon="12.541637512820534"><ele>415.0</ele><time>2026-04-25T15:47:04Z</time></trkpt><trkpt lat="46.19458096386802" lon="12.54186410063174"><ele>415.0</ele><time>2026-04-25T15:47:05Z</time></trkpt><trkpt lat="46.19451991866229" lon="12.542074464478553"><ele>415.0</ele><time>2026-04-25T15:47:06Z</time></trkpt><trkpt lat="46.194458540754084" lon="12.542266332610081"><ele>413.5</ele><time>2026-04-25T15:47:07Z</time></trkpt><trkpt lat="46.19438331501178" lon="12.542432475414595"><ele>412.0</ele><time>2026-04-25T15:47:08Z</time></trkpt><trkpt lat="46.19429124084417" lon="12.542574960990347"><ele>410.5</ele><time>2026-04-25T15:47:09Z</time></trkpt><trkpt lat="46.19418841602441" lon="12.542684266121347"><ele>409.0</ele><time>2026-04-25T15:47:10Z</time></trkpt><trkpt lat="46.194092657666964" lon="12.542803239450267"><ele>410.33333333333337</ele><time>2026-04-25T15:47:11Z</time></trkpt><trkpt lat="46.19402018191203" lon="12.542972406901926"><ele>411.66666666666663</ele><time>2026-04-25T15:47:12Z</time></trkpt><trkpt lat="46.1939613042322" lon="12.54318278669717"><ele>413.0</ele><time>2026-04-25T15:47:13Z</time></trkpt><trkpt lat="46.19389448407199" lon="12.54340842193774"><ele>413.0</ele><time>2026-04-25T15:47:14Z</time></trkpt><trkpt lat="46.19382068904279" lon="12.543632277128962"><ele>413.0</ele><time>2026-04-25T15:47:15Z</time></trkpt><trkpt lat="46.19375335435836" lon="12.543846051178011"><ele>413.0</ele><time>2026-04-25T15:47:16Z</time></trkpt><trkpt lat="46.19369091364046" lon="12.544047119949322"><ele>412.25</ele><time>2026-04-25T15:47:17Z</time></trkpt><trkpt lat="46.19363328144603" lon="12.544230226555339"><ele>411.5</ele><time>2026-04-25T15:47:18Z</time></trkpt><trkpt lat="46.19356518803629" lon="12.544409890572394"><ele>410.75</ele><time>2026-04-25T15:47:19Z</time></trkpt><trkpt lat="46.193480326841" lon="12.544577372451863"><ele>410.0</ele><time>2026-04-25T15:47:20Z</time></trkpt><trkpt lat="46.1933773642928" lon="12.544731122705137"><ele>408.0</ele><time>2026-04-25T15:47:21Z</time></trkpt><trkpt lat="46.193261430332576" lon="12.544873693058149"><ele>406.0</ele><time>2026-04-25T15:47:22Z</time></trkpt><trkpt lat="46.19314636005417" lon="12.545014688166738"><ele>404.0</ele><time>2026-04-25T15:47:23Z</time></trkpt><trkpt lat="46.19304050151691" lon="12.545153959560627"><ele>402.0</ele><time>2026-04-25T15:47:24Z</time></trkpt><trkpt lat="46.19293665758181" lon="12.545296772975727"><ele>408.5</ele><time>2026-04-25T15:47:25Z</time></trkpt><trkpt lat="46.192832731451645" lon="12.545423516886286"><ele>415.0</ele><time>2026-04-25T15:47:26Z</time></trkpt><trkpt lat="46.192726141662696" lon="12.545513961386757"><ele>421.5</ele><time>2026-04-25T15:47:27Z</time></trkpt><trkpt lat="46.192599347586636" lon="12.545589538911381"><ele>428.0</ele><time>2026-04-25T15:47:28Z</time></trkpt><trkpt lat="46.19247755143142" lon="12.545660953665434"><ele>428.0</ele><time>2026-04-25T15:47:29Z</time></trkpt><trkpt lat="46.192363731095305" lon="12.545730719056147"><ele>428.0</ele><time>2026-04-25T15:47:30Z</time></trkpt><trkpt lat="46.1922515421503" lon="12.545792170724868"><ele>428.0</ele><time>2026-04-25T15:47:31Z</time></trkpt><trkpt lat="46.192139339930826" lon="12.545853659414579"><ele>428.0</ele><time>2026-04-25T15:47:32Z</time></trkpt><trkpt lat="46.192027234752274" lon="12.545907168344195"><ele>422.25</ele><time>2026-04-25T15:47:33Z</time></trkpt><trkpt lat="46.19190812259283" lon="12.545930959013663"><ele>416.5</ele><time>2026-04-25T15:47:34Z</time></trkpt><trkpt lat="46.19179287184943" lon="12.545982069321813"><ele>410.75</ele><time>2026-04-25T15:47:35Z</time></trkpt><trkpt lat="46.19165995184199" lon="12.546023622929924"><ele>405.0</ele><time>2026-04-25T15:47:36Z</time></trkpt><trkpt lat="46.19152625918515" lon="12.546097376617627"><ele>405.5</ele><time>2026-04-25T15:47:37Z</time></trkpt><trkpt lat="46.19139523898863" lon="12.546171904024021"><ele>406.0</ele><time>2026-04-25T15:47:38Z</time></trkpt><trkpt lat="46.191271977887745" lon="12.546263116824827"><ele>406.5</ele><time>2026-04-25T15:47:39Z</time></trkpt><trkpt lat="46.19115821684603" lon="12.546357941185933"><ele>407.0</ele><time>2026-04-25T15:47:40Z</time></trkpt><trkpt lat="46.19105463087302" lon="12.546446598027924"><ele>407.0</ele><time>2026-04-25T15:47:41Z</time></trkpt><trkpt lat="46.19095999485219" lon="12.546554896109242"><ele>407.0</ele><time>2026-04-25T15:47:42Z</time></trkpt><trkpt lat="46.19087763386129" lon="12.546702770636182"><ele>407.0</ele><time>2026-04-25T15:47:43Z</time></trkpt><trkpt lat="46.19081466888737" lon="12.546888435469182"><ele>407.0</ele><time>2026-04-25T15:47:44Z</time></trkpt><trkpt lat="46.19075616719253" lon="12.547101391823782"><ele>404.0</ele><time>2026-04-25T15:47:45Z</time></trkpt><trkpt lat="46.190682970786696" lon="12.54730764226059"><ele>401.0</ele><time>2026-04-25T15:47:46Z</time></trkpt><trkpt lat="46.1905975705101" lon="12.547487810246206"><ele>398.0</ele><time>2026-04-25T15:47:47Z</time></trkpt><trkpt lat="46.190507655248524" lon="12.547642167063664"><ele>398.0</ele><time>2026-04-25T15:47:48Z</time></trkpt><trkpt lat="46.19042504759407" lon="12.547769994540309"><ele>398.0</ele><time>2026-04-25T15:47:49Z</time></trkpt><trkpt lat="46.190359947442865" lon="12.54790819358514"><ele>398.0</ele><time>2026-04-25T15:47:50Z</time></trkpt><trkpt lat="46.190313062842" lon="12.548074692153104"><ele>398.0</ele><time>2026-04-25T15:47:51Z</time></trkpt><trkpt lat="46.19027898908862" lon="12.548264601817428"><ele>399.5</ele><time>2026-04-25T15:47:52Z</time></trkpt><trkpt lat="46.19024574798067" lon="12.548460985938542"><ele>401.0</ele><time>2026-04-25T15:47:53Z</time></trkpt><trkpt lat="46.19021169022514" lon="12.548658245629378"><ele>402.5</ele><time>2026-04-25T15:47:54Z</time></trkpt><trkpt lat="46.19018176119139" lon="12.548847864979225"><ele>404.0</ele><time>2026-04-25T15:47:55Z</time></trkpt><trkpt lat="46.19015621993779" lon="12.54903777773608"><ele>404.25</ele><time>2026-04-25T15:47:55.999Z</time></trkpt><trkpt lat="46.19014164321023" lon="12.54922736903839"><ele>404.5</ele><time>2026-04-25T15:47:56.999Z</time></trkpt><trkpt lat="46.19014165743124" lon="12.549413457785883"><ele>404.75</ele><time>2026-04-25T15:47:57.999Z</time></trkpt><trkpt lat="46.19015049450583" lon="12.549580216399823"><ele>405.0</ele><time>2026-04-25T15:47:58.999Z</time></trkpt><trkpt lat="46.1901554215973" lon="12.549734349393127"><ele>405.2</ele><time>2026-04-25T15:47:59.999Z</time></trkpt><trkpt lat="46.190161881084144" lon="12.549876991308356"><ele>405.4</ele><time>2026-04-25T15:48:00.999Z</time></trkpt><trkpt lat="46.190160822827764" lon="12.550021544429717"><ele>405.6</ele><time>2026-04-25T15:48:01.999Z</time></trkpt><trkpt lat="46.19015200530704" lon="12.550166190259697"><ele>405.8</ele><time>2026-04-25T15:48:02.999Z</time></trkpt><trkpt lat="46.19013381933242" lon="12.550316056721107"><ele>406.0</ele><time>2026-04-25T15:48:03.999Z</time></trkpt><trkpt lat="46.190099571686204" lon="12.550473603339439"><ele>407.0</ele><time>2026-04-25T15:48:04.999Z</time></trkpt><trkpt lat="46.19006008048317" lon="12.550647509693237"><ele>408.0</ele><time>2026-04-25T15:48:05.999Z</time></trkpt><trkpt lat="46.19002998760899" lon="12.55083154287495"><ele>409.0</ele><time>2026-04-25T15:48:06.999Z</time></trkpt><trkpt lat="46.19001113851881" lon="12.551026037223389"><ele>410.0</ele><time>2026-04-25T15:48:07.999Z</time></trkpt><trkpt lat="46.190008739891105" lon="12.551226029337748"><ele>410.0</ele><time>2026-04-25T15:48:08.999Z</time></trkpt><trkpt lat="46.19002432754313" lon="12.55142741286035"><ele>410.0</ele><time>2026-04-25T15:48:09.999Z</time></trkpt><trkpt lat="46.190045475255175" lon="12.551615239288106"><ele>410.0</ele><time>2026-04-25T15:48:10.999Z</time></trkpt><trkpt lat="46.19006530367297" lon="12.551790225533566"><ele>410.0</ele><time>2026-04-25T15:48:11.999Z</time></trkpt><trkpt lat="46.19008086725014" lon="12.55196218089628"><ele>409.0</ele><time>2026-04-25T15:48:12.999Z</time></trkpt><trkpt lat="46.19010233851267" lon="12.552130937402886"><ele>408.0</ele><time>2026-04-25T15:48:13.999Z</time></trkpt><trkpt lat="46.19012128558727" lon="12.552302166777833"><ele>407.0</ele><time>2026-04-25T15:48:14.999Z</time></trkpt><trkpt lat="46.1901422324198" lon="12.552471360223912"><ele>406.0</ele><time>2026-04-25T15:48:15.999Z</time></trkpt><trkpt lat="46.190162159228024" lon="12.552643308498089"><ele>406.0</ele><time>2026-04-25T15:48:17Z</time></trkpt><trkpt lat="46.19018076989846" lon="12.55281835065745"><ele>406.0</ele><time>2026-04-25T15:48:18Z</time></trkpt><trkpt lat="46.19019719574648" lon="12.552995991782476"><ele>406.0</ele><time>2026-04-25T15:48:19Z</time></trkpt><trkpt lat="46.190211963833285" lon="12.553176286600669"><ele>406.0</ele><time>2026-04-25T15:48:20Z</time></trkpt><trkpt lat="46.19023035453025" lon="12.553356585597003"><ele>405.5</ele><time>2026-04-25T15:48:21Z</time></trkpt><trkpt lat="46.19024906583117" lon="12.55353488527692"><ele>405.0</ele><time>2026-04-25T15:48:22Z</time></trkpt><trkpt lat="46.19026494327261" lon="12.553710873698128"><ele>404.5</ele><time>2026-04-25T15:48:23Z</time></trkpt><trkpt lat="46.19028154326528" lon="12.55388295715746"><ele>404.0</ele><time>2026-04-25T15:48:24Z</time></trkpt><trkpt lat="46.19029978811231" lon="12.554053573159145"><ele>403.0</ele><time>2026-04-25T15:48:25Z</time></trkpt><trkpt lat="46.190319141854665" lon="12.554223668496668"><ele>402.0</ele><time>2026-04-25T15:48:26Z</time></trkpt><trkpt lat="46.190335148693855" lon="12.554391583567446"><ele>401.0</ele><time>2026-04-25T15:48:27Z</time></trkpt><trkpt lat="46.190348099483884" lon="12.554558210173544"><ele>400.0</ele><time>2026-04-25T15:48:28Z</time></trkpt><trkpt lat="46.19036275541016" lon="12.554723925846327"><ele>399.75</ele><time>2026-04-25T15:48:29Z</time></trkpt><trkpt lat="46.19038014466525" lon="12.554888406798026"><ele>399.5</ele><time>2026-04-25T15:48:30Z</time></trkpt><trkpt lat="46.19037439235948" lon="12.555054837232934"><ele>399.25</ele><time>2026-04-25T15:48:31Z</time></trkpt><trkpt lat="46.19040685039458" lon="12.555215062844374"><ele>399.0</ele><time>2026-04-25T15:48:32Z</time></trkpt><trkpt lat="46.1904165306048" lon="12.555378466317825"><ele>399.0</ele><time>2026-04-25T15:48:33Z</time></trkpt><trkpt lat="46.190429864344" lon="12.555542127802756"><ele>399.0</ele><time>2026-04-25T15:48:34Z</time></trkpt><trkpt lat="46.19044554378328" lon="12.555707259746503"><ele>399.0</ele><time>2026-04-25T15:48:35Z</time></trkpt><trkpt lat="46.19046011399874" lon="12.555870822512112"><ele>399.0</ele><time>2026-04-25T15:48:36Z</time></trkpt><trkpt lat="46.19047375295137" lon="12.556034053553855"><ele>399.0</ele><time>2026-04-25T15:48:37Z</time></trkpt><trkpt lat="46.19049092106815" lon="12.556195589988405"><ele>399.0</ele><time>2026-04-25T15:48:38Z</time></trkpt><trkpt lat="46.190509094082415" lon="12.556357035973287"><ele>399.0</ele><time>2026-04-25T15:48:39Z</time></trkpt><trkpt lat="46.190525211322644" lon="12.556518303375642"><ele>399.0</ele><time>2026-04-25T15:48:40Z</time></trkpt><trkpt lat="46.19054333809439" lon="12.556678267779542"><ele>399.0</ele><time>2026-04-25T15:48:41Z</time></trkpt><trkpt lat="46.19056895611005" lon="12.556837178040254"><ele>399.0</ele><time>2026-04-25T15:48:42Z</time></trkpt><trkpt lat="46.19059064991941" lon="12.556999834677852"><ele>399.0</ele><time>2026-04-25T15:48:43Z</time></trkpt><trkpt lat="46.1905803526511" lon="12.557164739260726"><ele>399.0</ele><time>2026-04-25T15:48:44Z</time></trkpt><trkpt lat="46.190618294808026" lon="12.557334113709574"><ele>399.0</ele><time>2026-04-25T15:48:45Z</time></trkpt><trkpt lat="46.19065907011504" lon="12.557496511578115"><ele>399.0</ele><time>2026-04-25T15:48:46Z</time></trkpt><trkpt lat="46.19068942052661" lon="12.55765509135345"><ele>399.0</ele><time>2026-04-25T15:48:47Z</time></trkpt><trkpt lat="46.19067275764653" lon="12.557805558074186"><ele>399.0</ele><time>2026-04-25T15:48:48Z</time></trkpt><trkpt lat="46.19067617743076" lon="12.557946289023299"><ele>399.0</ele><time>2026-04-25T15:48:49Z</time></trkpt><trkpt lat="46.190666142303925" lon="12.558078276565329"><ele>399.0</ele><time>2026-04-25T15:48:50Z</time></trkpt><trkpt lat="46.19066506483508" lon="12.558209370930506"><ele>399.0</ele><time>2026-04-25T15:48:51Z</time></trkpt><trkpt lat="46.19067769203911" lon="12.55834246146285"><ele>399.0</ele><time>2026-04-25T15:48:52Z</time></trkpt><trkpt lat="46.19069294149008" lon="12.558483716491779"><ele>399.0</ele><time>2026-04-25T15:48:53Z</time></trkpt><trkpt lat="46.190698520781936" lon="12.5586331128349"><ele>399.0</ele><time>2026-04-25T15:48:54Z</time></trkpt><trkpt lat="46.190743971038785" lon="12.558762433959602"><ele>401.6</ele><time>2026-04-25T15:48:55Z</time></trkpt><trkpt lat="46.1907656113478" lon="12.55889803520815"><ele>404.2</ele><time>2026-04-25T15:48:56Z</time></trkpt><trkpt lat="46.19077513573348" lon="12.559031200706647"><ele>406.8</ele><time>2026-04-25T15:48:57Z</time></trkpt><trkpt lat="46.19077827060408" lon="12.559162206157612"><ele>409.40000000000003</ele><time>2026-04-25T15:48:58Z</time></trkpt><trkpt lat="46.19075367035228" lon="12.559280605736497"><ele>412.0</ele><time>2026-04-25T15:48:59Z</time></trkpt><trkpt lat="46.19074378963057" lon="12.559402664126203"><ele>412.0</ele><time>2026-04-25T15:49:00Z</time></trkpt><trkpt lat="46.19077171871988" lon="12.559529284216165"><ele>412.0</ele><time>2026-04-25T15:49:01Z</time></trkpt><trkpt lat="46.190772024686225" lon="12.559658294260412"><ele>412.0</ele><time>2026-04-25T15:49:02Z</time></trkpt><trkpt lat="46.19078618673205" lon="12.559790431499772"><ele>412.0</ele><time>2026-04-25T15:49:03Z</time></trkpt><trkpt lat="46.19080170379875" lon="12.55992730988627"><ele>412.0</ele><time>2026-04-25T15:49:04Z</time></trkpt><trkpt lat="46.19081596220309" lon="12.560063453789452"><ele>412.20000000000005</ele><time>2026-04-25T15:49:05Z</time></trkpt><trkpt lat="46.19082565126325" lon="12.560202450938439"><ele>412.4</ele><time>2026-04-25T15:49:06Z</time></trkpt><trkpt lat="46.190831538269904" lon="12.560344890264076"><ele>412.6</ele><time>2026-04-25T15:49:07Z</time></trkpt><trkpt lat="46.190831557666485" lon="12.560494408597313"><ele>412.79999999999995</ele><time>2026-04-25T15:49:08Z</time></trkpt><trkpt lat="46.19083101022469" lon="12.560649786717901"><ele>413.0</ele><time>2026-04-25T15:49:09Z</time></trkpt><trkpt lat="46.190828885890376" lon="12.560808900012722"><ele>413.0</ele><time>2026-04-25T15:49:10Z</time></trkpt><trkpt lat="46.190825037706496" lon="12.56096832469737"><ele>413.0</ele><time>2026-04-25T15:49:11Z</time></trkpt><trkpt lat="46.19082335420905" lon="12.56112704197145"><ele>413.0</ele><time>2026-04-25T15:49:12Z</time></trkpt><trkpt lat="46.190822391579616" lon="12.561285664070905"><ele>413.0</ele><time>2026-04-25T15:49:13Z</time></trkpt><trkpt lat="46.19081963618829" lon="12.561442721224328"><ele>413.0</ele><time>2026-04-25T15:49:14Z</time></trkpt><trkpt lat="46.19081704422641" lon="12.561602733617448"><ele>412.2</ele><time>2026-04-25T15:49:15Z</time></trkpt><trkpt lat="46.19081604326171" lon="12.56175966110447"><ele>411.4</ele><time>2026-04-25T15:49:16Z</time></trkpt><trkpt lat="46.190817232492925" lon="12.561916539457165"><ele>410.59999999999997</ele><time>2026-04-25T15:49:17Z</time></trkpt><trkpt lat="46.190830675305136" lon="12.562081795897246"><ele>409.79999999999995</ele><time>2026-04-25T15:49:18Z</time></trkpt><trkpt lat="46.190885117547246" lon="12.562230526717457"><ele>409.0</ele><time>2026-04-25T15:49:19Z</time></trkpt><trkpt lat="46.19091174757673" lon="12.562386137006953"><ele>408.0</ele><time>2026-04-25T15:49:20Z</time></trkpt><trkpt lat="46.190938658970026" lon="12.56253793951743"><ele>407.0</ele><time>2026-04-25T15:49:21Z</time></trkpt><trkpt lat="46.19096661586351" lon="12.562695384634898"><ele>406.0</ele><time>2026-04-25T15:49:22Z</time></trkpt><trkpt lat="46.19099690930296" lon="12.562861282331578"><ele>405.0</ele><time>2026-04-25T15:49:23Z</time></trkpt><trkpt lat="46.1910260468162" lon="12.563029345051635"><ele>405.0</ele><time>2026-04-25T15:49:24Z</time></trkpt><trkpt lat="46.19105421228076" lon="12.563196326773951"><ele>405.0</ele><time>2026-04-25T15:49:25Z</time></trkpt><trkpt lat="46.19108233581804" lon="12.563365495753159"><ele>405.0</ele><time>2026-04-25T15:49:26Z</time></trkpt><trkpt lat="46.19109824991446" lon="12.563548358796998"><ele>405.0</ele><time>2026-04-25T15:49:27Z</time></trkpt><trkpt lat="46.191146040050185" lon="12.563722980030382"><ele>405.25</ele><time>2026-04-25T15:49:28Z</time></trkpt><trkpt lat="46.19117957049173" lon="12.56390067831103"><ele>405.5</ele><time>2026-04-25T15:49:29Z</time></trkpt><trkpt lat="46.191212840698036" lon="12.564076896706583"><ele>405.75</ele><time>2026-04-25T15:49:30Z</time></trkpt><trkpt lat="46.19125364910459" lon="12.564245778088383"><ele>406.0</ele><time>2026-04-25T15:49:31Z</time></trkpt><trkpt lat="46.19127151546113" lon="12.56442317271536"><ele>405.5</ele><time>2026-04-25T15:49:32Z</time></trkpt><trkpt lat="46.19128567546181" lon="12.564595681405299"><ele>405.0</ele><time>2026-04-25T15:49:33Z</time></trkpt><trkpt lat="46.19133298133376" lon="12.564759296170958"><ele>404.5</ele><time>2026-04-25T15:49:34Z</time></trkpt><trkpt lat="46.191363032635685" lon="12.56493188990312"><ele>404.0</ele><time>2026-04-25T15:49:35Z</time></trkpt><trkpt lat="46.19139214930995" lon="12.565102093577027"><ele>404.0</ele><time>2026-04-25T15:49:36Z</time></trkpt><trkpt lat="46.19141710894933" lon="12.56527346600402"><ele>404.0</ele><time>2026-04-25T15:49:37Z</time></trkpt><trkpt lat="46.19142427907034" lon="12.565446888514767"><ele>404.0</ele><time>2026-04-25T15:49:38Z</time></trkpt><trkpt lat="46.1914132179597" lon="12.56562336805029"><ele>404.0</ele><time>2026-04-25T15:49:39Z</time></trkpt><trkpt lat="46.191391779992664" lon="12.565801777124397"><ele>402.79999999999995</ele><time>2026-04-25T15:49:40Z</time></trkpt><trkpt lat="46.19137297710856" lon="12.56596605054771"><ele>401.59999999999997</ele><time>2026-04-25T15:49:41Z</time></trkpt><trkpt lat="46.19135443503637" lon="12.566108467363978"><ele>400.4</ele><time>2026-04-25T15:49:42Z</time></trkpt><trkpt lat="46.19133702684619" lon="12.566233431602052"><ele>399.2</ele><time>2026-04-25T15:49:43Z</time></trkpt><trkpt lat="46.191320719872984" lon="12.56635728638231"><ele>398.0</ele><time>2026-04-25T15:49:44Z</time></trkpt><trkpt lat="46.19130389399567" lon="12.566476552629316"><ele>397.49999999999994</ele><time>2026-04-25T15:49:45Z</time></trkpt><trkpt lat="46.19128839982337" lon="12.566596147267074"><ele>397.0</ele><time>2026-04-25T15:49:46Z</time></trkpt><trkpt lat="46.19127501298825" lon="12.566722704295959"><ele>396.5</ele><time>2026-04-25T15:49:47Z</time></trkpt><trkpt lat="46.1912643229346" lon="12.566854397579776"><ele>396.0</ele><time>2026-04-25T15:49:48Z</time></trkpt><trkpt lat="46.19127066938045" lon="12.566983624838857"><ele>395.49999999999994</ele><time>2026-04-25T15:49:49Z</time></trkpt><trkpt lat="46.19130156488334" lon="12.567108731794315"><ele>395.0</ele><time>2026-04-25T15:49:50Z</time></trkpt><trkpt lat="46.19136283635944" lon="12.567229600253325"><ele>394.6</ele><time>2026-04-25T15:49:51Z</time></trkpt><trkpt lat="46.191449889678104" lon="12.567334632199453"><ele>394.2</ele><time>2026-04-25T15:49:52Z</time></trkpt><trkpt lat="46.19153150539756" lon="12.567425245973954"><ele>393.79999999999995</ele><time>2026-04-25T15:49:53Z</time></trkpt><trkpt lat="46.191587081900316" lon="12.567545230787623"><ele>393.4</ele><time>2026-04-25T15:49:54Z</time></trkpt><trkpt lat="46.19160102882905" lon="12.567695721745576"><ele>393.0</ele><time>2026-04-25T15:49:55Z</time></trkpt><trkpt lat="46.19161586089669" lon="12.567837775728364"><ele>397.2</ele><time>2026-04-25T15:49:56Z</time></trkpt><trkpt lat="46.191627436318505" lon="12.567974272460235"><ele>401.4</ele><time>2026-04-25T15:49:57Z</time></trkpt><trkpt lat="46.19164847795005" lon="12.568101994502637"><ele>405.59999999999997</ele><time>2026-04-25T15:49:57.999Z</time></trkpt><trkpt lat="46.1916453369499" lon="12.568230358664431"><ele>409.79999999999995</ele><time>2026-04-25T15:49:58.999Z</time></trkpt><trkpt lat="46.19162135617291" lon="12.568357624979214"><ele>414.0</ele><time>2026-04-25T15:49:59.999Z</time></trkpt><trkpt lat="46.191566285374655" lon="12.568471856565385"><ele>412.6</ele><time>2026-04-25T15:50:00.999Z</time></trkpt><trkpt lat="46.19148201954464" lon="12.568561255474796"><ele>411.2</ele><time>2026-04-25T15:50:01.999Z</time></trkpt><trkpt lat="46.191382655672676" lon="12.568625605684327"><ele>409.8</ele><time>2026-04-25T15:50:02.999Z</time></trkpt><trkpt lat="46.19129398976391" lon="12.568673244555804"><ele>408.40000000000003</ele><time>2026-04-25T15:50:03.999Z</time></trkpt><trkpt lat="46.19122115832836" lon="12.568733418920683"><ele>407.0</ele><time>2026-04-25T15:50:04.999Z</time></trkpt><trkpt lat="46.19115789779265" lon="12.568826209282564"><ele>407.0</ele><time>2026-04-25T15:50:05.999Z</time></trkpt><trkpt lat="46.191113252016336" lon="12.568943379858489"><ele>407.0</ele><time>2026-04-25T15:50:06.999Z</time></trkpt><trkpt lat="46.19109731411421" lon="12.569080458874906"><ele>407.0</ele><time>2026-04-25T15:50:07.999Z</time></trkpt><trkpt lat="46.19109574430417" lon="12.569228603656757"><ele>407.0</ele><time>2026-04-25T15:50:08.999Z</time></trkpt><trkpt lat="46.19108577634883" lon="12.569387724403564"><ele>407.0</ele><time>2026-04-25T15:50:09.999Z</time></trkpt><trkpt lat="46.19106758499881" lon="12.569549590628853"><ele>407.20000000000005</ele><time>2026-04-25T15:50:10.999Z</time></trkpt><trkpt lat="46.19104085582825" lon="12.569709892901873"><ele>407.4</ele><time>2026-04-25T15:50:11.999Z</time></trkpt><trkpt lat="46.19100620716653" lon="12.569866196660394"><ele>407.6</ele><time>2026-04-25T15:50:12.999Z</time></trkpt><trkpt lat="46.19097336771921" lon="12.57001878330354"><ele>407.79999999999995</ele><time>2026-04-25T15:50:13.999Z</time></trkpt><trkpt lat="46.190946777170566" lon="12.570170128061207"><ele>408.0</ele><time>2026-04-25T15:50:14.999Z</time></trkpt><trkpt lat="46.190927202204406" lon="12.570324579859045"><ele>408.2</ele><time>2026-04-25T15:50:15.999Z</time></trkpt><trkpt lat="46.19091996549564" lon="12.570483543996517"><ele>408.4</ele><time>2026-04-25T15:50:16.999Z</time></trkpt><trkpt lat="46.19092432050112" lon="12.570642019906053"><ele>408.59999999999997</ele><time>2026-04-25T15:50:17.999Z</time></trkpt><trkpt lat="46.19093789522969" lon="12.5707980125233"><ele>408.79999999999995</ele><time>2026-04-25T15:50:18.999Z</time></trkpt><trkpt lat="46.19095752123727" lon="12.57095270271286"><ele>409.0</ele><time>2026-04-25T15:50:19.999Z</time></trkpt><trkpt lat="46.190971439935055" lon="12.571107216694573"><ele>409.25</ele><time>2026-04-25T15:50:20.999Z</time></trkpt><trkpt lat="46.190961689150036" lon="12.571271860098815"><ele>409.5</ele><time>2026-04-25T15:50:21.999Z</time></trkpt><trkpt lat="46.190927746107796" lon="12.571443300288482"><ele>409.75</ele><time>2026-04-25T15:50:23Z</time></trkpt><trkpt lat="46.190876757878996" lon="12.571609734896363"><ele>410.0</ele><time>2026-04-25T15:50:24Z</time></trkpt><trkpt lat="46.19083734131648" lon="12.571788951734064"><ele>410.0</ele><time>2026-04-25T15:50:25Z</time></trkpt><trkpt lat="46.19082898479526" lon="12.57198017369762"><ele>410.0</ele><time>2026-04-25T15:50:26Z</time></trkpt><trkpt lat="46.19085013571408" lon="12.572170995878253"><ele>410.0</ele><time>2026-04-25T15:50:27Z</time></trkpt><trkpt lat="46.19089368181174" lon="12.572345595139462"><ele>410.0</ele><time>2026-04-25T15:50:28Z</time></trkpt><trkpt lat="46.19095109126506" lon="12.572500065575058"><ele>409.5</ele><time>2026-04-25T15:50:29Z</time></trkpt><trkpt lat="46.1910314843008" lon="12.572635160372668"><ele>409.0</ele><time>2026-04-25T15:50:30Z</time></trkpt><trkpt lat="46.19112680165148" lon="12.572750738824123"><ele>408.5</ele><time>2026-04-25T15:50:31Z</time></trkpt><trkpt lat="46.191235214652515" lon="12.572847708562445"><ele>408.0</ele><time>2026-04-25T15:50:32Z</time></trkpt><trkpt lat="46.191353268290996" lon="12.57293403247394"><ele>406.25</ele><time>2026-04-25T15:50:33Z</time></trkpt><trkpt lat="46.191475176478285" lon="12.573028335193838"><ele>404.5</ele><time>2026-04-25T15:50:34Z</time></trkpt><trkpt lat="46.19158949367426" lon="12.573119987823455"><ele>402.75</ele><time>2026-04-25T15:50:35Z</time></trkpt><trkpt lat="46.1916833529512" lon="12.57322880541312"><ele>401.0</ele><time>2026-04-25T15:50:36Z</time></trkpt><trkpt lat="46.19177868563953" lon="12.573326539766883"><ele>404.75</ele><time>2026-04-25T15:50:37Z</time></trkpt><trkpt lat="46.19183532711118" lon="12.573486578874748"><ele>408.5</ele><time>2026-04-25T15:50:38Z</time></trkpt><trkpt lat="46.191855025980935" lon="12.573667278175996"><ele>412.25</ele><time>2026-04-25T15:50:39Z</time></trkpt><trkpt lat="46.19181879644465" lon="12.573861738383222"><ele>416.0</ele><time>2026-04-25T15:50:40Z</time></trkpt><trkpt lat="46.191751865907676" lon="12.574035849615072"><ele>416.0</ele><time>2026-04-25T15:50:41Z</time></trkpt><trkpt lat="46.19165189446982" lon="12.574165855553984"><ele>416.0</ele><time>2026-04-25T15:50:42Z</time></trkpt><trkpt lat="46.19152230785731" lon="12.574228911304406"><ele>416.0</ele><time>2026-04-25T15:50:43Z</time></trkpt><trkpt lat="46.19137384953121" lon="12.574232201432578"><ele>416.0</ele><time>2026-04-25T15:50:44Z</time></trkpt><trkpt lat="46.1912382643514" lon="12.574240966580827"><ele>415.0</ele><time>2026-04-25T15:50:45Z</time></trkpt><trkpt lat="46.19112222901473" lon="12.574285345879861"><ele>414.0</ele><time>2026-04-25T15:50:46Z</time></trkpt><trkpt lat="46.19101499624843" lon="12.574357764595618"><ele>413.0</ele><time>2026-04-25T15:50:47Z</time></trkpt><trkpt lat="46.19092188071172" lon="12.574462128801766"><ele>412.0</ele><time>2026-04-25T15:50:48Z</time></trkpt><trkpt lat="46.1908480789545" lon="12.574611976275344"><ele>412.0</ele><time>2026-04-25T15:50:49Z</time></trkpt><trkpt lat="46.190786426853904" lon="12.574788018809796"><ele>412.0</ele><time>2026-04-25T15:50:50Z</time></trkpt><trkpt lat="46.19073535527558" lon="12.574964597242081"><ele>412.0</ele><time>2026-04-25T15:50:51Z</time></trkpt><trkpt lat="46.190684114290384" lon="12.57512616594996"><ele>412.0</ele><time>2026-04-25T15:50:52Z</time></trkpt><trkpt lat="46.190633103256545" lon="12.57529058592145"><ele>406.5</ele><time>2026-04-25T15:50:53Z</time></trkpt><trkpt lat="46.190586070119956" lon="12.575457420987"><ele>401.0</ele><time>2026-04-25T15:50:54Z</time></trkpt><trkpt lat="46.190537525317204" lon="12.57562324830147"><ele>395.5</ele><time>2026-04-25T15:50:55Z</time></trkpt><trkpt lat="46.19049591653875" lon="12.575779818743872"><ele>390.0</ele><time>2026-04-25T15:50:56Z</time></trkpt><trkpt lat="46.19046842411035" lon="12.575927904198847"><ele>390.0</ele><time>2026-04-25T15:50:57Z</time></trkpt><trkpt lat="46.19045971629587" lon="12.576074612161309"><ele>390.0</ele><time>2026-04-25T15:50:58Z</time></trkpt><trkpt lat="46.19047159905759" lon="12.5762189765081"><ele>390.0</ele><time>2026-04-25T15:50:59Z</time></trkpt><trkpt lat="46.19050327216666" lon="12.576368854616755"><ele>390.0</ele><time>2026-04-25T15:51:00Z</time></trkpt><trkpt lat="46.19055149868707" lon="12.576528510836148"><ele>390.0</ele><time>2026-04-25T15:51:01Z</time></trkpt><trkpt lat="46.190609562123385" lon="12.576707738694726"><ele>390.5</ele><time>2026-04-25T15:51:02Z</time></trkpt><trkpt lat="46.1906714554292" lon="12.576901125564623"><ele>391.0</ele><time>2026-04-25T15:51:03Z</time></trkpt><trkpt lat="46.19074301300674" lon="12.577080799777995"><ele>391.5</ele><time>2026-04-25T15:51:04Z</time></trkpt><trkpt lat="46.19081737676229" lon="12.577255301987357"><ele>392.0</ele><time>2026-04-25T15:51:05Z</time></trkpt><trkpt lat="46.190896117393265" lon="12.577428949298795"><ele>395.0</ele><time>2026-04-25T15:51:06Z</time></trkpt><trkpt lat="46.19097618742725" lon="12.577619259178158"><ele>398.0</ele><time>2026-04-25T15:51:07Z</time></trkpt><trkpt lat="46.19106208312592" lon="12.577816232781736"><ele>401.0</ele><time>2026-04-25T15:51:08Z</time></trkpt><trkpt lat="46.19115270799239" lon="12.578020146126407"><ele>401.0</ele><time>2026-04-25T15:51:09Z</time></trkpt><trkpt lat="46.19123769629492" lon="12.578223040664541"><ele>401.0</ele><time>2026-04-25T15:51:10Z</time></trkpt><trkpt lat="46.19132019242605" lon="12.57843319202702"><ele>401.0</ele><time>2026-04-25T15:51:11Z</time></trkpt><trkpt lat="46.191404901826914" lon="12.578660946776612"><ele>400.3333333333333</ele><time>2026-04-25T15:51:12Z</time></trkpt><trkpt lat="46.19148606935435" lon="12.578899980776665"><ele>399.66666666666663</ele><time>2026-04-25T15:51:13Z</time></trkpt><trkpt lat="46.19155957129646" lon="12.579139849169982"><ele>399.0</ele><time>2026-04-25T15:51:14Z</time></trkpt><trkpt lat="46.19162864930459" lon="12.579381708476577"><ele>402.66666666666663</ele><time>2026-04-25T15:51:15Z</time></trkpt><trkpt lat="46.19169261071024" lon="12.579610188139599"><ele>406.3333333333333</ele><time>2026-04-25T15:51:16Z</time></trkpt><trkpt lat="46.19174505551447" lon="12.579829802715818"><ele>410.0</ele><time>2026-04-25T15:51:17Z</time></trkpt><trkpt lat="46.19178622830233" lon="12.580038237845477"><ele>410.0</ele><time>2026-04-25T15:51:18Z</time></trkpt><trkpt lat="46.19182436595954" lon="12.580243261714616"><ele>410.0</ele><time>2026-04-25T15:51:19Z</time></trkpt><trkpt lat="46.19186118772207" lon="12.58045450342604"><ele>410.0</ele><time>2026-04-25T15:51:20Z</time></trkpt><trkpt lat="46.191892843839966" lon="12.580678438664112"><ele>409.66666666666663</ele><time>2026-04-25T15:51:21Z</time></trkpt><trkpt lat="46.19192128382312" lon="12.580898837126263"><ele>409.33333333333337</ele><time>2026-04-25T15:51:22Z</time></trkpt><trkpt lat="46.19194383888735" lon="12.581120783257536"><ele>409.0</ele><time>2026-04-25T15:51:23Z</time></trkpt><trkpt lat="46.191962519646204" lon="12.581336258362542"><ele>409.0</ele><time>2026-04-25T15:51:24Z</time></trkpt><trkpt lat="46.19197588018224" lon="12.581542655498108"><ele>409.0</ele><time>2026-04-25T15:51:25Z</time></trkpt><trkpt lat="46.191984429439444" lon="12.581742537198636"><ele>409.0</ele><time>2026-04-25T15:51:26Z</time></trkpt><trkpt lat="46.19199086306881" lon="12.581940721849243"><ele>409.0</ele><time>2026-04-25T15:51:27Z</time></trkpt><trkpt lat="46.19199440087557" lon="12.582125090662812"><ele>410.0</ele><time>2026-04-25T15:51:28Z</time></trkpt><trkpt lat="46.191999905374274" lon="12.582303382870967"><ele>411.0</ele><time>2026-04-25T15:51:29Z</time></trkpt><trkpt lat="46.192002946205726" lon="12.582477473397761"><ele>412.0</ele><time>2026-04-25T15:51:30Z</time></trkpt><trkpt lat="46.192006204821055" lon="12.582663704874369"><ele>413.0</ele><time>2026-04-25T15:51:31Z</time></trkpt><trkpt lat="46.19201014557286" lon="12.582861124725403"><ele>416.5</ele><time>2026-04-25T15:51:32Z</time></trkpt><trkpt lat="46.19201279569277" lon="12.583065494244925"><ele>420.0</ele><time>2026-04-25T15:51:33Z</time></trkpt><trkpt lat="46.192014452060256" lon="12.583276044214175"><ele>423.5</ele><time>2026-04-25T15:51:34Z</time></trkpt><trkpt lat="46.19201648119136" lon="12.58348757748175"><ele>427.0</ele><time>2026-04-25T15:51:35Z</time></trkpt><trkpt lat="46.19201869645939" lon="12.583712471140675"><ele>429.0</ele><time>2026-04-25T15:51:36.063Z</time></trkpt><trkpt lat="46.192019466208755" lon="12.583919038511127"><ele>431.0</ele><time>2026-04-25T15:51:37.055Z</time></trkpt><trkpt lat="46.192019588884875" lon="12.584118871721039"><ele>433.0</ele><time>2026-04-25T15:51:38.053Z</time></trkpt><trkpt lat="46.1920208631407" lon="12.584316455563126"><ele>435.0</ele><time>2026-04-25T15:51:39.054Z</time></trkpt><trkpt lat="46.19202124278372" lon="12.58451127492905"><ele>478.0</ele><time>2026-04-25T15:51:40.055Z</time></trkpt><trkpt lat="46.19220457486356" lon="12.588319811797131"><ele>476.0</ele><time>2026-04-25T15:51:44.611Z</time></trkpt><trkpt lat="46.19232376755498" lon="12.589211217313114"><ele>446.0</ele><time>2026-04-25T15:51:45.613Z</time></trkpt><trkpt lat="46.1924666" lon="12.5900074"><ele>397.0</ele><time>2026-04-25T15:51:46.608Z</time></trkpt><trkpt lat="46.19401774588504" lon="12.595315979521931"><ele>398.33333333333337</ele><time>2026-04-25T15:52:28.999Z</time></trkpt><trkpt lat="46.194069486841364" lon="12.59551119140491"><ele>399.66666666666663</ele><time>2026-04-25T15:52:29.999Z</time></trkpt><trkpt lat="46.19422262742546" lon="12.595793852443439"><ele>401.0</ele><time>2026-04-25T15:52:30.999Z</time></trkpt><trkpt lat="46.194316777292805" lon="12.596023459669961"><ele>402.0</ele><time>2026-04-25T15:52:31.999Z</time></trkpt><trkpt lat="46.194389363500804" lon="12.596237629361205"><ele>403.0</ele><time>2026-04-25T15:52:32.999Z</time></trkpt><trkpt lat="46.194460390582606" lon="12.596444708457874"><ele>404.0</ele><time>2026-04-25T15:52:33.999Z</time></trkpt><trkpt lat="46.19453238516321" lon="12.596662052898136"><ele>404.0</ele><time>2026-04-25T15:52:35Z</time></trkpt><trkpt lat="46.194602737524704" lon="12.596877344943202"><ele>404.0</ele><time>2026-04-25T15:52:36Z</time></trkpt><trkpt lat="46.194677168411985" lon="12.597104692612149"><ele>404.0</ele><time>2026-04-25T15:52:37Z</time></trkpt><trkpt lat="46.19475775550834" lon="12.597341607693712"><ele>404.3333333333333</ele><time>2026-04-25T15:52:38Z</time></trkpt><trkpt lat="46.19484118872061" lon="12.597582837573787"><ele>404.66666666666663</ele><time>2026-04-25T15:52:39Z</time></trkpt><trkpt lat="46.19492025938558" lon="12.597832370253156"><ele>405.0</ele><time>2026-04-25T15:52:40Z</time></trkpt><trkpt lat="46.195003248815844" lon="12.59807746794178"><ele>402.0</ele><time>2026-04-25T15:52:41Z</time></trkpt><trkpt lat="46.19508386502266" lon="12.598316098839984"><ele>399.0</ele><time>2026-04-25T15:52:42Z</time></trkpt><trkpt lat="46.195159728632945" lon="12.59855083677735"><ele>396.0</ele><time>2026-04-25T15:52:43Z</time></trkpt><trkpt lat="46.1952306954605" lon="12.598785717557453"><ele>394.66666666666663</ele><time>2026-04-25T15:52:44Z</time></trkpt><trkpt lat="46.19529927504751" lon="12.59901490109893"><ele>393.3333333333333</ele><time>2026-04-25T15:52:45Z</time></trkpt><trkpt lat="46.195360943987374" lon="12.599239900823148"><ele>392.0</ele><time>2026-04-25T15:52:46Z</time></trkpt><trkpt lat="46.19541586582193" lon="12.599464838315399"><ele>393.0</ele><time>2026-04-25T15:52:47Z</time></trkpt><trkpt lat="46.19546404021235" lon="12.599692237604087"><ele>394.0</ele><time>2026-04-25T15:52:48Z</time></trkpt><trkpt lat="46.195507439192205" lon="12.599923371929462"><ele>395.0</ele><time>2026-04-25T15:52:49Z</time></trkpt><trkpt lat="46.19554431823576" lon="12.600158620214852"><ele>396.0</ele><time>2026-04-25T15:52:50Z</time></trkpt><trkpt lat="46.19557580123547" lon="12.600399324376797"><ele>397.0</ele><time>2026-04-25T15:52:51Z</time></trkpt><trkpt lat="46.19560213646571" lon="12.600650129950617"><ele>398.0</ele><time>2026-04-25T15:52:52Z</time></trkpt><trkpt lat="46.19562486745553" lon="12.600908342450545"><ele>399.3333333333333</ele><time>2026-04-25T15:52:53Z</time></trkpt><trkpt lat="46.195646310400015" lon="12.601167650037535"><ele>400.66666666666663</ele><time>2026-04-25T15:52:54Z</time></trkpt><trkpt lat="46.19567053976121" lon="12.601425104546394"><ele>402.0</ele><time>2026-04-25T15:52:55Z</time></trkpt><trkpt lat="46.19568925998884" lon="12.601676968760147"><ele>405.33333333333337</ele><time>2026-04-25T15:52:56Z</time></trkpt><trkpt lat="46.19569918795987" lon="12.601918113649148"><ele>408.6666666666667</ele><time>2026-04-25T15:52:57Z</time></trkpt><trkpt lat="46.195703412334105" lon="12.602150879368795"><ele>412.0</ele><time>2026-04-25T15:52:58Z</time></trkpt><trkpt lat="46.19570607563519" lon="12.602376861951349"><ele>412.0</ele><time>2026-04-25T15:52:59Z</time></trkpt><trkpt lat="46.19570774439177" lon="12.602614484687122"><ele>412.0</ele><time>2026-04-25T15:53:00.068Z</time></trkpt><trkpt lat="46.195701655444935" lon="12.602831152375774"><ele>412.0</ele><time>2026-04-25T15:53:01.058Z</time></trkpt><trkpt lat="46.1956893442318" lon="12.603047925923468"><ele>411.75</ele><time>2026-04-25T15:53:02.053Z</time></trkpt><trkpt lat="46.195681726369024" lon="12.60325295312616"><ele>411.5</ele><time>2026-04-25T15:53:03Z</time></trkpt><trkpt lat="46.19569846424589" lon="12.603434891753098"><ele>411.25</ele><time>2026-04-25T15:53:04Z</time></trkpt><trkpt lat="46.19568098596032" lon="12.603641875913315"><ele>411.0</ele><time>2026-04-25T15:53:05Z</time></trkpt><trkpt lat="46.195659495855004" lon="12.603830018162185"><ele>412.25</ele><time>2026-04-25T15:53:06Z</time></trkpt><trkpt lat="46.19564038886903" lon="12.604023358004763"><ele>413.5</ele><time>2026-04-25T15:53:07Z</time></trkpt><trkpt lat="46.19561637037142" lon="12.60422787472338"><ele>414.75</ele><time>2026-04-25T15:53:08Z</time></trkpt><trkpt lat="46.19559056220715" lon="12.604439422400608"><ele>416.0</ele><time>2026-04-25T15:53:09Z</time></trkpt><trkpt lat="46.19556120223464" lon="12.604657883379446"><ele>419.0</ele><time>2026-04-25T15:53:10Z</time></trkpt><trkpt lat="46.195531541962396" lon="12.604884205575548"><ele>422.0</ele><time>2026-04-25T15:53:11Z</time></trkpt><trkpt lat="46.19549563430613" lon="12.605112512310845"><ele>425.0</ele><time>2026-04-25T15:53:12Z</time></trkpt><trkpt lat="46.19545379677498" lon="12.605337350067424"><ele>425.66666666666663</ele><time>2026-04-25T15:53:13Z</time></trkpt><trkpt lat="46.195410066111684" lon="12.605556264109765"><ele>426.33333333333337</ele><time>2026-04-25T15:53:14Z</time></trkpt><trkpt lat="46.19536492719124" lon="12.605773433818626"><ele>427.0</ele><time>2026-04-25T15:53:15Z</time></trkpt><trkpt lat="46.19531548701676" lon="12.605982118479695"><ele>428.25</ele><time>2026-04-25T15:53:16Z</time></trkpt><trkpt lat="46.19526241010285" lon="12.606185960698772"><ele>429.5</ele><time>2026-04-25T15:53:17Z</time></trkpt><trkpt lat="46.19520649709426" lon="12.606387499126798"><ele>430.75</ele><time>2026-04-25T15:53:18Z</time></trkpt><trkpt lat="46.19514902112746" lon="12.606581503823296"><ele>432.0</ele><time>2026-04-25T15:53:19Z</time></trkpt><trkpt lat="46.19508950334897" lon="12.606773429764583"><ele>432.0</ele><time>2026-04-25T15:53:20Z</time></trkpt><trkpt lat="46.1950291707436" lon="12.606970573806727"><ele>432.0</ele><time>2026-04-25T15:53:21Z</time></trkpt><trkpt lat="46.194965623923586" lon="12.60717097096167"><ele>432.0</ele><time>2026-04-25T15:53:22Z</time></trkpt><trkpt lat="46.19489850978456" lon="12.607370586220615"><ele>449.33333333333337</ele><time>2026-04-25T15:53:23Z</time></trkpt><trkpt lat="46.19482702674027" lon="12.607565060718539"><ele>466.6666666666667</ele><time>2026-04-25T15:53:24Z</time></trkpt><trkpt lat="46.19474900894099" lon="12.60776564638989"><ele>484.0</ele><time>2026-04-25T15:53:25.06Z</time></trkpt><trkpt lat="46.194675070660196" lon="12.607948165702593"><ele>484.0</ele><time>2026-04-25T15:53:26.05Z</time></trkpt><trkpt lat="46.19459849542791" lon="12.608129757339228"><ele>484.0</ele><time>2026-04-25T15:53:27.052Z</time></trkpt><trkpt lat="46.1932727923732" lon="12.610364188455081"><ele>519.5</ele><time>2026-04-25T15:53:31.608Z</time></trkpt><trkpt lat="46.19292418542096" lon="12.610773110325555"><ele>555.0</ele><time>2026-04-25T15:53:32.608Z</time></trkpt><trkpt lat="46.19255949752453" lon="12.611156677449692"><ele>572.5</ele><time>2026-04-25T15:53:33.612Z</time></trkpt><trkpt lat="46.192179482982525" lon="12.611502854816756"><ele>590.0</ele><time>2026-04-25T15:53:34.612Z</time></trkpt><trkpt lat="46.191784536630934" lon="12.61181262644472"><ele>620.0</ele><time>2026-04-25T15:53:35.612Z</time></trkpt><trkpt lat="46.1913777205508" lon="12.612088915032182"><ele>620.0</ele><time>2026-04-25T15:53:36.612Z</time></trkpt><trkpt lat="46.1910478" lon="12.6123047"><ele>620.0</ele><time>2026-04-25T15:53:37.612Z</time></trkpt><trkpt lat="46.16546842992634" lon="12.633049772474115"><ele>518.6666666666666</ele><time>2026-04-25T15:56:12.998Z</time></trkpt><trkpt lat="46.16539754661579" lon="12.633308683621252"><ele>417.3333333333333</ele><time>2026-04-25T15:56:13.998Z</time></trkpt><trkpt lat="46.16532083899134" lon="12.633610231251215"><ele>316.0</ele><time>2026-04-25T15:56:14.998Z</time></trkpt><trkpt lat="46.16524052727772" lon="12.633928458781662"><ele>316.0</ele><time>2026-04-25T15:56:15.998Z</time></trkpt><trkpt lat="46.16518704978097" lon="12.634234984343442"><ele>316.0</ele><time>2026-04-25T15:56:16.998Z</time></trkpt><trkpt lat="46.1651304797124" lon="12.634546401763293"><ele>316.0</ele><time>2026-04-25T15:56:17.998Z</time></trkpt><trkpt lat="46.165071503715836" lon="12.634846343337715"><ele>322.3333333333333</ele><time>2026-04-25T15:56:19Z</time></trkpt><trkpt lat="46.16502119504408" lon="12.635161643928772"><ele>328.6666666666667</ele><time>2026-04-25T15:56:20Z</time></trkpt><trkpt lat="46.16498312015231" lon="12.635457240712377"><ele>335.0</ele><time>2026-04-25T15:56:21Z</time></trkpt><trkpt lat="46.1649497980219" lon="12.635766643383448"><ele>336.0</ele><time>2026-04-25T15:56:22Z</time></trkpt><trkpt lat="46.16492369396343" lon="12.636076932079398"><ele>337.0</ele><time>2026-04-25T15:56:23Z</time></trkpt><trkpt lat="46.16490343806376" lon="12.636393089848019"><ele>338.0</ele><time>2026-04-25T15:56:24Z</time></trkpt><trkpt lat="46.16489212278193" lon="12.636706808768638"><ele>331.5</ele><time>2026-04-25T15:56:25Z</time></trkpt><trkpt lat="46.16488658831695" lon="12.637031303789273"><ele>325.0</ele><time>2026-04-25T15:56:26Z</time></trkpt><trkpt lat="46.164879573482224" lon="12.63735854966229"><ele>325.0</ele><time>2026-04-25T15:56:27Z</time></trkpt><trkpt lat="46.16488635769706" lon="12.637679046795213"><ele>325.0</ele><time>2026-04-25T15:56:28Z</time></trkpt><trkpt lat="46.164896142053536" lon="12.638007945627795"><ele>325.0</ele><time>2026-04-25T15:56:29Z</time></trkpt><trkpt lat="46.16491294849423" lon="12.638343195693675"><ele>325.0</ele><time>2026-04-25T15:56:30Z</time></trkpt><trkpt lat="46.16492430856855" lon="12.638682271290232"><ele>326.5</ele><time>2026-04-25T15:56:31Z</time></trkpt><trkpt lat="46.164931360916476" lon="12.63902598967104"><ele>328.0</ele><time>2026-04-25T15:56:32Z</time></trkpt><trkpt lat="46.16493610845729" lon="12.63936700763473"><ele>335.0</ele><time>2026-04-25T15:56:33Z</time></trkpt><trkpt lat="46.16493966781456" lon="12.639700974886429"><ele>342.0</ele><time>2026-04-25T15:56:34Z</time></trkpt><trkpt lat="46.16495209751908" lon="12.640026817798246"><ele>343.3333333333333</ele><time>2026-04-25T15:56:35Z</time></trkpt><trkpt lat="46.164962689337365" lon="12.64034695142386"><ele>344.66666666666663</ele><time>2026-04-25T15:56:36Z</time></trkpt><trkpt lat="46.16496819233071" lon="12.640644210901808"><ele>346.0</ele><time>2026-04-25T15:56:37Z</time></trkpt><trkpt lat="46.164979503421165" lon="12.64095137775337"><ele>346.66666666666663</ele><time>2026-04-25T15:56:38Z</time></trkpt><trkpt lat="46.164989834116575" lon="12.641225578357055"><ele>347.3333333333333</ele><time>2026-04-25T15:56:39Z</time></trkpt><trkpt lat="46.164995462785654" lon="12.641514265796344"><ele>348.0</ele><time>2026-04-25T15:56:40Z</time></trkpt><trkpt lat="46.16500285104642" lon="12.641809132931197"><ele>349.3333333333333</ele><time>2026-04-25T15:56:41Z</time></trkpt><trkpt lat="46.1650110206273" lon="12.642109984224147"><ele>350.66666666666663</ele><time>2026-04-25T15:56:42Z</time></trkpt><trkpt lat="46.165020615781245" lon="12.642415255150528"><ele>352.0</ele><time>2026-04-25T15:56:43Z</time></trkpt><trkpt lat="46.16502598735105" lon="12.64270671026602"><ele>351.0</ele><time>2026-04-25T15:56:44Z</time></trkpt><trkpt lat="46.16503364611676" lon="12.642973381523873"><ele>350.0</ele><time>2026-04-25T15:56:45Z</time></trkpt><trkpt lat="46.16504062153882" lon="12.643223829480123"><ele>349.0</ele><time>2026-04-25T15:56:46Z</time></trkpt><trkpt lat="46.16504696162972" lon="12.643460316780446"><ele>349.25</ele><time>2026-04-25T15:56:47Z</time></trkpt><trkpt lat="46.16505323406639" lon="12.643682021590681"><ele>349.5</ele><time>2026-04-25T15:56:48Z</time></trkpt><trkpt lat="46.165060041634035" lon="12.643894391990797"><ele>349.75</ele><time>2026-04-25T15:56:49Z</time></trkpt><trkpt lat="46.16506540874447" lon="12.644096406378504"><ele>350.0</ele><time>2026-04-25T15:56:50Z</time></trkpt><trkpt lat="46.16506883289133" lon="12.644292487399541"><ele>351.0</ele><time>2026-04-25T15:56:51Z</time></trkpt><trkpt lat="46.1650730045043" lon="12.644480595382978"><ele>352.0</ele><time>2026-04-25T15:56:52Z</time></trkpt><trkpt lat="46.16507831937343" lon="12.644658546176938"><ele>353.0</ele><time>2026-04-25T15:56:53Z</time></trkpt><trkpt lat="46.16508343803692" lon="12.64484442479802"><ele>354.0</ele><time>2026-04-25T15:56:54Z</time></trkpt><trkpt lat="46.16508621885737" lon="12.645039488512069"><ele>354.0</ele><time>2026-04-25T15:56:55Z</time></trkpt><trkpt lat="46.16508987075675" lon="12.645238490549286"><ele>354.0</ele><time>2026-04-25T15:56:56Z</time></trkpt><trkpt lat="46.16509520211556" lon="12.645441108741325"><ele>354.0</ele><time>2026-04-25T15:56:57Z</time></trkpt><trkpt lat="46.16509961892814" lon="12.645640288628549"><ele>354.0</ele><time>2026-04-25T15:56:58Z</time></trkpt><trkpt lat="46.16510287403966" lon="12.645834515161862"><ele>354.0</ele><time>2026-04-25T15:56:59Z</time></trkpt><trkpt lat="46.16510574429945" lon="12.646026617323578"><ele>354.0</ele><time>2026-04-25T15:57:00Z</time></trkpt><trkpt lat="46.16510649989822" lon="12.646218584249317"><ele>354.0</ele><time>2026-04-25T15:57:01Z</time></trkpt><trkpt lat="46.165105594585626" lon="12.646409596655271"><ele>354.0</ele><time>2026-04-25T15:57:02Z</time></trkpt><trkpt lat="46.16510190782741" lon="12.646602833986181"><ele>352.75</ele><time>2026-04-25T15:57:03Z</time></trkpt><trkpt lat="46.16509159334356" lon="12.646794826418134"><ele>351.5</ele><time>2026-04-25T15:57:04Z</time></trkpt><trkpt lat="46.16507890925095" lon="12.646989580888516"><ele>350.25</ele><time>2026-04-25T15:57:05Z</time></trkpt><trkpt lat="46.16505610995877" lon="12.647184453560515"><ele>349.0</ele><time>2026-04-25T15:57:06Z</time></trkpt><trkpt lat="46.165027529692225" lon="12.64738247109733"><ele>349.0</ele><time>2026-04-25T15:57:07Z</time></trkpt><trkpt lat="46.165001884165555" lon="12.647579760487796"><ele>349.0</ele><time>2026-04-25T15:57:08Z</time></trkpt><trkpt lat="46.16497833346282" lon="12.647785917400622"><ele>349.0</ele><time>2026-04-25T15:57:09Z</time></trkpt><trkpt lat="46.164953878794215" lon="12.648009429888818"><ele>349.0</ele><time>2026-04-25T15:57:10Z</time></trkpt><trkpt lat="46.164924712406936" lon="12.6482412578661"><ele>348.66666666666663</ele><time>2026-04-25T15:57:11Z</time></trkpt><trkpt lat="46.16489124840896" lon="12.64848548930371"><ele>348.3333333333333</ele><time>2026-04-25T15:57:12Z</time></trkpt><trkpt lat="46.164867992277046" lon="12.648729398913433"><ele>348.0</ele><time>2026-04-25T15:57:13Z</time></trkpt><trkpt lat="46.16483838872644" lon="12.648958702766738"><ele>365.0</ele><time>2026-04-25T15:57:14Z</time></trkpt><trkpt lat="46.16481231795865" lon="12.64917834311647"><ele>382.0</ele><time>2026-04-25T15:57:15Z</time></trkpt><trkpt lat="46.1647878728166" lon="12.649392716021664"><ele>399.0</ele><time>2026-04-25T15:57:16Z</time></trkpt><trkpt lat="46.1647656496321" lon="12.649598928772818"><ele>416.0</ele><time>2026-04-25T15:57:17Z</time></trkpt><trkpt lat="46.16474641329194" lon="12.649812242372981"><ele>416.0</ele><time>2026-04-25T15:57:18Z</time></trkpt><trkpt lat="46.16472942994034" lon="12.650024870052803"><ele>416.0</ele><time>2026-04-25T15:57:19Z</time></trkpt><trkpt lat="46.164721402959316" lon="12.650240830076543"><ele>416.0</ele><time>2026-04-25T15:57:20Z</time></trkpt><trkpt lat="46.16471264496822" lon="12.650452306781167"><ele>416.0</ele><time>2026-04-25T15:57:21Z</time></trkpt><trkpt lat="46.16471012940042" lon="12.650663698546264"><ele>418.75</ele><time>2026-04-25T15:57:22Z</time></trkpt><trkpt lat="46.16471624203878" lon="12.650874995540438"><ele>421.5</ele><time>2026-04-25T15:57:23Z</time></trkpt><trkpt lat="46.16473615065951" lon="12.651083435812676"><ele>424.25</ele><time>2026-04-25T15:57:24Z</time></trkpt><trkpt lat="46.16476277867522" lon="12.651302735216026"><ele>427.0</ele><time>2026-04-25T15:57:25Z</time></trkpt><trkpt lat="46.164791371244426" lon="12.651519343551504"><ele>428.75</ele><time>2026-04-25T15:57:26Z</time></trkpt><trkpt lat="46.16482173996372" lon="12.651717466733903"><ele>430.5</ele><time>2026-04-25T15:57:27Z</time></trkpt><trkpt lat="46.16484935845848" lon="12.651903856715231"><ele>432.25</ele><time>2026-04-25T15:57:28Z</time></trkpt><trkpt lat="46.16487116152091" lon="12.652075968413008"><ele>434.0</ele><time>2026-04-25T15:57:29Z</time></trkpt><trkpt lat="46.164890205481825" lon="12.652229761494134"><ele>432.25</ele><time>2026-04-25T15:57:30Z</time></trkpt><trkpt lat="46.164894692305346" lon="12.652390024644383"><ele>430.5</ele><time>2026-04-25T15:57:31Z</time></trkpt><trkpt lat="46.164878730724716" lon="12.652557277693422"><ele>428.75</ele><time>2026-04-25T15:57:32Z</time></trkpt><trkpt lat="46.16483171791232" lon="12.6527366314908"><ele>427.0</ele><time>2026-04-25T15:57:33Z</time></trkpt><trkpt lat="46.164762120159864" lon="12.652923412083156"><ele>424.75</ele><time>2026-04-25T15:57:34Z</time></trkpt><trkpt lat="46.16468980550014" lon="12.653094840274093"><ele>422.5</ele><time>2026-04-25T15:57:35Z</time></trkpt><trkpt lat="46.16462255068511" lon="12.653273449691095"><ele>420.25</ele><time>2026-04-25T15:57:36Z</time></trkpt><trkpt lat="46.164554019462365" lon="12.653450977361869"><ele>418.0</ele><time>2026-04-25T15:57:37Z</time></trkpt><trkpt lat="46.1644859688498" lon="12.65362743365369"><ele>417.33333333333337</ele><time>2026-04-25T15:57:38Z</time></trkpt><trkpt lat="46.164417997122584" lon="12.653801534958037"><ele>416.66666666666663</ele><time>2026-04-25T15:57:39Z</time></trkpt><trkpt lat="46.16434677162731" lon="12.653988517128436"><ele>416.0</ele><time>2026-04-25T15:57:40.068Z</time></trkpt><trkpt lat="46.163154532246566" lon="12.656139572943385"><ele>398.0</ele><time>2026-04-25T15:57:56.999Z</time></trkpt><trkpt lat="46.163084360450284" lon="12.656136764713178"><ele>380.0</ele><time>2026-04-25T15:57:57.999Z</time></trkpt><trkpt lat="46.16294784150723" lon="12.656510514859553"><ele>362.0</ele><time>2026-04-25T15:57:58.999Z</time></trkpt><trkpt lat="46.16287347019326" lon="12.656495410302107"><ele>344.0</ele><time>2026-04-25T15:57:59.999Z</time></trkpt><trkpt lat="46.162808973638505" lon="12.656472522681963"><ele>344.00000000000006</ele><time>2026-04-25T15:58:00.999Z</time></trkpt><trkpt lat="46.16274579061285" lon="12.656443241899394"><ele>344.0</ele><time>2026-04-25T15:58:01.999Z</time></trkpt><trkpt lat="46.16267787965833" lon="12.656424824777996"><ele>344.0</ele><time>2026-04-25T15:58:02.999Z</time></trkpt><trkpt lat="46.162617110861184" lon="12.656449193034208"><ele>344.0</ele><time>2026-04-25T15:58:03.999Z</time></trkpt><trkpt lat="46.162570046849616" lon="12.656522150244898"><ele>344.0</ele><time>2026-04-25T15:58:04.999Z</time></trkpt><trkpt lat="46.16255441870453" lon="12.656627298871005"><ele>344.00000000000006</ele><time>2026-04-25T15:58:05.999Z</time></trkpt><trkpt lat="46.162578509504385" lon="12.656734480310444"><ele>344.0</ele><time>2026-04-25T15:58:06.999Z</time></trkpt><trkpt lat="46.16262905543426" lon="12.656819401819545"><ele>344.0</ele><time>2026-04-25T15:58:07.999Z</time></trkpt><trkpt lat="46.16269155646987" lon="12.65689149658631"><ele>344.0</ele><time>2026-04-25T15:58:08.999Z</time></trkpt><trkpt lat="46.162763976854045" lon="12.656969911188003"><ele>344.0</ele><time>2026-04-25T15:58:09.999Z</time></trkpt><trkpt lat="46.16284675441741" lon="12.657054086078585"><ele>344.0</ele><time>2026-04-25T15:58:10.999Z</time></trkpt><trkpt lat="46.1629411367773" lon="12.657138138219524"><ele>344.0</ele><time>2026-04-25T15:58:11.999Z</time></trkpt><trkpt lat="46.16303347401997" lon="12.657219480307756"><ele>344.2</ele><time>2026-04-25T15:58:12.999Z</time></trkpt><trkpt lat="46.163117477887965" lon="12.65728605554263"><ele>344.4</ele><time>2026-04-25T15:58:13.999Z</time></trkpt><trkpt lat="46.163192506294465" lon="12.657359688571226"><ele>344.6</ele><time>2026-04-25T15:58:14.999Z</time></trkpt><trkpt lat="46.163265276658365" lon="12.657434077778055"><ele>344.8</ele><time>2026-04-25T15:58:15.999Z</time></trkpt><trkpt lat="46.16333438317582" lon="12.657515269209691"><ele>345.0</ele><time>2026-04-25T15:58:16.999Z</time></trkpt><trkpt lat="46.163392606572764" lon="12.65760965763028"><ele>345.0</ele><time>2026-04-25T15:58:17.999Z</time></trkpt><trkpt lat="46.1634388440111" lon="12.65772812392667"><ele>345.0</ele><time>2026-04-25T15:58:18.999Z</time></trkpt><trkpt lat="46.163468424189006" lon="12.657875116305641"><ele>345.0</ele><time>2026-04-25T15:58:19.999Z</time></trkpt><trkpt lat="46.16347995990393" lon="12.658046919660624"><ele>345.0</ele><time>2026-04-25T15:58:20.999Z</time></trkpt><trkpt lat="46.163480404481945" lon="12.658243193180262"><ele>342.0</ele><time>2026-04-25T15:58:21.999Z</time></trkpt><trkpt lat="46.16346564335209" lon="12.65845363362618"><ele>339.0</ele><time>2026-04-25T15:58:22.999Z</time></trkpt><trkpt lat="46.16344422131507" lon="12.658668788179202"><ele>336.0</ele><time>2026-04-25T15:58:24Z</time></trkpt><trkpt lat="46.16339783719959" lon="12.658880686146258"><ele>334.25</ele><time>2026-04-25T15:58:25Z</time></trkpt><trkpt lat="46.1633844596458" lon="12.659069513721644"><ele>332.5</ele><time>2026-04-25T15:58:26Z</time></trkpt><trkpt lat="46.16335868270581" lon="12.659232001509169"><ele>330.75</ele><time>2026-04-25T15:58:27Z</time></trkpt><trkpt lat="46.16333435882681" lon="12.659380998985876"><ele>329.0</ele><time>2026-04-25T15:58:28Z</time></trkpt><trkpt lat="46.16330912169925" lon="12.65952613928076"><ele>327.79999999999995</ele><time>2026-04-25T15:58:29Z</time></trkpt><trkpt lat="46.16328606901203" lon="12.659676432461183"><ele>326.59999999999997</ele><time>2026-04-25T15:58:30Z</time></trkpt><trkpt lat="46.163262930297144" lon="12.659830532629012"><ele>325.4</ele><time>2026-04-25T15:58:31Z</time></trkpt><trkpt lat="46.16323885082739" lon="12.65998497233517"><ele>324.2</ele><time>2026-04-25T15:58:32Z</time></trkpt><trkpt lat="46.163215978360476" lon="12.66013830503739"><ele>323.0</ele><time>2026-04-25T15:58:33Z</time></trkpt><trkpt lat="46.16319302619266" lon="12.660285826414494"><ele>322.5</ele><time>2026-04-25T15:58:34Z</time></trkpt><trkpt lat="46.16317255789511" lon="12.660418791391109"><ele>322.0</ele><time>2026-04-25T15:58:35Z</time></trkpt><trkpt lat="46.16315367047305" lon="12.660544104375719"><ele>321.5</ele><time>2026-04-25T15:58:36Z</time></trkpt><trkpt lat="46.16313480993527" lon="12.660662083078961"><ele>321.0</ele><time>2026-04-25T15:58:37Z</time></trkpt><trkpt lat="46.16311716261572" lon="12.660772744053567"><ele>320.5</ele><time>2026-04-25T15:58:38Z</time></trkpt><trkpt lat="46.16310054232623" lon="12.660878992760798"><ele>320.0</ele><time>2026-04-25T15:58:39Z</time></trkpt><trkpt lat="46.163077093455776" lon="12.661040906922855"><ele>319.8</ele><time>2026-04-25T15:58:41Z</time></trkpt><trkpt lat="46.163056025134026" lon="12.661162288625208"><ele>319.6</ele><time>2026-04-25T15:58:43Z</time></trkpt><trkpt lat="46.16309901961001" lon="12.66127446695388"><ele>319.4</ele><time>2026-04-25T15:58:45Z</time></trkpt><trkpt lat="46.1632288917456" lon="12.661258829889881"><ele>319.2</ele><time>2026-04-25T15:58:47Z</time></trkpt><trkpt lat="46.16331459597826" lon="12.661276723543"><ele>319.0</ele><time>2026-04-25T15:58:48Z</time></trkpt><trkpt lat="46.16341643813465" lon="12.661264597597443"><ele>319.4</ele><time>2026-04-25T15:58:49Z</time></trkpt><trkpt lat="46.1635085699137" lon="12.661274084490309"><ele>319.79999999999995</ele><time>2026-04-25T15:58:50Z</time></trkpt><trkpt lat="46.16359416484259" lon="12.66127768088332"><ele>320.20000000000005</ele><time>2026-04-25T15:58:51Z</time></trkpt><trkpt lat="46.16368805338456" lon="12.6613055337244"><ele>320.6</ele><time>2026-04-25T15:58:52Z</time></trkpt><trkpt lat="46.16379397680786" lon="12.661290353310688"><ele>321.0</ele><time>2026-04-25T15:58:53Z</time></trkpt><trkpt lat="46.163906563262344" lon="12.661292263926537"><ele>321.25</ele><time>2026-04-25T15:58:54Z</time></trkpt><trkpt lat="46.16403449848674" lon="12.661307825801279"><ele>321.5</ele><time>2026-04-25T15:58:55Z</time></trkpt><trkpt lat="46.164171096915354" lon="12.661290914765827"><ele>321.75</ele><time>2026-04-25T15:58:56Z</time></trkpt><trkpt lat="46.16430997350205" lon="12.661267059346855"><ele>322.0</ele><time>2026-04-25T15:58:57Z</time></trkpt><trkpt lat="46.16443952282159" lon="12.661223538090669"><ele>322.0</ele><time>2026-04-25T15:58:58Z</time></trkpt><trkpt lat="46.16456622402317" lon="12.661208711562605"><ele>322.0</ele><time>2026-04-25T15:58:59Z</time></trkpt><trkpt lat="46.16469924822896" lon="12.661210242192716"><ele>322.0</ele><time>2026-04-25T15:59:00Z</time></trkpt><trkpt lat="46.164838775991115" lon="12.661211994040698"><ele>322.0</ele><time>2026-04-25T15:59:01Z</time></trkpt><trkpt lat="46.16497537758908" lon="12.661212142241817"><ele>321.5</ele><time>2026-04-25T15:59:02Z</time></trkpt><trkpt lat="46.165102050217904" lon="12.661225722206801"><ele>321.0</ele><time>2026-04-25T15:59:03Z</time></trkpt><trkpt lat="46.165221755448655" lon="12.661174775738667"><ele>320.5</ele><time>2026-04-25T15:59:04Z</time></trkpt><trkpt lat="46.165344176958385" lon="12.66114285135002"><ele>320.0</ele><time>2026-04-25T15:59:05Z</time></trkpt><trkpt lat="46.16547265343488" lon="12.661087909474338"><ele>321.25</ele><time>2026-04-25T15:59:06Z</time></trkpt><trkpt lat="46.16560331072631" lon="12.661037422917056"><ele>322.5</ele><time>2026-04-25T15:59:07Z</time></trkpt><trkpt lat="46.165744668388264" lon="12.660979885019742"><ele>323.75</ele><time>2026-04-25T15:59:08Z</time></trkpt><trkpt lat="46.16587550413871" lon="12.66091661751623"><ele>325.0</ele><time>2026-04-25T15:59:09Z</time></trkpt><trkpt lat="46.16599326252653" lon="12.660873294766152"><ele>326.0</ele><time>2026-04-25T15:59:10Z</time></trkpt><trkpt lat="46.16610243438899" lon="12.660830636289083"><ele>327.0</ele><time>2026-04-25T15:59:11Z</time></trkpt><trkpt lat="46.16621150460694" lon="12.6607942824467"><ele>328.0</ele><time>2026-04-25T15:59:12Z</time></trkpt><trkpt lat="46.166337339404095" lon="12.660776198132108"><ele>329.0</ele><time>2026-04-25T15:59:13Z</time></trkpt><trkpt lat="46.166472464082304" lon="12.660774894789535"><ele>329.75</ele><time>2026-04-25T15:59:14Z</time></trkpt><trkpt lat="46.16660804708254" lon="12.660791052655382"><ele>330.5</ele><time>2026-04-25T15:59:15Z</time></trkpt><trkpt lat="46.166745057901956" lon="12.660843121855084"><ele>331.25</ele><time>2026-04-25T15:59:16Z</time></trkpt><trkpt lat="46.166885243222325" lon="12.660871687681645"><ele>332.0</ele><time>2026-04-25T15:59:17Z</time></trkpt><trkpt lat="46.167038663381426" lon="12.660881757588074"><ele>332.0</ele><time>2026-04-25T15:59:18Z</time></trkpt><trkpt lat="46.16720306539224" lon="12.660919827139493"><ele>332.0</ele><time>2026-04-25T15:59:19Z</time></trkpt><trkpt lat="46.16736827292432" lon="12.66095868217909"><ele>332.0</ele><time>2026-04-25T15:59:20Z</time></trkpt><trkpt lat="46.16754758904585" lon="12.661007600030183"><ele>333.6666666666667</ele><time>2026-04-25T15:59:21Z</time></trkpt><trkpt lat="46.16771516342755" lon="12.66105467237242"><ele>335.3333333333333</ele><time>2026-04-25T15:59:22Z</time></trkpt><trkpt lat="46.16787801468346" lon="12.661100316799075"><ele>337.0</ele><time>2026-04-25T15:59:23Z</time></trkpt><trkpt lat="46.168034927089714" lon="12.6611463429823"><ele>329.0</ele><time>2026-04-25T15:59:24Z</time></trkpt><trkpt lat="46.168189579174275" lon="12.661190962658711"><ele>321.0</ele><time>2026-04-25T15:59:25Z</time></trkpt><trkpt lat="46.16834347566222" lon="12.661234178774306"><ele>313.0</ele><time>2026-04-25T15:59:26Z</time></trkpt><trkpt lat="46.1685018115915" lon="12.661277495484677"><ele>312.3333333333333</ele><time>2026-04-25T15:59:27Z</time></trkpt><trkpt lat="46.168664430252576" lon="12.661317857826367"><ele>311.6666666666667</ele><time>2026-04-25T15:59:28Z</time></trkpt><trkpt lat="46.16883081706492" lon="12.661356921894331"><ele>311.0</ele><time>2026-04-25T15:59:29Z</time></trkpt><trkpt lat="46.169001504459196" lon="12.661395560229645"><ele>314.33333333333337</ele><time>2026-04-25T15:59:30Z</time></trkpt><trkpt lat="46.16918347166672" lon="12.661442936708607"><ele>317.6666666666667</ele><time>2026-04-25T15:59:31Z</time></trkpt><trkpt lat="46.16938191421885" lon="12.661503811474597"><ele>321.0</ele><time>2026-04-25T15:59:32Z</time></trkpt><trkpt lat="46.169567156948304" lon="12.661557962004562"><ele>321.0</ele><time>2026-04-25T15:59:33Z</time></trkpt><trkpt lat="46.169729819293195" lon="12.661629200564674"><ele>321.0</ele><time>2026-04-25T15:59:34Z</time></trkpt><trkpt lat="46.169881968274176" lon="12.661678410708701"><ele>321.0</ele><time>2026-04-25T15:59:35Z</time></trkpt><trkpt lat="46.170032525117385" lon="12.66173592013036"><ele>323.6666666666667</ele><time>2026-04-25T15:59:36Z</time></trkpt><trkpt lat="46.17017641378159" lon="12.661815066061234"><ele>326.33333333333337</ele><time>2026-04-25T15:59:37Z</time></trkpt><trkpt lat="46.17031978990183" lon="12.661928960275832"><ele>329.0</ele><time>2026-04-25T15:59:38Z</time></trkpt><trkpt lat="46.17046904310339" lon="12.662061139305907"><ele>323.33333333333337</ele><time>2026-04-25T15:59:39Z</time></trkpt><trkpt lat="46.17061878600326" lon="12.662191101500817"><ele>317.6666666666667</ele><time>2026-04-25T15:59:40Z</time></trkpt><trkpt lat="46.1707650218493" lon="12.662316556264859"><ele>312.0</ele><time>2026-04-25T15:59:41Z</time></trkpt><trkpt lat="46.17092115299945" lon="12.662419534879215"><ele>312.0</ele><time>2026-04-25T15:59:42Z</time></trkpt><trkpt lat="46.171080881393095" lon="12.662464720188677"><ele>312.0</ele><time>2026-04-25T15:59:43Z</time></trkpt><trkpt lat="46.17121152727605" lon="12.662527661116513"><ele>312.0</ele><time>2026-04-25T15:59:44Z</time></trkpt><trkpt lat="46.17132675078723" lon="12.662600715799494"><ele>312.0</ele><time>2026-04-25T15:59:45Z</time></trkpt><trkpt lat="46.17143824601968" lon="12.66264637490778"><ele>312.0</ele><time>2026-04-25T15:59:46Z</time></trkpt><trkpt lat="46.17157810661917" lon="12.662636883680728"><ele>312.0</ele><time>2026-04-25T15:59:47Z</time></trkpt><trkpt lat="46.17173417200814" lon="12.66254468533898"><ele>312.0</ele><time>2026-04-25T15:59:48Z</time></trkpt><trkpt lat="46.1718857687464" lon="12.662472081791782"><ele>312.0</ele><time>2026-04-25T15:59:49Z</time></trkpt><trkpt lat="46.172010181416844" lon="12.662420604316642"><ele>312.0</ele><time>2026-04-25T15:59:50Z</time></trkpt><trkpt lat="46.17211831048805" lon="12.66237411304177"><ele>312.0</ele><time>2026-04-25T15:59:51Z</time></trkpt><trkpt lat="46.17222248560731" lon="12.662294080615789"><ele>312.0</ele><time>2026-04-25T15:59:51.999Z</time></trkpt><trkpt lat="46.1723140103578" lon="12.662154041337695"><ele>310.6666666666667</ele><time>2026-04-25T15:59:52.999Z</time></trkpt><trkpt lat="46.17238385350625" lon="12.661954309045218"><ele>309.33333333333337</ele><time>2026-04-25T15:59:53.999Z</time></trkpt><trkpt lat="46.17245417096053" lon="12.661762775020556"><ele>308.0</ele><time>2026-04-25T15:59:54.999Z</time></trkpt><trkpt lat="46.17255951477315" lon="12.6615925835113"><ele>308.0</ele><time>2026-04-25T15:59:55.999Z</time></trkpt><trkpt lat="46.17267735801452" lon="12.661460021797875"><ele>308.0</ele><time>2026-04-25T15:59:56.999Z</time></trkpt><trkpt lat="46.17276699292498" lon="12.661331619181267"><ele>308.0</ele><time>2026-04-25T15:59:57.999Z</time></trkpt><trkpt lat="46.17283335498915" lon="12.661216107885602"><ele>308.0</ele><time>2026-04-25T15:59:58.999Z</time></trkpt><trkpt lat="46.17290856133965" lon="12.661151576938332"><ele>308.0</ele><time>2026-04-25T15:59:59.999Z</time></trkpt><trkpt lat="46.1730132235481" lon="12.661136767799292"><ele>308.0</ele><time>2026-04-25T16:00:00.999Z</time></trkpt><trkpt lat="46.17313412925272" lon="12.661205871756186"><ele>308.0</ele><time>2026-04-25T16:00:01.999Z</time></trkpt><trkpt lat="46.17328454973948" lon="12.661267282393677"><ele>308.0</ele><time>2026-04-25T16:00:02.999Z</time></trkpt><trkpt lat="46.17343210243918" lon="12.661297307541693"><ele>305.0</ele><time>2026-04-25T16:00:03.999Z</time></trkpt><trkpt lat="46.17354864399023" lon="12.661343871997104"><ele>302.0</ele><time>2026-04-25T16:00:04.999Z</time></trkpt><trkpt lat="46.17364511037122" lon="12.661382885934067"><ele>299.0</ele><time>2026-04-25T16:00:05.999Z</time></trkpt><trkpt lat="46.173730199655424" lon="12.661420588252009"><ele>296.0</ele><time>2026-04-25T16:00:06.999Z</time></trkpt><trkpt lat="46.17380599817437" lon="12.661451180236371"><ele>293.0</ele><time>2026-04-25T16:00:07.999Z</time></trkpt><trkpt lat="46.17388620329417" lon="12.661567392477103"><ele>293.0</ele><time>2026-04-25T16:00:09.999Z</time></trkpt><trkpt lat="46.17385982815747" lon="12.661676401063747"><ele>293.0</ele><time>2026-04-25T16:00:10.999Z</time></trkpt><trkpt lat="46.17379374951543" lon="12.661776337219266"><ele>293.0</ele><time>2026-04-25T16:00:11.999Z</time></trkpt><trkpt lat="46.17375498376169" lon="12.661910831121524"><ele>293.0</ele><time>2026-04-25T16:00:12.999Z</time></trkpt><trkpt lat="46.17374710456626" lon="12.662036811876423"><ele>293.0</ele><time>2026-04-25T16:00:13.999Z</time></trkpt><trkpt lat="46.17374665158635" lon="12.662171173254166"><ele>294.4</ele><time>2026-04-25T16:00:14.999Z</time></trkpt><trkpt lat="46.173735635626684" lon="12.662317238781624"><ele>295.8</ele><time>2026-04-25T16:00:15.999Z</time></trkpt><trkpt lat="46.17370915284577" lon="12.66245518683724"><ele>297.2</ele><time>2026-04-25T16:00:16.999Z</time></trkpt><trkpt lat="46.17366194906569" lon="12.662593904241058"><ele>298.6</ele><time>2026-04-25T16:00:17.999Z</time></trkpt><trkpt lat="46.173613480294584" lon="12.662722378440227"><ele>300.0</ele><time>2026-04-25T16:00:18.999Z</time></trkpt><trkpt lat="46.173536689262136" lon="12.662839196339409"><ele>303.5</ele><time>2026-04-25T16:00:19.999Z</time></trkpt><trkpt lat="46.173428013899894" lon="12.66295960051989"><ele>307.0</ele><time>2026-04-25T16:00:20.999Z</time></trkpt><trkpt lat="46.17334092220388" lon="12.663126775645559"><ele>310.5</ele><time>2026-04-25T16:00:21.999Z</time></trkpt><trkpt lat="46.17326214862576" lon="12.663332501974862"><ele>314.0</ele><time>2026-04-25T16:00:22.999Z</time></trkpt><trkpt lat="46.17319740319041" lon="12.663538633770136"><ele>304.6666666666667</ele><time>2026-04-25T16:00:23.999Z</time></trkpt><trkpt lat="46.17315689199839" lon="12.663776918367764"><ele>295.3333333333333</ele><time>2026-04-25T16:00:24.999Z</time></trkpt><trkpt lat="46.17311720880862" lon="12.664084243758936"><ele>286.0</ele><time>2026-04-25T16:00:25.999Z</time></trkpt><trkpt lat="46.17306233743516" lon="12.664335119535549"><ele>290.0</ele><time>2026-04-25T16:00:26.999Z</time></trkpt><trkpt lat="46.172968725925024" lon="12.664543544787364"><ele>294.0</ele><time>2026-04-25T16:00:27.999Z</time></trkpt><trkpt lat="46.17291985594032" lon="12.664768119393383"><ele>298.0</ele><time>2026-04-25T16:00:28.999Z</time></trkpt><trkpt lat="46.17284422525184" lon="12.664978122132641"><ele>298.0</ele><time>2026-04-25T16:00:30Z</time></trkpt><trkpt lat="46.17274986336436" lon="12.665176840760644"><ele>298.0</ele><time>2026-04-25T16:00:31Z</time></trkpt><trkpt lat="46.17265013915435" lon="12.665378478445605"><ele>298.0</ele><time>2026-04-25T16:00:32Z</time></trkpt><trkpt lat="46.1725521079594" lon="12.665576076423777"><ele>299.66666666666663</ele><time>2026-04-25T16:00:33Z</time></trkpt><trkpt lat="46.172445741909" lon="12.665768696295007"><ele>301.3333333333333</ele><time>2026-04-25T16:00:34Z</time></trkpt><trkpt lat="46.17233316910045" lon="12.665952131368702"><ele>303.0</ele><time>2026-04-25T16:00:35Z</time></trkpt><trkpt lat="46.172230890896415" lon="12.666152338000161"><ele>303.0</ele><time>2026-04-25T16:00:36Z</time></trkpt><trkpt lat="46.17213872556873" lon="12.666360664949348"><ele>303.0</ele><time>2026-04-25T16:00:37Z</time></trkpt><trkpt lat="46.17203154054337" lon="12.666553867873276"><ele>303.0</ele><time>2026-04-25T16:00:38Z</time></trkpt><trkpt lat="46.17189980103264" lon="12.666719651880118"><ele>303.0</ele><time>2026-04-25T16:00:39Z</time></trkpt><trkpt lat="46.171778911049515" lon="12.666893154088493"><ele>303.0</ele><time>2026-04-25T16:00:40Z</time></trkpt><trkpt lat="46.171693582380115" lon="12.667056167004064"><ele>303.0</ele><time>2026-04-25T16:00:41Z</time></trkpt><trkpt lat="46.171603968865085" lon="12.667208957913486"><ele>300.0</ele><time>2026-04-25T16:00:42Z</time></trkpt><trkpt lat="46.171498818772946" lon="12.66733981836376"><ele>297.0</ele><time>2026-04-25T16:00:43Z</time></trkpt><trkpt lat="46.17139685273283" lon="12.667444814173667"><ele>294.0</ele><time>2026-04-25T16:00:44Z</time></trkpt><trkpt lat="46.171295237858835" lon="12.66756851777782"><ele>291.0</ele><time>2026-04-25T16:00:45Z</time></trkpt><trkpt lat="46.17120573824628" lon="12.66770078079161"><ele>297.20000000000005</ele><time>2026-04-25T16:00:46Z</time></trkpt><trkpt lat="46.171127975928144" lon="12.66782391378445"><ele>303.40000000000003</ele><time>2026-04-25T16:00:47Z</time></trkpt><trkpt lat="46.17104126782423" lon="12.667932789842688"><ele>309.6</ele><time>2026-04-25T16:00:48Z</time></trkpt><trkpt lat="46.17095394262127" lon="12.668027045675485"><ele>315.8</ele><time>2026-04-25T16:00:49Z</time></trkpt><trkpt lat="46.170873040705395" lon="12.668133532514068"><ele>322.0</ele><time>2026-04-25T16:00:50Z</time></trkpt><trkpt lat="46.17079587111908" lon="12.668238954883655"><ele>322.0</ele><time>2026-04-25T16:00:51Z</time></trkpt><trkpt lat="46.17071459020026" lon="12.66834059983289"><ele>322.0</ele><time>2026-04-25T16:00:52Z</time></trkpt><trkpt lat="46.17062397765432" lon="12.668440358748262"><ele>322.0</ele><time>2026-04-25T16:00:53Z</time></trkpt><trkpt lat="46.17052148527155" lon="12.668532859791284"><ele>322.0</ele><time>2026-04-25T16:00:54Z</time></trkpt><trkpt lat="46.170410442872466" lon="12.668617356208976"><ele>320.25</ele><time>2026-04-25T16:00:55Z</time></trkpt><trkpt lat="46.170299171744134" lon="12.66871547365155"><ele>318.5</ele><time>2026-04-25T16:00:56Z</time></trkpt><trkpt lat="46.17019454765988" lon="12.668838701732446"><ele>316.75</ele><time>2026-04-25T16:00:57Z</time></trkpt><trkpt lat="46.17009028567472" lon="12.66896073669828"><ele>315.0</ele><time>2026-04-25T16:00:58Z</time></trkpt><trkpt lat="46.16998298239809" lon="12.669078338780913"><ele>315.0</ele><time>2026-04-25T16:00:59Z</time></trkpt><trkpt lat="46.16987820912766" lon="12.66919795141373"><ele>315.0</ele><time>2026-04-25T16:01:00Z</time></trkpt><trkpt lat="46.16977913669287" lon="12.669315429065195"><ele>315.0</ele><time>2026-04-25T16:01:01Z</time></trkpt><trkpt lat="46.169685941492666" lon="12.669432683741297"><ele>315.0</ele><time>2026-04-25T16:01:02Z</time></trkpt><trkpt lat="46.16960045644432" lon="12.669548504736527"><ele>314.0</ele><time>2026-04-25T16:01:03Z</time></trkpt><trkpt lat="46.169511556298716" lon="12.669677489351688"><ele>313.0</ele><time>2026-04-25T16:01:04Z</time></trkpt><trkpt lat="46.169418729357204" lon="12.66980943546224"><ele>312.0</ele><time>2026-04-25T16:01:05Z</time></trkpt><trkpt lat="46.16931975261318" lon="12.669930570968933"><ele>311.0</ele><time>2026-04-25T16:01:06Z</time></trkpt><trkpt lat="46.169213203927725" lon="12.6700392306857"><ele>311.0</ele><time>2026-04-25T16:01:07Z</time></trkpt><trkpt lat="46.16910250570083" lon="12.670149336201897"><ele>311.0</ele><time>2026-04-25T16:01:08Z</time></trkpt><trkpt lat="46.16899666325771" lon="12.670273771576845"><ele>311.0</ele><time>2026-04-25T16:01:09Z</time></trkpt><trkpt lat="46.16889481130095" lon="12.67041362087717"><ele>311.0</ele><time>2026-04-25T16:01:10Z</time></trkpt><trkpt lat="46.16880182931823" lon="12.67056491642519"><ele>310.5</ele><time>2026-04-25T16:01:11Z</time></trkpt><trkpt lat="46.168705974849004" lon="12.670718294000535"><ele>310.0</ele><time>2026-04-25T16:01:12Z</time></trkpt><trkpt lat="46.1685987317781" lon="12.670857827144482"><ele>309.5</ele><time>2026-04-25T16:01:13Z</time></trkpt><trkpt lat="46.16848241667613" lon="12.670984291656005"><ele>309.0</ele><time>2026-04-25T16:01:14Z</time></trkpt><trkpt lat="46.168357514613426" lon="12.671106780834867"><ele>309.6666666666667</ele><time>2026-04-25T16:01:15Z</time></trkpt><trkpt lat="46.168228322824135" lon="12.671227892581605"><ele>310.33333333333337</ele><time>2026-04-25T16:01:16Z</time></trkpt><trkpt lat="46.168098534437554" lon="12.671349025421534"><ele>311.0</ele><time>2026-04-25T16:01:17Z</time></trkpt><trkpt lat="46.16797256089546" lon="12.67147039009746"><ele>311.0</ele><time>2026-04-25T16:01:18Z</time></trkpt><trkpt lat="46.167853479378834" lon="12.671587142233111"><ele>311.0</ele><time>2026-04-25T16:01:19Z</time></trkpt><trkpt lat="46.16774704960138" lon="12.671690312849957"><ele>311.0</ele><time>2026-04-25T16:01:20Z</time></trkpt><trkpt lat="46.16764383320591" lon="12.671789458341483"><ele>311.0</ele><time>2026-04-25T16:01:21Z</time></trkpt><trkpt lat="46.16753778890564" lon="12.671890411109691"><ele>312.0</ele><time>2026-04-25T16:01:22Z</time></trkpt><trkpt lat="46.16742932769461" lon="12.671988974030484"><ele>313.0</ele><time>2026-04-25T16:01:23Z</time></trkpt><trkpt lat="46.16731633576696" lon="12.672077183066484"><ele>314.0</ele><time>2026-04-25T16:01:24Z</time></trkpt><trkpt lat="46.16719769173836" lon="12.672144273397635"><ele>315.0</ele><time>2026-04-25T16:01:25Z</time></trkpt><trkpt lat="46.167075931065064" lon="12.672200622958304"><ele>315.0</ele><time>2026-04-25T16:01:26Z</time></trkpt><trkpt lat="46.166954488635774" lon="12.672256702303116"><ele>315.0</ele><time>2026-04-25T16:01:27Z</time></trkpt><trkpt lat="46.166833000668916" lon="12.672314248429547"><ele>315.0</ele><time>2026-04-25T16:01:28Z</time></trkpt><trkpt lat="46.166713235042224" lon="12.672371040905281"><ele>315.0</ele><time>2026-04-25T16:01:29Z</time></trkpt><trkpt lat="46.16659642308253" lon="12.672428629110485"><ele>312.25</ele><time>2026-04-25T16:01:30Z</time></trkpt><trkpt lat="46.16648241361106" lon="12.672480490334978"><ele>309.5</ele><time>2026-04-25T16:01:31Z</time></trkpt><trkpt lat="46.16637190220435" lon="12.672539114289041"><ele>306.75</ele><time>2026-04-25T16:01:32Z</time></trkpt><trkpt lat="46.16626146660324" lon="12.67260859681033"><ele>304.0</ele><time>2026-04-25T16:01:33Z</time></trkpt><trkpt lat="46.16615800930697" lon="12.672698108518293"><ele>308.5</ele><time>2026-04-25T16:01:34Z</time></trkpt><trkpt lat="46.166058275540415" lon="12.672799856381896"><ele>313.0</ele><time>2026-04-25T16:01:35Z</time></trkpt><trkpt lat="46.165956386783364" lon="12.672899115450159"><ele>317.5</ele><time>2026-04-25T16:01:36Z</time></trkpt><trkpt lat="46.165850552904" lon="12.67299581264091"><ele>322.0</ele><time>2026-04-25T16:01:37Z</time></trkpt><trkpt lat="46.16574362340094" lon="12.67309290517503"><ele>321.0</ele><time>2026-04-25T16:01:38Z</time></trkpt><trkpt lat="46.165633472711356" lon="12.673179101095874"><ele>320.0</ele><time>2026-04-25T16:01:39Z</time></trkpt><trkpt lat="46.16551926266076" lon="12.673242332663683"><ele>319.0</ele><time>2026-04-25T16:01:40Z</time></trkpt><trkpt lat="46.16539652775532" lon="12.67328458662501"><ele>318.0</ele><time>2026-04-25T16:01:41Z</time></trkpt><trkpt lat="46.16526880099745" lon="12.673288751825902"><ele>318.0</ele><time>2026-04-25T16:01:42Z</time></trkpt><trkpt lat="46.165140127736464" lon="12.673277561794439"><ele>318.0</ele><time>2026-04-25T16:01:43Z</time></trkpt><trkpt lat="46.16501175817527" lon="12.673264155995227"><ele>318.0</ele><time>2026-04-25T16:01:44Z</time></trkpt><trkpt lat="46.16488581544517" lon="12.673281230876155"><ele>318.0</ele><time>2026-04-25T16:01:45Z</time></trkpt><trkpt lat="46.16476390482755" lon="12.673326685391457"><ele>317.5</ele><time>2026-04-25T16:01:46Z</time></trkpt><trkpt lat="46.16464459885167" lon="12.673393819357418"><ele>317.0</ele><time>2026-04-25T16:01:47Z</time></trkpt><trkpt lat="46.16453018740286" lon="12.673478849127887"><ele>316.5</ele><time>2026-04-25T16:01:48Z</time></trkpt><trkpt lat="46.1644268249633" lon="12.673587728835932"><ele>316.0</ele><time>2026-04-25T16:01:49Z</time></trkpt><trkpt lat="46.16434413959472" lon="12.673718366681689"><ele>316.0</ele><time>2026-04-25T16:01:50Z</time></trkpt><trkpt lat="46.16426367646064" lon="12.673838225679324"><ele>316.0</ele><time>2026-04-25T16:01:51Z</time></trkpt><trkpt lat="46.16419145231258" lon="12.673967852103814"><ele>316.0</ele><time>2026-04-25T16:01:52Z</time></trkpt><trkpt lat="46.16412578541795" lon="12.674108252050013"><ele>316.0</ele><time>2026-04-25T16:01:53Z</time></trkpt><trkpt lat="46.16406687915833" lon="12.674261719604708"><ele>312.25</ele><time>2026-04-25T16:01:54Z</time></trkpt><trkpt lat="46.16401680293916" lon="12.674425651600991"><ele>308.5</ele><time>2026-04-25T16:01:55Z</time></trkpt><trkpt lat="46.16397318333087" lon="12.674594354455394"><ele>304.75</ele><time>2026-04-25T16:01:55.999Z</time></trkpt><trkpt lat="46.16394432707785" lon="12.674765958372262"><ele>301.0</ele><time>2026-04-25T16:01:56.999Z</time></trkpt><trkpt lat="46.1639171172607" lon="12.674926323140282"><ele>301.0</ele><time>2026-04-25T16:01:57.999Z</time></trkpt><trkpt lat="46.16387275937727" lon="12.675074602422024"><ele>301.0</ele><time>2026-04-25T16:01:58.999Z</time></trkpt><trkpt lat="46.16380727001971" lon="12.675220002647853"><ele>301.0</ele><time>2026-04-25T16:01:59.999Z</time></trkpt><trkpt lat="46.163733881668215" lon="12.67536374863608"><ele>301.0</ele><time>2026-04-25T16:02:00.999Z</time></trkpt><trkpt lat="46.163661856224095" lon="12.675506191508479"><ele>303.5</ele><time>2026-04-25T16:02:01.999Z</time></trkpt><trkpt lat="46.16358652975226" lon="12.67565519653002"><ele>306.0</ele><time>2026-04-25T16:02:02.999Z</time></trkpt><trkpt lat="46.16351523586111" lon="12.675799426964259"><ele>308.5</ele><time>2026-04-25T16:02:03.999Z</time></trkpt><trkpt lat="46.16344439730951" lon="12.675941470188189"><ele>311.0</ele><time>2026-04-25T16:02:04.999Z</time></trkpt><trkpt lat="46.16337487714869" lon="12.676080630021634"><ele>311.75</ele><time>2026-04-25T16:02:05.999Z</time></trkpt><trkpt lat="46.163302095829366" lon="12.676226750320744"><ele>312.5</ele><time>2026-04-25T16:02:06.999Z</time></trkpt><trkpt lat="46.16322566765026" lon="12.676376896954105"><ele>313.25</ele><time>2026-04-25T16:02:07.999Z</time></trkpt><trkpt lat="46.1631448346436" lon="12.676538072250862"><ele>314.0</ele><time>2026-04-25T16:02:08.999Z</time></trkpt><trkpt lat="46.16305987090307" lon="12.67670632224906"><ele>312.75</ele><time>2026-04-25T16:02:09.999Z</time></trkpt><trkpt lat="46.16297343003453" lon="12.676878043066917"><ele>311.5</ele><time>2026-04-25T16:02:10.999Z</time></trkpt><trkpt lat="46.16288891397379" lon="12.67704678139399"><ele>310.25</ele><time>2026-04-25T16:02:11.999Z</time></trkpt><trkpt lat="46.162807480412326" lon="12.677209450141858"><ele>309.0</ele><time>2026-04-25T16:02:12.999Z</time></trkpt><trkpt lat="46.16272661792146" lon="12.677365246276302"><ele>309.0</ele><time>2026-04-25T16:02:13.999Z</time></trkpt><trkpt lat="46.16264868302916" lon="12.67751931691527"><ele>309.0</ele><time>2026-04-25T16:02:14.999Z</time></trkpt><trkpt lat="46.16256674057546" lon="12.677676926336757"><ele>309.0</ele><time>2026-04-25T16:02:15.999Z</time></trkpt><trkpt lat="46.1624868088332" lon="12.677834403086965"><ele>309.0</ele><time>2026-04-25T16:02:16.999Z</time></trkpt><trkpt lat="46.16239510712413" lon="12.677972725703972"><ele>308.25</ele><time>2026-04-25T16:02:17.999Z</time></trkpt><trkpt lat="46.16232056960596" lon="12.678117834227544"><ele>307.5</ele><time>2026-04-25T16:02:18.999Z</time></trkpt><trkpt lat="46.16224645587492" lon="12.678262564742875"><ele>306.75</ele><time>2026-04-25T16:02:19.999Z</time></trkpt><trkpt lat="46.1621717858495" lon="12.678409143194562"><ele>306.0</ele><time>2026-04-25T16:02:20.999Z</time></trkpt><trkpt lat="46.162095264043195" lon="12.678559356722694"><ele>306.5</ele><time>2026-04-25T16:02:21.999Z</time></trkpt><trkpt lat="46.16202948660752" lon="12.678728462230454"><ele>307.0</ele><time>2026-04-25T16:02:22.999Z</time></trkpt><trkpt lat="46.161946740892574" lon="12.678885360785978"><ele>307.5</ele><time>2026-04-25T16:02:23.999Z</time></trkpt><trkpt lat="46.16186288216606" lon="12.679048054750128"><ele>308.0</ele><time>2026-04-25T16:02:24.999Z</time></trkpt><trkpt lat="46.16178063409603" lon="12.679211724803752"><ele>308.0</ele><time>2026-04-25T16:02:25.999Z</time></trkpt><trkpt lat="46.16169435959196" lon="12.679379336050717"><ele>308.0</ele><time>2026-04-25T16:02:26.999Z</time></trkpt><trkpt lat="46.16160843717111" lon="12.679549654792327"><ele>308.0</ele><time>2026-04-25T16:02:27.999Z</time></trkpt><trkpt lat="46.16152415521206" lon="12.679715185304232"><ele>308.0</ele><time>2026-04-25T16:02:28.999Z</time></trkpt><trkpt lat="46.16144279375316" lon="12.679876246730352"><ele>308.0</ele><time>2026-04-25T16:02:29.999Z</time></trkpt><trkpt lat="46.16136767894349" lon="12.680033006685044"><ele>308.0</ele><time>2026-04-25T16:02:30.999Z</time></trkpt><trkpt lat="46.16129835013204" lon="12.680189584622106"><ele>308.0</ele><time>2026-04-25T16:02:31.999Z</time></trkpt><trkpt lat="46.16123424256061" lon="12.680344747617411"><ele>308.0</ele><time>2026-04-25T16:02:32.999Z</time></trkpt><trkpt lat="46.1611746194461" lon="12.68049621462712"><ele>308.0</ele><time>2026-04-25T16:02:33.999Z</time></trkpt><trkpt lat="46.16111903334773" lon="12.68064473876449"><ele>308.0</ele><time>2026-04-25T16:02:34.999Z</time></trkpt><trkpt lat="46.16106635178116" lon="12.680793516030423"><ele>308.0</ele><time>2026-04-25T16:02:36Z</time></trkpt><trkpt lat="46.161014748543195" lon="12.680944347098036"><ele>308.0</ele><time>2026-04-25T16:02:37Z</time></trkpt><trkpt lat="46.160966188295674" lon="12.681099619645162"><ele>308.25</ele><time>2026-04-25T16:02:38Z</time></trkpt><trkpt lat="46.16092055245268" lon="12.681259536251359"><ele>308.5</ele><time>2026-04-25T16:02:39Z</time></trkpt><trkpt lat="46.160875926642845" lon="12.681427282123783"><ele>308.75</ele><time>2026-04-25T16:02:40Z</time></trkpt><trkpt lat="46.16083019228391" lon="12.681602145818555"><ele>309.0</ele><time>2026-04-25T16:02:41Z</time></trkpt><trkpt lat="46.16078595582308" lon="12.68178386808512"><ele>308.75</ele><time>2026-04-25T16:02:42Z</time></trkpt><trkpt lat="46.160745533554596" lon="12.681972424566462"><ele>308.5</ele><time>2026-04-25T16:02:43Z</time></trkpt><trkpt lat="46.160708390987736" lon="12.682164259232827"><ele>308.25</ele><time>2026-04-25T16:02:44Z</time></trkpt><trkpt lat="46.1606751360425" lon="12.682357035784198"><ele>308.0</ele><time>2026-04-25T16:02:45Z</time></trkpt><trkpt lat="46.160647826175584" lon="12.682543902455427"><ele>307.5</ele><time>2026-04-25T16:02:46Z</time></trkpt><trkpt lat="46.16062463838903" lon="12.682722476361793"><ele>307.0</ele><time>2026-04-25T16:02:47Z</time></trkpt><trkpt lat="46.16060553267627" lon="12.682896829827921"><ele>306.5</ele><time>2026-04-25T16:02:48Z</time></trkpt><trkpt lat="46.16058880726399" lon="12.683071394904259"><ele>306.0</ele><time>2026-04-25T16:02:49Z</time></trkpt><trkpt lat="46.16057304378466" lon="12.683249583428315"><ele>306.0</ele><time>2026-04-25T16:02:50Z</time></trkpt><trkpt lat="46.16055831404844" lon="12.683428001735933"><ele>306.0</ele><time>2026-04-25T16:02:51Z</time></trkpt><trkpt lat="46.160544077138624" lon="12.683609617764304"><ele>306.0</ele><time>2026-04-25T16:02:52Z</time></trkpt><trkpt lat="46.160530918951785" lon="12.683790120928848"><ele>306.0</ele><time>2026-04-25T16:02:53Z</time></trkpt><trkpt lat="46.16051923904254" lon="12.683966798805644"><ele>306.0</ele><time>2026-04-25T16:02:54Z</time></trkpt><trkpt lat="46.160507840720996" lon="12.684143609170416"><ele>306.0</ele><time>2026-04-25T16:02:55Z</time></trkpt><trkpt lat="46.16049494515308" lon="12.684324458215347"><ele>306.0</ele><time>2026-04-25T16:02:56Z</time></trkpt><trkpt lat="46.160482615628005" lon="12.684513981033911"><ele>306.0</ele><time>2026-04-25T16:02:57Z</time></trkpt><trkpt lat="46.16047097076819" lon="12.684710701862038"><ele>306.0</ele><time>2026-04-25T16:02:58Z</time></trkpt><trkpt lat="46.16044324245172" lon="12.684903876686658"><ele>306.0</ele><time>2026-04-25T16:02:59Z</time></trkpt><trkpt lat="46.16045296466166" lon="12.685100965530038"><ele>306.0</ele><time>2026-04-25T16:03:00Z</time></trkpt><trkpt lat="46.16044941288575" lon="12.68529629887715"><ele>306.0</ele><time>2026-04-25T16:03:01Z</time></trkpt><trkpt lat="46.160449974867525" lon="12.68548821148513"><ele>306.25</ele><time>2026-04-25T16:03:02Z</time></trkpt><trkpt lat="46.16045323087463" lon="12.685677374992855"><ele>306.5</ele><time>2026-04-25T16:03:03Z</time></trkpt><trkpt lat="46.16046127417473" lon="12.685865818638153"><ele>306.75</ele><time>2026-04-25T16:03:04Z</time></trkpt><trkpt lat="46.16047317259764" lon="12.686052738593057"><ele>307.0</ele><time>2026-04-25T16:03:05Z</time></trkpt><trkpt lat="46.1604876184973" lon="12.686239957754978"><ele>306.5</ele><time>2026-04-25T16:03:06Z</time></trkpt><trkpt lat="46.16050286601374" lon="12.686431722055774"><ele>306.0</ele><time>2026-04-25T16:03:07Z</time></trkpt><trkpt lat="46.16052298983945" lon="12.68662527819817"><ele>305.5</ele><time>2026-04-25T16:03:08Z</time></trkpt><trkpt lat="46.16054776213036" lon="12.686823010641088"><ele>305.0</ele><time>2026-04-25T16:03:09Z</time></trkpt><trkpt lat="46.16057676087241" lon="12.687026547082246"><ele>304.6666666666667</ele><time>2026-04-25T16:03:10Z</time></trkpt><trkpt lat="46.160609082191485" lon="12.687240426883415"><ele>304.3333333333333</ele><time>2026-04-25T16:03:11Z</time></trkpt><trkpt lat="46.160648984736994" lon="12.687473128713945"><ele>304.0</ele><time>2026-04-25T16:03:12Z</time></trkpt><trkpt lat="46.16068007369145" lon="12.687723710204553"><ele>304.0</ele><time>2026-04-25T16:03:13Z</time></trkpt><trkpt lat="46.16072513514983" lon="12.687985540472168"><ele>304.0</ele><time>2026-04-25T16:03:14Z</time></trkpt><trkpt lat="46.16077270324563" lon="12.688256480310786"><ele>304.0</ele><time>2026-04-25T16:03:15Z</time></trkpt><trkpt lat="46.16082152260076" lon="12.688534547131864"><ele>303.3333333333333</ele><time>2026-04-25T16:03:16Z</time></trkpt><trkpt lat="46.16088317383396" lon="12.688809703133606"><ele>302.6666666666667</ele><time>2026-04-25T16:03:17Z</time></trkpt><trkpt lat="46.16092948867639" lon="12.689077285425691"><ele>302.0</ele><time>2026-04-25T16:03:18Z</time></trkpt><trkpt lat="46.16097278628584" lon="12.689335761056615"><ele>301.33333333333337</ele><time>2026-04-25T16:03:19Z</time></trkpt><trkpt lat="46.16101648703584" lon="12.689587935632863"><ele>300.6666666666667</ele><time>2026-04-25T16:03:20Z</time></trkpt><trkpt lat="46.16105939634844" lon="12.6898333565187"><ele>300.0</ele><time>2026-04-25T16:03:21Z</time></trkpt><trkpt lat="46.16110011665354" lon="12.690066839227333"><ele>300.3333333333333</ele><time>2026-04-25T16:03:22Z</time></trkpt><trkpt lat="46.161140215450864" lon="12.69029164287007"><ele>300.66666666666663</ele><time>2026-04-25T16:03:23Z</time></trkpt><trkpt lat="46.161178689506926" lon="12.690511043930615"><ele>301.0</ele><time>2026-04-25T16:03:24Z</time></trkpt><trkpt lat="46.16121480083248" lon="12.690723151980027"><ele>301.0</ele><time>2026-04-25T16:03:25Z</time></trkpt><trkpt lat="46.16124904615908" lon="12.690925648741448"><ele>301.0</ele><time>2026-04-25T16:03:26Z</time></trkpt><trkpt lat="46.161281978016184" lon="12.69111100006573"><ele>301.0</ele><time>2026-04-25T16:03:27Z</time></trkpt><trkpt lat="46.16131376600151" lon="12.691299060993472"><ele>301.0</ele><time>2026-04-25T16:03:28Z</time></trkpt><trkpt lat="46.16134518278573" lon="12.691491317012309"><ele>301.0</ele><time>2026-04-25T16:03:29Z</time></trkpt><trkpt lat="46.161380920014516" lon="12.6916847254018"><ele>301.0</ele><time>2026-04-25T16:03:30Z</time></trkpt><trkpt lat="46.161417877522126" lon="12.691884258016147"><ele>301.0</ele><time>2026-04-25T16:03:31Z</time></trkpt><trkpt lat="46.16145222279595" lon="12.692087398620913"><ele>301.0</ele><time>2026-04-25T16:03:32Z</time></trkpt><trkpt lat="46.16148716597085" lon="12.692288050729696"><ele>301.0</ele><time>2026-04-25T16:03:33Z</time></trkpt><trkpt lat="46.16152187336455" lon="12.692479513083901"><ele>301.0</ele><time>2026-04-25T16:03:34Z</time></trkpt><trkpt lat="46.16154929655607" lon="12.69265539898799"><ele>301.0</ele><time>2026-04-25T16:03:35Z</time></trkpt><trkpt lat="46.161578028699225" lon="12.692832963036913"><ele>301.0</ele><time>2026-04-25T16:03:36Z</time></trkpt><trkpt lat="46.16160928661083" lon="12.693008133886604"><ele>300.75</ele><time>2026-04-25T16:03:37Z</time></trkpt><trkpt lat="46.16163946076848" lon="12.693181618432682"><ele>300.5</ele><time>2026-04-25T16:03:38Z</time></trkpt><trkpt lat="46.16166806623057" lon="12.693350584481681"><ele>300.25</ele><time>2026-04-25T16:03:39Z</time></trkpt><trkpt lat="46.16169644705629" lon="12.693514619440672"><ele>300.0</ele><time>2026-04-25T16:03:40Z</time></trkpt><trkpt lat="46.161725514478945" lon="12.69367661433206"><ele>299.75</ele><time>2026-04-25T16:03:41Z</time></trkpt><trkpt lat="46.16175328668638" lon="12.693836427147996"><ele>299.5</ele><time>2026-04-25T16:03:42Z</time></trkpt><trkpt lat="46.16178056306571" lon="12.693994215744864"><ele>299.25</ele><time>2026-04-25T16:03:43Z</time></trkpt><trkpt lat="46.16180922073974" lon="12.694152378460121"><ele>299.0</ele><time>2026-04-25T16:03:44Z</time></trkpt><trkpt lat="46.1618370532442" lon="12.69431376074458"><ele>299.0</ele><time>2026-04-25T16:03:45Z</time></trkpt><trkpt lat="46.16186544522127" lon="12.694477273033433"><ele>299.0</ele><time>2026-04-25T16:03:46Z</time></trkpt><trkpt lat="46.1618918920103" lon="12.694642059083852"><ele>299.0</ele><time>2026-04-25T16:03:47Z</time></trkpt><trkpt lat="46.161920354937486" lon="12.69480681565784"><ele>299.0</ele><time>2026-04-25T16:03:48Z</time></trkpt><trkpt lat="46.161949744844144" lon="12.694975908492031"><ele>299.0</ele><time>2026-04-25T16:03:49Z</time></trkpt><trkpt lat="46.16198015832073" lon="12.69514856418048"><ele>299.0</ele><time>2026-04-25T16:03:50Z</time></trkpt><trkpt lat="46.162011455810855" lon="12.695334299619166"><ele>299.0</ele><time>2026-04-25T16:03:51Z</time></trkpt><trkpt lat="46.16204320122201" lon="12.695527970175894"><ele>299.0</ele><time>2026-04-25T16:03:52Z</time></trkpt><trkpt lat="46.1620766934649" lon="12.695723882017566"><ele>299.25</ele><time>2026-04-25T16:03:53Z</time></trkpt><trkpt lat="46.16211256182791" lon="12.695924312576519"><ele>299.5</ele><time>2026-04-25T16:03:54Z</time></trkpt><trkpt lat="46.16214575101414" lon="12.696123927353305"><ele>299.75</ele><time>2026-04-25T16:03:55Z</time></trkpt><trkpt lat="46.16217717157856" lon="12.696322457428112"><ele>300.0</ele><time>2026-04-25T16:03:56Z</time></trkpt><trkpt lat="46.16221334518079" lon="12.696520710816136"><ele>300.0</ele><time>2026-04-25T16:03:57Z</time></trkpt><trkpt lat="46.16224920255741" lon="12.696718428815974"><ele>300.0</ele><time>2026-04-25T16:03:58Z</time></trkpt><trkpt lat="46.1622836734457" lon="12.696911731921688"><ele>300.0</ele><time>2026-04-25T16:03:58.999Z</time></trkpt><trkpt lat="46.162318199760136" lon="12.697097540882492"><ele>300.0</ele><time>2026-04-25T16:03:59.999Z</time></trkpt><trkpt lat="46.16235077398722" lon="12.697279444058562"><ele>299.0</ele><time>2026-04-25T16:04:00.999Z</time></trkpt><trkpt lat="46.16238119964947" lon="12.697461398524355"><ele>298.0</ele><time>2026-04-25T16:04:01.999Z</time></trkpt><trkpt lat="46.162412731205436" lon="12.697643763839887"><ele>297.0</ele><time>2026-04-25T16:04:02.999Z</time></trkpt><trkpt lat="46.162444774058294" lon="12.697828493176981"><ele>296.0</ele><time>2026-04-25T16:04:03.999Z</time></trkpt><trkpt lat="46.1624764948122" lon="12.698013371586244"><ele>295.25</ele><time>2026-04-25T16:04:04.999Z</time></trkpt><trkpt lat="46.16250984883492" lon="12.698199522169602"><ele>294.5</ele><time>2026-04-25T16:04:05.999Z</time></trkpt><trkpt lat="46.16254327926352" lon="12.698385040326924"><ele>293.75</ele><time>2026-04-25T16:04:06.999Z</time></trkpt><trkpt lat="46.16257457638107" lon="12.69856977889071"><ele>293.0</ele><time>2026-04-25T16:04:07.999Z</time></trkpt><trkpt lat="46.16260555616169" lon="12.698753807147186"><ele>292.75</ele><time>2026-04-25T16:04:08.999Z</time></trkpt><trkpt lat="46.1626373851558" lon="12.698935707722029"><ele>292.5</ele><time>2026-04-25T16:04:09.999Z</time></trkpt><trkpt lat="46.16266920877258" lon="12.699115362352098"><ele>292.25</ele><time>2026-04-25T16:04:10.999Z</time></trkpt><trkpt lat="46.162698493813735" lon="12.699292650595261"><ele>292.0</ele><time>2026-04-25T16:04:11.999Z</time></trkpt><trkpt lat="46.162730575205266" lon="12.699467120495635"><ele>291.75</ele><time>2026-04-25T16:04:12.999Z</time></trkpt><trkpt lat="46.16276186035944" lon="12.699643523175203"><ele>291.5</ele><time>2026-04-25T16:04:13.999Z</time></trkpt><trkpt lat="46.16279234280552" lon="12.699823854985986"><ele>291.25</ele><time>2026-04-25T16:04:14.999Z</time></trkpt><trkpt lat="46.1628242467017" lon="12.70000698281792"><ele>291.0</ele><time>2026-04-25T16:04:15.999Z</time></trkpt><trkpt lat="46.16285495366681" lon="12.700191930621827"><ele>291.0</ele><time>2026-04-25T16:04:16.999Z</time></trkpt><trkpt lat="46.16288713517132" lon="12.700371192831476"><ele>291.0</ele><time>2026-04-25T16:04:17.999Z</time></trkpt><trkpt lat="46.1629173011807" lon="12.700544061895942"><ele>291.0</ele><time>2026-04-25T16:04:18.999Z</time></trkpt><trkpt lat="46.162947337037" lon="12.700713905254299"><ele>291.0</ele><time>2026-04-25T16:04:19.999Z</time></trkpt><trkpt lat="46.16297653790282" lon="12.70088086315273"><ele>291.0</ele><time>2026-04-25T16:04:20.999Z</time></trkpt><trkpt lat="46.16300273365257" lon="12.701045324833991"><ele>291.0</ele><time>2026-04-25T16:04:21.999Z</time></trkpt><trkpt lat="46.16302961353912" lon="12.701207917415815"><ele>291.0</ele><time>2026-04-25T16:04:22.999Z</time></trkpt><trkpt lat="46.1630579444885" lon="12.701372122860148"><ele>291.0</ele><time>2026-04-25T16:04:23.999Z</time></trkpt><trkpt lat="46.163086538842094" lon="12.70153751274746"><ele>290.75</ele><time>2026-04-25T16:04:24.999Z</time></trkpt><trkpt lat="46.16311609932014" lon="12.70170749536951"><ele>290.5</ele><time>2026-04-25T16:04:25.999Z</time></trkpt><trkpt lat="46.16314472130273" lon="12.701885414750038"><ele>290.25</ele><time>2026-04-25T16:04:26.999Z</time></trkpt><trkpt lat="46.163177423320775" lon="12.702070162790001"><ele>290.0</ele><time>2026-04-25T16:04:27.999Z</time></trkpt><trkpt lat="46.16321563422248" lon="12.70226151471275"><ele>290.0</ele><time>2026-04-25T16:04:28.999Z</time></trkpt><trkpt lat="46.163257595073944" lon="12.70245771143254"><ele>290.0</ele><time>2026-04-25T16:04:29.999Z</time></trkpt><trkpt lat="46.16330481838472" lon="12.702655566026209"><ele>290.0</ele><time>2026-04-25T16:04:30.999Z</time></trkpt><trkpt lat="46.163358268227974" lon="12.702850066234658"><ele>290.0</ele><time>2026-04-25T16:04:31.999Z</time></trkpt><trkpt lat="46.16341414924861" lon="12.70304350649143"><ele>289.5</ele><time>2026-04-25T16:04:32.999Z</time></trkpt><trkpt lat="46.16347121243101" lon="12.703231262253814"><ele>289.0</ele><time>2026-04-25T16:04:33.999Z</time></trkpt><trkpt lat="46.1635296111927" lon="12.703412122914063"><ele>288.5</ele><time>2026-04-25T16:04:34.999Z</time></trkpt><trkpt lat="46.163587158432904" lon="12.703585104946942"><ele>288.0</ele><time>2026-04-25T16:04:35.999Z</time></trkpt><trkpt lat="46.16364261394246" lon="12.703753941968834"><ele>287.5</ele><time>2026-04-25T16:04:36.999Z</time></trkpt><trkpt lat="46.16369654931081" lon="12.703918638070366"><ele>287.0</ele><time>2026-04-25T16:04:37.999Z</time></trkpt><trkpt lat="46.16374954570981" lon="12.704079472719643"><ele>286.5</ele><time>2026-04-25T16:04:38.999Z</time></trkpt><trkpt lat="46.16380306999565" lon="12.704235022535872"><ele>286.0</ele><time>2026-04-25T16:04:39.999Z</time></trkpt><trkpt lat="46.16385693453443" lon="12.704387231699748"><ele>286.0</ele><time>2026-04-25T16:04:40.999Z</time></trkpt><trkpt lat="46.16391098786081" lon="12.704538258046734"><ele>286.0</ele><time>2026-04-25T16:04:42Z</time></trkpt><trkpt lat="46.16396688333379" lon="12.704683999847653"><ele>286.0</ele><time>2026-04-25T16:04:43Z</time></trkpt><trkpt lat="46.164024029935405" lon="12.70482958213042"><ele>286.0</ele><time>2026-04-25T16:04:44Z</time></trkpt><trkpt lat="46.16408153295146" lon="12.704960072154124"><ele>285.8</ele><time>2026-04-25T16:04:45Z</time></trkpt><trkpt lat="46.16414198144686" lon="12.705081836790079"><ele>285.6</ele><time>2026-04-25T16:04:46Z</time></trkpt><trkpt lat="46.16420330990383" lon="12.70520568639416"><ele>285.4</ele><time>2026-04-25T16:04:47Z</time></trkpt><trkpt lat="46.16426259974288" lon="12.70533083212772"><ele>285.2</ele><time>2026-04-25T16:04:48Z</time></trkpt><trkpt lat="46.16432078527297" lon="12.70544647170169"><ele>285.0</ele><time>2026-04-25T16:04:49Z</time></trkpt><trkpt lat="46.164373796251205" lon="12.705553411995462"><ele>285.0</ele><time>2026-04-25T16:04:50Z</time></trkpt><trkpt lat="46.1644193849744" lon="12.705683032704245"><ele>285.0</ele><time>2026-04-25T16:04:51Z</time></trkpt><trkpt lat="46.1644881427449" lon="12.705825716607583"><ele>285.0</ele><time>2026-04-25T16:04:52Z</time></trkpt><trkpt lat="46.164562437011945" lon="12.70597988973964"><ele>285.0</ele><time>2026-04-25T16:04:53Z</time></trkpt><trkpt lat="46.16463013036791" lon="12.706120067610465"><ele>285.0</ele><time>2026-04-25T16:04:54Z</time></trkpt><trkpt lat="46.16468664690201" lon="12.706236775556079"><ele>285.0</ele><time>2026-04-25T16:04:55Z</time></trkpt><trkpt lat="46.16473803849532" lon="12.706342987516862"><ele>285.0</ele><time>2026-04-25T16:04:56Z</time></trkpt><trkpt lat="46.16478887920653" lon="12.7064093820152"><ele>285.0</ele><time>2026-04-25T16:04:57Z</time></trkpt><trkpt lat="46.16487666153552" lon="12.7066067725822"><ele>285.0</ele><time>2026-04-25T16:05:08Z</time></trkpt><trkpt lat="46.16491445837154" lon="12.706689007394358"><ele>285.0</ele><time>2026-04-25T16:05:09Z</time></trkpt><trkpt lat="46.164966594682994" lon="12.706793823907814"><ele>285.0</ele><time>2026-04-25T16:05:10Z</time></trkpt><trkpt lat="46.16501673258412" lon="12.706900622422012"><ele>285.0</ele><time>2026-04-25T16:05:11Z</time></trkpt><trkpt lat="46.16507186729015" lon="12.70702168947453"><ele>285.0</ele><time>2026-04-25T16:05:12Z</time></trkpt><trkpt lat="46.165137696004834" lon="12.70714570684162"><ele>285.0</ele><time>2026-04-25T16:05:13Z</time></trkpt><trkpt lat="46.16519938030743" lon="12.707268573250776"><ele>284.6</ele><time>2026-04-25T16:05:14Z</time></trkpt><trkpt lat="46.16525493343543" lon="12.707385098633036"><ele>284.2</ele><time>2026-04-25T16:05:15Z</time></trkpt><trkpt lat="46.165311546557014" lon="12.707503691488402"><ele>283.8</ele><time>2026-04-25T16:05:16Z</time></trkpt><trkpt lat="46.165369805124946" lon="12.707624809109706"><ele>283.4</ele><time>2026-04-25T16:05:17Z</time></trkpt><trkpt lat="46.165428236672206" lon="12.707741692872418"><ele>283.0</ele><time>2026-04-25T16:05:18Z</time></trkpt><trkpt lat="46.16548416745419" lon="12.707858448301597"><ele>283.0</ele><time>2026-04-25T16:05:19Z</time></trkpt><trkpt lat="46.165540146505634" lon="12.707975699541974"><ele>283.0</ele><time>2026-04-25T16:05:20Z</time></trkpt><trkpt lat="46.16559722131053" lon="12.708094077042189"><ele>283.0</ele><time>2026-04-25T16:05:21Z</time></trkpt><trkpt lat="46.165657105505296" lon="12.708215963923747"><ele>283.0</ele><time>2026-04-25T16:05:22Z</time></trkpt><trkpt lat="46.16571710184113" lon="12.708345264250504"><ele>283.0</ele><time>2026-04-25T16:05:23Z</time></trkpt><trkpt lat="46.165774621731146" lon="12.70848640421494"><ele>282.5</ele><time>2026-04-25T16:05:24Z</time></trkpt><trkpt lat="46.16584143148379" lon="12.70862820985606"><ele>282.0</ele><time>2026-04-25T16:05:25Z</time></trkpt><trkpt lat="46.16591061407185" lon="12.708772634832808"><ele>281.5</ele><time>2026-04-25T16:05:26Z</time></trkpt><trkpt lat="46.165980952770084" lon="12.708910964758395"><ele>281.0</ele><time>2026-04-25T16:05:27Z</time></trkpt><trkpt lat="46.166047285579886" lon="12.709049705968642"><ele>281.0</ele><time>2026-04-25T16:05:28Z</time></trkpt><trkpt lat="46.166109437773095" lon="12.709189764655813"><ele>281.0</ele><time>2026-04-25T16:05:29Z</time></trkpt><trkpt lat="46.16617488934378" lon="12.709325593634079"><ele>281.0</ele><time>2026-04-25T16:05:30Z</time></trkpt><trkpt lat="46.16624073737468" lon="12.709459844394614"><ele>281.0</ele><time>2026-04-25T16:05:31Z</time></trkpt><trkpt lat="46.166306219733045" lon="12.709592325147383"><ele>280.8</ele><time>2026-04-25T16:05:32Z</time></trkpt><trkpt lat="46.16636794601423" lon="12.709719042261407"><ele>280.6</ele><time>2026-04-25T16:05:33Z</time></trkpt><trkpt lat="46.1664296064963" lon="12.709838795686395"><ele>280.4</ele><time>2026-04-25T16:05:34Z</time></trkpt><trkpt lat="46.16649831996516" lon="12.709956366728939"><ele>280.2</ele><time>2026-04-25T16:05:35Z</time></trkpt><trkpt lat="46.16657417304448" lon="12.710075792731928"><ele>280.0</ele><time>2026-04-25T16:05:36Z</time></trkpt><trkpt lat="46.16665257864867" lon="12.710193578590628"><ele>279.75</ele><time>2026-04-25T16:05:37Z</time></trkpt><trkpt lat="46.1667368423471" lon="12.710306798023478"><ele>279.5</ele><time>2026-04-25T16:05:38Z</time></trkpt><trkpt lat="46.166820513512455" lon="12.710413763299243"><ele>279.25</ele><time>2026-04-25T16:05:39Z</time></trkpt><trkpt lat="46.166907516984544" lon="12.710513948776587"><ele>279.0</ele><time>2026-04-25T16:05:40Z</time></trkpt><trkpt lat="46.1669998199437" lon="12.710607407219324"><ele>279.0</ele><time>2026-04-25T16:05:41Z</time></trkpt><trkpt lat="46.167090453643816" lon="12.710696299206463"><ele>279.0</ele><time>2026-04-25T16:05:42Z</time></trkpt><trkpt lat="46.167185930267635" lon="12.710775311546556"><ele>279.0</ele><time>2026-04-25T16:05:43Z</time></trkpt><trkpt lat="46.16728040068395" lon="12.710853291929993"><ele>279.0</ele><time>2026-04-25T16:05:44Z</time></trkpt><trkpt lat="46.167359961119935" lon="12.710921028504359"><ele>279.0</ele><time>2026-04-25T16:05:45Z</time></trkpt><trkpt lat="46.16742583931107" lon="12.710974980646712"><ele>278.8</ele><time>2026-04-25T16:05:46Z</time></trkpt><trkpt lat="46.16748044141015" lon="12.711020631850078"><ele>278.59999999999997</ele><time>2026-04-25T16:05:47Z</time></trkpt><trkpt lat="46.1675914499517" lon="12.711108716053074"><ele>278.4</ele><time>2026-04-25T16:05:49Z</time></trkpt><trkpt lat="46.16766321490198" lon="12.711168023599267"><ele>278.2</ele><time>2026-04-25T16:05:50Z</time></trkpt><trkpt lat="46.16774741532885" lon="12.711239833152927"><ele>278.0</ele><time>2026-04-25T16:05:51Z</time></trkpt><trkpt lat="46.167835404437426" lon="12.711303443509287"><ele>278.0</ele><time>2026-04-25T16:05:52Z</time></trkpt><trkpt lat="46.1679167126861" lon="12.71135111220734"><ele>278.0</ele><time>2026-04-25T16:05:53Z</time></trkpt><trkpt lat="46.16798593575557" lon="12.71138164130083"><ele>278.0</ele><time>2026-04-25T16:05:54Z</time></trkpt><trkpt lat="46.16805513361303" lon="12.711411691923276"><ele>278.0</ele><time>2026-04-25T16:05:55Z</time></trkpt><trkpt lat="46.168138114340245" lon="12.711440545229333"><ele>278.0</ele><time>2026-04-25T16:05:56Z</time></trkpt><trkpt lat="46.16823186282493" lon="12.711458205663522"><ele>278.0</ele><time>2026-04-25T16:05:57Z</time></trkpt><trkpt lat="46.16832849501902" lon="12.711469437065396"><ele>278.1666666666667</ele><time>2026-04-25T16:05:58Z</time></trkpt><trkpt lat="46.16842401772583" lon="12.711472722435845"><ele>278.33333333333337</ele><time>2026-04-25T16:05:59Z</time></trkpt><trkpt lat="46.168512855476834" lon="12.711462678202757"><ele>278.5</ele><time>2026-04-25T16:06:00Z</time></trkpt><trkpt lat="46.16859515235615" lon="12.711449356412386"><ele>278.6666666666667</ele><time>2026-04-25T16:06:01Z</time></trkpt><trkpt lat="46.1686745865642" lon="12.711431788309755"><ele>278.8333333333333</ele><time>2026-04-25T16:06:01.999Z</time></trkpt><trkpt lat="46.16875167212294" lon="12.711414661925616"><ele>279.0</ele><time>2026-04-25T16:06:02.999Z</time></trkpt><trkpt lat="46.1688208257534" lon="12.711387892639744"><ele>279.0</ele><time>2026-04-25T16:06:03.999Z</time></trkpt><trkpt lat="46.16889234148703" lon="12.711364162677347"><ele>279.0</ele><time>2026-04-25T16:06:04.999Z</time></trkpt><trkpt lat="46.16897455487051" lon="12.711319702810083"><ele>279.0</ele><time>2026-04-25T16:06:05.999Z</time></trkpt><trkpt lat="46.16907462419189" lon="12.711279613077727"><ele>279.0</ele><time>2026-04-25T16:06:06.999Z</time></trkpt><trkpt lat="46.16918557831651" lon="12.711236533440594"><ele>279.0</ele><time>2026-04-25T16:06:07.999Z</time></trkpt><trkpt lat="46.16929428051401" lon="12.711192592446018"><ele>278.75</ele><time>2026-04-25T16:06:08.999Z</time></trkpt><trkpt lat="46.16940607729772" lon="12.711144655117819"><ele>278.5</ele><time>2026-04-25T16:06:09.999Z</time></trkpt><trkpt lat="46.169518536463016" lon="12.711091897043353"><ele>278.25</ele><time>2026-04-25T16:06:10.999Z</time></trkpt><trkpt lat="46.16962757204747" lon="12.711043407801702"><ele>278.0</ele><time>2026-04-25T16:06:11.999Z</time></trkpt><trkpt lat="46.16973374039244" lon="12.71100087066368"><ele>278.6</ele><time>2026-04-25T16:06:12.999Z</time></trkpt><trkpt lat="46.16983216678991" lon="12.710960459652515"><ele>279.20000000000005</ele><time>2026-04-25T16:06:13.999Z</time></trkpt><trkpt lat="46.16992661035837" lon="12.710920038928586"><ele>279.8</ele><time>2026-04-25T16:06:14.999Z</time></trkpt><trkpt lat="46.17001601320713" lon="12.71087722064148"><ele>280.40000000000003</ele><time>2026-04-25T16:06:15.999Z</time></trkpt><trkpt lat="46.17010631104058" lon="12.710839762436011"><ele>281.0</ele><time>2026-04-25T16:06:16.999Z</time></trkpt><trkpt lat="46.17019217074983" lon="12.710804276049853"><ele>281.0</ele><time>2026-04-25T16:06:17.999Z</time></trkpt><trkpt lat="46.170267342513775" lon="12.710773885239954"><ele>281.0</ele><time>2026-04-25T16:06:18.999Z</time></trkpt><trkpt lat="46.1703351846504" lon="12.710748518657965"><ele>281.0</ele><time>2026-04-25T16:06:19.999Z</time></trkpt><trkpt lat="46.17042992271217" lon="12.710709341313825"><ele>281.0</ele><time>2026-04-25T16:06:21.999Z</time></trkpt><trkpt lat="46.170578292644294" lon="12.710653643683145"><ele>281.0</ele><time>2026-04-25T16:06:33.999Z</time></trkpt><trkpt lat="46.17067375175901" lon="12.71060570494885"><ele>281.2</ele><time>2026-04-25T16:06:35.999Z</time></trkpt><trkpt lat="46.17076650996656" lon="12.710570203474223"><ele>281.40000000000003</ele><time>2026-04-25T16:06:37.999Z</time></trkpt><trkpt lat="46.1708644396245" lon="12.710635456508088"><ele>281.6</ele><time>2026-04-25T16:06:39.999Z</time></trkpt><trkpt lat="46.17089823572262" lon="12.71081086114241"><ele>281.8</ele><time>2026-04-25T16:06:41.999Z</time></trkpt><trkpt lat="46.17087709002305" lon="12.710911101192798"><ele>282.0</ele><time>2026-04-25T16:06:42.999Z</time></trkpt><trkpt lat="46.1708590225648" lon="12.711008924752617"><ele>281.6666666666667</ele><time>2026-04-25T16:06:43.999Z</time></trkpt><trkpt lat="46.17085225786762" lon="12.711125265350564"><ele>281.3333333333333</ele><time>2026-04-25T16:06:44.999Z</time></trkpt><trkpt lat="46.17084336221747" lon="12.711247815376389"><ele>281.0</ele><time>2026-04-25T16:06:45.999Z</time></trkpt><trkpt lat="46.17083751243489" lon="12.711372081581523"><ele>280.66666666666663</ele><time>2026-04-25T16:06:46.999Z</time></trkpt><trkpt lat="46.17083090640822" lon="12.711499660401785"><ele>280.3333333333333</ele><time>2026-04-25T16:06:48Z</time></trkpt><trkpt lat="46.17082839675061" lon="12.711618512085597"><ele>280.0</ele><time>2026-04-25T16:06:49Z</time></trkpt><trkpt lat="46.170827147403905" lon="12.711740885305632"><ele>280.0</ele><time>2026-04-25T16:06:50Z</time></trkpt><trkpt lat="46.17083682116712" lon="12.711857477320203"><ele>280.0</ele><time>2026-04-25T16:06:51Z</time></trkpt><trkpt lat="46.170853514266476" lon="12.711970944284118"><ele>280.0</ele><time>2026-04-25T16:06:52Z</time></trkpt><trkpt lat="46.17088191764258" lon="12.712082028882286"><ele>280.0</ele><time>2026-04-25T16:06:53Z</time></trkpt><trkpt lat="46.17091096928916" lon="12.712197811855782"><ele>280.0</ele><time>2026-04-25T16:06:54Z</time></trkpt><trkpt lat="46.17094904251222" lon="12.712306583610692"><ele>280.0</ele><time>2026-04-25T16:06:55Z</time></trkpt><trkpt lat="46.17099260004019" lon="12.712423962846831"><ele>279.25</ele><time>2026-04-25T16:06:56Z</time></trkpt><trkpt lat="46.17104568647361" lon="12.712557385234696"><ele>278.5</ele><time>2026-04-25T16:06:57Z</time></trkpt><trkpt lat="46.17111003876756" lon="12.712709928953116"><ele>277.75</ele><time>2026-04-25T16:06:58Z</time></trkpt><trkpt lat="46.171168112597705" lon="12.712868126284848"><ele>277.0</ele><time>2026-04-25T16:06:59Z</time></trkpt><trkpt lat="46.171219817819605" lon="12.713016855338"><ele>277.0</ele><time>2026-04-25T16:07:00Z</time></trkpt><trkpt lat="46.171264149433306" lon="12.713142098996817"><ele>277.0</ele><time>2026-04-25T16:07:01Z</time></trkpt><trkpt lat="46.17130704536389" lon="12.7132616351792"><ele>277.0</ele><time>2026-04-25T16:07:02Z</time></trkpt><trkpt lat="46.17135048114144" lon="12.713372861848272"><ele>277.0</ele><time>2026-04-25T16:07:03Z</time></trkpt><trkpt lat="46.17139421200776" lon="12.713500419575094"><ele>277.0</ele><time>2026-04-25T16:07:04Z</time></trkpt><trkpt lat="46.17144214319896" lon="12.713636206909307"><ele>277.0</ele><time>2026-04-25T16:07:05Z</time></trkpt><trkpt lat="46.17149111315635" lon="12.713775900935664"><ele>277.0</ele><time>2026-04-25T16:07:06Z</time></trkpt><trkpt lat="46.17153706044524" lon="12.71390908454319"><ele>277.0</ele><time>2026-04-25T16:07:07Z</time></trkpt><trkpt lat="46.17158351861814" lon="12.714036945775117"><ele>277.0</ele><time>2026-04-25T16:07:08Z</time></trkpt><trkpt lat="46.17162590843974" lon="12.714156226219641"><ele>277.0</ele><time>2026-04-25T16:07:09Z</time></trkpt><trkpt lat="46.17166433425085" lon="12.714271800474016"><ele>276.0</ele><time>2026-04-25T16:07:10Z</time></trkpt><trkpt lat="46.171706053959156" lon="12.714390142702484"><ele>275.0</ele><time>2026-04-25T16:07:11Z</time></trkpt><trkpt lat="46.17175270366516" lon="12.714516618592196"><ele>274.0</ele><time>2026-04-25T16:07:12Z</time></trkpt><trkpt lat="46.17179837286143" lon="12.714648879709937"><ele>273.0</ele><time>2026-04-25T16:07:13Z</time></trkpt><trkpt lat="46.171844310644516" lon="12.714783389146199"><ele>272.0</ele><time>2026-04-25T16:07:14Z</time></trkpt><trkpt lat="46.17189141335735" lon="12.714911201254045"><ele>271.8</ele><time>2026-04-25T16:07:15Z</time></trkpt><trkpt lat="46.171936056714365" lon="12.715037461704759"><ele>271.6</ele><time>2026-04-25T16:07:16Z</time></trkpt><trkpt lat="46.17198101158021" lon="12.715165934497792"><ele>271.40000000000003</ele><time>2026-04-25T16:07:17Z</time></trkpt><trkpt lat="46.1720247752985" lon="12.715294467916303"><ele>271.2</ele><time>2026-04-25T16:07:18Z</time></trkpt><trkpt lat="46.17207190504759" lon="12.715431161095493"><ele>271.0</ele><time>2026-04-25T16:07:19Z</time></trkpt><trkpt lat="46.17211925668821" lon="12.715568659928833"><ele>270.6</ele><time>2026-04-25T16:07:20Z</time></trkpt><trkpt lat="46.17216877241841" lon="12.71570667972486"><ele>270.20000000000005</ele><time>2026-04-25T16:07:21Z</time></trkpt><trkpt lat="46.17221710735543" lon="12.715845304719213"><ele>269.79999999999995</ele><time>2026-04-25T16:07:22Z</time></trkpt><trkpt lat="46.172263374491955" lon="12.715988685785527"><ele>269.4</ele><time>2026-04-25T16:07:23Z</time></trkpt><trkpt lat="46.17231132036117" lon="12.716127546674215"><ele>269.0</ele><time>2026-04-25T16:07:24Z</time></trkpt><trkpt lat="46.17235515432782" lon="12.716255948209053"><ele>267.8</ele><time>2026-04-25T16:07:25Z</time></trkpt><trkpt lat="46.172394545760106" lon="12.716375822049354"><ele>266.59999999999997</ele><time>2026-04-25T16:07:26Z</time></trkpt><trkpt lat="46.17243677566156" lon="12.71649584683121"><ele>265.4</ele><time>2026-04-25T16:07:27Z</time></trkpt><trkpt lat="46.17247758619485" lon="12.716616606848175"><ele>264.2</ele><time>2026-04-25T16:07:28Z</time></trkpt><trkpt lat="46.17252043500606" lon="12.716742746448949"><ele>263.0</ele><time>2026-04-25T16:07:29Z</time></trkpt><trkpt lat="46.172564828118894" lon="12.716872558885674"><ele>263.4</ele><time>2026-04-25T16:07:30Z</time></trkpt><trkpt lat="46.17261039204057" lon="12.717007050696976"><ele>263.8</ele><time>2026-04-25T16:07:31Z</time></trkpt><trkpt lat="46.172657143282805" lon="12.717144904281952"><ele>264.2</ele><time>2026-04-25T16:07:32Z</time></trkpt><trkpt lat="46.17270620741868" lon="12.71728864310447"><ele>264.6</ele><time>2026-04-25T16:07:33Z</time></trkpt><trkpt lat="46.172752327284755" lon="12.71742778429408"><ele>265.0</ele><time>2026-04-25T16:07:34Z</time></trkpt><trkpt lat="46.17280056496438" lon="12.71757025248327"><ele>265.0</ele><time>2026-04-25T16:07:35Z</time></trkpt><trkpt lat="46.17284937702853" lon="12.717705691594405"><ele>265.0</ele><time>2026-04-25T16:07:36Z</time></trkpt><trkpt lat="46.172899554852826" lon="12.717840711134116"><ele>265.0</ele><time>2026-04-25T16:07:37Z</time></trkpt><trkpt lat="46.17294630593929" lon="12.717980428740391"><ele>265.0</ele><time>2026-04-25T16:07:38Z</time></trkpt><trkpt lat="46.17299583089375" lon="12.718120866684021"><ele>265.0</ele><time>2026-04-25T16:07:39Z</time></trkpt><trkpt lat="46.17304632978732" lon="12.71826327471322"><ele>264.6</ele><time>2026-04-25T16:07:40Z</time></trkpt><trkpt lat="46.17309728562274" lon="12.718404138721706"><ele>264.2</ele><time>2026-04-25T16:07:41Z</time></trkpt><trkpt lat="46.17314339043605" lon="12.718543824122097"><ele>263.8</ele><time>2026-04-25T16:07:42Z</time></trkpt><trkpt lat="46.173193180013904" lon="12.718683760904181"><ele>263.4</ele><time>2026-04-25T16:07:43Z</time></trkpt><trkpt lat="46.17324488468167" lon="12.718818663457514"><ele>263.0</ele><time>2026-04-25T16:07:44Z</time></trkpt><trkpt lat="46.17329527513417" lon="12.718948219939763"><ele>262.6</ele><time>2026-04-25T16:07:45Z</time></trkpt><trkpt lat="46.17333841458672" lon="12.719059578584295"><ele>262.20000000000005</ele><time>2026-04-25T16:07:46Z</time></trkpt><trkpt lat="46.17338336311185" lon="12.719180443651167"><ele>261.8</ele><time>2026-04-25T16:07:48Z</time></trkpt><trkpt lat="46.17342325533524" lon="12.719289640397644"><ele>261.40000000000003</ele><time>2026-04-25T16:07:50Z</time></trkpt><trkpt lat="46.17348118337109" lon="12.719450423980534"><ele>261.0</ele><time>2026-04-25T16:07:52Z</time></trkpt><trkpt lat="46.17352326713228" lon="12.719561283652327"><ele>260.8</ele><time>2026-04-25T16:07:53Z</time></trkpt><trkpt lat="46.17356637317599" lon="12.719687361992182"><ele>260.6</ele><time>2026-04-25T16:07:54Z</time></trkpt><trkpt lat="46.17361338891785" lon="12.719815961123233"><ele>260.4</ele><time>2026-04-25T16:07:55Z</time></trkpt><trkpt lat="46.173662985180805" lon="12.71995648078611"><ele>260.2</ele><time>2026-04-25T16:07:56Z</time></trkpt><trkpt lat="46.17371210271981" lon="12.72009662727029"><ele>260.0</ele><time>2026-04-25T16:07:57Z</time></trkpt><trkpt lat="46.173762615738035" lon="12.720239956222464"><ele>260.0</ele><time>2026-04-25T16:07:58Z</time></trkpt><trkpt lat="46.17381216428598" lon="12.720382110785895"><ele>260.0</ele><time>2026-04-25T16:07:59Z</time></trkpt><trkpt lat="46.173859290888075" lon="12.720516837079785"><ele>260.0</ele><time>2026-04-25T16:08:00Z</time></trkpt><trkpt lat="46.173900841775904" lon="12.720635920248087"><ele>260.0</ele><time>2026-04-25T16:08:01Z</time></trkpt><trkpt lat="46.173938320371015" lon="12.720741990656538"><ele>260.0</ele><time>2026-04-25T16:08:02Z</time></trkpt><trkpt lat="46.17397570677866" lon="12.7208331346746"><ele>260.0</ele><time>2026-04-25T16:08:03Z</time></trkpt><trkpt lat="46.174020381428306" lon="12.72091788573086"><ele>260.0</ele><time>2026-04-25T16:08:04Z</time></trkpt><trkpt lat="46.17407438094758" lon="12.720985413135145"><ele>260.0</ele><time>2026-04-25T16:08:05Z</time></trkpt><trkpt lat="46.17413523425301" lon="12.721041829363458"><ele>260.0</ele><time>2026-04-25T16:08:06Z</time></trkpt><trkpt lat="46.17418957051485" lon="12.721129295909094"><ele>260.0</ele><time>2026-04-25T16:08:07Z</time></trkpt><trkpt lat="46.17422666943549" lon="12.721261604474028"><ele>260.0</ele><time>2026-04-25T16:08:08Z</time></trkpt><trkpt lat="46.17423968946603" lon="12.72143506861233"><ele>261.25</ele><time>2026-04-25T16:08:08.999Z</time></trkpt><trkpt lat="46.174252287115635" lon="12.721619358016536"><ele>262.5</ele><time>2026-04-25T16:08:09.999Z</time></trkpt><trkpt lat="46.17429211744393" lon="12.721780104701956"><ele>263.75</ele><time>2026-04-25T16:08:10.999Z</time></trkpt><trkpt lat="46.17433813015085" lon="12.721934430283943"><ele>265.0</ele><time>2026-04-25T16:08:11.999Z</time></trkpt><trkpt lat="46.17437895851402" lon="12.722086696980018"><ele>265.0</ele><time>2026-04-25T16:08:12.999Z</time></trkpt><trkpt lat="46.174424727292426" lon="12.722250750435853"><ele>265.0</ele><time>2026-04-25T16:08:13.999Z</time></trkpt><trkpt lat="46.174473696534655" lon="12.722428169292273"><ele>265.0</ele><time>2026-04-25T16:08:14.999Z</time></trkpt><trkpt lat="46.17452044907122" lon="12.722622582146782"><ele>265.0</ele><time>2026-04-25T16:08:15.999Z</time></trkpt><trkpt lat="46.174569374297974" lon="12.722826339507835"><ele>265.0</ele><time>2026-04-25T16:08:16.999Z</time></trkpt><trkpt lat="46.174620476018085" lon="12.723029824777429"><ele>265.0</ele><time>2026-04-25T16:08:17.999Z</time></trkpt><trkpt lat="46.174669154111456" lon="12.723231613322783"><ele>265.0</ele><time>2026-04-25T16:08:18.999Z</time></trkpt><trkpt lat="46.17471801008525" lon="12.723434046341852"><ele>265.0</ele><time>2026-04-25T16:08:19.999Z</time></trkpt><trkpt lat="46.174770657261526" lon="12.723642946215845"><ele>265.0</ele><time>2026-04-25T16:08:20.999Z</time></trkpt><trkpt lat="46.17482739895683" lon="12.723864299960557"><ele>265.0</ele><time>2026-04-25T16:08:21.999Z</time></trkpt><trkpt lat="46.17487935155703" lon="12.724074692562674"><ele>265.0</ele><time>2026-04-25T16:08:22.999Z</time></trkpt><trkpt lat="46.17493056612171" lon="12.724289561711846"><ele>264.66666666666663</ele><time>2026-04-25T16:08:23.999Z</time></trkpt><trkpt lat="46.17498571308" lon="12.724502582401783"><ele>264.3333333333333</ele><time>2026-04-25T16:08:24.999Z</time></trkpt><trkpt lat="46.1750429714044" lon="12.724726500183712"><ele>264.0</ele><time>2026-04-25T16:08:25.999Z</time></trkpt><trkpt lat="46.175098609107586" lon="12.724953946066957"><ele>264.0</ele><time>2026-04-25T16:08:26.999Z</time></trkpt><trkpt lat="46.17515337975367" lon="12.725166972672685"><ele>264.0</ele><time>2026-04-25T16:08:27.999Z</time></trkpt><trkpt lat="46.17519412592189" lon="12.72536863534153"><ele>264.0</ele><time>2026-04-25T16:08:28.999Z</time></trkpt><trkpt lat="46.17521526944559" lon="12.725567053879722"><ele>264.0</ele><time>2026-04-25T16:08:29.999Z</time></trkpt><trkpt lat="46.17521943693104" lon="12.725766317523115"><ele>264.0</ele><time>2026-04-25T16:08:30.999Z</time></trkpt><trkpt lat="46.175203677519214" lon="12.72595556774212"><ele>264.0</ele><time>2026-04-25T16:08:31.999Z</time></trkpt><trkpt lat="46.175172596118834" lon="12.726134144433747"><ele>264.0</ele><time>2026-04-25T16:08:32.999Z</time></trkpt><trkpt lat="46.175124390229996" lon="12.726304371664206"><ele>264.0</ele><time>2026-04-25T16:08:33.999Z</time></trkpt><trkpt lat="46.17505712371119" lon="12.726466667956412"><ele>264.0</ele><time>2026-04-25T16:08:34.999Z</time></trkpt><trkpt lat="46.17497087137677" lon="12.72662335792715"><ele>264.0</ele><time>2026-04-25T16:08:35.999Z</time></trkpt><trkpt lat="46.17487212159557" lon="12.726770348348225"><ele>264.0</ele><time>2026-04-25T16:08:36.999Z</time></trkpt><trkpt lat="46.17476424160319" lon="12.726915029423497"><ele>264.0</ele><time>2026-04-25T16:08:37.999Z</time></trkpt><trkpt lat="46.174659496535945" lon="12.727066093214237"><ele>264.0</ele><time>2026-04-25T16:08:38.999Z</time></trkpt><trkpt lat="46.174562889668906" lon="12.727228049657088"><ele>264.0</ele><time>2026-04-25T16:08:39.999Z</time></trkpt><trkpt lat="46.174470408050425" lon="12.727410040989488"><ele>264.0</ele><time>2026-04-25T16:08:40.999Z</time></trkpt><trkpt lat="46.17438564740693" lon="12.727608594623574"><ele>263.3333333333333</ele><time>2026-04-25T16:08:41.999Z</time></trkpt><trkpt lat="46.17430909592924" lon="12.727821830526034"><ele>262.66666666666663</ele><time>2026-04-25T16:08:42.999Z</time></trkpt><trkpt lat="46.1742447354412" lon="12.728049535040052"><ele>262.0</ele><time>2026-04-25T16:08:43.999Z</time></trkpt><trkpt lat="46.17419677208138" lon="12.728289178029556"><ele>262.0</ele><time>2026-04-25T16:08:44.999Z</time></trkpt><trkpt lat="46.174158172899595" lon="12.728536800209367"><ele>262.0</ele><time>2026-04-25T16:08:45.999Z</time></trkpt><trkpt lat="46.174118704183826" lon="12.728788434365274"><ele>262.0</ele><time>2026-04-25T16:08:46.999Z</time></trkpt><trkpt lat="46.17407652089626" lon="12.729045930152742"><ele>261.66666666666663</ele><time>2026-04-25T16:08:47.999Z</time></trkpt><trkpt lat="46.1740334984862" lon="12.729303737709243"><ele>261.3333333333333</ele><time>2026-04-25T16:08:48.999Z</time></trkpt><trkpt lat="46.173992039622604" lon="12.729554439462383"><ele>261.0</ele><time>2026-04-25T16:08:49.999Z</time></trkpt><trkpt lat="46.17395305952227" lon="12.729799208306133"><ele>260.3333333333333</ele><time>2026-04-25T16:08:50.999Z</time></trkpt><trkpt lat="46.17391474383595" lon="12.730037716545429"><ele>259.66666666666663</ele><time>2026-04-25T16:08:51.999Z</time></trkpt><trkpt lat="46.173876180009984" lon="12.730269845081178"><ele>259.0</ele><time>2026-04-25T16:08:52.999Z</time></trkpt><trkpt lat="46.17383826539868" lon="12.730501902015874"><ele>258.66666666666663</ele><time>2026-04-25T16:08:54Z</time></trkpt><trkpt lat="46.17380013561412" lon="12.73073542058795"><ele>258.3333333333333</ele><time>2026-04-25T16:08:55Z</time></trkpt><trkpt lat="46.17376146965964" lon="12.730976850687027"><ele>258.0</ele><time>2026-04-25T16:08:56Z</time></trkpt><trkpt lat="46.17372053446886" lon="12.731225883378077"><ele>257.3333333333333</ele><time>2026-04-25T16:08:57Z</time></trkpt><trkpt lat="46.17367948170813" lon="12.731485642263142"><ele>256.66666666666663</ele><time>2026-04-25T16:08:58Z</time></trkpt><trkpt lat="46.173636788605265" lon="12.731749733514777"><ele>256.0</ele><time>2026-04-25T16:08:59Z</time></trkpt><trkpt lat="46.1735919892127" lon="12.732018914711015"><ele>255.66666666666666</ele><time>2026-04-25T16:09:00Z</time></trkpt><trkpt lat="46.17354764119306" lon="12.73229317114441"><ele>255.33333333333331</ele><time>2026-04-25T16:09:01Z</time></trkpt><trkpt lat="46.173504403638276" lon="12.732563842032665"><ele>255.0</ele><time>2026-04-25T16:09:02Z</time></trkpt><trkpt lat="46.17346041916923" lon="12.732836130588288"><ele>255.0</ele><time>2026-04-25T16:09:03Z</time></trkpt><trkpt lat="46.173416093192145" lon="12.73310859968739"><ele>255.0</ele><time>2026-04-25T16:09:04Z</time></trkpt><trkpt lat="46.173371014677926" lon="12.733378430985852"><ele>255.0</ele><time>2026-04-25T16:09:05Z</time></trkpt><trkpt lat="46.17332518823462" lon="12.73365194585516"><ele>254.66666666666669</ele><time>2026-04-25T16:09:06Z</time></trkpt><trkpt lat="46.1732808147484" lon="12.73392735333722"><ele>254.33333333333334</ele><time>2026-04-25T16:09:07Z</time></trkpt><trkpt lat="46.17323693598552" lon="12.734204112846971"><ele>254.0</ele><time>2026-04-25T16:09:08Z</time></trkpt><trkpt lat="46.17319357641176" lon="12.734491564263582"><ele>254.0</ele><time>2026-04-25T16:09:09Z</time></trkpt><trkpt lat="46.173145098332846" lon="12.734808428040617"><ele>254.0</ele><time>2026-04-25T16:09:10Z</time></trkpt><trkpt lat="46.173088593620534" lon="12.735152574382251"><ele>253.5</ele><time>2026-04-25T16:09:11Z</time></trkpt><trkpt lat="46.173032506671376" lon="12.735528443644972"><ele>253.0</ele><time>2026-04-25T16:09:12Z</time></trkpt><trkpt lat="46.17295029299001" lon="12.735955320520697"><ele>252.0</ele><time>2026-04-25T16:09:13Z</time></trkpt><trkpt lat="46.17287434722639" lon="12.73642583751133"><ele>251.0</ele><time>2026-04-25T16:09:14Z</time></trkpt><trkpt lat="46.17280432721604" lon="12.736859641891135"><ele>251.0</ele><time>2026-04-25T16:09:15Z</time></trkpt><trkpt lat="46.172741062507264" lon="12.73725159418257"><ele>251.0</ele><time>2026-04-25T16:09:16Z</time></trkpt><trkpt lat="46.17268478458727" lon="12.737600260170053"><ele>250.5</ele><time>2026-04-25T16:09:17Z</time></trkpt><trkpt lat="46.17263325355947" lon="12.737919517490147"><ele>250.0</ele><time>2026-04-25T16:09:18Z</time></trkpt><trkpt lat="46.17258131737985" lon="12.73824128455865"><ele>249.0</ele><time>2026-04-25T16:09:19Z</time></trkpt><trkpt lat="46.17254066069031" lon="12.738584926060113"><ele>248.0</ele><time>2026-04-25T16:09:20Z</time></trkpt><trkpt lat="46.17248794408821" lon="12.738904537599758"><ele>248.0</ele><time>2026-04-25T16:09:21Z</time></trkpt><trkpt lat="46.172436940723614" lon="12.739223483258487"><ele>248.0</ele><time>2026-04-25T16:09:22Z</time></trkpt><trkpt lat="46.17237004196061" lon="12.739542119765664"><ele>247.0</ele><time>2026-04-25T16:09:23Z</time></trkpt><trkpt lat="46.17231732566085" lon="12.739864985738794"><ele>246.0</ele><time>2026-04-25T16:09:24Z</time></trkpt><trkpt lat="46.17228193771199" lon="12.740186352738167"><ele>246.33333333333331</ele><time>2026-04-25T16:09:25Z</time></trkpt><trkpt lat="46.172230585377356" lon="12.740497413927018"><ele>246.66666666666666</ele><time>2026-04-25T16:09:26Z</time></trkpt><trkpt lat="46.17217973945488" lon="12.740813993669356"><ele>247.0</ele><time>2026-04-25T16:09:27Z</time></trkpt><trkpt lat="46.172125543107946" lon="12.741137731599933"><ele>247.0</ele><time>2026-04-25T16:09:28Z</time></trkpt><trkpt lat="46.17207224320248" lon="12.741458111297982"><ele>247.0</ele><time>2026-04-25T16:09:29Z</time></trkpt><trkpt lat="46.17201928461534" lon="12.741779440521132"><ele>246.5</ele><time>2026-04-25T16:09:30Z</time></trkpt><trkpt lat="46.17196445702804" lon="12.742107672568913"><ele>246.0</ele><time>2026-04-25T16:09:31Z</time></trkpt><trkpt lat="46.171912236576" lon="12.742439120828706"><ele>246.0</ele><time>2026-04-25T16:09:32Z</time></trkpt><trkpt lat="46.171860297839444" lon="12.742765673586684"><ele>246.0</ele><time>2026-04-25T16:09:33Z</time></trkpt><trkpt lat="46.17180695020288" lon="12.743090040164299"><ele>246.0</ele><time>2026-04-25T16:09:34Z</time></trkpt><trkpt lat="46.17175273390146" lon="12.74341880237309"><ele>246.0</ele><time>2026-04-25T16:09:35Z</time></trkpt><trkpt lat="46.171697244886" lon="12.743752241091697"><ele>244.5</ele><time>2026-04-25T16:09:36Z</time></trkpt><trkpt lat="46.17164033062681" lon="12.744089868503712"><ele>243.0</ele><time>2026-04-25T16:09:37Z</time></trkpt><trkpt lat="46.171586773188515" lon="12.744426879753792"><ele>243.0</ele><time>2026-04-25T16:09:38Z</time></trkpt><trkpt lat="46.17153327225297" lon="12.744767794609947"><ele>243.0</ele><time>2026-04-25T16:09:39Z</time></trkpt><trkpt lat="46.17147813009808" lon="12.745110435344175"><ele>243.0</ele><time>2026-04-25T16:09:40Z</time></trkpt><trkpt lat="46.171425341943944" lon="12.74545379569843"><ele>243.0</ele><time>2026-04-25T16:09:41Z</time></trkpt><trkpt lat="46.17137111746121" lon="12.745792955158441"><ele>242.5</ele><time>2026-04-25T16:09:42Z</time></trkpt><trkpt lat="46.1713168514866" lon="12.746130413632436"><ele>242.0</ele><time>2026-04-25T16:09:43Z</time></trkpt><trkpt lat="46.17126261679895" lon="12.746464072927695"><ele>242.0</ele><time>2026-04-25T16:09:44Z</time></trkpt><trkpt lat="46.1712057635813" lon="12.746799047018975"><ele>242.0</ele><time>2026-04-25T16:09:45Z</time></trkpt><trkpt lat="46.171151459311716" lon="12.747137832755504"><ele>241.0</ele><time>2026-04-25T16:09:46Z</time></trkpt><trkpt lat="46.17109628208081" lon="12.747476318262718"><ele>240.0</ele><time>2026-04-25T16:09:47Z</time></trkpt><trkpt lat="46.1710424356413" lon="12.747813509102949"><ele>239.0</ele><time>2026-04-25T16:09:48Z</time></trkpt><trkpt lat="46.17098699694065" lon="12.748152351465997"><ele>238.0</ele><time>2026-04-25T16:09:49Z</time></trkpt><trkpt lat="46.17093011237771" lon="12.748489865938142"><ele>238.5</ele><time>2026-04-25T16:09:50Z</time></trkpt><trkpt lat="46.17087245167343" lon="12.748824818890595"><ele>239.0</ele><time>2026-04-25T16:09:51Z</time></trkpt><trkpt lat="46.170817035675185" lon="12.749161032536193"><ele>238.5</ele><time>2026-04-25T16:09:52Z</time></trkpt><trkpt lat="46.17076023610006" lon="12.749493037994863"><ele>238.0</ele><time>2026-04-25T16:09:53Z</time></trkpt><trkpt lat="46.170714656059864" lon="12.749825277665265"><ele>236.5</ele><time>2026-04-25T16:09:54Z</time></trkpt><trkpt lat="46.17066444330139" lon="12.750159861791474"><ele>235.0</ele><time>2026-04-25T16:09:55Z</time></trkpt><trkpt lat="46.17061344876741" lon="12.750499401712949"><ele>235.0</ele><time>2026-04-25T16:09:56Z</time></trkpt><trkpt lat="46.17055613920096" lon="12.750839353134443"><ele>235.0</ele><time>2026-04-25T16:09:57Z</time></trkpt><trkpt lat="46.17050604109756" lon="12.75118365286946"><ele>235.0</ele><time>2026-04-25T16:09:58Z</time></trkpt><trkpt lat="46.17044603706429" lon="12.75152878372172"><ele>235.0</ele><time>2026-04-25T16:09:59Z</time></trkpt><trkpt lat="46.1703938442893" lon="12.751876199594813"><ele>235.0</ele><time>2026-04-25T16:10:00Z</time></trkpt><trkpt lat="46.17033280268113" lon="12.752230917231726"><ele>235.0</ele><time>2026-04-25T16:10:01Z</time></trkpt><trkpt lat="46.170273165071436" lon="12.752592174979318"><ele>234.5</ele><time>2026-04-25T16:10:02Z</time></trkpt><trkpt lat="46.17021540747294" lon="12.752952055226652"><ele>234.0</ele><time>2026-04-25T16:10:03Z</time></trkpt><trkpt lat="46.17015833451767" lon="12.753311484556793"><ele>234.0</ele><time>2026-04-25T16:10:04Z</time></trkpt><trkpt lat="46.170101287343506" lon="12.753674422914942"><ele>234.0</ele><time>2026-04-25T16:10:05Z</time></trkpt><trkpt lat="46.17004395730109" lon="12.754037702824318"><ele>233.0</ele><time>2026-04-25T16:10:06Z</time></trkpt><trkpt lat="46.16998387677323" lon="12.754399289842294"><ele>232.0</ele><time>2026-04-25T16:10:07Z</time></trkpt><trkpt lat="46.169923570196865" lon="12.754761686623425"><ele>232.0</ele><time>2026-04-25T16:10:08Z</time></trkpt><trkpt lat="46.1698647233489" lon="12.755119606366359"><ele>232.0</ele><time>2026-04-25T16:10:09Z</time></trkpt><trkpt lat="46.169808605011944" lon="12.755472348246721"><ele>230.5</ele><time>2026-04-25T16:10:09.999Z</time></trkpt><trkpt lat="46.169753020765434" lon="12.755819614877488"><ele>229.0</ele><time>2026-04-25T16:10:10.999Z</time></trkpt><trkpt lat="46.16969901111408" lon="12.756157824981095"><ele>228.5</ele><time>2026-04-25T16:10:11.999Z</time></trkpt><trkpt lat="46.16964448968634" lon="12.756496674436569"><ele>228.0</ele><time>2026-04-25T16:10:12.999Z</time></trkpt><trkpt lat="46.169590414527306" lon="12.756838464946075"><ele>227.5</ele><time>2026-04-25T16:10:13.999Z</time></trkpt><trkpt lat="46.16953482408941" lon="12.757183228139814"><ele>227.0</ele><time>2026-04-25T16:10:14.999Z</time></trkpt><trkpt lat="46.16948108226449" lon="12.757528030979039"><ele>228.5</ele><time>2026-04-25T16:10:15.999Z</time></trkpt><trkpt lat="46.16942639938574" lon="12.757868133117466"><ele>230.0</ele><time>2026-04-25T16:10:16.999Z</time></trkpt><trkpt lat="46.169372962190415" lon="12.75820490736662"><ele>230.5</ele><time>2026-04-25T16:10:17.999Z</time></trkpt><trkpt lat="46.16931793958253" lon="12.758536083677079"><ele>231.0</ele><time>2026-04-25T16:10:18.999Z</time></trkpt><trkpt lat="46.16926071847792" lon="12.758868577932224"><ele>231.0</ele><time>2026-04-25T16:10:19.999Z</time></trkpt><trkpt lat="46.16919975614312" lon="12.759200002672447"><ele>231.0</ele><time>2026-04-25T16:10:20.999Z</time></trkpt><trkpt lat="46.169131672987184" lon="12.759526933510543"><ele>231.0</ele><time>2026-04-25T16:10:21.999Z</time></trkpt><trkpt lat="46.169058208719115" lon="12.759848785039226"><ele>231.0</ele><time>2026-04-25T16:10:22.999Z</time></trkpt><trkpt lat="46.16897879445922" lon="12.760171645216571"><ele>228.5</ele><time>2026-04-25T16:10:23.999Z</time></trkpt><trkpt lat="46.16889800450874" lon="12.760496041859982"><ele>226.0</ele><time>2026-04-25T16:10:24.999Z</time></trkpt><trkpt lat="46.16881524840809" lon="12.76081979124059"><ele>227.5</ele><time>2026-04-25T16:10:25.999Z</time></trkpt><trkpt lat="46.16873142180461" lon="12.76114536107975"><ele>229.0</ele><time>2026-04-25T16:10:26.999Z</time></trkpt><trkpt lat="46.16864700506285" lon="12.761468960370165"><ele>229.0</ele><time>2026-04-25T16:10:27.999Z</time></trkpt><trkpt lat="46.16856225097935" lon="12.761795117310061"><ele>229.0</ele><time>2026-04-25T16:10:28.999Z</time></trkpt><trkpt lat="46.16847709769891" lon="12.762128163237545"><ele>230.0</ele><time>2026-04-25T16:10:29.999Z</time></trkpt><trkpt lat="46.16838893831655" lon="12.762469065690254"><ele>231.0</ele><time>2026-04-25T16:10:30.999Z</time></trkpt><trkpt lat="46.16829632253263" lon="12.762811014636267"><ele>231.0</ele><time>2026-04-25T16:10:31.999Z</time></trkpt><trkpt lat="46.16820261954901" lon="12.763156419527096"><ele>231.0</ele><time>2026-04-25T16:10:32.999Z</time></trkpt><trkpt lat="46.168111078067426" lon="12.763509112652233"><ele>232.0</ele><time>2026-04-25T16:10:33.999Z</time></trkpt><trkpt lat="46.168018848921186" lon="12.76386376133309"><ele>233.0</ele><time>2026-04-25T16:10:34.999Z</time></trkpt><trkpt lat="46.167928454404326" lon="12.764214283056479"><ele>232.5</ele><time>2026-04-25T16:10:35.999Z</time></trkpt><trkpt lat="46.167838835836996" lon="12.764559036276214"><ele>232.0</ele><time>2026-04-25T16:10:36.999Z</time></trkpt><trkpt lat="46.16775159502953" lon="12.764901947327047"><ele>232.5</ele><time>2026-04-25T16:10:37.999Z</time></trkpt><trkpt lat="46.16766139152776" lon="12.765244755573258"><ele>233.0</ele><time>2026-04-25T16:10:38.999Z</time></trkpt><trkpt lat="46.1675730451426" lon="12.765583019366439"><ele>233.0</ele><time>2026-04-25T16:10:39.999Z</time></trkpt><trkpt lat="46.16748659960976" lon="12.765917680136704"><ele>233.0</ele><time>2026-04-25T16:10:40.999Z</time></trkpt><trkpt lat="46.16740007310825" lon="12.76625043145084"><ele>232.5</ele><time>2026-04-25T16:10:41.999Z</time></trkpt><trkpt lat="46.16731296037005" lon="12.766583506927304"><ele>232.0</ele><time>2026-04-25T16:10:42.999Z</time></trkpt><trkpt lat="46.16722788043104" lon="12.766911402523114"><ele>232.0</ele><time>2026-04-25T16:10:43.999Z</time></trkpt><trkpt lat="46.167143088585064" lon="12.767238033617003"><ele>232.0</ele><time>2026-04-25T16:10:44.999Z</time></trkpt><trkpt lat="46.16705731486268" lon="12.76756484860706"><ele>232.5</ele><time>2026-04-25T16:10:45.999Z</time></trkpt><trkpt lat="46.16697293290863" lon="12.767889558286512"><ele>233.0</ele><time>2026-04-25T16:10:46.999Z</time></trkpt><trkpt lat="46.16688880535732" lon="12.76820819166008"><ele>233.0</ele><time>2026-04-25T16:10:47.999Z</time></trkpt><trkpt lat="46.16680634868164" lon="12.768522221311825"><ele>233.0</ele><time>2026-04-25T16:10:48.999Z</time></trkpt><trkpt lat="46.16672320037049" lon="12.768839967131042"><ele>232.5</ele><time>2026-04-25T16:10:49.999Z</time></trkpt><trkpt lat="46.16664259583373" lon="12.76916052190768"><ele>232.0</ele><time>2026-04-25T16:10:50.999Z</time></trkpt><trkpt lat="46.16655946163647" lon="12.769481527799723"><ele>231.5</ele><time>2026-04-25T16:10:51.999Z</time></trkpt><trkpt lat="46.16647420515924" lon="12.769799523265878"><ele>231.0</ele><time>2026-04-25T16:10:52.999Z</time></trkpt><trkpt lat="46.16639367862486" lon="12.770113293892287"><ele>231.5</ele><time>2026-04-25T16:10:53.999Z</time></trkpt><trkpt lat="46.166318413998155" lon="12.770426340846223"><ele>232.0</ele><time>2026-04-25T16:10:54.999Z</time></trkpt><trkpt lat="46.16624814507272" lon="12.770739469901283"><ele>232.33333333333331</ele><time>2026-04-25T16:10:55.999Z</time></trkpt><trkpt lat="46.16618230774973" lon="12.771051117680154"><ele>232.66666666666669</ele><time>2026-04-25T16:10:56.999Z</time></trkpt><trkpt lat="46.16612237832995" lon="12.771356778503463"><ele>233.0</ele><time>2026-04-25T16:10:57.999Z</time></trkpt><trkpt lat="46.166065972380444" lon="12.771652308480839"><ele>233.33333333333334</ele><time>2026-04-25T16:10:58.999Z</time></trkpt><trkpt lat="46.16601525583264" lon="12.771926905081056"><ele>233.66666666666669</ele><time>2026-04-25T16:11:00Z</time></trkpt><trkpt lat="46.16597197614276" lon="12.772189058267536"><ele>234.0</ele><time>2026-04-25T16:11:01Z</time></trkpt><trkpt lat="46.165931093750125" lon="12.772441406152506"><ele>233.33333333333331</ele><time>2026-04-25T16:11:02Z</time></trkpt><trkpt lat="46.16589612672236" lon="12.772692189689169"><ele>232.66666666666666</ele><time>2026-04-25T16:11:03Z</time></trkpt><trkpt lat="46.165863958043744" lon="12.772982554363105"><ele>232.0</ele><time>2026-04-25T16:11:04Z</time></trkpt><trkpt lat="46.16581455818544" lon="12.773298789145523"><ele>232.0</ele><time>2026-04-25T16:11:05Z</time></trkpt><trkpt lat="46.16577572655759" lon="12.773641681263998"><ele>232.0</ele><time>2026-04-25T16:11:06Z</time></trkpt><trkpt lat="46.16573863703983" lon="12.773985503061603"><ele>232.0</ele><time>2026-04-25T16:11:07Z</time></trkpt><trkpt lat="46.16571528857193" lon="12.774321989110339"><ele>232.0</ele><time>2026-04-25T16:11:08Z</time></trkpt><trkpt lat="46.16567935414376" lon="12.774645505375815"><ele>232.0</ele><time>2026-04-25T16:11:09Z</time></trkpt><trkpt lat="46.16564437374642" lon="12.774960760984984"><ele>232.0</ele><time>2026-04-25T16:11:10Z</time></trkpt><trkpt lat="46.165611120285995" lon="12.775265648935296"><ele>232.0</ele><time>2026-04-25T16:11:11Z</time></trkpt><trkpt lat="46.16558017072713" lon="12.775567116078586"><ele>232.0</ele><time>2026-04-25T16:11:12Z</time></trkpt><trkpt lat="46.16554705149903" lon="12.775874214055767"><ele>232.0</ele><time>2026-04-25T16:11:13Z</time></trkpt><trkpt lat="46.16551332909663" lon="12.776187830084448"><ele>232.0</ele><time>2026-04-25T16:11:14Z</time></trkpt><trkpt lat="46.165479806062855" lon="12.776507328046776"><ele>231.5</ele><time>2026-04-25T16:11:15Z</time></trkpt><trkpt lat="46.16544717132809" lon="12.776828185571038"><ele>231.0</ele><time>2026-04-25T16:11:16Z</time></trkpt><trkpt lat="46.165412978255105" lon="12.777152548993575"><ele>231.0</ele><time>2026-04-25T16:11:17Z</time></trkpt><trkpt lat="46.16538243817092" lon="12.777481498675407"><ele>231.0</ele><time>2026-04-25T16:11:18Z</time></trkpt><trkpt lat="46.165346116090795" lon="12.777804104968363"><ele>231.0</ele><time>2026-04-25T16:11:19Z</time></trkpt><trkpt lat="46.16530961875394" lon="12.778128418352319"><ele>231.0</ele><time>2026-04-25T16:11:20Z</time></trkpt><trkpt lat="46.165275562545474" lon="12.778452861786988"><ele>230.0</ele><time>2026-04-25T16:11:21Z</time></trkpt><trkpt lat="46.1652416640272" lon="12.778776483556607"><ele>229.0</ele><time>2026-04-25T16:11:22Z</time></trkpt><trkpt lat="46.16520820204543" lon="12.779100956976045"><ele>230.0</ele><time>2026-04-25T16:11:23Z</time></trkpt><trkpt lat="46.16517315864954" lon="12.77942707438685"><ele>231.0</ele><time>2026-04-25T16:11:24Z</time></trkpt><trkpt lat="46.16513832290293" lon="12.779755156429264"><ele>231.0</ele><time>2026-04-25T16:11:25Z</time></trkpt><trkpt lat="46.165105510575934" lon="12.78008402903584"><ele>231.0</ele><time>2026-04-25T16:11:26Z</time></trkpt><trkpt lat="46.165071132236086" lon="12.78041602424899"><ele>231.5</ele><time>2026-04-25T16:11:27Z</time></trkpt><trkpt lat="46.16503739182463" lon="12.780750880300277"><ele>232.0</ele><time>2026-04-25T16:11:28Z</time></trkpt><trkpt lat="46.165002668832344" lon="12.781087657178793"><ele>232.5</ele><time>2026-04-25T16:11:29Z</time></trkpt><trkpt lat="46.16496628085886" lon="12.78142344582022"><ele>233.0</ele><time>2026-04-25T16:11:30Z</time></trkpt><trkpt lat="46.16493278934145" lon="12.781755223716281"><ele>233.0</ele><time>2026-04-25T16:11:31Z</time></trkpt><trkpt lat="46.16490011510463" lon="12.782084837175585"><ele>233.0</ele><time>2026-04-25T16:11:32Z</time></trkpt><trkpt lat="46.16486562543521" lon="12.782412795207328"><ele>232.5</ele><time>2026-04-25T16:11:33Z</time></trkpt><trkpt lat="46.164830391563264" lon="12.782739728306295"><ele>232.0</ele><time>2026-04-25T16:11:34Z</time></trkpt><trkpt lat="46.164797640269306" lon="12.783067392332367"><ele>232.0</ele><time>2026-04-25T16:11:35Z</time></trkpt><trkpt lat="46.16476389797282" lon="12.783393651640667"><ele>232.0</ele><time>2026-04-25T16:11:36Z</time></trkpt><trkpt lat="46.164729409062474" lon="12.783720504684544"><ele>232.0</ele><time>2026-04-25T16:11:37Z</time></trkpt><trkpt lat="46.16469509185997" lon="12.784051882023247"><ele>232.0</ele><time>2026-04-25T16:11:38Z</time></trkpt><trkpt lat="46.164659990799535" lon="12.784383896005526"><ele>231.5</ele><time>2026-04-25T16:11:39Z</time></trkpt><trkpt lat="46.164625517515105" lon="12.784712345860013"><ele>231.0</ele><time>2026-04-25T16:11:40Z</time></trkpt><trkpt lat="46.164591234226585" lon="12.78504536754962"><ele>231.0</ele><time>2026-04-25T16:11:41Z</time></trkpt><trkpt lat="46.16455790378965" lon="12.785381979277304"><ele>231.0</ele><time>2026-04-25T16:11:42Z</time></trkpt><trkpt lat="46.16452541413668" lon="12.785721539719702"><ele>230.5</ele><time>2026-04-25T16:11:43Z</time></trkpt><trkpt lat="46.16449152751348" lon="12.786061552134765"><ele>230.0</ele><time>2026-04-25T16:11:44Z</time></trkpt><trkpt lat="46.164453501360676" lon="12.78641133279737"><ele>230.0</ele><time>2026-04-25T16:11:45Z</time></trkpt><trkpt lat="46.16441486550635" lon="12.786768563638754"><ele>230.0</ele><time>2026-04-25T16:11:46Z</time></trkpt><trkpt lat="46.16437835126443" lon="12.787130377850414"><ele>230.0</ele><time>2026-04-25T16:11:47Z</time></trkpt><trkpt lat="46.16434071335535" lon="12.78749871953025"><ele>230.0</ele><time>2026-04-25T16:11:48Z</time></trkpt><trkpt lat="46.16430311468644" lon="12.787872425278408"><ele>230.0</ele><time>2026-04-25T16:11:49Z</time></trkpt><trkpt lat="46.16426438372594" lon="12.788245315836273"><ele>230.0</ele><time>2026-04-25T16:11:50Z</time></trkpt><trkpt lat="46.16422739708333" lon="12.788611020921572"><ele>230.5</ele><time>2026-04-25T16:11:51Z</time></trkpt><trkpt lat="46.16419181916133" lon="12.788969379422538"><ele>231.0</ele><time>2026-04-25T16:11:52Z</time></trkpt><trkpt lat="46.164157971609164" lon="12.789317890037506"><ele>231.0</ele><time>2026-04-25T16:11:53Z</time></trkpt><trkpt lat="46.164122953975884" lon="12.78965666590651"><ele>231.0</ele><time>2026-04-25T16:11:54Z</time></trkpt><trkpt lat="46.164086695690216" lon="12.789989002905326"><ele>231.0</ele><time>2026-04-25T16:11:55Z</time></trkpt><trkpt lat="46.164046486210985" lon="12.790317705005524"><ele>231.0</ele><time>2026-04-25T16:11:56Z</time></trkpt><trkpt lat="46.16400239632639" lon="12.790643938557118"><ele>231.0</ele><time>2026-04-25T16:11:57Z</time></trkpt><trkpt lat="46.16395381998688" lon="12.790969135495127"><ele>231.0</ele><time>2026-04-25T16:11:58Z</time></trkpt><trkpt lat="46.16390054038788" lon="12.791292591439651"><ele>231.0</ele><time>2026-04-25T16:11:59Z</time></trkpt><trkpt lat="46.16384208758289" lon="12.791616645990043"><ele>231.0</ele><time>2026-04-25T16:12:00Z</time></trkpt><trkpt lat="46.16378240847466" lon="12.791943893511315"><ele>231.0</ele><time>2026-04-25T16:12:01Z</time></trkpt><trkpt lat="46.16371866039422" lon="12.792273040583659"><ele>231.0</ele><time>2026-04-25T16:12:02Z</time></trkpt><trkpt lat="46.16364830501556" lon="12.792603395474385"><ele>231.0</ele><time>2026-04-25T16:12:03Z</time></trkpt><trkpt lat="46.16357839662405" lon="12.79293729453235"><ele>231.0</ele><time>2026-04-25T16:12:04Z</time></trkpt><trkpt lat="46.1635108246697" lon="12.793271804678763"><ele>230.5</ele><time>2026-04-25T16:12:05Z</time></trkpt><trkpt lat="46.163438653356685" lon="12.793610739130454"><ele>230.0</ele><time>2026-04-25T16:12:06Z</time></trkpt><trkpt lat="46.163368449871854" lon="12.793951215623068"><ele>230.0</ele><time>2026-04-25T16:12:07Z</time></trkpt><trkpt lat="46.16329529463233" lon="12.794294819392885"><ele>230.0</ele><time>2026-04-25T16:12:08Z</time></trkpt><trkpt lat="46.16322189703838" lon="12.794643398794534"><ele>230.0</ele><time>2026-04-25T16:12:09Z</time></trkpt><trkpt lat="46.16315118917667" lon="12.794989478968565"><ele>230.0</ele><time>2026-04-25T16:12:10Z</time></trkpt><trkpt lat="46.163081238156195" lon="12.795334865854656"><ele>230.0</ele><time>2026-04-25T16:12:11Z</time></trkpt><trkpt lat="46.1630115257707" lon="12.795670220217007"><ele>230.0</ele><time>2026-04-25T16:12:12Z</time></trkpt><trkpt lat="46.16294538093079" lon="12.795997365654666"><ele>230.0</ele><time>2026-04-25T16:12:12.999Z</time></trkpt><trkpt lat="46.16288054398649" lon="12.796317687525251"><ele>230.0</ele><time>2026-04-25T16:12:13.999Z</time></trkpt><trkpt lat="46.162816586700096" lon="12.796631984775699"><ele>229.0</ele><time>2026-04-25T16:12:14.999Z</time></trkpt><trkpt lat="46.16275510883273" lon="12.796941987676936"><ele>228.0</ele><time>2026-04-25T16:12:15.999Z</time></trkpt><trkpt lat="46.162681052999126" lon="12.797253233973073"><ele>228.0</ele><time>2026-04-25T16:12:16.999Z</time></trkpt><trkpt lat="46.16262626801768" lon="12.797548489904743"><ele>228.0</ele><time>2026-04-25T16:12:17.999Z</time></trkpt><trkpt lat="46.16257537550104" lon="12.79784752538202"><ele>228.0</ele><time>2026-04-25T16:12:18.999Z</time></trkpt><trkpt lat="46.16252776252437" lon="12.7981462762868"><ele>227.66666666666669</ele><time>2026-04-25T16:12:19.999Z</time></trkpt><trkpt lat="46.162487138532015" lon="12.798449662689531"><ele>227.33333333333334</ele><time>2026-04-25T16:12:20.999Z</time></trkpt><trkpt lat="46.16245451778223" lon="12.798757163454292"><ele>227.0</ele><time>2026-04-25T16:12:21.999Z</time></trkpt><trkpt lat="46.16242892262726" lon="12.799063063144562"><ele>227.0</ele><time>2026-04-25T16:12:22.999Z</time></trkpt><trkpt lat="46.16240784328012" lon="12.799373625091814"><ele>227.0</ele><time>2026-04-25T16:12:23.999Z</time></trkpt><trkpt lat="46.16239019426711" lon="12.79968608353111"><ele>227.0</ele><time>2026-04-25T16:12:24.999Z</time></trkpt><trkpt lat="46.16237785213972" lon="12.800002693828375"><ele>227.33333333333334</ele><time>2026-04-25T16:12:25.999Z</time></trkpt><trkpt lat="46.162369254076175" lon="12.800317180709735"><ele>227.66666666666669</ele><time>2026-04-25T16:12:26.999Z</time></trkpt><trkpt lat="46.16235989455007" lon="12.800635167413466"><ele>228.0</ele><time>2026-04-25T16:12:27.999Z</time></trkpt><trkpt lat="46.16234905549209" lon="12.800953915139829"><ele>227.66666666666669</ele><time>2026-04-25T16:12:28.999Z</time></trkpt><trkpt lat="46.16233780109157" lon="12.801268615734546"><ele>227.33333333333334</ele><time>2026-04-25T16:12:29.999Z</time></trkpt><trkpt lat="46.16232691392603" lon="12.801574191060288"><ele>227.0</ele><time>2026-04-25T16:12:30.999Z</time></trkpt><trkpt lat="46.16231856941892" lon="12.801871946319993"><ele>227.0</ele><time>2026-04-25T16:12:31.999Z</time></trkpt><trkpt lat="46.16230928794245" lon="12.802161489898376"><ele>227.0</ele><time>2026-04-25T16:12:32.999Z</time></trkpt><trkpt lat="46.16230101763814" lon="12.80244578945295"><ele>227.0</ele><time>2026-04-25T16:12:33.999Z</time></trkpt><trkpt lat="46.16229234266818" lon="12.802725692908476"><ele>226.66666666666669</ele><time>2026-04-25T16:12:34.999Z</time></trkpt><trkpt lat="46.16228438109581" lon="12.803000481853905"><ele>226.33333333333331</ele><time>2026-04-25T16:12:35.999Z</time></trkpt><trkpt lat="46.16227577673417" lon="12.803272803391883"><ele>226.0</ele><time>2026-04-25T16:12:36.999Z</time></trkpt><trkpt lat="46.162266103574076" lon="12.803542631484593"><ele>226.0</ele><time>2026-04-25T16:12:37.999Z</time></trkpt><trkpt lat="46.1622581543598" lon="12.80381241922298"><ele>226.0</ele><time>2026-04-25T16:12:38.999Z</time></trkpt><trkpt lat="46.16225144478765" lon="12.804082488021006"><ele>226.0</ele><time>2026-04-25T16:12:39.999Z</time></trkpt><trkpt lat="46.16224500668954" lon="12.804353419609875"><ele>226.0</ele><time>2026-04-25T16:12:40.999Z</time></trkpt><trkpt lat="46.16223724128721" lon="12.804618633117622"><ele>226.0</ele><time>2026-04-25T16:12:41.999Z</time></trkpt><trkpt lat="46.16222884413695" lon="12.804864750941611"><ele>226.0</ele><time>2026-04-25T16:12:42.999Z</time></trkpt><trkpt lat="46.162218214426794" lon="12.80510296964478"><ele>226.0</ele><time>2026-04-25T16:12:43.999Z</time></trkpt><trkpt lat="46.1622101121482" lon="12.805338960881404"><ele>226.0</ele><time>2026-04-25T16:12:44.999Z</time></trkpt><trkpt lat="46.162202561816045" lon="12.805568641266818"><ele>226.0</ele><time>2026-04-25T16:12:45.999Z</time></trkpt><trkpt lat="46.162194443893426" lon="12.805800767165042"><ele>226.0</ele><time>2026-04-25T16:12:46.999Z</time></trkpt><trkpt lat="46.16218624793189" lon="12.806038862042213"><ele>226.0</ele><time>2026-04-25T16:12:47.999Z</time></trkpt><trkpt lat="46.16217228457609" lon="12.806287854046696"><ele>226.0</ele><time>2026-04-25T16:12:48.999Z</time></trkpt><trkpt lat="46.16214953032138" lon="12.806541735543338"><ele>226.0</ele><time>2026-04-25T16:12:49.999Z</time></trkpt><trkpt lat="46.16211905799416" lon="12.806801712172224"><ele>226.0</ele><time>2026-04-25T16:12:50.999Z</time></trkpt><trkpt lat="46.16208678990558" lon="12.807066719161838"><ele>226.0</ele><time>2026-04-25T16:12:51.999Z</time></trkpt><trkpt lat="46.16205515408556" lon="12.807333346583404"><ele>226.0</ele><time>2026-04-25T16:12:52.999Z</time></trkpt><trkpt lat="46.16202230881356" lon="12.807592931489987"><ele>226.0</ele><time>2026-04-25T16:12:53.999Z</time></trkpt><trkpt lat="46.16199360844875" lon="12.807835145262747"><ele>226.0</ele><time>2026-04-25T16:12:54.999Z</time></trkpt><trkpt lat="46.16196816181414" lon="12.808062664259726"><ele>226.0</ele><time>2026-04-25T16:12:55.999Z</time></trkpt><trkpt lat="46.16194180146369" lon="12.808279232343128"><ele>226.0</ele><time>2026-04-25T16:12:56.999Z</time></trkpt><trkpt lat="46.16191625463739" lon="12.808481122229834"><ele>226.0</ele><time>2026-04-25T16:12:57.999Z</time></trkpt><trkpt lat="46.161891217575764" lon="12.808683973202129"><ele>226.0</ele><time>2026-04-25T16:12:58.999Z</time></trkpt><trkpt lat="46.161862917626266" lon="12.808889041282528"><ele>226.0</ele><time>2026-04-25T16:12:59.999Z</time></trkpt><trkpt lat="46.16183443491507" lon="12.809099186824"><ele>226.0</ele><time>2026-04-25T16:13:00.999Z</time></trkpt><trkpt lat="46.161806124256216" lon="12.809313497683869"><ele>226.0</ele><time>2026-04-25T16:13:01.999Z</time></trkpt><trkpt lat="46.16177815354694" lon="12.809525672430897"><ele>226.0</ele><time>2026-04-25T16:13:02.999Z</time></trkpt><trkpt lat="46.16174420383615" lon="12.809732737689027"><ele>226.0</ele><time>2026-04-25T16:13:03.999Z</time></trkpt><trkpt lat="46.16169792073111" lon="12.809935676639086"><ele>226.0</ele><time>2026-04-25T16:13:04.999Z</time></trkpt><trkpt lat="46.16164400012805" lon="12.810137690697854"><ele>226.0</ele><time>2026-04-25T16:13:06Z</time></trkpt><trkpt lat="46.161591298852215" lon="12.810339470583257"><ele>226.0</ele><time>2026-04-25T16:13:07Z</time></trkpt><trkpt lat="46.161550122328045" lon="12.81053166993979"><ele>225.25</ele><time>2026-04-25T16:13:08Z</time></trkpt><trkpt lat="46.161524525395336" lon="12.810717957770247"><ele>224.5</ele><time>2026-04-25T16:13:09Z</time></trkpt><trkpt lat="46.16151279069699" lon="12.810903142133675"><ele>223.75</ele><time>2026-04-25T16:13:10Z</time></trkpt><trkpt lat="46.16151631767094" lon="12.811086783002805"><ele>223.0</ele><time>2026-04-25T16:13:11Z</time></trkpt><trkpt lat="46.161540510547894" lon="12.811267246107361"><ele>223.0</ele><time>2026-04-25T16:13:12Z</time></trkpt><trkpt lat="46.161584602183076" lon="12.811444453719687"><ele>223.0</ele><time>2026-04-25T16:13:13Z</time></trkpt><trkpt lat="46.16164431090251" lon="12.811626672709162"><ele>223.0</ele><time>2026-04-25T16:13:14Z</time></trkpt><trkpt lat="46.16171448542783" lon="12.811814433668571"><ele>223.0</ele><time>2026-04-25T16:13:15Z</time></trkpt><trkpt lat="46.16178982273078" lon="12.812009117087012"><ele>221.0</ele><time>2026-04-25T16:13:16Z</time></trkpt><trkpt lat="46.16186729205421" lon="12.812211182126568"><ele>219.0</ele><time>2026-04-25T16:13:17Z</time></trkpt><trkpt lat="46.16194814715665" lon="12.812416676061353"><ele>217.0</ele><time>2026-04-25T16:13:18Z</time></trkpt><trkpt lat="46.16202533512461" lon="12.812621979217298"><ele>214.0</ele><time>2026-04-25T16:13:19Z</time></trkpt><trkpt lat="46.16210275650536" lon="12.812830781802534"><ele>211.0</ele><time>2026-04-25T16:13:20Z</time></trkpt><trkpt lat="46.16218239535474" lon="12.813037047848066"><ele>208.0</ele><time>2026-04-25T16:13:21Z</time></trkpt><trkpt lat="46.16226037519084" lon="12.813243085430095"><ele>208.0</ele><time>2026-04-25T16:13:22Z</time></trkpt><trkpt lat="46.16233222779976" lon="12.813438805720425"><ele>208.0</ele><time>2026-04-25T16:13:23Z</time></trkpt><trkpt lat="46.162402249226375" lon="12.813618165612144"><ele>208.0</ele><time>2026-04-25T16:13:24Z</time></trkpt><trkpt lat="46.162483483009346" lon="12.813790317817306"><ele>208.0</ele><time>2026-04-25T16:13:25Z</time></trkpt><trkpt lat="46.16256981084029" lon="12.813927113743675"><ele>209.25</ele><time>2026-04-25T16:13:26Z</time></trkpt><trkpt lat="46.16267795042636" lon="12.814039989247279"><ele>210.5</ele><time>2026-04-25T16:13:27Z</time></trkpt><trkpt lat="46.162796655220085" lon="12.814120533339493"><ele>211.75</ele><time>2026-04-25T16:13:28Z</time></trkpt><trkpt lat="46.16292154491207" lon="12.814171417675654"><ele>213.0</ele><time>2026-04-25T16:13:29Z</time></trkpt><trkpt lat="46.16304282644913" lon="12.814183432656042"><ele>213.0</ele><time>2026-04-25T16:13:30Z</time></trkpt><trkpt lat="46.163156045192416" lon="12.814174891559293"><ele>213.0</ele><time>2026-04-25T16:13:31Z</time></trkpt><trkpt lat="46.163263621788865" lon="12.814170156429869"><ele>213.0</ele><time>2026-04-25T16:13:32Z</time></trkpt><trkpt lat="46.16335457153446" lon="12.814198338650884"><ele>213.0</ele><time>2026-04-25T16:13:33Z</time></trkpt><trkpt lat="46.16342921887137" lon="12.814265744478575"><ele>213.0</ele><time>2026-04-25T16:13:34Z</time></trkpt><trkpt lat="46.163481795122216" lon="12.814369437806116"><ele>211.33333333333334</ele><time>2026-04-25T16:13:35Z</time></trkpt><trkpt lat="46.16351043099349" lon="12.814500717510048"><ele>209.66666666666669</ele><time>2026-04-25T16:13:36Z</time></trkpt><trkpt lat="46.16352494966462" lon="12.814629397317004"><ele>208.0</ele><time>2026-04-25T16:13:37Z</time></trkpt><trkpt lat="46.163542956207486" lon="12.814743816319265"><ele>206.33333333333334</ele><time>2026-04-25T16:13:38Z</time></trkpt><trkpt lat="46.16356435152452" lon="12.81486246586642"><ele>204.66666666666669</ele><time>2026-04-25T16:13:39Z</time></trkpt><trkpt lat="46.163585758492395" lon="12.81499516220612"><ele>203.0</ele><time>2026-04-25T16:13:40Z</time></trkpt><trkpt lat="46.16360480328759" lon="12.81513529483515"><ele>202.60000000000002</ele><time>2026-04-25T16:13:41Z</time></trkpt><trkpt lat="46.163628626190025" lon="12.815279475030003"><ele>202.20000000000002</ele><time>2026-04-25T16:13:42Z</time></trkpt><trkpt lat="46.163655587293015" lon="12.815430127311803"><ele>201.8</ele><time>2026-04-25T16:13:43Z</time></trkpt><trkpt lat="46.16368029191329" lon="12.815589088822636"><ele>201.4</ele><time>2026-04-25T16:13:44Z</time></trkpt><trkpt lat="46.163704879165046" lon="12.815748550519908"><ele>201.0</ele><time>2026-04-25T16:13:45Z</time></trkpt><trkpt lat="46.16372897164803" lon="12.81590108297401"><ele>201.20000000000002</ele><time>2026-04-25T16:13:46Z</time></trkpt><trkpt lat="46.16375424875509" lon="12.816043733274922"><ele>201.4</ele><time>2026-04-25T16:13:47Z</time></trkpt><trkpt lat="46.163776875085915" lon="12.816185702576359"><ele>201.6</ele><time>2026-04-25T16:13:48Z</time></trkpt><trkpt lat="46.16379916321182" lon="12.816332290230527"><ele>201.8</ele><time>2026-04-25T16:13:49Z</time></trkpt><trkpt lat="46.163822659813555" lon="12.816482584997773"><ele>202.0</ele><time>2026-04-25T16:13:50Z</time></trkpt><trkpt lat="46.163847305048535" lon="12.81663541765196"><ele>202.0</ele><time>2026-04-25T16:13:51Z</time></trkpt><trkpt lat="46.16387117098143" lon="12.816792314460134"><ele>202.0</ele><time>2026-04-25T16:13:52Z</time></trkpt><trkpt lat="46.1638864744677" lon="12.816953270810638"><ele>202.0</ele><time>2026-04-25T16:13:53Z</time></trkpt><trkpt lat="46.163891601031644" lon="12.817109759532268"><ele>202.0</ele><time>2026-04-25T16:13:54Z</time></trkpt><trkpt lat="46.16387948791261" lon="12.817253673964307"><ele>202.0</ele><time>2026-04-25T16:13:55Z</time></trkpt><trkpt lat="46.16385055436114" lon="12.81738528515903"><ele>202.39999999999998</ele><time>2026-04-25T16:13:56Z</time></trkpt><trkpt lat="46.1638093185452" lon="12.81749898203927"><ele>202.79999999999998</ele><time>2026-04-25T16:13:57Z</time></trkpt><trkpt lat="46.1637567797066" lon="12.817606555407854"><ele>203.2</ele><time>2026-04-25T16:13:58Z</time></trkpt><trkpt lat="46.16369385117139" lon="12.81771045760774"><ele>203.6</ele><time>2026-04-25T16:13:59Z</time></trkpt><trkpt lat="46.16362167309475" lon="12.817807524477896"><ele>204.0</ele><time>2026-04-25T16:14:00Z</time></trkpt><trkpt lat="46.1635419630716" lon="12.817901954302991"><ele>203.75</ele><time>2026-04-25T16:14:01Z</time></trkpt><trkpt lat="46.163456934933315" lon="12.817998737287814"><ele>203.5</ele><time>2026-04-25T16:14:02Z</time></trkpt><trkpt lat="46.16336259100153" lon="12.81808965482476"><ele>203.25</ele><time>2026-04-25T16:14:03Z</time></trkpt><trkpt lat="46.16326467676403" lon="12.818183921104138"><ele>203.0</ele><time>2026-04-25T16:14:04Z</time></trkpt><trkpt lat="46.16316660762392" lon="12.81828246973424"><ele>203.0</ele><time>2026-04-25T16:14:05Z</time></trkpt><trkpt lat="46.1630666846299" lon="12.818376052038749"><ele>203.0</ele><time>2026-04-25T16:14:06Z</time></trkpt><trkpt lat="46.16297048444762" lon="12.818471156828235"><ele>203.0</ele><time>2026-04-25T16:14:07Z</time></trkpt><trkpt lat="46.162873724362505" lon="12.818565013757176"><ele>203.0</ele><time>2026-04-25T16:14:08Z</time></trkpt><trkpt lat="46.16277993108025" lon="12.818654823158314"><ele>205.5</ele><time>2026-04-25T16:14:09Z</time></trkpt><trkpt lat="46.162687534481556" lon="12.818747120066353"><ele>208.0</ele><time>2026-04-25T16:14:10Z</time></trkpt><trkpt lat="46.16259193867413" lon="12.818838139776316"><ele>210.5</ele><time>2026-04-25T16:14:11Z</time></trkpt><trkpt lat="46.162490282524004" lon="12.81892554674671"><ele>213.0</ele><time>2026-04-25T16:14:12Z</time></trkpt><trkpt lat="46.16238272935973" lon="12.818999891227454"><ele>211.75</ele><time>2026-04-25T16:14:13Z</time></trkpt><trkpt lat="46.16226622644727" lon="12.819064953653093"><ele>210.5</ele><time>2026-04-25T16:14:13.999Z</time></trkpt><trkpt lat="46.162145051633864" lon="12.819120384849983"><ele>209.25</ele><time>2026-04-25T16:14:14.999Z</time></trkpt><trkpt lat="46.16202306866413" lon="12.819169599553758"><ele>208.0</ele><time>2026-04-25T16:14:15.999Z</time></trkpt><trkpt lat="46.16190304785557" lon="12.819216424174632"><ele>208.0</ele><time>2026-04-25T16:14:16.999Z</time></trkpt><trkpt lat="46.16178813142313" lon="12.819262782526812"><ele>208.0</ele><time>2026-04-25T16:14:17.999Z</time></trkpt><trkpt lat="46.161677016569264" lon="12.819306720540169"><ele>208.0</ele><time>2026-04-25T16:14:18.999Z</time></trkpt><trkpt lat="46.16156917184716" lon="12.819347955561614"><ele>208.0</ele><time>2026-04-25T16:14:19.999Z</time></trkpt><trkpt lat="46.16145839174438" lon="12.819398137788289"><ele>210.5</ele><time>2026-04-25T16:14:20.999Z</time></trkpt><trkpt lat="46.16134429312976" lon="12.819454126001636"><ele>213.0</ele><time>2026-04-25T16:14:21.999Z</time></trkpt><trkpt lat="46.16123241746724" lon="12.819522739627203"><ele>215.5</ele><time>2026-04-25T16:14:22.999Z</time></trkpt><trkpt lat="46.16112484143338" lon="12.819601401241398"><ele>218.0</ele><time>2026-04-25T16:14:23.999Z</time></trkpt><trkpt lat="46.16101748069623" lon="12.819682339375829"><ele>218.0</ele><time>2026-04-25T16:14:24.999Z</time></trkpt><trkpt lat="46.16090906058426" lon="12.819756882806074"><ele>218.0</ele><time>2026-04-25T16:14:25.999Z</time></trkpt><trkpt lat="46.16080059985545" lon="12.819835685448211"><ele>218.0</ele><time>2026-04-25T16:14:26.999Z</time></trkpt><trkpt lat="46.16068994641295" lon="12.819915003320464"><ele>218.0</ele><time>2026-04-25T16:14:27.999Z</time></trkpt><trkpt lat="46.16057746785048" lon="12.819998456814139"><ele>219.75</ele><time>2026-04-25T16:14:28.999Z</time></trkpt><trkpt lat="46.1604634207479" lon="12.820084348107565"><ele>221.5</ele><time>2026-04-25T16:14:29.999Z</time></trkpt><trkpt lat="46.160347673163116" lon="12.820169857912912"><ele>223.25</ele><time>2026-04-25T16:14:30.999Z</time></trkpt><trkpt lat="46.16023505955607" lon="12.82025761762549"><ele>225.0</ele><time>2026-04-25T16:14:31.999Z</time></trkpt><trkpt lat="46.16012609647444" lon="12.820341733201307"><ele>225.0</ele><time>2026-04-25T16:14:32.999Z</time></trkpt><trkpt lat="46.16001726655559" lon="12.820423020867302"><ele>225.0</ele><time>2026-04-25T16:14:33.999Z</time></trkpt><trkpt lat="46.159907089959134" lon="12.820503176700942"><ele>225.0</ele><time>2026-04-25T16:14:34.999Z</time></trkpt><trkpt lat="46.15979754099515" lon="12.820586699471288"><ele>225.0</ele><time>2026-04-25T16:14:35.999Z</time></trkpt><trkpt lat="46.15968744136559" lon="12.820664618094945"><ele>223.25</ele><time>2026-04-25T16:14:36.999Z</time></trkpt><trkpt lat="46.15957868591028" lon="12.820749746188863"><ele>221.5</ele><time>2026-04-25T16:14:37.999Z</time></trkpt><trkpt lat="46.159470989480646" lon="12.820834077915192"><ele>219.75</ele><time>2026-04-25T16:14:38.999Z</time></trkpt><trkpt lat="46.15936209472207" lon="12.820913869254154"><ele>218.0</ele><time>2026-04-25T16:14:39.999Z</time></trkpt><trkpt lat="46.15925315619801" lon="12.820991642279594"><ele>218.0</ele><time>2026-04-25T16:14:40.999Z</time></trkpt><trkpt lat="46.159146886409914" lon="12.82107194276233"><ele>218.0</ele><time>2026-04-25T16:14:41.999Z</time></trkpt><trkpt lat="46.159041860555774" lon="12.821150962439999"><ele>218.0</ele><time>2026-04-25T16:14:42.999Z</time></trkpt><trkpt lat="46.15893744002051" lon="12.82122441455225"><ele>218.0</ele><time>2026-04-25T16:14:43.999Z</time></trkpt><trkpt lat="46.15883781939078" lon="12.82129610432272"><ele>215.25</ele><time>2026-04-25T16:14:44.999Z</time></trkpt><trkpt lat="46.158740549568876" lon="12.821370901703823"><ele>212.5</ele><time>2026-04-25T16:14:45.999Z</time></trkpt><trkpt lat="46.158644412423754" lon="12.821456263095177"><ele>209.75</ele><time>2026-04-25T16:14:46.999Z</time></trkpt><trkpt lat="46.15854639055006" lon="12.821555378438314"><ele>207.0</ele><time>2026-04-25T16:14:47.999Z</time></trkpt><trkpt lat="46.15846036553734" lon="12.821677783433424"><ele>207.0</ele><time>2026-04-25T16:14:48.999Z</time></trkpt><trkpt lat="46.158391919315214" lon="12.821814833164135"><ele>207.0</ele><time>2026-04-25T16:14:49.999Z</time></trkpt><trkpt lat="46.15834115360684" lon="12.821963608588241"><ele>207.0</ele><time>2026-04-25T16:14:50.999Z</time></trkpt><trkpt lat="46.15831168813563" lon="12.822119571394255"><ele>207.0</ele><time>2026-04-25T16:14:51.999Z</time></trkpt><trkpt lat="46.15829991364833" lon="12.822278540971055"><ele>208.5</ele><time>2026-04-25T16:14:52.999Z</time></trkpt><trkpt lat="46.15830415535139" lon="12.82244188695716"><ele>210.0</ele><time>2026-04-25T16:14:53.999Z</time></trkpt><trkpt lat="46.158301123257864" lon="12.822613386404779"><ele>211.5</ele><time>2026-04-25T16:14:54.999Z</time></trkpt><trkpt lat="46.15829893420448" lon="12.822785291481033"><ele>213.0</ele><time>2026-04-25T16:14:55.999Z</time></trkpt><trkpt lat="46.15830249021079" lon="12.822960018388644"><ele>213.0</ele><time>2026-04-25T16:14:56.999Z</time></trkpt><trkpt lat="46.158309851669856" lon="12.823135551266898"><ele>213.0</ele><time>2026-04-25T16:14:57.999Z</time></trkpt><trkpt lat="46.158320589304175" lon="12.823311068611721"><ele>213.0</ele><time>2026-04-25T16:14:58.999Z</time></trkpt><trkpt lat="46.15833258788" lon="12.823487601642526"><ele>213.0</ele><time>2026-04-25T16:14:59.999Z</time></trkpt><trkpt lat="46.15834470492832" lon="12.823661172006288"><ele>213.0</ele><time>2026-04-25T16:15:00.999Z</time></trkpt><trkpt lat="46.1583540935482" lon="12.823834020715173"><ele>213.0</ele><time>2026-04-25T16:15:01.999Z</time></trkpt><trkpt lat="46.15836060651346" lon="12.824006063152845"><ele>213.0</ele><time>2026-04-25T16:15:02.999Z</time></trkpt><trkpt lat="46.158367507548355" lon="12.82418287382905"><ele>213.0</ele><time>2026-04-25T16:15:03.999Z</time></trkpt><trkpt lat="46.158372278762656" lon="12.824366384162671"><ele>213.25</ele><time>2026-04-25T16:15:04.999Z</time></trkpt><trkpt lat="46.15837374986914" lon="12.82455218008074"><ele>213.5</ele><time>2026-04-25T16:15:05.999Z</time></trkpt><trkpt lat="46.15837406419198" lon="12.82473900542891"><ele>213.75</ele><time>2026-04-25T16:15:06.999Z</time></trkpt><trkpt lat="46.158375077542814" lon="12.824924123202452"><ele>214.0</ele><time>2026-04-25T16:15:07.999Z</time></trkpt><trkpt lat="46.158371002074425" lon="12.825104327453534"><ele>213.75</ele><time>2026-04-25T16:15:08.999Z</time></trkpt><trkpt lat="46.15836778706143" lon="12.82528427072972"><ele>213.5</ele><time>2026-04-25T16:15:09.999Z</time></trkpt><trkpt lat="46.158370173620916" lon="12.825464421748208"><ele>213.25</ele><time>2026-04-25T16:15:10.999Z</time></trkpt><trkpt lat="46.15837555462912" lon="12.825644542626453"><ele>213.0</ele><time>2026-04-25T16:15:12Z</time></trkpt><trkpt lat="46.158380036885916" lon="12.825824398752948"><ele>213.25</ele><time>2026-04-25T16:15:13Z</time></trkpt><trkpt lat="46.15838642039258" lon="12.826003877974882"><ele>213.5</ele><time>2026-04-25T16:15:14Z</time></trkpt><trkpt lat="46.15839408531924" lon="12.826182960234625"><ele>213.75</ele><time>2026-04-25T16:15:15Z</time></trkpt><trkpt lat="46.158405749298836" lon="12.826364749761487"><ele>214.0</ele><time>2026-04-25T16:15:16Z</time></trkpt><trkpt lat="46.15841896179617" lon="12.826554661756646"><ele>214.0</ele><time>2026-04-25T16:15:17Z</time></trkpt><trkpt lat="46.1584375205415" lon="12.826754330598568"><ele>214.0</ele><time>2026-04-25T16:15:18Z</time></trkpt><trkpt lat="46.15845623357743" lon="12.826965682827176"><ele>214.0</ele><time>2026-04-25T16:15:19Z</time></trkpt><trkpt lat="46.15847843044115" lon="12.827183382976212"><ele>214.0</ele><time>2026-04-25T16:15:20Z</time></trkpt><trkpt lat="46.15849869597959" lon="12.827401293598689"><ele>213.66666666666666</ele><time>2026-04-25T16:15:21Z</time></trkpt><trkpt lat="46.15852104928871" lon="12.827623854656101"><ele>213.33333333333331</ele><time>2026-04-25T16:15:22Z</time></trkpt><trkpt lat="46.15854309566605" lon="12.827843467654295"><ele>213.0</ele><time>2026-04-25T16:15:23Z</time></trkpt><trkpt lat="46.15856550580138" lon="12.82806217640524"><ele>212.66666666666669</ele><time>2026-04-25T16:15:24Z</time></trkpt><trkpt lat="46.158586865096254" lon="12.828285390250938"><ele>212.33333333333334</ele><time>2026-04-25T16:15:25Z</time></trkpt><trkpt lat="46.15860949528845" lon="12.828509185858277"><ele>212.0</ele><time>2026-04-25T16:15:26Z</time></trkpt><trkpt lat="46.158631958446605" lon="12.828727156864112"><ele>212.0</ele><time>2026-04-25T16:15:27Z</time></trkpt><trkpt lat="46.15865536297193" lon="12.828944105270445"><ele>212.0</ele><time>2026-04-25T16:15:28Z</time></trkpt><trkpt lat="46.1586773854297" lon="12.829158738067479"><ele>212.0</ele><time>2026-04-25T16:15:29Z</time></trkpt><trkpt lat="46.15869629531137" lon="12.82937212597742"><ele>211.66666666666669</ele><time>2026-04-25T16:15:30Z</time></trkpt><trkpt lat="46.15871813074094" lon="12.829589398580273"><ele>211.33333333333331</ele><time>2026-04-25T16:15:31Z</time></trkpt><trkpt lat="46.158740531981316" lon="12.829809698663814"><ele>211.0</ele><time>2026-04-25T16:15:32Z</time></trkpt><trkpt lat="46.158762495603206" lon="12.830031524861424"><ele>210.66666666666666</ele><time>2026-04-25T16:15:33Z</time></trkpt><trkpt lat="46.15878486340185" lon="12.830254123463083"><ele>210.33333333333331</ele><time>2026-04-25T16:15:34Z</time></trkpt><trkpt lat="46.158803844669436" lon="12.83047994389468"><ele>210.0</ele><time>2026-04-25T16:15:35Z</time></trkpt><trkpt lat="46.15882450251863" lon="12.83070236244422"><ele>210.0</ele><time>2026-04-25T16:15:36Z</time></trkpt><trkpt lat="46.158845266345416" lon="12.830923643056982"><ele>210.0</ele><time>2026-04-25T16:15:37Z</time></trkpt><trkpt lat="46.15886800594195" lon="12.831146084519434"><ele>210.0</ele><time>2026-04-25T16:15:38Z</time></trkpt><trkpt lat="46.158891130067225" lon="12.831366928754246"><ele>209.33333333333331</ele><time>2026-04-25T16:15:39Z</time></trkpt><trkpt lat="46.15891399270746" lon="12.831591121953252"><ele>208.66666666666666</ele><time>2026-04-25T16:15:40Z</time></trkpt><trkpt lat="46.15893660088638" lon="12.831814749061477"><ele>208.0</ele><time>2026-04-25T16:15:41Z</time></trkpt><trkpt lat="46.15896010648563" lon="12.832032664119039"><ele>208.0</ele><time>2026-04-25T16:15:42Z</time></trkpt><trkpt lat="46.15898060286069" lon="12.832243892938326"><ele>208.0</ele><time>2026-04-25T16:15:43Z</time></trkpt><trkpt lat="46.15900049542686" lon="12.832452418563223"><ele>208.0</ele><time>2026-04-25T16:15:44Z</time></trkpt><trkpt lat="46.15901813061154" lon="12.832656247971594"><ele>208.0</ele><time>2026-04-25T16:15:45Z</time></trkpt><trkpt lat="46.15903888724101" lon="12.832857318593872"><ele>208.0</ele><time>2026-04-25T16:15:46Z</time></trkpt><trkpt lat="46.15905864135802" lon="12.833055374655322"><ele>208.0</ele><time>2026-04-25T16:15:47Z</time></trkpt><trkpt lat="46.159077965209605" lon="12.833253002355645"><ele>208.0</ele><time>2026-04-25T16:15:48Z</time></trkpt><trkpt lat="46.159097267249884" lon="12.833451822422077"><ele>208.0</ele><time>2026-04-25T16:15:49Z</time></trkpt><trkpt lat="46.15911629011061" lon="12.83365091758096"><ele>207.25</ele><time>2026-04-25T16:15:50Z</time></trkpt><trkpt lat="46.15913766243409" lon="12.833850404935788"><ele>206.5</ele><time>2026-04-25T16:15:51Z</time></trkpt><trkpt lat="46.159156660640825" lon="12.834051698333393"><ele>205.75</ele><time>2026-04-25T16:15:52Z</time></trkpt><trkpt lat="46.15917489114203" lon="12.834255742555516"><ele>205.0</ele><time>2026-04-25T16:15:53Z</time></trkpt><trkpt lat="46.15918795365666" lon="12.834461096225326"><ele>205.0</ele><time>2026-04-25T16:15:54Z</time></trkpt><trkpt lat="46.159194060322164" lon="12.834666920785326"><ele>205.0</ele><time>2026-04-25T16:15:55Z</time></trkpt><trkpt lat="46.15919414023166" lon="12.834873140173551"><ele>205.0</ele><time>2026-04-25T16:15:56Z</time></trkpt><trkpt lat="46.15918855753537" lon="12.835083909157694"><ele>205.0</ele><time>2026-04-25T16:15:57Z</time></trkpt><trkpt lat="46.15917853322702" lon="12.835294981974101"><ele>205.0</ele><time>2026-04-25T16:15:58Z</time></trkpt><trkpt lat="46.15916442219884" lon="12.835501197731094"><ele>205.0</ele><time>2026-04-25T16:15:59Z</time></trkpt><trkpt lat="46.15914809162444" lon="12.835698846497651"><ele>205.0</ele><time>2026-04-25T16:16:00Z</time></trkpt><trkpt lat="46.15913739137231" lon="12.835880925047181"><ele>205.0</ele><time>2026-04-25T16:16:01Z</time></trkpt><trkpt lat="46.15913943094031" lon="12.836042512994089"><ele>204.71428571428572</ele><time>2026-04-25T16:16:02Z</time></trkpt><trkpt lat="46.159151242998796" lon="12.836170769771563"><ele>204.42857142857142</ele><time>2026-04-25T16:16:03Z</time></trkpt><trkpt lat="46.15916312611761" lon="12.836266838405585"><ele>204.14285714285714</ele><time>2026-04-25T16:16:04Z</time></trkpt><trkpt lat="46.15917689491044" lon="12.836389366654643"><ele>203.85714285714286</ele><time>2026-04-25T16:16:06Z</time></trkpt><trkpt lat="46.15916757738963" lon="12.83648131550647"><ele>203.57142857142856</ele><time>2026-04-25T16:16:09Z</time></trkpt><trkpt lat="46.159145698593655" lon="12.836580590906996"><ele>203.28571428571428</ele><time>2026-04-25T16:16:11Z</time></trkpt><trkpt lat="46.15912494756874" lon="12.836666816340335"><ele>203.0</ele><time>2026-04-25T16:16:12Z</time></trkpt><trkpt lat="46.15909988172821" lon="12.836767644804825"><ele>202.8</ele><time>2026-04-25T16:16:13Z</time></trkpt><trkpt lat="46.15907214827399" lon="12.836878703582096"><ele>202.60000000000002</ele><time>2026-04-25T16:16:14Z</time></trkpt><trkpt lat="46.15903352546825" lon="12.836988301059915"><ele>202.39999999999998</ele><time>2026-04-25T16:16:15Z</time></trkpt><trkpt lat="46.158979586494574" lon="12.837096904536631"><ele>202.2</ele><time>2026-04-25T16:16:16Z</time></trkpt><trkpt lat="46.158923080936695" lon="12.83721737774626"><ele>202.0</ele><time>2026-04-25T16:16:17Z</time></trkpt><trkpt lat="46.15886688550859" lon="12.837348589569364"><ele>202.0</ele><time>2026-04-25T16:16:18Z</time></trkpt><trkpt lat="46.15880893861293" lon="12.837489633944205"><ele>202.0</ele><time>2026-04-25T16:16:19Z</time></trkpt><trkpt lat="46.15875387982708" lon="12.837636099232903"><ele>202.0</ele><time>2026-04-25T16:16:20Z</time></trkpt><trkpt lat="46.1586994043505" lon="12.837781339991356"><ele>202.0</ele><time>2026-04-25T16:16:21Z</time></trkpt><trkpt lat="46.158639369734814" lon="12.837927816149346"><ele>201.5</ele><time>2026-04-25T16:16:21.999Z</time></trkpt><trkpt lat="46.15857797956328" lon="12.838081816192632"><ele>201.0</ele><time>2026-04-25T16:16:22.999Z</time></trkpt><trkpt lat="46.158516070777075" lon="12.838243064096536"><ele>200.5</ele><time>2026-04-25T16:16:23.999Z</time></trkpt><trkpt lat="46.15844420254824" lon="12.838410950023803"><ele>200.0</ele><time>2026-04-25T16:16:24.999Z</time></trkpt><trkpt lat="46.15836470969225" lon="12.838591417568706"><ele>199.66666666666669</ele><time>2026-04-25T16:16:25.999Z</time></trkpt><trkpt lat="46.15828040244116" lon="12.838788745646188"><ele>199.33333333333331</ele><time>2026-04-25T16:16:26.999Z</time></trkpt><trkpt lat="46.15819298611388" lon="12.838991418525413"><ele>199.0</ele><time>2026-04-25T16:16:27.999Z</time></trkpt><trkpt lat="46.158106506788684" lon="12.839192940149008"><ele>199.0</ele><time>2026-04-25T16:16:28.999Z</time></trkpt><trkpt lat="46.15801698131532" lon="12.839395126415743"><ele>199.0</ele><time>2026-04-25T16:16:29.999Z</time></trkpt><trkpt lat="46.15792429955421" lon="12.839597601568713"><ele>199.0</ele><time>2026-04-25T16:16:30.999Z</time></trkpt><trkpt lat="46.15783016297205" lon="12.839800950208595"><ele>199.0</ele><time>2026-04-25T16:16:31.999Z</time></trkpt><trkpt lat="46.15773562471231" lon="12.840003604274665"><ele>199.0</ele><time>2026-04-25T16:16:32.999Z</time></trkpt><trkpt lat="46.157638974664806" lon="12.840206214069088"><ele>199.0</ele><time>2026-04-25T16:16:33.999Z</time></trkpt><trkpt lat="46.15753777888513" lon="12.840409860734237"><ele>199.0</ele><time>2026-04-25T16:16:34.999Z</time></trkpt><trkpt lat="46.15743115690095" lon="12.840620931547642"><ele>199.0</ele><time>2026-04-25T16:16:35.999Z</time></trkpt><trkpt lat="46.15732186546912" lon="12.840828578046777"><ele>199.0</ele><time>2026-04-25T16:16:36.999Z</time></trkpt><trkpt lat="46.157202362387864" lon="12.841030731819448"><ele>198.33333333333331</ele><time>2026-04-25T16:16:37.999Z</time></trkpt><trkpt lat="46.157073155022076" lon="12.841226647861507"><ele>197.66666666666669</ele><time>2026-04-25T16:16:38.999Z</time></trkpt><trkpt lat="46.15693752476311" lon="12.841415924272589"><ele>197.0</ele><time>2026-04-25T16:16:39.999Z</time></trkpt><trkpt lat="46.15679846734897" lon="12.841601379237883"><ele>197.0</ele><time>2026-04-25T16:16:40.999Z</time></trkpt><trkpt lat="46.156656200040224" lon="12.841782174435531"><ele>197.0</ele><time>2026-04-25T16:16:41.999Z</time></trkpt><trkpt lat="46.15651222144005" lon="12.841954745379883"><ele>197.0</ele><time>2026-04-25T16:16:42.999Z</time></trkpt><trkpt lat="46.1563702195226" lon="12.842124474733467"><ele>196.0</ele><time>2026-04-25T16:16:43.999Z</time></trkpt><trkpt lat="46.1562333029279" lon="12.842292093138482"><ele>195.0</ele><time>2026-04-25T16:16:44.999Z</time></trkpt><trkpt lat="46.15609794687727" lon="12.842453014525447"><ele>194.0</ele><time>2026-04-25T16:16:45.999Z</time></trkpt><trkpt lat="46.155962517045296" lon="12.842609922920849"><ele>194.0</ele><time>2026-04-25T16:16:46.999Z</time></trkpt><trkpt lat="46.1558281389272" lon="12.842764149337565"><ele>194.0</ele><time>2026-04-25T16:16:47.999Z</time></trkpt><trkpt lat="46.155693037526596" lon="12.8429177513665"><ele>194.0</ele><time>2026-04-25T16:16:48.999Z</time></trkpt><trkpt lat="46.15555496365626" lon="12.843073577805319"><ele>194.0</ele><time>2026-04-25T16:16:49.999Z</time></trkpt><trkpt lat="46.15541625486758" lon="12.843228968678563"><ele>194.0</ele><time>2026-04-25T16:16:50.999Z</time></trkpt><trkpt lat="46.15527196278661" lon="12.843389545955562"><ele>194.0</ele><time>2026-04-25T16:16:51.999Z</time></trkpt><trkpt lat="46.15512798946426" lon="12.843558235750898"><ele>193.66666666666669</ele><time>2026-04-25T16:16:52.999Z</time></trkpt><trkpt lat="46.15498251712329" lon="12.843724882903059"><ele>193.33333333333331</ele><time>2026-04-25T16:16:53.999Z</time></trkpt><trkpt lat="46.15483487369797" lon="12.84389050431039"><ele>193.0</ele><time>2026-04-25T16:16:54.999Z</time></trkpt><trkpt lat="46.15468926655694" lon="12.84405871881089"><ele>193.0</ele><time>2026-04-25T16:16:55.999Z</time></trkpt><trkpt lat="46.15454103820284" lon="12.844224172576814"><ele>193.0</ele><time>2026-04-25T16:16:56.999Z</time></trkpt><trkpt lat="46.15439105910248" lon="12.844390397666704"><ele>193.0</ele><time>2026-04-25T16:16:57.999Z</time></trkpt><trkpt lat="46.15424177755031" lon="12.84455792836097"><ele>192.66666666666666</ele><time>2026-04-25T16:16:58.999Z</time></trkpt><trkpt lat="46.1540912351444" lon="12.844727117460836"><ele>192.33333333333331</ele><time>2026-04-25T16:16:59.999Z</time></trkpt><trkpt lat="46.153940262059585" lon="12.844894795305777"><ele>192.0</ele><time>2026-04-25T16:17:00.999Z</time></trkpt><trkpt lat="46.15379049362437" lon="12.845062763082032"><ele>190.66666666666666</ele><time>2026-04-25T16:17:01.999Z</time></trkpt><trkpt lat="46.15364124190422" lon="12.84522722219307"><ele>189.33333333333331</ele><time>2026-04-25T16:17:02.999Z</time></trkpt><trkpt lat="46.15349537584894" lon="12.845393428870304"><ele>188.0</ele><time>2026-04-25T16:17:03.999Z</time></trkpt><trkpt lat="46.15335025961219" lon="12.845553584429682"><ele>188.0</ele><time>2026-04-25T16:17:04.999Z</time></trkpt><trkpt lat="46.15320738062678" lon="12.8457157725826"><ele>188.0</ele><time>2026-04-25T16:17:05.999Z</time></trkpt><trkpt lat="46.153062861898086" lon="12.845878275776133"><ele>188.0</ele><time>2026-04-25T16:17:06.999Z</time></trkpt><trkpt lat="46.1529177994455" lon="12.846041168622069"><ele>188.66666666666666</ele><time>2026-04-25T16:17:07.999Z</time></trkpt><trkpt lat="46.15277205018889" lon="12.846206357195102"><ele>189.33333333333334</ele><time>2026-04-25T16:17:08.999Z</time></trkpt><trkpt lat="46.152627013718515" lon="12.846370254774797"><ele>190.0</ele><time>2026-04-25T16:17:09.999Z</time></trkpt><trkpt lat="46.15248108983911" lon="12.846534342913108"><ele>189.66666666666669</ele><time>2026-04-25T16:17:10.999Z</time></trkpt><trkpt lat="46.15233285908259" lon="12.846701327102128"><ele>189.33333333333334</ele><time>2026-04-25T16:17:11.999Z</time></trkpt><trkpt lat="46.152184337298685" lon="12.846869411779053"><ele>189.0</ele><time>2026-04-25T16:17:12.999Z</time></trkpt><trkpt lat="46.15203443796952" lon="12.847037087062745"><ele>188.33333333333334</ele><time>2026-04-25T16:17:13.999Z</time></trkpt><trkpt lat="46.15188457421617" lon="12.847209124939884"><ele>187.66666666666669</ele><time>2026-04-25T16:17:14.999Z</time></trkpt><trkpt lat="46.15173281075007" lon="12.847378057288283"><ele>187.0</ele><time>2026-04-25T16:17:15.999Z</time></trkpt><trkpt lat="46.15158117824408" lon="12.847543911843994"><ele>186.66666666666669</ele><time>2026-04-25T16:17:16.999Z</time></trkpt><trkpt lat="46.151430446613254" lon="12.847710912571795"><ele>186.33333333333334</ele><time>2026-04-25T16:17:18Z</time></trkpt><trkpt lat="46.151281806878785" lon="12.847877638695056"><ele>186.0</ele><time>2026-04-25T16:17:19Z</time></trkpt><trkpt lat="46.1511319595709" lon="12.848042548477085"><ele>186.0</ele><time>2026-04-25T16:17:20Z</time></trkpt><trkpt lat="46.15098532093115" lon="12.848210531642419"><ele>186.0</ele><time>2026-04-25T16:17:21Z</time></trkpt><trkpt lat="46.15083678148409" lon="12.848375714919166"><ele>186.0</ele><time>2026-04-25T16:17:22Z</time></trkpt><trkpt lat="46.150688840400406" lon="12.848544260075013"><ele>185.33333333333334</ele><time>2026-04-25T16:17:23Z</time></trkpt><trkpt lat="46.15054069412472" lon="12.848712271795351"><ele>184.66666666666669</ele><time>2026-04-25T16:17:24Z</time></trkpt><trkpt lat="46.15038818099317" lon="12.84887454650266"><ele>184.0</ele><time>2026-04-25T16:17:25Z</time></trkpt><trkpt lat="46.15023863463018" lon="12.849047260965987"><ele>184.0</ele><time>2026-04-25T16:17:26Z</time></trkpt><trkpt lat="46.1500840055045" lon="12.849217334738444"><ele>184.0</ele><time>2026-04-25T16:17:27Z</time></trkpt><trkpt lat="46.14992816640229" lon="12.849392293569522"><ele>184.0</ele><time>2026-04-25T16:17:28Z</time></trkpt><trkpt lat="46.149768253282105" lon="12.849566383562943"><ele>183.33333333333334</ele><time>2026-04-25T16:17:29Z</time></trkpt><trkpt lat="46.14960881535346" lon="12.849747464012648"><ele>182.66666666666666</ele><time>2026-04-25T16:17:30Z</time></trkpt><trkpt lat="46.149446589588365" lon="12.849924621258996"><ele>182.0</ele><time>2026-04-25T16:17:31Z</time></trkpt><trkpt lat="46.14928811351087" lon="12.850106978976424"><ele>182.0</ele><time>2026-04-25T16:17:32Z</time></trkpt><trkpt lat="46.14912955439803" lon="12.850286888566671"><ele>182.0</ele><time>2026-04-25T16:17:33Z</time></trkpt><trkpt lat="46.14897169008617" lon="12.850465324564194"><ele>182.0</ele><time>2026-04-25T16:17:34Z</time></trkpt><trkpt lat="46.14881670621096" lon="12.850636300105306"><ele>181.66666666666666</ele><time>2026-04-25T16:17:35Z</time></trkpt><trkpt lat="46.14866794380919" lon="12.850806816127191"><ele>181.33333333333334</ele><time>2026-04-25T16:17:36Z</time></trkpt><trkpt lat="46.14852073886721" lon="12.850971186405943"><ele>181.0</ele><time>2026-04-25T16:17:37Z</time></trkpt><trkpt lat="46.148375308655694" lon="12.851132754485304"><ele>180.66666666666669</ele><time>2026-04-25T16:17:38Z</time></trkpt><trkpt lat="46.14822858911468" lon="12.85129467447872"><ele>180.33333333333334</ele><time>2026-04-25T16:17:39Z</time></trkpt><trkpt lat="46.148080498968866" lon="12.85145721904623"><ele>180.0</ele><time>2026-04-25T16:17:40Z</time></trkpt><trkpt lat="46.14793091664255" lon="12.85162637106934"><ele>179.33333333333334</ele><time>2026-04-25T16:17:41Z</time></trkpt><trkpt lat="46.147779267517535" lon="12.851795424474446"><ele>178.66666666666669</ele><time>2026-04-25T16:17:42Z</time></trkpt><trkpt lat="46.14762935837324" lon="12.851968359791405"><ele>178.0</ele><time>2026-04-25T16:17:43Z</time></trkpt><trkpt lat="46.14747748389957" lon="12.852139960878123"><ele>177.66666666666669</ele><time>2026-04-25T16:17:44Z</time></trkpt><trkpt lat="46.14732448902573" lon="12.852309486225373"><ele>177.33333333333334</ele><time>2026-04-25T16:17:45Z</time></trkpt><trkpt lat="46.14717278197372" lon="12.852480374746877"><ele>177.0</ele><time>2026-04-25T16:17:46Z</time></trkpt><trkpt lat="46.14702251563748" lon="12.852652278659608"><ele>177.0</ele><time>2026-04-25T16:17:47Z</time></trkpt><trkpt lat="46.146873107852414" lon="12.852825608803704"><ele>177.0</ele><time>2026-04-25T16:17:48Z</time></trkpt><trkpt lat="46.14671984806936" lon="12.852992154871083"><ele>177.0</ele><time>2026-04-25T16:17:49Z</time></trkpt><trkpt lat="46.146567573380565" lon="12.853162695687368"><ele>177.33333333333334</ele><time>2026-04-25T16:17:50Z</time></trkpt><trkpt lat="46.14641376154994" lon="12.853341662978673"><ele>177.66666666666669</ele><time>2026-04-25T16:17:51Z</time></trkpt><trkpt lat="46.146256126630746" lon="12.85351753502804"><ele>178.0</ele><time>2026-04-25T16:17:52Z</time></trkpt><trkpt lat="46.14609727358521" lon="12.85369608648106"><ele>178.0</ele><time>2026-04-25T16:17:53Z</time></trkpt><trkpt lat="46.14593858301036" lon="12.853875683527821"><ele>178.0</ele><time>2026-04-25T16:17:54Z</time></trkpt><trkpt lat="46.14577854524443" lon="12.854048303864294"><ele>178.0</ele><time>2026-04-25T16:17:55Z</time></trkpt><trkpt lat="46.1456262392834" lon="12.854227242249305"><ele>176.33333333333334</ele><time>2026-04-25T16:17:56Z</time></trkpt><trkpt lat="46.145472126836225" lon="12.854402994302035"><ele>174.66666666666666</ele><time>2026-04-25T16:17:57Z</time></trkpt><trkpt lat="46.14531683189163" lon="12.854575774146232"><ele>173.0</ele><time>2026-04-25T16:17:58Z</time></trkpt><trkpt lat="46.14516077243845" lon="12.854748904089776"><ele>173.0</ele><time>2026-04-25T16:17:59Z</time></trkpt><trkpt lat="46.14500602723389" lon="12.854926453905367"><ele>173.0</ele><time>2026-04-25T16:18:00Z</time></trkpt><trkpt lat="46.144852487249196" lon="12.855100150252332"><ele>173.0</ele><time>2026-04-25T16:18:01Z</time></trkpt><trkpt lat="46.14469971331054" lon="12.855272523619389"><ele>172.66666666666666</ele><time>2026-04-25T16:18:02Z</time></trkpt><trkpt lat="46.14454743889979" lon="12.855446370911926"><ele>172.33333333333334</ele><time>2026-04-25T16:18:03Z</time></trkpt><trkpt lat="46.144391234534005" lon="12.855617015444524"><ele>172.0</ele><time>2026-04-25T16:18:04Z</time></trkpt><trkpt lat="46.1442346161589" lon="12.85579169652868"><ele>172.0</ele><time>2026-04-25T16:18:05Z</time></trkpt><trkpt lat="46.14407948914406" lon="12.855967435012463"><ele>172.0</ele><time>2026-04-25T16:18:06Z</time></trkpt><trkpt lat="46.143921822757456" lon="12.856146139274836"><ele>172.0</ele><time>2026-04-25T16:18:07Z</time></trkpt><trkpt lat="46.14376377372907" lon="12.856323218509436"><ele>172.0</ele><time>2026-04-25T16:18:08Z</time></trkpt><trkpt lat="46.143605957034566" lon="12.856502489588543"><ele>172.0</ele><time>2026-04-25T16:18:09Z</time></trkpt><trkpt lat="46.14344823501676" lon="12.856681031976546"><ele>172.0</ele><time>2026-04-25T16:18:10Z</time></trkpt><trkpt lat="46.14329272273281" lon="12.85685593849827"><ele>172.66666666666669</ele><time>2026-04-25T16:18:11Z</time></trkpt><trkpt lat="46.14313734931331" lon="12.857022989896466"><ele>173.33333333333334</ele><time>2026-04-25T16:18:12Z</time></trkpt><trkpt lat="46.142988476452075" lon="12.857196727802801"><ele>174.0</ele><time>2026-04-25T16:18:13Z</time></trkpt><trkpt lat="46.14283891032485" lon="12.857362732059997"><ele>174.0</ele><time>2026-04-25T16:18:14Z</time></trkpt><trkpt lat="46.142690981386686" lon="12.857529466302498"><ele>174.0</ele><time>2026-04-25T16:18:15Z</time></trkpt><trkpt lat="46.14254604024758" lon="12.85769528658213"><ele>174.0</ele><time>2026-04-25T16:18:16Z</time></trkpt><trkpt lat="46.14240532502707" lon="12.857858276481764"><ele>172.66666666666666</ele><time>2026-04-25T16:18:17Z</time></trkpt><trkpt lat="46.14226390717706" lon="12.858013355545241"><ele>171.33333333333331</ele><time>2026-04-25T16:18:18Z</time></trkpt><trkpt lat="46.14212402488921" lon="12.858170435094623"><ele>170.0</ele><time>2026-04-25T16:18:19Z</time></trkpt><trkpt lat="46.14198696672504" lon="12.858327279789455"><ele>169.33333333333331</ele><time>2026-04-25T16:18:20Z</time></trkpt><trkpt lat="46.14184848402604" lon="12.85848360278695"><ele>168.66666666666666</ele><time>2026-04-25T16:18:21Z</time></trkpt><trkpt lat="46.14170570881353" lon="12.85863915796771"><ele>168.0</ele><time>2026-04-25T16:18:22Z</time></trkpt><trkpt lat="46.14156248116996" lon="12.858793379264867"><ele>168.0</ele><time>2026-04-25T16:18:23Z</time></trkpt><trkpt lat="46.14141943234546" lon="12.85894832469479"><ele>168.0</ele><time>2026-04-25T16:18:23.999Z</time></trkpt><trkpt lat="46.14127738654364" lon="12.859110159725452"><ele>168.0</ele><time>2026-04-25T16:18:24.999Z</time></trkpt><trkpt lat="46.14113663012286" lon="12.859271380774247"><ele>167.66666666666666</ele><time>2026-04-25T16:18:25.999Z</time></trkpt><trkpt lat="46.14099355091203" lon="12.859432122529146"><ele>167.33333333333331</ele><time>2026-04-25T16:18:26.999Z</time></trkpt><trkpt lat="46.14084844983271" lon="12.859593839138693"><ele>167.0</ele><time>2026-04-25T16:18:27.999Z</time></trkpt><trkpt lat="46.140700935765906" lon="12.859755433307814"><ele>167.0</ele><time>2026-04-25T16:18:28.999Z</time></trkpt><trkpt lat="46.14055462030486" lon="12.859925669667296"><ele>167.0</ele><time>2026-04-25T16:18:29.999Z</time></trkpt><trkpt lat="46.140405223413175" lon="12.860094593869853"><ele>167.0</ele><time>2026-04-25T16:18:30.999Z</time></trkpt><trkpt lat="46.140252345130534" lon="12.860264221364085"><ele>166.66666666666666</ele><time>2026-04-25T16:18:31.999Z</time></trkpt><trkpt lat="46.14010237953104" lon="12.860437358198606"><ele>166.33333333333334</ele><time>2026-04-25T16:18:32.999Z</time></trkpt><trkpt lat="46.139949962405126" lon="12.860607441520058"><ele>166.0</ele><time>2026-04-25T16:18:33.999Z</time></trkpt><trkpt lat="46.13979564106018" lon="12.8607798056926"><ele>165.66666666666669</ele><time>2026-04-25T16:18:34.999Z</time></trkpt><trkpt lat="46.1396422627733" lon="12.860955192342852"><ele>165.33333333333334</ele><time>2026-04-25T16:18:35.999Z</time></trkpt><trkpt lat="46.139483808516346" lon="12.861128770406744"><ele>165.0</ele><time>2026-04-25T16:18:36.999Z</time></trkpt><trkpt lat="46.13932568727407" lon="12.86130299811561"><ele>165.0</ele><time>2026-04-25T16:18:37.999Z</time></trkpt><trkpt lat="46.13916641445548" lon="12.861478160909545"><ele>165.0</ele><time>2026-04-25T16:18:38.999Z</time></trkpt><trkpt lat="46.1390100235883" lon="12.861658375687702"><ele>165.0</ele><time>2026-04-25T16:18:39.999Z</time></trkpt><trkpt lat="46.13885073340728" lon="12.861837902648343"><ele>164.33333333333334</ele><time>2026-04-25T16:18:40.999Z</time></trkpt><trkpt lat="46.13869070217896" lon="12.862015685923792"><ele>163.66666666666669</ele><time>2026-04-25T16:18:41.999Z</time></trkpt><trkpt lat="46.13853001947781" lon="12.862192070346936"><ele>163.0</ele><time>2026-04-25T16:18:42.999Z</time></trkpt><trkpt lat="46.138371947016566" lon="12.862373617928478"><ele>163.33333333333334</ele><time>2026-04-25T16:18:43.999Z</time></trkpt><trkpt lat="46.138212315642015" lon="12.86255625473228"><ele>163.66666666666666</ele><time>2026-04-25T16:18:44.999Z</time></trkpt><trkpt lat="46.13805081379913" lon="12.862736881719032"><ele>164.0</ele><time>2026-04-25T16:18:45.999Z</time></trkpt><trkpt lat="46.137892651563114" lon="12.862918067033508"><ele>164.33333333333331</ele><time>2026-04-25T16:18:46.999Z</time></trkpt><trkpt lat="46.13773639328281" lon="12.863098097290726"><ele>164.66666666666666</ele><time>2026-04-25T16:18:47.999Z</time></trkpt><trkpt lat="46.137583350780844" lon="12.863270208487716"><ele>165.0</ele><time>2026-04-25T16:18:48.999Z</time></trkpt><trkpt lat="46.13743195852603" lon="12.863439319013205"><ele>163.66666666666666</ele><time>2026-04-25T16:18:49.999Z</time></trkpt><trkpt lat="46.137284127614805" lon="12.863607133910893"><ele>162.33333333333331</ele><time>2026-04-25T16:18:50.999Z</time></trkpt><trkpt lat="46.137137495882754" lon="12.863773699314764"><ele>161.0</ele><time>2026-04-25T16:18:51.999Z</time></trkpt><trkpt lat="46.13699073953089" lon="12.863939091370975"><ele>161.0</ele><time>2026-04-25T16:18:52.999Z</time></trkpt><trkpt lat="46.13684671301847" lon="12.864101433197558"><ele>161.0</ele><time>2026-04-25T16:18:53.999Z</time></trkpt><trkpt lat="46.13670496599348" lon="12.864262589032254"><ele>161.0</ele><time>2026-04-25T16:18:54.999Z</time></trkpt><trkpt lat="46.136565258223555" lon="12.864419740657304"><ele>161.0</ele><time>2026-04-25T16:18:55.999Z</time></trkpt><trkpt lat="46.13642522161614" lon="12.864573515070447"><ele>161.0</ele><time>2026-04-25T16:18:56.999Z</time></trkpt><trkpt lat="46.13628685852694" lon="12.864726265310539"><ele>161.0</ele><time>2026-04-25T16:18:57.999Z</time></trkpt><trkpt lat="46.13614999180501" lon="12.864881367698281"><ele>161.0</ele><time>2026-04-25T16:18:58.999Z</time></trkpt><trkpt lat="46.13601327300683" lon="12.865035028711764"><ele>161.0</ele><time>2026-04-25T16:18:59.999Z</time></trkpt><trkpt lat="46.13587743478789" lon="12.865184714045622"><ele>161.0</ele><time>2026-04-25T16:19:00.999Z</time></trkpt><trkpt lat="46.135745087259636" lon="12.865335722703787"><ele>159.66666666666666</ele><time>2026-04-25T16:19:01.999Z</time></trkpt><trkpt lat="46.135613853082866" lon="12.865485760363809"><ele>158.33333333333334</ele><time>2026-04-25T16:19:02.999Z</time></trkpt><trkpt lat="46.13548109211744" lon="12.865630661741678"><ele>157.0</ele><time>2026-04-25T16:19:03.999Z</time></trkpt><trkpt lat="46.135348556040114" lon="12.865775282160211"><ele>157.0</ele><time>2026-04-25T16:19:04.999Z</time></trkpt><trkpt lat="46.13521817293626" lon="12.86592033509845"><ele>157.0</ele><time>2026-04-25T16:19:05.999Z</time></trkpt><trkpt lat="46.13508769011848" lon="12.866068655931528"><ele>157.0</ele><time>2026-04-25T16:19:06.999Z</time></trkpt><trkpt lat="46.13495792222089" lon="12.8662185891399"><ele>157.0</ele><time>2026-04-25T16:19:07.999Z</time></trkpt><trkpt lat="46.13482598302026" lon="12.8663729197507"><ele>157.0</ele><time>2026-04-25T16:19:08.999Z</time></trkpt><trkpt lat="46.13469272851703" lon="12.866531266830474"><ele>157.0</ele><time>2026-04-25T16:19:09.999Z</time></trkpt><trkpt lat="46.134552551634464" lon="12.866685808465025"><ele>156.33333333333334</ele><time>2026-04-25T16:19:10.999Z</time></trkpt><trkpt lat="46.13441341977758" lon="12.866848760227894"><ele>155.66666666666666</ele><time>2026-04-25T16:19:11.999Z</time></trkpt><trkpt lat="46.13427201746983" lon="12.867008259293332"><ele>155.0</ele><time>2026-04-25T16:19:12.999Z</time></trkpt><trkpt lat="46.13412949990015" lon="12.867164146187324"><ele>155.33333333333331</ele><time>2026-04-25T16:19:13.999Z</time></trkpt><trkpt lat="46.13398808411566" lon="12.86732174534237"><ele>155.66666666666666</ele><time>2026-04-25T16:19:14.999Z</time></trkpt><trkpt lat="46.13384575723182" lon="12.867481929838727"><ele>156.0</ele><time>2026-04-25T16:19:15.999Z</time></trkpt><trkpt lat="46.13370238009057" lon="12.867640873092181"><ele>156.0</ele><time>2026-04-25T16:19:16.999Z</time></trkpt><trkpt lat="46.133558227241956" lon="12.867805771744203"><ele>156.0</ele><time>2026-04-25T16:19:17.999Z</time></trkpt><trkpt lat="46.13341041538483" lon="12.8679707971828"><ele>156.0</ele><time>2026-04-25T16:19:18.999Z</time></trkpt><trkpt lat="46.13326145941265" lon="12.868134667884593"><ele>155.66666666666666</ele><time>2026-04-25T16:19:19.999Z</time></trkpt><trkpt lat="46.13311274835876" lon="12.868303301143637"><ele>155.33333333333331</ele><time>2026-04-25T16:19:20.999Z</time></trkpt><trkpt lat="46.132958715790615" lon="12.868473194806006"><ele>155.0</ele><time>2026-04-25T16:19:21.999Z</time></trkpt><trkpt lat="46.132803621911535" lon="12.86864885502179"><ele>155.0</ele><time>2026-04-25T16:19:22.999Z</time></trkpt><trkpt lat="46.132647373149325" lon="12.868825333348575"><ele>155.0</ele><time>2026-04-25T16:19:24Z</time></trkpt><trkpt lat="46.132487893257704" lon="12.86899903077372"><ele>155.0</ele><time>2026-04-25T16:19:25Z</time></trkpt><trkpt lat="46.132329522848764" lon="12.869174613768278"><ele>155.0</ele><time>2026-04-25T16:19:26Z</time></trkpt><trkpt lat="46.13217128298471" lon="12.869350042512886"><ele>155.0</ele><time>2026-04-25T16:19:27Z</time></trkpt><trkpt lat="46.13201633980661" lon="12.86952741130793"><ele>155.0</ele><time>2026-04-25T16:19:28Z</time></trkpt><trkpt lat="46.131863241103986" lon="12.869698492285094"><ele>155.0</ele><time>2026-04-25T16:19:29Z</time></trkpt><trkpt lat="46.13171392103123" lon="12.869873085964139"><ele>155.0</ele><time>2026-04-25T16:19:30Z</time></trkpt><trkpt lat="46.13156810832496" lon="12.870045636919546"><ele>155.0</ele><time>2026-04-25T16:19:31Z</time></trkpt><trkpt lat="46.13141924322013" lon="12.870209547471578"><ele>153.66666666666666</ele><time>2026-04-25T16:19:32Z</time></trkpt><trkpt lat="46.13127345063621" lon="12.870373788384569"><ele>152.33333333333334</ele><time>2026-04-25T16:19:33Z</time></trkpt><trkpt lat="46.13113001052507" lon="12.870535862338718"><ele>151.0</ele><time>2026-04-25T16:19:34Z</time></trkpt><trkpt lat="46.130986533842226" lon="12.870699641997593"><ele>151.0</ele><time>2026-04-25T16:19:35Z</time></trkpt><trkpt lat="46.13084184870876" lon="12.87086744704946"><ele>151.0</ele><time>2026-04-25T16:19:36Z</time></trkpt><trkpt lat="46.130696027772366" lon="12.871037227391415"><ele>151.0</ele><time>2026-04-25T16:19:37Z</time></trkpt><trkpt lat="46.130549542819026" lon="12.87120656521295"><ele>150.33333333333334</ele><time>2026-04-25T16:19:38Z</time></trkpt><trkpt lat="46.13040300016791" lon="12.871378420643682"><ele>149.66666666666666</ele><time>2026-04-25T16:19:39Z</time></trkpt><trkpt lat="46.1302588945216" lon="12.871564030086194"><ele>149.0</ele><time>2026-04-25T16:19:40Z</time></trkpt><trkpt lat="46.13011992487916" lon="12.871762738344133"><ele>149.0</ele><time>2026-04-25T16:19:41Z</time></trkpt><trkpt lat="46.12999091199736" lon="12.871985125033886"><ele>149.0</ele><time>2026-04-25T16:19:42Z</time></trkpt><trkpt lat="46.12987911948042" lon="12.872226870218993"><ele>149.0</ele><time>2026-04-25T16:19:43Z</time></trkpt><trkpt lat="46.12977905081637" lon="12.872477684449272"><ele>148.0</ele><time>2026-04-25T16:19:44Z</time></trkpt><trkpt lat="46.12968584314939" lon="12.87273572662845"><ele>147.0</ele><time>2026-04-25T16:19:45Z</time></trkpt><trkpt lat="46.129596918152764" lon="12.87299953296041"><ele>146.0</ele><time>2026-04-25T16:19:46Z</time></trkpt><trkpt lat="46.129508744393476" lon="12.873265713579329"><ele>146.33333333333331</ele><time>2026-04-25T16:19:47Z</time></trkpt><trkpt lat="46.129423976551124" lon="12.873532870979858"><ele>146.66666666666666</ele><time>2026-04-25T16:19:48Z</time></trkpt><trkpt lat="46.12934441440287" lon="12.873796537497514"><ele>147.0</ele><time>2026-04-25T16:19:49Z</time></trkpt><trkpt lat="46.12926577264496" lon="12.874051746125158"><ele>147.0</ele><time>2026-04-25T16:19:50Z</time></trkpt><trkpt lat="46.129185516726125" lon="12.874301474375473"><ele>147.0</ele><time>2026-04-25T16:19:51Z</time></trkpt><trkpt lat="46.12910617848395" lon="12.874543724413652"><ele>147.0</ele><time>2026-04-25T16:19:52Z</time></trkpt><trkpt lat="46.12902742358308" lon="12.874782521185136"><ele>146.66666666666666</ele><time>2026-04-25T16:19:53Z</time></trkpt><trkpt lat="46.12894949782504" lon="12.875016705817224"><ele>146.33333333333331</ele><time>2026-04-25T16:19:54Z</time></trkpt><trkpt lat="46.12887135928808" lon="12.875250189294508"><ele>146.0</ele><time>2026-04-25T16:19:55Z</time></trkpt><trkpt lat="46.12879551939552" lon="12.875486046745335"><ele>146.66666666666666</ele><time>2026-04-25T16:19:56Z</time></trkpt><trkpt lat="46.128721453473915" lon="12.875721725376398"><ele>147.33333333333334</ele><time>2026-04-25T16:19:57Z</time></trkpt><trkpt lat="46.12864393856089" lon="12.875959537173287"><ele>148.0</ele><time>2026-04-25T16:19:58Z</time></trkpt><trkpt lat="46.128564033946354" lon="12.876199061341994"><ele>148.0</ele><time>2026-04-25T16:19:59Z</time></trkpt><trkpt lat="46.12848347140349" lon="12.876444053143082"><ele>148.0</ele><time>2026-04-25T16:20:00Z</time></trkpt><trkpt lat="46.12840159242385" lon="12.876694157130382"><ele>148.0</ele><time>2026-04-25T16:20:01Z</time></trkpt><trkpt lat="46.128318682673026" lon="12.876948186939797"><ele>147.0</ele><time>2026-04-25T16:20:02Z</time></trkpt><trkpt lat="46.12823231346996" lon="12.877208066568171"><ele>146.0</ele><time>2026-04-25T16:20:03Z</time></trkpt><trkpt lat="46.12814496040392" lon="12.877471898061678"><ele>145.0</ele><time>2026-04-25T16:20:04Z</time></trkpt><trkpt lat="46.12805549241265" lon="12.87773860586324"><ele>144.66666666666669</ele><time>2026-04-25T16:20:05Z</time></trkpt><trkpt lat="46.12796511125246" lon="12.878007221477406"><ele>144.33333333333334</ele><time>2026-04-25T16:20:06Z</time></trkpt><trkpt lat="46.12787572152314" lon="12.878276741322917"><ele>144.0</ele><time>2026-04-25T16:20:07Z</time></trkpt><trkpt lat="46.12778846972055" lon="12.878544410022227"><ele>143.0</ele><time>2026-04-25T16:20:08Z</time></trkpt><trkpt lat="46.12770324190683" lon="12.87880632504104"><ele>142.0</ele><time>2026-04-25T16:20:09Z</time></trkpt><trkpt lat="46.127621443973524" lon="12.879059301190457"><ele>141.0</ele><time>2026-04-25T16:20:10Z</time></trkpt><trkpt lat="46.12753953946413" lon="12.879307432944668"><ele>141.0</ele><time>2026-04-25T16:20:11Z</time></trkpt><trkpt lat="46.12745978870243" lon="12.87955019172959"><ele>141.0</ele><time>2026-04-25T16:20:12Z</time></trkpt><trkpt lat="46.127381363230306" lon="12.879792976578637"><ele>141.0</ele><time>2026-04-25T16:20:13Z</time></trkpt><trkpt lat="46.1273042341143" lon="12.88003239377324"><ele>140.33333333333334</ele><time>2026-04-25T16:20:14Z</time></trkpt><trkpt lat="46.12722681230672" lon="12.880270945368265"><ele>139.66666666666669</ele><time>2026-04-25T16:20:15Z</time></trkpt><trkpt lat="46.12714834570094" lon="12.880508380408292"><ele>139.0</ele><time>2026-04-25T16:20:16Z</time></trkpt><trkpt lat="46.127070534454624" lon="12.880743448021924"><ele>139.0</ele><time>2026-04-25T16:20:17Z</time></trkpt><trkpt lat="46.12699532378083" lon="12.880976627845829"><ele>139.0</ele><time>2026-04-25T16:20:18Z</time></trkpt><trkpt lat="46.12692044316382" lon="12.881210007258657"><ele>139.0</ele><time>2026-04-25T16:20:19Z</time></trkpt><trkpt lat="46.12684409251187" lon="12.88144435754928"><ele>139.0</ele><time>2026-04-25T16:20:20Z</time></trkpt><trkpt lat="46.12676714014509" lon="12.881680251080102"><ele>139.0</ele><time>2026-04-25T16:20:21Z</time></trkpt><trkpt lat="46.12669029509017" lon="12.881916734336352"><ele>139.0</ele><time>2026-04-25T16:20:22Z</time></trkpt><trkpt lat="46.126610870335135" lon="12.882154235994332"><ele>139.0</ele><time>2026-04-25T16:20:23Z</time></trkpt><trkpt lat="46.12653123792933" lon="12.88239214467329"><ele>139.0</ele><time>2026-04-25T16:20:24Z</time></trkpt><trkpt lat="46.12645199687699" lon="12.882631023182322"><ele>139.0</ele><time>2026-04-25T16:20:24.999Z</time></trkpt><trkpt lat="46.12637293806499" lon="12.882869812577649"><ele>139.0</ele><time>2026-04-25T16:20:25.999Z</time></trkpt><trkpt lat="46.12629514736617" lon="12.883108326450028"><ele>139.0</ele><time>2026-04-25T16:20:26.999Z</time></trkpt><trkpt lat="46.12621498164349" lon="12.883348686660252"><ele>139.0</ele><time>2026-04-25T16:20:27.999Z</time></trkpt><trkpt lat="46.12613511908209" lon="12.883592957530315"><ele>139.0</ele><time>2026-04-25T16:20:28.999Z</time></trkpt><trkpt lat="46.126053381869696" lon="12.883840902072679"><ele>139.0</ele><time>2026-04-25T16:20:29.999Z</time></trkpt><trkpt lat="46.12597171304678" lon="12.884094238574134"><ele>139.0</ele><time>2026-04-25T16:20:30.999Z</time></trkpt><trkpt lat="46.12588914363226" lon="12.884350103948393"><ele>138.66666666666669</ele><time>2026-04-25T16:20:31.999Z</time></trkpt><trkpt lat="46.12580597274414" lon="12.884602193545346"><ele>138.33333333333334</ele><time>2026-04-25T16:20:32.999Z</time></trkpt><trkpt lat="46.12572269544718" lon="12.884854940489458"><ele>138.0</ele><time>2026-04-25T16:20:33.999Z</time></trkpt><trkpt lat="46.125638768398815" lon="12.885108546731145"><ele>137.0</ele><time>2026-04-25T16:20:34.999Z</time></trkpt><trkpt lat="46.12555575237575" lon="12.88536410976691"><ele>136.0</ele><time>2026-04-25T16:20:35.999Z</time></trkpt><trkpt lat="46.12547313354086" lon="12.885620603041476"><ele>135.0</ele><time>2026-04-25T16:20:36.999Z</time></trkpt><trkpt lat="46.12538919579587" lon="12.885876221731285"><ele>135.0</ele><time>2026-04-25T16:20:37.999Z</time></trkpt><trkpt lat="46.125306260783226" lon="12.886129663157067"><ele>135.0</ele><time>2026-04-25T16:20:38.999Z</time></trkpt><trkpt lat="46.125222839274045" lon="12.886376646253806"><ele>135.0</ele><time>2026-04-25T16:20:39.999Z</time></trkpt><trkpt lat="46.12514213899095" lon="12.886617286506912"><ele>134.66666666666666</ele><time>2026-04-25T16:20:40.999Z</time></trkpt><trkpt lat="46.12506440957506" lon="12.886849064501737"><ele>134.33333333333331</ele><time>2026-04-25T16:20:41.999Z</time></trkpt><trkpt lat="46.12499142102508" lon="12.88707277067586"><ele>134.0</ele><time>2026-04-25T16:20:42.999Z</time></trkpt><trkpt lat="46.124921589785636" lon="12.887292519484026"><ele>134.0</ele><time>2026-04-25T16:20:43.999Z</time></trkpt><trkpt lat="46.12485194395039" lon="12.887509268909085"><ele>134.0</ele><time>2026-04-25T16:20:44.999Z</time></trkpt><trkpt lat="46.12478355034407" lon="12.887723086533956"><ele>134.0</ele><time>2026-04-25T16:20:45.999Z</time></trkpt><trkpt lat="46.12471504774983" lon="12.887935250100146"><ele>134.0</ele><time>2026-04-25T16:20:46.999Z</time></trkpt><trkpt lat="46.124646229932225" lon="12.88815041454876"><ele>134.0</ele><time>2026-04-25T16:20:47.999Z</time></trkpt><trkpt lat="46.12457916569861" lon="12.88836525920955"><ele>134.0</ele><time>2026-04-25T16:20:48.999Z</time></trkpt><trkpt lat="46.12450835422236" lon="12.888580676326947"><ele>134.33333333333331</ele><time>2026-04-25T16:20:49.999Z</time></trkpt><trkpt lat="46.12443137609029" lon="12.888794656172568"><ele>134.66666666666666</ele><time>2026-04-25T16:20:50.999Z</time></trkpt><trkpt lat="46.12435728392261" lon="12.88901787657909"><ele>135.0</ele><time>2026-04-25T16:20:51.999Z</time></trkpt><trkpt lat="46.12428438168777" lon="12.889243555881352"><ele>135.0</ele><time>2026-04-25T16:20:52.999Z</time></trkpt><trkpt lat="46.12421370747245" lon="12.889462629972694"><ele>135.0</ele><time>2026-04-25T16:20:53.999Z</time></trkpt><trkpt lat="46.12414337012413" lon="12.88967535360135"><ele>135.0</ele><time>2026-04-25T16:20:54.999Z</time></trkpt><trkpt lat="46.12407634064651" lon="12.889883179514833"><ele>134.66666666666666</ele><time>2026-04-25T16:20:55.999Z</time></trkpt><trkpt lat="46.12401026479919" lon="12.890084624448006"><ele>134.33333333333331</ele><time>2026-04-25T16:20:56.999Z</time></trkpt><trkpt lat="46.12394686556387" lon="12.890285197653217"><ele>134.0</ele><time>2026-04-25T16:20:57.999Z</time></trkpt><trkpt lat="46.12388287422761" lon="12.890477641417819"><ele>134.0</ele><time>2026-04-25T16:20:58.999Z</time></trkpt><trkpt lat="46.123827881501875" lon="12.890658524460415"><ele>134.0</ele><time>2026-04-25T16:20:59.999Z</time></trkpt><trkpt lat="46.12377004270419" lon="12.890833087489886"><ele>134.0</ele><time>2026-04-25T16:21:00.999Z</time></trkpt><trkpt lat="46.12370800824595" lon="12.89099457342666"><ele>134.0</ele><time>2026-04-25T16:21:01.999Z</time></trkpt><trkpt lat="46.123635802109675" lon="12.891154491062979"><ele>134.0</ele><time>2026-04-25T16:21:02.999Z</time></trkpt><trkpt lat="46.12355362720213" lon="12.891303471996812"><ele>134.0</ele><time>2026-04-25T16:21:03.999Z</time></trkpt><trkpt lat="46.1234623543418" lon="12.89145166647779"><ele>134.0</ele><time>2026-04-25T16:21:04.999Z</time></trkpt><trkpt lat="46.12335925300763" lon="12.891607461797667"><ele>134.0</ele><time>2026-04-25T16:21:05.999Z</time></trkpt><trkpt lat="46.12324342765282" lon="12.891754787781924"><ele>134.33333333333331</ele><time>2026-04-25T16:21:06.999Z</time></trkpt><trkpt lat="46.123116732417785" lon="12.891884778725185"><ele>134.66666666666666</ele><time>2026-04-25T16:21:07.999Z</time></trkpt><trkpt lat="46.122984289043096" lon="12.89200149719237"><ele>135.0</ele><time>2026-04-25T16:21:08.999Z</time></trkpt><trkpt lat="46.12284899069842" lon="12.892103836830406"><ele>135.0</ele><time>2026-04-25T16:21:09.999Z</time></trkpt><trkpt lat="46.122712636272" lon="12.892181459525526"><ele>135.0</ele><time>2026-04-25T16:21:10.999Z</time></trkpt><trkpt lat="46.12257757578003" lon="12.892240266674964"><ele>135.0</ele><time>2026-04-25T16:21:11.999Z</time></trkpt><trkpt lat="46.12244143417688" lon="12.892279780205707"><ele>135.0</ele><time>2026-04-25T16:21:12.999Z</time></trkpt><trkpt lat="46.12230022233317" lon="12.892300470258808"><ele>134.75</ele><time>2026-04-25T16:21:13.999Z</time></trkpt><trkpt lat="46.122159406217136" lon="12.892311003994504"><ele>134.5</ele><time>2026-04-25T16:21:14.999Z</time></trkpt><trkpt lat="46.12202529573386" lon="12.892308722360983"><ele>134.25</ele><time>2026-04-25T16:21:15.999Z</time></trkpt><trkpt lat="46.12189436432775" lon="12.89228675259741"><ele>134.0</ele><time>2026-04-25T16:21:16.999Z</time></trkpt><trkpt lat="46.12176510433789" lon="12.892249358016185"><ele>134.0</ele><time>2026-04-25T16:21:17.999Z</time></trkpt><trkpt lat="46.12163754589241" lon="12.89220895305076"><ele>134.0</ele><time>2026-04-25T16:21:18.999Z</time></trkpt><trkpt lat="46.12151566433068" lon="12.892160324686179"><ele>134.0</ele><time>2026-04-25T16:21:19.999Z</time></trkpt><trkpt lat="46.121393065370754" lon="12.892102770307417"><ele>134.0</ele><time>2026-04-25T16:21:20.999Z</time></trkpt><trkpt lat="46.12126484324725" lon="12.892044077634917"><ele>134.25</ele><time>2026-04-25T16:21:21.999Z</time></trkpt><trkpt lat="46.121125335751486" lon="12.891990009143132"><ele>134.5</ele><time>2026-04-25T16:21:22.999Z</time></trkpt><trkpt lat="46.120980242120744" lon="12.891927168564534"><ele>134.75</ele><time>2026-04-25T16:21:23.999Z</time></trkpt><trkpt lat="46.12083357735548" lon="12.891864809085565"><ele>135.0</ele><time>2026-04-25T16:21:24.999Z</time></trkpt><trkpt lat="46.12068507672524" lon="12.89180598783876"><ele>135.25</ele><time>2026-04-25T16:21:25.999Z</time></trkpt><trkpt lat="46.12053571925641" lon="12.891748465238269"><ele>135.5</ele><time>2026-04-25T16:21:26.999Z</time></trkpt><trkpt lat="46.120392742945405" lon="12.891691932493144"><ele>135.75</ele><time>2026-04-25T16:21:27.999Z</time></trkpt><trkpt lat="46.12025588913529" lon="12.891638248762407"><ele>136.0</ele><time>2026-04-25T16:21:28.999Z</time></trkpt><trkpt lat="46.12012167595692" lon="12.891587765475357"><ele>136.0</ele><time>2026-04-25T16:21:30Z</time></trkpt><trkpt lat="46.119988152865396" lon="12.891535891898787"><ele>136.0</ele><time>2026-04-25T16:21:31Z</time></trkpt><trkpt lat="46.11984931363315" lon="12.89147589507737"><ele>136.0</ele><time>2026-04-25T16:21:32Z</time></trkpt><trkpt lat="46.11970303270768" lon="12.891420198546328"><ele>136.0</ele><time>2026-04-25T16:21:33Z</time></trkpt><trkpt lat="46.1195466461499" lon="12.891362320261338"><ele>135.33333333333334</ele><time>2026-04-25T16:21:34Z</time></trkpt><trkpt lat="46.119387766561466" lon="12.891300712728164"><ele>134.66666666666666</ele><time>2026-04-25T16:21:35Z</time></trkpt><trkpt lat="46.11923077691578" lon="12.891240104854544"><ele>134.0</ele><time>2026-04-25T16:21:36Z</time></trkpt><trkpt lat="46.11907450416089" lon="12.891181221813648"><ele>134.0</ele><time>2026-04-25T16:21:37Z</time></trkpt><trkpt lat="46.11891918626341" lon="12.891122590286141"><ele>134.0</ele><time>2026-04-25T16:21:38Z</time></trkpt><trkpt lat="46.11876576576639" lon="12.89105882157884"><ele>134.0</ele><time>2026-04-25T16:21:39Z</time></trkpt><trkpt lat="46.11861325495741" lon="12.890995947462441"><ele>134.0</ele><time>2026-04-25T16:21:40Z</time></trkpt><trkpt lat="46.11845942571226" lon="12.89093637828418"><ele>134.0</ele><time>2026-04-25T16:21:41Z</time></trkpt><trkpt lat="46.118304454943726" lon="12.890881569522639"><ele>134.0</ele><time>2026-04-25T16:21:42Z</time></trkpt><trkpt lat="46.11815261184532" lon="12.890820835383481"><ele>133.33333333333331</ele><time>2026-04-25T16:21:43Z</time></trkpt><trkpt lat="46.118000678224426" lon="12.890757062759047"><ele>132.66666666666666</ele><time>2026-04-25T16:21:44Z</time></trkpt><trkpt lat="46.117846265297075" lon="12.890694258700693"><ele>132.0</ele><time>2026-04-25T16:21:45Z</time></trkpt><trkpt lat="46.11768953477246" lon="12.890632193343396"><ele>132.0</ele><time>2026-04-25T16:21:46Z</time></trkpt><trkpt lat="46.11753210533516" lon="12.890567227949836"><ele>132.0</ele><time>2026-04-25T16:21:47Z</time></trkpt><trkpt lat="46.11737459560193" lon="12.890502505123017"><ele>132.0</ele><time>2026-04-25T16:21:48Z</time></trkpt><trkpt lat="46.117216556574434" lon="12.890439243465137"><ele>131.33333333333334</ele><time>2026-04-25T16:21:49Z</time></trkpt><trkpt lat="46.11705767769353" lon="12.890378896670232"><ele>130.66666666666669</ele><time>2026-04-25T16:21:50Z</time></trkpt><trkpt lat="46.11690181776099" lon="12.890319677806737"><ele>130.0</ele><time>2026-04-25T16:21:51Z</time></trkpt><trkpt lat="46.116751401995906" lon="12.890258143802944"><ele>130.0</ele><time>2026-04-25T16:21:52Z</time></trkpt><trkpt lat="46.116603629379" lon="12.890198379419203"><ele>130.0</ele><time>2026-04-25T16:21:53Z</time></trkpt><trkpt lat="46.11645847840174" lon="12.89014059217073"><ele>130.0</ele><time>2026-04-25T16:21:54Z</time></trkpt><trkpt lat="46.11631449590261" lon="12.890083706349504"><ele>130.5</ele><time>2026-04-25T16:21:55Z</time></trkpt><trkpt lat="46.11617367055605" lon="12.890026270420472"><ele>131.0</ele><time>2026-04-25T16:21:56Z</time></trkpt><trkpt lat="46.11603275405556" lon="12.889967961311994"><ele>131.5</ele><time>2026-04-25T16:21:57Z</time></trkpt><trkpt lat="46.11589387157785" lon="12.889912038376298"><ele>132.0</ele><time>2026-04-25T16:21:58Z</time></trkpt><trkpt lat="46.11575514568375" lon="12.889860675490166"><ele>131.75</ele><time>2026-04-25T16:21:59Z</time></trkpt><trkpt lat="46.11561625885083" lon="12.88980572961441"><ele>131.5</ele><time>2026-04-25T16:22:00Z</time></trkpt><trkpt lat="46.11547701420634" lon="12.889748619236919"><ele>131.25</ele><time>2026-04-25T16:22:01Z</time></trkpt><trkpt lat="46.11533200825721" lon="12.889688883222453"><ele>131.0</ele><time>2026-04-25T16:22:02Z</time></trkpt><trkpt lat="46.11517758663963" lon="12.88962156966035"><ele>131.0</ele><time>2026-04-25T16:22:03Z</time></trkpt><trkpt lat="46.11501331419877" lon="12.889560699556933"><ele>131.0</ele><time>2026-04-25T16:22:04Z</time></trkpt><trkpt lat="46.1148417428077" lon="12.889496442937483"><ele>131.0</ele><time>2026-04-25T16:22:05Z</time></trkpt><trkpt lat="46.11466965967755" lon="12.88942805158309"><ele>131.33333333333331</ele><time>2026-04-25T16:22:06Z</time></trkpt><trkpt lat="46.114505923641154" lon="12.889362043635991"><ele>131.66666666666666</ele><time>2026-04-25T16:22:07Z</time></trkpt><trkpt lat="46.11434906560385" lon="12.889300175239697"><ele>132.0</ele><time>2026-04-25T16:22:08Z</time></trkpt><trkpt lat="46.11419627990207" lon="12.889244760691387"><ele>131.5</ele><time>2026-04-25T16:22:09Z</time></trkpt><trkpt lat="46.11404938546105" lon="12.889196039362758"><ele>131.0</ele><time>2026-04-25T16:22:10Z</time></trkpt><trkpt lat="46.11390505396517" lon="12.889151449419403"><ele>130.5</ele><time>2026-04-25T16:22:11Z</time></trkpt><trkpt lat="46.11376147607683" lon="12.88911200437077"><ele>130.0</ele><time>2026-04-25T16:22:12Z</time></trkpt><trkpt lat="46.1136200545385" lon="12.889075093362106"><ele>130.0</ele><time>2026-04-25T16:22:13Z</time></trkpt><trkpt lat="46.11348116125347" lon="12.889041832179927"><ele>130.0</ele><time>2026-04-25T16:22:14Z</time></trkpt><trkpt lat="46.1133421456133" lon="12.88901622304153"><ele>130.0</ele><time>2026-04-25T16:22:15Z</time></trkpt><trkpt lat="46.11320475496165" lon="12.888983310876748"><ele>130.0</ele><time>2026-04-25T16:22:16Z</time></trkpt><trkpt lat="46.1130660251528" lon="12.888958686321354"><ele>129.75</ele><time>2026-04-25T16:22:17Z</time></trkpt><trkpt lat="46.1129258409364" lon="12.888940613662133"><ele>129.5</ele><time>2026-04-25T16:22:18Z</time></trkpt><trkpt lat="46.11278166959089" lon="12.88892591024054"><ele>129.25</ele><time>2026-04-25T16:22:19Z</time></trkpt><trkpt lat="46.11263803926898" lon="12.888918487414676"><ele>129.0</ele><time>2026-04-25T16:22:20Z</time></trkpt><trkpt lat="46.112494063033026" lon="12.888909920252681"><ele>128.75</ele><time>2026-04-25T16:22:21Z</time></trkpt><trkpt lat="46.112353032853214" lon="12.888905565245455"><ele>128.5</ele><time>2026-04-25T16:22:22Z</time></trkpt><trkpt lat="46.1122150187381" lon="12.888899605321015"><ele>128.25</ele><time>2026-04-25T16:22:23Z</time></trkpt><trkpt lat="46.11208426608819" lon="12.888892872170564"><ele>128.0</ele><time>2026-04-25T16:22:24Z</time></trkpt><trkpt lat="46.11196258669974" lon="12.888887547294837"><ele>128.0</ele><time>2026-04-25T16:22:25Z</time></trkpt><trkpt lat="46.11184794110464" lon="12.888880151888262"><ele>128.0</ele><time>2026-04-25T16:22:26Z</time></trkpt><trkpt lat="46.11173644857649" lon="12.888874688149967"><ele>128.0</ele><time>2026-04-25T16:22:27Z</time></trkpt><trkpt lat="46.11160583139153" lon="12.888868230659726"><ele>128.0</ele><time>2026-04-25T16:22:28Z</time></trkpt><trkpt lat="46.111467270962976" lon="12.888858442949235"><ele>127.5</ele><time>2026-04-25T16:22:29Z</time></trkpt><trkpt lat="46.11133222827716" lon="12.888847458631385"><ele>127.0</ele><time>2026-04-25T16:22:30Z</time></trkpt><trkpt lat="46.11120137743489" lon="12.888842436814578"><ele>126.5</ele><time>2026-04-25T16:22:30.999Z</time></trkpt><trkpt lat="46.111064494349485" lon="12.888839614928875"><ele>126.0</ele><time>2026-04-25T16:22:31.999Z</time></trkpt><trkpt lat="46.11092967087543" lon="12.888837018143388"><ele>126.0</ele><time>2026-04-25T16:22:32.999Z</time></trkpt><trkpt lat="46.11080383717807" lon="12.88883368952319"><ele>126.0</ele><time>2026-04-25T16:22:33.999Z</time></trkpt><trkpt lat="46.11067942891379" lon="12.88882846807588"><ele>126.0</ele><time>2026-04-25T16:22:34.999Z</time></trkpt><trkpt lat="46.110555589581125" lon="12.88882531533654"><ele>126.0</ele><time>2026-04-25T16:22:35.999Z</time></trkpt><trkpt lat="46.110429559964274" lon="12.888818670331672"><ele>126.5</ele><time>2026-04-25T16:22:36.999Z</time></trkpt><trkpt lat="46.110301544186754" lon="12.888815248800038"><ele>127.0</ele><time>2026-04-25T16:22:37.999Z</time></trkpt><trkpt lat="46.11017621188516" lon="12.888813048480749"><ele>127.5</ele><time>2026-04-25T16:22:38.999Z</time></trkpt><trkpt lat="46.11005838061321" lon="12.888808542377333"><ele>128.0</ele><time>2026-04-25T16:22:39.999Z</time></trkpt><trkpt lat="46.109950310666086" lon="12.888801876595394"><ele>128.25</ele><time>2026-04-25T16:22:40.999Z</time></trkpt><trkpt lat="46.10983668933505" lon="12.888797932083763"><ele>128.5</ele><time>2026-04-25T16:22:41.999Z</time></trkpt><trkpt lat="46.10972147642794" lon="12.888799235796473"><ele>128.75</ele><time>2026-04-25T16:22:42.999Z</time></trkpt><trkpt lat="46.109603578170415" lon="12.888796083457018"><ele>129.0</ele><time>2026-04-25T16:22:43.999Z</time></trkpt><trkpt lat="46.10948327743611" lon="12.888791746489611"><ele>129.0</ele><time>2026-04-25T16:22:44.999Z</time></trkpt><trkpt lat="46.109363515603526" lon="12.888787444093362"><ele>129.0</ele><time>2026-04-25T16:22:45.999Z</time></trkpt><trkpt lat="46.10924553547006" lon="12.888785429342056"><ele>129.0</ele><time>2026-04-25T16:22:46.999Z</time></trkpt><trkpt lat="46.109125735944204" lon="12.888783008614535"><ele>129.0</ele><time>2026-04-25T16:22:47.999Z</time></trkpt><trkpt lat="46.109002004098684" lon="12.888779326803292"><ele>128.25</ele><time>2026-04-25T16:22:48.999Z</time></trkpt><trkpt lat="46.10887580296954" lon="12.888775661119988"><ele>127.5</ele><time>2026-04-25T16:22:49.999Z</time></trkpt><trkpt lat="46.108747200793765" lon="12.888774330544885"><ele>126.75</ele><time>2026-04-25T16:22:50.999Z</time></trkpt><trkpt lat="46.10861355940275" lon="12.88877973424719"><ele>126.0</ele><time>2026-04-25T16:22:51.999Z</time></trkpt><trkpt lat="46.10847903226559" lon="12.888795130764633"><ele>126.0</ele><time>2026-04-25T16:22:52.999Z</time></trkpt><trkpt lat="46.10834909379138" lon="12.888817743348508"><ele>126.0</ele><time>2026-04-25T16:22:53.999Z</time></trkpt><trkpt lat="46.10822375055859" lon="12.88884793588995"><ele>126.0</ele><time>2026-04-25T16:22:54.999Z</time></trkpt><trkpt lat="46.10810076123032" lon="12.888887145949909"><ele>126.0</ele><time>2026-04-25T16:22:55.999Z</time></trkpt><trkpt lat="46.107980789934224" lon="12.888930083108168"><ele>125.5</ele><time>2026-04-25T16:22:56.999Z</time></trkpt><trkpt lat="46.10786272095129" lon="12.888982220080143"><ele>125.0</ele><time>2026-04-25T16:22:57.999Z</time></trkpt><trkpt lat="46.10774537619291" lon="12.889044793828772"><ele>124.5</ele><time>2026-04-25T16:22:58.999Z</time></trkpt><trkpt lat="46.107628341419776" lon="12.8891156553239"><ele>124.0</ele><time>2026-04-25T16:22:59.999Z</time></trkpt><trkpt lat="46.10751007158276" lon="12.889198012641064"><ele>123.75</ele><time>2026-04-25T16:23:00.999Z</time></trkpt><trkpt lat="46.107391663558246" lon="12.889292164777611"><ele>123.5</ele><time>2026-04-25T16:23:01.999Z</time></trkpt><trkpt lat="46.107273685417866" lon="12.889397706975531"><ele>123.25</ele><time>2026-04-25T16:23:02.999Z</time></trkpt><trkpt lat="46.10715892438398" lon="12.88951547162311"><ele>123.0</ele><time>2026-04-25T16:23:03.999Z</time></trkpt><trkpt lat="46.10704477821963" lon="12.889639750158263"><ele>123.0</ele><time>2026-04-25T16:23:04.999Z</time></trkpt><trkpt lat="46.10693416514772" lon="12.889776792134853"><ele>123.0</ele><time>2026-04-25T16:23:05.999Z</time></trkpt><trkpt lat="46.10682897765175" lon="12.889922225623446"><ele>123.0</ele><time>2026-04-25T16:23:06.999Z</time></trkpt><trkpt lat="46.106726402494466" lon="12.89007461608191"><ele>123.0</ele><time>2026-04-25T16:23:07.999Z</time></trkpt><trkpt lat="46.10663538300896" lon="12.890228606984946"><ele>123.0</ele><time>2026-04-25T16:23:08.999Z</time></trkpt><trkpt lat="46.10655483675787" lon="12.890391323250212"><ele>123.0</ele><time>2026-04-25T16:23:09.999Z</time></trkpt><trkpt lat="46.1064805452602" lon="12.890554772443943"><ele>123.0</ele><time>2026-04-25T16:23:10.999Z</time></trkpt><trkpt lat="46.10641405463439" lon="12.890717000389245"><ele>123.0</ele><time>2026-04-25T16:23:11.999Z</time></trkpt><trkpt lat="46.106351241408554" lon="12.890873707385596"><ele>123.0</ele><time>2026-04-25T16:23:12.999Z</time></trkpt><trkpt lat="46.10629442968721" lon="12.891031005207621"><ele>123.0</ele><time>2026-04-25T16:23:13.999Z</time></trkpt><trkpt lat="46.10623964125784" lon="12.891188595316365"><ele>123.0</ele><time>2026-04-25T16:23:14.999Z</time></trkpt><trkpt lat="46.10618645997275" lon="12.89134584794828"><ele>123.0</ele><time>2026-04-25T16:23:15.999Z</time></trkpt><trkpt lat="46.106134238287915" lon="12.891503910520354"><ele>123.0</ele><time>2026-04-25T16:23:16.999Z</time></trkpt><trkpt lat="46.10608038829166" lon="12.891662669493801"><ele>123.0</ele><time>2026-04-25T16:23:17.999Z</time></trkpt><trkpt lat="46.10602762535575" lon="12.891820973925986"><ele>123.0</ele><time>2026-04-25T16:23:18.999Z</time></trkpt><trkpt lat="46.10597474705073" lon="12.891976611884306"><ele>123.0</ele><time>2026-04-25T16:23:19.999Z</time></trkpt><trkpt lat="46.10592371080964" lon="12.89212783651346"><ele>123.0</ele><time>2026-04-25T16:23:20.999Z</time></trkpt><trkpt lat="46.10587155801792" lon="12.892275268774478"><ele>123.00000000000001</ele><time>2026-04-25T16:23:21.999Z</time></trkpt><trkpt lat="46.10581537256372" lon="12.892419673545955"><ele>123.00000000000001</ele><time>2026-04-25T16:23:22.999Z</time></trkpt><trkpt lat="46.105758916572995" lon="12.892555467151873"><ele>123.0</ele><time>2026-04-25T16:23:23.999Z</time></trkpt><trkpt lat="46.10570819790585" lon="12.892679661601502"><ele>123.0</ele><time>2026-04-25T16:23:24.999Z</time></trkpt><trkpt lat="46.105656817137074" lon="12.89279578336582"><ele>123.0</ele><time>2026-04-25T16:23:25.999Z</time></trkpt><trkpt lat="46.1056029582414" lon="12.892900974356573"><ele>123.00000000000001</ele><time>2026-04-25T16:23:26.999Z</time></trkpt><trkpt lat="46.105511809702634" lon="12.893002049413191"><ele>123.00000000000001</ele><time>2026-04-25T16:23:27.999Z</time></trkpt><trkpt lat="46.105438181867854" lon="12.893034147654557"><ele>123.0</ele><time>2026-04-25T16:23:28.999Z</time></trkpt><trkpt lat="46.10535498810197" lon="12.893112592891255"><ele>123.0</ele><time>2026-04-25T16:23:29.999Z</time></trkpt><trkpt lat="46.105302322006835" lon="12.893237109468437"><ele>123.0</ele><time>2026-04-25T16:23:30.999Z</time></trkpt><trkpt lat="46.105298029329695" lon="12.893378298494408"><ele>123.00000000000001</ele><time>2026-04-25T16:23:31.999Z</time></trkpt><trkpt lat="46.10531975137683" lon="12.89354031552557"><ele>123.00000000000001</ele><time>2026-04-25T16:23:32.999Z</time></trkpt><trkpt lat="46.10531839797998" lon="12.89371702554387"><ele>123.0</ele><time>2026-04-25T16:23:33.999Z</time></trkpt><trkpt lat="46.10528938165213" lon="12.89387608317798"><ele>123.0</ele><time>2026-04-25T16:23:34.999Z</time></trkpt><trkpt lat="46.105251246573914" lon="12.89403520333462"><ele>123.0</ele><time>2026-04-25T16:23:36Z</time></trkpt><trkpt lat="46.10521986899053" lon="12.894165532028794"><ele>123.0</ele><time>2026-04-25T16:23:37Z</time></trkpt><trkpt lat="46.10518586193161" lon="12.8942753486247"><ele>123.0</ele><time>2026-04-25T16:23:38Z</time></trkpt><trkpt lat="46.10515302687625" lon="12.894384891689423"><ele>123.0</ele><time>2026-04-25T16:23:39Z</time></trkpt><trkpt lat="46.10512071021147" lon="12.894495829662446"><ele>123.0</ele><time>2026-04-25T16:23:40Z</time></trkpt><trkpt lat="46.10508500428124" lon="12.894604193781149"><ele>123.0</ele><time>2026-04-25T16:23:41Z</time></trkpt><trkpt lat="46.105047221123414" lon="12.894716931131336"><ele>123.16666666666667</ele><time>2026-04-25T16:23:42Z</time></trkpt><trkpt lat="46.105010917709194" lon="12.894822092216756"><ele>123.33333333333334</ele><time>2026-04-25T16:23:43Z</time></trkpt><trkpt lat="46.10497775702511" lon="12.894922868537247"><ele>123.5</ele><time>2026-04-25T16:23:44Z</time></trkpt><trkpt lat="46.104946899832676" lon="12.895014686762194"><ele>123.66666666666667</ele><time>2026-04-25T16:23:45Z</time></trkpt><trkpt lat="46.10489713287771" lon="12.89513231712184"><ele>123.83333333333334</ele><time>2026-04-25T16:23:47Z</time></trkpt><trkpt lat="46.104843518312045" lon="12.895216301236433"><ele>124.0</ele><time>2026-04-25T16:23:50Z</time></trkpt><trkpt lat="46.10484836923617" lon="12.895310717294967"><ele>124.0</ele><time>2026-04-25T16:25:39.999Z</time></trkpt><trkpt lat="46.104838840924806" lon="12.895415041467258"><ele>124.0</ele><time>2026-04-25T16:25:42Z</time></trkpt><trkpt lat="46.10480093130667" lon="12.895517167422092"><ele>124.0</ele><time>2026-04-25T16:25:43Z</time></trkpt><trkpt lat="46.10475179692664" lon="12.895646277023125"><ele>124.0</ele><time>2026-04-25T16:25:44Z</time></trkpt><trkpt lat="46.10470361333239" lon="12.895802223671911"><ele>124.0</ele><time>2026-04-25T16:25:45Z</time></trkpt><trkpt lat="46.10465326200662" lon="12.895956704853761"><ele>124.0</ele><time>2026-04-25T16:25:46Z</time></trkpt><trkpt lat="46.10459843922839" lon="12.896108923654223"><ele>124.0</ele><time>2026-04-25T16:25:47Z</time></trkpt><trkpt lat="46.104545398740605" lon="12.896262735111991"><ele>124.0</ele><time>2026-04-25T16:25:48Z</time></trkpt><trkpt lat="46.10449305829463" lon="12.896415810173352"><ele>124.0</ele><time>2026-04-25T16:25:49Z</time></trkpt><trkpt lat="46.10443858963024" lon="12.896572497093482"><ele>124.0</ele><time>2026-04-25T16:25:50Z</time></trkpt><trkpt lat="46.10438270476497" lon="12.896732730442096"><ele>124.0</ele><time>2026-04-25T16:25:51Z</time></trkpt><trkpt lat="46.104328743543256" lon="12.89689946337357"><ele>124.0</ele><time>2026-04-25T16:25:52Z</time></trkpt><trkpt lat="46.104277337357026" lon="12.897072767051306"><ele>124.0</ele><time>2026-04-25T16:25:53Z</time></trkpt><trkpt lat="46.10423134357935" lon="12.89724815001504"><ele>124.0</ele><time>2026-04-25T16:25:54Z</time></trkpt><trkpt lat="46.1041902958328" lon="12.897420515032302"><ele>124.0</ele><time>2026-04-25T16:25:55Z</time></trkpt><trkpt lat="46.104152409721785" lon="12.897594790290105"><ele>124.0</ele><time>2026-04-25T16:25:56Z</time></trkpt><trkpt lat="46.104119011323625" lon="12.89777408345887"><ele>124.0</ele><time>2026-04-25T16:25:57Z</time></trkpt><trkpt lat="46.104090857504886" lon="12.897958739231905"><ele>124.0</ele><time>2026-04-25T16:25:58Z</time></trkpt><trkpt lat="46.104065366253266" lon="12.898135578421732"><ele>124.0</ele><time>2026-04-25T16:25:59Z</time></trkpt><trkpt lat="46.10404012461652" lon="12.898316068034946"><ele>124.0</ele><time>2026-04-25T16:26:00Z</time></trkpt><trkpt lat="46.10402345053913" lon="12.89849192964097"><ele>124.0</ele><time>2026-04-25T16:26:01Z</time></trkpt><trkpt lat="46.10401186301842" lon="12.898667355834512"><ele>124.0</ele><time>2026-04-25T16:26:02Z</time></trkpt><trkpt lat="46.10400403635923" lon="12.89882398107218"><ele>124.0</ele><time>2026-04-25T16:26:03Z</time></trkpt><trkpt lat="46.10399634829745" lon="12.898978092774305"><ele>124.0</ele><time>2026-04-25T16:26:04Z</time></trkpt><trkpt lat="46.10398688715998" lon="12.899125881082877"><ele>124.0</ele><time>2026-04-25T16:26:05Z</time></trkpt><trkpt lat="46.103972988658356" lon="12.899263422239708"><ele>124.0</ele><time>2026-04-25T16:26:06Z</time></trkpt><trkpt lat="46.10396402400478" lon="12.899392500307028"><ele>124.00000000000001</ele><time>2026-04-25T16:26:07Z</time></trkpt><trkpt lat="46.10395747298045" lon="12.899523867679394"><ele>124.0</ele><time>2026-04-25T16:26:08Z</time></trkpt><trkpt lat="46.10394886433887" lon="12.89965465810341"><ele>124.0</ele><time>2026-04-25T16:26:09Z</time></trkpt><trkpt lat="46.10394489873557" lon="12.899764206986458"><ele>124.0</ele><time>2026-04-25T16:26:10Z</time></trkpt><trkpt lat="46.1039385618305" lon="12.899854914641296"><ele>124.00000000000001</ele><time>2026-04-25T16:26:11Z</time></trkpt><trkpt lat="46.103925024331126" lon="12.900021193772538"><ele>124.0</ele><time>2026-04-25T16:26:13Z</time></trkpt><trkpt lat="46.10391478625508" lon="12.900132147519718"><ele>124.0</ele><time>2026-04-25T16:26:15Z</time></trkpt><trkpt lat="46.10390511565109" lon="12.900291127108451"><ele>124.0</ele><time>2026-04-25T16:27:00.999Z</time></trkpt><trkpt lat="46.10390476626845" lon="12.900417395347148"><ele>124.0</ele><time>2026-04-25T16:27:01.999Z</time></trkpt><trkpt lat="46.1038998819072" lon="12.900552793562234"><ele>124.0</ele><time>2026-04-25T16:27:02.999Z</time></trkpt><trkpt lat="46.10389381584856" lon="12.90067028428246"><ele>124.0</ele><time>2026-04-25T16:27:03.999Z</time></trkpt><trkpt lat="46.10389169238482" lon="12.900808246656348"><ele>124.2</ele><time>2026-04-25T16:27:04.999Z</time></trkpt><trkpt lat="46.10389115027899" lon="12.900960250223957"><ele>124.4</ele><time>2026-04-25T16:27:05.999Z</time></trkpt><trkpt lat="46.10389067715744" lon="12.901100618917816"><ele>124.6</ele><time>2026-04-25T16:27:06.999Z</time></trkpt><trkpt lat="46.10388888179071" lon="12.901243318895306"><ele>124.8</ele><time>2026-04-25T16:27:07.999Z</time></trkpt><trkpt lat="46.10388819830149" lon="12.90139920401163"><ele>125.0</ele><time>2026-04-25T16:27:08.999Z</time></trkpt><trkpt lat="46.103883385025746" lon="12.90157081028964"><ele>124.75</ele><time>2026-04-25T16:27:09.999Z</time></trkpt><trkpt lat="46.103873897900705" lon="12.901754488681734"><ele>124.5</ele><time>2026-04-25T16:27:10.999Z</time></trkpt><trkpt lat="46.103864608146786" lon="12.901956453975487"><ele>124.25</ele><time>2026-04-25T16:27:11.999Z</time></trkpt><trkpt lat="46.103857004613594" lon="12.902167435600184"><ele>124.0</ele><time>2026-04-25T16:27:12.999Z</time></trkpt><trkpt lat="46.103851499893146" lon="12.902369090640533"><ele>124.0</ele><time>2026-04-25T16:27:13.999Z</time></trkpt><trkpt lat="46.10384309497735" lon="12.902569780629243"><ele>124.0</ele><time>2026-04-25T16:27:14.999Z</time></trkpt><trkpt lat="46.10383344539666" lon="12.902774637216105"><ele>124.0</ele><time>2026-04-25T16:27:15.999Z</time></trkpt><trkpt lat="46.10382379286516" lon="12.902985973776145"><ele>124.0</ele><time>2026-04-25T16:27:16.999Z</time></trkpt><trkpt lat="46.10381537498461" lon="12.903207799474457"><ele>124.0</ele><time>2026-04-25T16:27:17.999Z</time></trkpt><trkpt lat="46.1038058611872" lon="12.903434750746367"><ele>124.0</ele><time>2026-04-25T16:27:18.999Z</time></trkpt><trkpt lat="46.103797475601006" lon="12.903665474166965"><ele>124.0</ele><time>2026-04-25T16:27:19.999Z</time></trkpt><trkpt lat="46.10378437491621" lon="12.90389169216586"><ele>124.0</ele><time>2026-04-25T16:27:20.999Z</time></trkpt><trkpt lat="46.10375473186954" lon="12.90411414026116"><ele>124.0</ele><time>2026-04-25T16:27:21.999Z</time></trkpt><trkpt lat="46.10370239692633" lon="12.904337830784618"><ele>124.0</ele><time>2026-04-25T16:27:22.999Z</time></trkpt><trkpt lat="46.10363273301402" lon="12.904563449352548"><ele>124.0</ele><time>2026-04-25T16:27:23.999Z</time></trkpt><trkpt lat="46.103547141944965" lon="12.904784444062688"><ele>124.0</ele><time>2026-04-25T16:27:24.999Z</time></trkpt><trkpt lat="46.10344692793756" lon="12.904984838219871"><ele>124.0</ele><time>2026-04-25T16:27:25.999Z</time></trkpt><trkpt lat="46.103354841239806" lon="12.905141714865122"><ele>124.00000000000001</ele><time>2026-04-25T16:27:26.999Z</time></trkpt><trkpt lat="46.10327437315618" lon="12.90527140666724"><ele>124.0</ele><time>2026-04-25T16:27:27.999Z</time></trkpt><trkpt lat="46.103204110368985" lon="12.905375711598099"><ele>124.0</ele><time>2026-04-25T16:27:28.999Z</time></trkpt><trkpt lat="46.10314971009469" lon="12.905448637686721"><ele>124.0</ele><time>2026-04-25T16:27:29.999Z</time></trkpt><trkpt lat="46.103087542335274" lon="12.905517794023723"><ele>124.00000000000001</ele><time>2026-04-25T16:27:31.999Z</time></trkpt><trkpt lat="46.10302772706903" lon="12.905569902848455"><ele>124.0</ele><time>2026-04-25T16:27:34.999Z</time></trkpt><trkpt lat="46.10293164858993" lon="12.905646371776955"><ele>124.00000000000001</ele><time>2026-04-25T16:27:38.999Z</time></trkpt><trkpt lat="46.10287673809937" lon="12.90570798950455"><ele>124.0</ele><time>2026-04-25T16:27:39.999Z</time></trkpt><trkpt lat="46.1028009742129" lon="12.905779869492532"><ele>124.0</ele><time>2026-04-25T16:27:40.999Z</time></trkpt><trkpt lat="46.10272073324534" lon="12.905846458656853"><ele>124.0</ele><time>2026-04-25T16:27:41.999Z</time></trkpt><trkpt lat="46.10263769993643" lon="12.905880490986961"><ele>124.00000000000001</ele><time>2026-04-25T16:27:42.999Z</time></trkpt><trkpt lat="46.10253544729906" lon="12.905869749341738"><ele>124.0</ele><time>2026-04-25T16:27:43.999Z</time></trkpt><trkpt lat="46.10243556651849" lon="12.905816733050779"><ele>123.83333333333334</ele><time>2026-04-25T16:27:44.999Z</time></trkpt><trkpt lat="46.10236401769784" lon="12.90574253247418"><ele>123.66666666666667</ele><time>2026-04-25T16:27:45.999Z</time></trkpt><trkpt lat="46.10231506729858" lon="12.905654098081113"><ele>123.5</ele><time>2026-04-25T16:27:46.999Z</time></trkpt><trkpt lat="46.102288957254814" lon="12.905559981629919"><ele>123.33333333333334</ele><time>2026-04-25T16:27:48Z</time></trkpt><trkpt lat="46.102233600864196" lon="12.905462445422891"><ele>123.16666666666667</ele><time>2026-04-25T16:27:50Z</time></trkpt><trkpt lat="46.1022278364717" lon="12.9053621743928"><ele>123.0</ele><time>2026-04-25T16:28:24Z</time></trkpt><trkpt lat="46.102170350212155" lon="12.90531202736277"><ele>123.0</ele><time>2026-04-25T16:28:26Z</time></trkpt><trkpt lat="46.102077168040196" lon="12.905363388652084"><ele>123.00000000000001</ele><time>2026-04-25T16:28:28Z</time></trkpt><trkpt lat="46.10197969000872" lon="12.90544263377957"><ele>123.00000000000001</ele><time>2026-04-25T16:28:30Z</time></trkpt><trkpt lat="46.101883021010664" lon="12.90551626165556"><ele>123.0</ele><time>2026-04-25T16:28:32Z</time></trkpt><trkpt lat="46.10181326250992" lon="12.905568741891702"><ele>123.0</ele><time>2026-04-25T16:28:34Z</time></trkpt><trkpt lat="46.1017420944048" lon="12.905607362981277"><ele>123.0</ele><time>2026-04-25T16:28:36Z</time></trkpt><trkpt lat="46.101662247942734" lon="12.905679864022572"><ele>123.0</ele><time>2026-04-25T16:28:38Z</time></trkpt><trkpt lat="46.10158451597343" lon="12.905742494975945"><ele>123.0</ele><time>2026-04-25T16:28:41Z</time></trkpt><trkpt lat="46.10151402568464" lon="12.905741668364932"><ele>124.0</ele><time>2026-04-25T16:28:56.999Z</time></trkpt></trkseg><trkseg><trkpt lat="46.101600886077165" lon="12.905518112645538"><ele>123.14285714285717</ele><time>2026-04-25T17:04:47.905Z</time></trkpt><trkpt lat="46.10151162434076" lon="12.905509116687046"><ele>123.28571428571429</ele><time>2026-04-25T17:04:48.905Z</time></trkpt><trkpt lat="46.101472136714136" lon="12.905583070721825"><ele>123.42857142857144</ele><time>2026-04-25T17:04:52.905Z</time></trkpt><trkpt lat="46.10152399776486" lon="12.905639856474016"><ele>123.57142857142858</ele><time>2026-04-25T17:05:34Z</time></trkpt><trkpt lat="46.10154426586345" lon="12.905732860452986"><ele>123.71428571428572</ele><time>2026-04-25T17:06:20Z</time></trkpt><trkpt lat="46.10151889252241" lon="12.905817332235213"><ele>123.85714285714286</ele><time>2026-04-25T17:09:05Z</time></trkpt><trkpt lat="46.10154485872406" lon="12.905910970434656"><ele>124.0</ele><time>2026-04-25T17:09:07Z</time></trkpt><trkpt lat="46.101622228201144" lon="12.905963852142941"><ele>123.83333333333334</ele><time>2026-04-25T17:09:10Z</time></trkpt><trkpt lat="46.101711970615185" lon="12.905884909243634"><ele>123.66666666666667</ele><time>2026-04-25T17:09:12Z</time></trkpt><trkpt lat="46.10177603415933" lon="12.905841578116101"><ele>123.5</ele><time>2026-04-25T17:09:13Z</time></trkpt><trkpt lat="46.101859692138724" lon="12.90578387691476"><ele>123.33333333333334</ele><time>2026-04-25T17:09:14Z</time></trkpt><trkpt lat="46.10195036833143" lon="12.905718436225511"><ele>123.16666666666667</ele><time>2026-04-25T17:09:15Z</time></trkpt><trkpt lat="46.10200938035316" lon="12.905674850218274"><ele>123.0</ele><time>2026-04-25T17:09:16Z</time></trkpt><trkpt lat="46.10205865889492" lon="12.90560052128016"><ele>123.0</ele><time>2026-04-25T17:09:21Z</time></trkpt><trkpt lat="46.102140081516076" lon="12.90555617547907"><ele>123.00000000000001</ele><time>2026-04-25T17:09:23Z</time></trkpt><trkpt lat="46.10221136108318" lon="12.9055925062802"><ele>123.00000000000001</ele><time>2026-04-25T17:09:25Z</time></trkpt><trkpt lat="46.10224749858984" lon="12.90573029150039"><ele>123.0</ele><time>2026-04-25T17:09:27Z</time></trkpt><trkpt lat="46.102252190331264" lon="12.905919188992177"><ele>123.0</ele><time>2026-04-25T17:09:29Z</time></trkpt><trkpt lat="46.10222890549391" lon="12.906056389281536"><ele>123.25</ele><time>2026-04-25T17:09:30Z</time></trkpt><trkpt lat="46.10218322143154" lon="12.906212896323018"><ele>123.5</ele><time>2026-04-25T17:09:31Z</time></trkpt><trkpt lat="46.102109083575115" lon="12.90634546744063"><ele>123.75</ele><time>2026-04-25T17:09:32Z</time></trkpt><trkpt lat="46.10199967965487" lon="12.906434322514771"><ele>124.0</ele><time>2026-04-25T17:09:33Z</time></trkpt><trkpt lat="46.101867287108405" lon="12.906499973569224"><ele>124.0</ele><time>2026-04-25T17:09:34Z</time></trkpt><trkpt lat="46.10172017997632" lon="12.906551871695815"><ele>124.0</ele><time>2026-04-25T17:09:35Z</time></trkpt><trkpt lat="46.10156318094125" lon="12.906590041542096"><ele>124.0</ele><time>2026-04-25T17:09:36Z</time></trkpt><trkpt lat="46.10140808083989" lon="12.906613000156767"><ele>123.5</ele><time>2026-04-25T17:09:37Z</time></trkpt><trkpt lat="46.101262489955296" lon="12.90661998520445"><ele>123.0</ele><time>2026-04-25T17:09:38Z</time></trkpt><trkpt lat="46.10112332715549" lon="12.906612188083152"><ele>122.5</ele><time>2026-04-25T17:09:39Z</time></trkpt><trkpt lat="46.10098146986141" lon="12.90660178188195"><ele>122.0</ele><time>2026-04-25T17:09:40Z</time></trkpt><trkpt lat="46.10083487060053" lon="12.90659328214489"><ele>121.66666666666666</ele><time>2026-04-25T17:09:41Z</time></trkpt><trkpt lat="46.1006796520963" lon="12.906583762306882"><ele>121.33333333333334</ele><time>2026-04-25T17:09:42Z</time></trkpt><trkpt lat="46.10051617662215" lon="12.90656699398976"><ele>121.0</ele><time>2026-04-25T17:09:43Z</time></trkpt><trkpt lat="46.10033758368639" lon="12.906549147266666"><ele>121.0</ele><time>2026-04-25T17:09:44Z</time></trkpt><trkpt lat="46.10014243968667" lon="12.906531200628708"><ele>121.0</ele><time>2026-04-25T17:09:45Z</time></trkpt><trkpt lat="46.09994060050294" lon="12.9065170219898"><ele>121.0</ele><time>2026-04-25T17:09:46Z</time></trkpt><trkpt lat="46.09974727154358" lon="12.906506752640535"><ele>120.0</ele><time>2026-04-25T17:09:47Z</time></trkpt><trkpt lat="46.09956443738076" lon="12.906514991068912"><ele>119.0</ele><time>2026-04-25T17:09:48Z</time></trkpt><trkpt lat="46.099387936210235" lon="12.906524482142398"><ele>118.0</ele><time>2026-04-25T17:09:49Z</time></trkpt><trkpt lat="46.09922185171058" lon="12.906533384198282"><ele>117.33333333333334</ele><time>2026-04-25T17:09:50Z</time></trkpt><trkpt lat="46.09905182162371" lon="12.906539327847504"><ele>116.66666666666666</ele><time>2026-04-25T17:09:51Z</time></trkpt><trkpt lat="46.09888939029285" lon="12.906534094652278"><ele>116.0</ele><time>2026-04-25T17:09:52Z</time></trkpt><trkpt lat="46.098723689574236" lon="12.906513654447304"><ele>116.0</ele><time>2026-04-25T17:09:53Z</time></trkpt><trkpt lat="46.09855718159452" lon="12.906489518859646"><ele>116.0</ele><time>2026-04-25T17:09:54Z</time></trkpt><trkpt lat="46.09838554650193" lon="12.906469402705133"><ele>116.0</ele><time>2026-04-25T17:09:55Z</time></trkpt><trkpt lat="46.09820280985568" lon="12.906455368359849"><ele>115.33333333333333</ele><time>2026-04-25T17:09:56Z</time></trkpt><trkpt lat="46.09800332091298" lon="12.90644534568125"><ele>114.66666666666666</ele><time>2026-04-25T17:09:57Z</time></trkpt><trkpt lat="46.097794130633076" lon="12.906452710391742"><ele>114.0</ele><time>2026-04-25T17:09:58Z</time></trkpt><trkpt lat="46.0975803277359" lon="12.906483153707777"><ele>114.66666666666666</ele><time>2026-04-25T17:09:59Z</time></trkpt><trkpt lat="46.097364827645805" lon="12.906521711501"><ele>115.33333333333333</ele><time>2026-04-25T17:10:00Z</time></trkpt><trkpt lat="46.097148037976176" lon="12.906563166372088"><ele>116.0</ele><time>2026-04-25T17:10:01Z</time></trkpt><trkpt lat="46.09694024136805" lon="12.906617404083102"><ele>116.0</ele><time>2026-04-25T17:10:02Z</time></trkpt><trkpt lat="46.0967412992359" lon="12.906696066280588"><ele>116.0</ele><time>2026-04-25T17:10:03Z</time></trkpt><trkpt lat="46.0965512426691" lon="12.90679725253642"><ele>116.0</ele><time>2026-04-25T17:10:04Z</time></trkpt><trkpt lat="46.09637607741904" lon="12.906917806336704"><ele>115.0</ele><time>2026-04-25T17:10:05Z</time></trkpt><trkpt lat="46.096206748914554" lon="12.907050079519726"><ele>114.0</ele><time>2026-04-25T17:10:06Z</time></trkpt><trkpt lat="46.09604430850517" lon="12.90719225058919"><ele>113.0</ele><time>2026-04-25T17:10:07Z</time></trkpt><trkpt lat="46.0958882376356" lon="12.9073485013305"><ele>113.66666666666666</ele><time>2026-04-25T17:10:08Z</time></trkpt><trkpt lat="46.095725164959724" lon="12.907500220796802"><ele>114.33333333333334</ele><time>2026-04-25T17:10:09Z</time></trkpt><trkpt lat="46.09555588926731" lon="12.90763970998673"><ele>115.0</ele><time>2026-04-25T17:10:10Z</time></trkpt><trkpt lat="46.09537969084983" lon="12.907758172766654"><ele>113.33333333333334</ele><time>2026-04-25T17:10:11Z</time></trkpt><trkpt lat="46.09519520384881" lon="12.90783075143067"><ele>111.66666666666666</ele><time>2026-04-25T17:10:12Z</time></trkpt><trkpt lat="46.09499788696549" lon="12.907900547420088"><ele>110.0</ele><time>2026-04-25T17:10:13Z</time></trkpt><trkpt lat="46.09478973856226" lon="12.907968898624315"><ele>110.0</ele><time>2026-04-25T17:10:14Z</time></trkpt><trkpt lat="46.09457522281606" lon="12.90802463204919"><ele>110.0</ele><time>2026-04-25T17:10:15Z</time></trkpt><trkpt lat="46.09435178097018" lon="12.90809612628083"><ele>110.0</ele><time>2026-04-25T17:10:16Z</time></trkpt><trkpt lat="46.09413570722766" lon="12.908207677682189"><ele>114.0</ele><time>2026-04-25T17:10:17Z</time></trkpt><trkpt lat="46.09393128883379" lon="12.90835342083165"><ele>118.0</ele><time>2026-04-25T17:10:18Z</time></trkpt><trkpt lat="46.093734234909" lon="12.908499380735154"><ele>113.0</ele><time>2026-04-25T17:10:19Z</time></trkpt><trkpt lat="46.09353803458596" lon="12.908619012060717"><ele>108.0</ele><time>2026-04-25T17:10:20Z</time></trkpt><trkpt lat="46.09333863286071" lon="12.908671630072693"><ele>103.0</ele><time>2026-04-25T17:10:21Z</time></trkpt><trkpt lat="46.09314217781094" lon="12.908734534266467"><ele>103.0</ele><time>2026-04-25T17:10:22Z</time></trkpt><trkpt lat="46.09294449072771" lon="12.908739689213034"><ele>103.0</ele><time>2026-04-25T17:10:23Z</time></trkpt><trkpt lat="46.09274336777942" lon="12.90872043284072"><ele>103.0</ele><time>2026-04-25T17:10:24Z</time></trkpt><trkpt lat="46.092540507079164" lon="12.908708725038323"><ele>102.33333333333334</ele><time>2026-04-25T17:10:25Z</time></trkpt><trkpt lat="46.09232697466271" lon="12.908717451126707"><ele>101.66666666666666</ele><time>2026-04-25T17:10:26Z</time></trkpt><trkpt lat="46.0921138931332" lon="12.90876180740477"><ele>101.0</ele><time>2026-04-25T17:10:27Z</time></trkpt><trkpt lat="46.091900910905856" lon="12.908836436158223"><ele>101.0</ele><time>2026-04-25T17:10:28Z</time></trkpt><trkpt lat="46.09169890229578" lon="12.908937869259773"><ele>101.0</ele><time>2026-04-25T17:10:29Z</time></trkpt><trkpt lat="46.09150941428618" lon="12.909067316325528"><ele>101.0</ele><time>2026-04-25T17:10:30Z</time></trkpt><trkpt lat="46.09132691168278" lon="12.909203857469645"><ele>99.66666666666666</ele><time>2026-04-25T17:10:31Z</time></trkpt><trkpt lat="46.091147465012156" lon="12.909347957079426"><ele>98.33333333333334</ele><time>2026-04-25T17:10:32Z</time></trkpt><trkpt lat="46.09097952022303" lon="12.909515361163656"><ele>97.0</ele><time>2026-04-25T17:10:33Z</time></trkpt><trkpt lat="46.09082879879211" lon="12.909703759839406"><ele>96.33333333333334</ele><time>2026-04-25T17:10:34Z</time></trkpt><trkpt lat="46.09068435231411" lon="12.90989647458999"><ele>95.66666666666667</ele><time>2026-04-25T17:10:35Z</time></trkpt><trkpt lat="46.090549988335724" lon="12.910095192153973"><ele>95.0</ele><time>2026-04-25T17:10:36Z</time></trkpt><trkpt lat="46.09042394535085" lon="12.910304724747283"><ele>94.33333333333334</ele><time>2026-04-25T17:10:37Z</time></trkpt><trkpt lat="46.09031183542141" lon="12.910532093978574"><ele>93.66666666666667</ele><time>2026-04-25T17:10:38Z</time></trkpt><trkpt lat="46.09021519915448" lon="12.910780977122954"><ele>93.0</ele><time>2026-04-25T17:10:39Z</time></trkpt><trkpt lat="46.09013116572275" lon="12.911044530997202"><ele>93.0</ele><time>2026-04-25T17:10:40Z</time></trkpt><trkpt lat="46.090057995907486" lon="12.911313953187221"><ele>93.0</ele><time>2026-04-25T17:10:41Z</time></trkpt><trkpt lat="46.08998534052275" lon="12.911593404366185"><ele>93.0</ele><time>2026-04-25T17:10:42Z</time></trkpt><trkpt lat="46.089909164811786" lon="12.911886017149437"><ele>93.33333333333333</ele><time>2026-04-25T17:10:43Z</time></trkpt><trkpt lat="46.08983350568951" lon="12.912190421046324"><ele>93.66666666666666</ele><time>2026-04-25T17:10:44Z</time></trkpt><trkpt lat="46.08976166069265" lon="12.912488920464265"><ele>94.0</ele><time>2026-04-25T17:10:45Z</time></trkpt><trkpt lat="46.08968766514301" lon="12.912779292695937"><ele>94.33333333333333</ele><time>2026-04-25T17:10:46Z</time></trkpt><trkpt lat="46.08960903970601" lon="12.913056267467905"><ele>94.66666666666667</ele><time>2026-04-25T17:10:47Z</time></trkpt><trkpt lat="46.08953008814369" lon="12.913318227313798"><ele>95.0</ele><time>2026-04-25T17:10:48Z</time></trkpt><trkpt lat="46.08945646749981" lon="12.913570724629627"><ele>95.0</ele><time>2026-04-25T17:10:49Z</time></trkpt><trkpt lat="46.089386684936194" lon="12.913821556011085"><ele>95.0</ele><time>2026-04-25T17:10:50Z</time></trkpt><trkpt lat="46.08931240901761" lon="12.914084222985407"><ele>95.0</ele><time>2026-04-25T17:10:51Z</time></trkpt><trkpt lat="46.08923518789096" lon="12.914361246652016"><ele>95.0</ele><time>2026-04-25T17:10:52Z</time></trkpt><trkpt lat="46.089150312277226" lon="12.914647860507074"><ele>95.0</ele><time>2026-04-25T17:10:53Z</time></trkpt><trkpt lat="46.08906603059806" lon="12.914941012880044"><ele>95.0</ele><time>2026-04-25T17:10:54Z</time></trkpt><trkpt lat="46.08898049896217" lon="12.915241946874696"><ele>94.0</ele><time>2026-04-25T17:10:55Z</time></trkpt><trkpt lat="46.088895450715945" lon="12.91554394291749"><ele>93.0</ele><time>2026-04-25T17:10:56Z</time></trkpt><trkpt lat="46.08880838030193" lon="12.915852101989124"><ele>93.0</ele><time>2026-04-25T17:10:57Z</time></trkpt><trkpt lat="46.08872210470994" lon="12.916162779455512"><ele>93.0</ele><time>2026-04-25T17:10:58Z</time></trkpt><trkpt lat="46.08863434824174" lon="12.916477978762845"><ele>94.0</ele><time>2026-04-25T17:10:59Z</time></trkpt><trkpt lat="46.08854539065141" lon="12.916788178105254"><ele>95.0</ele><time>2026-04-25T17:10:59.999Z</time></trkpt><trkpt lat="46.08845609461237" lon="12.917093015899857"><ele>95.0</ele><time>2026-04-25T17:11:00.999Z</time></trkpt><trkpt lat="46.08836701144196" lon="12.917393629084692"><ele>95.0</ele><time>2026-04-25T17:11:01.999Z</time></trkpt><trkpt lat="46.088282373032705" lon="12.917693335352412"><ele>95.0</ele><time>2026-04-25T17:11:02.999Z</time></trkpt><trkpt lat="46.088197202391555" lon="12.917988051376472"><ele>95.0</ele><time>2026-04-25T17:11:03.999Z</time></trkpt><trkpt lat="46.08811441057631" lon="12.918278289482027"><ele>95.0</ele><time>2026-04-25T17:11:04.999Z</time></trkpt><trkpt lat="46.08803481780256" lon="12.918565587814497"><ele>94.66666666666667</ele><time>2026-04-25T17:11:05.999Z</time></trkpt><trkpt lat="46.0879530793837" lon="12.91884423160981"><ele>94.33333333333333</ele><time>2026-04-25T17:11:06.999Z</time></trkpt><trkpt lat="46.08787133522132" lon="12.919124732066486"><ele>94.0</ele><time>2026-04-25T17:11:07.999Z</time></trkpt><trkpt lat="46.087790813472786" lon="12.919411761589537"><ele>93.33333333333333</ele><time>2026-04-25T17:11:08.999Z</time></trkpt><trkpt lat="46.08770800547883" lon="12.919700736046545"><ele>92.66666666666667</ele><time>2026-04-25T17:11:09.999Z</time></trkpt><trkpt lat="46.08762408077928" lon="12.919992101252427"><ele>92.0</ele><time>2026-04-25T17:11:11Z</time></trkpt><trkpt lat="46.08754112872643" lon="12.920291487469516"><ele>92.0</ele><time>2026-04-25T17:11:12Z</time></trkpt><trkpt lat="46.08745540508372" lon="12.920602444310738"><ele>92.0</ele><time>2026-04-25T17:11:13Z</time></trkpt><trkpt lat="46.08736732596153" lon="12.92090953644267"><ele>92.5</ele><time>2026-04-25T17:11:14Z</time></trkpt><trkpt lat="46.087280443478534" lon="12.921215149847615"><ele>93.0</ele><time>2026-04-25T17:11:15Z</time></trkpt><trkpt lat="46.08719122548223" lon="12.921523444644475"><ele>93.5</ele><time>2026-04-25T17:11:16Z</time></trkpt><trkpt lat="46.08710213514154" lon="12.92183098155932"><ele>94.0</ele><time>2026-04-25T17:11:17Z</time></trkpt><trkpt lat="46.08701289951891" lon="12.92213581908616"><ele>94.0</ele><time>2026-04-25T17:11:18Z</time></trkpt><trkpt lat="46.08692564753568" lon="12.922436474900667"><ele>94.0</ele><time>2026-04-25T17:11:19Z</time></trkpt><trkpt lat="46.086843475972934" lon="12.922730612716268"><ele>94.0</ele><time>2026-04-25T17:11:20Z</time></trkpt><trkpt lat="46.08676233690489" lon="12.923021398743915"><ele>94.0</ele><time>2026-04-25T17:11:21Z</time></trkpt><trkpt lat="46.086680926177365" lon="12.923304486648014"><ele>94.0</ele><time>2026-04-25T17:11:22Z</time></trkpt><trkpt lat="46.08660315377029" lon="12.92357979237334"><ele>94.0</ele><time>2026-04-25T17:11:23Z</time></trkpt><trkpt lat="46.08652574054321" lon="12.923852225476411"><ele>94.0</ele><time>2026-04-25T17:11:24Z</time></trkpt><trkpt lat="46.08644809166122" lon="12.92412882511799"><ele>94.0</ele><time>2026-04-25T17:11:25Z</time></trkpt><trkpt lat="46.086368700919145" lon="12.92440438156095"><ele>94.0</ele><time>2026-04-25T17:11:26Z</time></trkpt><trkpt lat="46.08629027840503" lon="12.924682943634826"><ele>93.66666666666666</ele><time>2026-04-25T17:11:27Z</time></trkpt><trkpt lat="46.0862106722629" lon="12.924962112618662"><ele>93.33333333333333</ele><time>2026-04-25T17:11:28Z</time></trkpt><trkpt lat="46.086130011935396" lon="12.92524238846786"><ele>93.0</ele><time>2026-04-25T17:11:29Z</time></trkpt><trkpt lat="46.0860497467801" lon="12.925524011808518"><ele>92.0</ele><time>2026-04-25T17:11:30Z</time></trkpt><trkpt lat="46.085968664380715" lon="12.925806137249994"><ele>91.0</ele><time>2026-04-25T17:11:31Z</time></trkpt><trkpt lat="46.08588639500881" lon="12.9260907211647"><ele>90.0</ele><time>2026-04-25T17:11:32Z</time></trkpt><trkpt lat="46.08580338798274" lon="12.926376895678805"><ele>90.33333333333333</ele><time>2026-04-25T17:11:33Z</time></trkpt><trkpt lat="46.08572049409172" lon="12.926665704966162"><ele>90.66666666666666</ele><time>2026-04-25T17:11:34Z</time></trkpt><trkpt lat="46.08563889134197" lon="12.926957194610305"><ele>91.0</ele><time>2026-04-25T17:11:35Z</time></trkpt><trkpt lat="46.08555481279801" lon="12.927250590385116"><ele>91.0</ele><time>2026-04-25T17:11:36Z</time></trkpt><trkpt lat="46.085469130365055" lon="12.927546453928093"><ele>91.0</ele><time>2026-04-25T17:11:37Z</time></trkpt><trkpt lat="46.08538505883549" lon="12.927844492843583"><ele>91.0</ele><time>2026-04-25T17:11:38Z</time></trkpt><trkpt lat="46.08530175089457" lon="12.928141859929296"><ele>91.0</ele><time>2026-04-25T17:11:39Z</time></trkpt><trkpt lat="46.08521873899755" lon="12.92843291103427"><ele>91.0</ele><time>2026-04-25T17:11:40Z</time></trkpt><trkpt lat="46.085137091845574" lon="12.928715637238623"><ele>91.0</ele><time>2026-04-25T17:11:41Z</time></trkpt><trkpt lat="46.08505846588568" lon="12.928989690548828"><ele>91.66666666666666</ele><time>2026-04-25T17:11:42Z</time></trkpt><trkpt lat="46.08498144967782" lon="12.9292553101591"><ele>92.33333333333333</ele><time>2026-04-25T17:11:43Z</time></trkpt><trkpt lat="46.08490881074642" lon="12.929511350145273"><ele>93.0</ele><time>2026-04-25T17:11:44Z</time></trkpt><trkpt lat="46.08483706560359" lon="12.929755152034057"><ele>93.33333333333333</ele><time>2026-04-25T17:11:45Z</time></trkpt><trkpt lat="46.0847674939139" lon="12.929994496047607"><ele>93.66666666666666</ele><time>2026-04-25T17:11:46Z</time></trkpt><trkpt lat="46.08470929502671" lon="12.930211043224428"><ele>94.0</ele><time>2026-04-25T17:11:47Z</time></trkpt><trkpt lat="46.084651985740884" lon="12.930409517884499"><ele>94.25</ele><time>2026-04-25T17:11:48Z</time></trkpt><trkpt lat="46.08459547042333" lon="12.930597964860537"><ele>94.5</ele><time>2026-04-25T17:11:49Z</time></trkpt><trkpt lat="46.08453547746303" lon="12.930788207744035"><ele>94.75</ele><time>2026-04-25T17:11:50Z</time></trkpt><trkpt lat="46.08447549776136" lon="12.930975003315462"><ele>95.0</ele><time>2026-04-25T17:11:51Z</time></trkpt><trkpt lat="46.08441382558698" lon="12.931147659062102"><ele>95.0</ele><time>2026-04-25T17:11:52Z</time></trkpt><trkpt lat="46.084354364058164" lon="12.931306366841543"><ele>95.0</ele><time>2026-04-25T17:11:53Z</time></trkpt><trkpt lat="46.08429820390969" lon="12.931440680088961"><ele>95.0</ele><time>2026-04-25T17:11:54Z</time></trkpt><trkpt lat="46.08424139968118" lon="12.931564901345002"><ele>95.0</ele><time>2026-04-25T17:11:55Z</time></trkpt><trkpt lat="46.08418470754727" lon="12.931678376837223"><ele>95.0</ele><time>2026-04-25T17:11:56Z</time></trkpt><trkpt lat="46.08412223714778" lon="12.9317964009682"><ele>95.2</ele><time>2026-04-25T17:11:57Z</time></trkpt><trkpt lat="46.084065962785765" lon="12.931927817402618"><ele>95.4</ele><time>2026-04-25T17:11:58Z</time></trkpt><trkpt lat="46.08399236112272" lon="12.93202546054931"><ele>95.6</ele><time>2026-04-25T17:11:59Z</time></trkpt><trkpt lat="46.083907364417236" lon="12.932096265100842"><ele>95.8</ele><time>2026-04-25T17:12:00Z</time></trkpt><trkpt lat="46.08384410828552" lon="12.932185721654465"><ele>96.0</ele><time>2026-04-25T17:12:01Z</time></trkpt><trkpt lat="46.083833466114655" lon="12.932344862389815"><ele>96.0</ele><time>2026-04-25T17:12:02Z</time></trkpt><trkpt lat="46.083877247447965" lon="12.932514178057563"><ele>96.0</ele><time>2026-04-25T17:12:03Z</time></trkpt><trkpt lat="46.083883908774716" lon="12.932701952916668"><ele>96.0</ele><time>2026-04-25T17:12:04Z</time></trkpt><trkpt lat="46.083874997394105" lon="12.93291483314869"><ele>96.0</ele><time>2026-04-25T17:12:05Z</time></trkpt><trkpt lat="46.08386217716587" lon="12.93313028638551"><ele>95.75</ele><time>2026-04-25T17:12:06Z</time></trkpt><trkpt lat="46.08384910559843" lon="12.933336651401317"><ele>95.5</ele><time>2026-04-25T17:12:07Z</time></trkpt><trkpt lat="46.08383600612321" lon="12.933533636761565"><ele>95.25</ele><time>2026-04-25T17:12:08Z</time></trkpt><trkpt lat="46.083829370616755" lon="12.933720753186684"><ele>95.0</ele><time>2026-04-25T17:12:09Z</time></trkpt><trkpt lat="46.08383087143858" lon="12.93390116621108"><ele>95.0</ele><time>2026-04-25T17:12:10Z</time></trkpt><trkpt lat="46.08383866039338" lon="12.934084276392086"><ele>95.0</ele><time>2026-04-25T17:12:11Z</time></trkpt><trkpt lat="46.083856443824054" lon="12.934271000986891"><ele>95.0</ele><time>2026-04-25T17:12:12Z</time></trkpt><trkpt lat="46.08388566670091" lon="12.934459675550933"><ele>95.0</ele><time>2026-04-25T17:12:13Z</time></trkpt><trkpt lat="46.083929420564054" lon="12.93464861308139"><ele>96.0</ele><time>2026-04-25T17:12:14Z</time></trkpt><trkpt lat="46.08397808634002" lon="12.934825871999632"><ele>97.0</ele><time>2026-04-25T17:12:15Z</time></trkpt><trkpt lat="46.0840315018355" lon="12.934994124471412"><ele>98.0</ele><time>2026-04-25T17:12:16Z</time></trkpt><trkpt lat="46.084094733413316" lon="12.935152134115189"><ele>99.0</ele><time>2026-04-25T17:12:17Z</time></trkpt><trkpt lat="46.084162830090726" lon="12.93529919234529"><ele>100.0</ele><time>2026-04-25T17:12:18Z</time></trkpt><trkpt lat="46.084227999823874" lon="12.935437596786434"><ele>101.0</ele><time>2026-04-25T17:12:19Z</time></trkpt><trkpt lat="46.08428914633887" lon="12.935562915848577"><ele>102.0</ele><time>2026-04-25T17:12:20Z</time></trkpt><trkpt lat="46.08434513250857" lon="12.935672447625272"><ele>103.0</ele><time>2026-04-25T17:12:21Z</time></trkpt><trkpt lat="46.08439928290952" lon="12.935775194769747"><ele>104.0</ele><time>2026-04-25T17:12:22Z</time></trkpt><trkpt lat="46.08445215193592" lon="12.935882167888048"><ele>104.99999999999999</ele><time>2026-04-25T17:12:23Z</time></trkpt><trkpt lat="46.084503264568845" lon="12.935988458354021"><ele>106.0</ele><time>2026-04-25T17:12:24Z</time></trkpt><trkpt lat="46.08455641228222" lon="12.936091330735291"><ele>107.0</ele><time>2026-04-25T17:12:25Z</time></trkpt><trkpt lat="46.084608965534656" lon="12.936190780375119"><ele>108.0</ele><time>2026-04-25T17:12:26Z</time></trkpt><trkpt lat="46.08465931955465" lon="12.936289722310692"><ele>108.99999999999999</ele><time>2026-04-25T17:12:27Z</time></trkpt><trkpt lat="46.08471021334846" lon="12.936386521338612"><ele>110.0</ele><time>2026-04-25T17:12:28Z</time></trkpt><trkpt lat="46.08476097873551" lon="12.93648322205755"><ele>109.99999999999999</ele><time>2026-04-25T17:12:29Z</time></trkpt><trkpt lat="46.08480351369396" lon="12.936563193633976"><ele>110.0</ele><time>2026-04-25T17:12:30Z</time></trkpt><trkpt lat="46.08486900613219" lon="12.936687368153917"><ele>110.0</ele><time>2026-04-25T17:12:32Z</time></trkpt><trkpt lat="46.084911980407455" lon="12.93677580182384"><ele>110.0</ele><time>2026-04-25T17:12:34Z</time></trkpt><trkpt lat="46.08494859881551" lon="12.936868483675427"><ele>109.99999999999999</ele><time>2026-04-25T17:12:36Z</time></trkpt><trkpt lat="46.08496283436978" lon="12.936978738942228"><ele>110.0</ele><time>2026-04-25T17:12:40Z</time></trkpt><trkpt lat="46.084974696328956" lon="12.9370678904875"><ele>110.49999999999999</ele><time>2026-04-25T17:12:43Z</time></trkpt><trkpt lat="46.084979308797614" lon="12.937201198203525"><ele>111.0</ele><time>2026-04-25T17:13:17Z</time></trkpt><trkpt lat="46.08498662927339" lon="12.937322433744555"><ele>111.5</ele><time>2026-04-25T17:13:19Z</time></trkpt><trkpt lat="46.08498885278922" lon="12.937470041849428"><ele>112.0</ele><time>2026-04-25T17:13:21Z</time></trkpt><trkpt lat="46.08499080460103" lon="12.93757027712139"><ele>112.49999999999999</ele><time>2026-04-25T17:13:22Z</time></trkpt><trkpt lat="46.08499667973033" lon="12.937697253814285"><ele>113.0</ele><time>2026-04-25T17:13:23Z</time></trkpt><trkpt lat="46.084999085427526" lon="12.937853283470854"><ele>113.0</ele><time>2026-04-25T17:13:24Z</time></trkpt><trkpt lat="46.0849867745664" lon="12.938015215594234"><ele>113.00000000000001</ele><time>2026-04-25T17:13:25Z</time></trkpt><trkpt lat="46.08495880582266" lon="12.938150184092033"><ele>113.00000000000001</ele><time>2026-04-25T17:13:26Z</time></trkpt><trkpt lat="46.08492032649221" lon="12.938271966982542"><ele>113.0</ele><time>2026-04-25T17:13:27Z</time></trkpt><trkpt lat="46.084882296924256" lon="12.938399521455525"><ele>113.0</ele><time>2026-04-25T17:13:28Z</time></trkpt><trkpt lat="46.08485439541358" lon="12.938532537265592"><ele>112.60000000000001</ele><time>2026-04-25T17:13:29Z</time></trkpt><trkpt lat="46.08483145961237" lon="12.938664474209494"><ele>112.20000000000002</ele><time>2026-04-25T17:13:30Z</time></trkpt><trkpt lat="46.08480319166402" lon="12.938794665644474"><ele>111.8</ele><time>2026-04-25T17:13:31Z</time></trkpt><trkpt lat="46.084776763050606" lon="12.938930714051958"><ele>111.4</ele><time>2026-04-25T17:13:32Z</time></trkpt><trkpt lat="46.08475847131607" lon="12.93906402823911"><ele>111.0</ele><time>2026-04-25T17:13:33Z</time></trkpt><trkpt lat="46.084772765570015" lon="12.93918929276871"><ele>110.6</ele><time>2026-04-25T17:13:34Z</time></trkpt><trkpt lat="46.084772143725125" lon="12.939321187350284"><ele>110.19999999999999</ele><time>2026-04-25T17:13:35Z</time></trkpt><trkpt lat="46.084778479603685" lon="12.939451075313821"><ele>109.80000000000001</ele><time>2026-04-25T17:13:36Z</time></trkpt><trkpt lat="46.08478426154168" lon="12.93958928153023"><ele>109.4</ele><time>2026-04-25T17:13:37Z</time></trkpt><trkpt lat="46.084794244351" lon="12.939725979043175"><ele>109.0</ele><time>2026-04-25T17:13:38Z</time></trkpt><trkpt lat="46.08480463013009" lon="12.939861255376295"><ele>109.00000000000001</ele><time>2026-04-25T17:13:39Z</time></trkpt><trkpt lat="46.08481855255331" lon="12.939993759303926"><ele>109.0</ele><time>2026-04-25T17:13:40Z</time></trkpt><trkpt lat="46.08483339052015" lon="12.940115679355694"><ele>109.0</ele><time>2026-04-25T17:13:41Z</time></trkpt><trkpt lat="46.08485006265247" lon="12.94023665155753"><ele>109.0</ele><time>2026-04-25T17:13:42Z</time></trkpt><trkpt lat="46.084880063834184" lon="12.940356096691081"><ele>109.00000000000001</ele><time>2026-04-25T17:13:43Z</time></trkpt><trkpt lat="46.08492849151866" lon="12.940467637743296"><ele>109.0</ele><time>2026-04-25T17:13:44Z</time></trkpt><trkpt lat="46.08498260716664" lon="12.940579818454777"><ele>109.6</ele><time>2026-04-25T17:13:45Z</time></trkpt><trkpt lat="46.0850528609974" lon="12.940693581997255"><ele>110.2</ele><time>2026-04-25T17:13:46Z</time></trkpt><trkpt lat="46.08510979363737" lon="12.940801520448321"><ele>110.79999999999998</ele><time>2026-04-25T17:13:47Z</time></trkpt><trkpt lat="46.08517163157294" lon="12.940920454058011"><ele>111.39999999999999</ele><time>2026-04-25T17:13:48Z</time></trkpt><trkpt lat="46.08524425067345" lon="12.94104318978257"><ele>112.0</ele><time>2026-04-25T17:13:49Z</time></trkpt><trkpt lat="46.085305462126975" lon="12.94118062762068"><ele>112.0</ele><time>2026-04-25T17:13:50Z</time></trkpt><trkpt lat="46.0853577344029" lon="12.941326891651528"><ele>111.99999999999999</ele><time>2026-04-25T17:13:51Z</time></trkpt><trkpt lat="46.0854011108449" lon="12.941471673563807"><ele>111.99999999999999</ele><time>2026-04-25T17:13:52Z</time></trkpt><trkpt lat="46.08543640218954" lon="12.941619977060032"><ele>112.0</ele><time>2026-04-25T17:13:53Z</time></trkpt><trkpt lat="46.08546070999209" lon="12.941767048501918"><ele>112.0</ele><time>2026-04-25T17:13:54Z</time></trkpt><trkpt lat="46.08548404755132" lon="12.941907793267095"><ele>112.00000000000001</ele><time>2026-04-25T17:13:55Z</time></trkpt><trkpt lat="46.0855070171853" lon="12.942047186598097"><ele>112.0</ele><time>2026-04-25T17:13:56Z</time></trkpt><trkpt lat="46.08552690318683" lon="12.942181786798226"><ele>112.0</ele><time>2026-04-25T17:13:57Z</time></trkpt><trkpt lat="46.08554385597715" lon="12.942293155058874"><ele>112.0</ele><time>2026-04-25T17:13:58Z</time></trkpt><trkpt lat="46.08555698787488" lon="12.942394612314013"><ele>112.00000000000001</ele><time>2026-04-25T17:13:59Z</time></trkpt><trkpt lat="46.085567826115415" lon="12.9424893483987"><ele>112.0</ele><time>2026-04-25T17:14:00Z</time></trkpt><trkpt lat="46.085586714014426" lon="12.942640094703798"><ele>112.0</ele><time>2026-04-25T17:14:02Z</time></trkpt><trkpt lat="46.08560609764462" lon="12.942802744293576"><ele>111.99999999999999</ele><time>2026-04-25T17:14:04Z</time></trkpt><trkpt lat="46.085628187070085" lon="12.942973527659847"><ele>111.99999999999999</ele><time>2026-04-25T17:14:06Z</time></trkpt><trkpt lat="46.08564566663448" lon="12.943129687983902"><ele>112.0</ele><time>2026-04-25T17:14:08Z</time></trkpt><trkpt lat="46.08565022216233" lon="12.943239166602705"><ele>112.0</ele><time>2026-04-25T17:14:09Z</time></trkpt><trkpt lat="46.085656128555826" lon="12.94337111962616"><ele>112.0</ele><time>2026-04-25T17:14:10Z</time></trkpt><trkpt lat="46.085668665441176" lon="12.943525303490402"><ele>112.0</ele><time>2026-04-25T17:14:11Z</time></trkpt><trkpt lat="46.08567995121457" lon="12.943681326648615"><ele>112.0</ele><time>2026-04-25T17:14:12Z</time></trkpt><trkpt lat="46.085691168380954" lon="12.943849230673214"><ele>112.0</ele><time>2026-04-25T17:14:13Z</time></trkpt><trkpt lat="46.08570118664105" lon="12.944024211209642"><ele>112.0</ele><time>2026-04-25T17:14:14Z</time></trkpt><trkpt lat="46.08571042763538" lon="12.944208003239908"><ele>112.0</ele><time>2026-04-25T17:14:15Z</time></trkpt><trkpt lat="46.08572028435312" lon="12.944412047578046"><ele>112.0</ele><time>2026-04-25T17:14:16Z</time></trkpt><trkpt lat="46.08573085813701" lon="12.94464086906433"><ele>112.0</ele><time>2026-04-25T17:14:17Z</time></trkpt><trkpt lat="46.085742015738255" lon="12.944877496392024"><ele>111.66666666666667</ele><time>2026-04-25T17:14:18Z</time></trkpt><trkpt lat="46.08575360493037" lon="12.945115552487133"><ele>111.33333333333334</ele><time>2026-04-25T17:14:19Z</time></trkpt><trkpt lat="46.08576536623536" lon="12.945348291083514"><ele>111.0</ele><time>2026-04-25T17:14:20Z</time></trkpt><trkpt lat="46.08577724522821" lon="12.945574855455721"><ele>111.0</ele><time>2026-04-25T17:14:21Z</time></trkpt><trkpt lat="46.08578386329409" lon="12.945810554685684"><ele>111.0</ele><time>2026-04-25T17:14:22Z</time></trkpt><trkpt lat="46.08578395564732" lon="12.94605940177111"><ele>111.0</ele><time>2026-04-25T17:14:23Z</time></trkpt><trkpt lat="46.08577932965108" lon="12.946312797533343"><ele>110.66666666666666</ele><time>2026-04-25T17:14:24Z</time></trkpt><trkpt lat="46.08577162478284" lon="12.946555077762152"><ele>110.33333333333333</ele><time>2026-04-25T17:14:25Z</time></trkpt><trkpt lat="46.085766218156394" lon="12.946775326082093"><ele>110.0</ele><time>2026-04-25T17:14:26Z</time></trkpt><trkpt lat="46.0857593957999" lon="12.946976910833927"><ele>110.0</ele><time>2026-04-25T17:14:27Z</time></trkpt><trkpt lat="46.08575167608823" lon="12.947175621467485"><ele>110.0</ele><time>2026-04-25T17:14:28Z</time></trkpt><trkpt lat="46.0857423149703" lon="12.94737256724413"><ele>110.0</ele><time>2026-04-25T17:14:29Z</time></trkpt><trkpt lat="46.085733251742525" lon="12.947564462060942"><ele>110.0</ele><time>2026-04-25T17:14:30Z</time></trkpt><trkpt lat="46.08572596633681" lon="12.947737146227505"><ele>109.8</ele><time>2026-04-25T17:14:31Z</time></trkpt><trkpt lat="46.08572048731182" lon="12.947890749442259"><ele>109.6</ele><time>2026-04-25T17:14:32Z</time></trkpt><trkpt lat="46.08571385368875" lon="12.948034976473867"><ele>109.4</ele><time>2026-04-25T17:14:33Z</time></trkpt><trkpt lat="46.085696773718084" lon="12.94817748188116"><ele>109.2</ele><time>2026-04-25T17:14:34Z</time></trkpt><trkpt lat="46.08566174967696" lon="12.948314982341984"><ele>109.0</ele><time>2026-04-25T17:14:35Z</time></trkpt><trkpt lat="46.08559394200189" lon="12.94844548230154"><ele>109.5</ele><time>2026-04-25T17:14:36Z</time></trkpt><trkpt lat="46.085534525295536" lon="12.948596822244673"><ele>110.0</ele><time>2026-04-25T17:14:37Z</time></trkpt><trkpt lat="46.08540332277477" lon="12.948693464688716"><ele>110.5</ele><time>2026-04-25T17:14:38Z</time></trkpt><trkpt lat="46.08533205685853" lon="12.94884180717583"><ele>111.0</ele><time>2026-04-25T17:14:39Z</time></trkpt><trkpt lat="46.0852945733311" lon="12.94901277467816"><ele>111.0</ele><time>2026-04-25T17:14:40Z</time></trkpt><trkpt lat="46.085287141717885" lon="12.949199980500524"><ele>111.0</ele><time>2026-04-25T17:14:41Z</time></trkpt><trkpt lat="46.085323218656555" lon="12.94938523500859"><ele>111.0</ele><time>2026-04-25T17:14:42Z</time></trkpt><trkpt lat="46.08540170447534" lon="12.949543855688797"><ele>111.0</ele><time>2026-04-25T17:14:43Z</time></trkpt><trkpt lat="46.085498542807755" lon="12.94967197298053"><ele>110.75</ele><time>2026-04-25T17:14:44Z</time></trkpt><trkpt lat="46.085584550786685" lon="12.949799139955681"><ele>110.5</ele><time>2026-04-25T17:14:45Z</time></trkpt><trkpt lat="46.08563287471874" lon="12.949964991079446"><ele>110.25</ele><time>2026-04-25T17:14:46Z</time></trkpt><trkpt lat="46.085651081283004" lon="12.95015884244339"><ele>110.0</ele><time>2026-04-25T17:14:47Z</time></trkpt><trkpt lat="46.08565368594658" lon="12.950370144383925"><ele>109.66666666666666</ele><time>2026-04-25T17:14:48Z</time></trkpt><trkpt lat="46.08564707063219" lon="12.95059306802305"><ele>109.33333333333334</ele><time>2026-04-25T17:14:49Z</time></trkpt><trkpt lat="46.08563340122273" lon="12.950831105818866"><ele>109.0</ele><time>2026-04-25T17:14:50Z</time></trkpt><trkpt lat="46.085611902650896" lon="12.951083262791748"><ele>109.0</ele><time>2026-04-25T17:14:51Z</time></trkpt><trkpt lat="46.0855879699479" lon="12.95134903301534"><ele>109.0</ele><time>2026-04-25T17:14:52Z</time></trkpt><trkpt lat="46.08556400421421" lon="12.951628509424081"><ele>109.0</ele><time>2026-04-25T17:14:53Z</time></trkpt><trkpt lat="46.085541015355005" lon="12.951909502864382"><ele>109.0</ele><time>2026-04-25T17:14:54Z</time></trkpt><trkpt lat="46.08551598851695" lon="12.952186295326454"><ele>109.0</ele><time>2026-04-25T17:14:55Z</time></trkpt><trkpt lat="46.0854917197728" lon="12.952465022709223"><ele>109.0</ele><time>2026-04-25T17:14:55.999Z</time></trkpt><trkpt lat="46.085467542928384" lon="12.952742652142156"><ele>109.66666666666667</ele><time>2026-04-25T17:14:56.999Z</time></trkpt><trkpt lat="46.08544178651841" lon="12.953023402193335"><ele>110.33333333333334</ele><time>2026-04-25T17:14:57.999Z</time></trkpt><trkpt lat="46.0854172208832" lon="12.95330629560254"><ele>111.0</ele><time>2026-04-25T17:14:58.999Z</time></trkpt><trkpt lat="46.08539803115855" lon="12.953598105342525"><ele>111.33333333333334</ele><time>2026-04-25T17:14:59.999Z</time></trkpt><trkpt lat="46.085384526895155" lon="12.953895554784667"><ele>111.66666666666667</ele><time>2026-04-25T17:15:00.999Z</time></trkpt><trkpt lat="46.085374401286366" lon="12.95418898923265"><ele>112.0</ele><time>2026-04-25T17:15:01.999Z</time></trkpt><trkpt lat="46.08536792640913" lon="12.954485260668216"><ele>112.33333333333334</ele><time>2026-04-25T17:15:02.999Z</time></trkpt><trkpt lat="46.08536293047444" lon="12.95478396228296"><ele>112.66666666666666</ele><time>2026-04-25T17:15:03.999Z</time></trkpt><trkpt lat="46.08536338195816" lon="12.955084157907848"><ele>113.0</ele><time>2026-04-25T17:15:04.999Z</time></trkpt><trkpt lat="46.085366830950036" lon="12.955387599280778"><ele>113.0</ele><time>2026-04-25T17:15:05.999Z</time></trkpt><trkpt lat="46.08537193620326" lon="12.955695486283888"><ele>113.0</ele><time>2026-04-25T17:15:06.999Z</time></trkpt><trkpt lat="46.085376812701945" lon="12.956007205359688"><ele>113.0</ele><time>2026-04-25T17:15:07.999Z</time></trkpt><trkpt lat="46.085380585030094" lon="12.956327128495975"><ele>113.0</ele><time>2026-04-25T17:15:08.999Z</time></trkpt><trkpt lat="46.08538264348323" lon="12.956652071739999"><ele>113.0</ele><time>2026-04-25T17:15:09.999Z</time></trkpt><trkpt lat="46.085385513451484" lon="12.956979795206571"><ele>113.0</ele><time>2026-04-25T17:15:10.999Z</time></trkpt><trkpt lat="46.085387736948675" lon="12.957310335042965"><ele>113.0</ele><time>2026-04-25T17:15:11.999Z</time></trkpt><trkpt lat="46.085389844051555" lon="12.957634478227703"><ele>113.33333333333333</ele><time>2026-04-25T17:15:12.999Z</time></trkpt><trkpt lat="46.085394828162315" lon="12.957950571008062"><ele>113.66666666666666</ele><time>2026-04-25T17:15:13.999Z</time></trkpt><trkpt lat="46.085397701545546" lon="12.958270820216983"><ele>114.0</ele><time>2026-04-25T17:15:14.999Z</time></trkpt><trkpt lat="46.08539496682868" lon="12.958604039242415"><ele>114.0</ele><time>2026-04-25T17:15:15.999Z</time></trkpt><trkpt lat="46.08538391593479" lon="12.958947354420745"><ele>114.0</ele><time>2026-04-25T17:15:16.999Z</time></trkpt><trkpt lat="46.08536830865459" lon="12.959293656074541"><ele>114.0</ele><time>2026-04-25T17:15:17.999Z</time></trkpt><trkpt lat="46.085344213415866" lon="12.959650375276569"><ele>114.0</ele><time>2026-04-25T17:15:18.999Z</time></trkpt><trkpt lat="46.085320194728766" lon="12.960009377916586"><ele>113.5</ele><time>2026-04-25T17:15:19.999Z</time></trkpt><trkpt lat="46.08529510664716" lon="12.96037371066563"><ele>113.0</ele><time>2026-04-25T17:15:20.999Z</time></trkpt><trkpt lat="46.085271332057175" lon="12.960741501566588"><ele>113.5</ele><time>2026-04-25T17:15:21.999Z</time></trkpt><trkpt lat="46.08524828091537" lon="12.961111200103938"><ele>114.0</ele><time>2026-04-25T17:15:23Z</time></trkpt><trkpt lat="46.085224330562575" lon="12.961478954122247"><ele>114.5</ele><time>2026-04-25T17:15:24Z</time></trkpt><trkpt lat="46.08520006194169" lon="12.961841873465549"><ele>115.0</ele><time>2026-04-25T17:15:25Z</time></trkpt><trkpt lat="46.08517409363916" lon="12.962202909351447"><ele>114.5</ele><time>2026-04-25T17:15:26Z</time></trkpt><trkpt lat="46.085150787278465" lon="12.962559280957462"><ele>114.0</ele><time>2026-04-25T17:15:27Z</time></trkpt><trkpt lat="46.08512889737945" lon="12.962915579293377"><ele>114.0</ele><time>2026-04-25T17:15:28Z</time></trkpt><trkpt lat="46.085103496412124" lon="12.963276088126603"><ele>114.0</ele><time>2026-04-25T17:15:29Z</time></trkpt><trkpt lat="46.08507592177133" lon="12.96363524097222"><ele>114.0</ele><time>2026-04-25T17:15:30Z</time></trkpt><trkpt lat="46.08505087860352" lon="12.963996083914589"><ele>114.0</ele><time>2026-04-25T17:15:31Z</time></trkpt><trkpt lat="46.085026917499206" lon="12.964354748414893"><ele>114.0</ele><time>2026-04-25T17:15:32Z</time></trkpt><trkpt lat="46.08500468266058" lon="12.96471388195499"><ele>114.0</ele><time>2026-04-25T17:15:33Z</time></trkpt><trkpt lat="46.08498172214997" lon="12.965073509714673"><ele>114.5</ele><time>2026-04-25T17:15:34Z</time></trkpt><trkpt lat="46.084957291619595" lon="12.965434468454983"><ele>115.0</ele><time>2026-04-25T17:15:35Z</time></trkpt><trkpt lat="46.08492765114328" lon="12.965798182940086"><ele>115.0</ele><time>2026-04-25T17:15:36Z</time></trkpt><trkpt lat="46.08489732259563" lon="12.966160705928692"><ele>115.0</ele><time>2026-04-25T17:15:37Z</time></trkpt><trkpt lat="46.084863999404384" lon="12.966527257057566"><ele>114.5</ele><time>2026-04-25T17:15:38Z</time></trkpt><trkpt lat="46.084824093919806" lon="12.966893879020308"><ele>114.0</ele><time>2026-04-25T17:15:39Z</time></trkpt><trkpt lat="46.084780124379215" lon="12.967261317758396"><ele>114.0</ele><time>2026-04-25T17:15:40Z</time></trkpt><trkpt lat="46.08473408555655" lon="12.9676310538221"><ele>114.0</ele><time>2026-04-25T17:15:41Z</time></trkpt><trkpt lat="46.08469083359568" lon="12.968005413913023"><ele>115.0</ele><time>2026-04-25T17:15:42Z</time></trkpt><trkpt lat="46.08464726601506" lon="12.968382568480012"><ele>116.0</ele><time>2026-04-25T17:15:43Z</time></trkpt><trkpt lat="46.084604632074935" lon="12.968759123997254"><ele>116.0</ele><time>2026-04-25T17:15:44Z</time></trkpt><trkpt lat="46.0845589964651" lon="12.969139799235911"><ele>116.0</ele><time>2026-04-25T17:15:45Z</time></trkpt><trkpt lat="46.08451145199567" lon="12.969520050062913"><ele>116.0</ele><time>2026-04-25T17:15:46Z</time></trkpt><trkpt lat="46.08446277311967" lon="12.969897598115798"><ele>116.0</ele><time>2026-04-25T17:15:47Z</time></trkpt><trkpt lat="46.08441628475428" lon="12.970274566284681"><ele>115.5</ele><time>2026-04-25T17:15:48Z</time></trkpt><trkpt lat="46.08437030027258" lon="12.97065180526"><ele>115.0</ele><time>2026-04-25T17:15:49Z</time></trkpt><trkpt lat="46.08432332476245" lon="12.971029606017956"><ele>115.0</ele><time>2026-04-25T17:15:50Z</time></trkpt><trkpt lat="46.08427732149861" lon="12.971406303357664"><ele>115.0</ele><time>2026-04-25T17:15:51Z</time></trkpt><trkpt lat="46.084232790049285" lon="12.971776980998762"><ele>115.5</ele><time>2026-04-25T17:15:52Z</time></trkpt><trkpt lat="46.084186467515764" lon="12.972147807970654"><ele>116.0</ele><time>2026-04-25T17:15:53Z</time></trkpt><trkpt lat="46.08414154651561" lon="12.972517547563477"><ele>116.5</ele><time>2026-04-25T17:15:54Z</time></trkpt><trkpt lat="46.084097572517585" lon="12.972886220527863"><ele>117.0</ele><time>2026-04-25T17:15:55Z</time></trkpt><trkpt lat="46.08405413973028" lon="12.973256856187124"><ele>117.0</ele><time>2026-04-25T17:15:56Z</time></trkpt><trkpt lat="46.084010846174735" lon="12.973625774053591"><ele>117.0</ele><time>2026-04-25T17:15:57Z</time></trkpt><trkpt lat="46.08396457569481" lon="12.973993889686023"><ele>117.0</ele><time>2026-04-25T17:15:58Z</time></trkpt><trkpt lat="46.08391685591675" lon="12.97436203631458"><ele>117.0</ele><time>2026-04-25T17:15:59Z</time></trkpt><trkpt lat="46.0838672937788" lon="12.974730921093354"><ele>117.5</ele><time>2026-04-25T17:16:00Z</time></trkpt><trkpt lat="46.08381345813182" lon="12.97509646093421"><ele>118.0</ele><time>2026-04-25T17:16:01Z</time></trkpt><trkpt lat="46.08375661013944" lon="12.975460118809762"><ele>118.0</ele><time>2026-04-25T17:16:02Z</time></trkpt><trkpt lat="46.08369999088314" lon="12.975825045411984"><ele>118.0</ele><time>2026-04-25T17:16:03Z</time></trkpt><trkpt lat="46.08364551690412" lon="12.97618906050516"><ele>118.0</ele><time>2026-04-25T17:16:04Z</time></trkpt><trkpt lat="46.08359044210757" lon="12.976555512955525"><ele>118.0</ele><time>2026-04-25T17:16:05Z</time></trkpt><trkpt lat="46.08353510660385" lon="12.9769210245108"><ele>118.5</ele><time>2026-04-25T17:16:06Z</time></trkpt><trkpt lat="46.08348056859603" lon="12.977285057000312"><ele>119.0</ele><time>2026-04-25T17:16:07Z</time></trkpt><trkpt lat="46.08342492592093" lon="12.97764974140802"><ele>119.0</ele><time>2026-04-25T17:16:08Z</time></trkpt><trkpt lat="46.083367455076484" lon="12.978010694418124"><ele>119.0</ele><time>2026-04-25T17:16:09Z</time></trkpt><trkpt lat="46.083309983219" lon="12.978374194565873"><ele>118.5</ele><time>2026-04-25T17:16:10Z</time></trkpt><trkpt lat="46.08325402381467" lon="12.978740333013207"><ele>118.0</ele><time>2026-04-25T17:16:11Z</time></trkpt><trkpt lat="46.08319889639442" lon="12.979107389342696"><ele>117.5</ele><time>2026-04-25T17:16:12Z</time></trkpt><trkpt lat="46.08314202568349" lon="12.97947917388669"><ele>117.0</ele><time>2026-04-25T17:16:13Z</time></trkpt><trkpt lat="46.08308577540337" lon="12.979850813320002"><ele>118.0</ele><time>2026-04-25T17:16:14Z</time></trkpt><trkpt lat="46.08302917344795" lon="12.980222712380785"><ele>119.0</ele><time>2026-04-25T17:16:15Z</time></trkpt><trkpt lat="46.08297051420373" lon="12.980592806319146"><ele>119.0</ele><time>2026-04-25T17:16:16Z</time></trkpt><trkpt lat="46.08291457289922" lon="12.980959039517067"><ele>119.0</ele><time>2026-04-25T17:16:17Z</time></trkpt><trkpt lat="46.082858498610776" lon="12.981322304931052"><ele>118.0</ele><time>2026-04-25T17:16:18Z</time></trkpt><trkpt lat="46.08280067125084" lon="12.981684997711794"><ele>117.0</ele><time>2026-04-25T17:16:19Z</time></trkpt><trkpt lat="46.08274385271275" lon="12.982044382059566"><ele>117.0</ele><time>2026-04-25T17:16:20Z</time></trkpt><trkpt lat="46.08269041924158" lon="12.982385649954436"><ele>117.0</ele><time>2026-04-25T17:16:21Z</time></trkpt><trkpt lat="46.08264132601822" lon="12.982702047349363"><ele>117.33333333333334</ele><time>2026-04-25T17:16:22Z</time></trkpt><trkpt lat="46.08259616810867" lon="12.982996962461433"><ele>117.66666666666667</ele><time>2026-04-25T17:16:23Z</time></trkpt><trkpt lat="46.08255431344844" lon="12.983277752705222"><ele>118.0</ele><time>2026-04-25T17:16:24Z</time></trkpt><trkpt lat="46.082512717103675" lon="12.98355837564298"><ele>118.33333333333334</ele><time>2026-04-25T17:16:25Z</time></trkpt><trkpt lat="46.08247033056869" lon="12.983845863805797"><ele>118.66666666666666</ele><time>2026-04-25T17:16:26Z</time></trkpt><trkpt lat="46.08242653822141" lon="12.984134976423576"><ele>119.0</ele><time>2026-04-25T17:16:27Z</time></trkpt><trkpt lat="46.082383358223005" lon="12.984422827459932"><ele>119.0</ele><time>2026-04-25T17:16:28Z</time></trkpt><trkpt lat="46.08233811000676" lon="12.984714617889622"><ele>119.0</ele><time>2026-04-25T17:16:29Z</time></trkpt><trkpt lat="46.08229175543127" lon="12.985009994171198"><ele>119.0</ele><time>2026-04-25T17:16:30Z</time></trkpt><trkpt lat="46.08224328032031" lon="12.985310167589512"><ele>119.0</ele><time>2026-04-25T17:16:31Z</time></trkpt><trkpt lat="46.082194701674176" lon="12.985608300201047"><ele>119.0</ele><time>2026-04-25T17:16:32Z</time></trkpt><trkpt lat="46.08215233099015" lon="12.98590100470508"><ele>119.0</ele><time>2026-04-25T17:16:33Z</time></trkpt><trkpt lat="46.08211348075299" lon="12.986187861681044"><ele>119.0</ele><time>2026-04-25T17:16:34Z</time></trkpt><trkpt lat="46.08207818781889" lon="12.986470307612922"><ele>119.0</ele><time>2026-04-25T17:16:35Z</time></trkpt><trkpt lat="46.082043529120384" lon="12.986744624990276"><ele>119.0</ele><time>2026-04-25T17:16:36Z</time></trkpt><trkpt lat="46.08200986180569" lon="12.987014846687606"><ele>119.0</ele><time>2026-04-25T17:16:37Z</time></trkpt><trkpt lat="46.08197741188772" lon="12.98727930702065"><ele>119.0</ele><time>2026-04-25T17:16:38Z</time></trkpt><trkpt lat="46.081947470080294" lon="12.98753481688177"><ele>119.0</ele><time>2026-04-25T17:16:39Z</time></trkpt><trkpt lat="46.08191951229102" lon="12.987765163899715"><ele>119.0</ele><time>2026-04-25T17:16:40Z</time></trkpt><trkpt lat="46.08189306667677" lon="12.987979279276711"><ele>119.0</ele><time>2026-04-25T17:16:41Z</time></trkpt><trkpt lat="46.08186950793531" lon="12.988168973748717"><ele>119.0</ele><time>2026-04-25T17:16:42Z</time></trkpt><trkpt lat="46.081849772110004" lon="12.98833593775203"><ele>119.0</ele><time>2026-04-25T17:16:43Z</time></trkpt><trkpt lat="46.08182768236247" lon="12.988490502795843"><ele>119.2</ele><time>2026-04-25T17:16:44Z</time></trkpt><trkpt lat="46.081799108071685" lon="12.988628643415812"><ele>119.4</ele><time>2026-04-25T17:16:45Z</time></trkpt><trkpt lat="46.08175811611782" lon="12.988750705340072"><ele>119.6</ele><time>2026-04-25T17:16:46Z</time></trkpt><trkpt lat="46.0816988601232" lon="12.988865840332524"><ele>119.8</ele><time>2026-04-25T17:16:47Z</time></trkpt><trkpt lat="46.08164903689116" lon="12.988991111845955"><ele>120.0</ele><time>2026-04-25T17:16:48Z</time></trkpt><trkpt lat="46.081635083404834" lon="12.989136845680719"><ele>119.75</ele><time>2026-04-25T17:16:49Z</time></trkpt><trkpt lat="46.08165266808832" lon="12.989297434009906"><ele>119.5</ele><time>2026-04-25T17:16:50Z</time></trkpt><trkpt lat="46.081676483932185" lon="12.989484006126082"><ele>119.25</ele><time>2026-04-25T17:16:51Z</time></trkpt><trkpt lat="46.08167052413763" lon="12.989693165095861"><ele>119.0</ele><time>2026-04-25T17:16:52Z</time></trkpt><trkpt lat="46.081650245098835" lon="12.989913911910412"><ele>119.0</ele><time>2026-04-25T17:16:53Z</time></trkpt><trkpt lat="46.081622851341116" lon="12.990144032020513"><ele>119.0</ele><time>2026-04-25T17:16:53.999Z</time></trkpt><trkpt lat="46.08159249606181" lon="12.990392590315142"><ele>119.0</ele><time>2026-04-25T17:16:54.999Z</time></trkpt><trkpt lat="46.081562341861094" lon="12.990648407115364"><ele>119.33333333333333</ele><time>2026-04-25T17:16:55.999Z</time></trkpt><trkpt lat="46.081536225494155" lon="12.990897992556055"><ele>119.66666666666666</ele><time>2026-04-25T17:16:56.999Z</time></trkpt><trkpt lat="46.0815129676915" lon="12.991146368807534"><ele>120.0</ele><time>2026-04-25T17:16:57.999Z</time></trkpt><trkpt lat="46.08149288267732" lon="12.99140015679045"><ele>120.0</ele><time>2026-04-25T17:16:58.999Z</time></trkpt><trkpt lat="46.08147864733331" lon="12.991666086137217"><ele>120.0</ele><time>2026-04-25T17:16:59.999Z</time></trkpt><trkpt lat="46.08146953198433" lon="12.991940662457315"><ele>120.0</ele><time>2026-04-25T17:17:00.999Z</time></trkpt><trkpt lat="46.081464818714146" lon="12.99222173628232"><ele>119.66666666666666</ele><time>2026-04-25T17:17:01.999Z</time></trkpt><trkpt lat="46.08146511873308" lon="12.992515391369988"><ele>119.33333333333333</ele><time>2026-04-25T17:17:02.999Z</time></trkpt><trkpt lat="46.08147157971255" lon="12.992816283559234"><ele>119.0</ele><time>2026-04-25T17:17:03.999Z</time></trkpt><trkpt lat="46.081484550814714" lon="12.993124099929155"><ele>119.66666666666666</ele><time>2026-04-25T17:17:04.999Z</time></trkpt><trkpt lat="46.081507473309124" lon="12.993437610328282"><ele>120.33333333333334</ele><time>2026-04-25T17:17:05.999Z</time></trkpt><trkpt lat="46.081538004709415" lon="12.993752051204634"><ele>121.0</ele><time>2026-04-25T17:17:06.999Z</time></trkpt><trkpt lat="46.081570451215775" lon="12.99406020558627"><ele>120.66666666666667</ele><time>2026-04-25T17:17:07.999Z</time></trkpt><trkpt lat="46.08160481995952" lon="12.994371095784969"><ele>120.33333333333334</ele><time>2026-04-25T17:17:08.999Z</time></trkpt><trkpt lat="46.08164023465198" lon="12.994683771272003"><ele>120.0</ele><time>2026-04-25T17:17:09.999Z</time></trkpt><trkpt lat="46.08167657417127" lon="12.994996467391672"><ele>120.33333333333334</ele><time>2026-04-25T17:17:10.999Z</time></trkpt><trkpt lat="46.081711426635756" lon="12.995308310668511"><ele>120.66666666666667</ele><time>2026-04-25T17:17:11.999Z</time></trkpt><trkpt lat="46.08174388305726" lon="12.99562395422611"><ele>121.0</ele><time>2026-04-25T17:17:12.999Z</time></trkpt><trkpt lat="46.08177601489908" lon="12.995939972897794"><ele>121.0</ele><time>2026-04-25T17:17:13.999Z</time></trkpt><trkpt lat="46.081810114600465" lon="12.996258177285172"><ele>121.0</ele><time>2026-04-25T17:17:14.999Z</time></trkpt><trkpt lat="46.08184578112465" lon="12.996577387615538"><ele>121.0</ele><time>2026-04-25T17:17:15.999Z</time></trkpt><trkpt lat="46.0818806914937" lon="12.996899334916959"><ele>120.5</ele><time>2026-04-25T17:17:16.999Z</time></trkpt><trkpt lat="46.08191598405423" lon="12.997226295939921"><ele>120.0</ele><time>2026-04-25T17:17:17.999Z</time></trkpt><trkpt lat="46.08195207425524" lon="12.99755656255557"><ele>119.5</ele><time>2026-04-25T17:17:18.999Z</time></trkpt><trkpt lat="46.08198702342284" lon="12.997890847273961"><ele>119.0</ele><time>2026-04-25T17:17:19.999Z</time></trkpt><trkpt lat="46.082022134512464" lon="12.998228458483764"><ele>119.5</ele><time>2026-04-25T17:17:20.999Z</time></trkpt><trkpt lat="46.08205891352128" lon="12.998565605633578"><ele>120.0</ele><time>2026-04-25T17:17:21.999Z</time></trkpt><trkpt lat="46.082097351669574" lon="12.998902449774718"><ele>120.5</ele><time>2026-04-25T17:17:22.999Z</time></trkpt><trkpt lat="46.08213514560077" lon="12.999237453312723"><ele>121.0</ele><time>2026-04-25T17:17:23.999Z</time></trkpt><trkpt lat="46.08217125197713" lon="12.999567159452194"><ele>121.0</ele><time>2026-04-25T17:17:24.999Z</time></trkpt><trkpt lat="46.082203846609765" lon="12.999891497755"><ele>121.0</ele><time>2026-04-25T17:17:25.999Z</time></trkpt><trkpt lat="46.08223744042044" lon="13.000186161008802"><ele>121.0</ele><time>2026-04-25T17:17:26.999Z</time></trkpt><trkpt lat="46.08226915229128" lon="13.000474492280679"><ele>121.0</ele><time>2026-04-25T17:17:28Z</time></trkpt><trkpt lat="46.082299781482874" lon="13.00075592937665"><ele>121.0</ele><time>2026-04-25T17:17:29Z</time></trkpt><trkpt lat="46.08232807307239" lon="13.001033893558512"><ele>121.0</ele><time>2026-04-25T17:17:30Z</time></trkpt><trkpt lat="46.082358405232974" lon="13.001317362798428"><ele>121.0</ele><time>2026-04-25T17:17:31Z</time></trkpt><trkpt lat="46.08239096753747" lon="13.001606783415989"><ele>121.0</ele><time>2026-04-25T17:17:32Z</time></trkpt><trkpt lat="46.08242312703791" lon="13.001895064301744"><ele>121.0</ele><time>2026-04-25T17:17:33Z</time></trkpt><trkpt lat="46.082453273605246" lon="13.002181256174707"><ele>121.33333333333334</ele><time>2026-04-25T17:17:34Z</time></trkpt><trkpt lat="46.08248319217308" lon="13.002468030090233"><ele>121.66666666666666</ele><time>2026-04-25T17:17:35Z</time></trkpt><trkpt lat="46.08251436024742" lon="13.002755655446668"><ele>122.0</ele><time>2026-04-25T17:17:36Z</time></trkpt><trkpt lat="46.08254542686712" lon="13.003040081150077"><ele>122.0</ele><time>2026-04-25T17:17:37Z</time></trkpt><trkpt lat="46.08257506597624" lon="13.003314084170277"><ele>122.0</ele><time>2026-04-25T17:17:38Z</time></trkpt><trkpt lat="46.08260500978298" lon="13.003593108014224"><ele>122.0</ele><time>2026-04-25T17:17:39Z</time></trkpt><trkpt lat="46.082635536108505" lon="13.003869025289388"><ele>122.0</ele><time>2026-04-25T17:17:40Z</time></trkpt><trkpt lat="46.08266446632515" lon="13.004144317220003"><ele>122.0</ele><time>2026-04-25T17:17:41Z</time></trkpt><trkpt lat="46.08269296697298" lon="13.004419120664371"><ele>122.0</ele><time>2026-04-25T17:17:42Z</time></trkpt><trkpt lat="46.0827217196494" lon="13.004691897388753"><ele>121.33333333333333</ele><time>2026-04-25T17:17:43Z</time></trkpt><trkpt lat="46.08275072733511" lon="13.004961768799166"><ele>120.66666666666666</ele><time>2026-04-25T17:17:44Z</time></trkpt><trkpt lat="46.082778308516836" lon="13.00523254630924"><ele>120.0</ele><time>2026-04-25T17:17:45Z</time></trkpt><trkpt lat="46.08280819336161" lon="13.00550237948614"><ele>120.0</ele><time>2026-04-25T17:17:46Z</time></trkpt><trkpt lat="46.08283863649158" lon="13.005777133700674"><ele>120.0</ele><time>2026-04-25T17:17:47Z</time></trkpt><trkpt lat="46.08287030544011" lon="13.006053334072611"><ele>120.0</ele><time>2026-04-25T17:17:48Z</time></trkpt><trkpt lat="46.082902941056844" lon="13.006335612300214"><ele>120.0</ele><time>2026-04-25T17:17:49Z</time></trkpt><trkpt lat="46.08293666082417" lon="13.006622306523004"><ele>120.0</ele><time>2026-04-25T17:17:50Z</time></trkpt><trkpt lat="46.082967765544204" lon="13.006910781425894"><ele>120.0</ele><time>2026-04-25T17:17:51Z</time></trkpt><trkpt lat="46.082996290071314" lon="13.007199459363724"><ele>120.0</ele><time>2026-04-25T17:17:52Z</time></trkpt><trkpt lat="46.08302813132166" lon="13.007488448016929"><ele>120.0</ele><time>2026-04-25T17:17:53Z</time></trkpt><trkpt lat="46.08305806047066" lon="13.00777016690018"><ele>120.0</ele><time>2026-04-25T17:17:54Z</time></trkpt><trkpt lat="46.08308785043474" lon="13.008050695857207"><ele>120.33333333333334</ele><time>2026-04-25T17:17:55Z</time></trkpt><trkpt lat="46.083117542142915" lon="13.008332432955914"><ele>120.66666666666667</ele><time>2026-04-25T17:17:56Z</time></trkpt><trkpt lat="46.0831473836099" lon="13.008612488149014"><ele>121.0</ele><time>2026-04-25T17:17:57Z</time></trkpt><trkpt lat="46.08317798645146" lon="13.008896989405555"><ele>121.0</ele><time>2026-04-25T17:17:58Z</time></trkpt><trkpt lat="46.08320838303497" lon="13.009188777328289"><ele>121.0</ele><time>2026-04-25T17:17:59Z</time></trkpt><trkpt lat="46.08324065660233" lon="13.009486260774226"><ele>121.0</ele><time>2026-04-25T17:18:00Z</time></trkpt><trkpt lat="46.08327419576775" lon="13.009786178215132"><ele>121.33333333333334</ele><time>2026-04-25T17:18:01Z</time></trkpt><trkpt lat="46.0833053626248" lon="13.010090307586102"><ele>121.66666666666666</ele><time>2026-04-25T17:18:02Z</time></trkpt><trkpt lat="46.083339820804056" lon="13.0104048586758"><ele>122.0</ele><time>2026-04-25T17:18:03Z</time></trkpt><trkpt lat="46.08337640928925" lon="13.010729095823574"><ele>122.5</ele><time>2026-04-25T17:18:04Z</time></trkpt><trkpt lat="46.08341105988092" lon="13.011058254287182"><ele>123.0</ele><time>2026-04-25T17:18:05Z</time></trkpt><trkpt lat="46.083447429668894" lon="13.011391702322987"><ele>123.0</ele><time>2026-04-25T17:18:06Z</time></trkpt><trkpt lat="46.08348607506308" lon="13.011732701954065"><ele>123.0</ele><time>2026-04-25T17:18:07Z</time></trkpt><trkpt lat="46.08352663302164" lon="13.012076818534327"><ele>123.0</ele><time>2026-04-25T17:18:08Z</time></trkpt><trkpt lat="46.08356665726277" lon="13.012421666120485"><ele>123.0</ele><time>2026-04-25T17:18:09Z</time></trkpt><trkpt lat="46.08360333900822" lon="13.01275106428304"><ele>123.0</ele><time>2026-04-25T17:18:10Z</time></trkpt><trkpt lat="46.08363795170029" lon="13.013073412700852"><ele>123.0</ele><time>2026-04-25T17:18:11Z</time></trkpt><trkpt lat="46.08367154148492" lon="13.013389411835545"><ele>123.0</ele><time>2026-04-25T17:18:12Z</time></trkpt><trkpt lat="46.08370266585154" lon="13.013701241569333"><ele>123.0</ele><time>2026-04-25T17:18:13Z</time></trkpt><trkpt lat="46.08373407248183" lon="13.014003041793293"><ele>123.0</ele><time>2026-04-25T17:18:14Z</time></trkpt><trkpt lat="46.08376443409569" lon="13.014290313167928"><ele>123.0</ele><time>2026-04-25T17:18:15Z</time></trkpt><trkpt lat="46.08379453541501" lon="13.01458106406041"><ele>123.0</ele><time>2026-04-25T17:18:16Z</time></trkpt><trkpt lat="46.08382625250938" lon="13.014878739689669"><ele>123.0</ele><time>2026-04-25T17:18:17Z</time></trkpt><trkpt lat="46.08385792016768" lon="13.015180410014725"><ele>123.0</ele><time>2026-04-25T17:18:18Z</time></trkpt><trkpt lat="46.08389070018847" lon="13.015486246435254"><ele>123.0</ele><time>2026-04-25T17:18:19Z</time></trkpt><trkpt lat="46.083924807126806" lon="13.015797007939733"><ele>123.0</ele><time>2026-04-25T17:18:20Z</time></trkpt><trkpt lat="46.08395916669196" lon="13.01611214800413"><ele>123.0</ele><time>2026-04-25T17:18:21Z</time></trkpt><trkpt lat="46.083992873195044" lon="13.016424338944518"><ele>122.0</ele><time>2026-04-25T17:18:22Z</time></trkpt><trkpt lat="46.08402705250512" lon="13.016736966395564"><ele>121.0</ele><time>2026-04-25T17:18:23Z</time></trkpt><trkpt lat="46.08406158228551" lon="13.01704173766553"><ele>120.0</ele><time>2026-04-25T17:18:24Z</time></trkpt><trkpt lat="46.08409462443598" lon="13.017338211747974"><ele>119.33333333333334</ele><time>2026-04-25T17:18:25Z</time></trkpt><trkpt lat="46.08412751606516" lon="13.017628414132103"><ele>118.66666666666667</ele><time>2026-04-25T17:18:26Z</time></trkpt><trkpt lat="46.08415822105911" lon="13.01791486847001"><ele>118.0</ele><time>2026-04-25T17:18:27Z</time></trkpt><trkpt lat="46.08418876761259" lon="13.018202240742928"><ele>116.66666666666667</ele><time>2026-04-25T17:18:28Z</time></trkpt><trkpt lat="46.084218579179534" lon="13.018493976895597"><ele>115.33333333333334</ele><time>2026-04-25T17:18:29Z</time></trkpt><trkpt lat="46.084249866997986" lon="13.0187879885148"><ele>114.0</ele><time>2026-04-25T17:18:30Z</time></trkpt><trkpt lat="46.08428110217393" lon="13.019084609195644"><ele>113.0</ele><time>2026-04-25T17:18:31Z</time></trkpt><trkpt lat="46.084314031775456" lon="13.01938399351457"><ele>112.0</ele><time>2026-04-25T17:18:32Z</time></trkpt><trkpt lat="46.0843482306523" lon="13.019687713395577"><ele>111.0</ele><time>2026-04-25T17:18:33Z</time></trkpt><trkpt lat="46.084382229119484" lon="13.019992673611393"><ele>110.66666666666666</ele><time>2026-04-25T17:18:34Z</time></trkpt><trkpt lat="46.084414604091215" lon="13.02029549939972"><ele>110.33333333333333</ele><time>2026-04-25T17:18:35Z</time></trkpt><trkpt lat="46.08444707916691" lon="13.020600366961594"><ele>110.0</ele><time>2026-04-25T17:18:36Z</time></trkpt><trkpt lat="46.08448021040882" lon="13.02090841688879"><ele>109.33333333333333</ele><time>2026-04-25T17:18:37Z</time></trkpt><trkpt lat="46.08451489267452" lon="13.021221287624707"><ele>108.66666666666666</ele><time>2026-04-25T17:18:38Z</time></trkpt><trkpt lat="46.08454986649707" lon="13.02153565866542"><ele>108.0</ele><time>2026-04-25T17:18:39Z</time></trkpt><trkpt lat="46.08458469487747" lon="13.021844279858918"><ele>108.0</ele><time>2026-04-25T17:18:40Z</time></trkpt><trkpt lat="46.084616892261856" lon="13.02214691871686"><ele>108.0</ele><time>2026-04-25T17:18:41Z</time></trkpt><trkpt lat="46.08464852222517" lon="13.022449175613227"><ele>108.0</ele><time>2026-04-25T17:18:42Z</time></trkpt><trkpt lat="46.08467968184845" lon="13.022739295102442"><ele>108.33333333333334</ele><time>2026-04-25T17:18:43Z</time></trkpt><trkpt lat="46.08470961670567" lon="13.023011462617061"><ele>108.66666666666667</ele><time>2026-04-25T17:18:44Z</time></trkpt><trkpt lat="46.08473977632064" lon="13.023263819082818"><ele>109.0</ele><time>2026-04-25T17:18:45Z</time></trkpt><trkpt lat="46.084765413071395" lon="13.023492315329868"><ele>109.0</ele><time>2026-04-25T17:18:46Z</time></trkpt><trkpt lat="46.0847869139617" lon="13.023699973683359"><ele>109.0</ele><time>2026-04-25T17:18:47Z</time></trkpt><trkpt lat="46.084804097636706" lon="13.023892600332598"><ele>109.0</ele><time>2026-04-25T17:18:48Z</time></trkpt><trkpt lat="46.084818938331864" lon="13.024066462869543"><ele>109.0</ele><time>2026-04-25T17:18:49Z</time></trkpt><trkpt lat="46.08482593515301" lon="13.024223279937331"><ele>109.2</ele><time>2026-04-25T17:18:50Z</time></trkpt><trkpt lat="46.08481380548278" lon="13.024366044101484"><ele>109.4</ele><time>2026-04-25T17:18:51Z</time></trkpt><trkpt lat="46.084782241519086" lon="13.024495966968134"><ele>109.6</ele><time>2026-04-25T17:18:51.999Z</time></trkpt><trkpt lat="46.08472867334945" lon="13.024618314160522"><ele>109.8</ele><time>2026-04-25T17:18:52.999Z</time></trkpt><trkpt lat="46.08469618484592" lon="13.024746843293858"><ele>110.0</ele><time>2026-04-25T17:18:53.999Z</time></trkpt><trkpt lat="46.084708558431196" lon="13.024881877350072"><ele>109.75</ele><time>2026-04-25T17:18:54.999Z</time></trkpt><trkpt lat="46.084760717629415" lon="13.025002561486094"><ele>109.5</ele><time>2026-04-25T17:18:55.999Z</time></trkpt><trkpt lat="46.08484608287717" lon="13.025116092151618"><ele>109.25</ele><time>2026-04-25T17:18:56.999Z</time></trkpt><trkpt lat="46.08492000006223" lon="13.02525306495418"><ele>109.0</ele><time>2026-04-25T17:18:57.999Z</time></trkpt><trkpt lat="46.084960949000795" lon="13.025420761243309"><ele>109.0</ele><time>2026-04-25T17:18:58.999Z</time></trkpt><trkpt lat="46.08498792099243" lon="13.025615466185531"><ele>109.0</ele><time>2026-04-25T17:18:59.999Z</time></trkpt><trkpt lat="46.08501141937656" lon="13.025825952376648"><ele>109.0</ele><time>2026-04-25T17:19:00.999Z</time></trkpt><trkpt lat="46.0850376510517" lon="13.02604549341678"><ele>109.0</ele><time>2026-04-25T17:19:01.999Z</time></trkpt><trkpt lat="46.08506320905961" lon="13.02628369484552"><ele>109.33333333333334</ele><time>2026-04-25T17:19:02.999Z</time></trkpt><trkpt lat="46.08508947758167" lon="13.026521262124449"><ele>109.66666666666666</ele><time>2026-04-25T17:19:03.999Z</time></trkpt><trkpt lat="46.085118161068095" lon="13.026773235930115"><ele>110.0</ele><time>2026-04-25T17:19:04.999Z</time></trkpt><trkpt lat="46.08514496374087" lon="13.027039234675112"><ele>110.0</ele><time>2026-04-25T17:19:05.999Z</time></trkpt><trkpt lat="46.085174534855945" lon="13.027313351463125"><ele>110.0</ele><time>2026-04-25T17:19:06.999Z</time></trkpt><trkpt lat="46.08520785697804" lon="13.027604147153937"><ele>110.0</ele><time>2026-04-25T17:19:07.999Z</time></trkpt><trkpt lat="46.085241814569656" lon="13.027911935088607"><ele>110.0</ele><time>2026-04-25T17:19:08.999Z</time></trkpt><trkpt lat="46.08527638436313" lon="13.0282305128591"><ele>110.0</ele><time>2026-04-25T17:19:09.999Z</time></trkpt><trkpt lat="46.0853117102964" lon="13.028547763020544"><ele>110.0</ele><time>2026-04-25T17:19:10.999Z</time></trkpt><trkpt lat="46.08534521193418" lon="13.028860973276704"><ele>110.0</ele><time>2026-04-25T17:19:11.999Z</time></trkpt><trkpt lat="46.08537905780069" lon="13.029177865756532"><ele>110.0</ele><time>2026-04-25T17:19:12.999Z</time></trkpt><trkpt lat="46.085412976991805" lon="13.029491456305937"><ele>110.0</ele><time>2026-04-25T17:19:13.999Z</time></trkpt><trkpt lat="46.085446792353665" lon="13.029800153729672"><ele>110.33333333333333</ele><time>2026-04-25T17:19:14.999Z</time></trkpt><trkpt lat="46.085479836229325" lon="13.030106289534148"><ele>110.66666666666666</ele><time>2026-04-25T17:19:15.999Z</time></trkpt><trkpt lat="46.085511115418925" lon="13.030409138810983"><ele>111.0</ele><time>2026-04-25T17:19:16.999Z</time></trkpt><trkpt lat="46.08554197607076" lon="13.030715978207693"><ele>111.0</ele><time>2026-04-25T17:19:17.999Z</time></trkpt><trkpt lat="46.085576124352805" lon="13.03103155776944"><ele>111.0</ele><time>2026-04-25T17:19:18.999Z</time></trkpt><trkpt lat="46.08561185774493" lon="13.03135845368287"><ele>111.0</ele><time>2026-04-25T17:19:19.999Z</time></trkpt><trkpt lat="46.085647672439464" lon="13.031695706933974"><ele>111.0</ele><time>2026-04-25T17:19:20.999Z</time></trkpt><trkpt lat="46.08568586519125" lon="13.032039434787144"><ele>111.0</ele><time>2026-04-25T17:19:21.999Z</time></trkpt><trkpt lat="46.08572524396071" lon="13.0323808168244"><ele>111.0</ele><time>2026-04-25T17:19:22.999Z</time></trkpt><trkpt lat="46.085760973511206" lon="13.032713198637573"><ele>111.5</ele><time>2026-04-25T17:19:23.999Z</time></trkpt><trkpt lat="46.0857947280669" lon="13.033046737425543"><ele>112.0</ele><time>2026-04-25T17:19:24.999Z</time></trkpt><trkpt lat="46.085830109934776" lon="13.03338088185387"><ele>112.0</ele><time>2026-04-25T17:19:25.999Z</time></trkpt><trkpt lat="46.08586606187469" lon="13.033721237712133"><ele>112.0</ele><time>2026-04-25T17:19:26.999Z</time></trkpt><trkpt lat="46.085901976480024" lon="13.034070299193598"><ele>113.0</ele><time>2026-04-25T17:19:27.999Z</time></trkpt><trkpt lat="46.08593853528013" lon="13.034414978105952"><ele>114.0</ele><time>2026-04-25T17:19:28.999Z</time></trkpt><trkpt lat="46.08597338735327" lon="13.03474686716852"><ele>115.33333333333334</ele><time>2026-04-25T17:19:29.999Z</time></trkpt><trkpt lat="46.086009191279246" lon="13.035068707928481"><ele>116.66666666666667</ele><time>2026-04-25T17:19:30.999Z</time></trkpt><trkpt lat="46.086041784599786" lon="13.035382872232358"><ele>118.0</ele><time>2026-04-25T17:19:31.999Z</time></trkpt><trkpt lat="46.08607559431355" lon="13.035695312614974"><ele>119.33333333333334</ele><time>2026-04-25T17:19:32.999Z</time></trkpt><trkpt lat="46.086110575409585" lon="13.036005097083292"><ele>120.66666666666666</ele><time>2026-04-25T17:19:34Z</time></trkpt><trkpt lat="46.08614450915274" lon="13.036321766874494"><ele>122.0</ele><time>2026-04-25T17:19:35Z</time></trkpt><trkpt lat="46.08618043182614" lon="13.036644346979765"><ele>123.0</ele><time>2026-04-25T17:19:36Z</time></trkpt><trkpt lat="46.08621613416913" lon="13.036968284910346"><ele>124.0</ele><time>2026-04-25T17:19:37Z</time></trkpt><trkpt lat="46.086253360592586" lon="13.037296265925015"><ele>124.0</ele><time>2026-04-25T17:19:38Z</time></trkpt><trkpt lat="46.08628992017412" lon="13.037627284247405"><ele>124.0</ele><time>2026-04-25T17:19:39Z</time></trkpt><trkpt lat="46.08632547102536" lon="13.03796323779012"><ele>124.0</ele><time>2026-04-25T17:19:40Z</time></trkpt><trkpt lat="46.08636296488361" lon="13.038302365378632"><ele>124.0</ele><time>2026-04-25T17:19:41Z</time></trkpt><trkpt lat="46.086398489009575" lon="13.038636048013426"><ele>124.0</ele><time>2026-04-25T17:19:42Z</time></trkpt><trkpt lat="46.08643299180403" lon="13.038965661252412"><ele>124.0</ele><time>2026-04-25T17:19:43Z</time></trkpt><trkpt lat="46.086466568088674" lon="13.03929148893282"><ele>123.66666666666667</ele><time>2026-04-25T17:19:44Z</time></trkpt><trkpt lat="46.08650191606337" lon="13.039610854820952"><ele>123.33333333333334</ele><time>2026-04-25T17:19:45Z</time></trkpt><trkpt lat="46.086537657541264" lon="13.039927911152553"><ele>123.0</ele><time>2026-04-25T17:19:46Z</time></trkpt><trkpt lat="46.08657191366707" lon="13.040242438844567"><ele>123.33333333333334</ele><time>2026-04-25T17:19:47Z</time></trkpt><trkpt lat="46.086604059618175" lon="13.040556352265426"><ele>123.66666666666667</ele><time>2026-04-25T17:19:48Z</time></trkpt><trkpt lat="46.08663572781591" lon="13.040869515851107"><ele>124.0</ele><time>2026-04-25T17:19:49Z</time></trkpt><trkpt lat="46.08666984362459" lon="13.041183789806643"><ele>124.0</ele><time>2026-04-25T17:19:50Z</time></trkpt><trkpt lat="46.086703231178824" lon="13.041491269777424"><ele>124.0</ele><time>2026-04-25T17:19:51Z</time></trkpt><trkpt lat="46.086738700289935" lon="13.04179593422674"><ele>124.0</ele><time>2026-04-25T17:19:52Z</time></trkpt><trkpt lat="46.08678084367129" lon="13.042094894040353"><ele>124.33333333333334</ele><time>2026-04-25T17:19:53Z</time></trkpt><trkpt lat="46.08682730983217" lon="13.042384756883314"><ele>124.66666666666666</ele><time>2026-04-25T17:19:54Z</time></trkpt><trkpt lat="46.086881845086715" lon="13.04266465613489"><ele>125.0</ele><time>2026-04-25T17:19:55Z</time></trkpt><trkpt lat="46.08693906347213" lon="13.04293985885566"><ele>125.0</ele><time>2026-04-25T17:19:56Z</time></trkpt><trkpt lat="46.08699981330764" lon="13.04321407936342"><ele>125.0</ele><time>2026-04-25T17:19:57Z</time></trkpt><trkpt lat="46.0870710802702" lon="13.043489027296918"><ele>125.0</ele><time>2026-04-25T17:19:58Z</time></trkpt><trkpt lat="46.08715077676656" lon="13.043759173065794"><ele>125.0</ele><time>2026-04-25T17:19:59Z</time></trkpt><trkpt lat="46.08723295762536" lon="13.04402312442981"><ele>125.0</ele><time>2026-04-25T17:20:00Z</time></trkpt><trkpt lat="46.087314889543926" lon="13.044271863072465"><ele>125.0</ele><time>2026-04-25T17:20:01Z</time></trkpt><trkpt lat="46.08739400224878" lon="13.044498715542794"><ele>124.66666666666666</ele><time>2026-04-25T17:20:02Z</time></trkpt><trkpt lat="46.08746666138313" lon="13.044715604553808"><ele>124.33333333333334</ele><time>2026-04-25T17:20:03Z</time></trkpt><trkpt lat="46.087536521746785" lon="13.044927172032239"><ele>124.0</ele><time>2026-04-25T17:20:04Z</time></trkpt><trkpt lat="46.08760572685039" lon="13.045136686400184"><ele>124.0</ele><time>2026-04-25T17:20:05Z</time></trkpt><trkpt lat="46.087672568389074" lon="13.04534655740859"><ele>124.0</ele><time>2026-04-25T17:20:06Z</time></trkpt><trkpt lat="46.087743628926155" lon="13.045561098424084"><ele>124.0</ele><time>2026-04-25T17:20:07Z</time></trkpt><trkpt lat="46.08781546442724" lon="13.045774093239743"><ele>124.33333333333334</ele><time>2026-04-25T17:20:08Z</time></trkpt><trkpt lat="46.087883679651554" lon="13.045989308236196"><ele>124.66666666666666</ele><time>2026-04-25T17:20:09Z</time></trkpt><trkpt lat="46.087951788919085" lon="13.046203613102072"><ele>125.0</ele><time>2026-04-25T17:20:10Z</time></trkpt><trkpt lat="46.088019694691056" lon="13.046409838594768"><ele>125.0</ele><time>2026-04-25T17:20:11Z</time></trkpt><trkpt lat="46.088087452272944" lon="13.046616505266902"><ele>125.0</ele><time>2026-04-25T17:20:12Z</time></trkpt><trkpt lat="46.08815191144774" lon="13.04682738656915"><ele>125.0</ele><time>2026-04-25T17:20:13Z</time></trkpt><trkpt lat="46.08821073308276" lon="13.047040873327953"><ele>126.0</ele><time>2026-04-25T17:20:14Z</time></trkpt><trkpt lat="46.088260434283015" lon="13.04725951768812"><ele>127.0</ele><time>2026-04-25T17:20:15Z</time></trkpt><trkpt lat="46.08830290751875" lon="13.047486313800144"><ele>128.0</ele><time>2026-04-25T17:20:16Z</time></trkpt><trkpt lat="46.088341538943986" lon="13.047719399132804"><ele>128.0</ele><time>2026-04-25T17:20:17Z</time></trkpt><trkpt lat="46.088378433255336" lon="13.047966042929206"><ele>128.0</ele><time>2026-04-25T17:20:18Z</time></trkpt><trkpt lat="46.08841570607689" lon="13.04822628993265"><ele>128.0</ele><time>2026-04-25T17:20:19Z</time></trkpt><trkpt lat="46.088444090415486" lon="13.048506035315816"><ele>127.66666666666666</ele><time>2026-04-25T17:20:20Z</time></trkpt><trkpt lat="46.088463138196616" lon="13.048805162308092"><ele>127.33333333333334</ele><time>2026-04-25T17:20:21Z</time></trkpt><trkpt lat="46.088471651533204" lon="13.049117201327158"><ele>127.0</ele><time>2026-04-25T17:20:22Z</time></trkpt><trkpt lat="46.08846861153909" lon="13.049433324093533"><ele>127.33333333333334</ele><time>2026-04-25T17:20:23Z</time></trkpt><trkpt lat="46.08845752844899" lon="13.049746221231679"><ele>127.66666666666666</ele><time>2026-04-25T17:20:24Z</time></trkpt><trkpt lat="46.08843802347183" lon="13.050050182683004"><ele>128.0</ele><time>2026-04-25T17:20:25Z</time></trkpt><trkpt lat="46.088411314459435" lon="13.050346866925612"><ele>128.0</ele><time>2026-04-25T17:20:26Z</time></trkpt><trkpt lat="46.088380542694374" lon="13.050635251269304"><ele>128.0</ele><time>2026-04-25T17:20:27Z</time></trkpt><trkpt lat="46.08835306773589" lon="13.05091267883921"><ele>128.0</ele><time>2026-04-25T17:20:28Z</time></trkpt><trkpt lat="46.08832735405635" lon="13.05118686316679"><ele>128.0</ele><time>2026-04-25T17:20:29Z</time></trkpt><trkpt lat="46.08830058970252" lon="13.051456564373828"><ele>128.0</ele><time>2026-04-25T17:20:30Z</time></trkpt><trkpt lat="46.08827385367477" lon="13.051724127080341"><ele>128.0</ele><time>2026-04-25T17:20:31Z</time></trkpt><trkpt lat="46.088248065936256" lon="13.051993050493964"><ele>128.0</ele><time>2026-04-25T17:20:32Z</time></trkpt><trkpt lat="46.088219358580815" lon="13.05225977502358"><ele>128.0</ele><time>2026-04-25T17:20:33Z</time></trkpt><trkpt lat="46.088188931347446" lon="13.052533290613592"><ele>128.0</ele><time>2026-04-25T17:20:34Z</time></trkpt><trkpt lat="46.08816100050658" lon="13.052805657359142"><ele>127.66666666666666</ele><time>2026-04-25T17:20:35Z</time></trkpt><trkpt lat="46.088135052831866" lon="13.053074736547353"><ele>127.33333333333334</ele><time>2026-04-25T17:20:36Z</time></trkpt><trkpt lat="46.08811058640832" lon="13.053335413647755"><ele>127.0</ele><time>2026-04-25T17:20:37Z</time></trkpt><trkpt lat="46.0880841300061" lon="13.05358720105953"><ele>126.66666666666667</ele><time>2026-04-25T17:20:38Z</time></trkpt><trkpt lat="46.0880583207187" lon="13.053833109851835"><ele>126.33333333333334</ele><time>2026-04-25T17:20:39Z</time></trkpt><trkpt lat="46.08803467935431" lon="13.054067883830964"><ele>126.0</ele><time>2026-04-25T17:20:40Z</time></trkpt><trkpt lat="46.0880148898051" lon="13.054302318289803"><ele>126.0</ele><time>2026-04-25T17:20:41Z</time></trkpt><trkpt lat="46.08800034608617" lon="13.054538241909341"><ele>126.0</ele><time>2026-04-25T17:20:42Z</time></trkpt><trkpt lat="46.08799529406661" lon="13.054758013627435"><ele>126.0</ele><time>2026-04-25T17:20:43Z</time></trkpt><trkpt lat="46.08799296530471" lon="13.054959980132162"><ele>126.0</ele><time>2026-04-25T17:20:44Z</time></trkpt><trkpt lat="46.08799515692149" lon="13.055151750832573"><ele>126.0</ele><time>2026-04-25T17:20:45Z</time></trkpt><trkpt lat="46.087999751670196" lon="13.05533620500803"><ele>126.0</ele><time>2026-04-25T17:20:46Z</time></trkpt><trkpt lat="46.088004888500286" lon="13.055525185905063"><ele>126.0</ele><time>2026-04-25T17:20:47Z</time></trkpt><trkpt lat="46.08801557226707" lon="13.055723491896517"><ele>126.33333333333334</ele><time>2026-04-25T17:20:48Z</time></trkpt><trkpt lat="46.0880319044803" lon="13.055932994117473"><ele>126.66666666666667</ele><time>2026-04-25T17:20:49Z</time></trkpt><trkpt lat="46.08805438871453" lon="13.05614752299422"><ele>127.0</ele><time>2026-04-25T17:20:50Z</time></trkpt><trkpt lat="46.08808696883951" lon="13.05636662863318"><ele>127.0</ele><time>2026-04-25T17:20:51Z</time></trkpt><trkpt lat="46.08812691245876" lon="13.056586320356491"><ele>127.0</ele><time>2026-04-25T17:20:52Z</time></trkpt><trkpt lat="46.08817516867316" lon="13.056808967295348"><ele>127.0</ele><time>2026-04-25T17:20:53Z</time></trkpt><trkpt lat="46.088229042564095" lon="13.057034170402348"><ele>127.0</ele><time>2026-04-25T17:20:53.999Z</time></trkpt><trkpt lat="46.088279631560454" lon="13.057258856207715"><ele>127.0</ele><time>2026-04-25T17:20:54.999Z</time></trkpt><trkpt lat="46.08832759142647" lon="13.057482860364349"><ele>127.0</ele><time>2026-04-25T17:20:55.999Z</time></trkpt><trkpt lat="46.0883771278313" lon="13.057706034332615"><ele>127.0</ele><time>2026-04-25T17:20:56.999Z</time></trkpt><trkpt lat="46.08842761988526" lon="13.05792762858003"><ele>127.0</ele><time>2026-04-25T17:20:57.999Z</time></trkpt><trkpt lat="46.08847780986398" lon="13.058148760684308"><ele>127.0</ele><time>2026-04-25T17:20:58.999Z</time></trkpt><trkpt lat="46.08852678897693" lon="13.058371156287095"><ele>126.33333333333334</ele><time>2026-04-25T17:20:59.999Z</time></trkpt><trkpt lat="46.088573323415766" lon="13.05859651990603"><ele>125.66666666666666</ele><time>2026-04-25T17:21:00.999Z</time></trkpt><trkpt lat="46.08862264706064" lon="13.058825162935477"><ele>125.0</ele><time>2026-04-25T17:21:01.999Z</time></trkpt><trkpt lat="46.08867447514954" lon="13.059054937446277"><ele>125.33333333333333</ele><time>2026-04-25T17:21:02.999Z</time></trkpt><trkpt lat="46.08872567833127" lon="13.059279806236681"><ele>125.66666666666666</ele><time>2026-04-25T17:21:03.999Z</time></trkpt><trkpt lat="46.08877425339075" lon="13.059497342869099"><ele>126.0</ele><time>2026-04-25T17:21:04.999Z</time></trkpt><trkpt lat="46.08882047582043" lon="13.059698704646156"><ele>126.0</ele><time>2026-04-25T17:21:05.999Z</time></trkpt><trkpt lat="46.08886606392346" lon="13.059900065295498"><ele>126.0</ele><time>2026-04-25T17:21:06.999Z</time></trkpt><trkpt lat="46.08891123047905" lon="13.060101027254584"><ele>126.0</ele><time>2026-04-25T17:21:07.999Z</time></trkpt><trkpt lat="46.08895533362723" lon="13.060298394372861"><ele>126.0</ele><time>2026-04-25T17:21:08.999Z</time></trkpt><trkpt lat="46.08899911367286" lon="13.060491072944103"><ele>126.0</ele><time>2026-04-25T17:21:09.999Z</time></trkpt><trkpt lat="46.08904237863992" lon="13.060679451127559"><ele>126.0</ele><time>2026-04-25T17:21:10.999Z</time></trkpt><trkpt lat="46.08908614718907" lon="13.06086910028148"><ele>126.0</ele><time>2026-04-25T17:21:11.999Z</time></trkpt><trkpt lat="46.08912858628683" lon="13.061061844113153"><ele>126.0</ele><time>2026-04-25T17:21:12.999Z</time></trkpt><trkpt lat="46.08917079922512" lon="13.061249723896815"><ele>126.75</ele><time>2026-04-25T17:21:13.999Z</time></trkpt><trkpt lat="46.089211978555035" lon="13.061433181971227"><ele>127.5</ele><time>2026-04-25T17:21:14.999Z</time></trkpt><trkpt lat="46.08925364111566" lon="13.061614208204894"><ele>128.25</ele><time>2026-04-25T17:21:15.999Z</time></trkpt><trkpt lat="46.08929511786129" lon="13.061806061166614"><ele>129.0</ele><time>2026-04-25T17:21:16.999Z</time></trkpt><trkpt lat="46.089336210977585" lon="13.062003773485312"><ele>129.0</ele><time>2026-04-25T17:21:17.999Z</time></trkpt><trkpt lat="46.08937947977674" lon="13.062203732680588"><ele>129.0</ele><time>2026-04-25T17:21:18.999Z</time></trkpt><trkpt lat="46.08942285630885" lon="13.062406300283921"><ele>129.0</ele><time>2026-04-25T17:21:19.999Z</time></trkpt><trkpt lat="46.089467154432796" lon="13.062609195798453"><ele>129.0</ele><time>2026-04-25T17:21:20.999Z</time></trkpt><trkpt lat="46.08951137713828" lon="13.062810634116994"><ele>129.25</ele><time>2026-04-25T17:21:21.999Z</time></trkpt><trkpt lat="46.08955845823697" lon="13.063010512751626"><ele>129.5</ele><time>2026-04-25T17:21:22.999Z</time></trkpt><trkpt lat="46.089600436695335" lon="13.063209276509058"><ele>129.75</ele><time>2026-04-25T17:21:23.999Z</time></trkpt><trkpt lat="46.089639451945196" lon="13.063403440169274"><ele>130.0</ele><time>2026-04-25T17:21:24.999Z</time></trkpt><trkpt lat="46.08968173385374" lon="13.063591835666063"><ele>130.0</ele><time>2026-04-25T17:21:25.999Z</time></trkpt><trkpt lat="46.089720355667126" lon="13.063777132811008"><ele>130.0</ele><time>2026-04-25T17:21:26.999Z</time></trkpt><trkpt lat="46.08975763311125" lon="13.063956698229658"><ele>130.0</ele><time>2026-04-25T17:21:27.999Z</time></trkpt><trkpt lat="46.089797057198425" lon="13.064130809110907"><ele>130.0</ele><time>2026-04-25T17:21:28.999Z</time></trkpt><trkpt lat="46.089832426326815" lon="13.064305006757419"><ele>130.0</ele><time>2026-04-25T17:21:29.999Z</time></trkpt><trkpt lat="46.089866797036976" lon="13.064480489892073"><ele>130.0</ele><time>2026-04-25T17:21:30.999Z</time></trkpt><trkpt lat="46.08990496142412" lon="13.064653856586759"><ele>130.0</ele><time>2026-04-25T17:21:31.999Z</time></trkpt><trkpt lat="46.08994027800823" lon="13.064823887763175"><ele>130.0</ele><time>2026-04-25T17:21:32.999Z</time></trkpt><trkpt lat="46.0899775672729" lon="13.064989416807464"><ele>130.0</ele><time>2026-04-25T17:21:33.999Z</time></trkpt><trkpt lat="46.09001335807183" lon="13.065156310618205"><ele>130.0</ele><time>2026-04-25T17:21:34.999Z</time></trkpt><trkpt lat="46.09004715628528" lon="13.065330198026665"><ele>130.0</ele><time>2026-04-25T17:21:35.999Z</time></trkpt><trkpt lat="46.09008705013024" lon="13.06550927962046"><ele>130.0</ele><time>2026-04-25T17:21:36.999Z</time></trkpt><trkpt lat="46.09012741247967" lon="13.065691726691002"><ele>129.8</ele><time>2026-04-25T17:21:37.999Z</time></trkpt><trkpt lat="46.0901646529412" lon="13.06586776420792"><ele>129.6</ele><time>2026-04-25T17:21:38.999Z</time></trkpt><trkpt lat="46.09020148214717" lon="13.066016067627569"><ele>129.4</ele><time>2026-04-25T17:21:40Z</time></trkpt><trkpt lat="46.09023249295264" lon="13.066129808390858"><ele>129.2</ele><time>2026-04-25T17:21:41Z</time></trkpt><trkpt lat="46.090264132893175" lon="13.06622788544129"><ele>129.0</ele><time>2026-04-25T17:21:42Z</time></trkpt><trkpt lat="46.090295505829765" lon="13.066314800155011"><ele>129.0</ele><time>2026-04-25T17:21:43Z</time></trkpt><trkpt lat="46.090351301206645" lon="13.066444955049588"><ele>129.0</ele><time>2026-04-25T17:21:45Z</time></trkpt><trkpt lat="46.0903992376832" lon="13.066518978337408"><ele>129.0</ele><time>2026-04-25T17:21:48Z</time></trkpt><trkpt lat="46.09044548935451" lon="13.066592634825193"><ele>129.0</ele><time>2026-04-25T17:21:53Z</time></trkpt><trkpt lat="46.09051540227169" lon="13.066685564058877"><ele>129.0</ele><time>2026-04-25T17:21:57Z</time></trkpt><trkpt lat="46.09060940719084" lon="13.066801163141891"><ele>129.2</ele><time>2026-04-25T17:21:59Z</time></trkpt><trkpt lat="46.090679465846215" lon="13.066877313364918"><ele>129.4</ele><time>2026-04-25T17:22:00Z</time></trkpt><trkpt lat="46.090759076975445" lon="13.066969368706134"><ele>129.6</ele><time>2026-04-25T17:22:01Z</time></trkpt><trkpt lat="46.09084807657057" lon="13.067062576958836"><ele>129.8</ele><time>2026-04-25T17:22:02Z</time></trkpt><trkpt lat="46.09094163923437" lon="13.067160198087016"><ele>130.0</ele><time>2026-04-25T17:22:03Z</time></trkpt><trkpt lat="46.091038500389175" lon="13.067262760553096"><ele>130.2</ele><time>2026-04-25T17:22:04Z</time></trkpt><trkpt lat="46.091133080905415" lon="13.06736222550356"><ele>130.4</ele><time>2026-04-25T17:22:05Z</time></trkpt><trkpt lat="46.09122133088733" lon="13.067459775031667"><ele>130.6</ele><time>2026-04-25T17:22:06Z</time></trkpt><trkpt lat="46.09129846651999" lon="13.067564318475927"><ele>130.8</ele><time>2026-04-25T17:22:07Z</time></trkpt><trkpt lat="46.091369832731814" lon="13.067673482874516"><ele>131.0</ele><time>2026-04-25T17:22:08Z</time></trkpt><trkpt lat="46.09143186008175" lon="13.067789748772308"><ele>131.2</ele><time>2026-04-25T17:22:09Z</time></trkpt><trkpt lat="46.09148807699258" lon="13.067913230011113"><ele>131.39999999999998</ele><time>2026-04-25T17:22:10Z</time></trkpt><trkpt lat="46.091543154710024" lon="13.068038713824544"><ele>131.6</ele><time>2026-04-25T17:22:11Z</time></trkpt><trkpt lat="46.091597723327425" lon="13.068169127182156"><ele>131.79999999999998</ele><time>2026-04-25T17:22:12Z</time></trkpt><trkpt lat="46.09164919670235" lon="13.068310716567913"><ele>132.0</ele><time>2026-04-25T17:22:13Z</time></trkpt><trkpt lat="46.09169797362564" lon="13.068455142013848"><ele>132.25</ele><time>2026-04-25T17:22:14Z</time></trkpt><trkpt lat="46.09174740629125" lon="13.068607992731685"><ele>132.5</ele><time>2026-04-25T17:22:15Z</time></trkpt><trkpt lat="46.09179265006292" lon="13.068768300629992"><ele>132.75</ele><time>2026-04-25T17:22:16Z</time></trkpt><trkpt lat="46.09183390260691" lon="13.068932318511365"><ele>133.0</ele><time>2026-04-25T17:22:17Z</time></trkpt><trkpt lat="46.09187529175582" lon="13.069096194199556"><ele>133.25</ele><time>2026-04-25T17:22:18Z</time></trkpt><trkpt lat="46.09191313831963" lon="13.06926194284939"><ele>133.5</ele><time>2026-04-25T17:22:19Z</time></trkpt><trkpt lat="46.091951027481464" lon="13.069432712006416"><ele>133.75</ele><time>2026-04-25T17:22:20Z</time></trkpt><trkpt lat="46.091990520199715" lon="13.06960958414401"><ele>134.0</ele><time>2026-04-25T17:22:21Z</time></trkpt><trkpt lat="46.092029546641356" lon="13.069795666106147"><ele>133.66666666666666</ele><time>2026-04-25T17:22:22Z</time></trkpt><trkpt lat="46.09207094915314" lon="13.069992762797972"><ele>133.33333333333334</ele><time>2026-04-25T17:22:23Z</time></trkpt><trkpt lat="46.09211804445076" lon="13.070207605570543"><ele>133.0</ele><time>2026-04-25T17:22:24Z</time></trkpt><trkpt lat="46.09216347851145" lon="13.070421621622291"><ele>133.0</ele><time>2026-04-25T17:22:25Z</time></trkpt><trkpt lat="46.0922148484408" lon="13.070634682482039"><ele>133.0</ele><time>2026-04-25T17:22:26Z</time></trkpt><trkpt lat="46.09225889982558" lon="13.070851492271778"><ele>133.0</ele><time>2026-04-25T17:22:27Z</time></trkpt><trkpt lat="46.09230787243532" lon="13.071064610051936"><ele>133.33333333333334</ele><time>2026-04-25T17:22:28Z</time></trkpt><trkpt lat="46.09235647642086" lon="13.071277649763708"><ele>133.66666666666666</ele><time>2026-04-25T17:22:29Z</time></trkpt><trkpt lat="46.09240255830128" lon="13.071496034685834"><ele>134.0</ele><time>2026-04-25T17:22:30Z</time></trkpt><trkpt lat="46.09245251413953" lon="13.071722991442796"><ele>134.0</ele><time>2026-04-25T17:22:31Z</time></trkpt><trkpt lat="46.092503451952524" lon="13.071966321910773"><ele>134.0</ele><time>2026-04-25T17:22:32Z</time></trkpt><trkpt lat="46.09255672894503" lon="13.072216668286538"><ele>134.0</ele><time>2026-04-25T17:22:33Z</time></trkpt><trkpt lat="46.09261095454663" lon="13.07245947501015"><ele>133.66666666666666</ele><time>2026-04-25T17:22:34Z</time></trkpt><trkpt lat="46.09266095510376" lon="13.072679853898151"><ele>133.33333333333334</ele><time>2026-04-25T17:22:35Z</time></trkpt><trkpt lat="46.092710010355525" lon="13.07290022345248"><ele>133.0</ele><time>2026-04-25T17:22:36Z</time></trkpt><trkpt lat="46.092759253584845" lon="13.073120067817039"><ele>133.0</ele><time>2026-04-25T17:22:37Z</time></trkpt><trkpt lat="46.092808430497435" lon="13.073347776189683"><ele>133.0</ele><time>2026-04-25T17:22:38Z</time></trkpt><trkpt lat="46.09285733844269" lon="13.073586341754487"><ele>133.0</ele><time>2026-04-25T17:22:39Z</time></trkpt><trkpt lat="46.09291061839655" lon="13.07383486801068"><ele>133.0</ele><time>2026-04-25T17:22:40Z</time></trkpt><trkpt lat="46.092963745922184" lon="13.074093180040764"><ele>133.0</ele><time>2026-04-25T17:22:41Z</time></trkpt><trkpt lat="46.0930198110803" lon="13.074352216946895"><ele>133.0</ele><time>2026-04-25T17:22:42Z</time></trkpt><trkpt lat="46.093079794921366" lon="13.074606422532767"><ele>133.0</ele><time>2026-04-25T17:22:43Z</time></trkpt><trkpt lat="46.09313691381597" lon="13.074858734250004"><ele>133.0</ele><time>2026-04-25T17:22:44Z</time></trkpt><trkpt lat="46.09319456769662" lon="13.075113858502833"><ele>133.0</ele><time>2026-04-25T17:22:45Z</time></trkpt><trkpt lat="46.09325191082311" lon="13.07537188535545"><ele>132.33333333333334</ele><time>2026-04-25T17:22:46Z</time></trkpt><trkpt lat="46.093308621198055" lon="13.0756365770332"><ele>131.66666666666666</ele><time>2026-04-25T17:22:47Z</time></trkpt><trkpt lat="46.09336870695971" lon="13.0759041893219"><ele>131.0</ele><time>2026-04-25T17:22:48Z</time></trkpt><trkpt lat="46.09342984890922" lon="13.076186422490059"><ele>130.66666666666666</ele><time>2026-04-25T17:22:49Z</time></trkpt><trkpt lat="46.093491252271704" lon="13.076469749370753"><ele>130.33333333333334</ele><time>2026-04-25T17:22:50Z</time></trkpt><trkpt lat="46.093550379972875" lon="13.076744879391942"><ele>130.0</ele><time>2026-04-25T17:22:51Z</time></trkpt><trkpt lat="46.09360918330913" lon="13.0770152515311"><ele>130.66666666666669</ele><time>2026-04-25T17:22:52Z</time></trkpt><trkpt lat="46.0936677272549" lon="13.077282157590584"><ele>131.33333333333334</ele><time>2026-04-25T17:22:53Z</time></trkpt><trkpt lat="46.0937275634908" lon="13.077554948557706"><ele>132.0</ele><time>2026-04-25T17:22:54Z</time></trkpt><trkpt lat="46.09378803859691" lon="13.07783396332824"><ele>132.0</ele><time>2026-04-25T17:22:55Z</time></trkpt><trkpt lat="46.09385222812532" lon="13.078105567873184"><ele>132.0</ele><time>2026-04-25T17:22:55.999Z</time></trkpt><trkpt lat="46.09391335421565" lon="13.07836981105261"><ele>132.0</ele><time>2026-04-25T17:22:56.999Z</time></trkpt><trkpt lat="46.093971206645854" lon="13.078633702472253"><ele>131.66666666666666</ele><time>2026-04-25T17:22:57.999Z</time></trkpt><trkpt lat="46.09403443025042" lon="13.078893921815704"><ele>131.33333333333331</ele><time>2026-04-25T17:22:58.999Z</time></trkpt><trkpt lat="46.09409661035837" lon="13.079155688924613"><ele>131.0</ele><time>2026-04-25T17:22:59.999Z</time></trkpt><trkpt lat="46.094162359119075" lon="13.07942254354167"><ele>131.66666666666666</ele><time>2026-04-25T17:23:00.999Z</time></trkpt><trkpt lat="46.094232273761435" lon="13.079687379671094"><ele>132.33333333333334</ele><time>2026-04-25T17:23:01.999Z</time></trkpt><trkpt lat="46.09430449729659" lon="13.079952589567815"><ele>133.0</ele><time>2026-04-25T17:23:02.999Z</time></trkpt><trkpt lat="46.094377681365444" lon="13.08021107631432"><ele>133.66666666666669</ele><time>2026-04-25T17:23:03.999Z</time></trkpt><trkpt lat="46.09445006965978" lon="13.08046571935687"><ele>134.33333333333334</ele><time>2026-04-25T17:23:04.999Z</time></trkpt><trkpt lat="46.094524094035776" lon="13.080720256853297"><ele>135.0</ele><time>2026-04-25T17:23:05.999Z</time></trkpt><trkpt lat="46.09459873725942" lon="13.080976675324493"><ele>135.0</ele><time>2026-04-25T17:23:06.999Z</time></trkpt><trkpt lat="46.09467719789983" lon="13.081233045070112"><ele>135.0</ele><time>2026-04-25T17:23:07.999Z</time></trkpt><trkpt lat="46.094756171375266" lon="13.081492450626149"><ele>135.0</ele><time>2026-04-25T17:23:08.999Z</time></trkpt><trkpt lat="46.09483764344163" lon="13.081751808896977"><ele>135.0</ele><time>2026-04-25T17:23:09.999Z</time></trkpt><trkpt lat="46.094916205149985" lon="13.082006956457915"><ele>135.0</ele><time>2026-04-25T17:23:10.999Z</time></trkpt><trkpt lat="46.09499079871259" lon="13.082251300614102"><ele>135.0</ele><time>2026-04-25T17:23:11.999Z</time></trkpt><trkpt lat="46.095061546314334" lon="13.082482545082362"><ele>135.0</ele><time>2026-04-25T17:23:12.999Z</time></trkpt><trkpt lat="46.09512988418133" lon="13.082697166140479"><ele>135.0</ele><time>2026-04-25T17:23:13.999Z</time></trkpt><trkpt lat="46.095197303961314" lon="13.082912016934761"><ele>135.0</ele><time>2026-04-25T17:23:14.999Z</time></trkpt><trkpt lat="46.09526504973118" lon="13.083129262533403"><ele>135.0</ele><time>2026-04-25T17:23:15.999Z</time></trkpt><trkpt lat="46.095333213513705" lon="13.083352628457625"><ele>135.0</ele><time>2026-04-25T17:23:16.999Z</time></trkpt><trkpt lat="46.0954013974506" lon="13.083572813848617"><ele>135.0</ele><time>2026-04-25T17:23:17.999Z</time></trkpt><trkpt lat="46.095468787076044" lon="13.083786765186614"><ele>135.0</ele><time>2026-04-25T17:23:18.999Z</time></trkpt><trkpt lat="46.09553605299836" lon="13.083998701265545"><ele>135.0</ele><time>2026-04-25T17:23:19.999Z</time></trkpt><trkpt lat="46.09559940958718" lon="13.08420545573345"><ele>135.0</ele><time>2026-04-25T17:23:20.999Z</time></trkpt><trkpt lat="46.095660870781224" lon="13.084408422706797"><ele>135.0</ele><time>2026-04-25T17:23:21.999Z</time></trkpt><trkpt lat="46.095720656539356" lon="13.08461164770496"><ele>135.0</ele><time>2026-04-25T17:23:22.999Z</time></trkpt><trkpt lat="46.09577984967868" lon="13.084807650208894"><ele>135.0</ele><time>2026-04-25T17:23:23.999Z</time></trkpt><trkpt lat="46.09583771596517" lon="13.085001147743325"><ele>135.0</ele><time>2026-04-25T17:23:24.999Z</time></trkpt><trkpt lat="46.09589369943591" lon="13.085196248961525"><ele>135.0</ele><time>2026-04-25T17:23:25.999Z</time></trkpt><trkpt lat="46.09595265858086" lon="13.085390053682985"><ele>135.0</ele><time>2026-04-25T17:23:26.999Z</time></trkpt><trkpt lat="46.09601255445675" lon="13.085583373296114"><ele>135.0</ele><time>2026-04-25T17:23:27.999Z</time></trkpt><trkpt lat="46.096072397111776" lon="13.085774850097561"><ele>135.0</ele><time>2026-04-25T17:23:28.999Z</time></trkpt><trkpt lat="46.096134837324776" lon="13.085972506535084"><ele>135.25</ele><time>2026-04-25T17:23:29.999Z</time></trkpt><trkpt lat="46.09619839722679" lon="13.08616525004672"><ele>135.5</ele><time>2026-04-25T17:23:30.999Z</time></trkpt><trkpt lat="46.096260073432276" lon="13.086354528521406"><ele>135.75</ele><time>2026-04-25T17:23:31.999Z</time></trkpt><trkpt lat="46.09632063273384" lon="13.086541594454973"><ele>136.0</ele><time>2026-04-25T17:23:32.999Z</time></trkpt><trkpt lat="46.09638127387922" lon="13.086723769342951"><ele>136.25</ele><time>2026-04-25T17:23:33.999Z</time></trkpt><trkpt lat="46.0964391880512" lon="13.086907968678215"><ele>136.5</ele><time>2026-04-25T17:23:34.999Z</time></trkpt><trkpt lat="46.09649770503733" lon="13.087100196107944"><ele>136.75</ele><time>2026-04-25T17:23:35.999Z</time></trkpt><trkpt lat="46.0965571838029" lon="13.087301750783876"><ele>137.0</ele><time>2026-04-25T17:23:36.999Z</time></trkpt><trkpt lat="46.09661675788729" lon="13.087510826450059"><ele>137.66666666666666</ele><time>2026-04-25T17:23:37.999Z</time></trkpt><trkpt lat="46.096677021243885" lon="13.087725071072578"><ele>138.33333333333334</ele><time>2026-04-25T17:23:38.999Z</time></trkpt><trkpt lat="46.096737033570456" lon="13.087939986237654"><ele>139.0</ele><time>2026-04-25T17:23:39.999Z</time></trkpt><trkpt lat="46.09679323387639" lon="13.088154448955484"><ele>138.33333333333334</ele><time>2026-04-25T17:23:40.999Z</time></trkpt><trkpt lat="46.09684889153729" lon="13.088365507609678"><ele>137.66666666666666</ele><time>2026-04-25T17:23:41.999Z</time></trkpt><trkpt lat="46.09690005049299" lon="13.088575692959973"><ele>137.0</ele><time>2026-04-25T17:23:42.999Z</time></trkpt><trkpt lat="46.096950499187656" lon="13.088787294211583"><ele>137.0</ele><time>2026-04-25T17:23:43.999Z</time></trkpt><trkpt lat="46.09700024890378" lon="13.088996007230312"><ele>137.0</ele><time>2026-04-25T17:23:45Z</time></trkpt><trkpt lat="46.09704644474844" lon="13.08920089620985"><ele>137.0</ele><time>2026-04-25T17:23:46Z</time></trkpt><trkpt lat="46.09709161347502" lon="13.089402255733715"><ele>137.0</ele><time>2026-04-25T17:23:47Z</time></trkpt><trkpt lat="46.09713429944408" lon="13.089605326052805"><ele>137.0</ele><time>2026-04-25T17:23:48Z</time></trkpt><trkpt lat="46.09717719262758" lon="13.089809934268935"><ele>137.0</ele><time>2026-04-25T17:23:49Z</time></trkpt><trkpt lat="46.09721995447306" lon="13.090012452697621"><ele>137.0</ele><time>2026-04-25T17:23:50Z</time></trkpt><trkpt lat="46.097260970382855" lon="13.090211616023325"><ele>137.0</ele><time>2026-04-25T17:23:51Z</time></trkpt><trkpt lat="46.097302078880176" lon="13.09040908533799"><ele>137.0</ele><time>2026-04-25T17:23:52Z</time></trkpt><trkpt lat="46.09734433714949" lon="13.090605835003489"><ele>137.0</ele><time>2026-04-25T17:23:53Z</time></trkpt><trkpt lat="46.09738680747295" lon="13.090804158035363"><ele>137.0</ele><time>2026-04-25T17:23:54Z</time></trkpt><trkpt lat="46.097430710436505" lon="13.091009954942361"><ele>137.0</ele><time>2026-04-25T17:23:55Z</time></trkpt><trkpt lat="46.09747304818188" lon="13.091220714785662"><ele>137.66666666666666</ele><time>2026-04-25T17:23:56Z</time></trkpt><trkpt lat="46.097517164111274" lon="13.0914355007028"><ele>138.33333333333334</ele><time>2026-04-25T17:23:57Z</time></trkpt><trkpt lat="46.09756305054961" lon="13.091655951151257"><ele>139.0</ele><time>2026-04-25T17:23:58Z</time></trkpt><trkpt lat="46.097607923667375" lon="13.091883355036895"><ele>139.0</ele><time>2026-04-25T17:23:59Z</time></trkpt><trkpt lat="46.09765511278205" lon="13.092115077836528"><ele>139.0</ele><time>2026-04-25T17:24:00Z</time></trkpt><trkpt lat="46.097703457757184" lon="13.092339969602746"><ele>139.0</ele><time>2026-04-25T17:24:01Z</time></trkpt><trkpt lat="46.09775006107005" lon="13.092565030701612"><ele>138.66666666666669</ele><time>2026-04-25T17:24:02Z</time></trkpt><trkpt lat="46.09779359218439" lon="13.092788508972342"><ele>138.33333333333334</ele><time>2026-04-25T17:24:03Z</time></trkpt><trkpt lat="46.097837593751386" lon="13.093016496441251"><ele>138.0</ele><time>2026-04-25T17:24:04Z</time></trkpt><trkpt lat="46.09787974256915" lon="13.093233862310255"><ele>137.66666666666666</ele><time>2026-04-25T17:24:05Z</time></trkpt><trkpt lat="46.0979220217953" lon="13.093450352978211"><ele>137.33333333333331</ele><time>2026-04-25T17:24:06Z</time></trkpt><trkpt lat="46.09795717928196" lon="13.093670966197566"><ele>137.0</ele><time>2026-04-25T17:24:07Z</time></trkpt><trkpt lat="46.09798934357766" lon="13.093890962322778"><ele>137.25</ele><time>2026-04-25T17:24:08Z</time></trkpt><trkpt lat="46.098018036647055" lon="13.094106646583468"><ele>137.5</ele><time>2026-04-25T17:24:09Z</time></trkpt><trkpt lat="46.09804227964255" lon="13.094317040073719"><ele>137.75</ele><time>2026-04-25T17:24:10Z</time></trkpt><trkpt lat="46.098065152632756" lon="13.09452533726155"><ele>138.0</ele><time>2026-04-25T17:24:11Z</time></trkpt><trkpt lat="46.098085916456704" lon="13.09472864360599"><ele>137.75</ele><time>2026-04-25T17:24:12Z</time></trkpt><trkpt lat="46.09810226886915" lon="13.094922162903595"><ele>137.5</ele><time>2026-04-25T17:24:13Z</time></trkpt><trkpt lat="46.098118110605135" lon="13.095100195050449"><ele>137.25</ele><time>2026-04-25T17:24:14Z</time></trkpt><trkpt lat="46.09813286696989" lon="13.09526973115765"><ele>137.0</ele><time>2026-04-25T17:24:15Z</time></trkpt><trkpt lat="46.098146298936285" lon="13.095419598102225"><ele>137.0</ele><time>2026-04-25T17:24:16Z</time></trkpt><trkpt lat="46.09815842513265" lon="13.095572483442139"><ele>137.0</ele><time>2026-04-25T17:24:17Z</time></trkpt><trkpt lat="46.09816854298004" lon="13.09572408250343"><ele>137.0</ele><time>2026-04-25T17:24:18Z</time></trkpt><trkpt lat="46.09817943408917" lon="13.09587019015948"><ele>137.0</ele><time>2026-04-25T17:24:19Z</time></trkpt><trkpt lat="46.09819441888796" lon="13.096001512410798"><ele>137.0</ele><time>2026-04-25T17:24:20Z</time></trkpt><trkpt lat="46.09821473098062" lon="13.096119700384316"><ele>137.0</ele><time>2026-04-25T17:24:21Z</time></trkpt><trkpt lat="46.0982361188109" lon="13.096235080973594"><ele>137.0</ele><time>2026-04-25T17:24:22Z</time></trkpt><trkpt lat="46.098262710109566" lon="13.096337586858906"><ele>137.0</ele><time>2026-04-25T17:24:23Z</time></trkpt><trkpt lat="46.09829594823741" lon="13.096490858838497"><ele>137.0</ele><time>2026-04-25T17:24:25Z</time></trkpt><trkpt lat="46.09830702072746" lon="13.096603481977207"><ele>137.0</ele><time>2026-04-25T17:24:27Z</time></trkpt><trkpt lat="46.098296700178615" lon="13.096775952531818"><ele>137.2</ele><time>2026-04-25T17:24:29Z</time></trkpt><trkpt lat="46.09829142796991" lon="13.096903192707952"><ele>137.39999999999998</ele><time>2026-04-25T17:24:30Z</time></trkpt><trkpt lat="46.09830216859363" lon="13.097053283601785"><ele>137.60000000000002</ele><time>2026-04-25T17:24:31Z</time></trkpt><trkpt lat="46.09833366231587" lon="13.097205125404653"><ele>137.8</ele><time>2026-04-25T17:24:32Z</time></trkpt><trkpt lat="46.098358413349175" lon="13.09736338741492"><ele>138.0</ele><time>2026-04-25T17:24:33Z</time></trkpt><trkpt lat="46.098373128062306" lon="13.097517181654297"><ele>138.5</ele><time>2026-04-25T17:24:34Z</time></trkpt><trkpt lat="46.09836760868829" lon="13.097672820863165"><ele>139.0</ele><time>2026-04-25T17:24:35Z</time></trkpt><trkpt lat="46.09834936921891" lon="13.097829553856979"><ele>139.5</ele><time>2026-04-25T17:24:36Z</time></trkpt><trkpt lat="46.09834688246857" lon="13.097996151536348"><ele>140.0</ele><time>2026-04-25T17:24:37Z</time></trkpt><trkpt lat="46.09835800579559" lon="13.09816994266581"><ele>139.5</ele><time>2026-04-25T17:24:38Z</time></trkpt><trkpt lat="46.098376493698424" lon="13.098357065349106"><ele>139.0</ele><time>2026-04-25T17:24:39Z</time></trkpt><trkpt lat="46.09839233307689" lon="13.098557800210322"><ele>138.5</ele><time>2026-04-25T17:24:40Z</time></trkpt><trkpt lat="46.09841175321741" lon="13.09876774815139"><ele>138.0</ele><time>2026-04-25T17:24:41Z</time></trkpt><trkpt lat="46.09842984359571" lon="13.098982621990078"><ele>137.5</ele><time>2026-04-25T17:24:42Z</time></trkpt><trkpt lat="46.098443970616344" lon="13.099193780908958"><ele>137.0</ele><time>2026-04-25T17:24:43Z</time></trkpt><trkpt lat="46.098459040443124" lon="13.099398405447287"><ele>136.5</ele><time>2026-04-25T17:24:44Z</time></trkpt><trkpt lat="46.098475938165144" lon="13.099597341458106"><ele>136.0</ele><time>2026-04-25T17:24:45Z</time></trkpt><trkpt lat="46.09849389661403" lon="13.09979542033161"><ele>136.25</ele><time>2026-04-25T17:24:46Z</time></trkpt><trkpt lat="46.098511900783855" lon="13.10000039883233"><ele>136.5</ele><time>2026-04-25T17:24:47Z</time></trkpt><trkpt lat="46.09852847975994" lon="13.100210189482947"><ele>136.75</ele><time>2026-04-25T17:24:48Z</time></trkpt><trkpt lat="46.09854705009046" lon="13.100419743175953"><ele>137.0</ele><time>2026-04-25T17:24:49Z</time></trkpt><trkpt lat="46.0985655881655" lon="13.10063491815456"><ele>136.75</ele><time>2026-04-25T17:24:50Z</time></trkpt><trkpt lat="46.098582105265685" lon="13.100845381769133"><ele>136.5</ele><time>2026-04-25T17:24:51Z</time></trkpt><trkpt lat="46.098598323723174" lon="13.101048753565207"><ele>136.25</ele><time>2026-04-25T17:24:52Z</time></trkpt><trkpt lat="46.09861320485065" lon="13.101242267110432"><ele>136.0</ele><time>2026-04-25T17:24:53Z</time></trkpt><trkpt lat="46.09862770229547" lon="13.101413212543024"><ele>136.0</ele><time>2026-04-25T17:24:54Z</time></trkpt><trkpt lat="46.09864046909753" lon="13.10157026473455"><ele>136.0</ele><time>2026-04-25T17:24:55Z</time></trkpt><trkpt lat="46.09865264077961" lon="13.101724452090536"><ele>136.0</ele><time>2026-04-25T17:24:55.999Z</time></trkpt><trkpt lat="46.098664757415" lon="13.10187783268285"><ele>136.0</ele><time>2026-04-25T17:24:56.999Z</time></trkpt><trkpt lat="46.098677319432205" lon="13.102027712087118"><ele>136.0</ele><time>2026-04-25T17:24:57.999Z</time></trkpt><trkpt lat="46.09868878473031" lon="13.102173818535581"><ele>136.0</ele><time>2026-04-25T17:24:58.999Z</time></trkpt><trkpt lat="46.09869974629132" lon="13.10231863309042"><ele>136.0</ele><time>2026-04-25T17:24:59.999Z</time></trkpt><trkpt lat="46.09871169109514" lon="13.102460740628798"><ele>136.0</ele><time>2026-04-25T17:25:00.999Z</time></trkpt><trkpt lat="46.09872452072132" lon="13.102601137789986"><ele>136.0</ele><time>2026-04-25T17:25:01.999Z</time></trkpt><trkpt lat="46.09873646368441" lon="13.102743087002308"><ele>136.0</ele><time>2026-04-25T17:25:02.999Z</time></trkpt><trkpt lat="46.09874669684328" lon="13.10289017931021"><ele>136.0</ele><time>2026-04-25T17:25:03.999Z</time></trkpt><trkpt lat="46.09875755145297" lon="13.103039077286788"><ele>136.0</ele><time>2026-04-25T17:25:04.999Z</time></trkpt><trkpt lat="46.0987715884412" lon="13.103193854537071"><ele>136.0</ele><time>2026-04-25T17:25:05.999Z</time></trkpt><trkpt lat="46.09878430513817" lon="13.10335681469649"><ele>136.0</ele><time>2026-04-25T17:25:06.999Z</time></trkpt><trkpt lat="46.09879732352945" lon="13.103517744361618"><ele>136.0</ele><time>2026-04-25T17:25:07.999Z</time></trkpt><trkpt lat="46.09880981669227" lon="13.103683079188514"><ele>136.25</ele><time>2026-04-25T17:25:08.999Z</time></trkpt><trkpt lat="46.09882303354145" lon="13.103849370216857"><ele>136.5</ele><time>2026-04-25T17:25:09.999Z</time></trkpt><trkpt lat="46.098836135701255" lon="13.10402138867931"><ele>136.75</ele><time>2026-04-25T17:25:10.999Z</time></trkpt><trkpt lat="46.098851833465964" lon="13.104206285694108"><ele>137.0</ele><time>2026-04-25T17:25:11.999Z</time></trkpt><trkpt lat="46.0988686107607" lon="13.104407147921817"><ele>137.33333333333331</ele><time>2026-04-25T17:25:12.999Z</time></trkpt><trkpt lat="46.0988847480177" lon="13.104627602770305"><ele>137.66666666666666</ele><time>2026-04-25T17:25:13.999Z</time></trkpt><trkpt lat="46.098899675427276" lon="13.104870403380897"><ele>138.0</ele><time>2026-04-25T17:25:14.999Z</time></trkpt><trkpt lat="46.098920317367494" lon="13.105128577770378"><ele>138.0</ele><time>2026-04-25T17:25:15.999Z</time></trkpt><trkpt lat="46.09893631134866" lon="13.105407734876485"><ele>138.0</ele><time>2026-04-25T17:25:16.999Z</time></trkpt><trkpt lat="46.098948902680895" lon="13.105700735129437"><ele>138.0</ele><time>2026-04-25T17:25:17.999Z</time></trkpt><trkpt lat="46.09895609567004" lon="13.105960106807958"><ele>138.25</ele><time>2026-04-25T17:25:18.999Z</time></trkpt><trkpt lat="46.09895722609837" lon="13.106191850048642"><ele>138.5</ele><time>2026-04-25T17:25:19.999Z</time></trkpt><trkpt lat="46.09894955671493" lon="13.106397583403682"><ele>138.75</ele><time>2026-04-25T17:25:20.999Z</time></trkpt><trkpt lat="46.09893115527004" lon="13.10657856240171"><ele>139.0</ele><time>2026-04-25T17:25:21.999Z</time></trkpt><trkpt lat="46.09891465848752" lon="13.10674764534849"><ele>139.2</ele><time>2026-04-25T17:25:22.999Z</time></trkpt><trkpt lat="46.098896310154544" lon="13.106908053771651"><ele>139.4</ele><time>2026-04-25T17:25:23.999Z</time></trkpt><trkpt lat="46.09887298240453" lon="13.107070309108082"><ele>139.6</ele><time>2026-04-25T17:25:24.999Z</time></trkpt><trkpt lat="46.098847087412295" lon="13.107223323407544"><ele>139.8</ele><time>2026-04-25T17:25:25.999Z</time></trkpt><trkpt lat="46.09882554344722" lon="13.107364297164958"><ele>140.0</ele><time>2026-04-25T17:25:26.999Z</time></trkpt><trkpt lat="46.09880160039528" lon="13.107500066533772"><ele>140.4</ele><time>2026-04-25T17:25:27.999Z</time></trkpt><trkpt lat="46.09877487497706" lon="13.107636027238469"><ele>140.8</ele><time>2026-04-25T17:25:28.999Z</time></trkpt><trkpt lat="46.098750830573074" lon="13.107771551283266"><ele>141.2</ele><time>2026-04-25T17:25:29.999Z</time></trkpt><trkpt lat="46.098721722749296" lon="13.107910234997828"><ele>141.6</ele><time>2026-04-25T17:25:30.999Z</time></trkpt><trkpt lat="46.09869220031731" lon="13.10805282820804"><ele>142.0</ele><time>2026-04-25T17:25:31.999Z</time></trkpt><trkpt lat="46.09866093899949" lon="13.108203477706555"><ele>142.25</ele><time>2026-04-25T17:25:32.999Z</time></trkpt><trkpt lat="46.09862805172878" lon="13.10836937049912"><ele>142.5</ele><time>2026-04-25T17:25:33.999Z</time></trkpt><trkpt lat="46.098591553783315" lon="13.108552918883683"><ele>142.75</ele><time>2026-04-25T17:25:34.999Z</time></trkpt><trkpt lat="46.09855072736876" lon="13.108747917546582"><ele>143.0</ele><time>2026-04-25T17:25:35.999Z</time></trkpt><trkpt lat="46.09850905461553" lon="13.108959084440132"><ele>143.0</ele><time>2026-04-25T17:25:36.999Z</time></trkpt><trkpt lat="46.098471538996435" lon="13.109176952366301"><ele>143.0</ele><time>2026-04-25T17:25:37.999Z</time></trkpt><trkpt lat="46.098427463165336" lon="13.109392170875095"><ele>143.0</ele><time>2026-04-25T17:25:38.999Z</time></trkpt><trkpt lat="46.09838504648346" lon="13.109611040611165"><ele>143.0</ele><time>2026-04-25T17:25:39.999Z</time></trkpt><trkpt lat="46.09834657660164" lon="13.10982993853971"><ele>143.0</ele><time>2026-04-25T17:25:40.999Z</time></trkpt><trkpt lat="46.09830429614518" lon="13.110047730418717"><ele>143.0</ele><time>2026-04-25T17:25:41.999Z</time></trkpt><trkpt lat="46.09826391253944" lon="13.110266437448054"><ele>143.0</ele><time>2026-04-25T17:25:42.999Z</time></trkpt><trkpt lat="46.098221773831206" lon="13.110484262599202"><ele>143.0</ele><time>2026-04-25T17:25:43.999Z</time></trkpt><trkpt lat="46.09817798185204" lon="13.110706154650877"><ele>143.0</ele><time>2026-04-25T17:25:44.999Z</time></trkpt><trkpt lat="46.098129563091405" lon="13.11092441479769"><ele>143.33333333333331</ele><time>2026-04-25T17:25:45.999Z</time></trkpt><trkpt lat="46.09809053726435" lon="13.111146532225499"><ele>143.66666666666666</ele><time>2026-04-25T17:25:46.999Z</time></trkpt><trkpt lat="46.098049395111445" lon="13.11137020578788"><ele>144.0</ele><time>2026-04-25T17:25:47.999Z</time></trkpt><trkpt lat="46.09800169713017" lon="13.111595846212454"><ele>144.33333333333334</ele><time>2026-04-25T17:25:48.999Z</time></trkpt><trkpt lat="46.09795202295382" lon="13.111821951999879"><ele>144.66666666666669</ele><time>2026-04-25T17:25:49.999Z</time></trkpt><trkpt lat="46.097901102852035" lon="13.112052648756867"><ele>145.0</ele><time>2026-04-25T17:25:51Z</time></trkpt><trkpt lat="46.09784675817153" lon="13.112286287649665"><ele>144.66666666666669</ele><time>2026-04-25T17:25:52Z</time></trkpt><trkpt lat="46.09778849099128" lon="13.11252042746994"><ele>144.33333333333334</ele><time>2026-04-25T17:25:53Z</time></trkpt><trkpt lat="46.097732347268064" lon="13.112750776063377"><ele>144.0</ele><time>2026-04-25T17:25:54Z</time></trkpt><trkpt lat="46.09767551470474" lon="13.112976621733301"><ele>144.0</ele><time>2026-04-25T17:25:55Z</time></trkpt><trkpt lat="46.097616209366336" lon="13.11319816747072"><ele>144.0</ele><time>2026-04-25T17:25:56Z</time></trkpt><trkpt lat="46.09755369467114" lon="13.113415565908701"><ele>144.0</ele><time>2026-04-25T17:25:57Z</time></trkpt><trkpt lat="46.0974918512923" lon="13.11363099669153"><ele>144.33333333333334</ele><time>2026-04-25T17:25:58Z</time></trkpt><trkpt lat="46.097429434035874" lon="13.113841397723098"><ele>144.66666666666669</ele><time>2026-04-25T17:25:59Z</time></trkpt><trkpt lat="46.097367734620285" lon="13.114048617542146"><ele>145.0</ele><time>2026-04-25T17:26:00Z</time></trkpt><trkpt lat="46.09730826276809" lon="13.114244734011137"><ele>145.0</ele><time>2026-04-25T17:26:01Z</time></trkpt><trkpt lat="46.09724667241115" lon="13.114432497276836"><ele>145.0</ele><time>2026-04-25T17:26:02Z</time></trkpt><trkpt lat="46.09718357639383" lon="13.114621516164702"><ele>145.0</ele><time>2026-04-25T17:26:03Z</time></trkpt><trkpt lat="46.09711994005391" lon="13.114811370314435"><ele>145.0</ele><time>2026-04-25T17:26:04Z</time></trkpt><trkpt lat="46.09705323387794" lon="13.115002473327104"><ele>145.0</ele><time>2026-04-25T17:26:05Z</time></trkpt><trkpt lat="46.09698323036568" lon="13.115196415581226"><ele>145.0</ele><time>2026-04-25T17:26:06Z</time></trkpt><trkpt lat="46.09691138253675" lon="13.115399991827658"><ele>145.0</ele><time>2026-04-25T17:26:07Z</time></trkpt><trkpt lat="46.09683454354129" lon="13.11561743645672"><ele>145.0</ele><time>2026-04-25T17:26:08Z</time></trkpt><trkpt lat="46.09675181524498" lon="13.115845208476907"><ele>145.0</ele><time>2026-04-25T17:26:09Z</time></trkpt><trkpt lat="46.09666901195515" lon="13.116082308428076"><ele>145.0</ele><time>2026-04-25T17:26:10Z</time></trkpt><trkpt lat="46.09657935311848" lon="13.116333450094613"><ele>144.33333333333334</ele><time>2026-04-25T17:26:11Z</time></trkpt><trkpt lat="46.096482977482665" lon="13.116598627713687"><ele>143.66666666666666</ele><time>2026-04-25T17:26:12Z</time></trkpt><trkpt lat="46.096384469082246" lon="13.116872995051937"><ele>143.0</ele><time>2026-04-25T17:26:13Z</time></trkpt><trkpt lat="46.09628768033474" lon="13.117146223255727"><ele>142.66666666666666</ele><time>2026-04-25T17:26:14Z</time></trkpt><trkpt lat="46.09619304610336" lon="13.117414088977375"><ele>142.33333333333334</ele><time>2026-04-25T17:26:15Z</time></trkpt><trkpt lat="46.0960989411778" lon="13.117681150443637"><ele>142.0</ele><time>2026-04-25T17:26:16Z</time></trkpt><trkpt lat="46.09600334355509" lon="13.1179397270237"><ele>142.0</ele><time>2026-04-25T17:26:17Z</time></trkpt><trkpt lat="46.09591088109433" lon="13.118190959487718"><ele>142.0</ele><time>2026-04-25T17:26:18Z</time></trkpt><trkpt lat="46.09582285782698" lon="13.118436143138839"><ele>142.0</ele><time>2026-04-25T17:26:19Z</time></trkpt><trkpt lat="46.09573638126415" lon="13.118670045664519"><ele>141.66666666666669</ele><time>2026-04-25T17:26:20Z</time></trkpt><trkpt lat="46.095655074961115" lon="13.118899754292332"><ele>141.33333333333334</ele><time>2026-04-25T17:26:21Z</time></trkpt><trkpt lat="46.095576791376736" lon="13.119125821046175"><ele>141.0</ele><time>2026-04-25T17:26:22Z</time></trkpt><trkpt lat="46.09549710516404" lon="13.11934849469435"><ele>140.66666666666666</ele><time>2026-04-25T17:26:23Z</time></trkpt><trkpt lat="46.09541490721315" lon="13.1195806638704"><ele>140.33333333333331</ele><time>2026-04-25T17:26:24Z</time></trkpt><trkpt lat="46.09533228639001" lon="13.11982150808699"><ele>140.0</ele><time>2026-04-25T17:26:25Z</time></trkpt><trkpt lat="46.09525168133494" lon="13.120066767163644"><ele>140.0</ele><time>2026-04-25T17:26:26Z</time></trkpt><trkpt lat="46.09517042532117" lon="13.120320436979474"><ele>140.0</ele><time>2026-04-25T17:26:27Z</time></trkpt><trkpt lat="46.095088424755716" lon="13.120578324271193"><ele>140.0</ele><time>2026-04-25T17:26:28Z</time></trkpt><trkpt lat="46.09500638269745" lon="13.12084613138034"><ele>140.0</ele><time>2026-04-25T17:26:29Z</time></trkpt><trkpt lat="46.094922269900245" lon="13.121123468422054"><ele>140.0</ele><time>2026-04-25T17:26:30Z</time></trkpt><trkpt lat="46.094839225089636" lon="13.121407025505968"><ele>140.0</ele><time>2026-04-25T17:26:31Z</time></trkpt><trkpt lat="46.09475807035775" lon="13.121688995576234"><ele>139.0</ele><time>2026-04-25T17:26:32Z</time></trkpt><trkpt lat="46.09468205538517" lon="13.121969948604383"><ele>138.0</ele><time>2026-04-25T17:26:33Z</time></trkpt><trkpt lat="46.09460941062198" lon="13.122248114509551"><ele>137.0</ele><time>2026-04-25T17:26:34Z</time></trkpt><trkpt lat="46.09453822119081" lon="13.122525538943778"><ele>137.0</ele><time>2026-04-25T17:26:35Z</time></trkpt><trkpt lat="46.09446573056832" lon="13.12280164880422"><ele>137.0</ele><time>2026-04-25T17:26:36Z</time></trkpt><trkpt lat="46.094391858605334" lon="13.12307846054887"><ele>137.0</ele><time>2026-04-25T17:26:37Z</time></trkpt><trkpt lat="46.094318465709506" lon="13.123353386807638"><ele>137.66666666666666</ele><time>2026-04-25T17:26:38Z</time></trkpt><trkpt lat="46.094245117429445" lon="13.123619835312068"><ele>138.33333333333334</ele><time>2026-04-25T17:26:39Z</time></trkpt><trkpt lat="46.09417201639965" lon="13.12388027447014"><ele>139.0</ele><time>2026-04-25T17:26:40Z</time></trkpt><trkpt lat="46.09410285675311" lon="13.124132817644899"><ele>138.66666666666669</ele><time>2026-04-25T17:26:41Z</time></trkpt><trkpt lat="46.094035720103825" lon="13.124373418363566"><ele>138.33333333333334</ele><time>2026-04-25T17:26:42Z</time></trkpt><trkpt lat="46.09396866690973" lon="13.124603041444987"><ele>138.0</ele><time>2026-04-25T17:26:43Z</time></trkpt><trkpt lat="46.093904847182095" lon="13.124828508280928"><ele>138.33333333333334</ele><time>2026-04-25T17:26:44Z</time></trkpt><trkpt lat="46.09384377012798" lon="13.125051066366995"><ele>138.66666666666669</ele><time>2026-04-25T17:26:45Z</time></trkpt><trkpt lat="46.093782355715035" lon="13.125268596413312"><ele>139.0</ele><time>2026-04-25T17:26:46Z</time></trkpt><trkpt lat="46.09372111173983" lon="13.125486688043232"><ele>139.0</ele><time>2026-04-25T17:26:47Z</time></trkpt><trkpt lat="46.093658335564285" lon="13.125703740312982"><ele>139.0</ele><time>2026-04-25T17:26:48Z</time></trkpt><trkpt lat="46.093593808633585" lon="13.125917940394991"><ele>139.0</ele><time>2026-04-25T17:26:49Z</time></trkpt><trkpt lat="46.093529593975205" lon="13.126120066145686"><ele>138.75</ele><time>2026-04-25T17:26:50Z</time></trkpt><trkpt lat="46.09346813910026" lon="13.126309265037099"><ele>138.5</ele><time>2026-04-25T17:26:51Z</time></trkpt><trkpt lat="46.09340181620388" lon="13.12649799343695"><ele>138.25</ele><time>2026-04-25T17:26:52Z</time></trkpt><trkpt lat="46.093337246557226" lon="13.12668441432339"><ele>138.0</ele><time>2026-04-25T17:26:53Z</time></trkpt><trkpt lat="46.09327492201574" lon="13.126869803141165"><ele>137.75</ele><time>2026-04-25T17:26:54Z</time></trkpt><trkpt lat="46.0932123444835" lon="13.127056744671938"><ele>137.5</ele><time>2026-04-25T17:26:55Z</time></trkpt><trkpt lat="46.09314970503677" lon="13.127246893609216"><ele>137.25</ele><time>2026-04-25T17:26:56Z</time></trkpt><trkpt lat="46.09308328612345" lon="13.127433025711538"><ele>137.0</ele><time>2026-04-25T17:26:57Z</time></trkpt><trkpt lat="46.09301878668466" lon="13.12761285040557"><ele>136.75</ele><time>2026-04-25T17:26:58Z</time></trkpt><trkpt lat="46.09295698332339" lon="13.127787247193899"><ele>136.5</ele><time>2026-04-25T17:26:59Z</time></trkpt><trkpt lat="46.09290075333449" lon="13.12795229556426"><ele>136.25</ele><time>2026-04-25T17:27:00Z</time></trkpt><trkpt lat="46.092847689258306" lon="13.128112025922734"><ele>136.0</ele><time>2026-04-25T17:27:01Z</time></trkpt><trkpt lat="46.09279975158241" lon="13.128255660297198"><ele>136.0</ele><time>2026-04-25T17:27:02Z</time></trkpt><trkpt lat="46.092754999709264" lon="13.128385720700063"><ele>136.0</ele><time>2026-04-25T17:27:02.999Z</time></trkpt><trkpt lat="46.0927237201374" lon="13.128476694483144"><ele>136.0</ele><time>2026-04-25T17:27:03.999Z</time></trkpt><trkpt lat="46.092669228817535" lon="13.128626127385868"><ele>136.0</ele><time>2026-04-25T17:27:05.999Z</time></trkpt><trkpt lat="46.09263381961121" lon="13.128731581337416"><ele>136.0</ele><time>2026-04-25T17:27:08.999Z</time></trkpt><trkpt lat="46.092596005598104" lon="13.12884310432694"><ele>136.0</ele><time>2026-04-25T17:27:15.999Z</time></trkpt><trkpt lat="46.09255678457883" lon="13.12896781560837"><ele>136.0</ele><time>2026-04-25T17:27:17.999Z</time></trkpt><trkpt lat="46.092499116311814" lon="13.129129003482715"><ele>136.0</ele><time>2026-04-25T17:27:19.999Z</time></trkpt><trkpt lat="46.0924668180505" lon="13.12922572388177"><ele>136.0</ele><time>2026-04-25T17:27:20.999Z</time></trkpt><trkpt lat="46.09243262978661" lon="13.129326886517017"><ele>136.0</ele><time>2026-04-25T17:27:21.999Z</time></trkpt><trkpt lat="46.09239255708612" lon="13.129442868939499"><ele>135.5</ele><time>2026-04-25T17:27:22.999Z</time></trkpt><trkpt lat="46.09234511549117" lon="13.129584766377972"><ele>135.0</ele><time>2026-04-25T17:27:23.999Z</time></trkpt><trkpt lat="46.09229511158812" lon="13.129739978610344"><ele>134.5</ele><time>2026-04-25T17:27:24.999Z</time></trkpt><trkpt lat="46.092240026760955" lon="13.12989539036566"><ele>134.0</ele><time>2026-04-25T17:27:25.999Z</time></trkpt><trkpt lat="46.092185724282025" lon="13.130052317811591"><ele>134.0</ele><time>2026-04-25T17:27:26.999Z</time></trkpt><trkpt lat="46.092130334914174" lon="13.130214286518688"><ele>134.0</ele><time>2026-04-25T17:27:27.999Z</time></trkpt><trkpt lat="46.09207438671877" lon="13.130383036352715"><ele>134.0</ele><time>2026-04-25T17:27:28.999Z</time></trkpt><trkpt lat="46.09202912064981" lon="13.130542013969533"><ele>134.0</ele><time>2026-04-25T17:27:29.999Z</time></trkpt><trkpt lat="46.09199567863644" lon="13.130684474012918"><ele>133.83333333333331</ele><time>2026-04-25T17:27:30.999Z</time></trkpt><trkpt lat="46.0919662495417" lon="13.130815768467471"><ele>133.66666666666666</ele><time>2026-04-25T17:27:31.999Z</time></trkpt><trkpt lat="46.091941354263916" lon="13.130937041589199"><ele>133.5</ele><time>2026-04-25T17:27:32.999Z</time></trkpt><trkpt lat="46.091916680837436" lon="13.13105087106715"><ele>133.33333333333334</ele><time>2026-04-25T17:27:33.999Z</time></trkpt><trkpt lat="46.091891774126935" lon="13.131163794004182"><ele>133.16666666666669</ele><time>2026-04-25T17:27:34.999Z</time></trkpt><trkpt lat="46.091866364600236" lon="13.131281529493139"><ele>133.0</ele><time>2026-04-25T17:27:35.999Z</time></trkpt><trkpt lat="46.09184193507448" lon="13.131400964321003"><ele>133.0</ele><time>2026-04-25T17:27:36.999Z</time></trkpt><trkpt lat="46.09181343838508" lon="13.131525118936827"><ele>133.0</ele><time>2026-04-25T17:27:37.999Z</time></trkpt><trkpt lat="46.09178449072692" lon="13.131660241646617"><ele>133.0</ele><time>2026-04-25T17:27:38.999Z</time></trkpt><trkpt lat="46.091757012511664" lon="13.131809770171639"><ele>133.0</ele><time>2026-04-25T17:27:39.999Z</time></trkpt><trkpt lat="46.09173022018032" lon="13.13197038086996"><ele>133.0</ele><time>2026-04-25T17:27:40.999Z</time></trkpt><trkpt lat="46.09170070885135" lon="13.132139173606467"><ele>133.0</ele><time>2026-04-25T17:27:41.999Z</time></trkpt><trkpt lat="46.09166995323344" lon="13.132318129137321"><ele>133.0</ele><time>2026-04-25T17:27:42.999Z</time></trkpt><trkpt lat="46.091636355774504" lon="13.132506897731945"><ele>133.0</ele><time>2026-04-25T17:27:43.999Z</time></trkpt><trkpt lat="46.09160294036224" lon="13.132706968670602"><ele>133.0</ele><time>2026-04-25T17:27:44.999Z</time></trkpt><trkpt lat="46.09156723680418" lon="13.132923002653895"><ele>132.33333333333334</ele><time>2026-04-25T17:27:45.999Z</time></trkpt><trkpt lat="46.09153053243154" lon="13.13313711390713"><ele>131.66666666666666</ele><time>2026-04-25T17:27:46.999Z</time></trkpt><trkpt lat="46.09149781024736" lon="13.133349585411409"><ele>131.0</ele><time>2026-04-25T17:27:47.999Z</time></trkpt><trkpt lat="46.09146248825261" lon="13.133556728701477"><ele>130.33333333333331</ele><time>2026-04-25T17:27:48.999Z</time></trkpt><trkpt lat="46.091424278827226" lon="13.133769011865324"><ele>129.66666666666666</ele><time>2026-04-25T17:27:49.999Z</time></trkpt><trkpt lat="46.091389466128646" lon="13.133985144801363"><ele>129.0</ele><time>2026-04-25T17:27:50.999Z</time></trkpt><trkpt lat="46.09135239343166" lon="13.134210110101153"><ele>129.0</ele><time>2026-04-25T17:27:51.999Z</time></trkpt><trkpt lat="46.09131551550829" lon="13.134431666526"><ele>129.0</ele><time>2026-04-25T17:27:52.999Z</time></trkpt><trkpt lat="46.09128064776133" lon="13.134652969448963"><ele>129.0</ele><time>2026-04-25T17:27:53.999Z</time></trkpt><trkpt lat="46.09124340836068" lon="13.134875518216651"><ele>129.33333333333334</ele><time>2026-04-25T17:27:54.999Z</time></trkpt><trkpt lat="46.09120527110509" lon="13.135099562550467"><ele>129.66666666666669</ele><time>2026-04-25T17:27:55.999Z</time></trkpt><trkpt lat="46.09116824735135" lon="13.13533278433022"><ele>130.0</ele><time>2026-04-25T17:27:57Z</time></trkpt><trkpt lat="46.091131324666996" lon="13.135565649667333"><ele>129.66666666666669</ele><time>2026-04-25T17:27:58Z</time></trkpt><trkpt lat="46.09109316627372" lon="13.135799084237467"><ele>129.33333333333334</ele><time>2026-04-25T17:27:59Z</time></trkpt><trkpt lat="46.091053948585646" lon="13.136028779174254"><ele>129.0</ele><time>2026-04-25T17:28:00Z</time></trkpt><trkpt lat="46.091019302273665" lon="13.136249869741343"><ele>129.0</ele><time>2026-04-25T17:28:01Z</time></trkpt><trkpt lat="46.090983922072006" lon="13.13646070297359"><ele>129.0</ele><time>2026-04-25T17:28:02Z</time></trkpt><trkpt lat="46.0909504526912" lon="13.136667740406633"><ele>129.0</ele><time>2026-04-25T17:28:03Z</time></trkpt><trkpt lat="46.09091669873037" lon="13.136874563711553"><ele>129.0</ele><time>2026-04-25T17:28:04Z</time></trkpt><trkpt lat="46.09088303639752" lon="13.137081164421044"><ele>128.75</ele><time>2026-04-25T17:28:05Z</time></trkpt><trkpt lat="46.09084998383089" lon="13.137287023132656"><ele>128.5</ele><time>2026-04-25T17:28:06Z</time></trkpt><trkpt lat="46.09081531072487" lon="13.137495738228367"><ele>128.25</ele><time>2026-04-25T17:28:07Z</time></trkpt><trkpt lat="46.09078022174497" lon="13.137709146813098"><ele>128.0</ele><time>2026-04-25T17:28:08Z</time></trkpt><trkpt lat="46.090741487967044" lon="13.137928740589476"><ele>127.66666666666666</ele><time>2026-04-25T17:28:09Z</time></trkpt><trkpt lat="46.09070376477641" lon="13.138154701249883"><ele>127.33333333333334</ele><time>2026-04-25T17:28:10Z</time></trkpt><trkpt lat="46.09066477444361" lon="13.138381197695034"><ele>127.0</ele><time>2026-04-25T17:28:11Z</time></trkpt><trkpt lat="46.09062728573964" lon="13.138606354308164"><ele>127.0</ele><time>2026-04-25T17:28:12Z</time></trkpt><trkpt lat="46.090589238942705" lon="13.13882877818902"><ele>127.0</ele><time>2026-04-25T17:28:13Z</time></trkpt><trkpt lat="46.090554734901886" lon="13.139045377102567"><ele>127.0</ele><time>2026-04-25T17:28:14Z</time></trkpt><trkpt lat="46.09051978065106" lon="13.139265237395431"><ele>127.0</ele><time>2026-04-25T17:28:15Z</time></trkpt><trkpt lat="46.090484520746664" lon="13.139483244645573"><ele>127.0</ele><time>2026-04-25T17:28:16Z</time></trkpt><trkpt lat="46.09045020387354" lon="13.13969457009366"><ele>127.0</ele><time>2026-04-25T17:28:17Z</time></trkpt><trkpt lat="46.09041483547328" lon="13.139900409804193"><ele>127.25</ele><time>2026-04-25T17:28:18Z</time></trkpt><trkpt lat="46.09038205657262" lon="13.140101549383653"><ele>127.5</ele><time>2026-04-25T17:28:19Z</time></trkpt><trkpt lat="46.09035032579187" lon="13.140298370827404"><ele>127.75</ele><time>2026-04-25T17:28:20Z</time></trkpt><trkpt lat="46.09031895120356" lon="13.140491763325542"><ele>128.0</ele><time>2026-04-25T17:28:21Z</time></trkpt><trkpt lat="46.09028694414782" lon="13.140685830772776"><ele>128.0</ele><time>2026-04-25T17:28:22Z</time></trkpt><trkpt lat="46.090256343371074" lon="13.14088319028597"><ele>128.0</ele><time>2026-04-25T17:28:23Z</time></trkpt><trkpt lat="46.09022312579178" lon="13.141085639450202"><ele>128.0</ele><time>2026-04-25T17:28:24Z</time></trkpt><trkpt lat="46.09018755062751" lon="13.141290468613619"><ele>128.0</ele><time>2026-04-25T17:28:25Z</time></trkpt><trkpt lat="46.090151487771564" lon="13.141496313272366"><ele>127.75</ele><time>2026-04-25T17:28:26Z</time></trkpt><trkpt lat="46.09011710444693" lon="13.141700340540075"><ele>127.5</ele><time>2026-04-25T17:28:27Z</time></trkpt><trkpt lat="46.090084540663085" lon="13.141894180974877"><ele>127.25</ele><time>2026-04-25T17:28:28Z</time></trkpt><trkpt lat="46.09005460659943" lon="13.14207262784969"><ele>127.0</ele><time>2026-04-25T17:28:29Z</time></trkpt><trkpt lat="46.09002815415702" lon="13.142231832224889"><ele>127.0</ele><time>2026-04-25T17:28:30Z</time></trkpt><trkpt lat="46.09000037514976" lon="13.14237946786792"><ele>126.99999999999999</ele><time>2026-04-25T17:28:31Z</time></trkpt><trkpt lat="46.08995957555894" lon="13.142512976418704"><ele>126.99999999999999</ele><time>2026-04-25T17:28:32Z</time></trkpt><trkpt lat="46.0899007345533" lon="13.142638189371626"><ele>127.0</ele><time>2026-04-25T17:28:33Z</time></trkpt><trkpt lat="46.08982607458218" lon="13.142760129019567"><ele>127.0</ele><time>2026-04-25T17:28:34Z</time></trkpt><trkpt lat="46.089751564735636" lon="13.142891826756184"><ele>127.0</ele><time>2026-04-25T17:28:35Z</time></trkpt><trkpt lat="46.0896959298831" lon="13.143039832839468"><ele>127.0</ele><time>2026-04-25T17:28:36Z</time></trkpt><trkpt lat="46.08966390940309" lon="13.143206718990324"><ele>127.0</ele><time>2026-04-25T17:28:37Z</time></trkpt><trkpt lat="46.08965540810459" lon="13.143377913985903"><ele>127.0</ele><time>2026-04-25T17:28:38Z</time></trkpt><trkpt lat="46.089667976180955" lon="13.14354341474109"><ele>127.0</ele><time>2026-04-25T17:28:39Z</time></trkpt><trkpt lat="46.089702737151825" lon="13.14370728403239"><ele>127.0</ele><time>2026-04-25T17:28:40Z</time></trkpt><trkpt lat="46.089716918098915" lon="13.143883765025071"><ele>127.0</ele><time>2026-04-25T17:28:41Z</time></trkpt><trkpt lat="46.08970788738692" lon="13.144065315487692"><ele>127.0</ele><time>2026-04-25T17:28:42Z</time></trkpt><trkpt lat="46.08968341514029" lon="13.144253684146046"><ele>126.75</ele><time>2026-04-25T17:28:43Z</time></trkpt><trkpt lat="46.08965250544777" lon="13.144438151885943"><ele>126.5</ele><time>2026-04-25T17:28:44Z</time></trkpt><trkpt lat="46.08962239531495" lon="13.144622691060148"><ele>126.25</ele><time>2026-04-25T17:28:45Z</time></trkpt><trkpt lat="46.08959006923662" lon="13.144806996134694"><ele>126.0</ele><time>2026-04-25T17:28:46Z</time></trkpt><trkpt lat="46.089557436016996" lon="13.144991989814844"><ele>126.0</ele><time>2026-04-25T17:28:47Z</time></trkpt><trkpt lat="46.08952328958257" lon="13.14518462099739"><ele>126.0</ele><time>2026-04-25T17:28:48Z</time></trkpt><trkpt lat="46.08948745424764" lon="13.145385810590609"><ele>126.0</ele><time>2026-04-25T17:28:49Z</time></trkpt><trkpt lat="46.08945068496002" lon="13.145591580638634"><ele>126.0</ele><time>2026-04-25T17:28:50Z</time></trkpt><trkpt lat="46.08941428464725" lon="13.145805197252587"><ele>125.66666666666666</ele><time>2026-04-25T17:28:51Z</time></trkpt><trkpt lat="46.08937873777926" lon="13.146027143240676"><ele>125.33333333333333</ele><time>2026-04-25T17:28:52Z</time></trkpt><trkpt lat="46.08934325266774" lon="13.146247508017845"><ele>125.0</ele><time>2026-04-25T17:28:53Z</time></trkpt><trkpt lat="46.08930739232667" lon="13.146464197276337"><ele>125.0</ele><time>2026-04-25T17:28:54Z</time></trkpt><trkpt lat="46.08927302574428" lon="13.146678753034706"><ele>125.0</ele><time>2026-04-25T17:28:55Z</time></trkpt><trkpt lat="46.08924023294689" lon="13.146883974976578"><ele>125.0</ele><time>2026-04-25T17:28:56Z</time></trkpt><trkpt lat="46.08920835027588" lon="13.147084954542214"><ele>125.0</ele><time>2026-04-25T17:28:57Z</time></trkpt><trkpt lat="46.08917681886141" lon="13.147284410337992"><ele>125.33333333333333</ele><time>2026-04-25T17:28:58Z</time></trkpt><trkpt lat="46.08914368335583" lon="13.147490238745155"><ele>125.66666666666666</ele><time>2026-04-25T17:28:59Z</time></trkpt><trkpt lat="46.08910922053899" lon="13.147705136962218"><ele>126.0</ele><time>2026-04-25T17:29:00Z</time></trkpt><trkpt lat="46.08907412354811" lon="13.147929687428217"><ele>126.33333333333334</ele><time>2026-04-25T17:29:01Z</time></trkpt><trkpt lat="46.08903569704921" lon="13.148159217203903"><ele>126.66666666666667</ele><time>2026-04-25T17:29:02Z</time></trkpt><trkpt lat="46.08899746999468" lon="13.148383300368543"><ele>127.0</ele><time>2026-04-25T17:29:03Z</time></trkpt><trkpt lat="46.08895872841093" lon="13.148609840804223"><ele>127.0</ele><time>2026-04-25T17:29:04Z</time></trkpt><trkpt lat="46.08891933077823" lon="13.148831062744383"><ele>127.0</ele><time>2026-04-25T17:29:04.999Z</time></trkpt><trkpt lat="46.08887556625007" lon="13.149050984023454"><ele>127.0</ele><time>2026-04-25T17:29:05.999Z</time></trkpt><trkpt lat="46.08882746722298" lon="13.14926830357439"><ele>127.33333333333334</ele><time>2026-04-25T17:29:06.999Z</time></trkpt><trkpt lat="46.08877697342066" lon="13.14948134438173"><ele>127.66666666666666</ele><time>2026-04-25T17:29:07.999Z</time></trkpt><trkpt lat="46.08872465106679" lon="13.149692159973505"><ele>128.0</ele><time>2026-04-25T17:29:08.999Z</time></trkpt><trkpt lat="46.0886722422842" lon="13.14990256714167"><ele>128.0</ele><time>2026-04-25T17:29:09.999Z</time></trkpt><trkpt lat="46.08862271954239" lon="13.150110717481052"><ele>128.0</ele><time>2026-04-25T17:29:10.999Z</time></trkpt><trkpt lat="46.08857169628395" lon="13.15031470161483"><ele>128.0</ele><time>2026-04-25T17:29:11.999Z</time></trkpt><trkpt lat="46.08851815393816" lon="13.150513848894738"><ele>127.5</ele><time>2026-04-25T17:29:12.999Z</time></trkpt><trkpt lat="46.08846352019176" lon="13.150713907904308"><ele>127.0</ele><time>2026-04-25T17:29:13.999Z</time></trkpt><trkpt lat="46.08841294254591" lon="13.150914044749639"><ele>126.5</ele><time>2026-04-25T17:29:14.999Z</time></trkpt><trkpt lat="46.08835544527433" lon="13.15111142424947"><ele>126.0</ele><time>2026-04-25T17:29:15.999Z</time></trkpt><trkpt lat="46.08830265202169" lon="13.151307147442251"><ele>126.0</ele><time>2026-04-25T17:29:16.999Z</time></trkpt><trkpt lat="46.088251548909334" lon="13.151503385081725"><ele>126.0</ele><time>2026-04-25T17:29:17.999Z</time></trkpt><trkpt lat="46.08820077908815" lon="13.15169289314651"><ele>126.0</ele><time>2026-04-25T17:29:18.999Z</time></trkpt><trkpt lat="46.088149378019104" lon="13.151881366573624"><ele>126.0</ele><time>2026-04-25T17:29:19.999Z</time></trkpt><trkpt lat="46.08809822980369" lon="13.152067429899294"><ele>126.0</ele><time>2026-04-25T17:29:20.999Z</time></trkpt><trkpt lat="46.08805085284053" lon="13.15225670000545"><ele>126.0</ele><time>2026-04-25T17:29:21.999Z</time></trkpt><trkpt lat="46.08799667884957" lon="13.152450728639451"><ele>126.0</ele><time>2026-04-25T17:29:22.999Z</time></trkpt><trkpt lat="46.08794026294628" lon="13.152647588634482"><ele>126.0</ele><time>2026-04-25T17:29:23.999Z</time></trkpt><trkpt lat="46.08788269410676" lon="13.15285380852246"><ele>126.0</ele><time>2026-04-25T17:29:24.999Z</time></trkpt><trkpt lat="46.08782624629985" lon="13.153070073561684"><ele>126.0</ele><time>2026-04-25T17:29:25.999Z</time></trkpt><trkpt lat="46.087765957784576" lon="13.153284596586905"><ele>126.0</ele><time>2026-04-25T17:29:26.999Z</time></trkpt><trkpt lat="46.08770606187137" lon="13.153499445758627"><ele>126.0</ele><time>2026-04-25T17:29:27.999Z</time></trkpt><trkpt lat="46.08764478912801" lon="13.153720301632623"><ele>126.0</ele><time>2026-04-25T17:29:28.999Z</time></trkpt><trkpt lat="46.087586097295095" lon="13.153942924880912"><ele>126.0</ele><time>2026-04-25T17:29:29.999Z</time></trkpt><trkpt lat="46.08752628024726" lon="13.154168416180527"><ele>126.33333333333334</ele><time>2026-04-25T17:29:30.999Z</time></trkpt><trkpt lat="46.08746742718403" lon="13.154393769007072"><ele>126.66666666666667</ele><time>2026-04-25T17:29:31.999Z</time></trkpt><trkpt lat="46.087411011623594" lon="13.154622150234148"><ele>127.0</ele><time>2026-04-25T17:29:32.999Z</time></trkpt><trkpt lat="46.08735389628691" lon="13.154855025383862"><ele>126.33333333333334</ele><time>2026-04-25T17:29:33.999Z</time></trkpt><trkpt lat="46.08730054738135" lon="13.155086845878488"><ele>125.66666666666666</ele><time>2026-04-25T17:29:34.999Z</time></trkpt><trkpt lat="46.08725052243661" lon="13.155320154249488"><ele>125.0</ele><time>2026-04-25T17:29:35.999Z</time></trkpt><trkpt lat="46.087204678936786" lon="13.155552969333598"><ele>125.0</ele><time>2026-04-25T17:29:36.999Z</time></trkpt><trkpt lat="46.087153584401044" lon="13.15578277200269"><ele>125.0</ele><time>2026-04-25T17:29:37.999Z</time></trkpt><trkpt lat="46.087106484786375" lon="13.15600789306632"><ele>125.0</ele><time>2026-04-25T17:29:38.999Z</time></trkpt><trkpt lat="46.08705911614329" lon="13.156232495367119"><ele>125.0</ele><time>2026-04-25T17:29:39.999Z</time></trkpt><trkpt lat="46.08701270076312" lon="13.156457605555445"><ele>125.0</ele><time>2026-04-25T17:29:40.999Z</time></trkpt><trkpt lat="46.086964220601104" lon="13.156679456057402"><ele>125.0</ele><time>2026-04-25T17:29:41.999Z</time></trkpt><trkpt lat="46.086914645942606" lon="13.156899914270536"><ele>124.66666666666666</ele><time>2026-04-25T17:29:42.999Z</time></trkpt><trkpt lat="46.086867357881275" lon="13.15712280693896"><ele>124.33333333333334</ele><time>2026-04-25T17:29:43.999Z</time></trkpt><trkpt lat="46.08681892165742" lon="13.157347659380424"><ele>124.0</ele><time>2026-04-25T17:29:44.999Z</time></trkpt><trkpt lat="46.086771534100926" lon="13.157576830288999"><ele>124.0</ele><time>2026-04-25T17:29:45.999Z</time></trkpt><trkpt lat="46.086727559712386" lon="13.157805341259426"><ele>124.0</ele><time>2026-04-25T17:29:46.999Z</time></trkpt><trkpt lat="46.08668439326694" lon="13.158036999822274"><ele>124.0</ele><time>2026-04-25T17:29:47.999Z</time></trkpt><trkpt lat="46.0866350918724" lon="13.158274848350858"><ele>123.66666666666667</ele><time>2026-04-25T17:29:48.999Z</time></trkpt><trkpt lat="46.086585468087314" lon="13.158513520067121"><ele>123.33333333333334</ele><time>2026-04-25T17:29:49.999Z</time></trkpt><trkpt lat="46.0865403255723" lon="13.158748869703938"><ele>123.0</ele><time>2026-04-25T17:29:50.999Z</time></trkpt><trkpt lat="46.08650000831278" lon="13.158977917282296"><ele>122.75</ele><time>2026-04-25T17:29:51.999Z</time></trkpt><trkpt lat="46.08646746451954" lon="13.159198872759108"><ele>122.5</ele><time>2026-04-25T17:29:52.999Z</time></trkpt><trkpt lat="46.08643759607985" lon="13.15940789323982"><ele>122.25</ele><time>2026-04-25T17:29:53.999Z</time></trkpt><trkpt lat="46.08641125056087" lon="13.159600229332366"><ele>122.0</ele><time>2026-04-25T17:29:54.999Z</time></trkpt><trkpt lat="46.086386839711416" lon="13.159785114833218"><ele>121.75</ele><time>2026-04-25T17:29:55.999Z</time></trkpt><trkpt lat="46.08636468788209" lon="13.15996380152044"><ele>121.5</ele><time>2026-04-25T17:29:56.999Z</time></trkpt><trkpt lat="46.08634295044927" lon="13.160131003319506"><ele>121.25</ele><time>2026-04-25T17:29:57.999Z</time></trkpt><trkpt lat="46.086323619542405" lon="13.160296892840273"><ele>121.0</ele><time>2026-04-25T17:29:58.999Z</time></trkpt><trkpt lat="46.086304092976725" lon="13.160461773758058"><ele>121.0</ele><time>2026-04-25T17:29:59.999Z</time></trkpt><trkpt lat="46.086280414693945" lon="13.160627102127709"><ele>121.0</ele><time>2026-04-25T17:30:00.999Z</time></trkpt><trkpt lat="46.08625907140231" lon="13.16079304627983"><ele>121.0</ele><time>2026-04-25T17:30:01.999Z</time></trkpt><trkpt lat="46.08623896890172" lon="13.160957953625303"><ele>121.0</ele><time>2026-04-25T17:30:03Z</time></trkpt><trkpt lat="46.086218353954536" lon="13.16112401932603"><ele>121.0</ele><time>2026-04-25T17:30:04Z</time></trkpt><trkpt lat="46.086194724021745" lon="13.161291475693263"><ele>121.0</ele><time>2026-04-25T17:30:05Z</time></trkpt><trkpt lat="46.08616963922242" lon="13.16146752770955"><ele>121.0</ele><time>2026-04-25T17:30:06Z</time></trkpt><trkpt lat="46.086144817234555" lon="13.16164826144078"><ele>121.0</ele><time>2026-04-25T17:30:07Z</time></trkpt><trkpt lat="46.086118478301415" lon="13.161829898579512"><ele>121.0</ele><time>2026-04-25T17:30:08Z</time></trkpt><trkpt lat="46.08609099231778" lon="13.162008909506758"><ele>121.0</ele><time>2026-04-25T17:30:09Z</time></trkpt><trkpt lat="46.08606151517183" lon="13.162181819479706"><ele>121.0</ele><time>2026-04-25T17:30:10Z</time></trkpt><trkpt lat="46.08603277243465" lon="13.162348643487418"><ele>121.0</ele><time>2026-04-25T17:30:11Z</time></trkpt><trkpt lat="46.08600504049636" lon="13.162513193818937"><ele>120.75</ele><time>2026-04-25T17:30:12Z</time></trkpt><trkpt lat="46.085970968004595" lon="13.162673798157462"><ele>120.5</ele><time>2026-04-25T17:30:13Z</time></trkpt><trkpt lat="46.08593091574563" lon="13.162830122885332"><ele>120.25</ele><time>2026-04-25T17:30:14Z</time></trkpt><trkpt lat="46.085880157199604" lon="13.162989861165256"><ele>120.0</ele><time>2026-04-25T17:30:15Z</time></trkpt><trkpt lat="46.08579870354486" lon="13.163118943646422"><ele>120.25</ele><time>2026-04-25T17:30:16Z</time></trkpt><trkpt lat="46.08569586253686" lon="13.163260544078335"><ele>120.5</ele><time>2026-04-25T17:30:17Z</time></trkpt><trkpt lat="46.08557949608411" lon="13.163351229255678"><ele>120.75</ele><time>2026-04-25T17:30:18Z</time></trkpt><trkpt lat="46.08549768760399" lon="13.163492224959866"><ele>121.0</ele><time>2026-04-25T17:30:19Z</time></trkpt><trkpt lat="46.08544544454592" lon="13.163662701570082"><ele>121.0</ele><time>2026-04-25T17:30:20Z</time></trkpt><trkpt lat="46.08542290049691" lon="13.163850008099796"><ele>121.0</ele><time>2026-04-25T17:30:21Z</time></trkpt><trkpt lat="46.08542013700942" lon="13.164040939504552"><ele>121.0</ele><time>2026-04-25T17:30:22Z</time></trkpt><trkpt lat="46.085412932995446" lon="13.164229960502526"><ele>121.0</ele><time>2026-04-25T17:30:23Z</time></trkpt><trkpt lat="46.08539078212033" lon="13.164421893549477"><ele>121.5</ele><time>2026-04-25T17:30:24Z</time></trkpt><trkpt lat="46.08536240006718" lon="13.164619509824188"><ele>122.0</ele><time>2026-04-25T17:30:25Z</time></trkpt><trkpt lat="46.08535455661008" lon="13.164821262900272"><ele>122.5</ele><time>2026-04-25T17:30:26Z</time></trkpt><trkpt lat="46.085298622216044" lon="13.165027068795181"><ele>123.0</ele><time>2026-04-25T17:30:27Z</time></trkpt><trkpt lat="46.08528480660842" lon="13.16524413939683"><ele>123.0</ele><time>2026-04-25T17:30:28Z</time></trkpt><trkpt lat="46.085278246965565" lon="13.165466290583424"><ele>123.0</ele><time>2026-04-25T17:30:29Z</time></trkpt><trkpt lat="46.085269172750436" lon="13.165680927172778"><ele>123.0</ele><time>2026-04-25T17:30:30Z</time></trkpt><trkpt lat="46.085250591894706" lon="13.165890080837977"><ele>123.0</ele><time>2026-04-25T17:30:31Z</time></trkpt><trkpt lat="46.08522511743629" lon="13.166098085205572"><ele>123.0</ele><time>2026-04-25T17:30:32Z</time></trkpt><trkpt lat="46.08518943093504" lon="13.166308219651494"><ele>123.0</ele><time>2026-04-25T17:30:33Z</time></trkpt><trkpt lat="46.08514096979104" lon="13.166520506237042"><ele>122.66666666666666</ele><time>2026-04-25T17:30:34Z</time></trkpt><trkpt lat="46.08508119586748" lon="13.16673051496868"><ele>122.33333333333333</ele><time>2026-04-25T17:30:35Z</time></trkpt><trkpt lat="46.08501401871781" lon="13.166934198968361"><ele>122.0</ele><time>2026-04-25T17:30:36Z</time></trkpt><trkpt lat="46.084937831607725" lon="13.16713842634619"><ele>121.33333333333333</ele><time>2026-04-25T17:30:37Z</time></trkpt><trkpt lat="46.08485417848606" lon="13.167345950211322"><ele>120.66666666666666</ele><time>2026-04-25T17:30:38Z</time></trkpt><trkpt lat="46.084770708448055" lon="13.167554891864334"><ele>120.0</ele><time>2026-04-25T17:30:39Z</time></trkpt><trkpt lat="46.08468757808393" lon="13.167758799304362"><ele>120.0</ele><time>2026-04-25T17:30:40Z</time></trkpt><trkpt lat="46.08460685411502" lon="13.167960234233197"><ele>120.0</ele><time>2026-04-25T17:30:41Z</time></trkpt><trkpt lat="46.08452763432367" lon="13.168157736427657"><ele>120.0</ele><time>2026-04-25T17:30:42Z</time></trkpt><trkpt lat="46.08444532287575" lon="13.1683567781354"><ele>120.33333333333334</ele><time>2026-04-25T17:30:43Z</time></trkpt><trkpt lat="46.084364268975285" lon="13.168560218484963"><ele>120.66666666666667</ele><time>2026-04-25T17:30:44Z</time></trkpt><trkpt lat="46.08428090717796" lon="13.168765023247106"><ele>121.0</ele><time>2026-04-25T17:30:45Z</time></trkpt><trkpt lat="46.08419856877386" lon="13.168968195669043"><ele>121.33333333333334</ele><time>2026-04-25T17:30:46Z</time></trkpt><trkpt lat="46.08411522909093" lon="13.16916782499285"><ele>121.66666666666666</ele><time>2026-04-25T17:30:47Z</time></trkpt><trkpt lat="46.08403365902448" lon="13.169368317942066"><ele>122.0</ele><time>2026-04-25T17:30:48Z</time></trkpt><trkpt lat="46.08395147119675" lon="13.169572559439052"><ele>122.0</ele><time>2026-04-25T17:30:49Z</time></trkpt><trkpt lat="46.083867491061305" lon="13.169776541854192"><ele>122.0</ele><time>2026-04-25T17:30:50Z</time></trkpt><trkpt lat="46.08378329195025" lon="13.169981295278294"><ele>122.0</ele><time>2026-04-25T17:30:51Z</time></trkpt><trkpt lat="46.083698766114225" lon="13.170186303392274"><ele>122.0</ele><time>2026-04-25T17:30:52Z</time></trkpt><trkpt lat="46.08361363083834" lon="13.170394170247162"><ele>122.0</ele><time>2026-04-25T17:30:53Z</time></trkpt><trkpt lat="46.08353009647018" lon="13.170601975519459"><ele>122.0</ele><time>2026-04-25T17:30:54Z</time></trkpt><trkpt lat="46.08344543505166" lon="13.170811556613556"><ele>122.0</ele><time>2026-04-25T17:30:55Z</time></trkpt><trkpt lat="46.083360427351444" lon="13.171021283979778"><ele>122.0</ele><time>2026-04-25T17:30:56Z</time></trkpt><trkpt lat="46.083272856706934" lon="13.171234962684412"><ele>122.0</ele><time>2026-04-25T17:30:57Z</time></trkpt><trkpt lat="46.08318596199726" lon="13.171446227794071"><ele>121.66666666666666</ele><time>2026-04-25T17:30:58Z</time></trkpt><trkpt lat="46.08309748376081" lon="13.171661300675133"><ele>121.33333333333334</ele><time>2026-04-25T17:30:59Z</time></trkpt><trkpt lat="46.08301006461857" lon="13.171877593728576"><ele>121.0</ele><time>2026-04-25T17:31:00Z</time></trkpt><trkpt lat="46.082922618594594" lon="13.172092315203754"><ele>121.0</ele><time>2026-04-25T17:31:01Z</time></trkpt><trkpt lat="46.08283577185666" lon="13.172306031472138"><ele>121.0</ele><time>2026-04-25T17:31:02Z</time></trkpt><trkpt lat="46.08274714330132" lon="13.172518855472314"><ele>121.0</ele><time>2026-04-25T17:31:03Z</time></trkpt><trkpt lat="46.082661599710114" lon="13.172728411904211"><ele>121.0</ele><time>2026-04-25T17:31:03.999Z</time></trkpt><trkpt lat="46.08257249345842" lon="13.172934511296278"><ele>121.0</ele><time>2026-04-25T17:31:04.999Z</time></trkpt><trkpt lat="46.0824824926278" lon="13.17313581687389"><ele>121.0</ele><time>2026-04-25T17:31:05.999Z</time></trkpt><trkpt lat="46.082395554503364" lon="13.173336487577124"><ele>120.66666666666667</ele><time>2026-04-25T17:31:06.999Z</time></trkpt><trkpt lat="46.082311029074035" lon="13.173540011425901"><ele>120.33333333333334</ele><time>2026-04-25T17:31:07.999Z</time></trkpt><trkpt lat="46.082229499729245" lon="13.173737566630003"><ele>120.0</ele><time>2026-04-25T17:31:08.999Z</time></trkpt><trkpt lat="46.0821442012247" lon="13.173939966784634"><ele>120.0</ele><time>2026-04-25T17:31:09.999Z</time></trkpt><trkpt lat="46.082064716615704" lon="13.174137295470572"><ele>120.0</ele><time>2026-04-25T17:31:10.999Z</time></trkpt><trkpt lat="46.08198860792507" lon="13.174339003833206"><ele>120.0</ele><time>2026-04-25T17:31:11.999Z</time></trkpt><trkpt lat="46.08191501686376" lon="13.174533469448754"><ele>120.0</ele><time>2026-04-25T17:31:12.999Z</time></trkpt><trkpt lat="46.08183832251616" lon="13.174722286553077"><ele>120.0</ele><time>2026-04-25T17:31:13.999Z</time></trkpt><trkpt lat="46.0817610394841" lon="13.174914475657527"><ele>120.0</ele><time>2026-04-25T17:31:14.999Z</time></trkpt><trkpt lat="46.08168285491974" lon="13.175109920922544"><ele>120.0</ele><time>2026-04-25T17:31:15.999Z</time></trkpt><trkpt lat="46.08160517327824" lon="13.175310610462027"><ele>120.0</ele><time>2026-04-25T17:31:16.999Z</time></trkpt><trkpt lat="46.08152456460368" lon="13.17551006159115"><ele>120.0</ele><time>2026-04-25T17:31:17.999Z</time></trkpt><trkpt lat="46.08144676264809" lon="13.175705634882586"><ele>120.33333333333334</ele><time>2026-04-25T17:31:18.999Z</time></trkpt><trkpt lat="46.08137200076793" lon="13.17589940410434"><ele>120.66666666666667</ele><time>2026-04-25T17:31:19.999Z</time></trkpt><trkpt lat="46.081296028420944" lon="13.176086946290614"><ele>121.0</ele><time>2026-04-25T17:31:20.999Z</time></trkpt><trkpt lat="46.081222994605206" lon="13.17627419978994"><ele>121.0</ele><time>2026-04-25T17:31:21.999Z</time></trkpt><trkpt lat="46.081146128437844" lon="13.176463325073746"><ele>121.0</ele><time>2026-04-25T17:31:22.999Z</time></trkpt><trkpt lat="46.081065710921074" lon="13.176653136409875"><ele>121.0</ele><time>2026-04-25T17:31:23.999Z</time></trkpt><trkpt lat="46.080982784132544" lon="13.17684682513534"><ele>121.33333333333334</ele><time>2026-04-25T17:31:24.999Z</time></trkpt><trkpt lat="46.08090025873061" lon="13.177046505235223"><ele>121.66666666666666</ele><time>2026-04-25T17:31:25.999Z</time></trkpt><trkpt lat="46.08081743038037" lon="13.177251306055735"><ele>122.0</ele><time>2026-04-25T17:31:26.999Z</time></trkpt><trkpt lat="46.08073271307478" lon="13.177455926628454"><ele>121.0</ele><time>2026-04-25T17:31:27.999Z</time></trkpt><trkpt lat="46.080651578672274" lon="13.17766376581737"><ele>120.0</ele><time>2026-04-25T17:31:28.999Z</time></trkpt><trkpt lat="46.08056978270987" lon="13.177870924450692"><ele>119.0</ele><time>2026-04-25T17:31:29.999Z</time></trkpt><trkpt lat="46.08048718489296" lon="13.178074470084358"><ele>119.0</ele><time>2026-04-25T17:31:30.999Z</time></trkpt><trkpt lat="46.080402882515756" lon="13.178280677791344"><ele>119.0</ele><time>2026-04-25T17:31:31.999Z</time></trkpt><trkpt lat="46.080315901937645" lon="13.178484379800787"><ele>119.0</ele><time>2026-04-25T17:31:32.999Z</time></trkpt><trkpt lat="46.08023248122012" lon="13.178690490305561"><ele>119.0</ele><time>2026-04-25T17:31:33.999Z</time></trkpt><trkpt lat="46.080147421745686" lon="13.178892328117966"><ele>119.0</ele><time>2026-04-25T17:31:34.999Z</time></trkpt><trkpt lat="46.080063589942974" lon="13.179093992360867"><ele>119.0</ele><time>2026-04-25T17:31:35.999Z</time></trkpt><trkpt lat="46.0799804978433" lon="13.17929988310091"><ele>118.66666666666666</ele><time>2026-04-25T17:31:36.999Z</time></trkpt><trkpt lat="46.07989961640213" lon="13.179503267694551"><ele>118.33333333333334</ele><time>2026-04-25T17:31:37.999Z</time></trkpt><trkpt lat="46.07981787714855" lon="13.179707541434517"><ele>118.0</ele><time>2026-04-25T17:31:38.999Z</time></trkpt><trkpt lat="46.07973697323415" lon="13.179906169773"><ele>118.0</ele><time>2026-04-25T17:31:39.999Z</time></trkpt><trkpt lat="46.07965677628736" lon="13.180098060959505"><ele>118.0</ele><time>2026-04-25T17:31:40.999Z</time></trkpt><trkpt lat="46.07958063424217" lon="13.180293473218365"><ele>118.0</ele><time>2026-04-25T17:31:41.999Z</time></trkpt><trkpt lat="46.079503316560604" lon="13.18048736989667"><ele>118.0</ele><time>2026-04-25T17:31:42.999Z</time></trkpt><trkpt lat="46.07942405114667" lon="13.180681042722423"><ele>118.0</ele><time>2026-04-25T17:31:43.999Z</time></trkpt><trkpt lat="46.07934449558224" lon="13.180875802025843"><ele>118.0</ele><time>2026-04-25T17:31:44.999Z</time></trkpt><trkpt lat="46.079265379208515" lon="13.181073290344875"><ele>118.0</ele><time>2026-04-25T17:31:45.999Z</time></trkpt><trkpt lat="46.079185824873996" lon="13.181278565638813"><ele>118.0</ele><time>2026-04-25T17:31:46.999Z</time></trkpt><trkpt lat="46.07911193820416" lon="13.181487820736512"><ele>118.0</ele><time>2026-04-25T17:31:47.999Z</time></trkpt><trkpt lat="46.07904172912345" lon="13.181697127312088"><ele>117.66666666666667</ele><time>2026-04-25T17:31:48.999Z</time></trkpt><trkpt lat="46.07897380456712" lon="13.181904200782059"><ele>117.33333333333334</ele><time>2026-04-25T17:31:49.999Z</time></trkpt><trkpt lat="46.07890705680866" lon="13.182107485098115"><ele>117.0</ele><time>2026-04-25T17:31:50.999Z</time></trkpt><trkpt lat="46.07883957526014" lon="13.182305675832703"><ele>117.25</ele><time>2026-04-25T17:31:51.999Z</time></trkpt><trkpt lat="46.07877387243801" lon="13.182502559826833"><ele>117.5</ele><time>2026-04-25T17:31:52.999Z</time></trkpt><trkpt lat="46.078707896014386" lon="13.182692021743968"><ele>117.75</ele><time>2026-04-25T17:31:53.999Z</time></trkpt><trkpt lat="46.078644402066516" lon="13.182877494476749"><ele>118.0</ele><time>2026-04-25T17:31:54.999Z</time></trkpt><trkpt lat="46.07858313976963" lon="13.183065220956637"><ele>117.75</ele><time>2026-04-25T17:31:55.999Z</time></trkpt><trkpt lat="46.07851738876274" lon="13.183247980121694"><ele>117.5</ele><time>2026-04-25T17:31:56.999Z</time></trkpt><trkpt lat="46.07844566819668" lon="13.183421335667353"><ele>117.25</ele><time>2026-04-25T17:31:57.999Z</time></trkpt><trkpt lat="46.07836693858312" lon="13.18358764792203"><ele>117.0</ele><time>2026-04-25T17:31:58.999Z</time></trkpt><trkpt lat="46.07828300411888" lon="13.183743226488726"><ele>116.75</ele><time>2026-04-25T17:31:59.999Z</time></trkpt><trkpt lat="46.07820146500855" lon="13.183883026193618"><ele>116.5</ele><time>2026-04-25T17:32:00.999Z</time></trkpt><trkpt lat="46.078112546769965" lon="13.184018763463284"><ele>116.25</ele><time>2026-04-25T17:32:01.999Z</time></trkpt><trkpt lat="46.07802293393445" lon="13.184140025828293"><ele>116.0</ele><time>2026-04-25T17:32:02.999Z</time></trkpt><trkpt lat="46.07793854876444" lon="13.184248947523129"><ele>116.0</ele><time>2026-04-25T17:32:03.999Z</time></trkpt><trkpt lat="46.07785758210785" lon="13.184348136686328"><ele>116.0</ele><time>2026-04-25T17:32:04.999Z</time></trkpt><trkpt lat="46.07777722734378" lon="13.184443490293996"><ele>116.0</ele><time>2026-04-25T17:32:05.999Z</time></trkpt><trkpt lat="46.07770541168988" lon="13.184531141858775"><ele>116.0</ele><time>2026-04-25T17:32:06.999Z</time></trkpt><trkpt lat="46.077636772353344" lon="13.184581697342164"><ele>116.0</ele><time>2026-04-25T17:32:07.999Z</time></trkpt><trkpt lat="46.077569618262885" lon="13.184653989937253"><ele>115.99999999999999</ele><time>2026-04-25T17:32:10Z</time></trkpt><trkpt lat="46.07751050229964" lon="13.184729670412729"><ele>116.0</ele><time>2026-04-25T17:32:28Z</time></trkpt><trkpt lat="46.07744976538268" lon="13.184792049037457"><ele>116.0</ele><time>2026-04-25T17:32:30Z</time></trkpt><trkpt lat="46.07734142288671" lon="13.184903773143677"><ele>116.0</ele><time>2026-04-25T17:32:32Z</time></trkpt><trkpt lat="46.07728347123421" lon="13.184965914572704"><ele>115.99999999999999</ele><time>2026-04-25T17:32:33Z</time></trkpt><trkpt lat="46.07723245583741" lon="13.185022366080016"><ele>116.0</ele><time>2026-04-25T17:32:34Z</time></trkpt><trkpt lat="46.0771731979263" lon="13.185086432937712"><ele>115.8</ele><time>2026-04-25T17:32:35Z</time></trkpt><trkpt lat="46.0771090576738" lon="13.18515924393616"><ele>115.6</ele><time>2026-04-25T17:32:36Z</time></trkpt><trkpt lat="46.07704298514011" lon="13.185238040225071"><ele>115.4</ele><time>2026-04-25T17:32:37Z</time></trkpt><trkpt lat="46.076975060865216" lon="13.185329285287361"><ele>115.2</ele><time>2026-04-25T17:32:38Z</time></trkpt><trkpt lat="46.07691056399805" lon="13.185435828974654"><ele>115.0</ele><time>2026-04-25T17:32:39Z</time></trkpt><trkpt lat="46.07684542986882" lon="13.185557799740012"><ele>115.0</ele><time>2026-04-25T17:32:40Z</time></trkpt><trkpt lat="46.076782515371555" lon="13.185698257338666"><ele>115.0</ele><time>2026-04-25T17:32:41Z</time></trkpt><trkpt lat="46.07671914814951" lon="13.185857528151622"><ele>115.0</ele><time>2026-04-25T17:32:42Z</time></trkpt><trkpt lat="46.07665409180243" lon="13.186044556815386"><ele>115.0</ele><time>2026-04-25T17:32:43Z</time></trkpt><trkpt lat="46.07659487480842" lon="13.186248320959033"><ele>115.0</ele><time>2026-04-25T17:32:44Z</time></trkpt><trkpt lat="46.07653692210335" lon="13.18646410793006"><ele>115.0</ele><time>2026-04-25T17:32:45Z</time></trkpt><trkpt lat="46.07647607004978" lon="13.186675457364618"><ele>115.0</ele><time>2026-04-25T17:32:46Z</time></trkpt><trkpt lat="46.07641677513302" lon="13.18688460242183"><ele>115.0</ele><time>2026-04-25T17:32:47Z</time></trkpt><trkpt lat="46.07635125354842" lon="13.187096878583533"><ele>115.0</ele><time>2026-04-25T17:32:48Z</time></trkpt><trkpt lat="46.07628949690576" lon="13.187316494854613"><ele>115.0</ele><time>2026-04-25T17:32:49Z</time></trkpt><trkpt lat="46.076226714840104" lon="13.187543537023169"><ele>115.33333333333334</ele><time>2026-04-25T17:32:50Z</time></trkpt><trkpt lat="46.07615605092354" lon="13.187776715706507"><ele>115.66666666666666</ele><time>2026-04-25T17:32:51Z</time></trkpt><trkpt lat="46.07608161875351" lon="13.188018387560625"><ele>116.0</ele><time>2026-04-25T17:32:52Z</time></trkpt><trkpt lat="46.0760078523025" lon="13.188260086849036"><ele>116.0</ele><time>2026-04-25T17:32:53Z</time></trkpt><trkpt lat="46.07593857501544" lon="13.188498228691927"><ele>116.0</ele><time>2026-04-25T17:32:54Z</time></trkpt><trkpt lat="46.075875232437106" lon="13.188717104282917"><ele>116.0</ele><time>2026-04-25T17:32:55Z</time></trkpt><trkpt lat="46.07581766587436" lon="13.188912277199659"><ele>115.5</ele><time>2026-04-25T17:32:56Z</time></trkpt><trkpt lat="46.075758840320006" lon="13.189104571901165"><ele>115.0</ele><time>2026-04-25T17:32:57Z</time></trkpt><trkpt lat="46.07570107991406" lon="13.189296264277058"><ele>114.5</ele><time>2026-04-25T17:32:58Z</time></trkpt><trkpt lat="46.075643884706864" lon="13.189494043402748"><ele>114.0</ele><time>2026-04-25T17:32:59Z</time></trkpt><trkpt lat="46.07558536575971" lon="13.1896954468074"><ele>114.5</ele><time>2026-04-25T17:33:00Z</time></trkpt><trkpt lat="46.07552640090492" lon="13.189896602920001"><ele>115.0</ele><time>2026-04-25T17:33:01Z</time></trkpt><trkpt lat="46.07547290513219" lon="13.190082173715911"><ele>115.5</ele><time>2026-04-25T17:33:02Z</time></trkpt><trkpt lat="46.07542106620579" lon="13.19025273850644"><ele>116.0</ele><time>2026-04-25T17:33:03Z</time></trkpt><trkpt lat="46.0753796964598" lon="13.190414297871518"><ele>115.99999999999999</ele><time>2026-04-25T17:33:04Z</time></trkpt><trkpt lat="46.07534396819395" lon="13.190560466751808"><ele>116.0</ele><time>2026-04-25T17:33:05Z</time></trkpt><trkpt lat="46.075294174787" lon="13.190671018905142"><ele>116.0</ele><time>2026-04-25T17:33:06Z</time></trkpt><trkpt lat="46.07526500756096" lon="13.19077029128848"><ele>116.0</ele><time>2026-04-25T17:33:07Z</time></trkpt><trkpt lat="46.07525587169612" lon="13.190861808083447"><ele>115.99999999999999</ele><time>2026-04-25T17:33:08Z</time></trkpt><trkpt lat="46.07521486623845" lon="13.190939979826764"><ele>116.0</ele><time>2026-04-25T17:33:09.999Z</time></trkpt><trkpt lat="46.07516804474949" lon="13.191101904480899"><ele>116.0</ele><time>2026-04-25T17:33:35.999Z</time></trkpt><trkpt lat="46.07513978689923" lon="13.191199423899423"><ele>116.0</ele><time>2026-04-25T17:33:36.999Z</time></trkpt><trkpt lat="46.07511160653729" lon="13.19129667770601"><ele>116.0</ele><time>2026-04-25T17:33:37.999Z</time></trkpt><trkpt lat="46.07523487142779" lon="13.191386800631987"><ele>116.0</ele><time>2026-04-25T17:33:38.999Z</time></trkpt><trkpt lat="46.0753218055336" lon="13.191479843930244"><ele>116.0</ele><time>2026-04-25T17:33:39.999Z</time></trkpt><trkpt lat="46.075459611528515" lon="13.19153406889532"><ele>116.0</ele><time>2026-04-25T17:33:40.999Z</time></trkpt><trkpt lat="46.0756095751942" lon="13.191668390722162"><ele>116.0</ele><time>2026-04-25T17:33:41.999Z</time></trkpt><trkpt lat="46.0757835252167" lon="13.191812734756246"><ele>116.0</ele><time>2026-04-25T17:33:42.999Z</time></trkpt><trkpt lat="46.075982758740324" lon="13.191951782395424"><ele>115.33333333333333</ele><time>2026-04-25T17:33:43.999Z</time></trkpt><trkpt lat="46.0761647701349" lon="13.192104133213508"><ele>114.66666666666666</ele><time>2026-04-25T17:33:44.999Z</time></trkpt><trkpt lat="46.07631318151007" lon="13.192252243887939"><ele>114.0</ele><time>2026-04-25T17:33:45.999Z</time></trkpt><trkpt lat="46.07646207395046" lon="13.192349151786187"><ele>113.5</ele><time>2026-04-25T17:33:46.999Z</time></trkpt><trkpt lat="46.07659001238319" lon="13.192454717054757"><ele>113.0</ele><time>2026-04-25T17:33:47.999Z</time></trkpt><trkpt lat="46.07671136948162" lon="13.192554848105663"><ele>112.5</ele><time>2026-04-25T17:33:48.999Z</time></trkpt><trkpt lat="46.07682842286854" lon="13.19265513011866"><ele>112.0</ele><time>2026-04-25T17:33:49.999Z</time></trkpt><trkpt lat="46.076928413508796" lon="13.19274194680044"><ele>111.8</ele><time>2026-04-25T17:33:50.999Z</time></trkpt><trkpt lat="46.07701260603411" lon="13.192824260452673"><ele>111.6</ele><time>2026-04-25T17:33:51.999Z</time></trkpt><trkpt lat="46.077075985699615" lon="13.192917908627237"><ele>111.39999999999999</ele><time>2026-04-25T17:33:52.999Z</time></trkpt><trkpt lat="46.07710771369114" lon="13.19302969861575"><ele>111.19999999999999</ele><time>2026-04-25T17:33:53.999Z</time></trkpt><trkpt lat="46.07711138589883" lon="13.193157202088392"><ele>111.0</ele><time>2026-04-25T17:33:54.999Z</time></trkpt><trkpt lat="46.07708214695696" lon="13.193294827466255"><ele>111.0</ele><time>2026-04-25T17:33:55.999Z</time></trkpt><trkpt lat="46.07701918916357" lon="13.193418939440315"><ele>111.0</ele><time>2026-04-25T17:33:56.999Z</time></trkpt><trkpt lat="46.07693066563805" lon="13.193540182504849"><ele>111.0</ele><time>2026-04-25T17:33:57.999Z</time></trkpt><trkpt lat="46.07684316644061" lon="13.193688958468234"><ele>111.0</ele><time>2026-04-25T17:33:58.999Z</time></trkpt><trkpt lat="46.07671365595723" lon="13.193803192660928"><ele>112.0</ele><time>2026-04-25T17:33:59.999Z</time></trkpt><trkpt lat="46.07658559821619" lon="13.1939521845424"><ele>113.0</ele><time>2026-04-25T17:34:00.999Z</time></trkpt><trkpt lat="46.07641642163918" lon="13.194128334937377"><ele>114.0</ele><time>2026-04-25T17:34:01.999Z</time></trkpt><trkpt lat="46.076210557872884" lon="13.194325901439543"><ele>114.0</ele><time>2026-04-25T17:34:02.999Z</time></trkpt><trkpt lat="46.0759920268397" lon="13.194533625242858"><ele>114.0</ele><time>2026-04-25T17:34:03.999Z</time></trkpt><trkpt lat="46.07578054511971" lon="13.194737536666656"><ele>113.0</ele><time>2026-04-25T17:34:04.999Z</time></trkpt><trkpt lat="46.075572570633994" lon="13.19494793453219"><ele>112.0</ele><time>2026-04-25T17:34:05.999Z</time></trkpt><trkpt lat="46.075347625803964" lon="13.195160789738878"><ele>112.0</ele><time>2026-04-25T17:34:06.999Z</time></trkpt><trkpt lat="46.075113501162754" lon="13.195372191410467"><ele>112.0</ele><time>2026-04-25T17:34:07.999Z</time></trkpt><trkpt lat="46.0748736084199" lon="13.195562803669727"><ele>111.0</ele><time>2026-04-25T17:34:08.999Z</time></trkpt><trkpt lat="46.07463474922042" lon="13.195726079732093"><ele>110.0</ele><time>2026-04-25T17:34:09.999Z</time></trkpt><trkpt lat="46.07439840767751" lon="13.195868289332545"><ele>110.0</ele><time>2026-04-25T17:34:10.999Z</time></trkpt><trkpt lat="46.074167830057625" lon="13.195991817944742"><ele>110.0</ele><time>2026-04-25T17:34:11.999Z</time></trkpt><trkpt lat="46.07393451494229" lon="13.196108130021107"><ele>110.5</ele><time>2026-04-25T17:34:12.999Z</time></trkpt><trkpt lat="46.073692551800605" lon="13.196220770921476"><ele>111.0</ele><time>2026-04-25T17:34:13.999Z</time></trkpt><trkpt lat="46.07343703577804" lon="13.196327866836194"><ele>111.5</ele><time>2026-04-25T17:34:15Z</time></trkpt><trkpt lat="46.07317023234389" lon="13.19642435417241"><ele>112.0</ele><time>2026-04-25T17:34:16Z</time></trkpt><trkpt lat="46.07289129823356" lon="13.196508496991171"><ele>112.0</ele><time>2026-04-25T17:34:17Z</time></trkpt><trkpt lat="46.07260727500188" lon="13.196573294571548"><ele>112.0</ele><time>2026-04-25T17:34:18Z</time></trkpt><trkpt lat="46.072320030399695" lon="13.196624369563942"><ele>110.5</ele><time>2026-04-25T17:34:19Z</time></trkpt><trkpt lat="46.07203702782832" lon="13.19666566439644"><ele>109.0</ele><time>2026-04-25T17:34:20Z</time></trkpt><trkpt lat="46.0717662649636" lon="13.196700965152552"><ele>108.0</ele><time>2026-04-25T17:34:21Z</time></trkpt><trkpt lat="46.07150435944085" lon="13.196729210174201"><ele>107.0</ele><time>2026-04-25T17:34:22Z</time></trkpt><trkpt lat="46.07124669213773" lon="13.196765128370801"><ele>107.0</ele><time>2026-04-25T17:34:23Z</time></trkpt><trkpt lat="46.07098650696343" lon="13.196799315489045"><ele>107.0</ele><time>2026-04-25T17:34:24Z</time></trkpt><trkpt lat="46.07072611695621" lon="13.196834587363714"><ele>107.0</ele><time>2026-04-25T17:34:25Z</time></trkpt><trkpt lat="46.07045575304265" lon="13.196868396205074"><ele>107.0</ele><time>2026-04-25T17:34:26Z</time></trkpt><trkpt lat="46.0701826104605" lon="13.196904508831812"><ele>108.0</ele><time>2026-04-25T17:34:27Z</time></trkpt><trkpt lat="46.06990443724219" lon="13.19694024990962"><ele>109.0</ele><time>2026-04-25T17:34:28Z</time></trkpt><trkpt lat="46.06962160667189" lon="13.196976684304175"><ele>109.0</ele><time>2026-04-25T17:34:29Z</time></trkpt><trkpt lat="46.06933580638475" lon="13.197020533641885"><ele>109.0</ele><time>2026-04-25T17:34:30Z</time></trkpt><trkpt lat="46.06904373215005" lon="13.197061105553656"><ele>108.5</ele><time>2026-04-25T17:34:31Z</time></trkpt><trkpt lat="46.06875483791176" lon="13.197106445698049"><ele>108.0</ele><time>2026-04-25T17:34:32Z</time></trkpt><trkpt lat="46.06844955459154" lon="13.197111036408522"><ele>108.0</ele><time>2026-04-25T17:34:33Z</time></trkpt><trkpt lat="46.06815189581584" lon="13.197153814836039"><ele>108.0</ele><time>2026-04-25T17:34:34Z</time></trkpt><trkpt lat="46.06786205369294" lon="13.197194393081825"><ele>108.0</ele><time>2026-04-25T17:34:35Z</time></trkpt><trkpt lat="46.06757921168317" lon="13.197232716648633"><ele>108.0</ele><time>2026-04-25T17:34:36Z</time></trkpt><trkpt lat="46.06730124775594" lon="13.197272937504803"><ele>107.5</ele><time>2026-04-25T17:34:37Z</time></trkpt><trkpt lat="46.06702065158106" lon="13.197312014724593"><ele>107.0</ele><time>2026-04-25T17:34:38Z</time></trkpt><trkpt lat="46.06673503716451" lon="13.197349434054875"><ele>106.0</ele><time>2026-04-25T17:34:39Z</time></trkpt><trkpt lat="46.06645677891072" lon="13.197384454215909"><ele>105.0</ele><time>2026-04-25T17:34:40Z</time></trkpt><trkpt lat="46.06617959966872" lon="13.197417911985823"><ele>105.0</ele><time>2026-04-25T17:34:41Z</time></trkpt><trkpt lat="46.06589593297577" lon="13.19745554435302"><ele>105.0</ele><time>2026-04-25T17:34:42Z</time></trkpt><trkpt lat="46.065611916539" lon="13.197494073279367"><ele>105.5</ele><time>2026-04-25T17:34:43Z</time></trkpt><trkpt lat="46.06532505794177" lon="13.197535083061682"><ele>106.0</ele><time>2026-04-25T17:34:44Z</time></trkpt><trkpt lat="46.06503923604453" lon="13.19757294314246"><ele>105.0</ele><time>2026-04-25T17:34:45Z</time></trkpt><trkpt lat="46.06475256230838" lon="13.197608089192876"><ele>104.0</ele><time>2026-04-25T17:34:46Z</time></trkpt><trkpt lat="46.06446339666013" lon="13.197644203495129"><ele>104.0</ele><time>2026-04-25T17:34:47Z</time></trkpt><trkpt lat="46.06417170571657" lon="13.197680577563903"><ele>104.0</ele><time>2026-04-25T17:34:48Z</time></trkpt><trkpt lat="46.06387436532458" lon="13.19772365187676"><ele>104.5</ele><time>2026-04-25T17:34:49Z</time></trkpt><trkpt lat="46.06357599207987" lon="13.197765525522463"><ele>105.0</ele><time>2026-04-25T17:34:50Z</time></trkpt><trkpt lat="46.06327708341743" lon="13.197809099399509"><ele>104.0</ele><time>2026-04-25T17:34:51Z</time></trkpt><trkpt lat="46.06297551758599" lon="13.197862795752922"><ele>103.0</ele><time>2026-04-25T17:34:52Z</time></trkpt><trkpt lat="46.06267625683272" lon="13.197903952967275"><ele>101.0</ele><time>2026-04-25T17:34:53Z</time></trkpt><trkpt lat="46.062380640102944" lon="13.197941829657301"><ele>99.0</ele><time>2026-04-25T17:34:54Z</time></trkpt><trkpt lat="46.062090533851936" lon="13.197962744989482"><ele>99.0</ele><time>2026-04-25T17:34:55Z</time></trkpt><trkpt lat="46.061801948305" lon="13.19800431849946"><ele>99.0</ele><time>2026-04-25T17:34:56Z</time></trkpt><trkpt lat="46.06151172744342" lon="13.198042657663253"><ele>101.5</ele><time>2026-04-25T17:34:57Z</time></trkpt><trkpt lat="46.06122879492683" lon="13.198079649435206"><ele>104.0</ele><time>2026-04-25T17:34:58Z</time></trkpt><trkpt lat="46.06095088035896" lon="13.198116375703028"><ele>103.5</ele><time>2026-04-25T17:34:59Z</time></trkpt><trkpt lat="46.06068157552443" lon="13.198149527653845"><ele>103.0</ele><time>2026-04-25T17:35:00Z</time></trkpt><trkpt lat="46.060420371826986" lon="13.19819270508566"><ele>104.5</ele><time>2026-04-25T17:35:01Z</time></trkpt><trkpt lat="46.0601676138014" lon="13.198241467912355"><ele>106.0</ele><time>2026-04-25T17:35:02Z</time></trkpt><trkpt lat="46.05992315817686" lon="13.198299369940589"><ele>106.0</ele><time>2026-04-25T17:35:03Z</time></trkpt><trkpt lat="46.05968044443447" lon="13.198365677062684"><ele>106.0</ele><time>2026-04-25T17:35:04Z</time></trkpt><trkpt lat="46.05943343364241" lon="13.198442590439818"><ele>106.0</ele><time>2026-04-25T17:35:05Z</time></trkpt><trkpt lat="46.059185479521" lon="13.198534033006126"><ele>106.0</ele><time>2026-04-25T17:35:06Z</time></trkpt><trkpt lat="46.05893830222073" lon="13.198632552014757"><ele>105.0</ele><time>2026-04-25T17:35:07Z</time></trkpt><trkpt lat="46.05869302186097" lon="13.198732884416579"><ele>104.0</ele><time>2026-04-25T17:35:08Z</time></trkpt><trkpt lat="46.05844433240492" lon="13.198840927008357"><ele>104.0</ele><time>2026-04-25T17:35:09Z</time></trkpt><trkpt lat="46.058196290516356" lon="13.198954581098409"><ele>104.0</ele><time>2026-04-25T17:35:10Z</time></trkpt><trkpt lat="46.05795877491981" lon="13.199066183579095"><ele>104.0</ele><time>2026-04-25T17:35:11Z</time></trkpt><trkpt lat="46.05772947101633" lon="13.19918233844389"><ele>104.0</ele><time>2026-04-25T17:35:12Z</time></trkpt><trkpt lat="46.05749337690894" lon="13.199306751525329"><ele>103.5</ele><time>2026-04-25T17:35:12.999Z</time></trkpt><trkpt lat="46.057247002477645" lon="13.199445682693327"><ele>103.0</ele><time>2026-04-25T17:35:13.999Z</time></trkpt><trkpt lat="46.05699106718121" lon="13.199601941214873"><ele>103.0</ele><time>2026-04-25T17:35:14.999Z</time></trkpt><trkpt lat="46.0567241024309" lon="13.199777869308301"><ele>103.0</ele><time>2026-04-25T17:35:15.999Z</time></trkpt><trkpt lat="46.05644407606227" lon="13.199971144211128"><ele>104.0</ele><time>2026-04-25T17:35:16.999Z</time></trkpt><trkpt lat="46.05615355461774" lon="13.200178610413726"><ele>105.0</ele><time>2026-04-25T17:35:17.999Z</time></trkpt><trkpt lat="46.055851834443956" lon="13.200397517176151"><ele>102.5</ele><time>2026-04-25T17:35:18.999Z</time></trkpt><trkpt lat="46.05554997270313" lon="13.20062203480477"><ele>100.0</ele><time>2026-04-25T17:35:19.999Z</time></trkpt><trkpt lat="46.05524995887582" lon="13.200841590625988"><ele>100.0</ele><time>2026-04-25T17:35:20.999Z</time></trkpt><trkpt lat="46.05495492899184" lon="13.201054906502101"><ele>100.0</ele><time>2026-04-25T17:35:21.999Z</time></trkpt><trkpt lat="46.05466930707591" lon="13.201265252880594"><ele>99.5</ele><time>2026-04-25T17:35:22.999Z</time></trkpt><trkpt lat="46.05438694640377" lon="13.201474222020824"><ele>99.0</ele><time>2026-04-25T17:35:23.999Z</time></trkpt><trkpt lat="46.05410753550835" lon="13.201678538435603"><ele>100.5</ele><time>2026-04-25T17:35:24.999Z</time></trkpt><trkpt lat="46.05382553431473" lon="13.201883576398995"><ele>102.0</ele><time>2026-04-25T17:35:25.999Z</time></trkpt><trkpt lat="46.053542226383975" lon="13.202089210518551"><ele>101.0</ele><time>2026-04-25T17:35:26.999Z</time></trkpt><trkpt lat="46.05325564733068" lon="13.202297788369306"><ele>100.0</ele><time>2026-04-25T17:35:27.999Z</time></trkpt><trkpt lat="46.052969807502265" lon="13.202507881101"><ele>100.0</ele><time>2026-04-25T17:35:28.999Z</time></trkpt><trkpt lat="46.05268604015596" lon="13.202716269853282"><ele>100.0</ele><time>2026-04-25T17:35:29.999Z</time></trkpt><trkpt lat="46.05241635810584" lon="13.202912776841739"><ele>99.5</ele><time>2026-04-25T17:35:30.999Z</time></trkpt><trkpt lat="46.05215047350686" lon="13.20310475787162"><ele>99.0</ele><time>2026-04-25T17:35:31.999Z</time></trkpt><trkpt lat="46.05188400228078" lon="13.203293236067205"><ele>96.0</ele><time>2026-04-25T17:35:32.999Z</time></trkpt><trkpt lat="46.051614636193875" lon="13.203486321606647"><ele>93.0</ele><time>2026-04-25T17:35:33.999Z</time></trkpt><trkpt lat="46.051339901857546" lon="13.203685097863096"><ele>93.0</ele><time>2026-04-25T17:35:34.999Z</time></trkpt><trkpt lat="46.051057417984886" lon="13.203890762769957"><ele>93.0</ele><time>2026-04-25T17:35:35.999Z</time></trkpt><trkpt lat="46.05077233887674" lon="13.204097552778258"><ele>94.0</ele><time>2026-04-25T17:35:36.999Z</time></trkpt><trkpt lat="46.05048320146677" lon="13.20430640413187"><ele>95.0</ele><time>2026-04-25T17:35:37.999Z</time></trkpt><trkpt lat="46.05019487012218" lon="13.204517940045378"><ele>94.5</ele><time>2026-04-25T17:35:38.999Z</time></trkpt><trkpt lat="46.049907366776836" lon="13.204720850469485"><ele>94.0</ele><time>2026-04-25T17:35:39.999Z</time></trkpt><trkpt lat="46.049634170556395" lon="13.204916515235869"><ele>93.5</ele><time>2026-04-25T17:35:40.999Z</time></trkpt><trkpt lat="46.04937335826538" lon="13.20509967740495"><ele>93.0</ele><time>2026-04-25T17:35:41.999Z</time></trkpt><trkpt lat="46.04912374046619" lon="13.205291925512519"><ele>93.0</ele><time>2026-04-25T17:35:42.999Z</time></trkpt><trkpt lat="46.048884803614875" lon="13.205488772605591"><ele>93.0</ele><time>2026-04-25T17:35:43.999Z</time></trkpt><trkpt lat="46.04864902209452" lon="13.205689510824168"><ele>91.5</ele><time>2026-04-25T17:35:44.999Z</time></trkpt><trkpt lat="46.04842259365459" lon="13.205893340444902"><ele>90.0</ele><time>2026-04-25T17:35:45.999Z</time></trkpt><trkpt lat="46.048201150427786" lon="13.206095971115873"><ele>91.0</ele><time>2026-04-25T17:35:46.999Z</time></trkpt><trkpt lat="46.04798853336196" lon="13.206306180186365"><ele>92.0</ele><time>2026-04-25T17:35:47.999Z</time></trkpt><trkpt lat="46.0477762742869" lon="13.206528837269776"><ele>92.0</ele><time>2026-04-25T17:35:48.999Z</time></trkpt><trkpt lat="46.04757000433625" lon="13.206768701376964"><ele>92.0</ele><time>2026-04-25T17:35:49.999Z</time></trkpt><trkpt lat="46.04736705578828" lon="13.207020865045287"><ele>93.5</ele><time>2026-04-25T17:35:50.999Z</time></trkpt><trkpt lat="46.04716693347397" lon="13.207271497447191"><ele>95.0</ele><time>2026-04-25T17:35:51.999Z</time></trkpt><trkpt lat="46.04697298104847" lon="13.207528813714033"><ele>95.0</ele><time>2026-04-25T17:35:52.999Z</time></trkpt><trkpt lat="46.04678057828529" lon="13.207784850621591"><ele>95.0</ele><time>2026-04-25T17:35:53.999Z</time></trkpt><trkpt lat="46.04659136570132" lon="13.208033593834726"><ele>95.5</ele><time>2026-04-25T17:35:54.999Z</time></trkpt><trkpt lat="46.04640836582742" lon="13.208279821789592"><ele>96.0</ele><time>2026-04-25T17:35:55.999Z</time></trkpt><trkpt lat="46.046230028688846" lon="13.20851548935639"><ele>96.0</ele><time>2026-04-25T17:35:56.999Z</time></trkpt><trkpt lat="46.04605221415355" lon="13.208748360151237"><ele>96.0</ele><time>2026-04-25T17:35:57.999Z</time></trkpt><trkpt lat="46.045862149971626" lon="13.208987084691104"><ele>96.5</ele><time>2026-04-25T17:35:58.999Z</time></trkpt><trkpt lat="46.04565923073297" lon="13.209228172485144"><ele>97.0</ele><time>2026-04-25T17:35:59.999Z</time></trkpt><trkpt lat="46.04543449807661" lon="13.209453736889099"><ele>97.0</ele><time>2026-04-25T17:36:00.999Z</time></trkpt><trkpt lat="46.0451964096017" lon="13.209665872645893"><ele>97.0</ele><time>2026-04-25T17:36:01.999Z</time></trkpt><trkpt lat="46.04494678226856" lon="13.209869688063042"><ele>95.0</ele><time>2026-04-25T17:36:02.999Z</time></trkpt><trkpt lat="46.044690100582656" lon="13.210061801806253"><ele>93.0</ele><time>2026-04-25T17:36:03.999Z</time></trkpt><trkpt lat="46.04441277859845" lon="13.210254317954826"><ele>90.0</ele><time>2026-04-25T17:36:04.999Z</time></trkpt><trkpt lat="46.044120573133824" lon="13.21044104794585"><ele>87.0</ele><time>2026-04-25T17:36:05.999Z</time></trkpt><trkpt lat="46.043825949133904" lon="13.210614515107356"><ele>87.5</ele><time>2026-04-25T17:36:06.999Z</time></trkpt><trkpt lat="46.04354495128438" lon="13.210764884839852"><ele>88.0</ele><time>2026-04-25T17:36:07.999Z</time></trkpt><trkpt lat="46.04327601708928" lon="13.210882852876136"><ele>89.0</ele><time>2026-04-25T17:36:08.999Z</time></trkpt><trkpt lat="46.04300479836961" lon="13.210969175380429"><ele>90.0</ele><time>2026-04-25T17:36:09.999Z</time></trkpt><trkpt lat="46.042739436764954" lon="13.211023438054506"><ele>90.0</ele><time>2026-04-25T17:36:10.999Z</time></trkpt><trkpt lat="46.04247851366096" lon="13.211038172134447"><ele>90.0</ele><time>2026-04-25T17:36:11.999Z</time></trkpt><trkpt lat="46.042223555101465" lon="13.211017405586363"><ele>90.5</ele><time>2026-04-25T17:36:12.999Z</time></trkpt><trkpt lat="46.04197130564268" lon="13.210963915278208"><ele>91.0</ele><time>2026-04-25T17:36:13.999Z</time></trkpt><trkpt lat="46.04171636799872" lon="13.210889014585744"><ele>90.5</ele><time>2026-04-25T17:36:14.999Z</time></trkpt><trkpt lat="46.04145918650145" lon="13.210799756538163"><ele>90.0</ele><time>2026-04-25T17:36:15.999Z</time></trkpt><trkpt lat="46.04119671572689" lon="13.210715939358222"><ele>90.0</ele><time>2026-04-25T17:36:16.999Z</time></trkpt><trkpt lat="46.040948432513325" lon="13.210659682714821"><ele>90.0</ele><time>2026-04-25T17:36:17.999Z</time></trkpt><trkpt lat="46.04070688484069" lon="13.210634276373609"><ele>88.5</ele><time>2026-04-25T17:36:18.999Z</time></trkpt><trkpt lat="46.04047023617359" lon="13.210635936322575"><ele>87.0</ele><time>2026-04-25T17:36:19.999Z</time></trkpt><trkpt lat="46.040232142821466" lon="13.210675421207176"><ele>86.5</ele><time>2026-04-25T17:36:21Z</time></trkpt><trkpt lat="46.03999635033977" lon="13.210764711875152"><ele>86.0</ele><time>2026-04-25T17:36:22Z</time></trkpt><trkpt lat="46.03977649861067" lon="13.210902178775417"><ele>86.0</ele><time>2026-04-25T17:36:23Z</time></trkpt><trkpt lat="46.039571446372804" lon="13.211089185906093"><ele>86.0</ele><time>2026-04-25T17:36:24Z</time></trkpt><trkpt lat="46.03938250678064" lon="13.211318652703662"><ele>86.0</ele><time>2026-04-25T17:36:25Z</time></trkpt><trkpt lat="46.03920097694961" lon="13.211585319321772"><ele>86.0</ele><time>2026-04-25T17:36:26Z</time></trkpt><trkpt lat="46.03902221567256" lon="13.211878893757765"><ele>86.0</ele><time>2026-04-25T17:36:27Z</time></trkpt><trkpt lat="46.038840497562894" lon="13.21218603792784"><ele>86.0</ele><time>2026-04-25T17:36:28Z</time></trkpt><trkpt lat="46.03866587755195" lon="13.212459767932202"><ele>85.33333333333334</ele><time>2026-04-25T17:36:29Z</time></trkpt><trkpt lat="46.03850835311917" lon="13.212696317137636"><ele>84.66666666666667</ele><time>2026-04-25T17:36:30Z</time></trkpt><trkpt lat="46.038358573887564" lon="13.212929782558113"><ele>84.0</ele><time>2026-04-25T17:36:31Z</time></trkpt><trkpt lat="46.03817483280608" lon="13.213128896988792"><ele>86.0</ele><time>2026-04-25T17:36:32Z</time></trkpt><trkpt lat="46.037978894283484" lon="13.213295121489278"><ele>88.0</ele><time>2026-04-25T17:36:33Z</time></trkpt><trkpt lat="46.037771936390335" lon="13.21341327656051"><ele>88.0</ele><time>2026-04-25T17:36:34Z</time></trkpt><trkpt lat="46.037543604661714" lon="13.213492884702053"><ele>88.0</ele><time>2026-04-25T17:36:35Z</time></trkpt><trkpt lat="46.03729000237904" lon="13.213543049618393"><ele>87.5</ele><time>2026-04-25T17:36:36Z</time></trkpt><trkpt lat="46.03701342878682" lon="13.213553566939774"><ele>87.0</ele><time>2026-04-25T17:36:37Z</time></trkpt><trkpt lat="46.03672511672069" lon="13.213503801891939"><ele>88.0</ele><time>2026-04-25T17:36:38Z</time></trkpt><trkpt lat="46.0364388698482" lon="13.213398167960701"><ele>89.0</ele><time>2026-04-25T17:36:39Z</time></trkpt><trkpt lat="46.036148783252685" lon="13.2132681937144"><ele>88.0</ele><time>2026-04-25T17:36:40Z</time></trkpt><trkpt lat="46.035860674093335" lon="13.213121054901983"><ele>87.0</ele><time>2026-04-25T17:36:41Z</time></trkpt><trkpt lat="46.03557582489534" lon="13.212977998225911"><ele>86.5</ele><time>2026-04-25T17:36:42Z</time></trkpt><trkpt lat="46.03529350670722" lon="13.212842911610167"><ele>86.0</ele><time>2026-04-25T17:36:43Z</time></trkpt><trkpt lat="46.03500889976257" lon="13.212743488847108"><ele>86.0</ele><time>2026-04-25T17:36:44Z</time></trkpt><trkpt lat="46.03471827878696" lon="13.21269170452509"><ele>86.0</ele><time>2026-04-25T17:36:45Z</time></trkpt><trkpt lat="46.034425907961555" lon="13.21268718396027"><ele>86.5</ele><time>2026-04-25T17:36:46Z</time></trkpt><trkpt lat="46.03413626081411" lon="13.212712421937388"><ele>87.0</ele><time>2026-04-25T17:36:47Z</time></trkpt><trkpt lat="46.03384509052277" lon="13.212743660829624"><ele>87.0</ele><time>2026-04-25T17:36:48Z</time></trkpt><trkpt lat="46.03355078632976" lon="13.212770774823063"><ele>87.0</ele><time>2026-04-25T17:36:49Z</time></trkpt><trkpt lat="46.033250508971236" lon="13.212789634500353"><ele>86.5</ele><time>2026-04-25T17:36:50Z</time></trkpt><trkpt lat="46.03294648085101" lon="13.212807796573044"><ele>86.0</ele><time>2026-04-25T17:36:51Z</time></trkpt><trkpt lat="46.03263624306556" lon="13.212829143989213"><ele>86.0</ele><time>2026-04-25T17:36:52Z</time></trkpt><trkpt lat="46.03232637707784" lon="13.212851149996835"><ele>86.0</ele><time>2026-04-25T17:36:53Z</time></trkpt><trkpt lat="46.03202237195526" lon="13.212870101894893"><ele>86.0</ele><time>2026-04-25T17:36:54Z</time></trkpt><trkpt lat="46.03173070336243" lon="13.212886493502534"><ele>86.0</ele><time>2026-04-25T17:36:55Z</time></trkpt><trkpt lat="46.03144474186027" lon="13.212902333171073"><ele>85.5</ele><time>2026-04-25T17:36:56Z</time></trkpt><trkpt lat="46.03116285176002" lon="13.212920807114699"><ele>85.0</ele><time>2026-04-25T17:36:57Z</time></trkpt><trkpt lat="46.03087370828539" lon="13.21293391844499"><ele>84.5</ele><time>2026-04-25T17:36:58Z</time></trkpt><trkpt lat="46.0305849090522" lon="13.21294370469869"><ele>84.0</ele><time>2026-04-25T17:36:59Z</time></trkpt><trkpt lat="46.03028755865819" lon="13.212955777639793"><ele>84.0</ele><time>2026-04-25T17:37:00Z</time></trkpt><trkpt lat="46.02997971750941" lon="13.212967495636653"><ele>84.0</ele><time>2026-04-25T17:37:01Z</time></trkpt><trkpt lat="46.02966310015124" lon="13.212977387952758"><ele>83.5</ele><time>2026-04-25T17:37:02Z</time></trkpt><trkpt lat="46.02934319468727" lon="13.21298379977378"><ele>83.0</ele><time>2026-04-25T17:37:03Z</time></trkpt><trkpt lat="46.02902556681648" lon="13.212992569925309"><ele>83.0</ele><time>2026-04-25T17:37:04Z</time></trkpt><trkpt lat="46.02871512424991" lon="13.212994779626504"><ele>83.0</ele><time>2026-04-25T17:37:05Z</time></trkpt><trkpt lat="46.02840833698759" lon="13.212980468753834"><ele>81.5</ele><time>2026-04-25T17:37:06Z</time></trkpt><trkpt lat="46.02810388674853" lon="13.212961820130444"><ele>80.0</ele><time>2026-04-25T17:37:07Z</time></trkpt><trkpt lat="46.0277977980523" lon="13.212913943839602"><ele>80.0</ele><time>2026-04-25T17:37:08Z</time></trkpt><trkpt lat="46.027484470191894" lon="13.212862126937681"><ele>80.0</ele><time>2026-04-25T17:37:09Z</time></trkpt><trkpt lat="46.027177510190064" lon="13.212804226295466"><ele>79.0</ele><time>2026-04-25T17:37:10Z</time></trkpt><trkpt lat="46.0268597262616" lon="13.21274514704163"><ele>78.0</ele><time>2026-04-25T17:37:11Z</time></trkpt><trkpt lat="46.02653483989462" lon="13.212683674178196"><ele>78.0</ele><time>2026-04-25T17:37:12Z</time></trkpt><trkpt lat="46.02620547563697" lon="13.212628091760012"><ele>78.0</ele><time>2026-04-25T17:37:13Z</time></trkpt><trkpt lat="46.02588490856332" lon="13.212577877772116"><ele>78.0</ele><time>2026-04-25T17:37:14Z</time></trkpt><trkpt lat="46.02557282660321" lon="13.212545477961674"><ele>78.0</ele><time>2026-04-25T17:37:14.999Z</time></trkpt><trkpt lat="46.025264690579476" lon="13.212526299491842"><ele>78.5</ele><time>2026-04-25T17:37:15.999Z</time></trkpt><trkpt lat="46.024957444836176" lon="13.212526490191284"><ele>79.0</ele><time>2026-04-25T17:37:16.999Z</time></trkpt><trkpt lat="46.02465074017581" lon="13.212543073476882"><ele>79.0</ele><time>2026-04-25T17:37:17.999Z</time></trkpt><trkpt lat="46.024343067164395" lon="13.212574153301423"><ele>79.0</ele><time>2026-04-25T17:37:18.999Z</time></trkpt><trkpt lat="46.02403879237006" lon="13.212637145975725"><ele>79.0</ele><time>2026-04-25T17:37:19.999Z</time></trkpt><trkpt lat="46.023736616970886" lon="13.212735314875033"><ele>79.0</ele><time>2026-04-25T17:37:20.999Z</time></trkpt><trkpt lat="46.02343831890899" lon="13.212854551610047"><ele>79.5</ele><time>2026-04-25T17:37:21.999Z</time></trkpt><trkpt lat="46.02315309005996" lon="13.212994639997627"><ele>80.0</ele><time>2026-04-25T17:37:22.999Z</time></trkpt><trkpt lat="46.022883065338384" lon="13.213164188395373"><ele>80.0</ele><time>2026-04-25T17:37:23.999Z</time></trkpt><trkpt lat="46.022624234068566" lon="13.213350525674961"><ele>80.0</ele><time>2026-04-25T17:37:24.999Z</time></trkpt><trkpt lat="46.02237113188813" lon="13.213555043278392"><ele>80.5</ele><time>2026-04-25T17:37:25.999Z</time></trkpt><trkpt lat="46.02212193335689" lon="13.213771619314063"><ele>81.0</ele><time>2026-04-25T17:37:26.999Z</time></trkpt><trkpt lat="46.02186865117858" lon="13.213992103194458"><ele>80.5</ele><time>2026-04-25T17:37:27.999Z</time></trkpt><trkpt lat="46.021608922921885" lon="13.214218059600361"><ele>80.0</ele><time>2026-04-25T17:37:28.999Z</time></trkpt><trkpt lat="46.02133992785329" lon="13.214447058663541"><ele>80.0</ele><time>2026-04-25T17:37:29.999Z</time></trkpt><trkpt lat="46.021057887863165" lon="13.214679349414324"><ele>80.0</ele><time>2026-04-25T17:37:30.999Z</time></trkpt><trkpt lat="46.020775801040436" lon="13.21492086068691"><ele>79.5</ele><time>2026-04-25T17:37:31.999Z</time></trkpt><trkpt lat="46.020509642534236" lon="13.215149142921282"><ele>79.0</ele><time>2026-04-25T17:37:32.999Z</time></trkpt><trkpt lat="46.02026327159284" lon="13.215354049909855"><ele>79.0</ele><time>2026-04-25T17:37:33.999Z</time></trkpt><trkpt lat="46.020021020195024" lon="13.21555932259706"><ele>79.0</ele><time>2026-04-25T17:37:34.999Z</time></trkpt><trkpt lat="46.0197814534703" lon="13.215761755113927"><ele>79.0</ele><time>2026-04-25T17:37:35.999Z</time></trkpt><trkpt lat="46.019545952991706" lon="13.21596809729842"><ele>79.0</ele><time>2026-04-25T17:37:36.999Z</time></trkpt><trkpt lat="46.019316434653966" lon="13.216176544269912"><ele>80.0</ele><time>2026-04-25T17:37:37.999Z</time></trkpt><trkpt lat="46.01909334535685" lon="13.21639074873339"><ele>81.0</ele><time>2026-04-25T17:37:38.999Z</time></trkpt><trkpt lat="46.018872733225955" lon="13.216620210115746"><ele>81.0</ele><time>2026-04-25T17:37:39.999Z</time></trkpt><trkpt lat="46.01866011889809" lon="13.216862626016741"><ele>81.0</ele><time>2026-04-25T17:37:40.999Z</time></trkpt><trkpt lat="46.01845301081191" lon="13.217123732706714"><ele>81.5</ele><time>2026-04-25T17:37:41.999Z</time></trkpt><trkpt lat="46.01826166267488" lon="13.217391434749914"><ele>82.0</ele><time>2026-04-25T17:37:42.999Z</time></trkpt><trkpt lat="46.018079714195736" lon="13.2176674374814"><ele>82.0</ele><time>2026-04-25T17:37:43.999Z</time></trkpt><trkpt lat="46.017925138492735" lon="13.217969766275473"><ele>82.0</ele><time>2026-04-25T17:37:44.999Z</time></trkpt><trkpt lat="46.017782600942866" lon="13.218287055082794"><ele>82.0</ele><time>2026-04-25T17:37:45.999Z</time></trkpt><trkpt lat="46.01764128076165" lon="13.218600828783957"><ele>82.0</ele><time>2026-04-25T17:37:46.999Z</time></trkpt><trkpt lat="46.017510333045834" lon="13.218919535825618"><ele>81.0</ele><time>2026-04-25T17:37:47.999Z</time></trkpt><trkpt lat="46.01739937671968" lon="13.219246796475854"><ele>80.0</ele><time>2026-04-25T17:37:48.999Z</time></trkpt><trkpt lat="46.01730725058502" lon="13.219582425354622"><ele>79.0</ele><time>2026-04-25T17:37:49.999Z</time></trkpt><trkpt lat="46.01722290344855" lon="13.219919014711719"><ele>78.0</ele><time>2026-04-25T17:37:50.999Z</time></trkpt><trkpt lat="46.01714881410334" lon="13.220232421658961"><ele>78.0</ele><time>2026-04-25T17:37:51.999Z</time></trkpt><trkpt lat="46.01707979303124" lon="13.220525732159183"><ele>78.0</ele><time>2026-04-25T17:37:52.999Z</time></trkpt><trkpt lat="46.01701553122156" lon="13.220809673363936"><ele>78.0</ele><time>2026-04-25T17:37:53.999Z</time></trkpt><trkpt lat="46.01695305714897" lon="13.22109198600398"><ele>78.0</ele><time>2026-04-25T17:37:54.999Z</time></trkpt><trkpt lat="46.01689104206936" lon="13.22137964541413"><ele>78.0</ele><time>2026-04-25T17:37:55.999Z</time></trkpt><trkpt lat="46.016826733694806" lon="13.221667390513133"><ele>78.0</ele><time>2026-04-25T17:37:56.999Z</time></trkpt><trkpt lat="46.01676233586018" lon="13.221950792297285"><ele>78.0</ele><time>2026-04-25T17:37:57.999Z</time></trkpt><trkpt lat="46.016697778657715" lon="13.22222661807571"><ele>78.0</ele><time>2026-04-25T17:37:58.999Z</time></trkpt><trkpt lat="46.01662799660382" lon="13.22249704691318"><ele>78.0</ele><time>2026-04-25T17:37:59.999Z</time></trkpt><trkpt lat="46.01655237108403" lon="13.222757847497919"><ele>78.66666666666667</ele><time>2026-04-25T17:38:00.999Z</time></trkpt><trkpt lat="46.01647336509451" lon="13.223012684569547"><ele>79.33333333333334</ele><time>2026-04-25T17:38:01.999Z</time></trkpt><trkpt lat="46.016392119681555" lon="13.223259545438403"><ele>80.0</ele><time>2026-04-25T17:38:02.999Z</time></trkpt><trkpt lat="46.01630225081208" lon="13.223499442732221"><ele>80.0</ele><time>2026-04-25T17:38:03.999Z</time></trkpt><trkpt lat="46.01620163404255" lon="13.223736659893254"><ele>80.0</ele><time>2026-04-25T17:38:04.999Z</time></trkpt><trkpt lat="46.01609321016113" lon="13.223966994335246"><ele>80.0</ele><time>2026-04-25T17:38:05.999Z</time></trkpt><trkpt lat="46.01597558482723" lon="13.224191125124767"><ele>80.0</ele><time>2026-04-25T17:38:06.999Z</time></trkpt><trkpt lat="46.01584985397473" lon="13.224407580334482"><ele>80.0</ele><time>2026-04-25T17:38:07.999Z</time></trkpt><trkpt lat="46.01571535853479" lon="13.224613260392477"><ele>80.0</ele><time>2026-04-25T17:38:08.999Z</time></trkpt><trkpt lat="46.015579440879186" lon="13.224804400418922"><ele>80.0</ele><time>2026-04-25T17:38:09.999Z</time></trkpt><trkpt lat="46.015448104880335" lon="13.224967155507153"><ele>80.0</ele><time>2026-04-25T17:38:10.999Z</time></trkpt><trkpt lat="46.01531552412939" lon="13.225105419876119"><ele>80.0</ele><time>2026-04-25T17:38:11.999Z</time></trkpt><trkpt lat="46.01518977073434" lon="13.225220741799275"><ele>80.0</ele><time>2026-04-25T17:38:12.999Z</time></trkpt><trkpt lat="46.01507463065491" lon="13.225318666465212"><ele>80.0</ele><time>2026-04-25T17:38:13.999Z</time></trkpt><trkpt lat="46.014951101701286" lon="13.2254131500193"><ele>80.0</ele><time>2026-04-25T17:38:14.999Z</time></trkpt><trkpt lat="46.01483551397771" lon="13.225487318823733"><ele>80.0</ele><time>2026-04-25T17:38:15.999Z</time></trkpt><trkpt lat="46.01471424123466" lon="13.225529093135181"><ele>79.5</ele><time>2026-04-25T17:38:16.999Z</time></trkpt><trkpt lat="46.01459339893482" lon="13.225537403404307"><ele>79.0</ele><time>2026-04-25T17:38:17.999Z</time></trkpt><trkpt lat="46.0144789081448" lon="13.225517074275668"><ele>78.5</ele><time>2026-04-25T17:38:18.999Z</time></trkpt><trkpt lat="46.014366924935366" lon="13.22546508177685"><ele>78.0</ele><time>2026-04-25T17:38:19.999Z</time></trkpt><trkpt lat="46.0142641842902" lon="13.225383377769797"><ele>78.0</ele><time>2026-04-25T17:38:20.999Z</time></trkpt><trkpt lat="46.01417698155659" lon="13.225265564896514"><ele>78.0</ele><time>2026-04-25T17:38:21.999Z</time></trkpt><trkpt lat="46.01410603743811" lon="13.22512525931133"><ele>78.0</ele><time>2026-04-25T17:38:22.999Z</time></trkpt><trkpt lat="46.01405719810456" lon="13.224965369245423"><ele>78.0</ele><time>2026-04-25T17:38:23.999Z</time></trkpt><trkpt lat="46.01402987286265" lon="13.22479692713119"><ele>78.0</ele><time>2026-04-25T17:38:24.999Z</time></trkpt><trkpt lat="46.01402924288603" lon="13.224626019294627"><ele>78.0</ele><time>2026-04-25T17:38:25.999Z</time></trkpt><trkpt lat="46.01405425606648" lon="13.2244545735272"><ele>78.0</ele><time>2026-04-25T17:38:27Z</time></trkpt><trkpt lat="46.01410282130105" lon="13.224295642873994"><ele>78.0</ele><time>2026-04-25T17:38:28Z</time></trkpt><trkpt lat="46.01417882790008" lon="13.224155324311662"><ele>78.0</ele><time>2026-04-25T17:38:29Z</time></trkpt><trkpt lat="46.01427297114966" lon="13.224036350239533"><ele>78.0</ele><time>2026-04-25T17:38:30Z</time></trkpt><trkpt lat="46.01438710690236" lon="13.223948312638276"><ele>78.0</ele><time>2026-04-25T17:38:31Z</time></trkpt><trkpt lat="46.01451905394874" lon="13.223899943307975"><ele>78.0</ele><time>2026-04-25T17:38:32Z</time></trkpt><trkpt lat="46.01465791844149" lon="13.223890321961068"><ele>78.0</ele><time>2026-04-25T17:38:33Z</time></trkpt><trkpt lat="46.01479680159871" lon="13.223933873651783"><ele>78.0</ele><time>2026-04-25T17:38:34Z</time></trkpt><trkpt lat="46.01492374465904" lon="13.224029617302001"><ele>78.0</ele><time>2026-04-25T17:38:35Z</time></trkpt><trkpt lat="46.0150509330772" lon="13.224161244767117"><ele>78.0</ele><time>2026-04-25T17:38:36Z</time></trkpt><trkpt lat="46.0151805616049" lon="13.224322178326343"><ele>78.66666666666667</ele><time>2026-04-25T17:38:37Z</time></trkpt><trkpt lat="46.01530365654355" lon="13.224518660121273"><ele>79.33333333333334</ele><time>2026-04-25T17:38:38Z</time></trkpt><trkpt lat="46.01542368463773" lon="13.224734169743398"><ele>80.0</ele><time>2026-04-25T17:38:39Z</time></trkpt><trkpt lat="46.015528685154464" lon="13.224965343808691"><ele>80.0</ele><time>2026-04-25T17:38:40Z</time></trkpt><trkpt lat="46.01562283775315" lon="13.225198786387196"><ele>80.0</ele><time>2026-04-25T17:38:41Z</time></trkpt><trkpt lat="46.015718387599414" lon="13.225433788564196"><ele>80.0</ele><time>2026-04-25T17:38:42Z</time></trkpt><trkpt lat="46.01581905208394" lon="13.225670157501877"><ele>80.33333333333334</ele><time>2026-04-25T17:38:43Z</time></trkpt><trkpt lat="46.015920221848596" lon="13.225903773102996"><ele>80.66666666666667</ele><time>2026-04-25T17:38:44Z</time></trkpt><trkpt lat="46.01602160886178" lon="13.226139596566817"><ele>81.0</ele><time>2026-04-25T17:38:45Z</time></trkpt><trkpt lat="46.01612376064858" lon="13.226376147389388"><ele>81.0</ele><time>2026-04-25T17:38:46Z</time></trkpt><trkpt lat="46.0162262197471" lon="13.226618916727496"><ele>81.0</ele><time>2026-04-25T17:38:47Z</time></trkpt><trkpt lat="46.01633172570977" lon="13.226865912650936"><ele>81.0</ele><time>2026-04-25T17:38:48Z</time></trkpt><trkpt lat="46.01644237542783" lon="13.22712160809924"><ele>81.0</ele><time>2026-04-25T17:38:49Z</time></trkpt><trkpt lat="46.01655486969081" lon="13.227385472139453"><ele>81.0</ele><time>2026-04-25T17:38:50Z</time></trkpt><trkpt lat="46.01666869546854" lon="13.227662401270413"><ele>81.0</ele><time>2026-04-25T17:38:51Z</time></trkpt><trkpt lat="46.016781951691" lon="13.227950332962978"><ele>80.0</ele><time>2026-04-25T17:38:52Z</time></trkpt><trkpt lat="46.0168928695727" lon="13.228244007049943"><ele>79.0</ele><time>2026-04-25T17:38:53Z</time></trkpt><trkpt lat="46.016997543577766" lon="13.228539227251316"><ele>79.0</ele><time>2026-04-25T17:38:54Z</time></trkpt><trkpt lat="46.01709673122891" lon="13.228835435342772"><ele>79.0</ele><time>2026-04-25T17:38:55Z</time></trkpt><trkpt lat="46.01719127847748" lon="13.229139612752137"><ele>78.5</ele><time>2026-04-25T17:38:56Z</time></trkpt><trkpt lat="46.01728267144294" lon="13.229454084196647"><ele>78.0</ele><time>2026-04-25T17:38:57Z</time></trkpt><trkpt lat="46.01736736671636" lon="13.229783868585526"><ele>78.0</ele><time>2026-04-25T17:38:58Z</time></trkpt><trkpt lat="46.01744284980079" lon="13.230126568514093"><ele>78.0</ele><time>2026-04-25T17:38:59Z</time></trkpt><trkpt lat="46.01751091856362" lon="13.23048451633518"><ele>78.0</ele><time>2026-04-25T17:39:00Z</time></trkpt><trkpt lat="46.01756981167005" lon="13.230852254051046"><ele>78.0</ele><time>2026-04-25T17:39:01Z</time></trkpt><trkpt lat="46.01762275407039" lon="13.23122759261312"><ele>78.0</ele><time>2026-04-25T17:39:02Z</time></trkpt><trkpt lat="46.01767051265866" lon="13.231599097095422"><ele>78.0</ele><time>2026-04-25T17:39:03Z</time></trkpt><trkpt lat="46.017712437512664" lon="13.231970629643408"><ele>78.5</ele><time>2026-04-25T17:39:04Z</time></trkpt><trkpt lat="46.01775107100479" lon="13.232332671084476"><ele>79.0</ele><time>2026-04-25T17:39:05Z</time></trkpt><trkpt lat="46.01778423401734" lon="13.232702397065625"><ele>79.0</ele><time>2026-04-25T17:39:06Z</time></trkpt><trkpt lat="46.0178040521072" lon="13.233066091496546"><ele>79.0</ele><time>2026-04-25T17:39:07Z</time></trkpt><trkpt lat="46.01780941735927" lon="13.233419585170717"><ele>78.5</ele><time>2026-04-25T17:39:08Z</time></trkpt><trkpt lat="46.01779968392303" lon="13.23377156649535"><ele>78.0</ele><time>2026-04-25T17:39:09Z</time></trkpt><trkpt lat="46.017786013440364" lon="13.234118168293739"><ele>78.0</ele><time>2026-04-25T17:39:10Z</time></trkpt><trkpt lat="46.017768754188" lon="13.234446398068153"><ele>78.0</ele><time>2026-04-25T17:39:11Z</time></trkpt><trkpt lat="46.01774710079528" lon="13.234764732486834"><ele>78.0</ele><time>2026-04-25T17:39:12Z</time></trkpt><trkpt lat="46.017718681938376" lon="13.235086467807196"><ele>78.0</ele><time>2026-04-25T17:39:13Z</time></trkpt><trkpt lat="46.017686319201786" lon="13.235418509610344"><ele>78.5</ele><time>2026-04-25T17:39:14Z</time></trkpt><trkpt lat="46.0176470740816" lon="13.235751537381358"><ele>79.0</ele><time>2026-04-25T17:39:15Z</time></trkpt><trkpt lat="46.017597378909834" lon="13.236076120255667"><ele>79.0</ele><time>2026-04-25T17:39:16Z</time></trkpt><trkpt lat="46.01753695878878" lon="13.236403073785276"><ele>79.0</ele><time>2026-04-25T17:39:17Z</time></trkpt><trkpt lat="46.01747264839187" lon="13.236726464205557"><ele>78.0</ele><time>2026-04-25T17:39:18Z</time></trkpt><trkpt lat="46.017403324286256" lon="13.237052703026732"><ele>77.0</ele><time>2026-04-25T17:39:18.999Z</time></trkpt><trkpt lat="46.01733807916265" lon="13.237394838337964"><ele>77.0</ele><time>2026-04-25T17:39:19.999Z</time></trkpt><trkpt lat="46.01727477893136" lon="13.23774611822191"><ele>77.0</ele><time>2026-04-25T17:39:20.999Z</time></trkpt><trkpt lat="46.017209632386816" lon="13.238108512846322"><ele>77.0</ele><time>2026-04-25T17:39:21.999Z</time></trkpt><trkpt lat="46.017142832241035" lon="13.238478653605227"><ele>77.0</ele><time>2026-04-25T17:39:22.999Z</time></trkpt><trkpt lat="46.017073475316224" lon="13.238858937014598"><ele>76.5</ele><time>2026-04-25T17:39:23.999Z</time></trkpt><trkpt lat="46.01700041338244" lon="13.23924986838948"><ele>76.0</ele><time>2026-04-25T17:39:24.999Z</time></trkpt><trkpt lat="46.01692704288522" lon="13.23964958630079"><ele>77.0</ele><time>2026-04-25T17:39:25.999Z</time></trkpt><trkpt lat="46.016850294468554" lon="13.240059133581248"><ele>78.0</ele><time>2026-04-25T17:39:26.999Z</time></trkpt><trkpt lat="46.01677099600105" lon="13.240490957668465"><ele>78.0</ele><time>2026-04-25T17:39:27.999Z</time></trkpt><trkpt lat="46.01668767794951" lon="13.240944855665207"><ele>78.0</ele><time>2026-04-25T17:39:28.999Z</time></trkpt><trkpt lat="46.01659759231303" lon="13.241423416199648"><ele>78.0</ele><time>2026-04-25T17:39:29.999Z</time></trkpt><trkpt lat="46.01650369286644" lon="13.241922532539188"><ele>78.0</ele><time>2026-04-25T17:39:30.999Z</time></trkpt><trkpt lat="46.016408105163094" lon="13.242430777044117"><ele>77.5</ele><time>2026-04-25T17:39:31.999Z</time></trkpt><trkpt lat="46.01630910061183" lon="13.242956376135217"><ele>77.0</ele><time>2026-04-25T17:39:32.999Z</time></trkpt><trkpt lat="46.016208957398355" lon="13.243480174074099"><ele>77.5</ele><time>2026-04-25T17:39:33.999Z</time></trkpt><trkpt lat="46.016110874160006" lon="13.243990953093656"><ele>78.0</ele><time>2026-04-25T17:39:34.999Z</time></trkpt><trkpt lat="46.01601713467001" lon="13.244480659353803"><ele>76.5</ele><time>2026-04-25T17:39:35.999Z</time></trkpt><trkpt lat="46.01593678900972" lon="13.24492920904136"><ele>75.0</ele><time>2026-04-25T17:39:36.999Z</time></trkpt><trkpt lat="46.015853564371675" lon="13.245363392030631"><ele>77.5</ele><time>2026-04-25T17:39:37.999Z</time></trkpt><trkpt lat="46.01577369859897" lon="13.245800652679035"><ele>80.0</ele><time>2026-04-25T17:39:38.999Z</time></trkpt><trkpt lat="46.01570368753225" lon="13.246241071130713"><ele>78.5</ele><time>2026-04-25T17:39:39.999Z</time></trkpt><trkpt lat="46.015636870025794" lon="13.246685570381048"><ele>77.0</ele><time>2026-04-25T17:39:40.999Z</time></trkpt><trkpt lat="46.01557263844483" lon="13.24713539201835"><ele>75.0</ele><time>2026-04-25T17:39:41.999Z</time></trkpt><trkpt lat="46.01551936484243" lon="13.247575862320273"><ele>73.0</ele><time>2026-04-25T17:39:42.999Z</time></trkpt><trkpt lat="46.01547287608946" lon="13.24800314053957"><ele>74.0</ele><time>2026-04-25T17:39:43.999Z</time></trkpt><trkpt lat="46.0154323471582" lon="13.248418883484105"><ele>75.0</ele><time>2026-04-25T17:39:44.999Z</time></trkpt><trkpt lat="46.015403060812005" lon="13.248830355672162"><ele>75.5</ele><time>2026-04-25T17:39:45.999Z</time></trkpt><trkpt lat="46.015380308309936" lon="13.249242798242014"><ele>76.0</ele><time>2026-04-25T17:39:46.999Z</time></trkpt><trkpt lat="46.01536290130163" lon="13.2496561322104"><ele>76.5</ele><time>2026-04-25T17:39:47.999Z</time></trkpt><trkpt lat="46.015350141768735" lon="13.250068109128595"><ele>77.0</ele><time>2026-04-25T17:39:48.999Z</time></trkpt><trkpt lat="46.01534590363716" lon="13.250482910146852"><ele>76.0</ele><time>2026-04-25T17:39:49.999Z</time></trkpt><trkpt lat="46.01535010414202" lon="13.250897143118507"><ele>75.0</ele><time>2026-04-25T17:39:50.999Z</time></trkpt><trkpt lat="46.015362046150365" lon="13.25131610368038"><ele>75.0</ele><time>2026-04-25T17:39:51.999Z</time></trkpt><trkpt lat="46.01537700336789" lon="13.25175362206814"><ele>75.0</ele><time>2026-04-25T17:39:52.999Z</time></trkpt><trkpt lat="46.01539993698768" lon="13.252185436191299"><ele>75.5</ele><time>2026-04-25T17:39:53.999Z</time></trkpt><trkpt lat="46.015428862679975" lon="13.252600875425944"><ele>76.0</ele><time>2026-04-25T17:39:54.999Z</time></trkpt><trkpt lat="46.0154657375635" lon="13.252993007431305"><ele>76.5</ele><time>2026-04-25T17:39:55.999Z</time></trkpt><trkpt lat="46.01550779931118" lon="13.253364640499154"><ele>77.0</ele><time>2026-04-25T17:39:56.999Z</time></trkpt><trkpt lat="46.0155543188177" lon="13.25372505278378"><ele>76.0</ele><time>2026-04-25T17:39:57.999Z</time></trkpt><trkpt lat="46.015603507819094" lon="13.254075858912117"><ele>75.0</ele><time>2026-04-25T17:39:58.999Z</time></trkpt><trkpt lat="46.01565670108977" lon="13.254413661900466"><ele>75.0</ele><time>2026-04-25T17:39:59.999Z</time></trkpt><trkpt lat="46.015713417115684" lon="13.254742489270049"><ele>75.0</ele><time>2026-04-25T17:40:00.999Z</time></trkpt><trkpt lat="46.01577402778089" lon="13.255070301358183"><ele>74.5</ele><time>2026-04-25T17:40:01.999Z</time></trkpt><trkpt lat="46.01583985666629" lon="13.255393618333525"><ele>74.0</ele><time>2026-04-25T17:40:02.999Z</time></trkpt><trkpt lat="46.015910598990345" lon="13.2557099664897"><ele>74.0</ele><time>2026-04-25T17:40:03.999Z</time></trkpt><trkpt lat="46.01598288365461" lon="13.25601793350761"><ele>74.0</ele><time>2026-04-25T17:40:04.999Z</time></trkpt><trkpt lat="46.01605690755345" lon="13.256319483041654"><ele>74.0</ele><time>2026-04-25T17:40:05.999Z</time></trkpt><trkpt lat="46.01613250719857" lon="13.256614995026677"><ele>75.0</ele><time>2026-04-25T17:40:06.999Z</time></trkpt><trkpt lat="46.01620946505479" lon="13.256903518223739"><ele>76.0</ele><time>2026-04-25T17:40:07.999Z</time></trkpt><trkpt lat="46.01628809043781" lon="13.257185649200961"><ele>77.0</ele><time>2026-04-25T17:40:08.999Z</time></trkpt><trkpt lat="46.0163716047757" lon="13.25746547354579"><ele>77.33333333333334</ele><time>2026-04-25T17:40:09.999Z</time></trkpt><trkpt lat="46.0164595661031" lon="13.25774954959695"><ele>77.66666666666667</ele><time>2026-04-25T17:40:10.999Z</time></trkpt><trkpt lat="46.016552791298274" lon="13.258036006716287"><ele>78.0</ele><time>2026-04-25T17:40:11.999Z</time></trkpt><trkpt lat="46.016664086169335" lon="13.258346240290695"><ele>78.5</ele><time>2026-04-25T17:40:12.999Z</time></trkpt><trkpt lat="46.01678642043048" lon="13.258673177213087"><ele>79.0</ele><time>2026-04-25T17:40:13.999Z</time></trkpt><trkpt lat="46.01690753709268" lon="13.259001089590056"><ele>79.5</ele><time>2026-04-25T17:40:14.999Z</time></trkpt><trkpt lat="46.017025806978964" lon="13.259324368706942"><ele>80.0</ele><time>2026-04-25T17:40:15.999Z</time></trkpt><trkpt lat="46.01714305357927" lon="13.25964575809766"><ele>79.5</ele><time>2026-04-25T17:40:16.999Z</time></trkpt><trkpt lat="46.017262262659045" lon="13.25996993092134"><ele>79.0</ele><time>2026-04-25T17:40:17.999Z</time></trkpt><trkpt lat="46.017385208238444" lon="13.26029756535261"><ele>78.5</ele><time>2026-04-25T17:40:18.999Z</time></trkpt><trkpt lat="46.01750818384313" lon="13.260631809384762"><ele>78.0</ele><time>2026-04-25T17:40:19.999Z</time></trkpt><trkpt lat="46.0176325698538" lon="13.260971916760505"><ele>78.0</ele><time>2026-04-25T17:40:20.999Z</time></trkpt><trkpt lat="46.017760576669296" lon="13.261316883427623"><ele>78.0</ele><time>2026-04-25T17:40:21.999Z</time></trkpt><trkpt lat="46.01789376551784" lon="13.261671065519774"><ele>78.0</ele><time>2026-04-25T17:40:22.999Z</time></trkpt><trkpt lat="46.0180336053894" lon="13.26204179608487"><ele>78.0</ele><time>2026-04-25T17:40:23.999Z</time></trkpt><trkpt lat="46.01817951872862" lon="13.262426716094705"><ele>79.0</ele><time>2026-04-25T17:40:24.999Z</time></trkpt><trkpt lat="46.01832721826479" lon="13.262815429879359"><ele>80.0</ele><time>2026-04-25T17:40:25.999Z</time></trkpt><trkpt lat="46.01847304574284" lon="13.26320198359724"><ele>80.0</ele><time>2026-04-25T17:40:26.999Z</time></trkpt><trkpt lat="46.018615905740795" lon="13.263578442071351"><ele>80.0</ele><time>2026-04-25T17:40:27.999Z</time></trkpt><trkpt lat="46.01875229178566" lon="13.263946548529153"><ele>80.5</ele><time>2026-04-25T17:40:28.999Z</time></trkpt><trkpt lat="46.018886495852236" lon="13.264309342845765"><ele>81.0</ele><time>2026-04-25T17:40:29.999Z</time></trkpt><trkpt lat="46.01901852088163" lon="13.264661034983533"><ele>80.5</ele><time>2026-04-25T17:40:30.999Z</time></trkpt><trkpt lat="46.01914655531064" lon="13.26501408732522"><ele>80.0</ele><time>2026-04-25T17:40:32Z</time></trkpt><trkpt lat="46.01927040347101" lon="13.26536291999243"><ele>79.5</ele><time>2026-04-25T17:40:33Z</time></trkpt><trkpt lat="46.01938979983113" lon="13.265713132360945"><ele>79.0</ele><time>2026-04-25T17:40:34Z</time></trkpt><trkpt lat="46.01950301791178" lon="13.266062094069506"><ele>79.0</ele><time>2026-04-25T17:40:35Z</time></trkpt><trkpt lat="46.019607941445365" lon="13.266409011751753"><ele>79.0</ele><time>2026-04-25T17:40:36Z</time></trkpt><trkpt lat="46.01970831561998" lon="13.266755004563123"><ele>80.5</ele><time>2026-04-25T17:40:37Z</time></trkpt><trkpt lat="46.01980574947121" lon="13.267107957717126"><ele>82.0</ele><time>2026-04-25T17:40:38Z</time></trkpt><trkpt lat="46.01989881541722" lon="13.267463404590726"><ele>82.0</ele><time>2026-04-25T17:40:39Z</time></trkpt><trkpt lat="46.019984737372" lon="13.267809208141069"><ele>82.0</ele><time>2026-04-25T17:40:40Z</time></trkpt><trkpt lat="46.02006344434818" lon="13.268147832876787"><ele>81.5</ele><time>2026-04-25T17:40:41Z</time></trkpt><trkpt lat="46.020134692656015" lon="13.268482670151007"><ele>81.0</ele><time>2026-04-25T17:40:42Z</time></trkpt><trkpt lat="46.02020321531658" lon="13.268813655291352"><ele>81.0</ele><time>2026-04-25T17:40:43Z</time></trkpt><trkpt lat="46.02026572787956" lon="13.269141446137645"><ele>81.0</ele><time>2026-04-25T17:40:44Z</time></trkpt><trkpt lat="46.02032322926053" lon="13.269465132407614"><ele>81.66666666666667</ele><time>2026-04-25T17:40:45Z</time></trkpt><trkpt lat="46.020377744785016" lon="13.269786532271803"><ele>82.33333333333334</ele><time>2026-04-25T17:40:46Z</time></trkpt><trkpt lat="46.020431102952045" lon="13.270089058990703"><ele>83.0</ele><time>2026-04-25T17:40:47Z</time></trkpt><trkpt lat="46.02048044210396" lon="13.270365392580995"><ele>82.0</ele><time>2026-04-25T17:40:48Z</time></trkpt><trkpt lat="46.020526518025044" lon="13.270621629242262"><ele>81.0</ele><time>2026-04-25T17:40:49Z</time></trkpt><trkpt lat="46.020570309531934" lon="13.270872771900791"><ele>80.0</ele><time>2026-04-25T17:40:50Z</time></trkpt><trkpt lat="46.02061389243876" lon="13.27113547272333"><ele>80.0</ele><time>2026-04-25T17:40:51Z</time></trkpt><trkpt lat="46.02065764951916" lon="13.271400586854739"><ele>80.0</ele><time>2026-04-25T17:40:52Z</time></trkpt><trkpt lat="46.020698025866906" lon="13.271655513666474"><ele>80.0</ele><time>2026-04-25T17:40:53Z</time></trkpt><trkpt lat="46.02073529983214" lon="13.271893856401752"><ele>80.33333333333334</ele><time>2026-04-25T17:40:54Z</time></trkpt><trkpt lat="46.02076688317222" lon="13.272116198991506"><ele>80.66666666666667</ele><time>2026-04-25T17:40:55Z</time></trkpt><trkpt lat="46.02079181775862" lon="13.272333542752751"><ele>81.0</ele><time>2026-04-25T17:40:56Z</time></trkpt><trkpt lat="46.020808652626215" lon="13.272539071012629"><ele>81.25</ele><time>2026-04-25T17:40:57Z</time></trkpt><trkpt lat="46.0208088899848" lon="13.2727445520171"><ele>81.5</ele><time>2026-04-25T17:40:58Z</time></trkpt><trkpt lat="46.02079299167403" lon="13.272947427201656"><ele>81.75</ele><time>2026-04-25T17:40:59Z</time></trkpt><trkpt lat="46.020774001558486" lon="13.273149307516166"><ele>82.0</ele><time>2026-04-25T17:41:00Z</time></trkpt><trkpt lat="46.02075445406384" lon="13.273350848891523"><ele>82.0</ele><time>2026-04-25T17:41:01Z</time></trkpt><trkpt lat="46.020737528678" lon="13.273539896587724"><ele>82.0</ele><time>2026-04-25T17:41:02Z</time></trkpt><trkpt lat="46.020721002420466" lon="13.273728651445445"><ele>82.0</ele><time>2026-04-25T17:41:03Z</time></trkpt><trkpt lat="46.020704782917385" lon="13.27391609828138"><ele>82.0</ele><time>2026-04-25T17:41:04Z</time></trkpt><trkpt lat="46.020688019071365" lon="13.274094815486576"><ele>82.0</ele><time>2026-04-25T17:41:05Z</time></trkpt><trkpt lat="46.02067054017148" lon="13.274268829381652"><ele>82.0</ele><time>2026-04-25T17:41:06Z</time></trkpt><trkpt lat="46.020653872149595" lon="13.274447284971764"><ele>82.0</ele><time>2026-04-25T17:41:07Z</time></trkpt><trkpt lat="46.020637358699474" lon="13.274629122552346"><ele>82.0</ele><time>2026-04-25T17:41:08Z</time></trkpt><trkpt lat="46.02062089641459" lon="13.274814694606613"><ele>81.0</ele><time>2026-04-25T17:41:09Z</time></trkpt><trkpt lat="46.020601669510775" lon="13.275012985667402"><ele>80.0</ele><time>2026-04-25T17:41:10Z</time></trkpt><trkpt lat="46.02058335314515" lon="13.275218711422486"><ele>79.0</ele><time>2026-04-25T17:41:11Z</time></trkpt><trkpt lat="46.02056457677055" lon="13.275423516302393"><ele>78.0</ele><time>2026-04-25T17:41:12Z</time></trkpt><trkpt lat="46.02054515680793" lon="13.2756288423039"><ele>78.0</ele><time>2026-04-25T17:41:13Z</time></trkpt><trkpt lat="46.020528821616004" lon="13.275831552026505"><ele>78.0</ele><time>2026-04-25T17:41:14Z</time></trkpt><trkpt lat="46.02051241314116" lon="13.276032452338947"><ele>78.0</ele><time>2026-04-25T17:41:15Z</time></trkpt><trkpt lat="46.020491675703106" lon="13.276231611809822"><ele>78.0</ele><time>2026-04-25T17:41:16Z</time></trkpt><trkpt lat="46.02047482770275" lon="13.27643217690466"><ele>78.5</ele><time>2026-04-25T17:41:17Z</time></trkpt><trkpt lat="46.02045543080211" lon="13.276633372252011"><ele>79.0</ele><time>2026-04-25T17:41:18Z</time></trkpt><trkpt lat="46.0204375931346" lon="13.276840114397968"><ele>79.5</ele><time>2026-04-25T17:41:19Z</time></trkpt><trkpt lat="46.02041906399492" lon="13.277050417618204"><ele>80.0</ele><time>2026-04-25T17:41:20Z</time></trkpt><trkpt lat="46.02039723409696" lon="13.277268383548483"><ele>80.66666666666667</ele><time>2026-04-25T17:41:21Z</time></trkpt><trkpt lat="46.02037664047913" lon="13.27748868278937"><ele>81.33333333333333</ele><time>2026-04-25T17:41:22Z</time></trkpt><trkpt lat="46.02035755888076" lon="13.277708711613416"><ele>82.0</ele><time>2026-04-25T17:41:22.999Z</time></trkpt><trkpt lat="46.02033898371021" lon="13.277927472197641"><ele>81.66666666666666</ele><time>2026-04-25T17:41:23.999Z</time></trkpt><trkpt lat="46.020319629161264" lon="13.278145283700882"><ele>81.33333333333333</ele><time>2026-04-25T17:41:24.999Z</time></trkpt><trkpt lat="46.02030037395653" lon="13.27836499199766"><ele>81.0</ele><time>2026-04-25T17:41:25.999Z</time></trkpt><trkpt lat="46.02028092901865" lon="13.278582785974162"><ele>81.0</ele><time>2026-04-25T17:41:26.999Z</time></trkpt><trkpt lat="46.020261944297026" lon="13.278787586168812"><ele>81.0</ele><time>2026-04-25T17:41:27.999Z</time></trkpt><trkpt lat="46.02024414629004" lon="13.27898006021437"><ele>81.0</ele><time>2026-04-25T17:41:28.999Z</time></trkpt><trkpt lat="46.02022821856485" lon="13.279170460212743"><ele>81.0</ele><time>2026-04-25T17:41:29.999Z</time></trkpt><trkpt lat="46.020211814393924" lon="13.279350948173"><ele>80.5</ele><time>2026-04-25T17:41:30.999Z</time></trkpt><trkpt lat="46.02019424762967" lon="13.279526529494651"><ele>80.0</ele><time>2026-04-25T17:41:31.999Z</time></trkpt><trkpt lat="46.0201793318639" lon="13.279702178051933"><ele>79.5</ele><time>2026-04-25T17:41:32.999Z</time></trkpt><trkpt lat="46.02016475112519" lon="13.279869660699099"><ele>79.0</ele><time>2026-04-25T17:41:33.999Z</time></trkpt><trkpt lat="46.02014558861284" lon="13.280043172337853"><ele>79.0</ele><time>2026-04-25T17:41:34.999Z</time></trkpt><trkpt lat="46.0201317746048" lon="13.280221791636615"><ele>79.0</ele><time>2026-04-25T17:41:35.999Z</time></trkpt><trkpt lat="46.02011481334563" lon="13.280404322641566"><ele>79.0</ele><time>2026-04-25T17:41:36.999Z</time></trkpt><trkpt lat="46.02009910988806" lon="13.280603060965012"><ele>79.0</ele><time>2026-04-25T17:41:37.999Z</time></trkpt><trkpt lat="46.020079999957574" lon="13.280812791051934"><ele>79.0</ele><time>2026-04-25T17:41:38.999Z</time></trkpt><trkpt lat="46.020061775520745" lon="13.281017480546506"><ele>79.0</ele><time>2026-04-25T17:41:39.999Z</time></trkpt><trkpt lat="46.020044556244784" lon="13.28121371468287"><ele>79.0</ele><time>2026-04-25T17:41:40.999Z</time></trkpt><trkpt lat="46.02002901685476" lon="13.281401574204105"><ele>79.0</ele><time>2026-04-25T17:41:41.999Z</time></trkpt><trkpt lat="46.02001416123689" lon="13.281592072965474"><ele>79.0</ele><time>2026-04-25T17:41:42.999Z</time></trkpt><trkpt lat="46.01999610663525" lon="13.281782328482182"><ele>79.0</ele><time>2026-04-25T17:41:43.999Z</time></trkpt><trkpt lat="46.01997798480999" lon="13.281971548952248"><ele>79.0</ele><time>2026-04-25T17:41:44.999Z</time></trkpt><trkpt lat="46.019961397526664" lon="13.282155359795688"><ele>79.0</ele><time>2026-04-25T17:41:45.999Z</time></trkpt><trkpt lat="46.019947019717925" lon="13.282328972500787"><ele>79.0</ele><time>2026-04-25T17:41:46.999Z</time></trkpt><trkpt lat="46.01993304447431" lon="13.28249597503449"><ele>79.0</ele><time>2026-04-25T17:41:47.999Z</time></trkpt><trkpt lat="46.019916684873856" lon="13.282670055139471"><ele>79.0</ele><time>2026-04-25T17:41:48.999Z</time></trkpt><trkpt lat="46.01989758201133" lon="13.282843168347515"><ele>79.0</ele><time>2026-04-25T17:41:49.999Z</time></trkpt><trkpt lat="46.01987755633099" lon="13.283012901113374"><ele>79.25</ele><time>2026-04-25T17:41:50.999Z</time></trkpt><trkpt lat="46.01985877762374" lon="13.28317366495958"><ele>79.5</ele><time>2026-04-25T17:41:51.999Z</time></trkpt><trkpt lat="46.019839618696736" lon="13.283332507707692"><ele>79.75</ele><time>2026-04-25T17:41:52.999Z</time></trkpt><trkpt lat="46.01981630329666" lon="13.283496211020944"><ele>80.0</ele><time>2026-04-25T17:41:53.999Z</time></trkpt><trkpt lat="46.01979383419297" lon="13.283664195891875"><ele>80.0</ele><time>2026-04-25T17:41:54.999Z</time></trkpt><trkpt lat="46.01977220079314" lon="13.28382531324824"><ele>80.0</ele><time>2026-04-25T17:41:55.999Z</time></trkpt><trkpt lat="46.019752621041974" lon="13.283984267320474"><ele>80.0</ele><time>2026-04-25T17:41:56.999Z</time></trkpt><trkpt lat="46.019731863688435" lon="13.28414525895955"><ele>80.0</ele><time>2026-04-25T17:41:57.999Z</time></trkpt><trkpt lat="46.01971513261882" lon="13.2842978555572"><ele>80.0</ele><time>2026-04-25T17:41:58.999Z</time></trkpt><trkpt lat="46.01970393058916" lon="13.28444490309434"><ele>80.0</ele><time>2026-04-25T17:41:59.999Z</time></trkpt><trkpt lat="46.01969592738931" lon="13.284589219984062"><ele>80.0</ele><time>2026-04-25T17:42:00.999Z</time></trkpt><trkpt lat="46.01969216744302" lon="13.2847236629642"><ele>80.0</ele><time>2026-04-25T17:42:01.999Z</time></trkpt><trkpt lat="46.019688675538724" lon="13.284826216249808"><ele>80.0</ele><time>2026-04-25T17:42:02.999Z</time></trkpt><trkpt lat="46.01968517201635" lon="13.284958495688397"><ele>80.0</ele><time>2026-04-25T17:42:04.999Z</time></trkpt><trkpt lat="46.01968366861968" lon="13.285078620587232"><ele>80.0</ele><time>2026-04-25T17:42:06.999Z</time></trkpt><trkpt lat="46.01967651972063" lon="13.285256639223183"><ele>79.6</ele><time>2026-04-25T17:42:08.999Z</time></trkpt><trkpt lat="46.01967131945698" lon="13.285365986349317"><ele>79.2</ele><time>2026-04-25T17:42:09.999Z</time></trkpt><trkpt lat="46.019627720028026" lon="13.285501890416835"><ele>78.8</ele><time>2026-04-25T17:42:10.999Z</time></trkpt><trkpt lat="46.01962581755636" lon="13.285664158997783"><ele>78.4</ele><time>2026-04-25T17:42:11.999Z</time></trkpt><trkpt lat="46.01961487343342" lon="13.285829176597616"><ele>78.0</ele><time>2026-04-25T17:42:12.999Z</time></trkpt><trkpt lat="46.01959982576614" lon="13.285986284437499"><ele>78.0</ele><time>2026-04-25T17:42:13.999Z</time></trkpt><trkpt lat="46.019584402125986" lon="13.286150414295609"><ele>78.0</ele><time>2026-04-25T17:42:14.999Z</time></trkpt><trkpt lat="46.019565812017596" lon="13.286328073265127"><ele>78.0</ele><time>2026-04-25T17:42:15.999Z</time></trkpt><trkpt lat="46.01954862408785" lon="13.286523485257225"><ele>78.0</ele><time>2026-04-25T17:42:16.999Z</time></trkpt><trkpt lat="46.019530429549484" lon="13.286734810834817"><ele>78.0</ele><time>2026-04-25T17:42:17.999Z</time></trkpt><trkpt lat="46.019512347155924" lon="13.2869466277425"><ele>78.0</ele><time>2026-04-25T17:42:18.999Z</time></trkpt><trkpt lat="46.019495637178174" lon="13.287152212786546"><ele>78.0</ele><time>2026-04-25T17:42:19.999Z</time></trkpt><trkpt lat="46.01948188867864" lon="13.287346877246508"><ele>78.0</ele><time>2026-04-25T17:42:20.999Z</time></trkpt><trkpt lat="46.01946637251035" lon="13.287538913341105"><ele>78.0</ele><time>2026-04-25T17:42:21.999Z</time></trkpt><trkpt lat="46.01945043367253" lon="13.28772800005034"><ele>78.0</ele><time>2026-04-25T17:42:22.999Z</time></trkpt><trkpt lat="46.01943458490116" lon="13.287916200583016"><ele>78.0</ele><time>2026-04-25T17:42:23.999Z</time></trkpt><trkpt lat="46.01942199405663" lon="13.288112263791398"><ele>78.0</ele><time>2026-04-25T17:42:24.999Z</time></trkpt><trkpt lat="46.01940840497801" lon="13.288312927941536"><ele>78.25</ele><time>2026-04-25T17:42:25.999Z</time></trkpt><trkpt lat="46.01939054512279" lon="13.28851389185496"><ele>78.5</ele><time>2026-04-25T17:42:26.999Z</time></trkpt><trkpt lat="46.01937277901684" lon="13.288721975493278"><ele>78.75</ele><time>2026-04-25T17:42:27.999Z</time></trkpt><trkpt lat="46.019351449142036" lon="13.28893326362369"><ele>79.0</ele><time>2026-04-25T17:42:28.999Z</time></trkpt><trkpt lat="46.01933116738529" lon="13.289148982414837"><ele>79.0</ele><time>2026-04-25T17:42:29.999Z</time></trkpt><trkpt lat="46.01931264418247" lon="13.289362918286892"><ele>79.0</ele><time>2026-04-25T17:42:30.999Z</time></trkpt><trkpt lat="46.019293141605864" lon="13.289579609596794"><ele>79.0</ele><time>2026-04-25T17:42:31.999Z</time></trkpt><trkpt lat="46.019273169391695" lon="13.289803743707074"><ele>79.0</ele><time>2026-04-25T17:42:32.999Z</time></trkpt><trkpt lat="46.01925240788684" lon="13.290029690515652"><ele>79.0</ele><time>2026-04-25T17:42:33.999Z</time></trkpt><trkpt lat="46.01923149596663" lon="13.290252212618627"><ele>79.0</ele><time>2026-04-25T17:42:34.999Z</time></trkpt><trkpt lat="46.01921251937378" lon="13.290471321214454"><ele>78.66666666666666</ele><time>2026-04-25T17:42:35.999Z</time></trkpt><trkpt lat="46.0191911333049" lon="13.29068588335103"><ele>78.33333333333333</ele><time>2026-04-25T17:42:37Z</time></trkpt><trkpt lat="46.019173136360926" lon="13.290900957352438"><ele>78.0</ele><time>2026-04-25T17:42:38Z</time></trkpt><trkpt lat="46.0191518140403" lon="13.29111902915682"><ele>77.66666666666667</ele><time>2026-04-25T17:42:39Z</time></trkpt><trkpt lat="46.019131210301154" lon="13.291347222174183"><ele>77.33333333333334</ele><time>2026-04-25T17:42:40Z</time></trkpt><trkpt lat="46.01910967576253" lon="13.291587235294474"><ele>77.0</ele><time>2026-04-25T17:42:41Z</time></trkpt><trkpt lat="46.01908656678925" lon="13.291830510882896"><ele>77.0</ele><time>2026-04-25T17:42:42Z</time></trkpt><trkpt lat="46.019065230141855" lon="13.29207042025856"><ele>77.0</ele><time>2026-04-25T17:42:43Z</time></trkpt><trkpt lat="46.01904323770433" lon="13.292314742821915"><ele>77.0</ele><time>2026-04-25T17:42:44Z</time></trkpt><trkpt lat="46.01902294906563" lon="13.29255443026752"><ele>77.0</ele><time>2026-04-25T17:42:45Z</time></trkpt><trkpt lat="46.01900159803769" lon="13.292796111111004"><ele>77.0</ele><time>2026-04-25T17:42:46Z</time></trkpt><trkpt lat="46.018980243819044" lon="13.293040574813741"><ele>77.0</ele><time>2026-04-25T17:42:47Z</time></trkpt><trkpt lat="46.018956519200536" lon="13.29328429602421"><ele>77.0</ele><time>2026-04-25T17:42:48Z</time></trkpt><trkpt lat="46.01893628895911" lon="13.293521570253535"><ele>77.0</ele><time>2026-04-25T17:42:49Z</time></trkpt><trkpt lat="46.01891602018399" lon="13.293756344482956"><ele>77.0</ele><time>2026-04-25T17:42:50Z</time></trkpt><trkpt lat="46.01889592978922" lon="13.29398838500432"><ele>77.0</ele><time>2026-04-25T17:42:51Z</time></trkpt><trkpt lat="46.01887322801133" lon="13.294223559968309"><ele>77.0</ele><time>2026-04-25T17:42:52Z</time></trkpt><trkpt lat="46.01885256884324" lon="13.294461171594648"><ele>77.0</ele><time>2026-04-25T17:42:53Z</time></trkpt><trkpt lat="46.018830544199275" lon="13.294688121055781"><ele>76.0</ele><time>2026-04-25T17:42:54Z</time></trkpt><trkpt lat="46.01881130641374" lon="13.294910209680811"><ele>75.0</ele><time>2026-04-25T17:42:55Z</time></trkpt><trkpt lat="46.01879298812937" lon="13.295124268979217"><ele>74.0</ele><time>2026-04-25T17:42:56Z</time></trkpt><trkpt lat="46.01877458074952" lon="13.295333119086775"><ele>74.0</ele><time>2026-04-25T17:42:57Z</time></trkpt><trkpt lat="46.01875621083485" lon="13.2955413698826"><ele>74.0</ele><time>2026-04-25T17:42:58Z</time></trkpt><trkpt lat="46.018735683466915" lon="13.295754088957318"><ele>74.0</ele><time>2026-04-25T17:42:59Z</time></trkpt><trkpt lat="46.018717527273786" lon="13.295979613606807"><ele>74.0</ele><time>2026-04-25T17:43:00Z</time></trkpt><trkpt lat="46.018695654166365" lon="13.296214115043265"><ele>74.0</ele><time>2026-04-25T17:43:01Z</time></trkpt><trkpt lat="46.01867167953125" lon="13.296458307023647"><ele>74.0</ele><time>2026-04-25T17:43:02Z</time></trkpt><trkpt lat="46.01864809089549" lon="13.296706796850339"><ele>74.33333333333334</ele><time>2026-04-25T17:43:03Z</time></trkpt><trkpt lat="46.01862539480215" lon="13.296955086640917"><ele>74.66666666666667</ele><time>2026-04-25T17:43:04Z</time></trkpt><trkpt lat="46.01860245203093" lon="13.29720126096127"><ele>75.0</ele><time>2026-04-25T17:43:05Z</time></trkpt><trkpt lat="46.018578403359214" lon="13.29744630375414"><ele>75.66666666666667</ele><time>2026-04-25T17:43:06Z</time></trkpt><trkpt lat="46.01855793745083" lon="13.29768556420339"><ele>76.33333333333334</ele><time>2026-04-25T17:43:07Z</time></trkpt><trkpt lat="46.018534250862544" lon="13.297918089544893"><ele>77.0</ele><time>2026-04-25T17:43:08Z</time></trkpt><trkpt lat="46.01850704079342" lon="13.298144741482306"><ele>77.0</ele><time>2026-04-25T17:43:09Z</time></trkpt><trkpt lat="46.01848139334914" lon="13.298371557287718"><ele>77.0</ele><time>2026-04-25T17:43:10Z</time></trkpt><trkpt lat="46.018453646361344" lon="13.298602728131298"><ele>77.0</ele><time>2026-04-25T17:43:11Z</time></trkpt><trkpt lat="46.01842284487493" lon="13.298835026415125"><ele>77.33333333333334</ele><time>2026-04-25T17:43:12Z</time></trkpt><trkpt lat="46.01839102318696" lon="13.299066334025078"><ele>77.66666666666667</ele><time>2026-04-25T17:43:13Z</time></trkpt><trkpt lat="46.0183606652786" lon="13.299291967420698"><ele>78.0</ele><time>2026-04-25T17:43:14Z</time></trkpt><trkpt lat="46.018328274717724" lon="13.299512932793895"><ele>77.33333333333333</ele><time>2026-04-25T17:43:15Z</time></trkpt><trkpt lat="46.01829706472311" lon="13.299730916903393"><ele>76.66666666666666</ele><time>2026-04-25T17:43:16Z</time></trkpt><trkpt lat="46.018266304620866" lon="13.299951003771335"><ele>76.0</ele><time>2026-04-25T17:43:17Z</time></trkpt><trkpt lat="46.018232322800955" lon="13.30017409846793"><ele>75.33333333333333</ele><time>2026-04-25T17:43:18Z</time></trkpt><trkpt lat="46.01819831245579" lon="13.300399957199563"><ele>74.66666666666667</ele><time>2026-04-25T17:43:19Z</time></trkpt><trkpt lat="46.0181630708365" lon="13.300628396038865"><ele>74.0</ele><time>2026-04-25T17:43:20Z</time></trkpt><trkpt lat="46.018128495565065" lon="13.300858010098619"><ele>74.0</ele><time>2026-04-25T17:43:21Z</time></trkpt><trkpt lat="46.01809533126832" lon="13.301088093603205"><ele>74.0</ele><time>2026-04-25T17:43:22Z</time></trkpt><trkpt lat="46.01806022775196" lon="13.301317576423415"><ele>74.0</ele><time>2026-04-25T17:43:23Z</time></trkpt><trkpt lat="46.01802694879589" lon="13.301539566260416"><ele>74.5</ele><time>2026-04-25T17:43:23.999Z</time></trkpt><trkpt lat="46.01799597702403" lon="13.301747701303071"><ele>75.0</ele><time>2026-04-25T17:43:24.999Z</time></trkpt><trkpt lat="46.01796720941857" lon="13.30195499471293"><ele>75.5</ele><time>2026-04-25T17:43:25.999Z</time></trkpt><trkpt lat="46.017939094459415" lon="13.30215852672597"><ele>76.0</ele><time>2026-04-25T17:43:26.999Z</time></trkpt><trkpt lat="46.01790934227318" lon="13.302354498530287"><ele>76.0</ele><time>2026-04-25T17:43:27.999Z</time></trkpt><trkpt lat="46.01788176301514" lon="13.302542662817181"><ele>76.0</ele><time>2026-04-25T17:43:28.999Z</time></trkpt><trkpt lat="46.017853948838955" lon="13.302724792508252"><ele>76.0</ele><time>2026-04-25T17:43:29.999Z</time></trkpt><trkpt lat="46.01782432278944" lon="13.302896555185521"><ele>76.0</ele><time>2026-04-25T17:43:30.999Z</time></trkpt><trkpt lat="46.01779389211298" lon="13.303050041972101"><ele>75.39999999999999</ele><time>2026-04-25T17:43:31.999Z</time></trkpt><trkpt lat="46.01776106246604" lon="13.303185368178505"><ele>74.8</ele><time>2026-04-25T17:43:32.999Z</time></trkpt><trkpt lat="46.01773037931733" lon="13.303298282054023"><ele>74.19999999999999</ele><time>2026-04-25T17:43:33.999Z</time></trkpt><trkpt lat="46.017697576667864" lon="13.303407033367739"><ele>73.6</ele><time>2026-04-25T17:43:34.999Z</time></trkpt><trkpt lat="46.01764945426587" lon="13.303529542744712"><ele>73.0</ele><time>2026-04-25T17:43:35.999Z</time></trkpt><trkpt lat="46.017597860371055" lon="13.303650223511248"><ele>73.0</ele><time>2026-04-25T17:43:36.999Z</time></trkpt><trkpt lat="46.01750292238009" lon="13.303735707471654"><ele>73.0</ele><time>2026-04-25T17:43:37.999Z</time></trkpt><trkpt lat="46.01746708488229" lon="13.303850270653976"><ele>73.0</ele><time>2026-04-25T17:43:38.999Z</time></trkpt><trkpt lat="46.017459027824835" lon="13.303983003188167"><ele>73.0</ele><time>2026-04-25T17:43:39.999Z</time></trkpt><trkpt lat="46.01747869203556" lon="13.304112612436258"><ele>73.0</ele><time>2026-04-25T17:43:40.999Z</time></trkpt><trkpt lat="46.017518255047186" lon="13.304237496625948"><ele>73.2</ele><time>2026-04-25T17:43:41.999Z</time></trkpt><trkpt lat="46.017546888283825" lon="13.304367533086626"><ele>73.4</ele><time>2026-04-25T17:43:42.999Z</time></trkpt><trkpt lat="46.01753893039476" lon="13.304515875067393"><ele>73.60000000000001</ele><time>2026-04-25T17:43:43.999Z</time></trkpt><trkpt lat="46.01751824505311" lon="13.30467785088289"><ele>73.8</ele><time>2026-04-25T17:43:44.999Z</time></trkpt><trkpt lat="46.01750261443503" lon="13.304863399891355"><ele>74.0</ele><time>2026-04-25T17:43:45.999Z</time></trkpt><trkpt lat="46.01748269810966" lon="13.305044246685645"><ele>74.25</ele><time>2026-04-25T17:43:46.999Z</time></trkpt><trkpt lat="46.01745831018414" lon="13.305229730038882"><ele>74.5</ele><time>2026-04-25T17:43:47.999Z</time></trkpt><trkpt lat="46.01743574471829" lon="13.305419503491493"><ele>74.75</ele><time>2026-04-25T17:43:48.999Z</time></trkpt><trkpt lat="46.017411700448726" lon="13.305618652782906"><ele>75.0</ele><time>2026-04-25T17:43:49.999Z</time></trkpt><trkpt lat="46.01738395884328" lon="13.305821040807906"><ele>75.0</ele><time>2026-04-25T17:43:50.999Z</time></trkpt><trkpt lat="46.01735555556885" lon="13.306035748663506"><ele>75.0</ele><time>2026-04-25T17:43:51.999Z</time></trkpt><trkpt lat="46.01732414322485" lon="13.306260366260256"><ele>75.0</ele><time>2026-04-25T17:43:52.999Z</time></trkpt><trkpt lat="46.01729080825063" lon="13.306489298739944"><ele>75.33333333333333</ele><time>2026-04-25T17:43:53.999Z</time></trkpt><trkpt lat="46.017258611056405" lon="13.306715251883306"><ele>75.66666666666666</ele><time>2026-04-25T17:43:54.999Z</time></trkpt><trkpt lat="46.0172252282408" lon="13.306949638672114"><ele>76.0</ele><time>2026-04-25T17:43:55.999Z</time></trkpt><trkpt lat="46.0171897143208" lon="13.307186226493366"><ele>75.33333333333333</ele><time>2026-04-25T17:43:56.999Z</time></trkpt><trkpt lat="46.01715146871229" lon="13.30743580201758"><ele>74.66666666666667</ele><time>2026-04-25T17:43:57.999Z</time></trkpt><trkpt lat="46.017112939679514" lon="13.307698020608292"><ele>74.0</ele><time>2026-04-25T17:43:58.999Z</time></trkpt><trkpt lat="46.01707351249044" lon="13.307973344893004"><ele>74.33333333333334</ele><time>2026-04-25T17:43:59.999Z</time></trkpt><trkpt lat="46.01703242670077" lon="13.308244158133496"><ele>74.66666666666667</ele><time>2026-04-25T17:44:00.999Z</time></trkpt><trkpt lat="46.01699343114709" lon="13.30850788528899"><ele>75.0</ele><time>2026-04-25T17:44:01.999Z</time></trkpt><trkpt lat="46.016956498262296" lon="13.308761280150879"><ele>74.66666666666667</ele><time>2026-04-25T17:44:02.999Z</time></trkpt><trkpt lat="46.01691844305895" lon="13.309011595146556"><ele>74.33333333333334</ele><time>2026-04-25T17:44:03.999Z</time></trkpt><trkpt lat="46.01688149630221" lon="13.309258576507364"><ele>74.0</ele><time>2026-04-25T17:44:04.999Z</time></trkpt><trkpt lat="46.016845633679914" lon="13.309506112333034"><ele>74.33333333333334</ele><time>2026-04-25T17:44:05.999Z</time></trkpt><trkpt lat="46.01680939458833" lon="13.309756529354356"><ele>74.66666666666667</ele><time>2026-04-25T17:44:06.999Z</time></trkpt><trkpt lat="46.01677396809674" lon="13.310005750657792"><ele>75.0</ele><time>2026-04-25T17:44:07.999Z</time></trkpt><trkpt lat="46.01673664584692" lon="13.310247932283827"><ele>75.0</ele><time>2026-04-25T17:44:08.999Z</time></trkpt><trkpt lat="46.01669861191596" lon="13.31048365056795"><ele>75.0</ele><time>2026-04-25T17:44:09.999Z</time></trkpt><trkpt lat="46.01666219086788" lon="13.310715307045777"><ele>75.0</ele><time>2026-04-25T17:44:10.999Z</time></trkpt><trkpt lat="46.01662745268335" lon="13.310948622188125"><ele>73.33333333333333</ele><time>2026-04-25T17:44:11.999Z</time></trkpt><trkpt lat="46.01659260893858" lon="13.311185346673218"><ele>71.66666666666666</ele><time>2026-04-25T17:44:12.999Z</time></trkpt><trkpt lat="46.01655826558817" lon="13.311425857314637"><ele>70.0</ele><time>2026-04-25T17:44:13.999Z</time></trkpt><trkpt lat="46.01652255209183" lon="13.311666900051263"><ele>70.0</ele><time>2026-04-25T17:44:14.999Z</time></trkpt><trkpt lat="46.01648917748036" lon="13.311900988047222"><ele>70.0</ele><time>2026-04-25T17:44:15.999Z</time></trkpt><trkpt lat="46.016454386767805" lon="13.312131697845762"><ele>70.0</ele><time>2026-04-25T17:44:16.999Z</time></trkpt><trkpt lat="46.01642137852974" lon="13.312361242527846"><ele>70.33333333333333</ele><time>2026-04-25T17:44:17.999Z</time></trkpt><trkpt lat="46.016388288977886" lon="13.312587049317552"><ele>70.66666666666667</ele><time>2026-04-25T17:44:18.999Z</time></trkpt><trkpt lat="46.01635450544971" lon="13.312805276077093"><ele>71.0</ele><time>2026-04-25T17:44:19.999Z</time></trkpt><trkpt lat="46.0163236568538" lon="13.313019424109134"><ele>71.66666666666667</ele><time>2026-04-25T17:44:20.999Z</time></trkpt><trkpt lat="46.016292958304774" lon="13.313243388239716"><ele>72.33333333333333</ele><time>2026-04-25T17:44:21.999Z</time></trkpt><trkpt lat="46.01625568078962" lon="13.313477218975848"><ele>73.0</ele><time>2026-04-25T17:44:22.999Z</time></trkpt><trkpt lat="46.016217477344476" lon="13.313717075425393"><ele>74.33333333333333</ele><time>2026-04-25T17:44:23.999Z</time></trkpt><trkpt lat="46.01617896614547" lon="13.313964616520481"><ele>75.66666666666667</ele><time>2026-04-25T17:44:24.999Z</time></trkpt><trkpt lat="46.01613846795664" lon="13.314213919159313"><ele>77.0</ele><time>2026-04-25T17:44:25.999Z</time></trkpt><trkpt lat="46.016100270579166" lon="13.314465003520061"><ele>77.0</ele><time>2026-04-25T17:44:26.999Z</time></trkpt><trkpt lat="46.01606234240428" lon="13.314719936338788"><ele>77.0</ele><time>2026-04-25T17:44:27.999Z</time></trkpt><trkpt lat="46.01602312685308" lon="13.314977276314274"><ele>77.0</ele><time>2026-04-25T17:44:28.999Z</time></trkpt><trkpt lat="46.015983872040756" lon="13.315236012260792"><ele>77.0</ele><time>2026-04-25T17:44:29.999Z</time></trkpt><trkpt lat="46.015947561065076" lon="13.31549046771357"><ele>77.0</ele><time>2026-04-25T17:44:30.999Z</time></trkpt><trkpt lat="46.01591196744497" lon="13.31573968341003"><ele>77.0</ele><time>2026-04-25T17:44:31.999Z</time></trkpt><trkpt lat="46.01587439560934" lon="13.315978406468012"><ele>76.33333333333334</ele><time>2026-04-25T17:44:32.999Z</time></trkpt><trkpt lat="46.015838833988376" lon="13.316207593731297"><ele>75.66666666666667</ele><time>2026-04-25T17:44:33.999Z</time></trkpt><trkpt lat="46.01580605060467" lon="13.316433407041918"><ele>75.0</ele><time>2026-04-25T17:44:34.999Z</time></trkpt><trkpt lat="46.015771502922625" lon="13.316653567857418"><ele>74.33333333333333</ele><time>2026-04-25T17:44:35.999Z</time></trkpt><trkpt lat="46.01572613568918" lon="13.316863956829803"><ele>73.66666666666666</ele><time>2026-04-25T17:44:36.999Z</time></trkpt><trkpt lat="46.01567212063516" lon="13.317074483787906"><ele>73.0</ele><time>2026-04-25T17:44:37.999Z</time></trkpt><trkpt lat="46.01561451292702" lon="13.317285886631774"><ele>73.0</ele><time>2026-04-25T17:44:38.999Z</time></trkpt><trkpt lat="46.01555190745781" lon="13.317498472871844"><ele>73.0</ele><time>2026-04-25T17:44:39.999Z</time></trkpt><trkpt lat="46.01548588664483" lon="13.317710637914528"><ele>73.0</ele><time>2026-04-25T17:44:40.999Z</time></trkpt><trkpt lat="46.01541076700032" lon="13.31791904909128"><ele>73.33333333333333</ele><time>2026-04-25T17:44:41.999Z</time></trkpt><trkpt lat="46.01533093947436" lon="13.318123665987066"><ele>73.66666666666667</ele><time>2026-04-25T17:44:43Z</time></trkpt><trkpt lat="46.01524988429653" lon="13.318319678266318"><ele>74.0</ele><time>2026-04-25T17:44:44Z</time></trkpt><trkpt lat="46.01516867208194" lon="13.318496538387754"><ele>74.0</ele><time>2026-04-25T17:44:45Z</time></trkpt><trkpt lat="46.015086829460024" lon="13.318671865959391"><ele>74.0</ele><time>2026-04-25T17:44:46Z</time></trkpt><trkpt lat="46.015008968435204" lon="13.318805697408532"><ele>74.0</ele><time>2026-04-25T17:44:47Z</time></trkpt><trkpt lat="46.014931927552986" lon="13.318948805480424"><ele>74.0</ele><time>2026-04-25T17:44:48Z</time></trkpt><trkpt lat="46.01485083536388" lon="13.319097644533954"><ele>73.0</ele><time>2026-04-25T17:44:49Z</time></trkpt><trkpt lat="46.014762207236764" lon="13.319261982065195"><ele>72.0</ele><time>2026-04-25T17:44:50Z</time></trkpt><trkpt lat="46.01467128854173" lon="13.319434168577553"><ele>71.0</ele><time>2026-04-25T17:44:51Z</time></trkpt><trkpt lat="46.014588698515404" lon="13.319586535270107"><ele>70.0</ele><time>2026-04-25T17:44:52Z</time></trkpt><trkpt lat="46.01451065357212" lon="13.319725764708615"><ele>70.2</ele><time>2026-04-25T17:44:53Z</time></trkpt><trkpt lat="46.014429312851206" lon="13.319841865861662"><ele>70.4</ele><time>2026-04-25T17:44:54Z</time></trkpt><trkpt lat="46.014356804314865" lon="13.319929257294993"><ele>70.6</ele><time>2026-04-25T17:44:55Z</time></trkpt><trkpt lat="46.01430148410317" lon="13.319998717391329"><ele>70.8</ele><time>2026-04-25T17:44:56Z</time></trkpt><trkpt lat="46.014239904160675" lon="13.320063153327892"><ele>71.0</ele><time>2026-04-25T17:44:58Z</time></trkpt><trkpt lat="46.01413269306625" lon="13.320103537282135"><ele>71.16666666666667</ele><time>2026-04-25T17:45:00Z</time></trkpt><trkpt lat="46.01406755913211" lon="13.320106834474716"><ele>71.33333333333334</ele><time>2026-04-25T17:45:01Z</time></trkpt><trkpt lat="46.01400538987538" lon="13.3201438187155"><ele>71.5</ele><time>2026-04-25T17:45:02Z</time></trkpt><trkpt lat="46.01394722819242" lon="13.320220078918068"><ele>71.66666666666667</ele><time>2026-04-25T17:45:03Z</time></trkpt><trkpt lat="46.01390298726269" lon="13.320320748544292"><ele>71.83333333333333</ele><time>2026-04-25T17:45:04Z</time></trkpt><trkpt lat="46.01387676875969" lon="13.32043576664175"><ele>72.0</ele><time>2026-04-25T17:45:05Z</time></trkpt><trkpt lat="46.01388345824191" lon="13.320560732693176"><ele>72.0</ele><time>2026-04-25T17:45:06Z</time></trkpt><trkpt lat="46.0138962269319" lon="13.32068517582474"><ele>72.0</ele><time>2026-04-25T17:45:07Z</time></trkpt><trkpt lat="46.013886378023095" lon="13.320805179678425"><ele>72.0</ele><time>2026-04-25T17:45:08Z</time></trkpt><trkpt lat="46.0138513949421" lon="13.320927558657871"><ele>72.0</ele><time>2026-04-25T17:45:09Z</time></trkpt><trkpt lat="46.01380062880801" lon="13.321057477135355"><ele>72.0</ele><time>2026-04-25T17:45:10Z</time></trkpt><trkpt lat="46.013738455986704" lon="13.321187033350794"><ele>72.0</ele><time>2026-04-25T17:45:11Z</time></trkpt><trkpt lat="46.01367405078468" lon="13.321314088257319"><ele>72.0</ele><time>2026-04-25T17:45:12Z</time></trkpt><trkpt lat="46.013603998121525" lon="13.32145324267192"><ele>72.0</ele><time>2026-04-25T17:45:13Z</time></trkpt><trkpt lat="46.013534632695055" lon="13.321592067521975"><ele>72.0</ele><time>2026-04-25T17:45:14Z</time></trkpt><trkpt lat="46.01346113421238" lon="13.321731165658468"><ele>72.0</ele><time>2026-04-25T17:45:15Z</time></trkpt><trkpt lat="46.01338010603435" lon="13.321882171396119"><ele>72.0</ele><time>2026-04-25T17:45:16Z</time></trkpt><trkpt lat="46.0132943160075" lon="13.322046801424449"><ele>72.0</ele><time>2026-04-25T17:45:17Z</time></trkpt><trkpt lat="46.01320279396096" lon="13.322217749501716"><ele>72.0</ele><time>2026-04-25T17:45:18Z</time></trkpt><trkpt lat="46.013110602641994" lon="13.322390734804609"><ele>72.0</ele><time>2026-04-25T17:45:19Z</time></trkpt><trkpt lat="46.01302041192946" lon="13.322562335438771"><ele>72.0</ele><time>2026-04-25T17:45:20Z</time></trkpt><trkpt lat="46.01292577535381" lon="13.322739978634102"><ele>72.0</ele><time>2026-04-25T17:45:21Z</time></trkpt><trkpt lat="46.01282833924942" lon="13.322919010516017"><ele>72.0</ele><time>2026-04-25T17:45:22Z</time></trkpt><trkpt lat="46.01273068619052" lon="13.323100188237508"><ele>72.0</ele><time>2026-04-25T17:45:23Z</time></trkpt><trkpt lat="46.012632125381465" lon="13.323280676558891"><ele>72.0</ele><time>2026-04-25T17:45:24Z</time></trkpt><trkpt lat="46.01253390124204" lon="13.323465579311744"><ele>71.66666666666667</ele><time>2026-04-25T17:45:25Z</time></trkpt><trkpt lat="46.0124345784402" lon="13.32365011982799"><ele>71.33333333333334</ele><time>2026-04-25T17:45:26Z</time></trkpt><trkpt lat="46.01233460213618" lon="13.323832650458215"><ele>71.0</ele><time>2026-04-25T17:45:27Z</time></trkpt><trkpt lat="46.01223622757485" lon="13.32402012343609"><ele>70.66666666666667</ele><time>2026-04-25T17:45:28Z</time></trkpt><trkpt lat="46.01213498207213" lon="13.324213426691307"><ele>70.33333333333333</ele><time>2026-04-25T17:45:29Z</time></trkpt><trkpt lat="46.01203081940639" lon="13.324408734039084"><ele>70.0</ele><time>2026-04-25T17:45:29.999Z</time></trkpt><trkpt lat="46.01192875861384" lon="13.324601244434348"><ele>70.0</ele><time>2026-04-25T17:45:30.999Z</time></trkpt><trkpt lat="46.01182595636655" lon="13.324794394068237"><ele>70.0</ele><time>2026-04-25T17:45:31.999Z</time></trkpt><trkpt lat="46.01172193932527" lon="13.324988123129565"><ele>70.0</ele><time>2026-04-25T17:45:32.999Z</time></trkpt><trkpt lat="46.01161963764522" lon="13.325183635844898"><ele>70.0</ele><time>2026-04-25T17:45:33.999Z</time></trkpt><trkpt lat="46.011517934058965" lon="13.325380352807084"><ele>70.0</ele><time>2026-04-25T17:45:34.999Z</time></trkpt><trkpt lat="46.0114129458695" lon="13.325574431930924"><ele>70.0</ele><time>2026-04-25T17:45:35.999Z</time></trkpt><trkpt lat="46.01130716425337" lon="13.325770576995389"><ele>70.0</ele><time>2026-04-25T17:45:36.999Z</time></trkpt><trkpt lat="46.01119932487752" lon="13.325970031118983"><ele>70.0</ele><time>2026-04-25T17:45:37.999Z</time></trkpt><trkpt lat="46.011093871731894" lon="13.32616686932235"><ele>70.0</ele><time>2026-04-25T17:45:38.999Z</time></trkpt><trkpt lat="46.01098992457734" lon="13.326361398486895"><ele>70.0</ele><time>2026-04-25T17:45:39.999Z</time></trkpt><trkpt lat="46.01088856225617" lon="13.326553150593885"><ele>70.0</ele><time>2026-04-25T17:45:40.999Z</time></trkpt><trkpt lat="46.01079147275388" lon="13.326736322186568"><ele>70.0</ele><time>2026-04-25T17:45:41.999Z</time></trkpt><trkpt lat="46.010698294059814" lon="13.32691148075424"><ele>70.25</ele><time>2026-04-25T17:45:42.999Z</time></trkpt><trkpt lat="46.01060591796001" lon="13.327084582131468"><ele>70.5</ele><time>2026-04-25T17:45:43.999Z</time></trkpt><trkpt lat="46.010513991487805" lon="13.32725414500497"><ele>70.75</ele><time>2026-04-25T17:45:44.999Z</time></trkpt><trkpt lat="46.01042411231292" lon="13.32741999915104"><ele>71.0</ele><time>2026-04-25T17:45:45.999Z</time></trkpt><trkpt lat="46.010338306418696" lon="13.327580504946404"><ele>71.0</ele><time>2026-04-25T17:45:46.999Z</time></trkpt><trkpt lat="46.01025180302891" lon="13.327739539547315"><ele>71.0</ele><time>2026-04-25T17:45:47.999Z</time></trkpt><trkpt lat="46.0101629621655" lon="13.327899239146216"><ele>71.0</ele><time>2026-04-25T17:45:48.999Z</time></trkpt><trkpt lat="46.010073585690904" lon="13.328048729731398"><ele>71.0</ele><time>2026-04-25T17:45:49.999Z</time></trkpt><trkpt lat="46.00999289697651" lon="13.328181718222263"><ele>71.2</ele><time>2026-04-25T17:45:50.999Z</time></trkpt><trkpt lat="46.009911415026636" lon="13.328307951066362"><ele>71.39999999999999</ele><time>2026-04-25T17:45:51.999Z</time></trkpt><trkpt lat="46.00982767041444" lon="13.328421773961045"><ele>71.6</ele><time>2026-04-25T17:45:52.999Z</time></trkpt><trkpt lat="46.0097469122497" lon="13.328521226035706"><ele>71.8</ele><time>2026-04-25T17:45:53.999Z</time></trkpt><trkpt lat="46.00965973154751" lon="13.32860858589217"><ele>72.0</ele><time>2026-04-25T17:45:54.999Z</time></trkpt><trkpt lat="46.0095674186959" lon="13.32868546546414"><ele>72.0</ele><time>2026-04-25T17:45:55.999Z</time></trkpt><trkpt lat="46.009481497433804" lon="13.328782534540194"><ele>72.0</ele><time>2026-04-25T17:45:56.999Z</time></trkpt><trkpt lat="46.00942686822539" lon="13.328911274508998"><ele>72.0</ele><time>2026-04-25T17:45:57.999Z</time></trkpt><trkpt lat="46.00940790876653" lon="13.32905063132037"><ele>72.0</ele><time>2026-04-25T17:45:58.999Z</time></trkpt><trkpt lat="46.00939438186196" lon="13.329190003015166"><ele>72.0</ele><time>2026-04-25T17:45:59.999Z</time></trkpt><trkpt lat="46.00935956931656" lon="13.329337695031667"><ele>71.5</ele><time>2026-04-25T17:46:00.999Z</time></trkpt><trkpt lat="46.00929928261292" lon="13.32947834121295"><ele>71.0</ele><time>2026-04-25T17:46:01.999Z</time></trkpt><trkpt lat="46.00923317686172" lon="13.329616982138065"><ele>70.5</ele><time>2026-04-25T17:46:02.999Z</time></trkpt><trkpt lat="46.009165597362454" lon="13.3297618430501"><ele>70.0</ele><time>2026-04-25T17:46:03.999Z</time></trkpt><trkpt lat="46.00909167928839" lon="13.329906137613472"><ele>69.75</ele><time>2026-04-25T17:46:04.999Z</time></trkpt><trkpt lat="46.00901418670719" lon="13.330049651177394"><ele>69.5</ele><time>2026-04-25T17:46:05.999Z</time></trkpt><trkpt lat="46.008934172040405" lon="13.330205232014688"><ele>69.25</ele><time>2026-04-25T17:46:06.999Z</time></trkpt><trkpt lat="46.00884715481476" lon="13.330374873754337"><ele>69.0</ele><time>2026-04-25T17:46:07.999Z</time></trkpt><trkpt lat="46.008759229884134" lon="13.330539361659458"><ele>69.0</ele><time>2026-04-25T17:46:08.999Z</time></trkpt><trkpt lat="46.008672717288235" lon="13.330703268217823"><ele>69.0</ele><time>2026-04-25T17:46:09.999Z</time></trkpt><trkpt lat="46.00858460106358" lon="13.33086776507988"><ele>69.0</ele><time>2026-04-25T17:46:10.999Z</time></trkpt><trkpt lat="46.00849374923425" lon="13.33103506098497"><ele>69.0</ele><time>2026-04-25T17:46:11.999Z</time></trkpt><trkpt lat="46.00840279946828" lon="13.331204151057422"><ele>69.0</ele><time>2026-04-25T17:46:12.999Z</time></trkpt><trkpt lat="46.008313024455234" lon="13.331368401242758"><ele>69.0</ele><time>2026-04-25T17:46:13.999Z</time></trkpt><trkpt lat="46.00822461151187" lon="13.331533639524075"><ele>69.0</ele><time>2026-04-25T17:46:14.999Z</time></trkpt><trkpt lat="46.008134919894594" lon="13.331701037768562"><ele>69.0</ele><time>2026-04-25T17:46:15.999Z</time></trkpt><trkpt lat="46.00804452151898" lon="13.33186989305094"><ele>69.0</ele><time>2026-04-25T17:46:16.999Z</time></trkpt><trkpt lat="46.007953548168175" lon="13.332039503009598"><ele>69.0</ele><time>2026-04-25T17:46:17.999Z</time></trkpt><trkpt lat="46.00786373535497" lon="13.332205615581767"><ele>69.0</ele><time>2026-04-25T17:46:18.999Z</time></trkpt><trkpt lat="46.00777666678473" lon="13.332370176909723"><ele>69.0</ele><time>2026-04-25T17:46:19.999Z</time></trkpt><trkpt lat="46.00768959477502" lon="13.332534282337132"><ele>69.0</ele><time>2026-04-25T17:46:20.999Z</time></trkpt><trkpt lat="46.007599239661594" lon="13.332701124276198"><ele>69.0</ele><time>2026-04-25T17:46:21.999Z</time></trkpt><trkpt lat="46.007505576063345" lon="13.33287623523805"><ele>69.0</ele><time>2026-04-25T17:46:22.999Z</time></trkpt><trkpt lat="46.00740993456833" lon="13.333055696415377"><ele>69.33333333333333</ele><time>2026-04-25T17:46:23.999Z</time></trkpt><trkpt lat="46.00731325690607" lon="13.333237916479227"><ele>69.66666666666666</ele><time>2026-04-25T17:46:24.999Z</time></trkpt><trkpt lat="46.007216799848" lon="13.33341766590425"><ele>70.0</ele><time>2026-04-25T17:46:25.999Z</time></trkpt><trkpt lat="46.007120767503615" lon="13.333598655099111"><ele>70.0</ele><time>2026-04-25T17:46:26.999Z</time></trkpt><trkpt lat="46.00702444854047" lon="13.333780181993337"><ele>70.0</ele><time>2026-04-25T17:46:27.999Z</time></trkpt><trkpt lat="46.006927991599056" lon="13.333965090401128"><ele>70.0</ele><time>2026-04-25T17:46:28.999Z</time></trkpt><trkpt lat="46.00683113823683" lon="13.334149693135599"><ele>70.0</ele><time>2026-04-25T17:46:29.999Z</time></trkpt><trkpt lat="46.00673308450265" lon="13.334332844184708"><ele>70.0</ele><time>2026-04-25T17:46:30.999Z</time></trkpt><trkpt lat="46.00663475740969" lon="13.334514231078195"><ele>70.0</ele><time>2026-04-25T17:46:31.999Z</time></trkpt><trkpt lat="46.00653588656798" lon="13.334694780089945"><ele>69.33333333333333</ele><time>2026-04-25T17:46:32.999Z</time></trkpt><trkpt lat="46.00643849522405" lon="13.334878936967966"><ele>68.66666666666667</ele><time>2026-04-25T17:46:33.999Z</time></trkpt><trkpt lat="46.00633804333333" lon="13.33506528304629"><ele>68.0</ele><time>2026-04-25T17:46:34.999Z</time></trkpt><trkpt lat="46.00623776774215" lon="13.335254533038983"><ele>68.0</ele><time>2026-04-25T17:46:35.999Z</time></trkpt><trkpt lat="46.006135952330084" lon="13.335441097763008"><ele>68.0</ele><time>2026-04-25T17:46:36.999Z</time></trkpt><trkpt lat="46.00603649957924" lon="13.33562643985378"><ele>68.0</ele><time>2026-04-25T17:46:37.999Z</time></trkpt><trkpt lat="46.00593962779525" lon="13.335808269850409"><ele>68.0</ele><time>2026-04-25T17:46:38.999Z</time></trkpt><trkpt lat="46.005843886907236" lon="13.335987096044315"><ele>68.0</ele><time>2026-04-25T17:46:39.999Z</time></trkpt><trkpt lat="46.00574972294928" lon="13.336162645971275"><ele>68.0</ele><time>2026-04-25T17:46:40.999Z</time></trkpt><trkpt lat="46.00565539481007" lon="13.33633673293287"><ele>68.0</ele><time>2026-04-25T17:46:41.999Z</time></trkpt><trkpt lat="46.00555649513882" lon="13.336508893876662"><ele>68.0</ele><time>2026-04-25T17:46:42.999Z</time></trkpt><trkpt lat="46.005457719904605" lon="13.33668166278079"><ele>68.0</ele><time>2026-04-25T17:46:43.999Z</time></trkpt><trkpt lat="46.005359824990116" lon="13.33685064186181"><ele>68.0</ele><time>2026-04-25T17:46:44.999Z</time></trkpt><trkpt lat="46.005260083669896" lon="13.337021960264837"><ele>68.0</ele><time>2026-04-25T17:46:45.999Z</time></trkpt><trkpt lat="46.00515782564135" lon="13.337203997730935"><ele>68.0</ele><time>2026-04-25T17:46:46.999Z</time></trkpt><trkpt lat="46.00505768904688" lon="13.337393639200265"><ele>67.33333333333334</ele><time>2026-04-25T17:46:47.999Z</time></trkpt><trkpt lat="46.00495935903658" lon="13.337576533529843"><ele>66.66666666666667</ele><time>2026-04-25T17:46:49Z</time></trkpt><trkpt lat="46.00485945649398" lon="13.337756520438239"><ele>66.0</ele><time>2026-04-25T17:46:50Z</time></trkpt><trkpt lat="46.00476140404846" lon="13.337937711480269"><ele>66.0</ele><time>2026-04-25T17:46:51Z</time></trkpt><trkpt lat="46.00466710471268" lon="13.338117296459718"><ele>66.0</ele><time>2026-04-25T17:46:52Z</time></trkpt><trkpt lat="46.004578465916595" lon="13.338284195176996"><ele>66.0</ele><time>2026-04-25T17:46:53Z</time></trkpt><trkpt lat="46.004502146644455" lon="13.3384280449532"><ele>66.0</ele><time>2026-04-25T17:46:54Z</time></trkpt><trkpt lat="46.0044317998374" lon="13.338559459734938"><ele>66.0</ele><time>2026-04-25T17:46:55Z</time></trkpt><trkpt lat="46.00437423226805" lon="13.338668485983133"><ele>66.0</ele><time>2026-04-25T17:46:56Z</time></trkpt><trkpt lat="46.00430684890741" lon="13.33875303652227"><ele>66.0</ele><time>2026-04-25T17:46:57Z</time></trkpt><trkpt lat="46.00425256986006" lon="13.338809417621103"><ele>66.0</ele><time>2026-04-25T17:46:58Z</time></trkpt><trkpt lat="46.00410302640174" lon="13.338744375049206"><ele>66.0</ele><time>2026-04-25T17:46:59Z</time></trkpt><trkpt lat="46.00395744605413" lon="13.338705550370431"><ele>65.75</ele><time>2026-04-25T17:47:00Z</time></trkpt><trkpt lat="46.003816761983835" lon="13.338688687216658"><ele>65.5</ele><time>2026-04-25T17:47:01Z</time></trkpt><trkpt lat="46.00370751137794" lon="13.338672909953804"><ele>65.25</ele><time>2026-04-25T17:47:02Z</time></trkpt><trkpt lat="46.00362135488555" lon="13.338661533654163"><ele>65.0</ele><time>2026-04-25T17:47:03Z</time></trkpt><trkpt lat="46.003490211028755" lon="13.33865822280984"><ele>65.0</ele><time>2026-04-25T17:47:05Z</time></trkpt><trkpt lat="46.00339035180608" lon="13.338690463446575"><ele>65.0</ele><time>2026-04-25T17:47:06Z</time></trkpt><trkpt lat="46.00326666438065" lon="13.338709085367668"><ele>65.0</ele><time>2026-04-25T17:47:07Z</time></trkpt><trkpt lat="46.00317245799937" lon="13.338699058628857"><ele>65.0</ele><time>2026-04-25T17:47:08Z</time></trkpt><trkpt lat="46.00310937441762" lon="13.338698042589831"><ele>65.0</ele><time>2026-04-25T17:47:09Z</time></trkpt><trkpt lat="46.00304176273369" lon="13.338698856903754"><ele>65.0</ele><time>2026-04-25T17:47:10Z</time></trkpt><trkpt lat="46.00295189529723" lon="13.338704077437795"><ele>65.0</ele><time>2026-04-25T17:47:11Z</time></trkpt><trkpt lat="46.00281848072949" lon="13.338692546811833"><ele>65.0</ele><time>2026-04-25T17:47:12Z</time></trkpt><trkpt lat="46.00264034107286" lon="13.338660487378192"><ele>65.0</ele><time>2026-04-25T17:47:13Z</time></trkpt><trkpt lat="46.00239299035203" lon="13.338612905030487"><ele>64.5</ele><time>2026-04-25T17:47:14Z</time></trkpt><trkpt lat="46.00210353437628" lon="13.338570039799816"><ele>64.0</ele><time>2026-04-25T17:47:15Z</time></trkpt><trkpt lat="46.0018399565489" lon="13.338525563292146"><ele>63.5</ele><time>2026-04-25T17:47:16Z</time></trkpt><trkpt lat="46.00161052551768" lon="13.338483731394556"><ele>63.0</ele><time>2026-04-25T17:47:17Z</time></trkpt><trkpt lat="46.00138922519905" lon="13.338442776995313"><ele>63.0</ele><time>2026-04-25T17:47:18Z</time></trkpt><trkpt lat="46.00117356809703" lon="13.338403852143463"><ele>63.0</ele><time>2026-04-25T17:47:19Z</time></trkpt><trkpt lat="46.000980485924316" lon="13.338371596789068"><ele>63.0</ele><time>2026-04-25T17:47:20Z</time></trkpt><trkpt lat="46.000803071600885" lon="13.338347320790866"><ele>63.5</ele><time>2026-04-25T17:47:21Z</time></trkpt><trkpt lat="46.000641964433704" lon="13.338319890631745"><ele>64.0</ele><time>2026-04-25T17:47:22Z</time></trkpt><trkpt lat="46.00049467381244" lon="13.338285632687516"><ele>64.5</ele><time>2026-04-25T17:47:23Z</time></trkpt><trkpt lat="46.00037132950487" lon="13.338258292664806"><ele>65.0</ele><time>2026-04-25T17:47:24Z</time></trkpt><trkpt lat="46.000272205033504" lon="13.33823961277756"><ele>65.0</ele><time>2026-04-25T17:47:25Z</time></trkpt><trkpt lat="46.000200252542506" lon="13.338226824320504"><ele>65.0</ele><time>2026-04-25T17:47:26Z</time></trkpt><trkpt lat="46.0001264825715" lon="13.338213826929112"><ele>65.0</ele><time>2026-04-25T17:47:27Z</time></trkpt><trkpt lat="46.00004000374203" lon="13.338207728699185"><ele>65.0</ele><time>2026-04-25T17:47:28Z</time></trkpt><trkpt lat="45.99995933064182" lon="13.33823544390066"><ele>65.0</ele><time>2026-04-25T17:47:29Z</time></trkpt><trkpt lat="45.99988888417795" lon="13.338313394617488"><ele>65.0</ele><time>2026-04-25T17:47:30Z</time></trkpt><trkpt lat="45.999832936848286" lon="13.338447266261756"><ele>65.0</ele><time>2026-04-25T17:47:30.999Z</time></trkpt><trkpt lat="45.999790785951774" lon="13.338625721140572"><ele>65.0</ele><time>2026-04-25T17:47:31.999Z</time></trkpt><trkpt lat="45.999746212505556" lon="13.338779100707551"><ele>65.0</ele><time>2026-04-25T17:47:32.999Z</time></trkpt><trkpt lat="45.99969743268118" lon="13.338930486747849"><ele>65.0</ele><time>2026-04-25T17:47:33.999Z</time></trkpt><trkpt lat="45.9996330947266" lon="13.339071468552094"><ele>65.25</ele><time>2026-04-25T17:47:34.999Z</time></trkpt><trkpt lat="45.99955078898054" lon="13.339188884329543"><ele>65.5</ele><time>2026-04-25T17:47:35.999Z</time></trkpt><trkpt lat="45.999439951185074" lon="13.339293385511573"><ele>65.75</ele><time>2026-04-25T17:47:36.999Z</time></trkpt><trkpt lat="45.99930360030521" lon="13.339383280812905"><ele>66.0</ele><time>2026-04-25T17:47:37.999Z</time></trkpt><trkpt lat="45.99916078358909" lon="13.339482141208228"><ele>65.75</ele><time>2026-04-25T17:47:38.999Z</time></trkpt><trkpt lat="45.99902979305005" lon="13.339579618559727"><ele>65.5</ele><time>2026-04-25T17:47:39.999Z</time></trkpt><trkpt lat="45.99890042576764" lon="13.339658682215452"><ele>65.25</ele><time>2026-04-25T17:47:40.999Z</time></trkpt><trkpt lat="45.99875730252607" lon="13.339714733682454"><ele>65.0</ele><time>2026-04-25T17:47:41.999Z</time></trkpt><trkpt lat="45.998604279589294" lon="13.339736741352406"><ele>65.0</ele><time>2026-04-25T17:47:42.999Z</time></trkpt><trkpt lat="45.99844824728214" lon="13.339719924043681"><ele>65.0</ele><time>2026-04-25T17:47:43.999Z</time></trkpt><trkpt lat="45.99829418527609" lon="13.339664058644825"><ele>65.0</ele><time>2026-04-25T17:47:44.999Z</time></trkpt><trkpt lat="45.998154550942935" lon="13.33961670635027"><ele>64.8</ele><time>2026-04-25T17:47:45.999Z</time></trkpt><trkpt lat="45.99803254962031" lon="13.339600076763436"><ele>64.6</ele><time>2026-04-25T17:47:46.999Z</time></trkpt><trkpt lat="45.99792437941864" lon="13.339593634827901"><ele>64.4</ele><time>2026-04-25T17:47:47.999Z</time></trkpt><trkpt lat="45.997828345493296" lon="13.33963753038476"><ele>64.2</ele><time>2026-04-25T17:47:48.999Z</time></trkpt><trkpt lat="45.997743089656666" lon="13.339724230616756"><ele>64.0</ele><time>2026-04-25T17:47:49.999Z</time></trkpt><trkpt lat="45.997658870406624" lon="13.33985102772103"><ele>64.0</ele><time>2026-04-25T17:47:50.999Z</time></trkpt><trkpt lat="45.997586217421734" lon="13.340032369765934"><ele>64.0</ele><time>2026-04-25T17:47:51.999Z</time></trkpt><trkpt lat="45.99751844327212" lon="13.34020170433122"><ele>64.0</ele><time>2026-04-25T17:47:52.999Z</time></trkpt><trkpt lat="45.99745944058377" lon="13.340362265395719"><ele>64.0</ele><time>2026-04-25T17:47:53.999Z</time></trkpt><trkpt lat="45.997361394425916" lon="13.340474666527395"><ele>64.0</ele><time>2026-04-25T17:47:54.999Z</time></trkpt><trkpt lat="45.99723548949047" lon="13.340537985692283"><ele>64.0</ele><time>2026-04-25T17:47:55.999Z</time></trkpt><trkpt lat="45.99708938825276" lon="13.34053547892156"><ele>64.0</ele><time>2026-04-25T17:47:56.999Z</time></trkpt><trkpt lat="45.99694438208489" lon="13.340484889111854"><ele>64.0</ele><time>2026-04-25T17:47:57.999Z</time></trkpt><trkpt lat="45.99680688484551" lon="13.340386585027854"><ele>64.0</ele><time>2026-04-25T17:47:58.999Z</time></trkpt><trkpt lat="45.99669502733079" lon="13.34030728124428"><ele>64.0</ele><time>2026-04-25T17:47:59.999Z</time></trkpt><trkpt lat="45.996589645760736" lon="13.340235814614859"><ele>64.0</ele><time>2026-04-25T17:48:00.999Z</time></trkpt><trkpt lat="45.99649740171901" lon="13.340176046279334"><ele>64.0</ele><time>2026-04-25T17:48:01.999Z</time></trkpt><trkpt lat="45.99641088452624" lon="13.34011631951402"><ele>64.0</ele><time>2026-04-25T17:48:02.999Z</time></trkpt><trkpt lat="45.99630805438788" lon="13.340042957654072"><ele>64.0</ele><time>2026-04-25T17:48:03.999Z</time></trkpt><trkpt lat="45.99617864397888" lon="13.3399588043508"><ele>64.0</ele><time>2026-04-25T17:48:04.999Z</time></trkpt><trkpt lat="45.996023394305666" lon="13.33990809500123"><ele>64.0</ele><time>2026-04-25T17:48:05.999Z</time></trkpt><trkpt lat="45.995852176175525" lon="13.339907914224788"><ele>63.33333333333333</ele><time>2026-04-25T17:48:06.999Z</time></trkpt><trkpt lat="45.995677212835275" lon="13.339945761104957"><ele>62.66666666666667</ele><time>2026-04-25T17:48:07.999Z</time></trkpt><trkpt lat="45.995495115547236" lon="13.340041017883253"><ele>62.0</ele><time>2026-04-25T17:48:08.999Z</time></trkpt><trkpt lat="45.995303444951226" lon="13.340167213209215"><ele>62.0</ele><time>2026-04-25T17:48:09.999Z</time></trkpt><trkpt lat="45.995096872403536" lon="13.340296282281152"><ele>62.0</ele><time>2026-04-25T17:48:10.999Z</time></trkpt><trkpt lat="45.99488707713346" lon="13.340428096687218"><ele>62.0</ele><time>2026-04-25T17:48:11.999Z</time></trkpt><trkpt lat="45.9946821335654" lon="13.340556604683213"><ele>62.0</ele><time>2026-04-25T17:48:12.999Z</time></trkpt><trkpt lat="45.99448657896816" lon="13.340681990513962"><ele>62.0</ele><time>2026-04-25T17:48:13.999Z</time></trkpt><trkpt lat="45.99429299878823" lon="13.340800105566032"><ele>62.0</ele><time>2026-04-25T17:48:14.999Z</time></trkpt><trkpt lat="45.99410536741428" lon="13.340913631850139"><ele>62.0</ele><time>2026-04-25T17:48:15.999Z</time></trkpt><trkpt lat="45.99391243632406" lon="13.341008934673626"><ele>62.0</ele><time>2026-04-25T17:48:16.999Z</time></trkpt><trkpt lat="45.99371331464879" lon="13.341077824028122"><ele>62.0</ele><time>2026-04-25T17:48:17.999Z</time></trkpt><trkpt lat="45.99350710787942" lon="13.341131170424152"><ele>62.0</ele><time>2026-04-25T17:48:18.999Z</time></trkpt><trkpt lat="45.99329511265931" lon="13.341192143415128"><ele>62.0</ele><time>2026-04-25T17:48:19.999Z</time></trkpt><trkpt lat="45.99308140755225" lon="13.341261672041496"><ele>61.333333333333336</ele><time>2026-04-25T17:48:20.999Z</time></trkpt><trkpt lat="45.99286276988763" lon="13.34133534655303"><ele>60.66666666666667</ele><time>2026-04-25T17:48:21.999Z</time></trkpt><trkpt lat="45.992645690453074" lon="13.341411466750227"><ele>60.0</ele><time>2026-04-25T17:48:22.999Z</time></trkpt><trkpt lat="45.9924585992305" lon="13.341483429383091"><ele>59.75</ele><time>2026-04-25T17:48:23.999Z</time></trkpt><trkpt lat="45.99229537930902" lon="13.3415426167192"><ele>59.5</ele><time>2026-04-25T17:48:24.999Z</time></trkpt><trkpt lat="45.992163246966214" lon="13.34158995369115"><ele>59.25</ele><time>2026-04-25T17:48:25.999Z</time></trkpt><trkpt lat="45.992052327409716" lon="13.341630096013688"><ele>59.0</ele><time>2026-04-25T17:48:26.999Z</time></trkpt><trkpt lat="45.99191987052615" lon="13.341680180828533"><ele>59.0</ele><time>2026-04-25T17:48:27.999Z</time></trkpt><trkpt lat="45.99177814028561" lon="13.341734446558347"><ele>59.0</ele><time>2026-04-25T17:48:28.999Z</time></trkpt><trkpt lat="45.991628332417804" lon="13.341788620075091"><ele>59.0</ele><time>2026-04-25T17:48:29.999Z</time></trkpt><trkpt lat="45.99147167144103" lon="13.34184549333244"><ele>58.333333333333336</ele><time>2026-04-25T17:48:30.999Z</time></trkpt><trkpt lat="45.99130044504686" lon="13.341908427166473"><ele>57.66666666666667</ele><time>2026-04-25T17:48:31.999Z</time></trkpt><trkpt lat="45.9911096033187" lon="13.341982994219487"><ele>57.0</ele><time>2026-04-25T17:48:32.999Z</time></trkpt><trkpt lat="45.99089840885912" lon="13.34206487750188"><ele>57.0</ele><time>2026-04-25T17:48:33.999Z</time></trkpt><trkpt lat="45.990670142698335" lon="13.34214509987746"><ele>57.0</ele><time>2026-04-25T17:48:34.999Z</time></trkpt><trkpt lat="45.99043560879221" lon="13.342230416954184"><ele>57.0</ele><time>2026-04-25T17:48:35.999Z</time></trkpt><trkpt lat="45.99019798508079" lon="13.342316775353874"><ele>57.0</ele><time>2026-04-25T17:48:36.999Z</time></trkpt><trkpt lat="45.98996360467239" lon="13.34239451524821"><ele>57.5</ele><time>2026-04-25T17:48:37.999Z</time></trkpt><trkpt lat="45.98972873352035" lon="13.342456523996093"><ele>58.0</ele><time>2026-04-25T17:48:38.999Z</time></trkpt><trkpt lat="45.989489672339694" lon="13.342495975609209"><ele>58.0</ele><time>2026-04-25T17:48:39.999Z</time></trkpt><trkpt lat="45.9892490398054" lon="13.342523596240177"><ele>58.0</ele><time>2026-04-25T17:48:40.999Z</time></trkpt><trkpt lat="45.989012361723645" lon="13.342549828849721"><ele>58.5</ele><time>2026-04-25T17:48:41.999Z</time></trkpt><trkpt lat="45.9887772279416" lon="13.342579692362117"><ele>59.0</ele><time>2026-04-25T17:48:42.999Z</time></trkpt><trkpt lat="45.98854270554898" lon="13.34261634352035"><ele>58.5</ele><time>2026-04-25T17:48:43.999Z</time></trkpt><trkpt lat="45.988312657992935" lon="13.342662384469005"><ele>58.0</ele><time>2026-04-25T17:48:44.999Z</time></trkpt><trkpt lat="45.988082934658934" lon="13.342724962768967"><ele>58.0</ele><time>2026-04-25T17:48:45.999Z</time></trkpt><trkpt lat="45.98785380072102" lon="13.342807626632148"><ele>58.0</ele><time>2026-04-25T17:48:46.999Z</time></trkpt><trkpt lat="45.98762592281347" lon="13.342904311914449"><ele>58.5</ele><time>2026-04-25T17:48:47.999Z</time></trkpt><trkpt lat="45.98739942748252" lon="13.343017103105668"><ele>59.0</ele><time>2026-04-25T17:48:48.999Z</time></trkpt><trkpt lat="45.98718128425966" lon="13.343133941737957"><ele>58.0</ele><time>2026-04-25T17:48:49.999Z</time></trkpt><trkpt lat="45.98695924992651" lon="13.343251657032301"><ele>57.0</ele><time>2026-04-25T17:48:50.999Z</time></trkpt><trkpt lat="45.98673633174927" lon="13.343372805416767"><ele>57.0</ele><time>2026-04-25T17:48:51.999Z</time></trkpt><trkpt lat="45.98651786385897" lon="13.34349457133915"><ele>57.0</ele><time>2026-04-25T17:48:52.999Z</time></trkpt><trkpt lat="45.98631383826804" lon="13.343606142926106"><ele>57.0</ele><time>2026-04-25T17:48:53.999Z</time></trkpt><trkpt lat="45.98612978489055" lon="13.343704768766337"><ele>57.0</ele><time>2026-04-25T17:48:55Z</time></trkpt><trkpt lat="45.985975843712545" lon="13.343790815514854"><ele>57.0</ele><time>2026-04-25T17:48:56Z</time></trkpt><trkpt lat="45.9858525295871" lon="13.343858056861484"><ele>57.0</ele><time>2026-04-25T17:48:57Z</time></trkpt><trkpt lat="45.985759854807824" lon="13.343908741185144"><ele>57.0</ele><time>2026-04-25T17:48:58Z</time></trkpt><trkpt lat="45.98567817875252" lon="13.343942432976005"><ele>57.0</ele><time>2026-04-25T17:48:59Z</time></trkpt><trkpt lat="45.985597142080536" lon="13.343933850509679"><ele>57.0</ele><time>2026-04-25T17:49:00Z</time></trkpt><trkpt lat="45.98552170471644" lon="13.343875453636612"><ele>57.0</ele><time>2026-04-25T17:49:01Z</time></trkpt><trkpt lat="45.98544909665041" lon="13.343763868693213"><ele>57.0</ele><time>2026-04-25T17:49:02Z</time></trkpt><trkpt lat="45.985347647587254" lon="13.34366096263127"><ele>57.0</ele><time>2026-04-25T17:49:03Z</time></trkpt><trkpt lat="45.985239420787735" lon="13.343560992871177"><ele>57.0</ele><time>2026-04-25T17:49:04Z</time></trkpt><trkpt lat="45.98514978530579" lon="13.343452861706524"><ele>57.0</ele><time>2026-04-25T17:49:05Z</time></trkpt><trkpt lat="45.98505971417395" lon="13.343377160647783"><ele>57.400000000000006</ele><time>2026-04-25T17:49:06Z</time></trkpt><trkpt lat="45.984964222409786" lon="13.343333309069264"><ele>57.800000000000004</ele><time>2026-04-25T17:49:07Z</time></trkpt><trkpt lat="45.984863834740295" lon="13.343333052400672"><ele>58.2</ele><time>2026-04-25T17:49:08Z</time></trkpt><trkpt lat="45.9847661191244" lon="13.343391186652248"><ele>58.6</ele><time>2026-04-25T17:49:09Z</time></trkpt><trkpt lat="45.98467437538563" lon="13.343501937738003"><ele>59.0</ele><time>2026-04-25T17:49:10Z</time></trkpt><trkpt lat="45.984584067818545" lon="13.343627266811676"><ele>59.0</ele><time>2026-04-25T17:49:11Z</time></trkpt><trkpt lat="45.98447302543425" lon="13.343722326061934"><ele>59.0</ele><time>2026-04-25T17:49:12Z</time></trkpt><trkpt lat="45.984335706759374" lon="13.343787400334705"><ele>59.0</ele><time>2026-04-25T17:49:13Z</time></trkpt><trkpt lat="45.984180152974176" lon="13.343853890237606"><ele>59.0</ele><time>2026-04-25T17:49:14Z</time></trkpt><trkpt lat="45.98404749709271" lon="13.343938426024632"><ele>58.400000000000006</ele><time>2026-04-25T17:49:15Z</time></trkpt><trkpt lat="45.98393713174444" lon="13.34401947699124"><ele>57.800000000000004</ele><time>2026-04-25T17:49:16Z</time></trkpt><trkpt lat="45.983852099511566" lon="13.344100104559823"><ele>57.199999999999996</ele><time>2026-04-25T17:49:17Z</time></trkpt><trkpt lat="45.98378691652431" lon="13.344162808718707"><ele>56.599999999999994</ele><time>2026-04-25T17:49:18Z</time></trkpt><trkpt lat="45.98372225325566" lon="13.34417443371071"><ele>56.0</ele><time>2026-04-25T17:49:19Z</time></trkpt><trkpt lat="45.98363071149948" lon="13.344020948679486"><ele>56.25</ele><time>2026-04-25T17:49:21Z</time></trkpt><trkpt lat="45.98358354208414" lon="13.343871586904674"><ele>56.5</ele><time>2026-04-25T17:49:22Z</time></trkpt><trkpt lat="45.983518289839886" lon="13.343706407800838"><ele>56.75</ele><time>2026-04-25T17:49:23Z</time></trkpt><trkpt lat="45.9834435878136" lon="13.343530688323654"><ele>57.0</ele><time>2026-04-25T17:49:24Z</time></trkpt><trkpt lat="45.98336870287151" lon="13.34336183831678"><ele>56.75</ele><time>2026-04-25T17:49:25Z</time></trkpt><trkpt lat="45.98329582781363" lon="13.343209267603822"><ele>56.5</ele><time>2026-04-25T17:49:26Z</time></trkpt><trkpt lat="45.983211974179525" lon="13.343085162598863"><ele>56.25</ele><time>2026-04-25T17:49:27Z</time></trkpt><trkpt lat="45.98310946252538" lon="13.3430059275003"><ele>56.0</ele><time>2026-04-25T17:49:28Z</time></trkpt><trkpt lat="45.98298752317182" lon="13.342977617514952"><ele>56.0</ele><time>2026-04-25T17:49:29Z</time></trkpt><trkpt lat="45.982870080401675" lon="13.343010302144426"><ele>56.0</ele><time>2026-04-25T17:49:30Z</time></trkpt><trkpt lat="45.98275374825961" lon="13.343073254305521"><ele>56.0</ele><time>2026-04-25T17:49:31Z</time></trkpt><trkpt lat="45.982625681517334" lon="13.343107675135517"><ele>56.0</ele><time>2026-04-25T17:49:31.999Z</time></trkpt><trkpt lat="45.98249832485773" lon="13.343091869056773"><ele>55.4</ele><time>2026-04-25T17:49:32.999Z</time></trkpt><trkpt lat="45.98237747882708" lon="13.34302269054452"><ele>54.8</ele><time>2026-04-25T17:49:33.999Z</time></trkpt><trkpt lat="45.98228234720124" lon="13.34294845226196"><ele>54.199999999999996</ele><time>2026-04-25T17:49:34.999Z</time></trkpt><trkpt lat="45.98221205387573" lon="13.342879428716493"><ele>53.599999999999994</ele><time>2026-04-25T17:49:35.999Z</time></trkpt><trkpt lat="45.982158049374604" lon="13.342827982445014"><ele>53.0</ele><time>2026-04-25T17:49:36.999Z</time></trkpt><trkpt lat="45.98211058510265" lon="13.342601820524703"><ele>53.0</ele><time>2026-04-25T17:49:38.999Z</time></trkpt><trkpt lat="45.98206690336438" lon="13.342441955251902"><ele>53.0</ele><time>2026-04-25T17:49:39.999Z</time></trkpt><trkpt lat="45.98200353021496" lon="13.342231612271435"><ele>53.0</ele><time>2026-04-25T17:49:40.999Z</time></trkpt><trkpt lat="45.98192880408939" lon="13.341972610014937"><ele>53.0</ele><time>2026-04-25T17:49:41.999Z</time></trkpt><trkpt lat="45.98184245165182" lon="13.34168705661155"><ele>53.0</ele><time>2026-04-25T17:49:42.999Z</time></trkpt><trkpt lat="45.98175309249242" lon="13.341378005131807"><ele>53.0</ele><time>2026-04-25T17:49:43.999Z</time></trkpt><trkpt lat="45.98165863721799" lon="13.341054905472392"><ele>53.0</ele><time>2026-04-25T17:49:44.999Z</time></trkpt><trkpt lat="45.981559378220915" lon="13.340727072375003"><ele>53.0</ele><time>2026-04-25T17:49:45.999Z</time></trkpt><trkpt lat="45.98144624163903" lon="13.340410062005827"><ele>53.0</ele><time>2026-04-25T17:49:46.999Z</time></trkpt><trkpt lat="45.981308044143994" lon="13.3401066686744"><ele>53.0</ele><time>2026-04-25T17:49:47.999Z</time></trkpt><trkpt lat="45.98115773777963" lon="13.339811634000654"><ele>53.5</ele><time>2026-04-25T17:49:48.999Z</time></trkpt><trkpt lat="45.98100760912231" lon="13.339512377044176"><ele>54.0</ele><time>2026-04-25T17:49:49.999Z</time></trkpt><trkpt lat="45.980857558112575" lon="13.339210043187897"><ele>54.5</ele><time>2026-04-25T17:49:50.999Z</time></trkpt><trkpt lat="45.98070827632856" lon="13.33890456781158"><ele>55.0</ele><time>2026-04-25T17:49:51.999Z</time></trkpt><trkpt lat="45.98055873110626" lon="13.338597551376328"><ele>56.0</ele><time>2026-04-25T17:49:52.999Z</time></trkpt><trkpt lat="45.98040688806978" lon="13.338290615087459"><ele>57.0</ele><time>2026-04-25T17:49:53.999Z</time></trkpt><trkpt lat="45.98025400487245" lon="13.337983957010108"><ele>57.0</ele><time>2026-04-25T17:49:54.999Z</time></trkpt><trkpt lat="45.980100568341236" lon="13.337675939710836"><ele>57.0</ele><time>2026-04-25T17:49:55.999Z</time></trkpt><trkpt lat="45.97994906741491" lon="13.337363996521285"><ele>57.0</ele><time>2026-04-25T17:49:56.999Z</time></trkpt><trkpt lat="45.97979805559341" lon="13.33705041635503"><ele>57.0</ele><time>2026-04-25T17:49:57.999Z</time></trkpt><trkpt lat="45.97964874416398" lon="13.336740088846721"><ele>57.0</ele><time>2026-04-25T17:49:58.999Z</time></trkpt><trkpt lat="45.979503826100185" lon="13.336430417760656"><ele>57.0</ele><time>2026-04-25T17:49:59.999Z</time></trkpt><trkpt lat="45.97936217585368" lon="13.336118506122299"><ele>57.0</ele><time>2026-04-25T17:50:00.999Z</time></trkpt><trkpt lat="45.979223015859304" lon="13.335808175210742"><ele>57.0</ele><time>2026-04-25T17:50:01.999Z</time></trkpt><trkpt lat="45.97908722063181" lon="13.335497883334797"><ele>58.0</ele><time>2026-04-25T17:50:02.999Z</time></trkpt><trkpt lat="45.97895375293992" lon="13.335190103408815"><ele>59.0</ele><time>2026-04-25T17:50:03.999Z</time></trkpt><trkpt lat="45.9788206066716" lon="13.334889440926474"><ele>59.0</ele><time>2026-04-25T17:50:04.999Z</time></trkpt><trkpt lat="45.978687741998705" lon="13.334587955265457"><ele>59.0</ele><time>2026-04-25T17:50:05.999Z</time></trkpt><trkpt lat="45.97855575464995" lon="13.334286953457177"><ele>59.0</ele><time>2026-04-25T17:50:06.999Z</time></trkpt><trkpt lat="45.9784249421076" lon="13.33398895318327"><ele>59.0</ele><time>2026-04-25T17:50:07.999Z</time></trkpt><trkpt lat="45.9782941520309" lon="13.333692359610307"><ele>56.5</ele><time>2026-04-25T17:50:08.999Z</time></trkpt><trkpt lat="45.97816430547719" lon="13.333394318034308"><ele>54.0</ele><time>2026-04-25T17:50:09.999Z</time></trkpt><trkpt lat="45.97803567901722" lon="13.333096847543358"><ele>54.5</ele><time>2026-04-25T17:50:10.999Z</time></trkpt><trkpt lat="45.97790630936675" lon="13.33279796883083"><ele>55.0</ele><time>2026-04-25T17:50:11.999Z</time></trkpt><trkpt lat="45.97777548195779" lon="13.332502156738062"><ele>56.0</ele><time>2026-04-25T17:50:12.999Z</time></trkpt><trkpt lat="45.977646423046544" lon="13.332208962562872"><ele>57.0</ele><time>2026-04-25T17:50:13.999Z</time></trkpt><trkpt lat="45.97751973965238" lon="13.331922196862454"><ele>57.0</ele><time>2026-04-25T17:50:14.999Z</time></trkpt><trkpt lat="45.97739573145732" lon="13.331642187172513"><ele>57.0</ele><time>2026-04-25T17:50:15.999Z</time></trkpt><trkpt lat="45.97727760818348" lon="13.331367884954101"><ele>57.0</ele><time>2026-04-25T17:50:16.999Z</time></trkpt><trkpt lat="45.97716121492695" lon="13.331103702786466"><ele>57.0</ele><time>2026-04-25T17:50:17.999Z</time></trkpt><trkpt lat="45.97704673885778" lon="13.330842546445487"><ele>57.0</ele><time>2026-04-25T17:50:18.999Z</time></trkpt><trkpt lat="45.97693490381055" lon="13.33058679385639"><ele>57.66666666666667</ele><time>2026-04-25T17:50:19.999Z</time></trkpt><trkpt lat="45.97682588966388" lon="13.330337439590378"><ele>58.333333333333336</ele><time>2026-04-25T17:50:20.999Z</time></trkpt><trkpt lat="45.97672658808796" lon="13.330107735436323"><ele>59.0</ele><time>2026-04-25T17:50:21.999Z</time></trkpt><trkpt lat="45.976633649635076" lon="13.32987914576126"><ele>59.0</ele><time>2026-04-25T17:50:22.999Z</time></trkpt><trkpt lat="45.9765496746302" lon="13.329653150768227"><ele>59.0</ele><time>2026-04-25T17:50:23.999Z</time></trkpt><trkpt lat="45.97647936651993" lon="13.329436948933317"><ele>59.0</ele><time>2026-04-25T17:50:24.999Z</time></trkpt><trkpt lat="45.97641671018824" lon="13.329214504642632"><ele>59.0</ele><time>2026-04-25T17:50:25.999Z</time></trkpt><trkpt lat="45.976355650992666" lon="13.328992280412624"><ele>59.0</ele><time>2026-04-25T17:50:26.999Z</time></trkpt><trkpt lat="45.97629925876214" lon="13.328784372655408"><ele>59.0</ele><time>2026-04-25T17:50:27.999Z</time></trkpt><trkpt lat="45.97624586228247" lon="13.32859504002404"><ele>59.0</ele><time>2026-04-25T17:50:28.999Z</time></trkpt><trkpt lat="45.976190046108435" lon="13.328417454303898"><ele>59.00000000000001</ele><time>2026-04-25T17:50:29.999Z</time></trkpt><trkpt lat="45.97613430266264" lon="13.328261768763829"><ele>59.00000000000001</ele><time>2026-04-25T17:50:30.999Z</time></trkpt><trkpt lat="45.976079945583024" lon="13.328136741938698"><ele>59.0</ele><time>2026-04-25T17:50:31.999Z</time></trkpt><trkpt lat="45.97603687386253" lon="13.328044206318655"><ele>59.0</ele><time>2026-04-25T17:50:32.999Z</time></trkpt><trkpt lat="45.97600190548798" lon="13.327947695737471"><ele>59.00000000000001</ele><time>2026-04-25T17:50:33.999Z</time></trkpt><trkpt lat="45.97598215993821" lon="13.327835221596626"><ele>59.0</ele><time>2026-04-25T17:50:34.999Z</time></trkpt><trkpt lat="45.97595255122358" lon="13.327737013268777"><ele>59.0</ele><time>2026-04-25T17:50:35.999Z</time></trkpt><trkpt lat="45.975937787701326" lon="13.327647999710448"><ele>59.0</ele><time>2026-04-25T17:50:36.999Z</time></trkpt><trkpt lat="45.97587986306734" lon="13.327590872673344"><ele>59.00000000000001</ele><time>2026-04-25T17:50:37.999Z</time></trkpt><trkpt lat="45.97573133251142" lon="13.327672543044164"><ele>59.0</ele><time>2026-04-25T17:50:39.999Z</time></trkpt><trkpt lat="45.9756326792547" lon="13.327768640393979"><ele>59.333333333333336</ele><time>2026-04-25T17:50:40.999Z</time></trkpt><trkpt lat="45.975517295379916" lon="13.327831153424894"><ele>59.66666666666667</ele><time>2026-04-25T17:50:41.999Z</time></trkpt><trkpt lat="45.975348707066786" lon="13.327807519009319"><ele>60.0</ele><time>2026-04-25T17:50:42.999Z</time></trkpt><trkpt lat="45.97519271334529" lon="13.327882074185263"><ele>60.0</ele><time>2026-04-25T17:50:43.999Z</time></trkpt><trkpt lat="45.97503263886124" lon="13.327981442025722"><ele>60.0</ele><time>2026-04-25T17:50:44.999Z</time></trkpt><trkpt lat="45.974869095020125" lon="13.32808549173801"><ele>60.0</ele><time>2026-04-25T17:50:45.999Z</time></trkpt><trkpt lat="45.97470198026284" lon="13.32820125955769"><ele>59.0</ele><time>2026-04-25T17:50:46.999Z</time></trkpt><trkpt lat="45.97453098969321" lon="13.328315740848714"><ele>58.0</ele><time>2026-04-25T17:50:47.999Z</time></trkpt><trkpt lat="45.97435866001659" lon="13.32843108146541"><ele>57.0</ele><time>2026-04-25T17:50:48.999Z</time></trkpt><trkpt lat="45.974190422023376" lon="13.328546138151106"><ele>56.66666666666667</ele><time>2026-04-25T17:50:49.999Z</time></trkpt><trkpt lat="45.97401853392155" lon="13.328661327459091"><ele>56.333333333333336</ele><time>2026-04-25T17:50:50.999Z</time></trkpt><trkpt lat="45.97384551405676" lon="13.328778567955457"><ele>56.0</ele><time>2026-04-25T17:50:51.999Z</time></trkpt><trkpt lat="45.97367029929485" lon="13.328896909250858"><ele>56.0</ele><time>2026-04-25T17:50:52.999Z</time></trkpt><trkpt lat="45.97348967110771" lon="13.329015925072802"><ele>56.0</ele><time>2026-04-25T17:50:53.999Z</time></trkpt><trkpt lat="45.97330789334252" lon="13.329138789548926"><ele>56.0</ele><time>2026-04-25T17:50:54.999Z</time></trkpt><trkpt lat="45.973123217172365" lon="13.329265154980762"><ele>55.333333333333336</ele><time>2026-04-25T17:50:55.999Z</time></trkpt><trkpt lat="45.97293497600246" lon="13.329393615596503"><ele>54.66666666666667</ele><time>2026-04-25T17:50:56.999Z</time></trkpt><trkpt lat="45.97274242003812" lon="13.329525234899874"><ele>54.0</ele><time>2026-04-25T17:50:57.999Z</time></trkpt><trkpt lat="45.972554300458256" lon="13.329652836938832"><ele>54.66666666666667</ele><time>2026-04-25T17:50:58.999Z</time></trkpt><trkpt lat="45.97237649822612" lon="13.329773344567622"><ele>55.333333333333336</ele><time>2026-04-25T17:50:59.999Z</time></trkpt><trkpt lat="45.97219534097134" lon="13.329902764010166"><ele>56.0</ele><time>2026-04-25T17:51:01Z</time></trkpt><trkpt lat="45.972007425606314" lon="13.330033257070127"><ele>56.0</ele><time>2026-04-25T17:51:02Z</time></trkpt><trkpt lat="45.97181679013684" lon="13.330156260900285"><ele>56.0</ele><time>2026-04-25T17:51:03Z</time></trkpt><trkpt lat="45.971618523608996" lon="13.330274421896426"><ele>56.0</ele><time>2026-04-25T17:51:04Z</time></trkpt><trkpt lat="45.97140820428534" lon="13.330372309361294"><ele>55.5</ele><time>2026-04-25T17:51:05Z</time></trkpt><trkpt lat="45.97118492797834" lon="13.330443848631688"><ele>55.0</ele><time>2026-04-25T17:51:06Z</time></trkpt><trkpt lat="45.97095431253108" lon="13.330503530472603"><ele>54.5</ele><time>2026-04-25T17:51:07Z</time></trkpt><trkpt lat="45.9707292859904" lon="13.33056476464198"><ele>54.0</ele><time>2026-04-25T17:51:08Z</time></trkpt><trkpt lat="45.97050690713478" lon="13.330626184436442"><ele>54.0</ele><time>2026-04-25T17:51:09Z</time></trkpt><trkpt lat="45.97028606575462" lon="13.330687255602781"><ele>54.0</ele><time>2026-04-25T17:51:10Z</time></trkpt><trkpt lat="45.970064547899945" lon="13.330747979063574"><ele>53.5</ele><time>2026-04-25T17:51:11Z</time></trkpt><trkpt lat="45.96984247264033" lon="13.330804843917058"><ele>53.0</ele><time>2026-04-25T17:51:12Z</time></trkpt><trkpt lat="45.969620869883734" lon="13.330861114648144"><ele>53.0</ele><time>2026-04-25T17:51:13Z</time></trkpt><trkpt lat="45.969400650525145" lon="13.330917313400262"><ele>53.0</ele><time>2026-04-25T17:51:14Z</time></trkpt><trkpt lat="45.96918112895907" lon="13.33097474275693"><ele>53.0</ele><time>2026-04-25T17:51:15Z</time></trkpt><trkpt lat="45.96896037686391" lon="13.331033826403058"><ele>53.0</ele><time>2026-04-25T17:51:16Z</time></trkpt><trkpt lat="45.9687384199253" lon="13.331091385963084"><ele>53.0</ele><time>2026-04-25T17:51:17Z</time></trkpt><trkpt lat="45.968515933124394" lon="13.33114850618342"><ele>54.0</ele><time>2026-04-25T17:51:18Z</time></trkpt><trkpt lat="45.9682938188399" lon="13.33120412497083"><ele>55.0</ele><time>2026-04-25T17:51:19Z</time></trkpt><trkpt lat="45.96807080959065" lon="13.33125978458263"><ele>55.0</ele><time>2026-04-25T17:51:20Z</time></trkpt><trkpt lat="45.96784986285708" lon="13.331317026171384"><ele>55.0</ele><time>2026-04-25T17:51:21Z</time></trkpt><trkpt lat="45.967628469577" lon="13.331374616297722"><ele>55.0</ele><time>2026-04-25T17:51:22Z</time></trkpt><trkpt lat="45.96740749798548" lon="13.331432593593087"><ele>53.5</ele><time>2026-04-25T17:51:23Z</time></trkpt><trkpt lat="45.96718604442733" lon="13.33148800249778"><ele>52.0</ele><time>2026-04-25T17:51:24Z</time></trkpt><trkpt lat="45.966963611043994" lon="13.331545386501961"><ele>52.0</ele><time>2026-04-25T17:51:25Z</time></trkpt><trkpt lat="45.9667421494646" lon="13.331606397448812"><ele>52.0</ele><time>2026-04-25T17:51:26Z</time></trkpt><trkpt lat="45.966520034260235" lon="13.331664904927823"><ele>51.5</ele><time>2026-04-25T17:51:27Z</time></trkpt><trkpt lat="45.966296906902265" lon="13.331725086451508"><ele>51.0</ele><time>2026-04-25T17:51:28Z</time></trkpt><trkpt lat="45.966074237643994" lon="13.331796190044193"><ele>51.0</ele><time>2026-04-25T17:51:29Z</time></trkpt><trkpt lat="45.96585564427372" lon="13.331889206459667"><ele>51.0</ele><time>2026-04-25T17:51:29.999Z</time></trkpt><trkpt lat="45.96564153924352" lon="13.332004210324241"><ele>51.0</ele><time>2026-04-25T17:51:30.999Z</time></trkpt><trkpt lat="45.96542610237959" lon="13.33213774651105"><ele>51.0</ele><time>2026-04-25T17:51:31.999Z</time></trkpt><trkpt lat="45.9652096181154" lon="13.332279611697807"><ele>51.5</ele><time>2026-04-25T17:51:32.999Z</time></trkpt><trkpt lat="45.964988412481055" lon="13.332421267482284"><ele>52.0</ele><time>2026-04-25T17:51:33.999Z</time></trkpt><trkpt lat="45.96476106457604" lon="13.332560204610859"><ele>52.0</ele><time>2026-04-25T17:51:34.999Z</time></trkpt><trkpt lat="45.96453185124846" lon="13.332702624440675"><ele>52.0</ele><time>2026-04-25T17:51:35.999Z</time></trkpt><trkpt lat="45.964304559288095" lon="13.332843229453276"><ele>50.5</ele><time>2026-04-25T17:51:36.999Z</time></trkpt><trkpt lat="45.964080935489335" lon="13.332983264928815"><ele>49.0</ele><time>2026-04-25T17:51:37.999Z</time></trkpt><trkpt lat="45.96385946917612" lon="13.333122540924613"><ele>49.0</ele><time>2026-04-25T17:51:38.999Z</time></trkpt><trkpt lat="45.963646511450754" lon="13.333259524663804"><ele>49.0</ele><time>2026-04-25T17:51:39.999Z</time></trkpt><trkpt lat="45.96344049245534" lon="13.33339096658138"><ele>49.0</ele><time>2026-04-25T17:51:40.999Z</time></trkpt><trkpt lat="45.963240897400254" lon="13.33351570163463"><ele>49.0</ele><time>2026-04-25T17:51:41.999Z</time></trkpt><trkpt lat="45.96304831191723" lon="13.333634970070102"><ele>49.0</ele><time>2026-04-25T17:51:42.999Z</time></trkpt><trkpt lat="45.962859382669386" lon="13.333754582793297"><ele>49.0</ele><time>2026-04-25T17:51:43.999Z</time></trkpt><trkpt lat="45.962672020849" lon="13.333873349180257"><ele>49.0</ele><time>2026-04-25T17:51:44.999Z</time></trkpt><trkpt lat="45.96248520442892" lon="13.333992504787885"><ele>49.0</ele><time>2026-04-25T17:51:45.999Z</time></trkpt><trkpt lat="45.96229988692274" lon="13.334109473916493"><ele>48.33333333333333</ele><time>2026-04-25T17:51:46.999Z</time></trkpt><trkpt lat="45.96211545883604" lon="13.33422460500467"><ele>47.666666666666664</ele><time>2026-04-25T17:51:47.999Z</time></trkpt><trkpt lat="45.96193202360221" lon="13.334340903267673"><ele>47.0</ele><time>2026-04-25T17:51:48.999Z</time></trkpt><trkpt lat="45.961751096785875" lon="13.334454916474295"><ele>47.0</ele><time>2026-04-25T17:51:49.999Z</time></trkpt><trkpt lat="45.96157147476629" lon="13.334561847247652"><ele>47.0</ele><time>2026-04-25T17:51:50.999Z</time></trkpt><trkpt lat="45.96139198095945" lon="13.334658347948235"><ele>47.0</ele><time>2026-04-25T17:51:51.999Z</time></trkpt><trkpt lat="45.96120643532104" lon="13.334739071472297"><ele>47.0</ele><time>2026-04-25T17:51:52.999Z</time></trkpt><trkpt lat="45.96101237321652" lon="13.334805086851357"><ele>47.0</ele><time>2026-04-25T17:51:53.999Z</time></trkpt><trkpt lat="45.96081286059395" lon="13.334862678861862"><ele>47.0</ele><time>2026-04-25T17:51:54.999Z</time></trkpt><trkpt lat="45.96060936584369" lon="13.334918618274209"><ele>46.666666666666664</ele><time>2026-04-25T17:51:55.999Z</time></trkpt><trkpt lat="45.96040342556332" lon="13.334980881746098"><ele>46.333333333333336</ele><time>2026-04-25T17:51:56.999Z</time></trkpt><trkpt lat="45.96019927147346" lon="13.335045273417697"><ele>46.0</ele><time>2026-04-25T17:51:57.999Z</time></trkpt><trkpt lat="45.95999867366396" lon="13.33510647524575"><ele>46.0</ele><time>2026-04-25T17:51:58.999Z</time></trkpt><trkpt lat="45.9598018342863" lon="13.335164937947619"><ele>46.0</ele><time>2026-04-25T17:51:59.999Z</time></trkpt><trkpt lat="45.95960857064336" lon="13.335223368385055"><ele>46.0</ele><time>2026-04-25T17:52:00.999Z</time></trkpt><trkpt lat="45.959416784098146" lon="13.335279045436776"><ele>46.0</ele><time>2026-04-25T17:52:01.999Z</time></trkpt><trkpt lat="45.959225467628144" lon="13.335336411254918"><ele>46.0</ele><time>2026-04-25T17:52:02.999Z</time></trkpt><trkpt lat="45.95903640872847" lon="13.335390035544114"><ele>46.0</ele><time>2026-04-25T17:52:03.999Z</time></trkpt><trkpt lat="45.9588486194456" lon="13.335443141357553"><ele>45.66666666666667</ele><time>2026-04-25T17:52:04.999Z</time></trkpt><trkpt lat="45.958664517072485" lon="13.33549697941347"><ele>45.333333333333336</ele><time>2026-04-25T17:52:05.999Z</time></trkpt><trkpt lat="45.9584821494293" lon="13.33555946813708"><ele>45.0</ele><time>2026-04-25T17:52:06.999Z</time></trkpt><trkpt lat="45.95830375691239" lon="13.335636804767137"><ele>45.666666666666664</ele><time>2026-04-25T17:52:07.999Z</time></trkpt><trkpt lat="45.95813067368677" lon="13.335732053853459"><ele>46.33333333333333</ele><time>2026-04-25T17:52:08.999Z</time></trkpt><trkpt lat="45.95795653572221" lon="13.33583644488231"><ele>47.0</ele><time>2026-04-25T17:52:09.999Z</time></trkpt><trkpt lat="45.95777848822913" lon="13.33594292804076"><ele>47.0</ele><time>2026-04-25T17:52:10.999Z</time></trkpt><trkpt lat="45.95759523391961" lon="13.336046408777445"><ele>47.0</ele><time>2026-04-25T17:52:11.999Z</time></trkpt><trkpt lat="45.95741306234752" lon="13.336153665944579"><ele>47.0</ele><time>2026-04-25T17:52:12.999Z</time></trkpt><trkpt lat="45.957235024699955" lon="13.336267227151115"><ele>47.33333333333333</ele><time>2026-04-25T17:52:13.999Z</time></trkpt><trkpt lat="45.95706162067422" lon="13.336389821517871"><ele>47.666666666666664</ele><time>2026-04-25T17:52:14.999Z</time></trkpt><trkpt lat="45.95689423930106" lon="13.336517956831457"><ele>48.0</ele><time>2026-04-25T17:52:15.999Z</time></trkpt><trkpt lat="45.95672508949533" lon="13.336649470541154"><ele>47.666666666666664</ele><time>2026-04-25T17:52:16.999Z</time></trkpt><trkpt lat="45.95655166409951" lon="13.336779336633908"><ele>47.33333333333333</ele><time>2026-04-25T17:52:17.999Z</time></trkpt><trkpt lat="45.95637205288277" lon="13.336901390201897"><ele>47.0</ele><time>2026-04-25T17:52:18.999Z</time></trkpt><trkpt lat="45.95619042081157" lon="13.337023596294179"><ele>47.0</ele><time>2026-04-25T17:52:19.999Z</time></trkpt><trkpt lat="45.956007022770635" lon="13.337150764281121"><ele>47.0</ele><time>2026-04-25T17:52:20.999Z</time></trkpt><trkpt lat="45.95582261325377" lon="13.33727943879001"><ele>47.0</ele><time>2026-04-25T17:52:21.999Z</time></trkpt><trkpt lat="45.955635003441685" lon="13.337411551612378"><ele>47.0</ele><time>2026-04-25T17:52:22.999Z</time></trkpt><trkpt lat="45.95544854879397" lon="13.337540360303153"><ele>47.0</ele><time>2026-04-25T17:52:23.999Z</time></trkpt><trkpt lat="45.95526354918071" lon="13.337668579563221"><ele>47.0</ele><time>2026-04-25T17:52:24.999Z</time></trkpt><trkpt lat="45.95508222273974" lon="13.337794100979664"><ele>46.666666666666664</ele><time>2026-04-25T17:52:25.999Z</time></trkpt><trkpt lat="45.95490374968456" lon="13.337920510763885"><ele>46.333333333333336</ele><time>2026-04-25T17:52:26.999Z</time></trkpt><trkpt lat="45.9547257819467" lon="13.33804384268721"><ele>46.0</ele><time>2026-04-25T17:52:27.999Z</time></trkpt><trkpt lat="45.95454751657044" lon="13.338164146494657"><ele>45.66666666666667</ele><time>2026-04-25T17:52:28.999Z</time></trkpt><trkpt lat="45.95437112540797" lon="13.33828574445855"><ele>45.333333333333336</ele><time>2026-04-25T17:52:29.999Z</time></trkpt><trkpt lat="45.95419831685099" lon="13.338407296457953"><ele>45.0</ele><time>2026-04-25T17:52:30.999Z</time></trkpt><trkpt lat="45.95402672797052" lon="13.338527206849335"><ele>45.666666666666664</ele><time>2026-04-25T17:52:31.999Z</time></trkpt><trkpt lat="45.95385549751326" lon="13.338645805289293"><ele>46.33333333333333</ele><time>2026-04-25T17:52:32.999Z</time></trkpt><trkpt lat="45.95368556596128" lon="13.33875996424621"><ele>47.0</ele><time>2026-04-25T17:52:33.999Z</time></trkpt><trkpt lat="45.95351812172427" lon="13.338872861980564"><ele>47.0</ele><time>2026-04-25T17:52:34.999Z</time></trkpt><trkpt lat="45.9533554717657" lon="13.338984749419712"><ele>47.0</ele><time>2026-04-25T17:52:35.999Z</time></trkpt><trkpt lat="45.9531938351068" lon="13.33909569682284"><ele>47.0</ele><time>2026-04-25T17:52:36.999Z</time></trkpt><trkpt lat="45.95303144898287" lon="13.339209000248772"><ele>47.0</ele><time>2026-04-25T17:52:37.999Z</time></trkpt><trkpt lat="45.95286854548284" lon="13.339324014870826"><ele>47.0</ele><time>2026-04-25T17:52:38.999Z</time></trkpt><trkpt lat="45.95270126513538" lon="13.339440599268853"><ele>47.0</ele><time>2026-04-25T17:52:39.999Z</time></trkpt><trkpt lat="45.95252970648114" lon="13.33956170800167"><ele>47.33333333333333</ele><time>2026-04-25T17:52:40.999Z</time></trkpt><trkpt lat="45.95235564137461" lon="13.339684133977165"><ele>47.666666666666664</ele><time>2026-04-25T17:52:41.999Z</time></trkpt><trkpt lat="45.95217857158086" lon="13.339808619518761"><ele>48.0</ele><time>2026-04-25T17:52:42.999Z</time></trkpt><trkpt lat="45.95200231569843" lon="13.339929527703744"><ele>47.333333333333336</ele><time>2026-04-25T17:52:43.999Z</time></trkpt><trkpt lat="45.951825521487564" lon="13.34005287116448"><ele>46.66666666666667</ele><time>2026-04-25T17:52:44.999Z</time></trkpt><trkpt lat="45.951647086052745" lon="13.340176771697433"><ele>46.0</ele><time>2026-04-25T17:52:45.999Z</time></trkpt><trkpt lat="45.95146893940117" lon="13.340298572708589"><ele>46.0</ele><time>2026-04-25T17:52:46.999Z</time></trkpt><trkpt lat="45.951296895632524" lon="13.340427859928285"><ele>46.0</ele><time>2026-04-25T17:52:47.999Z</time></trkpt><trkpt lat="45.95113451034948" lon="13.34056150649505"><ele>46.0</ele><time>2026-04-25T17:52:48.999Z</time></trkpt><trkpt lat="45.950975877211384" lon="13.340697665068394"><ele>46.0</ele><time>2026-04-25T17:52:49.999Z</time></trkpt><trkpt lat="45.95082299920284" lon="13.340839247796826"><ele>46.0</ele><time>2026-04-25T17:52:50.999Z</time></trkpt><trkpt lat="45.950668838568525" lon="13.340980551702566"><ele>46.0</ele><time>2026-04-25T17:52:51.999Z</time></trkpt><trkpt lat="45.95051766943075" lon="13.341124008049233"><ele>46.0</ele><time>2026-04-25T17:52:52.999Z</time></trkpt><trkpt lat="45.9503883626916" lon="13.341271116022444"><ele>46.0</ele><time>2026-04-25T17:52:53.999Z</time></trkpt><trkpt lat="45.95026066596724" lon="13.341404283521385"><ele>46.0</ele><time>2026-04-25T17:52:54.999Z</time></trkpt><trkpt lat="45.95014038456496" lon="13.341532299072636"><ele>45.75</ele><time>2026-04-25T17:52:55.999Z</time></trkpt><trkpt lat="45.95001685119446" lon="13.341663238621104"><ele>45.5</ele><time>2026-04-25T17:52:56.999Z</time></trkpt><trkpt lat="45.94990698836107" lon="13.341780614680022"><ele>45.25</ele><time>2026-04-25T17:52:57.999Z</time></trkpt><trkpt lat="45.949794517057924" lon="13.341899326677437"><ele>45.0</ele><time>2026-04-25T17:52:58.999Z</time></trkpt><trkpt lat="45.94967532281302" lon="13.342028781649619"><ele>45.0</ele><time>2026-04-25T17:52:59.999Z</time></trkpt><trkpt lat="45.94954333377128" lon="13.342188913703778"><ele>45.0</ele><time>2026-04-25T17:53:00.999Z</time></trkpt><trkpt lat="45.94938846105745" lon="13.342397807968807"><ele>45.0</ele><time>2026-04-25T17:53:01.999Z</time></trkpt><trkpt lat="45.949211298317294" lon="13.34266390602902"><ele>44.0</ele><time>2026-04-25T17:53:02.999Z</time></trkpt><trkpt lat="45.94903241543474" lon="13.342982561628022"><ele>43.0</ele><time>2026-04-25T17:53:03.999Z</time></trkpt><trkpt lat="45.94885250823324" lon="13.34332818742164"><ele>43.0</ele><time>2026-04-25T17:53:04.999Z</time></trkpt><trkpt lat="45.948678521458326" lon="13.34366586045593"><ele>43.0</ele><time>2026-04-25T17:53:06Z</time></trkpt><trkpt lat="45.948499312029526" lon="13.344005792002099"><ele>43.5</ele><time>2026-04-25T17:53:07Z</time></trkpt><trkpt lat="45.94831992778604" lon="13.344346364767748"><ele>44.0</ele><time>2026-04-25T17:53:08Z</time></trkpt><trkpt lat="45.948147591493004" lon="13.344678623969907"><ele>43.0</ele><time>2026-04-25T17:53:09Z</time></trkpt><trkpt lat="45.94798386212394" lon="13.345000370932187"><ele>42.0</ele><time>2026-04-25T17:53:10Z</time></trkpt><trkpt lat="45.94782819608696" lon="13.345305474708061"><ele>41.5</ele><time>2026-04-25T17:53:11Z</time></trkpt><trkpt lat="45.947672559244054" lon="13.345597210885588"><ele>41.0</ele><time>2026-04-25T17:53:12Z</time></trkpt><trkpt lat="45.94750807009744" lon="13.345869861788278"><ele>41.0</ele><time>2026-04-25T17:53:13Z</time></trkpt><trkpt lat="45.9473152320964" lon="13.346111587779976"><ele>41.0</ele><time>2026-04-25T17:53:14Z</time></trkpt><trkpt lat="45.94709166374872" lon="13.346316891063305"><ele>41.5</ele><time>2026-04-25T17:53:15Z</time></trkpt><trkpt lat="45.946836204382144" lon="13.346477943259782"><ele>42.0</ele><time>2026-04-25T17:53:16Z</time></trkpt><trkpt lat="45.94655638510242" lon="13.346612272841666"><ele>42.0</ele><time>2026-04-25T17:53:17Z</time></trkpt><trkpt lat="45.946270666215334" lon="13.346740660212026"><ele>42.0</ele><time>2026-04-25T17:53:18Z</time></trkpt><trkpt lat="45.945987669960004" lon="13.346877935984155"><ele>41.5</ele><time>2026-04-25T17:53:19Z</time></trkpt><trkpt lat="45.94570831157322" lon="13.347017827118771"><ele>41.0</ele><time>2026-04-25T17:53:20Z</time></trkpt><trkpt lat="45.945431920972005" lon="13.347152484249822"><ele>41.5</ele><time>2026-04-25T17:53:21Z</time></trkpt><trkpt lat="45.945160633218386" lon="13.34728251657737"><ele>42.0</ele><time>2026-04-25T17:53:22Z</time></trkpt><trkpt lat="45.94489517720146" lon="13.347411757309084"><ele>42.0</ele><time>2026-04-25T17:53:23Z</time></trkpt><trkpt lat="45.944634627112954" lon="13.347540124070939"><ele>42.0</ele><time>2026-04-25T17:53:24Z</time></trkpt><trkpt lat="45.944383712818215" lon="13.347664655067863"><ele>42.0</ele><time>2026-04-25T17:53:25Z</time></trkpt><trkpt lat="45.94413976736308" lon="13.347785130021204"><ele>42.0</ele><time>2026-04-25T17:53:26Z</time></trkpt><trkpt lat="45.943904441555325" lon="13.347901903581223"><ele>42.0</ele><time>2026-04-25T17:53:27Z</time></trkpt><trkpt lat="45.94367873441288" lon="13.348011739000631"><ele>42.0</ele><time>2026-04-25T17:53:28Z</time></trkpt><trkpt lat="45.94346160786371" lon="13.34811619285608"><ele>41.666666666666664</ele><time>2026-04-25T17:53:29Z</time></trkpt><trkpt lat="45.94325958877553" lon="13.34821582902166"><ele>41.33333333333333</ele><time>2026-04-25T17:53:30Z</time></trkpt><trkpt lat="45.94306937270557" lon="13.348311725786873"><ele>41.0</ele><time>2026-04-25T17:53:31Z</time></trkpt><trkpt lat="45.94289146955481" lon="13.34839885021804"><ele>41.0</ele><time>2026-04-25T17:53:32Z</time></trkpt><trkpt lat="45.94272651721205" lon="13.348474770069632"><ele>41.0</ele><time>2026-04-25T17:53:33Z</time></trkpt><trkpt lat="45.94256672153457" lon="13.348553769467161"><ele>41.0</ele><time>2026-04-25T17:53:34Z</time></trkpt><trkpt lat="45.94240993714805" lon="13.348647922539746"><ele>41.0</ele><time>2026-04-25T17:53:35Z</time></trkpt><trkpt lat="45.94226352866517" lon="13.348770033192967"><ele>41.0</ele><time>2026-04-25T17:53:35.999Z</time></trkpt><trkpt lat="45.94212857068145" lon="13.348918643707572"><ele>41.0</ele><time>2026-04-25T17:53:36.999Z</time></trkpt><trkpt lat="45.94201027186488" lon="13.349080378903315"><ele>40.33333333333333</ele><time>2026-04-25T17:53:37.999Z</time></trkpt><trkpt lat="45.94190685848111" lon="13.34925097667617"><ele>39.666666666666664</ele><time>2026-04-25T17:53:38.999Z</time></trkpt><trkpt lat="45.94182064244643" lon="13.349443640389826"><ele>39.0</ele><time>2026-04-25T17:53:39.999Z</time></trkpt><trkpt lat="45.94175288278829" lon="13.349647787344432"><ele>39.0</ele><time>2026-04-25T17:53:40.999Z</time></trkpt><trkpt lat="45.94169667560498" lon="13.349882341359578"><ele>39.0</ele><time>2026-04-25T17:53:41.999Z</time></trkpt><trkpt lat="45.94163710185892" lon="13.350157281045725"><ele>39.0</ele><time>2026-04-25T17:53:42.999Z</time></trkpt><trkpt lat="45.94157711003117" lon="13.35050578936433"><ele>39.5</ele><time>2026-04-25T17:53:43.999Z</time></trkpt><trkpt lat="45.94151084394383" lon="13.350901447783352"><ele>40.0</ele><time>2026-04-25T17:53:44.999Z</time></trkpt><trkpt lat="45.94145493310981" lon="13.351327410757655"><ele>40.5</ele><time>2026-04-25T17:53:45.999Z</time></trkpt><trkpt lat="45.94137864024764" lon="13.351764141252582"><ele>41.0</ele><time>2026-04-25T17:53:46.999Z</time></trkpt><trkpt lat="45.94130405669196" lon="13.352197920490697"><ele>40.5</ele><time>2026-04-25T17:53:47.999Z</time></trkpt><trkpt lat="45.941227900113034" lon="13.352628835658754"><ele>40.0</ele><time>2026-04-25T17:53:48.999Z</time></trkpt><trkpt lat="45.94115767286262" lon="13.353045503880457"><ele>39.5</ele><time>2026-04-25T17:53:49.999Z</time></trkpt><trkpt lat="45.94108538209155" lon="13.353438379575307"><ele>39.0</ele><time>2026-04-25T17:53:50.999Z</time></trkpt><trkpt lat="45.940997457289974" lon="13.353817567577105"><ele>39.0</ele><time>2026-04-25T17:53:51.999Z</time></trkpt><trkpt lat="45.940888655254575" lon="13.354183070896154"><ele>39.0</ele><time>2026-04-25T17:53:52.999Z</time></trkpt><trkpt lat="45.94075302167283" lon="13.354535073958484"><ele>38.5</ele><time>2026-04-25T17:53:53.999Z</time></trkpt><trkpt lat="45.9406044721702" lon="13.354887601462194"><ele>38.0</ele><time>2026-04-25T17:53:54.999Z</time></trkpt><trkpt lat="45.94045956190925" lon="13.355242591701462"><ele>38.5</ele><time>2026-04-25T17:53:55.999Z</time></trkpt><trkpt lat="45.940325629321606" lon="13.355565226346954"><ele>39.0</ele><time>2026-04-25T17:53:56.999Z</time></trkpt><trkpt lat="45.94018009359688" lon="13.355850559550278"><ele>39.0</ele><time>2026-04-25T17:53:57.999Z</time></trkpt><trkpt lat="45.94001400866005" lon="13.356110078030536"><ele>39.0</ele><time>2026-04-25T17:53:58.999Z</time></trkpt><trkpt lat="45.93981982775305" lon="13.356332796770056"><ele>39.0</ele><time>2026-04-25T17:53:59.999Z</time></trkpt><trkpt lat="45.93961104738881" lon="13.356534171386604"><ele>39.0</ele><time>2026-04-25T17:54:00.999Z</time></trkpt><trkpt lat="45.939412341958366" lon="13.356738750330091"><ele>39.0</ele><time>2026-04-25T17:54:01.999Z</time></trkpt><trkpt lat="45.93922634547579" lon="13.356970804394962"><ele>39.0</ele><time>2026-04-25T17:54:02.999Z</time></trkpt><trkpt lat="45.93905435662685" lon="13.357235513065598"><ele>38.5</ele><time>2026-04-25T17:54:03.999Z</time></trkpt><trkpt lat="45.93890136870374" lon="13.357528426976886"><ele>38.0</ele><time>2026-04-25T17:54:04.999Z</time></trkpt><trkpt lat="45.938771743781665" lon="13.357851523682358"><ele>38.5</ele><time>2026-04-25T17:54:05.999Z</time></trkpt><trkpt lat="45.93865740955294" lon="13.35820463356749"><ele>39.0</ele><time>2026-04-25T17:54:06.999Z</time></trkpt><trkpt lat="45.938539368730964" lon="13.35857407264574"><ele>39.0</ele><time>2026-04-25T17:54:07.999Z</time></trkpt><trkpt lat="45.93841582771726" lon="13.35895013440476"><ele>39.0</ele><time>2026-04-25T17:54:08.999Z</time></trkpt><trkpt lat="45.93828619674197" lon="13.359330867608216"><ele>39.0</ele><time>2026-04-25T17:54:09.999Z</time></trkpt><trkpt lat="45.938156370663535" lon="13.359714653430961"><ele>39.0</ele><time>2026-04-25T17:54:10.999Z</time></trkpt><trkpt lat="45.938032993642" lon="13.36009643449768"><ele>39.0</ele><time>2026-04-25T17:54:11.999Z</time></trkpt><trkpt lat="45.93791911559232" lon="13.360473760558465"><ele>39.0</ele><time>2026-04-25T17:54:12.999Z</time></trkpt><trkpt lat="45.93782030447099" lon="13.360852775785098"><ele>38.5</ele><time>2026-04-25T17:54:13.999Z</time></trkpt><trkpt lat="45.9377434905158" lon="13.36124274242278"><ele>38.0</ele><time>2026-04-25T17:54:14.999Z</time></trkpt><trkpt lat="45.93767289274465" lon="13.361635862870662"><ele>38.0</ele><time>2026-04-25T17:54:15.999Z</time></trkpt><trkpt lat="45.93759777949093" lon="13.362027149560127"><ele>38.0</ele><time>2026-04-25T17:54:16.999Z</time></trkpt><trkpt lat="45.9375276090807" lon="13.362403840582148"><ele>38.0</ele><time>2026-04-25T17:54:17.999Z</time></trkpt><trkpt lat="45.93746400226883" lon="13.3627470032886"><ele>38.0</ele><time>2026-04-25T17:54:18.999Z</time></trkpt><trkpt lat="45.93740094081193" lon="13.363068633518209"><ele>38.0</ele><time>2026-04-25T17:54:19.999Z</time></trkpt><trkpt lat="45.93734434691304" lon="13.363368399317316"><ele>38.0</ele><time>2026-04-25T17:54:20.999Z</time></trkpt><trkpt lat="45.93729243045185" lon="13.363642806802275"><ele>38.0</ele><time>2026-04-25T17:54:21.999Z</time></trkpt><trkpt lat="45.93723402850665" lon="13.363891982404914"><ele>39.0</ele><time>2026-04-25T17:54:22.999Z</time></trkpt><trkpt lat="45.93714725104017" lon="13.364118740442219"><ele>40.0</ele><time>2026-04-25T17:54:23.999Z</time></trkpt><trkpt lat="45.93702344246417" lon="13.36433448238412"><ele>41.0</ele><time>2026-04-25T17:54:24.999Z</time></trkpt><trkpt lat="45.93687184584248" lon="13.364533193891333"><ele>40.0</ele><time>2026-04-25T17:54:25.999Z</time></trkpt><trkpt lat="45.93669284728473" lon="13.364690063350306"><ele>39.0</ele><time>2026-04-25T17:54:26.999Z</time></trkpt><trkpt lat="45.936484045880995" lon="13.364788394145355"><ele>38.0</ele><time>2026-04-25T17:54:27.999Z</time></trkpt><trkpt lat="45.93624902370036" lon="13.364838310137298"><ele>38.0</ele><time>2026-04-25T17:54:28.999Z</time></trkpt><trkpt lat="45.93598698096656" lon="13.36486585872675"><ele>38.0</ele><time>2026-04-25T17:54:29.999Z</time></trkpt><trkpt lat="45.935708211639074" lon="13.364914664720315"><ele>37.0</ele><time>2026-04-25T17:54:30.999Z</time></trkpt><trkpt lat="45.93541752330524" lon="13.364967702270699"><ele>36.0</ele><time>2026-04-25T17:54:31.999Z</time></trkpt><trkpt lat="45.93511837463074" lon="13.365022508311943"><ele>36.5</ele><time>2026-04-25T17:54:32.999Z</time></trkpt><trkpt lat="45.934815979474976" lon="13.365077758864699"><ele>37.0</ele><time>2026-04-25T17:54:33.999Z</time></trkpt><trkpt lat="45.9345108511143" lon="13.365133356421424"><ele>37.0</ele><time>2026-04-25T17:54:34.999Z</time></trkpt><trkpt lat="45.93420379263676" lon="13.365187610449734"><ele>37.0</ele><time>2026-04-25T17:54:35.999Z</time></trkpt><trkpt lat="45.93389646355215" lon="13.36524112249335"><ele>37.0</ele><time>2026-04-25T17:54:36.999Z</time></trkpt><trkpt lat="45.9335883780018" lon="13.365294179074159"><ele>37.0</ele><time>2026-04-25T17:54:37.999Z</time></trkpt><trkpt lat="45.933282616079225" lon="13.365347793593743"><ele>36.0</ele><time>2026-04-25T17:54:38.999Z</time></trkpt><trkpt lat="45.9329791193783" lon="13.365400616054261"><ele>35.0</ele><time>2026-04-25T17:54:39.999Z</time></trkpt><trkpt lat="45.93268071792165" lon="13.36545357496445"><ele>35.0</ele><time>2026-04-25T17:54:40.999Z</time></trkpt><trkpt lat="45.932397999947035" lon="13.365508660348855"><ele>35.0</ele><time>2026-04-25T17:54:41.999Z</time></trkpt><trkpt lat="45.93212345155633" lon="13.365585667295914"><ele>35.0</ele><time>2026-04-25T17:54:42.999Z</time></trkpt><trkpt lat="45.931848155969604" lon="13.365692898759479"><ele>35.0</ele><time>2026-04-25T17:54:43.999Z</time></trkpt><trkpt lat="45.93157216351182" lon="13.36582074009743"><ele>35.0</ele><time>2026-04-25T17:54:44.999Z</time></trkpt><trkpt lat="45.93129599991889" lon="13.36594848257663"><ele>35.0</ele><time>2026-04-25T17:54:45.999Z</time></trkpt><trkpt lat="45.93101787596221" lon="13.36607064101121"><ele>35.0</ele><time>2026-04-25T17:54:46.999Z</time></trkpt><trkpt lat="45.93073920967259" lon="13.366191457526241"><ele>35.0</ele><time>2026-04-25T17:54:47.999Z</time></trkpt><trkpt lat="45.93046251109981" lon="13.36631383917383"><ele>35.0</ele><time>2026-04-25T17:54:48.999Z</time></trkpt><trkpt lat="45.93018747950618" lon="13.366436020539986"><ele>35.0</ele><time>2026-04-25T17:54:49.999Z</time></trkpt><trkpt lat="45.929912786965076" lon="13.36655593535908"><ele>35.0</ele><time>2026-04-25T17:54:50.999Z</time></trkpt><trkpt lat="45.929639386776095" lon="13.366674324464903"><ele>35.0</ele><time>2026-04-25T17:54:51.999Z</time></trkpt><trkpt lat="45.92936862675458" lon="13.366791184315998"><ele>34.5</ele><time>2026-04-25T17:54:52.999Z</time></trkpt><trkpt lat="45.929101604992056" lon="13.3669087395044"><ele>34.0</ele><time>2026-04-25T17:54:53.999Z</time></trkpt><trkpt lat="45.92883583190318" lon="13.36702613055148"><ele>34.0</ele><time>2026-04-25T17:54:54.999Z</time></trkpt><trkpt lat="45.928573691563734" lon="13.367143594068628"><ele>34.0</ele><time>2026-04-25T17:54:55.999Z</time></trkpt><trkpt lat="45.92831397387327" lon="13.36726447330652"><ele>34.0</ele><time>2026-04-25T17:54:56.999Z</time></trkpt><trkpt lat="45.928061649900435" lon="13.367408152990327"><ele>34.0</ele><time>2026-04-25T17:54:57.999Z</time></trkpt><trkpt lat="45.92782094570513" lon="13.36758037027009"><ele>34.0</ele><time>2026-04-25T17:54:58.999Z</time></trkpt><trkpt lat="45.9275868894346" lon="13.367772048040003"><ele>34.0</ele><time>2026-04-25T17:54:59.999Z</time></trkpt><trkpt lat="45.927358841489614" lon="13.367978477827407"><ele>34.0</ele><time>2026-04-25T17:55:00.999Z</time></trkpt><trkpt lat="45.92713656469576" lon="13.36819396365776"><ele>34.0</ele><time>2026-04-25T17:55:01.999Z</time></trkpt><trkpt lat="45.92691187765916" lon="13.368407424233451"><ele>34.5</ele><time>2026-04-25T17:55:02.999Z</time></trkpt><trkpt lat="45.92668459717343" lon="13.368617431301857"><ele>35.0</ele><time>2026-04-25T17:55:03.999Z</time></trkpt><trkpt lat="45.92645587641329" lon="13.368828630471715"><ele>34.5</ele><time>2026-04-25T17:55:04.999Z</time></trkpt><trkpt lat="45.926225530383" lon="13.369041383228856"><ele>34.0</ele><time>2026-04-25T17:55:05.999Z</time></trkpt><trkpt lat="45.92599128425429" lon="13.369251856432701"><ele>33.5</ele><time>2026-04-25T17:55:06.999Z</time></trkpt><trkpt lat="45.92575395229463" lon="13.369459954621485"><ele>33.0</ele><time>2026-04-25T17:55:07.999Z</time></trkpt><trkpt lat="45.92551762181979" lon="13.369666764915378"><ele>33.0</ele><time>2026-04-25T17:55:08.999Z</time></trkpt><trkpt lat="45.9252834187556" lon="13.369873193885349"><ele>33.0</ele><time>2026-04-25T17:55:09.999Z</time></trkpt><trkpt lat="45.925050796693604" lon="13.370078389425993"><ele>33.0</ele><time>2026-04-25T17:55:11Z</time></trkpt><trkpt lat="45.9248211126671" lon="13.370281382113182"><ele>33.0</ele><time>2026-04-25T17:55:12Z</time></trkpt><trkpt lat="45.92459192939602" lon="13.370484633736814"><ele>33.0</ele><time>2026-04-25T17:55:13Z</time></trkpt><trkpt lat="45.92436464975233" lon="13.370685299092703"><ele>33.0</ele><time>2026-04-25T17:55:14Z</time></trkpt><trkpt lat="45.92413784063685" lon="13.370884749893035"><ele>33.0</ele><time>2026-04-25T17:55:15Z</time></trkpt><trkpt lat="45.9239120053086" lon="13.371082186765715"><ele>33.0</ele><time>2026-04-25T17:55:16Z</time></trkpt><trkpt lat="45.92368939318004" lon="13.37128080806451"><ele>33.0</ele><time>2026-04-25T17:55:17Z</time></trkpt><trkpt lat="45.9234711903942" lon="13.371475673007193"><ele>33.0</ele><time>2026-04-25T17:55:18Z</time></trkpt><trkpt lat="45.92325760174396" lon="13.371661601140373"><ele>33.0</ele><time>2026-04-25T17:55:19Z</time></trkpt><trkpt lat="45.92305163153559" lon="13.37183888792175"><ele>33.0</ele><time>2026-04-25T17:55:20Z</time></trkpt><trkpt lat="45.92286209033955" lon="13.372000469026592"><ele>33.0</ele><time>2026-04-25T17:55:21Z</time></trkpt><trkpt lat="45.92268510222469" lon="13.372157637422793"><ele>33.0</ele><time>2026-04-25T17:55:22Z</time></trkpt><trkpt lat="45.92252157052211" lon="13.37230309733289"><ele>33.0</ele><time>2026-04-25T17:55:23Z</time></trkpt><trkpt lat="45.92236826786024" lon="13.372436446928782"><ele>33.333333333333336</ele><time>2026-04-25T17:55:24Z</time></trkpt><trkpt lat="45.92221890836531" lon="13.372565667929587"><ele>33.66666666666667</ele><time>2026-04-25T17:55:25Z</time></trkpt><trkpt lat="45.922085532342905" lon="13.372682438675575"><ele>34.0</ele><time>2026-04-25T17:55:26Z</time></trkpt><trkpt lat="45.9219641163888" lon="13.372788647250946"><ele>34.0</ele><time>2026-04-25T17:55:27Z</time></trkpt><trkpt lat="45.92185985288878" lon="13.372872544706231"><ele>34.0</ele><time>2026-04-25T17:55:28Z</time></trkpt><trkpt lat="45.92175879310465" lon="13.372932293324439"><ele>34.0</ele><time>2026-04-25T17:55:29Z</time></trkpt><trkpt lat="45.9216481987527" lon="13.37296411534826"><ele>34.0</ele><time>2026-04-25T17:55:30Z</time></trkpt><trkpt lat="45.92153976637897" lon="13.372976355388156"><ele>33.5</ele><time>2026-04-25T17:55:31Z</time></trkpt><trkpt lat="45.92144209868959" lon="13.3730326037429"><ele>33.0</ele><time>2026-04-25T17:55:32Z</time></trkpt><trkpt lat="45.92135121272742" lon="13.373148809098101"><ele>32.5</ele><time>2026-04-25T17:55:33Z</time></trkpt><trkpt lat="45.921260597584585" lon="13.373313392330742"><ele>32.0</ele><time>2026-04-25T17:55:34Z</time></trkpt><trkpt lat="45.92113825894139" lon="13.3734743232293"><ele>32.0</ele><time>2026-04-25T17:55:35Z</time></trkpt><trkpt lat="45.92100267392211" lon="13.373662219005665"><ele>32.0</ele><time>2026-04-25T17:55:36Z</time></trkpt><trkpt lat="45.92079002949334" lon="13.373793291541462"><ele>32.0</ele><time>2026-04-25T17:55:37Z</time></trkpt><trkpt lat="45.92056657951283" lon="13.373989453007676"><ele>32.0</ele><time>2026-04-25T17:55:38Z</time></trkpt><trkpt lat="45.920327939391186" lon="13.374221115172169"><ele>32.0</ele><time>2026-04-25T17:55:39Z</time></trkpt><trkpt lat="45.92006969654505" lon="13.374478675438649"><ele>31.5</ele><time>2026-04-25T17:55:39.999Z</time></trkpt><trkpt lat="45.91981591888274" lon="13.374741082051251"><ele>31.0</ele><time>2026-04-25T17:55:40.999Z</time></trkpt><trkpt lat="45.919574087704575" lon="13.374991369269917"><ele>31.0</ele><time>2026-04-25T17:55:41.999Z</time></trkpt><trkpt lat="45.91934615883332" lon="13.375223366261011"><ele>31.0</ele><time>2026-04-25T17:55:42.999Z</time></trkpt><trkpt lat="45.91912013954531" lon="13.375430660615457"><ele>31.5</ele><time>2026-04-25T17:55:43.999Z</time></trkpt><trkpt lat="45.918887757664585" lon="13.375607542942912"><ele>32.0</ele><time>2026-04-25T17:55:44.999Z</time></trkpt><trkpt lat="45.91864087246587" lon="13.375743132916579"><ele>32.0</ele><time>2026-04-25T17:55:45.999Z</time></trkpt><trkpt lat="45.91838612526192" lon="13.375833404613893"><ele>32.0</ele><time>2026-04-25T17:55:46.999Z</time></trkpt><trkpt lat="45.91812156535787" lon="13.37588306258085"><ele>32.0</ele><time>2026-04-25T17:55:47.999Z</time></trkpt><trkpt lat="45.91785773307141" lon="13.375925671749592"><ele>32.0</ele><time>2026-04-25T17:55:48.999Z</time></trkpt><trkpt lat="45.91760316249555" lon="13.37597214351637"><ele>31.0</ele><time>2026-04-25T17:55:49.999Z</time></trkpt><trkpt lat="45.91735645869657" lon="13.376024188855832"><ele>30.0</ele><time>2026-04-25T17:55:50.999Z</time></trkpt><trkpt lat="45.91711395125924" lon="13.37607125230845"><ele>30.0</ele><time>2026-04-25T17:55:51.999Z</time></trkpt><trkpt lat="45.916877583498426" lon="13.376110493358052"><ele>30.0</ele><time>2026-04-25T17:55:52.999Z</time></trkpt><trkpt lat="45.91664302401888" lon="13.376135360182746"><ele>31.5</ele><time>2026-04-25T17:55:53.999Z</time></trkpt><trkpt lat="45.916411143036854" lon="13.376145852929035"><ele>33.0</ele><time>2026-04-25T17:55:54.999Z</time></trkpt><trkpt lat="45.91618388657893" lon="13.37614985554466"><ele>33.0</ele><time>2026-04-25T17:55:55.999Z</time></trkpt><trkpt lat="45.91595715451121" lon="13.376156843919716"><ele>33.0</ele><time>2026-04-25T17:55:56.999Z</time></trkpt><trkpt lat="45.91573440349085" lon="13.3761712228216"><ele>33.333333333333336</ele><time>2026-04-25T17:55:57.999Z</time></trkpt><trkpt lat="45.91551807235017" lon="13.376195608002304"><ele>33.66666666666667</ele><time>2026-04-25T17:55:58.999Z</time></trkpt><trkpt lat="45.91530600182291" lon="13.376230968415829"><ele>34.0</ele><time>2026-04-25T17:55:59.999Z</time></trkpt><trkpt lat="45.915098984293756" lon="13.376267635216175"><ele>33.66666666666667</ele><time>2026-04-25T17:56:00.999Z</time></trkpt><trkpt lat="45.914896707939334" lon="13.376299071279456"><ele>33.333333333333336</ele><time>2026-04-25T17:56:01.999Z</time></trkpt><trkpt lat="45.91470304627653" lon="13.376329479412455"><ele>33.0</ele><time>2026-04-25T17:56:02.999Z</time></trkpt><trkpt lat="45.91451922749108" lon="13.376361338206355"><ele>33.0</ele><time>2026-04-25T17:56:03.999Z</time></trkpt><trkpt lat="45.91434792416068" lon="13.37639669318252"><ele>33.0</ele><time>2026-04-25T17:56:04.999Z</time></trkpt><trkpt lat="45.914188972685146" lon="13.37644107288002"><ele>33.0</ele><time>2026-04-25T17:56:05.999Z</time></trkpt><trkpt lat="45.914042553734085" lon="13.376492716077315"><ele>33.0</ele><time>2026-04-25T17:56:06.999Z</time></trkpt><trkpt lat="45.91390243274493" lon="13.37655641479079"><ele>33.0</ele><time>2026-04-25T17:56:07.999Z</time></trkpt><trkpt lat="45.913763619158054" lon="13.376614279760986"><ele>33.0</ele><time>2026-04-25T17:56:08.999Z</time></trkpt><trkpt lat="45.913623384908476" lon="13.376669816716849"><ele>33.0</ele><time>2026-04-25T17:56:09.999Z</time></trkpt><trkpt lat="45.91348419146639" lon="13.376715523425075"><ele>33.25</ele><time>2026-04-25T17:56:10.999Z</time></trkpt><trkpt lat="45.91334879551019" lon="13.376758740148405"><ele>33.5</ele><time>2026-04-25T17:56:11.999Z</time></trkpt><trkpt lat="45.91321489426416" lon="13.376811709767018"><ele>33.75</ele><time>2026-04-25T17:56:12.999Z</time></trkpt><trkpt lat="45.91308355935767" lon="13.376878043018253"><ele>34.0</ele><time>2026-04-25T17:56:13.999Z</time></trkpt><trkpt lat="45.912951413657346" lon="13.37697326897532"><ele>34.0</ele><time>2026-04-25T17:56:14.999Z</time></trkpt><trkpt lat="45.9128198465919" lon="13.377101885806669"><ele>34.0</ele><time>2026-04-25T17:56:15.999Z</time></trkpt><trkpt lat="45.91268550131794" lon="13.37724110324697"><ele>34.0</ele><time>2026-04-25T17:56:16.999Z</time></trkpt><trkpt lat="45.912549099053585" lon="13.377382618056483"><ele>33.333333333333336</ele><time>2026-04-25T17:56:17.999Z</time></trkpt><trkpt lat="45.91241316710807" lon="13.377523492471203"><ele>32.666666666666664</ele><time>2026-04-25T17:56:18.999Z</time></trkpt><trkpt lat="45.912269905465934" lon="13.377669593713225"><ele>32.0</ele><time>2026-04-25T17:56:19.999Z</time></trkpt><trkpt lat="45.91212239798457" lon="13.377822838186612"><ele>32.0</ele><time>2026-04-25T17:56:20.999Z</time></trkpt><trkpt lat="45.91197215203393" lon="13.377979865897348"><ele>32.0</ele><time>2026-04-25T17:56:21.999Z</time></trkpt><trkpt lat="45.911820886733885" lon="13.378135318579796"><ele>32.0</ele><time>2026-04-25T17:56:22.999Z</time></trkpt><trkpt lat="45.91166387914639" lon="13.37827691173925"><ele>31.666666666666664</ele><time>2026-04-25T17:56:23.999Z</time></trkpt><trkpt lat="45.91150162274434" lon="13.378402953066722"><ele>31.333333333333336</ele><time>2026-04-25T17:56:24.999Z</time></trkpt><trkpt lat="45.91132489171646" lon="13.37850155063443"><ele>31.0</ele><time>2026-04-25T17:56:25.999Z</time></trkpt><trkpt lat="45.91114017826501" lon="13.378576593569282"><ele>31.0</ele><time>2026-04-25T17:56:26.999Z</time></trkpt><trkpt lat="45.91094540945129" lon="13.378634930504944"><ele>31.0</ele><time>2026-04-25T17:56:27.999Z</time></trkpt><trkpt lat="45.910746548199" lon="13.378669151471282"><ele>31.0</ele><time>2026-04-25T17:56:28.999Z</time></trkpt><trkpt lat="45.91054557682316" lon="13.378674274198778"><ele>30.666666666666668</ele><time>2026-04-25T17:56:29.999Z</time></trkpt><trkpt lat="45.91034416274286" lon="13.378653278187429"><ele>30.333333333333336</ele><time>2026-04-25T17:56:30.999Z</time></trkpt><trkpt lat="45.91014018793078" lon="13.378630320015054"><ele>30.0</ele><time>2026-04-25T17:56:31.999Z</time></trkpt><trkpt lat="45.909936869174366" lon="13.378620751118184"><ele>29.333333333333336</ele><time>2026-04-25T17:56:32.999Z</time></trkpt><trkpt lat="45.90973593374684" lon="13.378616394698037"><ele>28.666666666666668</ele><time>2026-04-25T17:56:33.999Z</time></trkpt><trkpt lat="45.90953232999315" lon="13.37861943628614"><ele>28.0</ele><time>2026-04-25T17:56:34.999Z</time></trkpt><trkpt lat="45.90932684513333" lon="13.378630768137132"><ele>28.333333333333336</ele><time>2026-04-25T17:56:35.999Z</time></trkpt><trkpt lat="45.909124461186124" lon="13.37864579334288"><ele>28.666666666666664</ele><time>2026-04-25T17:56:36.999Z</time></trkpt><trkpt lat="45.908922205979664" lon="13.378671459329071"><ele>29.0</ele><time>2026-04-25T17:56:37.999Z</time></trkpt><trkpt lat="45.90871901033188" lon="13.378704367274395"><ele>29.0</ele><time>2026-04-25T17:56:38.999Z</time></trkpt><trkpt lat="45.90851458469002" lon="13.378741713903745"><ele>29.0</ele><time>2026-04-25T17:56:39.999Z</time></trkpt><trkpt lat="45.90830477389705" lon="13.378788725421515"><ele>29.0</ele><time>2026-04-25T17:56:40.999Z</time></trkpt><trkpt lat="45.90806589431879" lon="13.378847157260024"><ele>29.0</ele><time>2026-04-25T17:56:41.999Z</time></trkpt><trkpt lat="45.907781906335074" lon="13.378939606182168"><ele>29.0</ele><time>2026-04-25T17:56:42.999Z</time></trkpt><trkpt lat="45.907467504991864" lon="13.379067229032376"><ele>29.0</ele><time>2026-04-25T17:56:43.999Z</time></trkpt><trkpt lat="45.90712777560312" lon="13.379210187401416"><ele>29.0</ele><time>2026-04-25T17:56:44.999Z</time></trkpt><trkpt lat="45.90677190885363" lon="13.379312285249908"><ele>29.0</ele><time>2026-04-25T17:56:45.999Z</time></trkpt><trkpt lat="45.90641384802644" lon="13.379377073749216"><ele>29.0</ele><time>2026-04-25T17:56:46.999Z</time></trkpt><trkpt lat="45.906057352265556" lon="13.379407918667413"><ele>28.5</ele><time>2026-04-25T17:56:47.999Z</time></trkpt><trkpt lat="45.905706339257044" lon="13.379448507256138"><ele>28.0</ele><time>2026-04-25T17:56:48.999Z</time></trkpt><trkpt lat="45.90538566179222" lon="13.379491745846584"><ele>28.0</ele><time>2026-04-25T17:56:49.999Z</time></trkpt><trkpt lat="45.90510507876962" lon="13.379528198450366"><ele>28.0</ele><time>2026-04-25T17:56:50.999Z</time></trkpt><trkpt lat="45.904830109895414" lon="13.37955863112757"><ele>27.0</ele><time>2026-04-25T17:56:51.999Z</time></trkpt><trkpt lat="45.90455375122726" lon="13.379591906754344"><ele>26.0</ele><time>2026-04-25T17:56:52.999Z</time></trkpt><trkpt lat="45.90427386689144" lon="13.379641237816546"><ele>26.5</ele><time>2026-04-25T17:56:53.999Z</time></trkpt><trkpt lat="45.90399253996323" lon="13.379707656264392"><ele>27.0</ele><time>2026-04-25T17:56:54.999Z</time></trkpt><trkpt lat="45.903707831921174" lon="13.379776389974204"><ele>27.0</ele><time>2026-04-25T17:56:55.999Z</time></trkpt><trkpt lat="45.90341856174121" lon="13.37984358091389"><ele>27.0</ele><time>2026-04-25T17:56:56.999Z</time></trkpt><trkpt lat="45.903124753742695" lon="13.379909419687872"><ele>27.0</ele><time>2026-04-25T17:56:57.999Z</time></trkpt><trkpt lat="45.90282833684534" lon="13.379971115298563"><ele>27.0</ele><time>2026-04-25T17:56:58.999Z</time></trkpt><trkpt lat="45.90253207611903" lon="13.380035816545437"><ele>26.5</ele><time>2026-04-25T17:56:59.999Z</time></trkpt><trkpt lat="45.90223992087422" lon="13.380104796101316"><ele>26.0</ele><time>2026-04-25T17:57:00.999Z</time></trkpt><trkpt lat="45.90195707848982" lon="13.380165936677944"><ele>25.5</ele><time>2026-04-25T17:57:01.999Z</time></trkpt><trkpt lat="45.901682149737084" lon="13.38021448511689"><ele>25.0</ele><time>2026-04-25T17:57:02.999Z</time></trkpt><trkpt lat="45.90140497325111" lon="13.380255090695371"><ele>25.0</ele><time>2026-04-25T17:57:03.999Z</time></trkpt><trkpt lat="45.901127929545396" lon="13.380294429866087"><ele>25.0</ele><time>2026-04-25T17:57:04.999Z</time></trkpt><trkpt lat="45.90086487289069" lon="13.380331215135623"><ele>25.5</ele><time>2026-04-25T17:57:05.999Z</time></trkpt><trkpt lat="45.900609753830416" lon="13.380367408333028"><ele>26.0</ele><time>2026-04-25T17:57:06.999Z</time></trkpt><trkpt lat="45.90035963967781" lon="13.38040280605026"><ele>26.0</ele><time>2026-04-25T17:57:07.999Z</time></trkpt><trkpt lat="45.90011452306756" lon="13.380437426548985"><ele>26.0</ele><time>2026-04-25T17:57:08.999Z</time></trkpt><trkpt lat="45.899872403613536" lon="13.380473105302164"><ele>26.0</ele><time>2026-04-25T17:57:09.999Z</time></trkpt><trkpt lat="45.89963471838188" lon="13.380515738258934"><ele>26.0</ele><time>2026-04-25T17:57:10.999Z</time></trkpt><trkpt lat="45.899402550964666" lon="13.380572669120992"><ele>25.333333333333332</ele><time>2026-04-25T17:57:11.999Z</time></trkpt><trkpt lat="45.89918167557649" lon="13.380633666691882"><ele>24.666666666666664</ele><time>2026-04-25T17:57:12.999Z</time></trkpt><trkpt lat="45.89897583035695" lon="13.380695737740641"><ele>24.0</ele><time>2026-04-25T17:57:13.999Z</time></trkpt><trkpt lat="45.898784605008984" lon="13.38076580519307"><ele>24.0</ele><time>2026-04-25T17:57:14.999Z</time></trkpt><trkpt lat="45.8985926308026" lon="13.380843054192669"><ele>24.0</ele><time>2026-04-25T17:57:15.999Z</time></trkpt><trkpt lat="45.898395381060574" lon="13.380919550086023"><ele>24.0</ele><time>2026-04-25T17:57:17Z</time></trkpt><trkpt lat="45.89819325316259" lon="13.380993542337825"><ele>24.666666666666664</ele><time>2026-04-25T17:57:18Z</time></trkpt><trkpt lat="45.89798549341091" lon="13.381076433462121"><ele>25.333333333333332</ele><time>2026-04-25T17:57:19Z</time></trkpt><trkpt lat="45.89777145175279" lon="13.381161049963985"><ele>26.0</ele><time>2026-04-25T17:57:20Z</time></trkpt><trkpt lat="45.89755490957411" lon="13.381253428040454"><ele>26.0</ele><time>2026-04-25T17:57:21Z</time></trkpt><trkpt lat="45.897343054029854" lon="13.381343937767042"><ele>26.0</ele><time>2026-04-25T17:57:22Z</time></trkpt><trkpt lat="45.89713670864931" lon="13.381430307639265"><ele>26.0</ele><time>2026-04-25T17:57:23Z</time></trkpt><trkpt lat="45.89693488703622" lon="13.381519246700886"><ele>26.0</ele><time>2026-04-25T17:57:24Z</time></trkpt><trkpt lat="45.896748433437054" lon="13.381605249027986"><ele>26.0</ele><time>2026-04-25T17:57:25Z</time></trkpt><trkpt lat="45.89657580696337" lon="13.381687350939254"><ele>26.0</ele><time>2026-04-25T17:57:26Z</time></trkpt><trkpt lat="45.8964143275141" lon="13.381760753267368"><ele>26.0</ele><time>2026-04-25T17:57:27Z</time></trkpt><trkpt lat="45.89626235076765" lon="13.381830193453291"><ele>26.0</ele><time>2026-04-25T17:57:28Z</time></trkpt><trkpt lat="45.896122154738265" lon="13.381891241996513"><ele>26.0</ele><time>2026-04-25T17:57:29Z</time></trkpt><trkpt lat="45.896002757397824" lon="13.381945764430515"><ele>26.0</ele><time>2026-04-25T17:57:30Z</time></trkpt><trkpt lat="45.89590991490343" lon="13.381986210566554"><ele>26.166666666666664</ele><time>2026-04-25T17:57:31Z</time></trkpt><trkpt lat="45.89584320668862" lon="13.38201600414689"><ele>26.333333333333332</ele><time>2026-04-25T17:57:32Z</time></trkpt><trkpt lat="45.89577724682975" lon="13.382005763963226"><ele>26.5</ele><time>2026-04-25T17:57:34Z</time></trkpt><trkpt lat="45.89579498890712" lon="13.381847611492715"><ele>26.666666666666664</ele><time>2026-04-25T17:57:38Z</time></trkpt><trkpt lat="45.89580650078523" lon="13.381711712360406"><ele>26.833333333333332</ele><time>2026-04-25T17:57:40Z</time></trkpt><trkpt lat="45.89585079730153" lon="13.381583537725792"><ele>27.0</ele><time>2026-04-25T17:57:41.999Z</time></trkpt><trkpt lat="45.89587602280598" lon="13.381467550406269"><ele>27.0</ele><time>2026-04-25T17:57:43.999Z</time></trkpt><trkpt lat="45.89589672536122" lon="13.38137253188627"><ele>27.0</ele><time>2026-04-25T17:57:45.999Z</time></trkpt><trkpt lat="45.89592661409209" lon="13.381265077613605"><ele>26.0</ele><time>2026-04-25T17:57:48.999Z</time></trkpt><trkpt lat="45.896008748838554" lon="13.381279038387609"><ele>26.0</ele><time>2026-04-25T17:57:49.999Z</time></trkpt><trkpt lat="45.89607750956163" lon="13.381259590111638"><ele>26.0</ele><time>2026-04-25T17:57:51.999Z</time></trkpt><trkpt lat="45.896158338389355" lon="13.381264591439145"><ele>26.0</ele><time>2026-04-25T17:57:54.999Z</time></trkpt></trkseg></trk></gpx>